<?xml version="1.0" encoding="UTF-8"?>
<gpx
version="1.1"
creator="Créé par Mes parcours sur Android"
xmlns="http://www.topografix.com/GPX/1/1"
xmlns:topografix="http://www.topografix.com/GPX/Private/TopoGrafix/0/1"
xmlns:xsi="http://www.w3.org/2001/XMLSchema-instance"
xsi:schemaLocation="http://www.topografix.com/GPX/1/1 http://www.topografix.com/GPX/1/1/gpx.xsd http://www.topografix.com/GPX/Private/TopoGrafix/0/1 http://www.topografix.com/GPX/Private/TopoGrafix/0/1/topografix.xsd">
<metadata>
<name><![CDATA[24/03/2012 13:34]]></name>
<desc><![CDATA[]]></desc>
</metadata>
<trk>
<name><![CDATA[24/03/2012 13:34]]></name>
<desc><![CDATA[]]></desc>
<extensions><topografix:color>c0c0c0</topografix:color></extensions>
<trkseg>
<trkpt lat="43.55406" lon="5.24011">
<ele>-1.5</ele>
<time>2012-03-24T12:34:29.000Z</time>
</trkpt>
<trkpt lat="43.55397" lon="5.24005">
<ele>0.2</ele>
<time>2012-03-24T12:34:31.000Z</time>
</trkpt>
<trkpt lat="43.55381" lon="5.24029">
<ele>2.1</ele>
<time>2012-03-24T12:34:32.000Z</time>
</trkpt>
<trkpt lat="43.55395" lon="5.24022">
<ele>0.5</ele>
<time>2012-03-24T12:34:33.000Z</time>
</trkpt>
<trkpt lat="43.55422" lon="5.24004">
<ele>2</ele>
<time>2012-03-24T12:34:34.000Z</time>
</trkpt>
<trkpt lat="43.55397" lon="5.24028">
<ele>5.2</ele>
<time>2012-03-24T12:34:35.000Z</time>
</trkpt>
<trkpt lat="43.55398" lon="5.24022">
<ele>0.4</ele>
<time>2012-03-24T12:34:36.000Z</time>
</trkpt>
<trkpt lat="43.55356" lon="5.24058">
<ele>56.8</ele>
<time>2012-03-24T12:34:41.000Z</time>
</trkpt>
<trkpt lat="43.55363" lon="5.2405">
<ele>71.4</ele>
<time>2012-03-24T12:34:42.000Z</time>
</trkpt>
<trkpt lat="43.55368" lon="5.24051">
<ele>71</ele>
<time>2012-03-24T12:34:45.000Z</time>
</trkpt>
<trkpt lat="43.55369" lon="5.24057">
<ele>92.8</ele>
<time>2012-03-24T12:34:50.000Z</time>
</trkpt>
<trkpt lat="43.55372" lon="5.24052">
<ele>91.6</ele>
<time>2012-03-24T12:35:09.000Z</time>
</trkpt>
<trkpt lat="43.55376" lon="5.24047">
<ele>73.5</ele>
<time>2012-03-24T12:35:11.000Z</time>
</trkpt>
<trkpt lat="43.55372" lon="5.24075">
<ele>118.3</ele>
<time>2012-03-24T12:37:16.000Z</time>
</trkpt>
<trkpt lat="43.55377" lon="5.24069">
<ele>116.8</ele>
<time>2012-03-24T12:37:18.000Z</time>
</trkpt>
<trkpt lat="43.55381" lon="5.24074">
<ele>123.9</ele>
<time>2012-03-24T12:37:56.000Z</time>
</trkpt>
<trkpt lat="43.55387" lon="5.24075">
<ele>124.4</ele>
<time>2012-03-24T12:37:59.000Z</time>
</trkpt>
<trkpt lat="43.55392" lon="5.24073">
<ele>125</ele>
<time>2012-03-24T12:38:01.000Z</time>
</trkpt>
<trkpt lat="43.55398" lon="5.24074">
<ele>126.8</ele>
<time>2012-03-24T12:38:03.000Z</time>
</trkpt>
<trkpt lat="43.55403" lon="5.24073">
<ele>130.3</ele>
<time>2012-03-24T12:38:05.000Z</time>
</trkpt>
<trkpt lat="43.55409" lon="5.24078">
<ele>131.9</ele>
<time>2012-03-24T12:38:07.000Z</time>
</trkpt>
<trkpt lat="43.55409" lon="5.24084">
<ele>131.6</ele>
<time>2012-03-24T12:38:08.000Z</time>
</trkpt>
<trkpt lat="43.5541" lon="5.24095">
<ele>127.5</ele>
<time>2012-03-24T12:38:10.000Z</time>
</trkpt>
<trkpt lat="43.55409" lon="5.24105">
<ele>126.7</ele>
<time>2012-03-24T12:38:12.000Z</time>
</trkpt>
<trkpt lat="43.55408" lon="5.24115">
<ele>125.7</ele>
<time>2012-03-24T12:38:14.000Z</time>
</trkpt>
<trkpt lat="43.55409" lon="5.24123">
<ele>126.4</ele>
<time>2012-03-24T12:38:16.000Z</time>
</trkpt>
<trkpt lat="43.5541" lon="5.24132">
<ele>125.2</ele>
<time>2012-03-24T12:38:18.000Z</time>
</trkpt>
<trkpt lat="43.55411" lon="5.2414">
<ele>125.4</ele>
<time>2012-03-24T12:38:20.000Z</time>
</trkpt>
<trkpt lat="43.55412" lon="5.24149">
<ele>125.1</ele>
<time>2012-03-24T12:38:22.000Z</time>
</trkpt>
<trkpt lat="43.55414" lon="5.24157">
<ele>125.4</ele>
<time>2012-03-24T12:38:24.000Z</time>
</trkpt>
<trkpt lat="43.55415" lon="5.24165">
<ele>126.4</ele>
<time>2012-03-24T12:38:26.000Z</time>
</trkpt>
<trkpt lat="43.55416" lon="5.24173">
<ele>126.1</ele>
<time>2012-03-24T12:38:28.000Z</time>
</trkpt>
<trkpt lat="43.55418" lon="5.24181">
<ele>126.1</ele>
<time>2012-03-24T12:38:30.000Z</time>
</trkpt>
<trkpt lat="43.55422" lon="5.24186">
<ele>126.7</ele>
<time>2012-03-24T12:38:32.000Z</time>
</trkpt>
<trkpt lat="43.55428" lon="5.24191">
<ele>127.2</ele>
<time>2012-03-24T12:38:34.000Z</time>
</trkpt>
<trkpt lat="43.55433" lon="5.24198">
<ele>127.3</ele>
<time>2012-03-24T12:38:36.000Z</time>
</trkpt>
<trkpt lat="43.55438" lon="5.24204">
<ele>129</ele>
<time>2012-03-24T12:38:38.000Z</time>
</trkpt>
<trkpt lat="43.55443" lon="5.2421">
<ele>130.3</ele>
<time>2012-03-24T12:38:40.000Z</time>
</trkpt>
<trkpt lat="43.55449" lon="5.24217">
<ele>131.3</ele>
<time>2012-03-24T12:38:42.000Z</time>
</trkpt>
<trkpt lat="43.55454" lon="5.24223">
<ele>132</ele>
<time>2012-03-24T12:38:44.000Z</time>
</trkpt>
<trkpt lat="43.55457" lon="5.24233">
<ele>132.2</ele>
<time>2012-03-24T12:38:46.000Z</time>
</trkpt>
<trkpt lat="43.55459" lon="5.24243">
<ele>131.8</ele>
<time>2012-03-24T12:38:48.000Z</time>
</trkpt>
<trkpt lat="43.55461" lon="5.24254">
<ele>132.1</ele>
<time>2012-03-24T12:38:50.000Z</time>
</trkpt>
<trkpt lat="43.55462" lon="5.24265">
<ele>131.4</ele>
<time>2012-03-24T12:38:52.000Z</time>
</trkpt>
<trkpt lat="43.55463" lon="5.24275">
<ele>131.4</ele>
<time>2012-03-24T12:38:54.000Z</time>
</trkpt>
<trkpt lat="43.55463" lon="5.24286">
<ele>131.3</ele>
<time>2012-03-24T12:38:56.000Z</time>
</trkpt>
<trkpt lat="43.55462" lon="5.24298">
<ele>131</ele>
<time>2012-03-24T12:38:58.000Z</time>
</trkpt>
<trkpt lat="43.55461" lon="5.24309">
<ele>130.9</ele>
<time>2012-03-24T12:39:00.000Z</time>
</trkpt>
<trkpt lat="43.55459" lon="5.2432">
<ele>130.8</ele>
<time>2012-03-24T12:39:02.000Z</time>
</trkpt>
<trkpt lat="43.55457" lon="5.24332">
<ele>130.9</ele>
<time>2012-03-24T12:39:04.000Z</time>
</trkpt>
<trkpt lat="43.55455" lon="5.24342">
<ele>131.3</ele>
<time>2012-03-24T12:39:06.000Z</time>
</trkpt>
<trkpt lat="43.55452" lon="5.24353">
<ele>131.7</ele>
<time>2012-03-24T12:39:08.000Z</time>
</trkpt>
<trkpt lat="43.5545" lon="5.24364">
<ele>131.5</ele>
<time>2012-03-24T12:39:10.000Z</time>
</trkpt>
<trkpt lat="43.5545" lon="5.24375">
<ele>131.2</ele>
<time>2012-03-24T12:39:12.000Z</time>
</trkpt>
<trkpt lat="43.5545" lon="5.24387">
<ele>130.8</ele>
<time>2012-03-24T12:39:14.000Z</time>
</trkpt>
<trkpt lat="43.55451" lon="5.24397">
<ele>130.8</ele>
<time>2012-03-24T12:39:16.000Z</time>
</trkpt>
<trkpt lat="43.55452" lon="5.24406">
<ele>131.6</ele>
<time>2012-03-24T12:39:18.000Z</time>
</trkpt>
<trkpt lat="43.5545" lon="5.24415">
<ele>131</ele>
<time>2012-03-24T12:39:20.000Z</time>
</trkpt>
<trkpt lat="43.55449" lon="5.24424">
<ele>130.4</ele>
<time>2012-03-24T12:39:22.000Z</time>
</trkpt>
<trkpt lat="43.55452" lon="5.24434">
<ele>130.8</ele>
<time>2012-03-24T12:39:24.000Z</time>
</trkpt>
<trkpt lat="43.55459" lon="5.24439">
<ele>131.3</ele>
<time>2012-03-24T12:39:26.000Z</time>
</trkpt>
<trkpt lat="43.55464" lon="5.2444">
<ele>132</ele>
<time>2012-03-24T12:39:28.000Z</time>
</trkpt>
<trkpt lat="43.5547" lon="5.24438">
<ele>132.2</ele>
<time>2012-03-24T12:39:30.000Z</time>
</trkpt>
<trkpt lat="43.55478" lon="5.24434">
<ele>132.8</ele>
<time>2012-03-24T12:39:32.000Z</time>
</trkpt>
<trkpt lat="43.55483" lon="5.24433">
<ele>133.6</ele>
<time>2012-03-24T12:39:33.000Z</time>
</trkpt>
<trkpt lat="43.5549" lon="5.24431">
<ele>133.3</ele>
<time>2012-03-24T12:39:35.000Z</time>
</trkpt>
<trkpt lat="43.55499" lon="5.2443">
<ele>133.6</ele>
<time>2012-03-24T12:39:37.000Z</time>
</trkpt>
<trkpt lat="43.55506" lon="5.24428">
<ele>134.2</ele>
<time>2012-03-24T12:39:39.000Z</time>
</trkpt>
<trkpt lat="43.55514" lon="5.24427">
<ele>134.5</ele>
<time>2012-03-24T12:39:41.000Z</time>
</trkpt>
<trkpt lat="43.55521" lon="5.24426">
<ele>135.1</ele>
<time>2012-03-24T12:39:43.000Z</time>
</trkpt>
<trkpt lat="43.55528" lon="5.24425">
<ele>135.4</ele>
<time>2012-03-24T12:39:45.000Z</time>
</trkpt>
<trkpt lat="43.55535" lon="5.24423">
<ele>135.8</ele>
<time>2012-03-24T12:39:47.000Z</time>
</trkpt>
<trkpt lat="43.55542" lon="5.24421">
<ele>136.6</ele>
<time>2012-03-24T12:39:49.000Z</time>
</trkpt>
<trkpt lat="43.55549" lon="5.2442">
<ele>136.6</ele>
<time>2012-03-24T12:39:51.000Z</time>
</trkpt>
<trkpt lat="43.55556" lon="5.24418">
<ele>136.9</ele>
<time>2012-03-24T12:39:53.000Z</time>
</trkpt>
<trkpt lat="43.55563" lon="5.24417">
<ele>137.1</ele>
<time>2012-03-24T12:39:55.000Z</time>
</trkpt>
<trkpt lat="43.5557" lon="5.24416">
<ele>137.5</ele>
<time>2012-03-24T12:39:57.000Z</time>
</trkpt>
<trkpt lat="43.55578" lon="5.24414">
<ele>137.4</ele>
<time>2012-03-24T12:39:59.000Z</time>
</trkpt>
<trkpt lat="43.55585" lon="5.24412">
<ele>137.9</ele>
<time>2012-03-24T12:40:01.000Z</time>
</trkpt>
<trkpt lat="43.55592" lon="5.24411">
<ele>138.3</ele>
<time>2012-03-24T12:40:03.000Z</time>
</trkpt>
<trkpt lat="43.55599" lon="5.24409">
<ele>139</ele>
<time>2012-03-24T12:40:05.000Z</time>
</trkpt>
<trkpt lat="43.55606" lon="5.24408">
<ele>139.4</ele>
<time>2012-03-24T12:40:07.000Z</time>
</trkpt>
<trkpt lat="43.55614" lon="5.24407">
<ele>139.6</ele>
<time>2012-03-24T12:40:09.000Z</time>
</trkpt>
<trkpt lat="43.55621" lon="5.24405">
<ele>140.2</ele>
<time>2012-03-24T12:40:11.000Z</time>
</trkpt>
<trkpt lat="43.55628" lon="5.24404">
<ele>140.8</ele>
<time>2012-03-24T12:40:13.000Z</time>
</trkpt>
<trkpt lat="43.55634" lon="5.24403">
<ele>140.9</ele>
<time>2012-03-24T12:40:15.000Z</time>
</trkpt>
<trkpt lat="43.55642" lon="5.24401">
<ele>141.2</ele>
<time>2012-03-24T12:40:17.000Z</time>
</trkpt>
<trkpt lat="43.55649" lon="5.24399">
<ele>142.1</ele>
<time>2012-03-24T12:40:19.000Z</time>
</trkpt>
<trkpt lat="43.55655" lon="5.24398">
<ele>143.5</ele>
<time>2012-03-24T12:40:21.000Z</time>
</trkpt>
<trkpt lat="43.55662" lon="5.24397">
<ele>144.6</ele>
<time>2012-03-24T12:40:23.000Z</time>
</trkpt>
<trkpt lat="43.5567" lon="5.24396">
<ele>145.1</ele>
<time>2012-03-24T12:40:25.000Z</time>
</trkpt>
<trkpt lat="43.55677" lon="5.24396">
<ele>145.3</ele>
<time>2012-03-24T12:40:27.000Z</time>
</trkpt>
<trkpt lat="43.55684" lon="5.24395">
<ele>146.2</ele>
<time>2012-03-24T12:40:29.000Z</time>
</trkpt>
<trkpt lat="43.55692" lon="5.24396">
<ele>146.7</ele>
<time>2012-03-24T12:40:31.000Z</time>
</trkpt>
<trkpt lat="43.55699" lon="5.24397">
<ele>147</ele>
<time>2012-03-24T12:40:33.000Z</time>
</trkpt>
<trkpt lat="43.55706" lon="5.24399">
<ele>147.8</ele>
<time>2012-03-24T12:40:35.000Z</time>
</trkpt>
<trkpt lat="43.55714" lon="5.24403">
<ele>148.2</ele>
<time>2012-03-24T12:40:37.000Z</time>
</trkpt>
<trkpt lat="43.55721" lon="5.24407">
<ele>148.8</ele>
<time>2012-03-24T12:40:39.000Z</time>
</trkpt>
<trkpt lat="43.55728" lon="5.24412">
<ele>149.5</ele>
<time>2012-03-24T12:40:41.000Z</time>
</trkpt>
<trkpt lat="43.55734" lon="5.24415">
<ele>153.7</ele>
<time>2012-03-24T12:40:43.000Z</time>
</trkpt>
<trkpt lat="43.5574" lon="5.24421">
<ele>155.1</ele>
<time>2012-03-24T12:40:45.000Z</time>
</trkpt>
<trkpt lat="43.55746" lon="5.24428">
<ele>156.6</ele>
<time>2012-03-24T12:40:47.000Z</time>
</trkpt>
<trkpt lat="43.5575" lon="5.24436">
<ele>157.7</ele>
<time>2012-03-24T12:40:49.000Z</time>
</trkpt>
<trkpt lat="43.55755" lon="5.24443">
<ele>158.4</ele>
<time>2012-03-24T12:40:51.000Z</time>
</trkpt>
<trkpt lat="43.55758" lon="5.24453">
<ele>158.5</ele>
<time>2012-03-24T12:40:53.000Z</time>
</trkpt>
<trkpt lat="43.5576" lon="5.24462">
<ele>159.6</ele>
<time>2012-03-24T12:40:55.000Z</time>
</trkpt>
<trkpt lat="43.55764" lon="5.24472">
<ele>159.6</ele>
<time>2012-03-24T12:40:57.000Z</time>
</trkpt>
<trkpt lat="43.55766" lon="5.24483">
<ele>158.2</ele>
<time>2012-03-24T12:40:59.000Z</time>
</trkpt>
<trkpt lat="43.55768" lon="5.24494">
<ele>157.5</ele>
<time>2012-03-24T12:41:01.000Z</time>
</trkpt>
<trkpt lat="43.5577" lon="5.24505">
<ele>156.6</ele>
<time>2012-03-24T12:41:03.000Z</time>
</trkpt>
<trkpt lat="43.55772" lon="5.24515">
<ele>156.1</ele>
<time>2012-03-24T12:41:05.000Z</time>
</trkpt>
<trkpt lat="43.55774" lon="5.24525">
<ele>156</ele>
<time>2012-03-24T12:41:07.000Z</time>
</trkpt>
<trkpt lat="43.55776" lon="5.24535">
<ele>155.7</ele>
<time>2012-03-24T12:41:09.000Z</time>
</trkpt>
<trkpt lat="43.55778" lon="5.24544">
<ele>155.7</ele>
<time>2012-03-24T12:41:11.000Z</time>
</trkpt>
<trkpt lat="43.5578" lon="5.24553">
<ele>155.4</ele>
<time>2012-03-24T12:41:13.000Z</time>
</trkpt>
<trkpt lat="43.55782" lon="5.24562">
<ele>154.6</ele>
<time>2012-03-24T12:41:15.000Z</time>
</trkpt>
<trkpt lat="43.55783" lon="5.24572">
<ele>154.3</ele>
<time>2012-03-24T12:41:17.000Z</time>
</trkpt>
<trkpt lat="43.55785" lon="5.24581">
<ele>154.5</ele>
<time>2012-03-24T12:41:19.000Z</time>
</trkpt>
<trkpt lat="43.55787" lon="5.24591">
<ele>154.7</ele>
<time>2012-03-24T12:41:21.000Z</time>
</trkpt>
<trkpt lat="43.55789" lon="5.246">
<ele>155.1</ele>
<time>2012-03-24T12:41:23.000Z</time>
</trkpt>
<trkpt lat="43.55791" lon="5.2461">
<ele>155.3</ele>
<time>2012-03-24T12:41:25.000Z</time>
</trkpt>
<trkpt lat="43.55792" lon="5.2462">
<ele>155.5</ele>
<time>2012-03-24T12:41:27.000Z</time>
</trkpt>
<trkpt lat="43.55794" lon="5.2463">
<ele>155.4</ele>
<time>2012-03-24T12:41:29.000Z</time>
</trkpt>
<trkpt lat="43.55796" lon="5.2464">
<ele>155.9</ele>
<time>2012-03-24T12:41:31.000Z</time>
</trkpt>
<trkpt lat="43.55797" lon="5.2465">
<ele>155.5</ele>
<time>2012-03-24T12:41:33.000Z</time>
</trkpt>
<trkpt lat="43.55798" lon="5.2466">
<ele>155.6</ele>
<time>2012-03-24T12:41:35.000Z</time>
</trkpt>
<trkpt lat="43.55799" lon="5.24669">
<ele>155.7</ele>
<time>2012-03-24T12:41:37.000Z</time>
</trkpt>
<trkpt lat="43.55801" lon="5.2468">
<ele>155.9</ele>
<time>2012-03-24T12:41:39.000Z</time>
</trkpt>
<trkpt lat="43.55802" lon="5.24689">
<ele>154.5</ele>
<time>2012-03-24T12:41:41.000Z</time>
</trkpt>
<trkpt lat="43.55804" lon="5.24699">
<ele>153.5</ele>
<time>2012-03-24T12:41:43.000Z</time>
</trkpt>
<trkpt lat="43.55806" lon="5.24709">
<ele>152.6</ele>
<time>2012-03-24T12:41:45.000Z</time>
</trkpt>
<trkpt lat="43.55808" lon="5.24719">
<ele>153.5</ele>
<time>2012-03-24T12:41:47.000Z</time>
</trkpt>
<trkpt lat="43.5581" lon="5.2473">
<ele>154.1</ele>
<time>2012-03-24T12:41:49.000Z</time>
</trkpt>
<trkpt lat="43.55812" lon="5.24741">
<ele>154.5</ele>
<time>2012-03-24T12:41:51.000Z</time>
</trkpt>
<trkpt lat="43.55814" lon="5.24752">
<ele>154.8</ele>
<time>2012-03-24T12:41:53.000Z</time>
</trkpt>
<trkpt lat="43.55815" lon="5.24763">
<ele>154.1</ele>
<time>2012-03-24T12:41:55.000Z</time>
</trkpt>
<trkpt lat="43.55817" lon="5.24774">
<ele>154.2</ele>
<time>2012-03-24T12:41:57.000Z</time>
</trkpt>
<trkpt lat="43.55818" lon="5.24785">
<ele>154.5</ele>
<time>2012-03-24T12:41:59.000Z</time>
</trkpt>
<trkpt lat="43.5582" lon="5.24795">
<ele>155.1</ele>
<time>2012-03-24T12:42:01.000Z</time>
</trkpt>
<trkpt lat="43.55822" lon="5.24806">
<ele>155.7</ele>
<time>2012-03-24T12:42:03.000Z</time>
</trkpt>
<trkpt lat="43.55822" lon="5.24817">
<ele>155.7</ele>
<time>2012-03-24T12:42:05.000Z</time>
</trkpt>
<trkpt lat="43.55823" lon="5.24828">
<ele>155.8</ele>
<time>2012-03-24T12:42:07.000Z</time>
</trkpt>
<trkpt lat="43.55824" lon="5.24839">
<ele>156.1</ele>
<time>2012-03-24T12:42:09.000Z</time>
</trkpt>
<trkpt lat="43.55824" lon="5.2485">
<ele>155.9</ele>
<time>2012-03-24T12:42:11.000Z</time>
</trkpt>
<trkpt lat="43.55825" lon="5.24856">
<ele>156</ele>
<time>2012-03-24T12:42:12.000Z</time>
</trkpt>
<trkpt lat="43.55825" lon="5.24862">
<ele>156.1</ele>
<time>2012-03-24T12:42:13.000Z</time>
</trkpt>
<trkpt lat="43.55826" lon="5.24874">
<ele>156.2</ele>
<time>2012-03-24T12:42:15.000Z</time>
</trkpt>
<trkpt lat="43.55826" lon="5.24885">
<ele>155.8</ele>
<time>2012-03-24T12:42:17.000Z</time>
</trkpt>
<trkpt lat="43.55826" lon="5.24896">
<ele>155.7</ele>
<time>2012-03-24T12:42:19.000Z</time>
</trkpt>
<trkpt lat="43.55826" lon="5.24907">
<ele>156.2</ele>
<time>2012-03-24T12:42:21.000Z</time>
</trkpt>
<trkpt lat="43.55827" lon="5.24918">
<ele>156.4</ele>
<time>2012-03-24T12:42:23.000Z</time>
</trkpt>
<trkpt lat="43.55829" lon="5.24929">
<ele>157.4</ele>
<time>2012-03-24T12:42:25.000Z</time>
</trkpt>
<trkpt lat="43.5583" lon="5.24939">
<ele>157.9</ele>
<time>2012-03-24T12:42:27.000Z</time>
</trkpt>
<trkpt lat="43.5583" lon="5.2495">
<ele>158.2</ele>
<time>2012-03-24T12:42:29.000Z</time>
</trkpt>
<trkpt lat="43.55832" lon="5.24961">
<ele>158</ele>
<time>2012-03-24T12:42:31.000Z</time>
</trkpt>
<trkpt lat="43.55833" lon="5.24973">
<ele>158.5</ele>
<time>2012-03-24T12:42:33.000Z</time>
</trkpt>
<trkpt lat="43.55832" lon="5.24987">
<ele>158.4</ele>
<time>2012-03-24T12:42:35.000Z</time>
</trkpt>
<trkpt lat="43.55832" lon="5.24993">
<ele>158.1</ele>
<time>2012-03-24T12:42:36.000Z</time>
</trkpt>
<trkpt lat="43.55832" lon="5.25005">
<ele>157.4</ele>
<time>2012-03-24T12:42:38.000Z</time>
</trkpt>
<trkpt lat="43.55832" lon="5.25011">
<ele>157.3</ele>
<time>2012-03-24T12:42:39.000Z</time>
</trkpt>
<trkpt lat="43.55833" lon="5.25022">
<ele>158.2</ele>
<time>2012-03-24T12:42:41.000Z</time>
</trkpt>
<trkpt lat="43.55835" lon="5.25034">
<ele>158.4</ele>
<time>2012-03-24T12:42:43.000Z</time>
</trkpt>
<trkpt lat="43.55836" lon="5.25045">
<ele>158.3</ele>
<time>2012-03-24T12:42:45.000Z</time>
</trkpt>
<trkpt lat="43.55837" lon="5.25055">
<ele>158.8</ele>
<time>2012-03-24T12:42:47.000Z</time>
</trkpt>
<trkpt lat="43.55838" lon="5.25066">
<ele>158.7</ele>
<time>2012-03-24T12:42:49.000Z</time>
</trkpt>
<trkpt lat="43.5584" lon="5.25077">
<ele>158.8</ele>
<time>2012-03-24T12:42:51.000Z</time>
</trkpt>
<trkpt lat="43.55842" lon="5.25088">
<ele>159.4</ele>
<time>2012-03-24T12:42:53.000Z</time>
</trkpt>
<trkpt lat="43.55844" lon="5.25099">
<ele>159.9</ele>
<time>2012-03-24T12:42:55.000Z</time>
</trkpt>
<trkpt lat="43.55846" lon="5.25111">
<ele>159.5</ele>
<time>2012-03-24T12:42:57.000Z</time>
</trkpt>
<trkpt lat="43.55847" lon="5.25117">
<ele>159.4</ele>
<time>2012-03-24T12:42:58.000Z</time>
</trkpt>
<trkpt lat="43.55848" lon="5.25124">
<ele>159.4</ele>
<time>2012-03-24T12:42:59.000Z</time>
</trkpt>
<trkpt lat="43.55849" lon="5.2513">
<ele>158.9</ele>
<time>2012-03-24T12:43:00.000Z</time>
</trkpt>
<trkpt lat="43.5585" lon="5.25137">
<ele>158.8</ele>
<time>2012-03-24T12:43:01.000Z</time>
</trkpt>
<trkpt lat="43.55852" lon="5.25143">
<ele>158.6</ele>
<time>2012-03-24T12:43:02.000Z</time>
</trkpt>
<trkpt lat="43.55853" lon="5.2515">
<ele>158.4</ele>
<time>2012-03-24T12:43:03.000Z</time>
</trkpt>
<trkpt lat="43.55854" lon="5.25158">
<ele>158.1</ele>
<time>2012-03-24T12:43:04.000Z</time>
</trkpt>
<trkpt lat="43.55854" lon="5.25166">
<ele>158.1</ele>
<time>2012-03-24T12:43:05.000Z</time>
</trkpt>
<trkpt lat="43.55855" lon="5.25174">
<ele>158.1</ele>
<time>2012-03-24T12:43:06.000Z</time>
</trkpt>
<trkpt lat="43.55855" lon="5.25182">
<ele>158.2</ele>
<time>2012-03-24T12:43:07.000Z</time>
</trkpt>
<trkpt lat="43.55854" lon="5.2519">
<ele>158</ele>
<time>2012-03-24T12:43:08.000Z</time>
</trkpt>
<trkpt lat="43.55855" lon="5.25197">
<ele>158.9</ele>
<time>2012-03-24T12:43:09.000Z</time>
</trkpt>
<trkpt lat="43.55855" lon="5.25205">
<ele>158.6</ele>
<time>2012-03-24T12:43:10.000Z</time>
</trkpt>
<trkpt lat="43.55855" lon="5.25213">
<ele>158.6</ele>
<time>2012-03-24T12:43:11.000Z</time>
</trkpt>
<trkpt lat="43.55856" lon="5.25221">
<ele>158.6</ele>
<time>2012-03-24T12:43:12.000Z</time>
</trkpt>
<trkpt lat="43.55856" lon="5.25228">
<ele>158.6</ele>
<time>2012-03-24T12:43:13.000Z</time>
</trkpt>
<trkpt lat="43.55856" lon="5.25235">
<ele>158.7</ele>
<time>2012-03-24T12:43:14.000Z</time>
</trkpt>
<trkpt lat="43.55856" lon="5.25242">
<ele>158.9</ele>
<time>2012-03-24T12:43:15.000Z</time>
</trkpt>
<trkpt lat="43.55856" lon="5.25249">
<ele>159.1</ele>
<time>2012-03-24T12:43:16.000Z</time>
</trkpt>
<trkpt lat="43.55856" lon="5.25256">
<ele>159.1</ele>
<time>2012-03-24T12:43:17.000Z</time>
</trkpt>
<trkpt lat="43.55856" lon="5.25264">
<ele>159.1</ele>
<time>2012-03-24T12:43:18.000Z</time>
</trkpt>
<trkpt lat="43.55856" lon="5.25272">
<ele>159.2</ele>
<time>2012-03-24T12:43:19.000Z</time>
</trkpt>
<trkpt lat="43.55856" lon="5.25279">
<ele>159.2</ele>
<time>2012-03-24T12:43:20.000Z</time>
</trkpt>
<trkpt lat="43.55856" lon="5.25286">
<ele>159.5</ele>
<time>2012-03-24T12:43:21.000Z</time>
</trkpt>
<trkpt lat="43.55855" lon="5.25293">
<ele>159.5</ele>
<time>2012-03-24T12:43:22.000Z</time>
</trkpt>
<trkpt lat="43.55855" lon="5.253">
<ele>159.3</ele>
<time>2012-03-24T12:43:23.000Z</time>
</trkpt>
<trkpt lat="43.55855" lon="5.25308">
<ele>159</ele>
<time>2012-03-24T12:43:24.000Z</time>
</trkpt>
<trkpt lat="43.55854" lon="5.25315">
<ele>158.5</ele>
<time>2012-03-24T12:43:25.000Z</time>
</trkpt>
<trkpt lat="43.55854" lon="5.25322">
<ele>158.4</ele>
<time>2012-03-24T12:43:26.000Z</time>
</trkpt>
<trkpt lat="43.55854" lon="5.2533">
<ele>158.7</ele>
<time>2012-03-24T12:43:27.000Z</time>
</trkpt>
<trkpt lat="43.55854" lon="5.25337">
<ele>159</ele>
<time>2012-03-24T12:43:28.000Z</time>
</trkpt>
<trkpt lat="43.55855" lon="5.25344">
<ele>159.1</ele>
<time>2012-03-24T12:43:29.000Z</time>
</trkpt>
<trkpt lat="43.55855" lon="5.25352">
<ele>159.3</ele>
<time>2012-03-24T12:43:30.000Z</time>
</trkpt>
<trkpt lat="43.55855" lon="5.25359">
<ele>159.2</ele>
<time>2012-03-24T12:43:31.000Z</time>
</trkpt>
<trkpt lat="43.55854" lon="5.25365">
<ele>159.4</ele>
<time>2012-03-24T12:43:32.000Z</time>
</trkpt>
<trkpt lat="43.55854" lon="5.25378">
<ele>159.1</ele>
<time>2012-03-24T12:43:34.000Z</time>
</trkpt>
<trkpt lat="43.55854" lon="5.25385">
<ele>158.8</ele>
<time>2012-03-24T12:43:35.000Z</time>
</trkpt>
<trkpt lat="43.55854" lon="5.25391">
<ele>158.9</ele>
<time>2012-03-24T12:43:36.000Z</time>
</trkpt>
<trkpt lat="43.55854" lon="5.25398">
<ele>159</ele>
<time>2012-03-24T12:43:37.000Z</time>
</trkpt>
<trkpt lat="43.55853" lon="5.25404">
<ele>159</ele>
<time>2012-03-24T12:43:38.000Z</time>
</trkpt>
<trkpt lat="43.55853" lon="5.25411">
<ele>159.2</ele>
<time>2012-03-24T12:43:39.000Z</time>
</trkpt>
<trkpt lat="43.55853" lon="5.25417">
<ele>159.3</ele>
<time>2012-03-24T12:43:40.000Z</time>
</trkpt>
<trkpt lat="43.55853" lon="5.25424">
<ele>159.4</ele>
<time>2012-03-24T12:43:41.000Z</time>
</trkpt>
<trkpt lat="43.55853" lon="5.25434">
<ele>159.4</ele>
<time>2012-03-24T12:43:43.000Z</time>
</trkpt>
<trkpt lat="43.55853" lon="5.25442">
<ele>159.3</ele>
<time>2012-03-24T12:43:45.000Z</time>
</trkpt>
<trkpt lat="43.55853" lon="5.25451">
<ele>159.5</ele>
<time>2012-03-24T12:43:48.000Z</time>
</trkpt>
<trkpt lat="43.55853" lon="5.25462">
<ele>159.5</ele>
<time>2012-03-24T12:43:50.000Z</time>
</trkpt>
<trkpt lat="43.55854" lon="5.25471">
<ele>159.3</ele>
<time>2012-03-24T12:43:52.000Z</time>
</trkpt>
<trkpt lat="43.55855" lon="5.25481">
<ele>159.7</ele>
<time>2012-03-24T12:43:54.000Z</time>
</trkpt>
<trkpt lat="43.55853" lon="5.25488">
<ele>159.9</ele>
<time>2012-03-24T12:43:55.000Z</time>
</trkpt>
<trkpt lat="43.55851" lon="5.25494">
<ele>160.1</ele>
<time>2012-03-24T12:43:56.000Z</time>
</trkpt>
<trkpt lat="43.55849" lon="5.25506">
<ele>159.9</ele>
<time>2012-03-24T12:43:58.000Z</time>
</trkpt>
<trkpt lat="43.55844" lon="5.25515">
<ele>159.9</ele>
<time>2012-03-24T12:44:00.000Z</time>
</trkpt>
<trkpt lat="43.55841" lon="5.2552">
<ele>160</ele>
<time>2012-03-24T12:44:01.000Z</time>
</trkpt>
<trkpt lat="43.55838" lon="5.25526">
<ele>160.1</ele>
<time>2012-03-24T12:44:02.000Z</time>
</trkpt>
<trkpt lat="43.5583" lon="5.25537">
<ele>160.1</ele>
<time>2012-03-24T12:44:03.000Z</time>
</trkpt>
<trkpt lat="43.55827" lon="5.25546">
<ele>160.1</ele>
<time>2012-03-24T12:44:04.000Z</time>
</trkpt>
<trkpt lat="43.55825" lon="5.25556">
<ele>159.1</ele>
<time>2012-03-24T12:44:05.000Z</time>
</trkpt>
<trkpt lat="43.55822" lon="5.25564">
<ele>159.2</ele>
<time>2012-03-24T12:44:06.000Z</time>
</trkpt>
<trkpt lat="43.55818" lon="5.25572">
<ele>159.3</ele>
<time>2012-03-24T12:44:07.000Z</time>
</trkpt>
<trkpt lat="43.55816" lon="5.2558">
<ele>159.1</ele>
<time>2012-03-24T12:44:08.000Z</time>
</trkpt>
<trkpt lat="43.55813" lon="5.2559">
<ele>159.1</ele>
<time>2012-03-24T12:44:09.000Z</time>
</trkpt>
<trkpt lat="43.55812" lon="5.256">
<ele>158.8</ele>
<time>2012-03-24T12:44:10.000Z</time>
</trkpt>
<trkpt lat="43.55812" lon="5.25612">
<ele>157.7</ele>
<time>2012-03-24T12:44:11.000Z</time>
</trkpt>
<trkpt lat="43.55811" lon="5.25622">
<ele>157.6</ele>
<time>2012-03-24T12:44:12.000Z</time>
</trkpt>
<trkpt lat="43.55811" lon="5.25631">
<ele>157.8</ele>
<time>2012-03-24T12:44:13.000Z</time>
</trkpt>
<trkpt lat="43.55812" lon="5.2564">
<ele>158.1</ele>
<time>2012-03-24T12:44:14.000Z</time>
</trkpt>
<trkpt lat="43.55814" lon="5.25646">
<ele>157.8</ele>
<time>2012-03-24T12:44:15.000Z</time>
</trkpt>
<trkpt lat="43.55815" lon="5.25656">
<ele>157.7</ele>
<time>2012-03-24T12:44:16.000Z</time>
</trkpt>
<trkpt lat="43.55817" lon="5.25665">
<ele>157.4</ele>
<time>2012-03-24T12:44:17.000Z</time>
</trkpt>
<trkpt lat="43.55818" lon="5.25673">
<ele>157.4</ele>
<time>2012-03-24T12:44:18.000Z</time>
</trkpt>
<trkpt lat="43.5582" lon="5.2568">
<ele>157.6</ele>
<time>2012-03-24T12:44:19.000Z</time>
</trkpt>
<trkpt lat="43.55822" lon="5.25686">
<ele>157.1</ele>
<time>2012-03-24T12:44:20.000Z</time>
</trkpt>
<trkpt lat="43.55823" lon="5.25693">
<ele>157.2</ele>
<time>2012-03-24T12:44:21.000Z</time>
</trkpt>
<trkpt lat="43.55823" lon="5.25703">
<ele>158.3</ele>
<time>2012-03-24T12:44:22.000Z</time>
</trkpt>
<trkpt lat="43.55824" lon="5.2571">
<ele>158.8</ele>
<time>2012-03-24T12:44:23.000Z</time>
</trkpt>
<trkpt lat="43.55826" lon="5.25718">
<ele>159.7</ele>
<time>2012-03-24T12:44:24.000Z</time>
</trkpt>
<trkpt lat="43.55827" lon="5.25725">
<ele>160.1</ele>
<time>2012-03-24T12:44:25.000Z</time>
</trkpt>
<trkpt lat="43.55828" lon="5.25733">
<ele>160.6</ele>
<time>2012-03-24T12:44:26.000Z</time>
</trkpt>
<trkpt lat="43.5583" lon="5.25739">
<ele>160</ele>
<time>2012-03-24T12:44:27.000Z</time>
</trkpt>
<trkpt lat="43.55832" lon="5.25745">
<ele>160.7</ele>
<time>2012-03-24T12:44:28.000Z</time>
</trkpt>
<trkpt lat="43.55834" lon="5.25752">
<ele>160.7</ele>
<time>2012-03-24T12:44:29.000Z</time>
</trkpt>
<trkpt lat="43.55836" lon="5.25759">
<ele>161</ele>
<time>2012-03-24T12:44:30.000Z</time>
</trkpt>
<trkpt lat="43.55837" lon="5.25765">
<ele>161.6</ele>
<time>2012-03-24T12:44:31.000Z</time>
</trkpt>
<trkpt lat="43.55838" lon="5.25772">
<ele>161.7</ele>
<time>2012-03-24T12:44:32.000Z</time>
</trkpt>
<trkpt lat="43.5584" lon="5.25778">
<ele>161.8</ele>
<time>2012-03-24T12:44:33.000Z</time>
</trkpt>
<trkpt lat="43.55842" lon="5.25785">
<ele>161.9</ele>
<time>2012-03-24T12:44:34.000Z</time>
</trkpt>
<trkpt lat="43.55843" lon="5.25792">
<ele>161.5</ele>
<time>2012-03-24T12:44:35.000Z</time>
</trkpt>
<trkpt lat="43.55844" lon="5.25798">
<ele>161.1</ele>
<time>2012-03-24T12:44:36.000Z</time>
</trkpt>
<trkpt lat="43.55845" lon="5.25805">
<ele>161.6</ele>
<time>2012-03-24T12:44:37.000Z</time>
</trkpt>
<trkpt lat="43.55847" lon="5.25811">
<ele>161.3</ele>
<time>2012-03-24T12:44:38.000Z</time>
</trkpt>
<trkpt lat="43.55848" lon="5.25818">
<ele>161.4</ele>
<time>2012-03-24T12:44:39.000Z</time>
</trkpt>
<trkpt lat="43.55849" lon="5.25824">
<ele>161.4</ele>
<time>2012-03-24T12:44:40.000Z</time>
</trkpt>
<trkpt lat="43.5585" lon="5.25831">
<ele>160.7</ele>
<time>2012-03-24T12:44:41.000Z</time>
</trkpt>
<trkpt lat="43.55852" lon="5.25839">
<ele>160.8</ele>
<time>2012-03-24T12:44:42.000Z</time>
</trkpt>
<trkpt lat="43.55853" lon="5.25846">
<ele>160.8</ele>
<time>2012-03-24T12:44:43.000Z</time>
</trkpt>
<trkpt lat="43.55853" lon="5.25854">
<ele>160</ele>
<time>2012-03-24T12:44:44.000Z</time>
</trkpt>
<trkpt lat="43.55854" lon="5.25862">
<ele>160.4</ele>
<time>2012-03-24T12:44:45.000Z</time>
</trkpt>
<trkpt lat="43.55854" lon="5.2587">
<ele>160.5</ele>
<time>2012-03-24T12:44:46.000Z</time>
</trkpt>
<trkpt lat="43.55854" lon="5.25879">
<ele>160.4</ele>
<time>2012-03-24T12:44:47.000Z</time>
</trkpt>
<trkpt lat="43.55854" lon="5.25887">
<ele>160</ele>
<time>2012-03-24T12:44:48.000Z</time>
</trkpt>
<trkpt lat="43.55853" lon="5.25895">
<ele>159.7</ele>
<time>2012-03-24T12:44:49.000Z</time>
</trkpt>
<trkpt lat="43.55852" lon="5.25903">
<ele>159.7</ele>
<time>2012-03-24T12:44:50.000Z</time>
</trkpt>
<trkpt lat="43.55851" lon="5.25912">
<ele>159.6</ele>
<time>2012-03-24T12:44:51.000Z</time>
</trkpt>
<trkpt lat="43.5585" lon="5.2592">
<ele>159.6</ele>
<time>2012-03-24T12:44:52.000Z</time>
</trkpt>
<trkpt lat="43.55849" lon="5.25928">
<ele>159.2</ele>
<time>2012-03-24T12:44:53.000Z</time>
</trkpt>
<trkpt lat="43.55848" lon="5.25937">
<ele>159.1</ele>
<time>2012-03-24T12:44:54.000Z</time>
</trkpt>
<trkpt lat="43.55847" lon="5.25945">
<ele>159.9</ele>
<time>2012-03-24T12:44:55.000Z</time>
</trkpt>
<trkpt lat="43.55846" lon="5.25953">
<ele>159.8</ele>
<time>2012-03-24T12:44:56.000Z</time>
</trkpt>
<trkpt lat="43.55845" lon="5.25961">
<ele>159.9</ele>
<time>2012-03-24T12:44:57.000Z</time>
</trkpt>
<trkpt lat="43.55844" lon="5.2597">
<ele>160</ele>
<time>2012-03-24T12:44:58.000Z</time>
</trkpt>
<trkpt lat="43.55844" lon="5.25978">
<ele>160.3</ele>
<time>2012-03-24T12:44:59.000Z</time>
</trkpt>
<trkpt lat="43.55843" lon="5.25986">
<ele>160.2</ele>
<time>2012-03-24T12:45:00.000Z</time>
</trkpt>
<trkpt lat="43.55842" lon="5.25994">
<ele>160.1</ele>
<time>2012-03-24T12:45:01.000Z</time>
</trkpt>
<trkpt lat="43.55841" lon="5.26003">
<ele>159.9</ele>
<time>2012-03-24T12:45:02.000Z</time>
</trkpt>
<trkpt lat="43.5584" lon="5.26011">
<ele>160.3</ele>
<time>2012-03-24T12:45:03.000Z</time>
</trkpt>
<trkpt lat="43.5584" lon="5.26019">
<ele>160.6</ele>
<time>2012-03-24T12:45:04.000Z</time>
</trkpt>
<trkpt lat="43.55839" lon="5.26027">
<ele>161.1</ele>
<time>2012-03-24T12:45:05.000Z</time>
</trkpt>
<trkpt lat="43.55838" lon="5.26036">
<ele>161.1</ele>
<time>2012-03-24T12:45:06.000Z</time>
</trkpt>
<trkpt lat="43.55837" lon="5.26044">
<ele>161.1</ele>
<time>2012-03-24T12:45:07.000Z</time>
</trkpt>
<trkpt lat="43.55836" lon="5.26053">
<ele>161</ele>
<time>2012-03-24T12:45:08.000Z</time>
</trkpt>
<trkpt lat="43.55836" lon="5.26061">
<ele>161</ele>
<time>2012-03-24T12:45:09.000Z</time>
</trkpt>
<trkpt lat="43.55834" lon="5.2607">
<ele>160.8</ele>
<time>2012-03-24T12:45:10.000Z</time>
</trkpt>
<trkpt lat="43.55834" lon="5.26078">
<ele>160.6</ele>
<time>2012-03-24T12:45:11.000Z</time>
</trkpt>
<trkpt lat="43.55833" lon="5.26087">
<ele>160.9</ele>
<time>2012-03-24T12:45:12.000Z</time>
</trkpt>
<trkpt lat="43.55832" lon="5.26096">
<ele>160.6</ele>
<time>2012-03-24T12:45:13.000Z</time>
</trkpt>
<trkpt lat="43.55831" lon="5.26104">
<ele>160.5</ele>
<time>2012-03-24T12:45:14.000Z</time>
</trkpt>
<trkpt lat="43.5583" lon="5.26112">
<ele>160.4</ele>
<time>2012-03-24T12:45:15.000Z</time>
</trkpt>
<trkpt lat="43.55829" lon="5.2612">
<ele>160.4</ele>
<time>2012-03-24T12:45:16.000Z</time>
</trkpt>
<trkpt lat="43.55829" lon="5.26128">
<ele>160.3</ele>
<time>2012-03-24T12:45:17.000Z</time>
</trkpt>
<trkpt lat="43.55828" lon="5.26136">
<ele>160.3</ele>
<time>2012-03-24T12:45:18.000Z</time>
</trkpt>
<trkpt lat="43.55827" lon="5.26144">
<ele>160.4</ele>
<time>2012-03-24T12:45:19.000Z</time>
</trkpt>
<trkpt lat="43.55826" lon="5.26153">
<ele>160.6</ele>
<time>2012-03-24T12:45:20.000Z</time>
</trkpt>
<trkpt lat="43.55825" lon="5.26161">
<ele>160.6</ele>
<time>2012-03-24T12:45:21.000Z</time>
</trkpt>
<trkpt lat="43.55824" lon="5.26169">
<ele>160.7</ele>
<time>2012-03-24T12:45:22.000Z</time>
</trkpt>
<trkpt lat="43.55824" lon="5.26177">
<ele>160.9</ele>
<time>2012-03-24T12:45:23.000Z</time>
</trkpt>
<trkpt lat="43.55823" lon="5.26184">
<ele>160.4</ele>
<time>2012-03-24T12:45:24.000Z</time>
</trkpt>
<trkpt lat="43.55822" lon="5.26192">
<ele>160.7</ele>
<time>2012-03-24T12:45:25.000Z</time>
</trkpt>
<trkpt lat="43.55822" lon="5.262">
<ele>160.9</ele>
<time>2012-03-24T12:45:26.000Z</time>
</trkpt>
<trkpt lat="43.55821" lon="5.26207">
<ele>161</ele>
<time>2012-03-24T12:45:27.000Z</time>
</trkpt>
<trkpt lat="43.55821" lon="5.26215">
<ele>161.2</ele>
<time>2012-03-24T12:45:28.000Z</time>
</trkpt>
<trkpt lat="43.5582" lon="5.26223">
<ele>161.2</ele>
<time>2012-03-24T12:45:29.000Z</time>
</trkpt>
<trkpt lat="43.5582" lon="5.2623">
<ele>161.3</ele>
<time>2012-03-24T12:45:30.000Z</time>
</trkpt>
<trkpt lat="43.55819" lon="5.26238">
<ele>161.4</ele>
<time>2012-03-24T12:45:31.000Z</time>
</trkpt>
<trkpt lat="43.55819" lon="5.26246">
<ele>161.7</ele>
<time>2012-03-24T12:45:32.000Z</time>
</trkpt>
<trkpt lat="43.55818" lon="5.26252">
<ele>162.2</ele>
<time>2012-03-24T12:45:33.000Z</time>
</trkpt>
<trkpt lat="43.55818" lon="5.2626">
<ele>162.3</ele>
<time>2012-03-24T12:45:34.000Z</time>
</trkpt>
<trkpt lat="43.55816" lon="5.26268">
<ele>163</ele>
<time>2012-03-24T12:45:35.000Z</time>
</trkpt>
<trkpt lat="43.55816" lon="5.26275">
<ele>162.9</ele>
<time>2012-03-24T12:45:36.000Z</time>
</trkpt>
<trkpt lat="43.55815" lon="5.26282">
<ele>163</ele>
<time>2012-03-24T12:45:37.000Z</time>
</trkpt>
<trkpt lat="43.55814" lon="5.2629">
<ele>163.1</ele>
<time>2012-03-24T12:45:38.000Z</time>
</trkpt>
<trkpt lat="43.55812" lon="5.26297">
<ele>163.2</ele>
<time>2012-03-24T12:45:39.000Z</time>
</trkpt>
<trkpt lat="43.5581" lon="5.26305">
<ele>163.7</ele>
<time>2012-03-24T12:45:40.000Z</time>
</trkpt>
<trkpt lat="43.55809" lon="5.26312">
<ele>163.8</ele>
<time>2012-03-24T12:45:41.000Z</time>
</trkpt>
<trkpt lat="43.55806" lon="5.26325">
<ele>163.4</ele>
<time>2012-03-24T12:45:43.000Z</time>
</trkpt>
<trkpt lat="43.55804" lon="5.26333">
<ele>163.4</ele>
<time>2012-03-24T12:45:44.000Z</time>
</trkpt>
<trkpt lat="43.55803" lon="5.2634">
<ele>163.6</ele>
<time>2012-03-24T12:45:45.000Z</time>
</trkpt>
<trkpt lat="43.55801" lon="5.26347">
<ele>163.3</ele>
<time>2012-03-24T12:45:46.000Z</time>
</trkpt>
<trkpt lat="43.55799" lon="5.26355">
<ele>163.5</ele>
<time>2012-03-24T12:45:47.000Z</time>
</trkpt>
<trkpt lat="43.55797" lon="5.26362">
<ele>163.6</ele>
<time>2012-03-24T12:45:48.000Z</time>
</trkpt>
<trkpt lat="43.55796" lon="5.26369">
<ele>163.8</ele>
<time>2012-03-24T12:45:49.000Z</time>
</trkpt>
<trkpt lat="43.55793" lon="5.26376">
<ele>164.2</ele>
<time>2012-03-24T12:45:50.000Z</time>
</trkpt>
<trkpt lat="43.55791" lon="5.26383">
<ele>164.4</ele>
<time>2012-03-24T12:45:51.000Z</time>
</trkpt>
<trkpt lat="43.55789" lon="5.2639">
<ele>164.6</ele>
<time>2012-03-24T12:45:52.000Z</time>
</trkpt>
<trkpt lat="43.55787" lon="5.26397">
<ele>164.7</ele>
<time>2012-03-24T12:45:53.000Z</time>
</trkpt>
<trkpt lat="43.55784" lon="5.26404">
<ele>165</ele>
<time>2012-03-24T12:45:54.000Z</time>
</trkpt>
<trkpt lat="43.55782" lon="5.26411">
<ele>164.9</ele>
<time>2012-03-24T12:45:55.000Z</time>
</trkpt>
<trkpt lat="43.55779" lon="5.26419">
<ele>165.3</ele>
<time>2012-03-24T12:45:56.000Z</time>
</trkpt>
<trkpt lat="43.55776" lon="5.26426">
<ele>165.2</ele>
<time>2012-03-24T12:45:57.000Z</time>
</trkpt>
<trkpt lat="43.55774" lon="5.26433">
<ele>164.8</ele>
<time>2012-03-24T12:45:58.000Z</time>
</trkpt>
<trkpt lat="43.55771" lon="5.2644">
<ele>164.6</ele>
<time>2012-03-24T12:45:59.000Z</time>
</trkpt>
<trkpt lat="43.55768" lon="5.26448">
<ele>164.6</ele>
<time>2012-03-24T12:46:00.000Z</time>
</trkpt>
<trkpt lat="43.55765" lon="5.26455">
<ele>164.6</ele>
<time>2012-03-24T12:46:01.000Z</time>
</trkpt>
<trkpt lat="43.55763" lon="5.26463">
<ele>164.3</ele>
<time>2012-03-24T12:46:02.000Z</time>
</trkpt>
<trkpt lat="43.55759" lon="5.26471">
<ele>164.2</ele>
<time>2012-03-24T12:46:03.000Z</time>
</trkpt>
<trkpt lat="43.55756" lon="5.26479">
<ele>163.8</ele>
<time>2012-03-24T12:46:04.000Z</time>
</trkpt>
<trkpt lat="43.55753" lon="5.26487">
<ele>163.7</ele>
<time>2012-03-24T12:46:05.000Z</time>
</trkpt>
<trkpt lat="43.5575" lon="5.26495">
<ele>163.6</ele>
<time>2012-03-24T12:46:06.000Z</time>
</trkpt>
<trkpt lat="43.55746" lon="5.26502">
<ele>163.8</ele>
<time>2012-03-24T12:46:07.000Z</time>
</trkpt>
<trkpt lat="43.55743" lon="5.2651">
<ele>163.5</ele>
<time>2012-03-24T12:46:08.000Z</time>
</trkpt>
<trkpt lat="43.5574" lon="5.26518">
<ele>163.4</ele>
<time>2012-03-24T12:46:09.000Z</time>
</trkpt>
<trkpt lat="43.55737" lon="5.26525">
<ele>163.4</ele>
<time>2012-03-24T12:46:10.000Z</time>
</trkpt>
<trkpt lat="43.55734" lon="5.26534">
<ele>163</ele>
<time>2012-03-24T12:46:11.000Z</time>
</trkpt>
<trkpt lat="43.55731" lon="5.26541">
<ele>162.9</ele>
<time>2012-03-24T12:46:12.000Z</time>
</trkpt>
<trkpt lat="43.55727" lon="5.2655">
<ele>163</ele>
<time>2012-03-24T12:46:13.000Z</time>
</trkpt>
<trkpt lat="43.55724" lon="5.26558">
<ele>162.8</ele>
<time>2012-03-24T12:46:14.000Z</time>
</trkpt>
<trkpt lat="43.55721" lon="5.26566">
<ele>162.5</ele>
<time>2012-03-24T12:46:15.000Z</time>
</trkpt>
<trkpt lat="43.55717" lon="5.26574">
<ele>161.9</ele>
<time>2012-03-24T12:46:16.000Z</time>
</trkpt>
<trkpt lat="43.55714" lon="5.26582">
<ele>161.6</ele>
<time>2012-03-24T12:46:17.000Z</time>
</trkpt>
<trkpt lat="43.55711" lon="5.2659">
<ele>161.2</ele>
<time>2012-03-24T12:46:18.000Z</time>
</trkpt>
<trkpt lat="43.55708" lon="5.26599">
<ele>161.1</ele>
<time>2012-03-24T12:46:19.000Z</time>
</trkpt>
<trkpt lat="43.55705" lon="5.26608">
<ele>161.1</ele>
<time>2012-03-24T12:46:20.000Z</time>
</trkpt>
<trkpt lat="43.55702" lon="5.26616">
<ele>161.2</ele>
<time>2012-03-24T12:46:21.000Z</time>
</trkpt>
<trkpt lat="43.55699" lon="5.26625">
<ele>161.3</ele>
<time>2012-03-24T12:46:22.000Z</time>
</trkpt>
<trkpt lat="43.55697" lon="5.26634">
<ele>161.2</ele>
<time>2012-03-24T12:46:23.000Z</time>
</trkpt>
<trkpt lat="43.55695" lon="5.26643">
<ele>160.9</ele>
<time>2012-03-24T12:46:24.000Z</time>
</trkpt>
<trkpt lat="43.55693" lon="5.26652">
<ele>160.8</ele>
<time>2012-03-24T12:46:25.000Z</time>
</trkpt>
<trkpt lat="43.5569" lon="5.2666">
<ele>160.8</ele>
<time>2012-03-24T12:46:26.000Z</time>
</trkpt>
<trkpt lat="43.55688" lon="5.26669">
<ele>160.8</ele>
<time>2012-03-24T12:46:27.000Z</time>
</trkpt>
<trkpt lat="43.55686" lon="5.26677">
<ele>160.9</ele>
<time>2012-03-24T12:46:28.000Z</time>
</trkpt>
<trkpt lat="43.55683" lon="5.26685">
<ele>161.2</ele>
<time>2012-03-24T12:46:29.000Z</time>
</trkpt>
<trkpt lat="43.55681" lon="5.26693">
<ele>161.3</ele>
<time>2012-03-24T12:46:30.000Z</time>
</trkpt>
<trkpt lat="43.55678" lon="5.267">
<ele>161.2</ele>
<time>2012-03-24T12:46:31.000Z</time>
</trkpt>
<trkpt lat="43.55676" lon="5.26708">
<ele>161.4</ele>
<time>2012-03-24T12:46:32.000Z</time>
</trkpt>
<trkpt lat="43.55673" lon="5.26716">
<ele>161.4</ele>
<time>2012-03-24T12:46:33.000Z</time>
</trkpt>
<trkpt lat="43.5567" lon="5.26723">
<ele>161.3</ele>
<time>2012-03-24T12:46:34.000Z</time>
</trkpt>
<trkpt lat="43.55667" lon="5.2673">
<ele>161.4</ele>
<time>2012-03-24T12:46:35.000Z</time>
</trkpt>
<trkpt lat="43.55664" lon="5.26738">
<ele>161.5</ele>
<time>2012-03-24T12:46:36.000Z</time>
</trkpt>
<trkpt lat="43.5566" lon="5.26744">
<ele>161.5</ele>
<time>2012-03-24T12:46:37.000Z</time>
</trkpt>
<trkpt lat="43.55656" lon="5.26751">
<ele>161.5</ele>
<time>2012-03-24T12:46:38.000Z</time>
</trkpt>
<trkpt lat="43.55653" lon="5.26758">
<ele>161.5</ele>
<time>2012-03-24T12:46:39.000Z</time>
</trkpt>
<trkpt lat="43.55649" lon="5.26764">
<ele>161.5</ele>
<time>2012-03-24T12:46:40.000Z</time>
</trkpt>
<trkpt lat="43.55645" lon="5.2677">
<ele>161.2</ele>
<time>2012-03-24T12:46:41.000Z</time>
</trkpt>
<trkpt lat="43.55642" lon="5.26777">
<ele>161</ele>
<time>2012-03-24T12:46:42.000Z</time>
</trkpt>
<trkpt lat="43.55638" lon="5.26784">
<ele>161.5</ele>
<time>2012-03-24T12:46:43.000Z</time>
</trkpt>
<trkpt lat="43.55634" lon="5.26791">
<ele>161.2</ele>
<time>2012-03-24T12:46:44.000Z</time>
</trkpt>
<trkpt lat="43.5563" lon="5.26797">
<ele>161.2</ele>
<time>2012-03-24T12:46:45.000Z</time>
</trkpt>
<trkpt lat="43.55626" lon="5.26804">
<ele>160.9</ele>
<time>2012-03-24T12:46:46.000Z</time>
</trkpt>
<trkpt lat="43.55622" lon="5.26812">
<ele>160.9</ele>
<time>2012-03-24T12:46:47.000Z</time>
</trkpt>
<trkpt lat="43.55618" lon="5.26819">
<ele>160.6</ele>
<time>2012-03-24T12:46:48.000Z</time>
</trkpt>
<trkpt lat="43.55615" lon="5.26826">
<ele>160.1</ele>
<time>2012-03-24T12:46:49.000Z</time>
</trkpt>
<trkpt lat="43.55612" lon="5.26835">
<ele>160.2</ele>
<time>2012-03-24T12:46:50.000Z</time>
</trkpt>
<trkpt lat="43.55609" lon="5.26843">
<ele>160.1</ele>
<time>2012-03-24T12:46:51.000Z</time>
</trkpt>
<trkpt lat="43.55606" lon="5.26851">
<ele>160.3</ele>
<time>2012-03-24T12:46:52.000Z</time>
</trkpt>
<trkpt lat="43.55604" lon="5.26859">
<ele>160.6</ele>
<time>2012-03-24T12:46:53.000Z</time>
</trkpt>
<trkpt lat="43.55602" lon="5.26867">
<ele>160.6</ele>
<time>2012-03-24T12:46:54.000Z</time>
</trkpt>
<trkpt lat="43.556" lon="5.26874">
<ele>161</ele>
<time>2012-03-24T12:46:55.000Z</time>
</trkpt>
<trkpt lat="43.55597" lon="5.26882">
<ele>161</ele>
<time>2012-03-24T12:46:56.000Z</time>
</trkpt>
<trkpt lat="43.55595" lon="5.26889">
<ele>161.1</ele>
<time>2012-03-24T12:46:57.000Z</time>
</trkpt>
<trkpt lat="43.55593" lon="5.26896">
<ele>160.9</ele>
<time>2012-03-24T12:46:58.000Z</time>
</trkpt>
<trkpt lat="43.5559" lon="5.26903">
<ele>160.7</ele>
<time>2012-03-24T12:46:59.000Z</time>
</trkpt>
<trkpt lat="43.55588" lon="5.2691">
<ele>160.8</ele>
<time>2012-03-24T12:47:00.000Z</time>
</trkpt>
<trkpt lat="43.55585" lon="5.26918">
<ele>160.8</ele>
<time>2012-03-24T12:47:01.000Z</time>
</trkpt>
<trkpt lat="43.55582" lon="5.26925">
<ele>160.9</ele>
<time>2012-03-24T12:47:02.000Z</time>
</trkpt>
<trkpt lat="43.55579" lon="5.26933">
<ele>160.8</ele>
<time>2012-03-24T12:47:03.000Z</time>
</trkpt>
<trkpt lat="43.55576" lon="5.2694">
<ele>160.7</ele>
<time>2012-03-24T12:47:04.000Z</time>
</trkpt>
<trkpt lat="43.55573" lon="5.26948">
<ele>160.8</ele>
<time>2012-03-24T12:47:05.000Z</time>
</trkpt>
<trkpt lat="43.5557" lon="5.26956">
<ele>161</ele>
<time>2012-03-24T12:47:06.000Z</time>
</trkpt>
<trkpt lat="43.55567" lon="5.26964">
<ele>160.6</ele>
<time>2012-03-24T12:47:07.000Z</time>
</trkpt>
<trkpt lat="43.55565" lon="5.26972">
<ele>160.4</ele>
<time>2012-03-24T12:47:08.000Z</time>
</trkpt>
<trkpt lat="43.55562" lon="5.2698">
<ele>160.5</ele>
<time>2012-03-24T12:47:09.000Z</time>
</trkpt>
<trkpt lat="43.55559" lon="5.26989">
<ele>160.7</ele>
<time>2012-03-24T12:47:10.000Z</time>
</trkpt>
<trkpt lat="43.55557" lon="5.26997">
<ele>160.6</ele>
<time>2012-03-24T12:47:11.000Z</time>
</trkpt>
<trkpt lat="43.55554" lon="5.27006">
<ele>160.8</ele>
<time>2012-03-24T12:47:12.000Z</time>
</trkpt>
<trkpt lat="43.55552" lon="5.27014">
<ele>160.7</ele>
<time>2012-03-24T12:47:13.000Z</time>
</trkpt>
<trkpt lat="43.5555" lon="5.27022">
<ele>160.5</ele>
<time>2012-03-24T12:47:14.000Z</time>
</trkpt>
<trkpt lat="43.55549" lon="5.2703">
<ele>160.7</ele>
<time>2012-03-24T12:47:15.000Z</time>
</trkpt>
<trkpt lat="43.55547" lon="5.2704">
<ele>160.5</ele>
<time>2012-03-24T12:47:16.000Z</time>
</trkpt>
<trkpt lat="43.55545" lon="5.27048">
<ele>160.3</ele>
<time>2012-03-24T12:47:17.000Z</time>
</trkpt>
<trkpt lat="43.55543" lon="5.27056">
<ele>160.3</ele>
<time>2012-03-24T12:47:18.000Z</time>
</trkpt>
<trkpt lat="43.55541" lon="5.27065">
<ele>160.2</ele>
<time>2012-03-24T12:47:19.000Z</time>
</trkpt>
<trkpt lat="43.5554" lon="5.27073">
<ele>160.5</ele>
<time>2012-03-24T12:47:20.000Z</time>
</trkpt>
<trkpt lat="43.55538" lon="5.27082">
<ele>160.2</ele>
<time>2012-03-24T12:47:21.000Z</time>
</trkpt>
<trkpt lat="43.55536" lon="5.2709">
<ele>160.5</ele>
<time>2012-03-24T12:47:22.000Z</time>
</trkpt>
<trkpt lat="43.55535" lon="5.27099">
<ele>160.4</ele>
<time>2012-03-24T12:47:23.000Z</time>
</trkpt>
<trkpt lat="43.55534" lon="5.27108">
<ele>160.5</ele>
<time>2012-03-24T12:47:24.000Z</time>
</trkpt>
<trkpt lat="43.55532" lon="5.27116">
<ele>160.5</ele>
<time>2012-03-24T12:47:25.000Z</time>
</trkpt>
<trkpt lat="43.55531" lon="5.27125">
<ele>160.5</ele>
<time>2012-03-24T12:47:26.000Z</time>
</trkpt>
<trkpt lat="43.55531" lon="5.27133">
<ele>160.6</ele>
<time>2012-03-24T12:47:27.000Z</time>
</trkpt>
<trkpt lat="43.55531" lon="5.27142">
<ele>160.7</ele>
<time>2012-03-24T12:47:28.000Z</time>
</trkpt>
<trkpt lat="43.5553" lon="5.27151">
<ele>160.7</ele>
<time>2012-03-24T12:47:29.000Z</time>
</trkpt>
<trkpt lat="43.55529" lon="5.2716">
<ele>160.5</ele>
<time>2012-03-24T12:47:30.000Z</time>
</trkpt>
<trkpt lat="43.55529" lon="5.27169">
<ele>160.2</ele>
<time>2012-03-24T12:47:31.000Z</time>
</trkpt>
<trkpt lat="43.55528" lon="5.27178">
<ele>160</ele>
<time>2012-03-24T12:47:32.000Z</time>
</trkpt>
<trkpt lat="43.55528" lon="5.27186">
<ele>160.1</ele>
<time>2012-03-24T12:47:33.000Z</time>
</trkpt>
<trkpt lat="43.55528" lon="5.27195">
<ele>160.3</ele>
<time>2012-03-24T12:47:34.000Z</time>
</trkpt>
<trkpt lat="43.55528" lon="5.27204">
<ele>159.9</ele>
<time>2012-03-24T12:47:35.000Z</time>
</trkpt>
<trkpt lat="43.55528" lon="5.27214">
<ele>159.9</ele>
<time>2012-03-24T12:47:36.000Z</time>
</trkpt>
<trkpt lat="43.55527" lon="5.27223">
<ele>160.1</ele>
<time>2012-03-24T12:47:37.000Z</time>
</trkpt>
<trkpt lat="43.55527" lon="5.27232">
<ele>160.4</ele>
<time>2012-03-24T12:47:38.000Z</time>
</trkpt>
<trkpt lat="43.55527" lon="5.27241">
<ele>160.4</ele>
<time>2012-03-24T12:47:39.000Z</time>
</trkpt>
<trkpt lat="43.55526" lon="5.2725">
<ele>160.4</ele>
<time>2012-03-24T12:47:40.000Z</time>
</trkpt>
<trkpt lat="43.55526" lon="5.27258">
<ele>160.7</ele>
<time>2012-03-24T12:47:41.000Z</time>
</trkpt>
<trkpt lat="43.55526" lon="5.27267">
<ele>161.1</ele>
<time>2012-03-24T12:47:42.000Z</time>
</trkpt>
<trkpt lat="43.55526" lon="5.27276">
<ele>161.1</ele>
<time>2012-03-24T12:47:43.000Z</time>
</trkpt>
<trkpt lat="43.55526" lon="5.27284">
<ele>160.9</ele>
<time>2012-03-24T12:47:44.000Z</time>
</trkpt>
<trkpt lat="43.55526" lon="5.27292">
<ele>161.3</ele>
<time>2012-03-24T12:47:45.000Z</time>
</trkpt>
<trkpt lat="43.55526" lon="5.273">
<ele>161.5</ele>
<time>2012-03-24T12:47:46.000Z</time>
</trkpt>
<trkpt lat="43.55526" lon="5.27308">
<ele>161.7</ele>
<time>2012-03-24T12:47:47.000Z</time>
</trkpt>
<trkpt lat="43.55526" lon="5.27317">
<ele>161.9</ele>
<time>2012-03-24T12:47:48.000Z</time>
</trkpt>
<trkpt lat="43.55525" lon="5.27325">
<ele>161.9</ele>
<time>2012-03-24T12:47:49.000Z</time>
</trkpt>
<trkpt lat="43.55525" lon="5.27332">
<ele>162</ele>
<time>2012-03-24T12:47:50.000Z</time>
</trkpt>
<trkpt lat="43.55525" lon="5.2734">
<ele>162.3</ele>
<time>2012-03-24T12:47:51.000Z</time>
</trkpt>
<trkpt lat="43.55525" lon="5.27348">
<ele>162.5</ele>
<time>2012-03-24T12:47:52.000Z</time>
</trkpt>
<trkpt lat="43.55525" lon="5.27355">
<ele>162.7</ele>
<time>2012-03-24T12:47:53.000Z</time>
</trkpt>
<trkpt lat="43.55525" lon="5.27363">
<ele>162.6</ele>
<time>2012-03-24T12:47:54.000Z</time>
</trkpt>
<trkpt lat="43.55525" lon="5.2737">
<ele>162.9</ele>
<time>2012-03-24T12:47:55.000Z</time>
</trkpt>
<trkpt lat="43.55524" lon="5.27377">
<ele>163.1</ele>
<time>2012-03-24T12:47:56.000Z</time>
</trkpt>
<trkpt lat="43.55525" lon="5.27384">
<ele>163.4</ele>
<time>2012-03-24T12:47:57.000Z</time>
</trkpt>
<trkpt lat="43.55524" lon="5.27391">
<ele>163.6</ele>
<time>2012-03-24T12:47:58.000Z</time>
</trkpt>
<trkpt lat="43.55524" lon="5.27398">
<ele>163.8</ele>
<time>2012-03-24T12:47:59.000Z</time>
</trkpt>
<trkpt lat="43.55524" lon="5.27404">
<ele>163.8</ele>
<time>2012-03-24T12:48:00.000Z</time>
</trkpt>
<trkpt lat="43.55524" lon="5.27411">
<ele>163.9</ele>
<time>2012-03-24T12:48:01.000Z</time>
</trkpt>
<trkpt lat="43.55524" lon="5.27417">
<ele>164.2</ele>
<time>2012-03-24T12:48:02.000Z</time>
</trkpt>
<trkpt lat="43.55524" lon="5.2743">
<ele>165.4</ele>
<time>2012-03-24T12:48:04.000Z</time>
</trkpt>
<trkpt lat="43.55524" lon="5.27436">
<ele>165.8</ele>
<time>2012-03-24T12:48:05.000Z</time>
</trkpt>
<trkpt lat="43.55524" lon="5.27442">
<ele>166.2</ele>
<time>2012-03-24T12:48:06.000Z</time>
</trkpt>
<trkpt lat="43.55524" lon="5.27449">
<ele>166.3</ele>
<time>2012-03-24T12:48:07.000Z</time>
</trkpt>
<trkpt lat="43.55524" lon="5.27461">
<ele>166.4</ele>
<time>2012-03-24T12:48:09.000Z</time>
</trkpt>
<trkpt lat="43.55524" lon="5.27473">
<ele>166.6</ele>
<time>2012-03-24T12:48:11.000Z</time>
</trkpt>
<trkpt lat="43.55525" lon="5.27484">
<ele>166.8</ele>
<time>2012-03-24T12:48:13.000Z</time>
</trkpt>
<trkpt lat="43.55526" lon="5.27496">
<ele>167.2</ele>
<time>2012-03-24T12:48:15.000Z</time>
</trkpt>
<trkpt lat="43.55526" lon="5.27507">
<ele>167.9</ele>
<time>2012-03-24T12:48:17.000Z</time>
</trkpt>
<trkpt lat="43.55527" lon="5.27519">
<ele>168.8</ele>
<time>2012-03-24T12:48:19.000Z</time>
</trkpt>
<trkpt lat="43.55528" lon="5.2753">
<ele>169.1</ele>
<time>2012-03-24T12:48:21.000Z</time>
</trkpt>
<trkpt lat="43.55528" lon="5.27537">
<ele>169.5</ele>
<time>2012-03-24T12:48:22.000Z</time>
</trkpt>
<trkpt lat="43.55528" lon="5.27548">
<ele>169.8</ele>
<time>2012-03-24T12:48:24.000Z</time>
</trkpt>
<trkpt lat="43.55528" lon="5.27559">
<ele>170.4</ele>
<time>2012-03-24T12:48:26.000Z</time>
</trkpt>
<trkpt lat="43.55528" lon="5.27566">
<ele>170.7</ele>
<time>2012-03-24T12:48:27.000Z</time>
</trkpt>
<trkpt lat="43.55529" lon="5.27577">
<ele>171.5</ele>
<time>2012-03-24T12:48:29.000Z</time>
</trkpt>
<trkpt lat="43.55529" lon="5.27589">
<ele>172.1</ele>
<time>2012-03-24T12:48:31.000Z</time>
</trkpt>
<trkpt lat="43.5553" lon="5.276">
<ele>172.2</ele>
<time>2012-03-24T12:48:33.000Z</time>
</trkpt>
<trkpt lat="43.5553" lon="5.27611">
<ele>172.1</ele>
<time>2012-03-24T12:48:35.000Z</time>
</trkpt>
<trkpt lat="43.5553" lon="5.27622">
<ele>172.4</ele>
<time>2012-03-24T12:48:37.000Z</time>
</trkpt>
<trkpt lat="43.5553" lon="5.27632">
<ele>172.4</ele>
<time>2012-03-24T12:48:39.000Z</time>
</trkpt>
<trkpt lat="43.55531" lon="5.27644">
<ele>173.2</ele>
<time>2012-03-24T12:48:41.000Z</time>
</trkpt>
<trkpt lat="43.55531" lon="5.27655">
<ele>173.8</ele>
<time>2012-03-24T12:48:43.000Z</time>
</trkpt>
<trkpt lat="43.55532" lon="5.27666">
<ele>174.3</ele>
<time>2012-03-24T12:48:45.000Z</time>
</trkpt>
<trkpt lat="43.55532" lon="5.27678">
<ele>175.2</ele>
<time>2012-03-24T12:48:47.000Z</time>
</trkpt>
<trkpt lat="43.55532" lon="5.27689">
<ele>175.7</ele>
<time>2012-03-24T12:48:49.000Z</time>
</trkpt>
<trkpt lat="43.55533" lon="5.277">
<ele>176.1</ele>
<time>2012-03-24T12:48:51.000Z</time>
</trkpt>
<trkpt lat="43.55534" lon="5.27711">
<ele>176.7</ele>
<time>2012-03-24T12:48:53.000Z</time>
</trkpt>
<trkpt lat="43.55534" lon="5.27723">
<ele>177.3</ele>
<time>2012-03-24T12:48:55.000Z</time>
</trkpt>
<trkpt lat="43.55533" lon="5.27733">
<ele>178.1</ele>
<time>2012-03-24T12:48:57.000Z</time>
</trkpt>
<trkpt lat="43.55533" lon="5.27744">
<ele>178.8</ele>
<time>2012-03-24T12:48:59.000Z</time>
</trkpt>
<trkpt lat="43.55533" lon="5.27755">
<ele>179.2</ele>
<time>2012-03-24T12:49:01.000Z</time>
</trkpt>
<trkpt lat="43.55534" lon="5.27766">
<ele>180</ele>
<time>2012-03-24T12:49:03.000Z</time>
</trkpt>
<trkpt lat="43.55534" lon="5.27776">
<ele>180.9</ele>
<time>2012-03-24T12:49:05.000Z</time>
</trkpt>
<trkpt lat="43.55534" lon="5.27787">
<ele>181.6</ele>
<time>2012-03-24T12:49:07.000Z</time>
</trkpt>
<trkpt lat="43.55535" lon="5.27798">
<ele>182.2</ele>
<time>2012-03-24T12:49:09.000Z</time>
</trkpt>
<trkpt lat="43.55535" lon="5.27808">
<ele>182.5</ele>
<time>2012-03-24T12:49:11.000Z</time>
</trkpt>
<trkpt lat="43.55535" lon="5.2782">
<ele>183.2</ele>
<time>2012-03-24T12:49:13.000Z</time>
</trkpt>
<trkpt lat="43.55535" lon="5.27831">
<ele>183.5</ele>
<time>2012-03-24T12:49:15.000Z</time>
</trkpt>
<trkpt lat="43.55536" lon="5.27842">
<ele>184.2</ele>
<time>2012-03-24T12:49:17.000Z</time>
</trkpt>
<trkpt lat="43.55536" lon="5.27854">
<ele>184.4</ele>
<time>2012-03-24T12:49:19.000Z</time>
</trkpt>
<trkpt lat="43.55536" lon="5.27865">
<ele>184.9</ele>
<time>2012-03-24T12:49:21.000Z</time>
</trkpt>
<trkpt lat="43.55536" lon="5.27877">
<ele>185.3</ele>
<time>2012-03-24T12:49:23.000Z</time>
</trkpt>
<trkpt lat="43.55537" lon="5.27888">
<ele>185.5</ele>
<time>2012-03-24T12:49:25.000Z</time>
</trkpt>
<trkpt lat="43.55538" lon="5.279">
<ele>185.7</ele>
<time>2012-03-24T12:49:27.000Z</time>
</trkpt>
<trkpt lat="43.55538" lon="5.27912">
<ele>185.9</ele>
<time>2012-03-24T12:49:29.000Z</time>
</trkpt>
<trkpt lat="43.55538" lon="5.27924">
<ele>185.7</ele>
<time>2012-03-24T12:49:31.000Z</time>
</trkpt>
<trkpt lat="43.55539" lon="5.2793">
<ele>186</ele>
<time>2012-03-24T12:49:32.000Z</time>
</trkpt>
<trkpt lat="43.55539" lon="5.27937">
<ele>186.4</ele>
<time>2012-03-24T12:49:33.000Z</time>
</trkpt>
<trkpt lat="43.5554" lon="5.27943">
<ele>186.6</ele>
<time>2012-03-24T12:49:34.000Z</time>
</trkpt>
<trkpt lat="43.55541" lon="5.27949">
<ele>186.7</ele>
<time>2012-03-24T12:49:35.000Z</time>
</trkpt>
<trkpt lat="43.55541" lon="5.27955">
<ele>186.9</ele>
<time>2012-03-24T12:49:36.000Z</time>
</trkpt>
<trkpt lat="43.55542" lon="5.27962">
<ele>187</ele>
<time>2012-03-24T12:49:37.000Z</time>
</trkpt>
<trkpt lat="43.55542" lon="5.27968">
<ele>187.4</ele>
<time>2012-03-24T12:49:38.000Z</time>
</trkpt>
<trkpt lat="43.55543" lon="5.27974">
<ele>187.3</ele>
<time>2012-03-24T12:49:39.000Z</time>
</trkpt>
<trkpt lat="43.55545" lon="5.27986">
<ele>187.2</ele>
<time>2012-03-24T12:49:41.000Z</time>
</trkpt>
<trkpt lat="43.55547" lon="5.27998">
<ele>187.6</ele>
<time>2012-03-24T12:49:43.000Z</time>
</trkpt>
<trkpt lat="43.55548" lon="5.28004">
<ele>188.4</ele>
<time>2012-03-24T12:49:44.000Z</time>
</trkpt>
<trkpt lat="43.55549" lon="5.2801">
<ele>188.5</ele>
<time>2012-03-24T12:49:45.000Z</time>
</trkpt>
<trkpt lat="43.55551" lon="5.28017">
<ele>188.5</ele>
<time>2012-03-24T12:49:46.000Z</time>
</trkpt>
<trkpt lat="43.55552" lon="5.28023">
<ele>188.8</ele>
<time>2012-03-24T12:49:47.000Z</time>
</trkpt>
<trkpt lat="43.55554" lon="5.2803">
<ele>188.7</ele>
<time>2012-03-24T12:49:48.000Z</time>
</trkpt>
<trkpt lat="43.55556" lon="5.28036">
<ele>189.6</ele>
<time>2012-03-24T12:49:49.000Z</time>
</trkpt>
<trkpt lat="43.55557" lon="5.28042">
<ele>190.3</ele>
<time>2012-03-24T12:49:50.000Z</time>
</trkpt>
<trkpt lat="43.55559" lon="5.28049">
<ele>188.5</ele>
<time>2012-03-24T12:49:51.000Z</time>
</trkpt>
<trkpt lat="43.5556" lon="5.28056">
<ele>188.3</ele>
<time>2012-03-24T12:49:52.000Z</time>
</trkpt>
<trkpt lat="43.55562" lon="5.28063">
<ele>187.6</ele>
<time>2012-03-24T12:49:53.000Z</time>
</trkpt>
<trkpt lat="43.55563" lon="5.28069">
<ele>187.8</ele>
<time>2012-03-24T12:49:54.000Z</time>
</trkpt>
<trkpt lat="43.55566" lon="5.28075">
<ele>187.9</ele>
<time>2012-03-24T12:49:55.000Z</time>
</trkpt>
<trkpt lat="43.55568" lon="5.28082">
<ele>187.7</ele>
<time>2012-03-24T12:49:56.000Z</time>
</trkpt>
<trkpt lat="43.55569" lon="5.28088">
<ele>187.8</ele>
<time>2012-03-24T12:49:57.000Z</time>
</trkpt>
<trkpt lat="43.55571" lon="5.28094">
<ele>187.5</ele>
<time>2012-03-24T12:49:58.000Z</time>
</trkpt>
<trkpt lat="43.55573" lon="5.281">
<ele>187</ele>
<time>2012-03-24T12:49:59.000Z</time>
</trkpt>
<trkpt lat="43.55574" lon="5.28106">
<ele>187</ele>
<time>2012-03-24T12:50:00.000Z</time>
</trkpt>
<trkpt lat="43.55577" lon="5.28112">
<ele>187.2</ele>
<time>2012-03-24T12:50:01.000Z</time>
</trkpt>
<trkpt lat="43.55578" lon="5.28119">
<ele>186.5</ele>
<time>2012-03-24T12:50:02.000Z</time>
</trkpt>
<trkpt lat="43.55583" lon="5.2813">
<ele>190.8</ele>
<time>2012-03-24T12:50:04.000Z</time>
</trkpt>
<trkpt lat="43.55584" lon="5.28136">
<ele>191</ele>
<time>2012-03-24T12:50:05.000Z</time>
</trkpt>
<trkpt lat="43.55586" lon="5.28142">
<ele>191.1</ele>
<time>2012-03-24T12:50:06.000Z</time>
</trkpt>
<trkpt lat="43.55588" lon="5.28149">
<ele>191</ele>
<time>2012-03-24T12:50:07.000Z</time>
</trkpt>
<trkpt lat="43.55589" lon="5.28155">
<ele>191</ele>
<time>2012-03-24T12:50:08.000Z</time>
</trkpt>
<trkpt lat="43.55591" lon="5.28161">
<ele>191.3</ele>
<time>2012-03-24T12:50:09.000Z</time>
</trkpt>
<trkpt lat="43.55592" lon="5.28168">
<ele>191.6</ele>
<time>2012-03-24T12:50:10.000Z</time>
</trkpt>
<trkpt lat="43.55593" lon="5.28175">
<ele>191.9</ele>
<time>2012-03-24T12:50:11.000Z</time>
</trkpt>
<trkpt lat="43.55594" lon="5.28182">
<ele>192.6</ele>
<time>2012-03-24T12:50:12.000Z</time>
</trkpt>
<trkpt lat="43.55593" lon="5.2819">
<ele>192.6</ele>
<time>2012-03-24T12:50:13.000Z</time>
</trkpt>
<trkpt lat="43.55594" lon="5.28197">
<ele>192.3</ele>
<time>2012-03-24T12:50:14.000Z</time>
</trkpt>
<trkpt lat="43.55594" lon="5.28205">
<ele>192.1</ele>
<time>2012-03-24T12:50:15.000Z</time>
</trkpt>
<trkpt lat="43.55594" lon="5.28212">
<ele>192.2</ele>
<time>2012-03-24T12:50:16.000Z</time>
</trkpt>
<trkpt lat="43.55594" lon="5.2822">
<ele>192</ele>
<time>2012-03-24T12:50:17.000Z</time>
</trkpt>
<trkpt lat="43.55593" lon="5.28228">
<ele>191.7</ele>
<time>2012-03-24T12:50:18.000Z</time>
</trkpt>
<trkpt lat="43.55592" lon="5.28236">
<ele>191.5</ele>
<time>2012-03-24T12:50:19.000Z</time>
</trkpt>
<trkpt lat="43.55591" lon="5.28244">
<ele>191.4</ele>
<time>2012-03-24T12:50:20.000Z</time>
</trkpt>
<trkpt lat="43.5559" lon="5.28252">
<ele>191.4</ele>
<time>2012-03-24T12:50:21.000Z</time>
</trkpt>
<trkpt lat="43.55589" lon="5.2826">
<ele>190.8</ele>
<time>2012-03-24T12:50:22.000Z</time>
</trkpt>
<trkpt lat="43.55588" lon="5.28267">
<ele>190.9</ele>
<time>2012-03-24T12:50:23.000Z</time>
</trkpt>
<trkpt lat="43.55586" lon="5.28274">
<ele>190.7</ele>
<time>2012-03-24T12:50:24.000Z</time>
</trkpt>
<trkpt lat="43.55583" lon="5.28282">
<ele>190.7</ele>
<time>2012-03-24T12:50:25.000Z</time>
</trkpt>
<trkpt lat="43.55581" lon="5.28289">
<ele>190.8</ele>
<time>2012-03-24T12:50:26.000Z</time>
</trkpt>
<trkpt lat="43.55578" lon="5.28296">
<ele>190.5</ele>
<time>2012-03-24T12:50:27.000Z</time>
</trkpt>
<trkpt lat="43.55575" lon="5.28303">
<ele>190.6</ele>
<time>2012-03-24T12:50:28.000Z</time>
</trkpt>
<trkpt lat="43.55572" lon="5.2831">
<ele>190.8</ele>
<time>2012-03-24T12:50:29.000Z</time>
</trkpt>
<trkpt lat="43.55569" lon="5.28316">
<ele>190.8</ele>
<time>2012-03-24T12:50:30.000Z</time>
</trkpt>
<trkpt lat="43.55565" lon="5.28322">
<ele>190.8</ele>
<time>2012-03-24T12:50:31.000Z</time>
</trkpt>
<trkpt lat="43.55561" lon="5.28328">
<ele>190.9</ele>
<time>2012-03-24T12:50:32.000Z</time>
</trkpt>
<trkpt lat="43.55558" lon="5.28334">
<ele>190.7</ele>
<time>2012-03-24T12:50:33.000Z</time>
</trkpt>
<trkpt lat="43.55554" lon="5.28339">
<ele>190.7</ele>
<time>2012-03-24T12:50:34.000Z</time>
</trkpt>
<trkpt lat="43.55549" lon="5.28344">
<ele>190.4</ele>
<time>2012-03-24T12:50:35.000Z</time>
</trkpt>
<trkpt lat="43.55545" lon="5.28349">
<ele>190.4</ele>
<time>2012-03-24T12:50:36.000Z</time>
</trkpt>
<trkpt lat="43.5554" lon="5.28354">
<ele>190.6</ele>
<time>2012-03-24T12:50:37.000Z</time>
</trkpt>
<trkpt lat="43.55536" lon="5.28359">
<ele>190.3</ele>
<time>2012-03-24T12:50:38.000Z</time>
</trkpt>
<trkpt lat="43.55531" lon="5.28363">
<ele>190.2</ele>
<time>2012-03-24T12:50:39.000Z</time>
</trkpt>
<trkpt lat="43.55527" lon="5.28368">
<ele>190.5</ele>
<time>2012-03-24T12:50:40.000Z</time>
</trkpt>
<trkpt lat="43.55522" lon="5.28373">
<ele>190.7</ele>
<time>2012-03-24T12:50:41.000Z</time>
</trkpt>
<trkpt lat="43.55517" lon="5.28378">
<ele>190.7</ele>
<time>2012-03-24T12:50:42.000Z</time>
</trkpt>
<trkpt lat="43.55513" lon="5.28382">
<ele>190.6</ele>
<time>2012-03-24T12:50:43.000Z</time>
</trkpt>
<trkpt lat="43.55508" lon="5.28387">
<ele>190.6</ele>
<time>2012-03-24T12:50:44.000Z</time>
</trkpt>
<trkpt lat="43.55478" lon="5.28413">
<ele>190.4</ele>
<time>2012-03-24T12:50:50.000Z</time>
</trkpt>
<trkpt lat="43.55472" lon="5.28418">
<ele>190.4</ele>
<time>2012-03-24T12:50:51.000Z</time>
</trkpt>
<trkpt lat="43.55468" lon="5.28425">
<ele>190.7</ele>
<time>2012-03-24T12:50:52.000Z</time>
</trkpt>
<trkpt lat="43.55463" lon="5.28431">
<ele>190.8</ele>
<time>2012-03-24T12:50:53.000Z</time>
</trkpt>
<trkpt lat="43.55458" lon="5.28437">
<ele>190.9</ele>
<time>2012-03-24T12:50:54.000Z</time>
</trkpt>
<trkpt lat="43.55452" lon="5.28442">
<ele>191.6</ele>
<time>2012-03-24T12:50:55.000Z</time>
</trkpt>
<trkpt lat="43.55447" lon="5.28448">
<ele>191.8</ele>
<time>2012-03-24T12:50:56.000Z</time>
</trkpt>
<trkpt lat="43.55441" lon="5.28452">
<ele>191.7</ele>
<time>2012-03-24T12:50:57.000Z</time>
</trkpt>
<trkpt lat="43.55436" lon="5.28458">
<ele>191.6</ele>
<time>2012-03-24T12:50:58.000Z</time>
</trkpt>
<trkpt lat="43.55432" lon="5.28461">
<ele>192.2</ele>
<time>2012-03-24T12:50:59.000Z</time>
</trkpt>
<trkpt lat="43.55424" lon="5.28468">
<ele>191.9</ele>
<time>2012-03-24T12:51:01.000Z</time>
</trkpt>
<trkpt lat="43.5542" lon="5.28474">
<ele>191.7</ele>
<time>2012-03-24T12:51:02.000Z</time>
</trkpt>
<trkpt lat="43.55414" lon="5.28481">
<ele>191.2</ele>
<time>2012-03-24T12:51:03.000Z</time>
</trkpt>
<trkpt lat="43.55411" lon="5.28486">
<ele>191.3</ele>
<time>2012-03-24T12:51:04.000Z</time>
</trkpt>
<trkpt lat="43.55407" lon="5.28492">
<ele>191</ele>
<time>2012-03-24T12:51:05.000Z</time>
</trkpt>
<trkpt lat="43.55403" lon="5.28498">
<ele>191.2</ele>
<time>2012-03-24T12:51:06.000Z</time>
</trkpt>
<trkpt lat="43.554" lon="5.28504">
<ele>192.1</ele>
<time>2012-03-24T12:51:07.000Z</time>
</trkpt>
<trkpt lat="43.55396" lon="5.28511">
<ele>192.3</ele>
<time>2012-03-24T12:51:08.000Z</time>
</trkpt>
<trkpt lat="43.55392" lon="5.28518">
<ele>192</ele>
<time>2012-03-24T12:51:09.000Z</time>
</trkpt>
<trkpt lat="43.5539" lon="5.28524">
<ele>192.1</ele>
<time>2012-03-24T12:51:10.000Z</time>
</trkpt>
<trkpt lat="43.55386" lon="5.28532">
<ele>192</ele>
<time>2012-03-24T12:51:11.000Z</time>
</trkpt>
<trkpt lat="43.55383" lon="5.28539">
<ele>191.9</ele>
<time>2012-03-24T12:51:12.000Z</time>
</trkpt>
<trkpt lat="43.55379" lon="5.28547">
<ele>191.5</ele>
<time>2012-03-24T12:51:13.000Z</time>
</trkpt>
<trkpt lat="43.55376" lon="5.28554">
<ele>191.4</ele>
<time>2012-03-24T12:51:14.000Z</time>
</trkpt>
<trkpt lat="43.55374" lon="5.28562">
<ele>191.6</ele>
<time>2012-03-24T12:51:15.000Z</time>
</trkpt>
<trkpt lat="43.55371" lon="5.28569">
<ele>191.6</ele>
<time>2012-03-24T12:51:16.000Z</time>
</trkpt>
<trkpt lat="43.55369" lon="5.28577">
<ele>191.7</ele>
<time>2012-03-24T12:51:17.000Z</time>
</trkpt>
<trkpt lat="43.55367" lon="5.28584">
<ele>191.6</ele>
<time>2012-03-24T12:51:18.000Z</time>
</trkpt>
<trkpt lat="43.55365" lon="5.28592">
<ele>191.1</ele>
<time>2012-03-24T12:51:19.000Z</time>
</trkpt>
<trkpt lat="43.55363" lon="5.286">
<ele>191.1</ele>
<time>2012-03-24T12:51:20.000Z</time>
</trkpt>
<trkpt lat="43.55361" lon="5.28608">
<ele>191.2</ele>
<time>2012-03-24T12:51:21.000Z</time>
</trkpt>
<trkpt lat="43.55359" lon="5.28616">
<ele>191</ele>
<time>2012-03-24T12:51:22.000Z</time>
</trkpt>
<trkpt lat="43.55358" lon="5.28624">
<ele>191</ele>
<time>2012-03-24T12:51:23.000Z</time>
</trkpt>
<trkpt lat="43.55355" lon="5.28633">
<ele>191.3</ele>
<time>2012-03-24T12:51:24.000Z</time>
</trkpt>
<trkpt lat="43.55353" lon="5.28642">
<ele>191.6</ele>
<time>2012-03-24T12:51:25.000Z</time>
</trkpt>
<trkpt lat="43.55351" lon="5.2865">
<ele>191.5</ele>
<time>2012-03-24T12:51:26.000Z</time>
</trkpt>
<trkpt lat="43.5535" lon="5.28658">
<ele>191.5</ele>
<time>2012-03-24T12:51:27.000Z</time>
</trkpt>
<trkpt lat="43.55348" lon="5.28666">
<ele>191.3</ele>
<time>2012-03-24T12:51:28.000Z</time>
</trkpt>
<trkpt lat="43.55346" lon="5.28675">
<ele>191</ele>
<time>2012-03-24T12:51:29.000Z</time>
</trkpt>
<trkpt lat="43.55344" lon="5.28684">
<ele>190.8</ele>
<time>2012-03-24T12:51:30.000Z</time>
</trkpt>
<trkpt lat="43.55342" lon="5.28693">
<ele>190.6</ele>
<time>2012-03-24T12:51:31.000Z</time>
</trkpt>
<trkpt lat="43.5534" lon="5.28702">
<ele>190.1</ele>
<time>2012-03-24T12:51:32.000Z</time>
</trkpt>
<trkpt lat="43.55338" lon="5.28712">
<ele>189.8</ele>
<time>2012-03-24T12:51:33.000Z</time>
</trkpt>
<trkpt lat="43.55336" lon="5.28721">
<ele>189.5</ele>
<time>2012-03-24T12:51:34.000Z</time>
</trkpt>
<trkpt lat="43.55334" lon="5.28731">
<ele>189.4</ele>
<time>2012-03-24T12:51:35.000Z</time>
</trkpt>
<trkpt lat="43.55332" lon="5.28741">
<ele>189</ele>
<time>2012-03-24T12:51:36.000Z</time>
</trkpt>
<trkpt lat="43.5533" lon="5.28751">
<ele>188.6</ele>
<time>2012-03-24T12:51:37.000Z</time>
</trkpt>
<trkpt lat="43.55327" lon="5.2876">
<ele>188.4</ele>
<time>2012-03-24T12:51:38.000Z</time>
</trkpt>
<trkpt lat="43.55325" lon="5.2877">
<ele>188.2</ele>
<time>2012-03-24T12:51:39.000Z</time>
</trkpt>
<trkpt lat="43.55323" lon="5.2878">
<ele>189.1</ele>
<time>2012-03-24T12:51:40.000Z</time>
</trkpt>
<trkpt lat="43.55321" lon="5.28789">
<ele>188.9</ele>
<time>2012-03-24T12:51:41.000Z</time>
</trkpt>
<trkpt lat="43.55319" lon="5.28799">
<ele>188.6</ele>
<time>2012-03-24T12:51:42.000Z</time>
</trkpt>
<trkpt lat="43.55317" lon="5.28808">
<ele>188.2</ele>
<time>2012-03-24T12:51:43.000Z</time>
</trkpt>
<trkpt lat="43.55314" lon="5.28818">
<ele>187.8</ele>
<time>2012-03-24T12:51:44.000Z</time>
</trkpt>
<trkpt lat="43.55312" lon="5.28828">
<ele>188.1</ele>
<time>2012-03-24T12:51:45.000Z</time>
</trkpt>
<trkpt lat="43.55309" lon="5.28838">
<ele>187.9</ele>
<time>2012-03-24T12:51:46.000Z</time>
</trkpt>
<trkpt lat="43.55306" lon="5.28847">
<ele>187.7</ele>
<time>2012-03-24T12:51:47.000Z</time>
</trkpt>
<trkpt lat="43.55303" lon="5.28856">
<ele>187.6</ele>
<time>2012-03-24T12:51:48.000Z</time>
</trkpt>
<trkpt lat="43.55299" lon="5.28865">
<ele>187.6</ele>
<time>2012-03-24T12:51:49.000Z</time>
</trkpt>
<trkpt lat="43.55296" lon="5.28874">
<ele>187.4</ele>
<time>2012-03-24T12:51:50.000Z</time>
</trkpt>
<trkpt lat="43.55293" lon="5.28883">
<ele>187</ele>
<time>2012-03-24T12:51:51.000Z</time>
</trkpt>
<trkpt lat="43.5529" lon="5.28892">
<ele>186.5</ele>
<time>2012-03-24T12:51:52.000Z</time>
</trkpt>
<trkpt lat="43.55287" lon="5.28901">
<ele>186.3</ele>
<time>2012-03-24T12:51:53.000Z</time>
</trkpt>
<trkpt lat="43.55284" lon="5.2891">
<ele>186.2</ele>
<time>2012-03-24T12:51:54.000Z</time>
</trkpt>
<trkpt lat="43.55281" lon="5.28919">
<ele>186.3</ele>
<time>2012-03-24T12:51:55.000Z</time>
</trkpt>
<trkpt lat="43.55278" lon="5.28928">
<ele>186.2</ele>
<time>2012-03-24T12:51:56.000Z</time>
</trkpt>
<trkpt lat="43.55276" lon="5.28936">
<ele>186.2</ele>
<time>2012-03-24T12:51:57.000Z</time>
</trkpt>
<trkpt lat="43.55273" lon="5.28945">
<ele>186</ele>
<time>2012-03-24T12:51:58.000Z</time>
</trkpt>
<trkpt lat="43.5527" lon="5.28954">
<ele>185.7</ele>
<time>2012-03-24T12:51:59.000Z</time>
</trkpt>
<trkpt lat="43.55267" lon="5.28963">
<ele>185.5</ele>
<time>2012-03-24T12:52:00.000Z</time>
</trkpt>
<trkpt lat="43.55265" lon="5.28972">
<ele>185.3</ele>
<time>2012-03-24T12:52:01.000Z</time>
</trkpt>
<trkpt lat="43.55262" lon="5.28981">
<ele>186.1</ele>
<time>2012-03-24T12:52:02.000Z</time>
</trkpt>
<trkpt lat="43.5526" lon="5.28989">
<ele>186.7</ele>
<time>2012-03-24T12:52:03.000Z</time>
</trkpt>
<trkpt lat="43.55257" lon="5.28998">
<ele>186.5</ele>
<time>2012-03-24T12:52:04.000Z</time>
</trkpt>
<trkpt lat="43.55255" lon="5.29006">
<ele>186</ele>
<time>2012-03-24T12:52:05.000Z</time>
</trkpt>
<trkpt lat="43.55252" lon="5.29015">
<ele>186.1</ele>
<time>2012-03-24T12:52:06.000Z</time>
</trkpt>
<trkpt lat="43.5525" lon="5.29023">
<ele>186.6</ele>
<time>2012-03-24T12:52:07.000Z</time>
</trkpt>
<trkpt lat="43.55247" lon="5.29032">
<ele>186.6</ele>
<time>2012-03-24T12:52:08.000Z</time>
</trkpt>
<trkpt lat="43.55244" lon="5.2904">
<ele>186.4</ele>
<time>2012-03-24T12:52:09.000Z</time>
</trkpt>
<trkpt lat="43.55241" lon="5.29049">
<ele>186</ele>
<time>2012-03-24T12:52:10.000Z</time>
</trkpt>
<trkpt lat="43.55238" lon="5.29058">
<ele>185.9</ele>
<time>2012-03-24T12:52:11.000Z</time>
</trkpt>
<trkpt lat="43.55235" lon="5.29066">
<ele>186</ele>
<time>2012-03-24T12:52:12.000Z</time>
</trkpt>
<trkpt lat="43.55231" lon="5.29074">
<ele>185.9</ele>
<time>2012-03-24T12:52:13.000Z</time>
</trkpt>
<trkpt lat="43.55228" lon="5.29082">
<ele>185.7</ele>
<time>2012-03-24T12:52:14.000Z</time>
</trkpt>
<trkpt lat="43.55224" lon="5.2909">
<ele>185.3</ele>
<time>2012-03-24T12:52:15.000Z</time>
</trkpt>
<trkpt lat="43.5522" lon="5.29098">
<ele>185.5</ele>
<time>2012-03-24T12:52:16.000Z</time>
</trkpt>
<trkpt lat="43.55217" lon="5.29105">
<ele>186.3</ele>
<time>2012-03-24T12:52:17.000Z</time>
</trkpt>
<trkpt lat="43.55214" lon="5.29112">
<ele>186.4</ele>
<time>2012-03-24T12:52:18.000Z</time>
</trkpt>
<trkpt lat="43.5521" lon="5.29119">
<ele>186.8</ele>
<time>2012-03-24T12:52:19.000Z</time>
</trkpt>
<trkpt lat="43.55207" lon="5.29126">
<ele>186.8</ele>
<time>2012-03-24T12:52:20.000Z</time>
</trkpt>
<trkpt lat="43.55203" lon="5.29133">
<ele>186.8</ele>
<time>2012-03-24T12:52:21.000Z</time>
</trkpt>
<trkpt lat="43.552" lon="5.2914">
<ele>186.7</ele>
<time>2012-03-24T12:52:22.000Z</time>
</trkpt>
<trkpt lat="43.55196" lon="5.29147">
<ele>186.5</ele>
<time>2012-03-24T12:52:23.000Z</time>
</trkpt>
<trkpt lat="43.55192" lon="5.29155">
<ele>186.5</ele>
<time>2012-03-24T12:52:24.000Z</time>
</trkpt>
<trkpt lat="43.55189" lon="5.29162">
<ele>186.4</ele>
<time>2012-03-24T12:52:25.000Z</time>
</trkpt>
<trkpt lat="43.55186" lon="5.29169">
<ele>186.5</ele>
<time>2012-03-24T12:52:26.000Z</time>
</trkpt>
<trkpt lat="43.55182" lon="5.29177">
<ele>186.9</ele>
<time>2012-03-24T12:52:27.000Z</time>
</trkpt>
<trkpt lat="43.55179" lon="5.29184">
<ele>186.9</ele>
<time>2012-03-24T12:52:28.000Z</time>
</trkpt>
<trkpt lat="43.55176" lon="5.29191">
<ele>187.5</ele>
<time>2012-03-24T12:52:29.000Z</time>
</trkpt>
<trkpt lat="43.55172" lon="5.29198">
<ele>186.7</ele>
<time>2012-03-24T12:52:30.000Z</time>
</trkpt>
<trkpt lat="43.55169" lon="5.29205">
<ele>186.5</ele>
<time>2012-03-24T12:52:31.000Z</time>
</trkpt>
<trkpt lat="43.55166" lon="5.29212">
<ele>186.7</ele>
<time>2012-03-24T12:52:32.000Z</time>
</trkpt>
<trkpt lat="43.55163" lon="5.29219">
<ele>186.8</ele>
<time>2012-03-24T12:52:33.000Z</time>
</trkpt>
<trkpt lat="43.5516" lon="5.29227">
<ele>187</ele>
<time>2012-03-24T12:52:34.000Z</time>
</trkpt>
<trkpt lat="43.55157" lon="5.29235">
<ele>187.6</ele>
<time>2012-03-24T12:52:35.000Z</time>
</trkpt>
<trkpt lat="43.55154" lon="5.29243">
<ele>187.5</ele>
<time>2012-03-24T12:52:36.000Z</time>
</trkpt>
<trkpt lat="43.55151" lon="5.2925">
<ele>187.3</ele>
<time>2012-03-24T12:52:37.000Z</time>
</trkpt>
<trkpt lat="43.55148" lon="5.29258">
<ele>187</ele>
<time>2012-03-24T12:52:38.000Z</time>
</trkpt>
<trkpt lat="43.55145" lon="5.29265">
<ele>187.1</ele>
<time>2012-03-24T12:52:39.000Z</time>
</trkpt>
<trkpt lat="43.55142" lon="5.29273">
<ele>186.9</ele>
<time>2012-03-24T12:52:40.000Z</time>
</trkpt>
<trkpt lat="43.55139" lon="5.2928">
<ele>186.7</ele>
<time>2012-03-24T12:52:41.000Z</time>
</trkpt>
<trkpt lat="43.55136" lon="5.29288">
<ele>186.7</ele>
<time>2012-03-24T12:52:42.000Z</time>
</trkpt>
<trkpt lat="43.55134" lon="5.29295">
<ele>186.6</ele>
<time>2012-03-24T12:52:43.000Z</time>
</trkpt>
<trkpt lat="43.55132" lon="5.29303">
<ele>187.3</ele>
<time>2012-03-24T12:52:44.000Z</time>
</trkpt>
<trkpt lat="43.55129" lon="5.2931">
<ele>186.9</ele>
<time>2012-03-24T12:52:45.000Z</time>
</trkpt>
<trkpt lat="43.55127" lon="5.29318">
<ele>186.9</ele>
<time>2012-03-24T12:52:46.000Z</time>
</trkpt>
<trkpt lat="43.55125" lon="5.29327">
<ele>186.3</ele>
<time>2012-03-24T12:52:47.000Z</time>
</trkpt>
<trkpt lat="43.55123" lon="5.29335">
<ele>186.6</ele>
<time>2012-03-24T12:52:48.000Z</time>
</trkpt>
<trkpt lat="43.55121" lon="5.29343">
<ele>186.6</ele>
<time>2012-03-24T12:52:49.000Z</time>
</trkpt>
<trkpt lat="43.5512" lon="5.29351">
<ele>186.4</ele>
<time>2012-03-24T12:52:50.000Z</time>
</trkpt>
<trkpt lat="43.55118" lon="5.2936">
<ele>186.3</ele>
<time>2012-03-24T12:52:51.000Z</time>
</trkpt>
<trkpt lat="43.55116" lon="5.29369">
<ele>186.3</ele>
<time>2012-03-24T12:52:52.000Z</time>
</trkpt>
<trkpt lat="43.55114" lon="5.29378">
<ele>185.8</ele>
<time>2012-03-24T12:52:53.000Z</time>
</trkpt>
<trkpt lat="43.55113" lon="5.29385">
<ele>185.8</ele>
<time>2012-03-24T12:52:54.000Z</time>
</trkpt>
<trkpt lat="43.55111" lon="5.29394">
<ele>185.7</ele>
<time>2012-03-24T12:52:55.000Z</time>
</trkpt>
<trkpt lat="43.55109" lon="5.29402">
<ele>186</ele>
<time>2012-03-24T12:52:56.000Z</time>
</trkpt>
<trkpt lat="43.55108" lon="5.29411">
<ele>185.7</ele>
<time>2012-03-24T12:52:57.000Z</time>
</trkpt>
<trkpt lat="43.55106" lon="5.29419">
<ele>185.7</ele>
<time>2012-03-24T12:52:58.000Z</time>
</trkpt>
<trkpt lat="43.55105" lon="5.29428">
<ele>185.5</ele>
<time>2012-03-24T12:52:59.000Z</time>
</trkpt>
<trkpt lat="43.55103" lon="5.29436">
<ele>185.6</ele>
<time>2012-03-24T12:53:00.000Z</time>
</trkpt>
<trkpt lat="43.55102" lon="5.29445">
<ele>185.7</ele>
<time>2012-03-24T12:53:01.000Z</time>
</trkpt>
<trkpt lat="43.55101" lon="5.29454">
<ele>185.2</ele>
<time>2012-03-24T12:53:02.000Z</time>
</trkpt>
<trkpt lat="43.55099" lon="5.29463">
<ele>185</ele>
<time>2012-03-24T12:53:03.000Z</time>
</trkpt>
<trkpt lat="43.55098" lon="5.29472">
<ele>185.3</ele>
<time>2012-03-24T12:53:04.000Z</time>
</trkpt>
<trkpt lat="43.55096" lon="5.29481">
<ele>185.7</ele>
<time>2012-03-24T12:53:05.000Z</time>
</trkpt>
<trkpt lat="43.55094" lon="5.2949">
<ele>185.6</ele>
<time>2012-03-24T12:53:06.000Z</time>
</trkpt>
<trkpt lat="43.55093" lon="5.29498">
<ele>185.8</ele>
<time>2012-03-24T12:53:07.000Z</time>
</trkpt>
<trkpt lat="43.55091" lon="5.29507">
<ele>185.6</ele>
<time>2012-03-24T12:53:08.000Z</time>
</trkpt>
<trkpt lat="43.55089" lon="5.29515">
<ele>185.4</ele>
<time>2012-03-24T12:53:09.000Z</time>
</trkpt>
<trkpt lat="43.55086" lon="5.29523">
<ele>185.6</ele>
<time>2012-03-24T12:53:10.000Z</time>
</trkpt>
<trkpt lat="43.55084" lon="5.29532">
<ele>185.2</ele>
<time>2012-03-24T12:53:11.000Z</time>
</trkpt>
<trkpt lat="43.55081" lon="5.2954">
<ele>185.1</ele>
<time>2012-03-24T12:53:12.000Z</time>
</trkpt>
<trkpt lat="43.55079" lon="5.29549">
<ele>184.8</ele>
<time>2012-03-24T12:53:13.000Z</time>
</trkpt>
<trkpt lat="43.55077" lon="5.29557">
<ele>184.9</ele>
<time>2012-03-24T12:53:14.000Z</time>
</trkpt>
<trkpt lat="43.55074" lon="5.29565">
<ele>184.6</ele>
<time>2012-03-24T12:53:15.000Z</time>
</trkpt>
<trkpt lat="43.5507" lon="5.29573">
<ele>184.5</ele>
<time>2012-03-24T12:53:16.000Z</time>
</trkpt>
<trkpt lat="43.55067" lon="5.29581">
<ele>184.4</ele>
<time>2012-03-24T12:53:17.000Z</time>
</trkpt>
<trkpt lat="43.55064" lon="5.29589">
<ele>184.4</ele>
<time>2012-03-24T12:53:18.000Z</time>
</trkpt>
<trkpt lat="43.5506" lon="5.29597">
<ele>184.5</ele>
<time>2012-03-24T12:53:19.000Z</time>
</trkpt>
<trkpt lat="43.55057" lon="5.29604">
<ele>184.5</ele>
<time>2012-03-24T12:53:20.000Z</time>
</trkpt>
<trkpt lat="43.55054" lon="5.29612">
<ele>184.4</ele>
<time>2012-03-24T12:53:21.000Z</time>
</trkpt>
<trkpt lat="43.55051" lon="5.29619">
<ele>184.3</ele>
<time>2012-03-24T12:53:22.000Z</time>
</trkpt>
<trkpt lat="43.55047" lon="5.29627">
<ele>184.3</ele>
<time>2012-03-24T12:53:23.000Z</time>
</trkpt>
<trkpt lat="43.55044" lon="5.29634">
<ele>184.2</ele>
<time>2012-03-24T12:53:24.000Z</time>
</trkpt>
<trkpt lat="43.5504" lon="5.29641">
<ele>184.1</ele>
<time>2012-03-24T12:53:25.000Z</time>
</trkpt>
<trkpt lat="43.55037" lon="5.29649">
<ele>184.3</ele>
<time>2012-03-24T12:53:26.000Z</time>
</trkpt>
<trkpt lat="43.55034" lon="5.29656">
<ele>184.1</ele>
<time>2012-03-24T12:53:27.000Z</time>
</trkpt>
<trkpt lat="43.5503" lon="5.29663">
<ele>183.8</ele>
<time>2012-03-24T12:53:28.000Z</time>
</trkpt>
<trkpt lat="43.55027" lon="5.2967">
<ele>183.6</ele>
<time>2012-03-24T12:53:29.000Z</time>
</trkpt>
<trkpt lat="43.55024" lon="5.29677">
<ele>183.5</ele>
<time>2012-03-24T12:53:30.000Z</time>
</trkpt>
<trkpt lat="43.5502" lon="5.29685">
<ele>183.7</ele>
<time>2012-03-24T12:53:31.000Z</time>
</trkpt>
<trkpt lat="43.55017" lon="5.29692">
<ele>183.6</ele>
<time>2012-03-24T12:53:32.000Z</time>
</trkpt>
<trkpt lat="43.55014" lon="5.29699">
<ele>183.4</ele>
<time>2012-03-24T12:53:33.000Z</time>
</trkpt>
<trkpt lat="43.5501" lon="5.29706">
<ele>183.5</ele>
<time>2012-03-24T12:53:34.000Z</time>
</trkpt>
<trkpt lat="43.55007" lon="5.29713">
<ele>183.5</ele>
<time>2012-03-24T12:53:35.000Z</time>
</trkpt>
<trkpt lat="43.55004" lon="5.2972">
<ele>183.7</ele>
<time>2012-03-24T12:53:36.000Z</time>
</trkpt>
<trkpt lat="43.55001" lon="5.29728">
<ele>183.8</ele>
<time>2012-03-24T12:53:37.000Z</time>
</trkpt>
<trkpt lat="43.54998" lon="5.29735">
<ele>183.9</ele>
<time>2012-03-24T12:53:38.000Z</time>
</trkpt>
<trkpt lat="43.54995" lon="5.29742">
<ele>184.2</ele>
<time>2012-03-24T12:53:39.000Z</time>
</trkpt>
<trkpt lat="43.54992" lon="5.29749">
<ele>184.2</ele>
<time>2012-03-24T12:53:40.000Z</time>
</trkpt>
<trkpt lat="43.54988" lon="5.29757">
<ele>184.1</ele>
<time>2012-03-24T12:53:41.000Z</time>
</trkpt>
<trkpt lat="43.54985" lon="5.29764">
<ele>184.1</ele>
<time>2012-03-24T12:53:42.000Z</time>
</trkpt>
<trkpt lat="43.54982" lon="5.29772">
<ele>184.4</ele>
<time>2012-03-24T12:53:43.000Z</time>
</trkpt>
<trkpt lat="43.5498" lon="5.29778">
<ele>184.2</ele>
<time>2012-03-24T12:53:44.000Z</time>
</trkpt>
<trkpt lat="43.54977" lon="5.29786">
<ele>184.7</ele>
<time>2012-03-24T12:53:45.000Z</time>
</trkpt>
<trkpt lat="43.54975" lon="5.29794">
<ele>184.7</ele>
<time>2012-03-24T12:53:46.000Z</time>
</trkpt>
<trkpt lat="43.54972" lon="5.29801">
<ele>184.8</ele>
<time>2012-03-24T12:53:47.000Z</time>
</trkpt>
<trkpt lat="43.54971" lon="5.2981">
<ele>185.1</ele>
<time>2012-03-24T12:53:48.000Z</time>
</trkpt>
<trkpt lat="43.54969" lon="5.29818">
<ele>184.8</ele>
<time>2012-03-24T12:53:49.000Z</time>
</trkpt>
<trkpt lat="43.54967" lon="5.29826">
<ele>184.9</ele>
<time>2012-03-24T12:53:50.000Z</time>
</trkpt>
<trkpt lat="43.54965" lon="5.29835">
<ele>184.9</ele>
<time>2012-03-24T12:53:51.000Z</time>
</trkpt>
<trkpt lat="43.54964" lon="5.29843">
<ele>184.9</ele>
<time>2012-03-24T12:53:52.000Z</time>
</trkpt>
<trkpt lat="43.54963" lon="5.29851">
<ele>184.8</ele>
<time>2012-03-24T12:53:53.000Z</time>
</trkpt>
<trkpt lat="43.54962" lon="5.2986">
<ele>184.9</ele>
<time>2012-03-24T12:53:54.000Z</time>
</trkpt>
<trkpt lat="43.54961" lon="5.29869">
<ele>184.9</ele>
<time>2012-03-24T12:53:55.000Z</time>
</trkpt>
<trkpt lat="43.54961" lon="5.29876">
<ele>185</ele>
<time>2012-03-24T12:53:56.000Z</time>
</trkpt>
<trkpt lat="43.54959" lon="5.29885">
<ele>184.1</ele>
<time>2012-03-24T12:53:57.000Z</time>
</trkpt>
<trkpt lat="43.54958" lon="5.29894">
<ele>185.4</ele>
<time>2012-03-24T12:53:58.000Z</time>
</trkpt>
<trkpt lat="43.54957" lon="5.29902">
<ele>184.3</ele>
<time>2012-03-24T12:53:59.000Z</time>
</trkpt>
<trkpt lat="43.54956" lon="5.29911">
<ele>184.4</ele>
<time>2012-03-24T12:54:00.000Z</time>
</trkpt>
<trkpt lat="43.54956" lon="5.2992">
<ele>184.4</ele>
<time>2012-03-24T12:54:01.000Z</time>
</trkpt>
<trkpt lat="43.54955" lon="5.29927">
<ele>184.1</ele>
<time>2012-03-24T12:54:02.000Z</time>
</trkpt>
<trkpt lat="43.54954" lon="5.29936">
<ele>184.4</ele>
<time>2012-03-24T12:54:03.000Z</time>
</trkpt>
<trkpt lat="43.54953" lon="5.29945">
<ele>184.6</ele>
<time>2012-03-24T12:54:04.000Z</time>
</trkpt>
<trkpt lat="43.54952" lon="5.29953">
<ele>184.8</ele>
<time>2012-03-24T12:54:05.000Z</time>
</trkpt>
<trkpt lat="43.5495" lon="5.29962">
<ele>183.6</ele>
<time>2012-03-24T12:54:06.000Z</time>
</trkpt>
<trkpt lat="43.54949" lon="5.2997">
<ele>184.1</ele>
<time>2012-03-24T12:54:07.000Z</time>
</trkpt>
<trkpt lat="43.54948" lon="5.29978">
<ele>184.4</ele>
<time>2012-03-24T12:54:08.000Z</time>
</trkpt>
<trkpt lat="43.54947" lon="5.29987">
<ele>183.9</ele>
<time>2012-03-24T12:54:09.000Z</time>
</trkpt>
<trkpt lat="43.54946" lon="5.29995">
<ele>183.9</ele>
<time>2012-03-24T12:54:10.000Z</time>
</trkpt>
<trkpt lat="43.54944" lon="5.30004">
<ele>183.7</ele>
<time>2012-03-24T12:54:11.000Z</time>
</trkpt>
<trkpt lat="43.54943" lon="5.30012">
<ele>183.7</ele>
<time>2012-03-24T12:54:12.000Z</time>
</trkpt>
<trkpt lat="43.54942" lon="5.30021">
<ele>183.9</ele>
<time>2012-03-24T12:54:13.000Z</time>
</trkpt>
<trkpt lat="43.54942" lon="5.30028">
<ele>183.9</ele>
<time>2012-03-24T12:54:14.000Z</time>
</trkpt>
<trkpt lat="43.54941" lon="5.30037">
<ele>184.1</ele>
<time>2012-03-24T12:54:15.000Z</time>
</trkpt>
<trkpt lat="43.5494" lon="5.30045">
<ele>184.1</ele>
<time>2012-03-24T12:54:16.000Z</time>
</trkpt>
<trkpt lat="43.54938" lon="5.30051">
<ele>184</ele>
<time>2012-03-24T12:54:17.000Z</time>
</trkpt>
<trkpt lat="43.54938" lon="5.30058">
<ele>184</ele>
<time>2012-03-24T12:54:18.000Z</time>
</trkpt>
<trkpt lat="43.54936" lon="5.30065">
<ele>184.5</ele>
<time>2012-03-24T12:54:19.000Z</time>
</trkpt>
<trkpt lat="43.54934" lon="5.30071">
<ele>184.5</ele>
<time>2012-03-24T12:54:20.000Z</time>
</trkpt>
<trkpt lat="43.54929" lon="5.30074">
<ele>186.1</ele>
<time>2012-03-24T12:54:21.000Z</time>
</trkpt>
<trkpt lat="43.54925" lon="5.30079">
<ele>185</ele>
<time>2012-03-24T12:54:22.000Z</time>
</trkpt>
<trkpt lat="43.5492" lon="5.30082">
<ele>184.6</ele>
<time>2012-03-24T12:54:23.000Z</time>
</trkpt>
<trkpt lat="43.54912" lon="5.30087">
<ele>184.6</ele>
<time>2012-03-24T12:54:25.000Z</time>
</trkpt>
<trkpt lat="43.54909" lon="5.30092">
<ele>184.5</ele>
<time>2012-03-24T12:54:26.000Z</time>
</trkpt>
<trkpt lat="43.54906" lon="5.30104">
<ele>184.5</ele>
<time>2012-03-24T12:54:28.000Z</time>
</trkpt>
<trkpt lat="43.54907" lon="5.30111">
<ele>184.3</ele>
<time>2012-03-24T12:54:29.000Z</time>
</trkpt>
<trkpt lat="43.54907" lon="5.30117">
<ele>183.6</ele>
<time>2012-03-24T12:54:30.000Z</time>
</trkpt>
<trkpt lat="43.54909" lon="5.30125">
<ele>183.7</ele>
<time>2012-03-24T12:54:31.000Z</time>
</trkpt>
<trkpt lat="43.5491" lon="5.30131">
<ele>183.8</ele>
<time>2012-03-24T12:54:32.000Z</time>
</trkpt>
<trkpt lat="43.54912" lon="5.30138">
<ele>184.1</ele>
<time>2012-03-24T12:54:33.000Z</time>
</trkpt>
<trkpt lat="43.54913" lon="5.30145">
<ele>184.8</ele>
<time>2012-03-24T12:54:34.000Z</time>
</trkpt>
<trkpt lat="43.54914" lon="5.30152">
<ele>185.1</ele>
<time>2012-03-24T12:54:35.000Z</time>
</trkpt>
<trkpt lat="43.54915" lon="5.30158">
<ele>185.2</ele>
<time>2012-03-24T12:54:36.000Z</time>
</trkpt>
<trkpt lat="43.54917" lon="5.30165">
<ele>185.6</ele>
<time>2012-03-24T12:54:37.000Z</time>
</trkpt>
<trkpt lat="43.54917" lon="5.30172">
<ele>186</ele>
<time>2012-03-24T12:54:38.000Z</time>
</trkpt>
<trkpt lat="43.54918" lon="5.30179">
<ele>185.4</ele>
<time>2012-03-24T12:54:39.000Z</time>
</trkpt>
<trkpt lat="43.54918" lon="5.30186">
<ele>185.5</ele>
<time>2012-03-24T12:54:40.000Z</time>
</trkpt>
<trkpt lat="43.54919" lon="5.30192">
<ele>185.4</ele>
<time>2012-03-24T12:54:41.000Z</time>
</trkpt>
<trkpt lat="43.54919" lon="5.30199">
<ele>185.9</ele>
<time>2012-03-24T12:54:42.000Z</time>
</trkpt>
<trkpt lat="43.5492" lon="5.30205">
<ele>186.3</ele>
<time>2012-03-24T12:54:43.000Z</time>
</trkpt>
<trkpt lat="43.5492" lon="5.30212">
<ele>186.6</ele>
<time>2012-03-24T12:54:44.000Z</time>
</trkpt>
<trkpt lat="43.5492" lon="5.30219">
<ele>187</ele>
<time>2012-03-24T12:54:45.000Z</time>
</trkpt>
<trkpt lat="43.5492" lon="5.30226">
<ele>187</ele>
<time>2012-03-24T12:54:46.000Z</time>
</trkpt>
<trkpt lat="43.5492" lon="5.30233">
<ele>187.1</ele>
<time>2012-03-24T12:54:47.000Z</time>
</trkpt>
<trkpt lat="43.5492" lon="5.3024">
<ele>187.1</ele>
<time>2012-03-24T12:54:48.000Z</time>
</trkpt>
<trkpt lat="43.54919" lon="5.30246">
<ele>187.2</ele>
<time>2012-03-24T12:54:49.000Z</time>
</trkpt>
<trkpt lat="43.54919" lon="5.30253">
<ele>187.4</ele>
<time>2012-03-24T12:54:50.000Z</time>
</trkpt>
<trkpt lat="43.54919" lon="5.3026">
<ele>187.6</ele>
<time>2012-03-24T12:54:51.000Z</time>
</trkpt>
<trkpt lat="43.54918" lon="5.30272">
<ele>187.7</ele>
<time>2012-03-24T12:54:53.000Z</time>
</trkpt>
<trkpt lat="43.54918" lon="5.30279">
<ele>187.7</ele>
<time>2012-03-24T12:54:54.000Z</time>
</trkpt>
<trkpt lat="43.54917" lon="5.30286">
<ele>187.7</ele>
<time>2012-03-24T12:54:55.000Z</time>
</trkpt>
<trkpt lat="43.54917" lon="5.30292">
<ele>187.7</ele>
<time>2012-03-24T12:54:56.000Z</time>
</trkpt>
<trkpt lat="43.54917" lon="5.30299">
<ele>187.8</ele>
<time>2012-03-24T12:54:57.000Z</time>
</trkpt>
<trkpt lat="43.54916" lon="5.30305">
<ele>188</ele>
<time>2012-03-24T12:54:58.000Z</time>
</trkpt>
<trkpt lat="43.54916" lon="5.30312">
<ele>188.4</ele>
<time>2012-03-24T12:54:59.000Z</time>
</trkpt>
<trkpt lat="43.54916" lon="5.30318">
<ele>188.9</ele>
<time>2012-03-24T12:55:00.000Z</time>
</trkpt>
<trkpt lat="43.54916" lon="5.30325">
<ele>188.7</ele>
<time>2012-03-24T12:55:01.000Z</time>
</trkpt>
<trkpt lat="43.54915" lon="5.30333">
<ele>188.6</ele>
<time>2012-03-24T12:55:02.000Z</time>
</trkpt>
<trkpt lat="43.54914" lon="5.3034">
<ele>188.7</ele>
<time>2012-03-24T12:55:03.000Z</time>
</trkpt>
<trkpt lat="43.54914" lon="5.30346">
<ele>188.9</ele>
<time>2012-03-24T12:55:04.000Z</time>
</trkpt>
<trkpt lat="43.54914" lon="5.30353">
<ele>188.7</ele>
<time>2012-03-24T12:55:05.000Z</time>
</trkpt>
<trkpt lat="43.54913" lon="5.3036">
<ele>188.9</ele>
<time>2012-03-24T12:55:06.000Z</time>
</trkpt>
<trkpt lat="43.54913" lon="5.30367">
<ele>189.7</ele>
<time>2012-03-24T12:55:07.000Z</time>
</trkpt>
<trkpt lat="43.54911" lon="5.30374">
<ele>189.8</ele>
<time>2012-03-24T12:55:08.000Z</time>
</trkpt>
<trkpt lat="43.5491" lon="5.3038">
<ele>190</ele>
<time>2012-03-24T12:55:09.000Z</time>
</trkpt>
<trkpt lat="43.54909" lon="5.30392">
<ele>190.7</ele>
<time>2012-03-24T12:55:11.000Z</time>
</trkpt>
<trkpt lat="43.54908" lon="5.30399">
<ele>190.8</ele>
<time>2012-03-24T12:55:12.000Z</time>
</trkpt>
<trkpt lat="43.54907" lon="5.30406">
<ele>190.9</ele>
<time>2012-03-24T12:55:13.000Z</time>
</trkpt>
<trkpt lat="43.54906" lon="5.30412">
<ele>190.9</ele>
<time>2012-03-24T12:55:14.000Z</time>
</trkpt>
<trkpt lat="43.54905" lon="5.30419">
<ele>191.1</ele>
<time>2012-03-24T12:55:15.000Z</time>
</trkpt>
<trkpt lat="43.54904" lon="5.30426">
<ele>191.2</ele>
<time>2012-03-24T12:55:16.000Z</time>
</trkpt>
<trkpt lat="43.54904" lon="5.30432">
<ele>191.4</ele>
<time>2012-03-24T12:55:17.000Z</time>
</trkpt>
<trkpt lat="43.54902" lon="5.30439">
<ele>191.6</ele>
<time>2012-03-24T12:55:18.000Z</time>
</trkpt>
<trkpt lat="43.54901" lon="5.30445">
<ele>191.9</ele>
<time>2012-03-24T12:55:19.000Z</time>
</trkpt>
<trkpt lat="43.549" lon="5.30452">
<ele>192</ele>
<time>2012-03-24T12:55:20.000Z</time>
</trkpt>
<trkpt lat="43.54899" lon="5.30458">
<ele>192.1</ele>
<time>2012-03-24T12:55:21.000Z</time>
</trkpt>
<trkpt lat="43.54898" lon="5.30465">
<ele>192.2</ele>
<time>2012-03-24T12:55:22.000Z</time>
</trkpt>
<trkpt lat="43.54898" lon="5.30472">
<ele>192.3</ele>
<time>2012-03-24T12:55:23.000Z</time>
</trkpt>
<trkpt lat="43.54895" lon="5.30485">
<ele>192.1</ele>
<time>2012-03-24T12:55:25.000Z</time>
</trkpt>
<trkpt lat="43.54894" lon="5.30491">
<ele>192</ele>
<time>2012-03-24T12:55:26.000Z</time>
</trkpt>
<trkpt lat="43.54893" lon="5.30497">
<ele>191.7</ele>
<time>2012-03-24T12:55:27.000Z</time>
</trkpt>
<trkpt lat="43.54893" lon="5.30504">
<ele>191.9</ele>
<time>2012-03-24T12:55:28.000Z</time>
</trkpt>
<trkpt lat="43.54891" lon="5.30516">
<ele>191.8</ele>
<time>2012-03-24T12:55:30.000Z</time>
</trkpt>
<trkpt lat="43.54889" lon="5.30523">
<ele>192.1</ele>
<time>2012-03-24T12:55:31.000Z</time>
</trkpt>
<trkpt lat="43.54888" lon="5.30529">
<ele>192.6</ele>
<time>2012-03-24T12:55:32.000Z</time>
</trkpt>
<trkpt lat="43.54887" lon="5.30535">
<ele>192.9</ele>
<time>2012-03-24T12:55:33.000Z</time>
</trkpt>
<trkpt lat="43.54886" lon="5.30541">
<ele>193.1</ele>
<time>2012-03-24T12:55:34.000Z</time>
</trkpt>
<trkpt lat="43.54884" lon="5.30548">
<ele>193.3</ele>
<time>2012-03-24T12:55:35.000Z</time>
</trkpt>
<trkpt lat="43.54883" lon="5.30555">
<ele>194.1</ele>
<time>2012-03-24T12:55:36.000Z</time>
</trkpt>
<trkpt lat="43.54881" lon="5.30563">
<ele>194.1</ele>
<time>2012-03-24T12:55:37.000Z</time>
</trkpt>
<trkpt lat="43.5488" lon="5.30569">
<ele>194.2</ele>
<time>2012-03-24T12:55:38.000Z</time>
</trkpt>
<trkpt lat="43.54879" lon="5.30575">
<ele>194.3</ele>
<time>2012-03-24T12:55:39.000Z</time>
</trkpt>
<trkpt lat="43.54877" lon="5.30587">
<ele>194.1</ele>
<time>2012-03-24T12:55:41.000Z</time>
</trkpt>
<trkpt lat="43.54874" lon="5.306">
<ele>195.2</ele>
<time>2012-03-24T12:55:43.000Z</time>
</trkpt>
<trkpt lat="43.54873" lon="5.30606">
<ele>195.8</ele>
<time>2012-03-24T12:55:44.000Z</time>
</trkpt>
<trkpt lat="43.54872" lon="5.30613">
<ele>196.3</ele>
<time>2012-03-24T12:55:45.000Z</time>
</trkpt>
<trkpt lat="43.54871" lon="5.3062">
<ele>196.8</ele>
<time>2012-03-24T12:55:46.000Z</time>
</trkpt>
<trkpt lat="43.54869" lon="5.30627">
<ele>197.1</ele>
<time>2012-03-24T12:55:47.000Z</time>
</trkpt>
<trkpt lat="43.54868" lon="5.30633">
<ele>197.6</ele>
<time>2012-03-24T12:55:48.000Z</time>
</trkpt>
<trkpt lat="43.54867" lon="5.30639">
<ele>198.3</ele>
<time>2012-03-24T12:55:49.000Z</time>
</trkpt>
<trkpt lat="43.54866" lon="5.30646">
<ele>198.3</ele>
<time>2012-03-24T12:55:50.000Z</time>
</trkpt>
<trkpt lat="43.54865" lon="5.30652">
<ele>198.2</ele>
<time>2012-03-24T12:55:51.000Z</time>
</trkpt>
<trkpt lat="43.54864" lon="5.30659">
<ele>198</ele>
<time>2012-03-24T12:55:52.000Z</time>
</trkpt>
<trkpt lat="43.54862" lon="5.30666">
<ele>198</ele>
<time>2012-03-24T12:55:53.000Z</time>
</trkpt>
<trkpt lat="43.54862" lon="5.30673">
<ele>198</ele>
<time>2012-03-24T12:55:54.000Z</time>
</trkpt>
<trkpt lat="43.54861" lon="5.30685">
<ele>197.7</ele>
<time>2012-03-24T12:55:56.000Z</time>
</trkpt>
<trkpt lat="43.54861" lon="5.30692">
<ele>197.9</ele>
<time>2012-03-24T12:55:57.000Z</time>
</trkpt>
<trkpt lat="43.54858" lon="5.30704">
<ele>197.7</ele>
<time>2012-03-24T12:55:59.000Z</time>
</trkpt>
<trkpt lat="43.54856" lon="5.30711">
<ele>197.8</ele>
<time>2012-03-24T12:56:00.000Z</time>
</trkpt>
<trkpt lat="43.54853" lon="5.30718">
<ele>198.3</ele>
<time>2012-03-24T12:56:01.000Z</time>
</trkpt>
<trkpt lat="43.5485" lon="5.30726">
<ele>198.6</ele>
<time>2012-03-24T12:56:02.000Z</time>
</trkpt>
<trkpt lat="43.54848" lon="5.30732">
<ele>198.9</ele>
<time>2012-03-24T12:56:03.000Z</time>
</trkpt>
<trkpt lat="43.54846" lon="5.30738">
<ele>198.6</ele>
<time>2012-03-24T12:56:04.000Z</time>
</trkpt>
<trkpt lat="43.54844" lon="5.30745">
<ele>198.8</ele>
<time>2012-03-24T12:56:05.000Z</time>
</trkpt>
<trkpt lat="43.54842" lon="5.30752">
<ele>199.2</ele>
<time>2012-03-24T12:56:06.000Z</time>
</trkpt>
<trkpt lat="43.5484" lon="5.30759">
<ele>199.1</ele>
<time>2012-03-24T12:56:07.000Z</time>
</trkpt>
<trkpt lat="43.54838" lon="5.30764">
<ele>199.1</ele>
<time>2012-03-24T12:56:08.000Z</time>
</trkpt>
<trkpt lat="43.54836" lon="5.30771">
<ele>199.2</ele>
<time>2012-03-24T12:56:09.000Z</time>
</trkpt>
<trkpt lat="43.54833" lon="5.30777">
<ele>199.2</ele>
<time>2012-03-24T12:56:10.000Z</time>
</trkpt>
<trkpt lat="43.5483" lon="5.30783">
<ele>199.3</ele>
<time>2012-03-24T12:56:11.000Z</time>
</trkpt>
<trkpt lat="43.54829" lon="5.3079">
<ele>199.3</ele>
<time>2012-03-24T12:56:12.000Z</time>
</trkpt>
<trkpt lat="43.54827" lon="5.30796">
<ele>201.5</ele>
<time>2012-03-24T12:56:13.000Z</time>
</trkpt>
<trkpt lat="43.54825" lon="5.30804">
<ele>200.8</ele>
<time>2012-03-24T12:56:14.000Z</time>
</trkpt>
<trkpt lat="43.54822" lon="5.3081">
<ele>200.5</ele>
<time>2012-03-24T12:56:15.000Z</time>
</trkpt>
<trkpt lat="43.54819" lon="5.30816">
<ele>200.7</ele>
<time>2012-03-24T12:56:16.000Z</time>
</trkpt>
<trkpt lat="43.54817" lon="5.30823">
<ele>200.4</ele>
<time>2012-03-24T12:56:17.000Z</time>
</trkpt>
<trkpt lat="43.54815" lon="5.3083">
<ele>200.8</ele>
<time>2012-03-24T12:56:18.000Z</time>
</trkpt>
<trkpt lat="43.54813" lon="5.30838">
<ele>200.6</ele>
<time>2012-03-24T12:56:19.000Z</time>
</trkpt>
<trkpt lat="43.54811" lon="5.30845">
<ele>200.1</ele>
<time>2012-03-24T12:56:20.000Z</time>
</trkpt>
<trkpt lat="43.54807" lon="5.30857">
<ele>200.2</ele>
<time>2012-03-24T12:56:22.000Z</time>
</trkpt>
<trkpt lat="43.54806" lon="5.30863">
<ele>200</ele>
<time>2012-03-24T12:56:23.000Z</time>
</trkpt>
<trkpt lat="43.54803" lon="5.3087">
<ele>200.1</ele>
<time>2012-03-24T12:56:24.000Z</time>
</trkpt>
<trkpt lat="43.54801" lon="5.30878">
<ele>200.3</ele>
<time>2012-03-24T12:56:25.000Z</time>
</trkpt>
<trkpt lat="43.54799" lon="5.30884">
<ele>200.1</ele>
<time>2012-03-24T12:56:26.000Z</time>
</trkpt>
<trkpt lat="43.54798" lon="5.30891">
<ele>200</ele>
<time>2012-03-24T12:56:27.000Z</time>
</trkpt>
<trkpt lat="43.54795" lon="5.30898">
<ele>200.1</ele>
<time>2012-03-24T12:56:28.000Z</time>
</trkpt>
<trkpt lat="43.54793" lon="5.30904">
<ele>200</ele>
<time>2012-03-24T12:56:29.000Z</time>
</trkpt>
<trkpt lat="43.54791" lon="5.30911">
<ele>199.9</ele>
<time>2012-03-24T12:56:30.000Z</time>
</trkpt>
<trkpt lat="43.54789" lon="5.30917">
<ele>200.1</ele>
<time>2012-03-24T12:56:31.000Z</time>
</trkpt>
<trkpt lat="43.54786" lon="5.30923">
<ele>199.6</ele>
<time>2012-03-24T12:56:32.000Z</time>
</trkpt>
<trkpt lat="43.54784" lon="5.3093">
<ele>200.1</ele>
<time>2012-03-24T12:56:33.000Z</time>
</trkpt>
<trkpt lat="43.54783" lon="5.30936">
<ele>200.3</ele>
<time>2012-03-24T12:56:34.000Z</time>
</trkpt>
<trkpt lat="43.54779" lon="5.30946">
<ele>200.8</ele>
<time>2012-03-24T12:56:36.000Z</time>
</trkpt>
<trkpt lat="43.54776" lon="5.30958">
<ele>200.7</ele>
<time>2012-03-24T12:56:38.000Z</time>
</trkpt>
<trkpt lat="43.54774" lon="5.30964">
<ele>200.4</ele>
<time>2012-03-24T12:56:39.000Z</time>
</trkpt>
<trkpt lat="43.54771" lon="5.30976">
<ele>200.5</ele>
<time>2012-03-24T12:56:41.000Z</time>
</trkpt>
<trkpt lat="43.54769" lon="5.30982">
<ele>200.4</ele>
<time>2012-03-24T12:56:42.000Z</time>
</trkpt>
<trkpt lat="43.54766" lon="5.30988">
<ele>200.3</ele>
<time>2012-03-24T12:56:43.000Z</time>
</trkpt>
<trkpt lat="43.54764" lon="5.30994">
<ele>200.8</ele>
<time>2012-03-24T12:56:44.000Z</time>
</trkpt>
<trkpt lat="43.54762" lon="5.31">
<ele>201.3</ele>
<time>2012-03-24T12:56:45.000Z</time>
</trkpt>
<trkpt lat="43.54759" lon="5.31006">
<ele>201.8</ele>
<time>2012-03-24T12:56:46.000Z</time>
</trkpt>
<trkpt lat="43.54757" lon="5.31012">
<ele>201.7</ele>
<time>2012-03-24T12:56:47.000Z</time>
</trkpt>
<trkpt lat="43.54754" lon="5.31017">
<ele>201.6</ele>
<time>2012-03-24T12:56:48.000Z</time>
</trkpt>
<trkpt lat="43.54751" lon="5.31023">
<ele>201.7</ele>
<time>2012-03-24T12:56:49.000Z</time>
</trkpt>
<trkpt lat="43.54748" lon="5.31028">
<ele>201.6</ele>
<time>2012-03-24T12:56:50.000Z</time>
</trkpt>
<trkpt lat="43.54744" lon="5.31033">
<ele>201.4</ele>
<time>2012-03-24T12:56:51.000Z</time>
</trkpt>
<trkpt lat="43.5474" lon="5.31038">
<ele>201.3</ele>
<time>2012-03-24T12:56:52.000Z</time>
</trkpt>
<trkpt lat="43.54736" lon="5.31043">
<ele>201.1</ele>
<time>2012-03-24T12:56:53.000Z</time>
</trkpt>
<trkpt lat="43.54733" lon="5.31048">
<ele>200.9</ele>
<time>2012-03-24T12:56:54.000Z</time>
</trkpt>
<trkpt lat="43.54732" lon="5.31055">
<ele>201.2</ele>
<time>2012-03-24T12:56:55.000Z</time>
</trkpt>
<trkpt lat="43.54731" lon="5.31062">
<ele>201.1</ele>
<time>2012-03-24T12:56:56.000Z</time>
</trkpt>
<trkpt lat="43.5473" lon="5.31068">
<ele>200.8</ele>
<time>2012-03-24T12:56:57.000Z</time>
</trkpt>
<trkpt lat="43.54731" lon="5.31075">
<ele>200.8</ele>
<time>2012-03-24T12:56:58.000Z</time>
</trkpt>
<trkpt lat="43.54732" lon="5.31081">
<ele>201.1</ele>
<time>2012-03-24T12:56:59.000Z</time>
</trkpt>
<trkpt lat="43.54732" lon="5.31087">
<ele>201.2</ele>
<time>2012-03-24T12:57:00.000Z</time>
</trkpt>
<trkpt lat="43.54731" lon="5.31094">
<ele>201.2</ele>
<time>2012-03-24T12:57:01.000Z</time>
</trkpt>
<trkpt lat="43.5473" lon="5.311">
<ele>201.2</ele>
<time>2012-03-24T12:57:02.000Z</time>
</trkpt>
<trkpt lat="43.54729" lon="5.31107">
<ele>201.1</ele>
<time>2012-03-24T12:57:03.000Z</time>
</trkpt>
<trkpt lat="43.54727" lon="5.31114">
<ele>201</ele>
<time>2012-03-24T12:57:04.000Z</time>
</trkpt>
<trkpt lat="43.54726" lon="5.31121">
<ele>200.8</ele>
<time>2012-03-24T12:57:05.000Z</time>
</trkpt>
<trkpt lat="43.54726" lon="5.31128">
<ele>200.8</ele>
<time>2012-03-24T12:57:06.000Z</time>
</trkpt>
<trkpt lat="43.54724" lon="5.31135">
<ele>200.7</ele>
<time>2012-03-24T12:57:07.000Z</time>
</trkpt>
<trkpt lat="43.54723" lon="5.31142">
<ele>200.9</ele>
<time>2012-03-24T12:57:08.000Z</time>
</trkpt>
<trkpt lat="43.54723" lon="5.31149">
<ele>201.1</ele>
<time>2012-03-24T12:57:09.000Z</time>
</trkpt>
<trkpt lat="43.54722" lon="5.31155">
<ele>200.9</ele>
<time>2012-03-24T12:57:10.000Z</time>
</trkpt>
<trkpt lat="43.54721" lon="5.31163">
<ele>200.5</ele>
<time>2012-03-24T12:57:11.000Z</time>
</trkpt>
<trkpt lat="43.54721" lon="5.3117">
<ele>201.1</ele>
<time>2012-03-24T12:57:12.000Z</time>
</trkpt>
<trkpt lat="43.5472" lon="5.31177">
<ele>201.8</ele>
<time>2012-03-24T12:57:13.000Z</time>
</trkpt>
<trkpt lat="43.54719" lon="5.31183">
<ele>202.1</ele>
<time>2012-03-24T12:57:14.000Z</time>
</trkpt>
<trkpt lat="43.54718" lon="5.3119">
<ele>202</ele>
<time>2012-03-24T12:57:15.000Z</time>
</trkpt>
<trkpt lat="43.54718" lon="5.31196">
<ele>201.7</ele>
<time>2012-03-24T12:57:16.000Z</time>
</trkpt>
<trkpt lat="43.54717" lon="5.31204">
<ele>202</ele>
<time>2012-03-24T12:57:17.000Z</time>
</trkpt>
<trkpt lat="43.54717" lon="5.31211">
<ele>202.3</ele>
<time>2012-03-24T12:57:18.000Z</time>
</trkpt>
<trkpt lat="43.54717" lon="5.31218">
<ele>202.9</ele>
<time>2012-03-24T12:57:19.000Z</time>
</trkpt>
<trkpt lat="43.54717" lon="5.31225">
<ele>203.3</ele>
<time>2012-03-24T12:57:20.000Z</time>
</trkpt>
<trkpt lat="43.54716" lon="5.31233">
<ele>203.3</ele>
<time>2012-03-24T12:57:21.000Z</time>
</trkpt>
<trkpt lat="43.54716" lon="5.3124">
<ele>203.5</ele>
<time>2012-03-24T12:57:22.000Z</time>
</trkpt>
<trkpt lat="43.54716" lon="5.31247">
<ele>203.7</ele>
<time>2012-03-24T12:57:23.000Z</time>
</trkpt>
<trkpt lat="43.54716" lon="5.31254">
<ele>203.5</ele>
<time>2012-03-24T12:57:24.000Z</time>
</trkpt>
<trkpt lat="43.54716" lon="5.3126">
<ele>203.5</ele>
<time>2012-03-24T12:57:25.000Z</time>
</trkpt>
<trkpt lat="43.54716" lon="5.31268">
<ele>204.1</ele>
<time>2012-03-24T12:57:26.000Z</time>
</trkpt>
<trkpt lat="43.54716" lon="5.31275">
<ele>204.3</ele>
<time>2012-03-24T12:57:27.000Z</time>
</trkpt>
<trkpt lat="43.54716" lon="5.31282">
<ele>204.5</ele>
<time>2012-03-24T12:57:28.000Z</time>
</trkpt>
<trkpt lat="43.54717" lon="5.31289">
<ele>204.6</ele>
<time>2012-03-24T12:57:29.000Z</time>
</trkpt>
<trkpt lat="43.54717" lon="5.31296">
<ele>204.5</ele>
<time>2012-03-24T12:57:30.000Z</time>
</trkpt>
<trkpt lat="43.54717" lon="5.31304">
<ele>204.4</ele>
<time>2012-03-24T12:57:31.000Z</time>
</trkpt>
<trkpt lat="43.54717" lon="5.31312">
<ele>204.8</ele>
<time>2012-03-24T12:57:32.000Z</time>
</trkpt>
<trkpt lat="43.54718" lon="5.31319">
<ele>204.8</ele>
<time>2012-03-24T12:57:33.000Z</time>
</trkpt>
<trkpt lat="43.54718" lon="5.31326">
<ele>204.8</ele>
<time>2012-03-24T12:57:34.000Z</time>
</trkpt>
<trkpt lat="43.54718" lon="5.31334">
<ele>205</ele>
<time>2012-03-24T12:57:35.000Z</time>
</trkpt>
<trkpt lat="43.54718" lon="5.31342">
<ele>204.8</ele>
<time>2012-03-24T12:57:36.000Z</time>
</trkpt>
<trkpt lat="43.54718" lon="5.31349">
<ele>204.9</ele>
<time>2012-03-24T12:57:37.000Z</time>
</trkpt>
<trkpt lat="43.54718" lon="5.31357">
<ele>205</ele>
<time>2012-03-24T12:57:38.000Z</time>
</trkpt>
<trkpt lat="43.54718" lon="5.31365">
<ele>205</ele>
<time>2012-03-24T12:57:39.000Z</time>
</trkpt>
<trkpt lat="43.54718" lon="5.31373">
<ele>204.9</ele>
<time>2012-03-24T12:57:40.000Z</time>
</trkpt>
<trkpt lat="43.54718" lon="5.31381">
<ele>204.9</ele>
<time>2012-03-24T12:57:41.000Z</time>
</trkpt>
<trkpt lat="43.54718" lon="5.31389">
<ele>204.5</ele>
<time>2012-03-24T12:57:42.000Z</time>
</trkpt>
<trkpt lat="43.54718" lon="5.31397">
<ele>204.5</ele>
<time>2012-03-24T12:57:43.000Z</time>
</trkpt>
<trkpt lat="43.54718" lon="5.31405">
<ele>203.8</ele>
<time>2012-03-24T12:57:44.000Z</time>
</trkpt>
<trkpt lat="43.54718" lon="5.31413">
<ele>203.9</ele>
<time>2012-03-24T12:57:45.000Z</time>
</trkpt>
<trkpt lat="43.54717" lon="5.31421">
<ele>204.1</ele>
<time>2012-03-24T12:57:46.000Z</time>
</trkpt>
<trkpt lat="43.54716" lon="5.31429">
<ele>204.3</ele>
<time>2012-03-24T12:57:47.000Z</time>
</trkpt>
<trkpt lat="43.54716" lon="5.31436">
<ele>204.4</ele>
<time>2012-03-24T12:57:48.000Z</time>
</trkpt>
<trkpt lat="43.54715" lon="5.31444">
<ele>204.5</ele>
<time>2012-03-24T12:57:49.000Z</time>
</trkpt>
<trkpt lat="43.54714" lon="5.31452">
<ele>204.7</ele>
<time>2012-03-24T12:57:50.000Z</time>
</trkpt>
<trkpt lat="43.54712" lon="5.3146">
<ele>204.4</ele>
<time>2012-03-24T12:57:51.000Z</time>
</trkpt>
<trkpt lat="43.54711" lon="5.31467">
<ele>204.4</ele>
<time>2012-03-24T12:57:52.000Z</time>
</trkpt>
<trkpt lat="43.5471" lon="5.31475">
<ele>205</ele>
<time>2012-03-24T12:57:53.000Z</time>
</trkpt>
<trkpt lat="43.54709" lon="5.31482">
<ele>205.5</ele>
<time>2012-03-24T12:57:54.000Z</time>
</trkpt>
<trkpt lat="43.54707" lon="5.3149">
<ele>205.6</ele>
<time>2012-03-24T12:57:55.000Z</time>
</trkpt>
<trkpt lat="43.54706" lon="5.31497">
<ele>205.5</ele>
<time>2012-03-24T12:57:56.000Z</time>
</trkpt>
<trkpt lat="43.54705" lon="5.31505">
<ele>205.8</ele>
<time>2012-03-24T12:57:57.000Z</time>
</trkpt>
<trkpt lat="43.54703" lon="5.31512">
<ele>206</ele>
<time>2012-03-24T12:57:58.000Z</time>
</trkpt>
<trkpt lat="43.54702" lon="5.3152">
<ele>205.9</ele>
<time>2012-03-24T12:57:59.000Z</time>
</trkpt>
<trkpt lat="43.547" lon="5.31528">
<ele>206</ele>
<time>2012-03-24T12:58:00.000Z</time>
</trkpt>
<trkpt lat="43.54699" lon="5.31535">
<ele>206.3</ele>
<time>2012-03-24T12:58:01.000Z</time>
</trkpt>
<trkpt lat="43.54697" lon="5.31542">
<ele>207.6</ele>
<time>2012-03-24T12:58:02.000Z</time>
</trkpt>
<trkpt lat="43.54694" lon="5.31546">
<ele>208.1</ele>
<time>2012-03-24T12:58:03.000Z</time>
</trkpt>
<trkpt lat="43.5469" lon="5.31552">
<ele>209</ele>
<time>2012-03-24T12:58:04.000Z</time>
</trkpt>
<trkpt lat="43.54693" lon="5.31564">
<ele>208.7</ele>
<time>2012-03-24T12:58:05.000Z</time>
</trkpt>
<trkpt lat="43.54692" lon="5.31572">
<ele>209</ele>
<time>2012-03-24T12:58:06.000Z</time>
</trkpt>
<trkpt lat="43.5469" lon="5.3158">
<ele>209.9</ele>
<time>2012-03-24T12:58:07.000Z</time>
</trkpt>
<trkpt lat="43.54689" lon="5.31587">
<ele>210.8</ele>
<time>2012-03-24T12:58:08.000Z</time>
</trkpt>
<trkpt lat="43.54688" lon="5.31596">
<ele>210.8</ele>
<time>2012-03-24T12:58:09.000Z</time>
</trkpt>
<trkpt lat="43.54686" lon="5.31604">
<ele>210.5</ele>
<time>2012-03-24T12:58:10.000Z</time>
</trkpt>
<trkpt lat="43.54685" lon="5.31612">
<ele>212.2</ele>
<time>2012-03-24T12:58:11.000Z</time>
</trkpt>
<trkpt lat="43.54684" lon="5.31619">
<ele>211.8</ele>
<time>2012-03-24T12:58:12.000Z</time>
</trkpt>
<trkpt lat="43.54682" lon="5.31626">
<ele>212</ele>
<time>2012-03-24T12:58:13.000Z</time>
</trkpt>
<trkpt lat="43.54681" lon="5.31634">
<ele>212</ele>
<time>2012-03-24T12:58:14.000Z</time>
</trkpt>
<trkpt lat="43.5468" lon="5.31641">
<ele>212</ele>
<time>2012-03-24T12:58:15.000Z</time>
</trkpt>
<trkpt lat="43.54679" lon="5.31649">
<ele>212.2</ele>
<time>2012-03-24T12:58:16.000Z</time>
</trkpt>
<trkpt lat="43.54678" lon="5.31656">
<ele>212.4</ele>
<time>2012-03-24T12:58:17.000Z</time>
</trkpt>
<trkpt lat="43.54676" lon="5.31664">
<ele>212.4</ele>
<time>2012-03-24T12:58:18.000Z</time>
</trkpt>
<trkpt lat="43.54674" lon="5.31671">
<ele>212.5</ele>
<time>2012-03-24T12:58:19.000Z</time>
</trkpt>
<trkpt lat="43.54673" lon="5.31678">
<ele>212.6</ele>
<time>2012-03-24T12:58:20.000Z</time>
</trkpt>
<trkpt lat="43.54672" lon="5.31686">
<ele>212.8</ele>
<time>2012-03-24T12:58:21.000Z</time>
</trkpt>
<trkpt lat="43.54672" lon="5.31694">
<ele>213.1</ele>
<time>2012-03-24T12:58:22.000Z</time>
</trkpt>
<trkpt lat="43.54671" lon="5.31702">
<ele>213</ele>
<time>2012-03-24T12:58:23.000Z</time>
</trkpt>
<trkpt lat="43.5467" lon="5.31709">
<ele>212.8</ele>
<time>2012-03-24T12:58:24.000Z</time>
</trkpt>
<trkpt lat="43.5467" lon="5.31717">
<ele>212.6</ele>
<time>2012-03-24T12:58:25.000Z</time>
</trkpt>
<trkpt lat="43.54669" lon="5.31725">
<ele>212.7</ele>
<time>2012-03-24T12:58:26.000Z</time>
</trkpt>
<trkpt lat="43.54669" lon="5.31734">
<ele>212.1</ele>
<time>2012-03-24T12:58:27.000Z</time>
</trkpt>
<trkpt lat="43.54669" lon="5.31742">
<ele>212.4</ele>
<time>2012-03-24T12:58:28.000Z</time>
</trkpt>
<trkpt lat="43.54669" lon="5.3175">
<ele>212.3</ele>
<time>2012-03-24T12:58:29.000Z</time>
</trkpt>
<trkpt lat="43.54669" lon="5.31759">
<ele>212.2</ele>
<time>2012-03-24T12:58:30.000Z</time>
</trkpt>
<trkpt lat="43.54669" lon="5.31767">
<ele>212.4</ele>
<time>2012-03-24T12:58:31.000Z</time>
</trkpt>
<trkpt lat="43.5467" lon="5.31776">
<ele>212.6</ele>
<time>2012-03-24T12:58:32.000Z</time>
</trkpt>
<trkpt lat="43.5467" lon="5.31784">
<ele>212.3</ele>
<time>2012-03-24T12:58:33.000Z</time>
</trkpt>
<trkpt lat="43.5467" lon="5.31792">
<ele>212.3</ele>
<time>2012-03-24T12:58:34.000Z</time>
</trkpt>
<trkpt lat="43.5467" lon="5.318">
<ele>212.3</ele>
<time>2012-03-24T12:58:35.000Z</time>
</trkpt>
<trkpt lat="43.54671" lon="5.31809">
<ele>212.2</ele>
<time>2012-03-24T12:58:36.000Z</time>
</trkpt>
<trkpt lat="43.54671" lon="5.31818">
<ele>212.3</ele>
<time>2012-03-24T12:58:37.000Z</time>
</trkpt>
<trkpt lat="43.5467" lon="5.31827">
<ele>212.1</ele>
<time>2012-03-24T12:58:38.000Z</time>
</trkpt>
<trkpt lat="43.5467" lon="5.31835">
<ele>212</ele>
<time>2012-03-24T12:58:39.000Z</time>
</trkpt>
<trkpt lat="43.54671" lon="5.31845">
<ele>212.2</ele>
<time>2012-03-24T12:58:40.000Z</time>
</trkpt>
<trkpt lat="43.54672" lon="5.31854">
<ele>212.4</ele>
<time>2012-03-24T12:58:41.000Z</time>
</trkpt>
<trkpt lat="43.54673" lon="5.31861">
<ele>213.1</ele>
<time>2012-03-24T12:58:42.000Z</time>
</trkpt>
<trkpt lat="43.54675" lon="5.31871">
<ele>213.5</ele>
<time>2012-03-24T12:58:43.000Z</time>
</trkpt>
<trkpt lat="43.54675" lon="5.31879">
<ele>213.9</ele>
<time>2012-03-24T12:58:44.000Z</time>
</trkpt>
<trkpt lat="43.54676" lon="5.31888">
<ele>214</ele>
<time>2012-03-24T12:58:45.000Z</time>
</trkpt>
<trkpt lat="43.54675" lon="5.31896">
<ele>213.7</ele>
<time>2012-03-24T12:58:46.000Z</time>
</trkpt>
<trkpt lat="43.54675" lon="5.31905">
<ele>214.1</ele>
<time>2012-03-24T12:58:47.000Z</time>
</trkpt>
<trkpt lat="43.54675" lon="5.31912">
<ele>214.7</ele>
<time>2012-03-24T12:58:48.000Z</time>
</trkpt>
<trkpt lat="43.54675" lon="5.31921">
<ele>214.6</ele>
<time>2012-03-24T12:58:49.000Z</time>
</trkpt>
<trkpt lat="43.54675" lon="5.31929">
<ele>214.5</ele>
<time>2012-03-24T12:58:50.000Z</time>
</trkpt>
<trkpt lat="43.54676" lon="5.31937">
<ele>214.6</ele>
<time>2012-03-24T12:58:51.000Z</time>
</trkpt>
<trkpt lat="43.54676" lon="5.31945">
<ele>214.7</ele>
<time>2012-03-24T12:58:52.000Z</time>
</trkpt>
<trkpt lat="43.54676" lon="5.31953">
<ele>214.7</ele>
<time>2012-03-24T12:58:53.000Z</time>
</trkpt>
<trkpt lat="43.54677" lon="5.31961">
<ele>214.9</ele>
<time>2012-03-24T12:58:54.000Z</time>
</trkpt>
<trkpt lat="43.54677" lon="5.31969">
<ele>215</ele>
<time>2012-03-24T12:58:55.000Z</time>
</trkpt>
<trkpt lat="43.54678" lon="5.31977">
<ele>215.4</ele>
<time>2012-03-24T12:58:56.000Z</time>
</trkpt>
<trkpt lat="43.54678" lon="5.31985">
<ele>215.5</ele>
<time>2012-03-24T12:58:57.000Z</time>
</trkpt>
<trkpt lat="43.54678" lon="5.31994">
<ele>215.3</ele>
<time>2012-03-24T12:58:58.000Z</time>
</trkpt>
<trkpt lat="43.54678" lon="5.32002">
<ele>215.7</ele>
<time>2012-03-24T12:58:59.000Z</time>
</trkpt>
<trkpt lat="43.54679" lon="5.3201">
<ele>215.6</ele>
<time>2012-03-24T12:59:00.000Z</time>
</trkpt>
<trkpt lat="43.54679" lon="5.32019">
<ele>215.5</ele>
<time>2012-03-24T12:59:01.000Z</time>
</trkpt>
<trkpt lat="43.5468" lon="5.32028">
<ele>215.2</ele>
<time>2012-03-24T12:59:02.000Z</time>
</trkpt>
<trkpt lat="43.5468" lon="5.32036">
<ele>214.6</ele>
<time>2012-03-24T12:59:03.000Z</time>
</trkpt>
<trkpt lat="43.5468" lon="5.32045">
<ele>214.8</ele>
<time>2012-03-24T12:59:04.000Z</time>
</trkpt>
<trkpt lat="43.5468" lon="5.32053">
<ele>215.1</ele>
<time>2012-03-24T12:59:05.000Z</time>
</trkpt>
<trkpt lat="43.54681" lon="5.32061">
<ele>215.1</ele>
<time>2012-03-24T12:59:06.000Z</time>
</trkpt>
<trkpt lat="43.54681" lon="5.32069">
<ele>215.3</ele>
<time>2012-03-24T12:59:07.000Z</time>
</trkpt>
<trkpt lat="43.54681" lon="5.32077">
<ele>215</ele>
<time>2012-03-24T12:59:08.000Z</time>
</trkpt>
<trkpt lat="43.54682" lon="5.32085">
<ele>214.8</ele>
<time>2012-03-24T12:59:09.000Z</time>
</trkpt>
<trkpt lat="43.54682" lon="5.32093">
<ele>214.6</ele>
<time>2012-03-24T12:59:10.000Z</time>
</trkpt>
<trkpt lat="43.54682" lon="5.32101">
<ele>214.6</ele>
<time>2012-03-24T12:59:11.000Z</time>
</trkpt>
<trkpt lat="43.54682" lon="5.32109">
<ele>214.1</ele>
<time>2012-03-24T12:59:12.000Z</time>
</trkpt>
<trkpt lat="43.54682" lon="5.32117">
<ele>213.6</ele>
<time>2012-03-24T12:59:13.000Z</time>
</trkpt>
<trkpt lat="43.54683" lon="5.32125">
<ele>213.6</ele>
<time>2012-03-24T12:59:14.000Z</time>
</trkpt>
<trkpt lat="43.54683" lon="5.32133">
<ele>213.6</ele>
<time>2012-03-24T12:59:15.000Z</time>
</trkpt>
<trkpt lat="43.54683" lon="5.32141">
<ele>213.4</ele>
<time>2012-03-24T12:59:16.000Z</time>
</trkpt>
<trkpt lat="43.54684" lon="5.3215">
<ele>213.3</ele>
<time>2012-03-24T12:59:17.000Z</time>
</trkpt>
<trkpt lat="43.54684" lon="5.32158">
<ele>213.3</ele>
<time>2012-03-24T12:59:18.000Z</time>
</trkpt>
<trkpt lat="43.54684" lon="5.32166">
<ele>212.8</ele>
<time>2012-03-24T12:59:19.000Z</time>
</trkpt>
<trkpt lat="43.54684" lon="5.32175">
<ele>213</ele>
<time>2012-03-24T12:59:20.000Z</time>
</trkpt>
<trkpt lat="43.54684" lon="5.32183">
<ele>212.7</ele>
<time>2012-03-24T12:59:21.000Z</time>
</trkpt>
<trkpt lat="43.54684" lon="5.32192">
<ele>212.6</ele>
<time>2012-03-24T12:59:22.000Z</time>
</trkpt>
<trkpt lat="43.54684" lon="5.32201">
<ele>212.1</ele>
<time>2012-03-24T12:59:23.000Z</time>
</trkpt>
<trkpt lat="43.54685" lon="5.3221">
<ele>212</ele>
<time>2012-03-24T12:59:24.000Z</time>
</trkpt>
<trkpt lat="43.54685" lon="5.32219">
<ele>211.7</ele>
<time>2012-03-24T12:59:25.000Z</time>
</trkpt>
<trkpt lat="43.54684" lon="5.32229">
<ele>211.4</ele>
<time>2012-03-24T12:59:26.000Z</time>
</trkpt>
<trkpt lat="43.54684" lon="5.32238">
<ele>211.3</ele>
<time>2012-03-24T12:59:27.000Z</time>
</trkpt>
<trkpt lat="43.54684" lon="5.32248">
<ele>211.2</ele>
<time>2012-03-24T12:59:28.000Z</time>
</trkpt>
<trkpt lat="43.54684" lon="5.32257">
<ele>211.2</ele>
<time>2012-03-24T12:59:29.000Z</time>
</trkpt>
<trkpt lat="43.54683" lon="5.32266">
<ele>211.1</ele>
<time>2012-03-24T12:59:30.000Z</time>
</trkpt>
<trkpt lat="43.54683" lon="5.32275">
<ele>211.1</ele>
<time>2012-03-24T12:59:31.000Z</time>
</trkpt>
<trkpt lat="43.54682" lon="5.32285">
<ele>210.7</ele>
<time>2012-03-24T12:59:32.000Z</time>
</trkpt>
<trkpt lat="43.54682" lon="5.32294">
<ele>210.7</ele>
<time>2012-03-24T12:59:33.000Z</time>
</trkpt>
<trkpt lat="43.54681" lon="5.32304">
<ele>210.7</ele>
<time>2012-03-24T12:59:34.000Z</time>
</trkpt>
<trkpt lat="43.5468" lon="5.32313">
<ele>210.4</ele>
<time>2012-03-24T12:59:35.000Z</time>
</trkpt>
<trkpt lat="43.5468" lon="5.32323">
<ele>210.4</ele>
<time>2012-03-24T12:59:36.000Z</time>
</trkpt>
<trkpt lat="43.54679" lon="5.32332">
<ele>210.3</ele>
<time>2012-03-24T12:59:37.000Z</time>
</trkpt>
<trkpt lat="43.54678" lon="5.32342">
<ele>210.4</ele>
<time>2012-03-24T12:59:38.000Z</time>
</trkpt>
<trkpt lat="43.54676" lon="5.32352">
<ele>210.3</ele>
<time>2012-03-24T12:59:39.000Z</time>
</trkpt>
<trkpt lat="43.54676" lon="5.32362">
<ele>209.9</ele>
<time>2012-03-24T12:59:40.000Z</time>
</trkpt>
<trkpt lat="43.54675" lon="5.32372">
<ele>209.5</ele>
<time>2012-03-24T12:59:41.000Z</time>
</trkpt>
<trkpt lat="43.54674" lon="5.32383">
<ele>209.5</ele>
<time>2012-03-24T12:59:42.000Z</time>
</trkpt>
<trkpt lat="43.54674" lon="5.32393">
<ele>209.6</ele>
<time>2012-03-24T12:59:43.000Z</time>
</trkpt>
<trkpt lat="43.54672" lon="5.32403">
<ele>209.1</ele>
<time>2012-03-24T12:59:44.000Z</time>
</trkpt>
<trkpt lat="43.54672" lon="5.32414">
<ele>208.7</ele>
<time>2012-03-24T12:59:45.000Z</time>
</trkpt>
<trkpt lat="43.54671" lon="5.32424">
<ele>208.5</ele>
<time>2012-03-24T12:59:46.000Z</time>
</trkpt>
<trkpt lat="43.5467" lon="5.32435">
<ele>208.5</ele>
<time>2012-03-24T12:59:47.000Z</time>
</trkpt>
<trkpt lat="43.54669" lon="5.32446">
<ele>208.1</ele>
<time>2012-03-24T12:59:48.000Z</time>
</trkpt>
<trkpt lat="43.54668" lon="5.32457">
<ele>207.9</ele>
<time>2012-03-24T12:59:49.000Z</time>
</trkpt>
<trkpt lat="43.54667" lon="5.32468">
<ele>207.7</ele>
<time>2012-03-24T12:59:50.000Z</time>
</trkpt>
<trkpt lat="43.54666" lon="5.32479">
<ele>207.4</ele>
<time>2012-03-24T12:59:51.000Z</time>
</trkpt>
<trkpt lat="43.54666" lon="5.32491">
<ele>207.3</ele>
<time>2012-03-24T12:59:52.000Z</time>
</trkpt>
<trkpt lat="43.54664" lon="5.32502">
<ele>207.1</ele>
<time>2012-03-24T12:59:53.000Z</time>
</trkpt>
<trkpt lat="43.54664" lon="5.32513">
<ele>206.7</ele>
<time>2012-03-24T12:59:54.000Z</time>
</trkpt>
<trkpt lat="43.54663" lon="5.32524">
<ele>206.6</ele>
<time>2012-03-24T12:59:55.000Z</time>
</trkpt>
<trkpt lat="43.54662" lon="5.32534">
<ele>206.4</ele>
<time>2012-03-24T12:59:56.000Z</time>
</trkpt>
<trkpt lat="43.54661" lon="5.32543">
<ele>206.4</ele>
<time>2012-03-24T12:59:57.000Z</time>
</trkpt>
<trkpt lat="43.5466" lon="5.32552">
<ele>206.4</ele>
<time>2012-03-24T12:59:58.000Z</time>
</trkpt>
<trkpt lat="43.54659" lon="5.32561">
<ele>206.6</ele>
<time>2012-03-24T12:59:59.000Z</time>
</trkpt>
<trkpt lat="43.54659" lon="5.32569">
<ele>206.2</ele>
<time>2012-03-24T13:00:00.000Z</time>
</trkpt>
<trkpt lat="43.54658" lon="5.32577">
<ele>206.1</ele>
<time>2012-03-24T13:00:01.000Z</time>
</trkpt>
<trkpt lat="43.54657" lon="5.32585">
<ele>205.9</ele>
<time>2012-03-24T13:00:02.000Z</time>
</trkpt>
<trkpt lat="43.54657" lon="5.32594">
<ele>205.7</ele>
<time>2012-03-24T13:00:03.000Z</time>
</trkpt>
<trkpt lat="43.54656" lon="5.32602">
<ele>205.6</ele>
<time>2012-03-24T13:00:04.000Z</time>
</trkpt>
<trkpt lat="43.54656" lon="5.32611">
<ele>205.8</ele>
<time>2012-03-24T13:00:05.000Z</time>
</trkpt>
<trkpt lat="43.54656" lon="5.32619">
<ele>205.8</ele>
<time>2012-03-24T13:00:06.000Z</time>
</trkpt>
<trkpt lat="43.54655" lon="5.32627">
<ele>205.6</ele>
<time>2012-03-24T13:00:07.000Z</time>
</trkpt>
<trkpt lat="43.54656" lon="5.32635">
<ele>205.6</ele>
<time>2012-03-24T13:00:08.000Z</time>
</trkpt>
<trkpt lat="43.54661" lon="5.32644">
<ele>205.8</ele>
<time>2012-03-24T13:00:10.000Z</time>
</trkpt>
<trkpt lat="43.5467" lon="5.32646">
<ele>206.2</ele>
<time>2012-03-24T13:00:12.000Z</time>
</trkpt>
<trkpt lat="43.54675" lon="5.32647">
<ele>206.5</ele>
<time>2012-03-24T13:00:13.000Z</time>
</trkpt>
<trkpt lat="43.5468" lon="5.32649">
<ele>206.3</ele>
<time>2012-03-24T13:00:14.000Z</time>
</trkpt>
<trkpt lat="43.54686" lon="5.3265">
<ele>206</ele>
<time>2012-03-24T13:00:15.000Z</time>
</trkpt>
<trkpt lat="43.54691" lon="5.32651">
<ele>206.5</ele>
<time>2012-03-24T13:00:16.000Z</time>
</trkpt>
<trkpt lat="43.54696" lon="5.32653">
<ele>206.6</ele>
<time>2012-03-24T13:00:17.000Z</time>
</trkpt>
<trkpt lat="43.54702" lon="5.32653">
<ele>206.9</ele>
<time>2012-03-24T13:00:18.000Z</time>
</trkpt>
<trkpt lat="43.54707" lon="5.32652">
<ele>207.1</ele>
<time>2012-03-24T13:00:19.000Z</time>
</trkpt>
<trkpt lat="43.54712" lon="5.32652">
<ele>207.1</ele>
<time>2012-03-24T13:00:20.000Z</time>
</trkpt>
<trkpt lat="43.54717" lon="5.32652">
<ele>207.2</ele>
<time>2012-03-24T13:00:21.000Z</time>
</trkpt>
<trkpt lat="43.54722" lon="5.32653">
<ele>207.2</ele>
<time>2012-03-24T13:00:22.000Z</time>
</trkpt>
<trkpt lat="43.5473" lon="5.32656">
<ele>207.2</ele>
<time>2012-03-24T13:00:24.000Z</time>
</trkpt>
<trkpt lat="43.54735" lon="5.32656">
<ele>207.3</ele>
<time>2012-03-24T13:00:25.000Z</time>
</trkpt>
<trkpt lat="43.54742" lon="5.32659">
<ele>207.6</ele>
<time>2012-03-24T13:00:27.000Z</time>
</trkpt>
<trkpt lat="43.5475" lon="5.32662">
<ele>207.6</ele>
<time>2012-03-24T13:00:29.000Z</time>
</trkpt>
<trkpt lat="43.54757" lon="5.32661">
<ele>207.5</ele>
<time>2012-03-24T13:00:30.000Z</time>
</trkpt>
<trkpt lat="43.54766" lon="5.3266">
<ele>211.6</ele>
<time>2012-03-24T13:00:31.000Z</time>
</trkpt>
<trkpt lat="43.54772" lon="5.32659">
<ele>211.4</ele>
<time>2012-03-24T13:00:32.000Z</time>
</trkpt>
<trkpt lat="43.54777" lon="5.32661">
<ele>211.9</ele>
<time>2012-03-24T13:00:33.000Z</time>
</trkpt>
<trkpt lat="43.54782" lon="5.32661">
<ele>212.4</ele>
<time>2012-03-24T13:00:34.000Z</time>
</trkpt>
<trkpt lat="43.54788" lon="5.32663">
<ele>212.9</ele>
<time>2012-03-24T13:00:36.000Z</time>
</trkpt>
<trkpt lat="43.5479" lon="5.3267">
<ele>212.5</ele>
<time>2012-03-24T13:00:38.000Z</time>
</trkpt>
<trkpt lat="43.5479" lon="5.32678">
<ele>211.8</ele>
<time>2012-03-24T13:00:40.000Z</time>
</trkpt>
<trkpt lat="43.54786" lon="5.32688">
<ele>211.4</ele>
<time>2012-03-24T13:00:42.000Z</time>
</trkpt>
<trkpt lat="43.5478" lon="5.32697">
<ele>211.3</ele>
<time>2012-03-24T13:00:44.000Z</time>
</trkpt>
<trkpt lat="43.54776" lon="5.32703">
<ele>211.3</ele>
<time>2012-03-24T13:00:45.000Z</time>
</trkpt>
<trkpt lat="43.54771" lon="5.32713">
<ele>211.8</ele>
<time>2012-03-24T13:00:47.000Z</time>
</trkpt>
<trkpt lat="43.54767" lon="5.32718">
<ele>211.6</ele>
<time>2012-03-24T13:00:48.000Z</time>
</trkpt>
<trkpt lat="43.54764" lon="5.32723">
<ele>211.7</ele>
<time>2012-03-24T13:00:49.000Z</time>
</trkpt>
<trkpt lat="43.54761" lon="5.32728">
<ele>211.7</ele>
<time>2012-03-24T13:00:50.000Z</time>
</trkpt>
<trkpt lat="43.54757" lon="5.32734">
<ele>211.7</ele>
<time>2012-03-24T13:00:51.000Z</time>
</trkpt>
<trkpt lat="43.54753" lon="5.3274">
<ele>211.9</ele>
<time>2012-03-24T13:00:52.000Z</time>
</trkpt>
<trkpt lat="43.5475" lon="5.32746">
<ele>212</ele>
<time>2012-03-24T13:00:53.000Z</time>
</trkpt>
<trkpt lat="43.54746" lon="5.32753">
<ele>211.9</ele>
<time>2012-03-24T13:00:54.000Z</time>
</trkpt>
<trkpt lat="43.54742" lon="5.32759">
<ele>211.8</ele>
<time>2012-03-24T13:00:55.000Z</time>
</trkpt>
<trkpt lat="43.54737" lon="5.32767">
<ele>212</ele>
<time>2012-03-24T13:00:56.000Z</time>
</trkpt>
<trkpt lat="43.54733" lon="5.32774">
<ele>212.1</ele>
<time>2012-03-24T13:00:57.000Z</time>
</trkpt>
<trkpt lat="43.54729" lon="5.3278">
<ele>212.4</ele>
<time>2012-03-24T13:00:58.000Z</time>
</trkpt>
<trkpt lat="43.54724" lon="5.32788">
<ele>212.4</ele>
<time>2012-03-24T13:00:59.000Z</time>
</trkpt>
<trkpt lat="43.5472" lon="5.32796">
<ele>212.1</ele>
<time>2012-03-24T13:01:00.000Z</time>
</trkpt>
<trkpt lat="43.54716" lon="5.32803">
<ele>211.8</ele>
<time>2012-03-24T13:01:01.000Z</time>
</trkpt>
<trkpt lat="43.5471" lon="5.32812">
<ele>211.9</ele>
<time>2012-03-24T13:01:02.000Z</time>
</trkpt>
<trkpt lat="43.54706" lon="5.3282">
<ele>211.2</ele>
<time>2012-03-24T13:01:03.000Z</time>
</trkpt>
<trkpt lat="43.547" lon="5.32828">
<ele>211.1</ele>
<time>2012-03-24T13:01:04.000Z</time>
</trkpt>
<trkpt lat="43.54696" lon="5.32836">
<ele>211.1</ele>
<time>2012-03-24T13:01:05.000Z</time>
</trkpt>
<trkpt lat="43.54692" lon="5.32843">
<ele>210.7</ele>
<time>2012-03-24T13:01:06.000Z</time>
</trkpt>
<trkpt lat="43.54688" lon="5.3285">
<ele>210.5</ele>
<time>2012-03-24T13:01:07.000Z</time>
</trkpt>
<trkpt lat="43.54683" lon="5.32857">
<ele>210.6</ele>
<time>2012-03-24T13:01:08.000Z</time>
</trkpt>
<trkpt lat="43.54679" lon="5.32865">
<ele>210.5</ele>
<time>2012-03-24T13:01:09.000Z</time>
</trkpt>
<trkpt lat="43.54676" lon="5.32871">
<ele>210.1</ele>
<time>2012-03-24T13:01:10.000Z</time>
</trkpt>
<trkpt lat="43.54672" lon="5.3288">
<ele>210.1</ele>
<time>2012-03-24T13:01:11.000Z</time>
</trkpt>
<trkpt lat="43.54668" lon="5.32887">
<ele>209.8</ele>
<time>2012-03-24T13:01:12.000Z</time>
</trkpt>
<trkpt lat="43.54662" lon="5.32895">
<ele>209.8</ele>
<time>2012-03-24T13:01:13.000Z</time>
</trkpt>
<trkpt lat="43.54657" lon="5.32904">
<ele>209.5</ele>
<time>2012-03-24T13:01:14.000Z</time>
</trkpt>
<trkpt lat="43.54652" lon="5.32913">
<ele>208.7</ele>
<time>2012-03-24T13:01:15.000Z</time>
</trkpt>
<trkpt lat="43.54649" lon="5.32924">
<ele>207.5</ele>
<time>2012-03-24T13:01:16.000Z</time>
</trkpt>
<trkpt lat="43.54646" lon="5.32934">
<ele>206.1</ele>
<time>2012-03-24T13:01:17.000Z</time>
</trkpt>
<trkpt lat="43.54642" lon="5.32956">
<ele>205.7</ele>
<time>2012-03-24T13:01:19.000Z</time>
</trkpt>
<trkpt lat="43.5464" lon="5.32966">
<ele>206</ele>
<time>2012-03-24T13:01:20.000Z</time>
</trkpt>
<trkpt lat="43.54638" lon="5.32977">
<ele>205.8</ele>
<time>2012-03-24T13:01:21.000Z</time>
</trkpt>
<trkpt lat="43.54637" lon="5.32988">
<ele>205.9</ele>
<time>2012-03-24T13:01:22.000Z</time>
</trkpt>
<trkpt lat="43.54636" lon="5.32997">
<ele>205.8</ele>
<time>2012-03-24T13:01:23.000Z</time>
</trkpt>
<trkpt lat="43.54635" lon="5.33006">
<ele>205.9</ele>
<time>2012-03-24T13:01:24.000Z</time>
</trkpt>
<trkpt lat="43.54634" lon="5.33012">
<ele>205.9</ele>
<time>2012-03-24T13:01:25.000Z</time>
</trkpt>
<trkpt lat="43.54633" lon="5.33022">
<ele>205.2</ele>
<time>2012-03-24T13:01:26.000Z</time>
</trkpt>
<trkpt lat="43.54633" lon="5.33031">
<ele>204.9</ele>
<time>2012-03-24T13:01:27.000Z</time>
</trkpt>
<trkpt lat="43.54637" lon="5.33036">
<ele>205.3</ele>
<time>2012-03-24T13:01:28.000Z</time>
</trkpt>
<trkpt lat="43.5465" lon="5.33036">
<ele>207</ele>
<time>2012-03-24T13:01:30.000Z</time>
</trkpt>
<trkpt lat="43.54656" lon="5.33037">
<ele>205.3</ele>
<time>2012-03-24T13:01:33.000Z</time>
</trkpt>
<trkpt lat="43.54659" lon="5.33032">
<ele>206.2</ele>
<time>2012-03-24T13:01:34.000Z</time>
</trkpt>
<trkpt lat="43.54662" lon="5.33027">
<ele>206.3</ele>
<time>2012-03-24T13:01:35.000Z</time>
</trkpt>
<trkpt lat="43.54665" lon="5.33022">
<ele>205.8</ele>
<time>2012-03-24T13:01:36.000Z</time>
</trkpt>
<trkpt lat="43.54668" lon="5.33017">
<ele>205.5</ele>
<time>2012-03-24T13:01:37.000Z</time>
</trkpt>
<trkpt lat="43.54671" lon="5.33012">
<ele>205.3</ele>
<time>2012-03-24T13:01:38.000Z</time>
</trkpt>
<trkpt lat="43.54674" lon="5.33006">
<ele>205.8</ele>
<time>2012-03-24T13:01:39.000Z</time>
</trkpt>
<trkpt lat="43.54678" lon="5.33001">
<ele>205.6</ele>
<time>2012-03-24T13:01:40.000Z</time>
</trkpt>
<trkpt lat="43.54681" lon="5.32995">
<ele>205.2</ele>
<time>2012-03-24T13:01:41.000Z</time>
</trkpt>
<trkpt lat="43.54685" lon="5.3299">
<ele>205.4</ele>
<time>2012-03-24T13:01:42.000Z</time>
</trkpt>
<trkpt lat="43.54688" lon="5.32985">
<ele>205.5</ele>
<time>2012-03-24T13:01:43.000Z</time>
</trkpt>
<trkpt lat="43.54692" lon="5.32979">
<ele>205.6</ele>
<time>2012-03-24T13:01:44.000Z</time>
</trkpt>
<trkpt lat="43.54696" lon="5.32974">
<ele>205.4</ele>
<time>2012-03-24T13:01:45.000Z</time>
</trkpt>
<trkpt lat="43.54699" lon="5.32969">
<ele>205.6</ele>
<time>2012-03-24T13:01:46.000Z</time>
</trkpt>
<trkpt lat="43.54702" lon="5.32964">
<ele>205.3</ele>
<time>2012-03-24T13:01:47.000Z</time>
</trkpt>
<trkpt lat="43.54709" lon="5.32956">
<ele>206.2</ele>
<time>2012-03-24T13:01:49.000Z</time>
</trkpt>
<trkpt lat="43.54712" lon="5.32949">
<ele>206.4</ele>
<time>2012-03-24T13:01:50.000Z</time>
</trkpt>
<trkpt lat="43.54714" lon="5.32944">
<ele>207.2</ele>
<time>2012-03-24T13:01:51.000Z</time>
</trkpt>
<trkpt lat="43.54718" lon="5.32938">
<ele>207.3</ele>
<time>2012-03-24T13:01:52.000Z</time>
</trkpt>
<trkpt lat="43.54721" lon="5.32932">
<ele>208.1</ele>
<time>2012-03-24T13:01:53.000Z</time>
</trkpt>
<trkpt lat="43.54725" lon="5.32927">
<ele>208.7</ele>
<time>2012-03-24T13:01:54.000Z</time>
</trkpt>
<trkpt lat="43.54728" lon="5.32922">
<ele>209.6</ele>
<time>2012-03-24T13:01:55.000Z</time>
</trkpt>
<trkpt lat="43.5473" lon="5.32916">
<ele>210.2</ele>
<time>2012-03-24T13:01:56.000Z</time>
</trkpt>
<trkpt lat="43.54731" lon="5.3291">
<ele>211.1</ele>
<time>2012-03-24T13:01:57.000Z</time>
</trkpt>
<trkpt lat="43.54732" lon="5.32904">
<ele>211.8</ele>
<time>2012-03-24T13:01:58.000Z</time>
</trkpt>
<trkpt lat="43.54738" lon="5.32898">
<ele>210.3</ele>
<time>2012-03-24T13:01:59.000Z</time>
</trkpt>
<trkpt lat="43.54741" lon="5.32892">
<ele>210.5</ele>
<time>2012-03-24T13:02:00.000Z</time>
</trkpt>
<trkpt lat="43.54744" lon="5.32886">
<ele>210.4</ele>
<time>2012-03-24T13:02:01.000Z</time>
</trkpt>
<trkpt lat="43.54747" lon="5.3288">
<ele>211.2</ele>
<time>2012-03-24T13:02:02.000Z</time>
</trkpt>
<trkpt lat="43.5475" lon="5.32875">
<ele>211.7</ele>
<time>2012-03-24T13:02:03.000Z</time>
</trkpt>
<trkpt lat="43.54754" lon="5.3287">
<ele>211.7</ele>
<time>2012-03-24T13:02:04.000Z</time>
</trkpt>
<trkpt lat="43.54757" lon="5.32864">
<ele>211.6</ele>
<time>2012-03-24T13:02:05.000Z</time>
</trkpt>
<trkpt lat="43.54761" lon="5.3286">
<ele>211.3</ele>
<time>2012-03-24T13:02:06.000Z</time>
</trkpt>
<trkpt lat="43.54768" lon="5.32853">
<ele>210.5</ele>
<time>2012-03-24T13:02:08.000Z</time>
</trkpt>
<trkpt lat="43.54774" lon="5.32844">
<ele>210</ele>
<time>2012-03-24T13:02:10.000Z</time>
</trkpt>
<trkpt lat="43.54777" lon="5.32834">
<ele>210.2</ele>
<time>2012-03-24T13:02:12.000Z</time>
</trkpt>
<trkpt lat="43.54784" lon="5.32824">
<ele>210</ele>
<time>2012-03-24T13:02:14.000Z</time>
</trkpt>
<trkpt lat="43.54787" lon="5.3282">
<ele>210.5</ele>
<time>2012-03-24T13:02:15.000Z</time>
</trkpt>
<trkpt lat="43.54793" lon="5.32809">
<ele>210.6</ele>
<time>2012-03-24T13:02:17.000Z</time>
</trkpt>
<trkpt lat="43.54796" lon="5.32804">
<ele>210.2</ele>
<time>2012-03-24T13:02:18.000Z</time>
</trkpt>
<trkpt lat="43.548" lon="5.32797">
<ele>210.3</ele>
<time>2012-03-24T13:02:19.000Z</time>
</trkpt>
<trkpt lat="43.54803" lon="5.32789">
<ele>210.9</ele>
<time>2012-03-24T13:02:20.000Z</time>
</trkpt>
<trkpt lat="43.54806" lon="5.32783">
<ele>210.8</ele>
<time>2012-03-24T13:02:21.000Z</time>
</trkpt>
<trkpt lat="43.54808" lon="5.32778">
<ele>210.9</ele>
<time>2012-03-24T13:02:22.000Z</time>
</trkpt>
<trkpt lat="43.54814" lon="5.32766">
<ele>212.4</ele>
<time>2012-03-24T13:02:24.000Z</time>
</trkpt>
<trkpt lat="43.54816" lon="5.32761">
<ele>212.3</ele>
<time>2012-03-24T13:02:25.000Z</time>
</trkpt>
<trkpt lat="43.5482" lon="5.32755">
<ele>212.5</ele>
<time>2012-03-24T13:02:26.000Z</time>
</trkpt>
<trkpt lat="43.54822" lon="5.32749">
<ele>213.1</ele>
<time>2012-03-24T13:02:27.000Z</time>
</trkpt>
<trkpt lat="43.54825" lon="5.32744">
<ele>213.7</ele>
<time>2012-03-24T13:02:28.000Z</time>
</trkpt>
<trkpt lat="43.54828" lon="5.32738">
<ele>214</ele>
<time>2012-03-24T13:02:29.000Z</time>
</trkpt>
<trkpt lat="43.54832" lon="5.32733">
<ele>214</ele>
<time>2012-03-24T13:02:30.000Z</time>
</trkpt>
<trkpt lat="43.54835" lon="5.32726">
<ele>213.4</ele>
<time>2012-03-24T13:02:31.000Z</time>
</trkpt>
<trkpt lat="43.54839" lon="5.32721">
<ele>212.9</ele>
<time>2012-03-24T13:02:32.000Z</time>
</trkpt>
<trkpt lat="43.54845" lon="5.32717">
<ele>212.8</ele>
<time>2012-03-24T13:02:33.000Z</time>
</trkpt>
<trkpt lat="43.54849" lon="5.32714">
<ele>212.1</ele>
<time>2012-03-24T13:02:34.000Z</time>
</trkpt>
<trkpt lat="43.54855" lon="5.32715">
<ele>212.7</ele>
<time>2012-03-24T13:02:35.000Z</time>
</trkpt>
<trkpt lat="43.5486" lon="5.32716">
<ele>212.8</ele>
<time>2012-03-24T13:02:36.000Z</time>
</trkpt>
<trkpt lat="43.54865" lon="5.32719">
<ele>212.6</ele>
<time>2012-03-24T13:02:37.000Z</time>
</trkpt>
<trkpt lat="43.54869" lon="5.32722">
<ele>212.5</ele>
<time>2012-03-24T13:02:38.000Z</time>
</trkpt>
<trkpt lat="43.54874" lon="5.32728">
<ele>212.3</ele>
<time>2012-03-24T13:02:39.000Z</time>
</trkpt>
<trkpt lat="43.54877" lon="5.32734">
<ele>211.8</ele>
<time>2012-03-24T13:02:40.000Z</time>
</trkpt>
<trkpt lat="43.5488" lon="5.32741">
<ele>212.1</ele>
<time>2012-03-24T13:02:41.000Z</time>
</trkpt>
<trkpt lat="43.54883" lon="5.32748">
<ele>211.5</ele>
<time>2012-03-24T13:02:42.000Z</time>
</trkpt>
<trkpt lat="43.54886" lon="5.32754">
<ele>211.3</ele>
<time>2012-03-24T13:02:43.000Z</time>
</trkpt>
<trkpt lat="43.54889" lon="5.32762">
<ele>211.4</ele>
<time>2012-03-24T13:02:44.000Z</time>
</trkpt>
<trkpt lat="43.54892" lon="5.3277">
<ele>211.3</ele>
<time>2012-03-24T13:02:45.000Z</time>
</trkpt>
<trkpt lat="43.54895" lon="5.32778">
<ele>211.1</ele>
<time>2012-03-24T13:02:46.000Z</time>
</trkpt>
<trkpt lat="43.54898" lon="5.32786">
<ele>210.8</ele>
<time>2012-03-24T13:02:47.000Z</time>
</trkpt>
<trkpt lat="43.54901" lon="5.32793">
<ele>210.3</ele>
<time>2012-03-24T13:02:48.000Z</time>
</trkpt>
<trkpt lat="43.54904" lon="5.328">
<ele>210.1</ele>
<time>2012-03-24T13:02:49.000Z</time>
</trkpt>
<trkpt lat="43.54907" lon="5.32807">
<ele>210.1</ele>
<time>2012-03-24T13:02:50.000Z</time>
</trkpt>
<trkpt lat="43.5491" lon="5.32815">
<ele>210.1</ele>
<time>2012-03-24T13:02:51.000Z</time>
</trkpt>
<trkpt lat="43.54913" lon="5.32822">
<ele>210</ele>
<time>2012-03-24T13:02:52.000Z</time>
</trkpt>
<trkpt lat="43.54917" lon="5.3283">
<ele>209.8</ele>
<time>2012-03-24T13:02:53.000Z</time>
</trkpt>
<trkpt lat="43.5492" lon="5.32838">
<ele>209.5</ele>
<time>2012-03-24T13:02:54.000Z</time>
</trkpt>
<trkpt lat="43.54924" lon="5.32846">
<ele>208.9</ele>
<time>2012-03-24T13:02:55.000Z</time>
</trkpt>
<trkpt lat="43.54926" lon="5.32854">
<ele>208.5</ele>
<time>2012-03-24T13:02:56.000Z</time>
</trkpt>
<trkpt lat="43.54929" lon="5.32862">
<ele>208.6</ele>
<time>2012-03-24T13:02:57.000Z</time>
</trkpt>
<trkpt lat="43.54933" lon="5.32871">
<ele>208.9</ele>
<time>2012-03-24T13:02:58.000Z</time>
</trkpt>
<trkpt lat="43.54937" lon="5.32879">
<ele>209.4</ele>
<time>2012-03-24T13:02:59.000Z</time>
</trkpt>
<trkpt lat="43.54941" lon="5.32887">
<ele>209.6</ele>
<time>2012-03-24T13:03:00.000Z</time>
</trkpt>
<trkpt lat="43.54944" lon="5.32895">
<ele>209.7</ele>
<time>2012-03-24T13:03:01.000Z</time>
</trkpt>
<trkpt lat="43.54948" lon="5.32904">
<ele>209.7</ele>
<time>2012-03-24T13:03:02.000Z</time>
</trkpt>
<trkpt lat="43.54951" lon="5.32911">
<ele>209.5</ele>
<time>2012-03-24T13:03:03.000Z</time>
</trkpt>
<trkpt lat="43.54955" lon="5.32919">
<ele>209.3</ele>
<time>2012-03-24T13:03:04.000Z</time>
</trkpt>
<trkpt lat="43.54958" lon="5.32925">
<ele>209.8</ele>
<time>2012-03-24T13:03:05.000Z</time>
</trkpt>
<trkpt lat="43.54962" lon="5.32935">
<ele>209.8</ele>
<time>2012-03-24T13:03:06.000Z</time>
</trkpt>
<trkpt lat="43.54966" lon="5.32943">
<ele>210</ele>
<time>2012-03-24T13:03:07.000Z</time>
</trkpt>
<trkpt lat="43.5497" lon="5.32953">
<ele>209.8</ele>
<time>2012-03-24T13:03:08.000Z</time>
</trkpt>
<trkpt lat="43.54975" lon="5.32961">
<ele>210.3</ele>
<time>2012-03-24T13:03:09.000Z</time>
</trkpt>
<trkpt lat="43.54978" lon="5.3297">
<ele>210.1</ele>
<time>2012-03-24T13:03:10.000Z</time>
</trkpt>
<trkpt lat="43.54982" lon="5.32979">
<ele>210.1</ele>
<time>2012-03-24T13:03:11.000Z</time>
</trkpt>
<trkpt lat="43.54986" lon="5.32988">
<ele>209.9</ele>
<time>2012-03-24T13:03:12.000Z</time>
</trkpt>
<trkpt lat="43.54989" lon="5.32997">
<ele>209.5</ele>
<time>2012-03-24T13:03:13.000Z</time>
</trkpt>
<trkpt lat="43.54991" lon="5.33005">
<ele>209.4</ele>
<time>2012-03-24T13:03:14.000Z</time>
</trkpt>
<trkpt lat="43.54994" lon="5.33013">
<ele>209.5</ele>
<time>2012-03-24T13:03:15.000Z</time>
</trkpt>
<trkpt lat="43.54998" lon="5.33022">
<ele>209.1</ele>
<time>2012-03-24T13:03:16.000Z</time>
</trkpt>
<trkpt lat="43.55" lon="5.33029">
<ele>208.6</ele>
<time>2012-03-24T13:03:17.000Z</time>
</trkpt>
<trkpt lat="43.55004" lon="5.33037">
<ele>208.5</ele>
<time>2012-03-24T13:03:18.000Z</time>
</trkpt>
<trkpt lat="43.55007" lon="5.33046">
<ele>208.1</ele>
<time>2012-03-24T13:03:19.000Z</time>
</trkpt>
<trkpt lat="43.5501" lon="5.33054">
<ele>207.5</ele>
<time>2012-03-24T13:03:20.000Z</time>
</trkpt>
<trkpt lat="43.55013" lon="5.33064">
<ele>206.9</ele>
<time>2012-03-24T13:03:21.000Z</time>
</trkpt>
<trkpt lat="43.55016" lon="5.33073">
<ele>207</ele>
<time>2012-03-24T13:03:22.000Z</time>
</trkpt>
<trkpt lat="43.55019" lon="5.33081">
<ele>207.1</ele>
<time>2012-03-24T13:03:23.000Z</time>
</trkpt>
<trkpt lat="43.55023" lon="5.3309">
<ele>206.9</ele>
<time>2012-03-24T13:03:24.000Z</time>
</trkpt>
<trkpt lat="43.55027" lon="5.33098">
<ele>206.5</ele>
<time>2012-03-24T13:03:25.000Z</time>
</trkpt>
<trkpt lat="43.5503" lon="5.33107">
<ele>206.5</ele>
<time>2012-03-24T13:03:26.000Z</time>
</trkpt>
<trkpt lat="43.55034" lon="5.33116">
<ele>206.2</ele>
<time>2012-03-24T13:03:27.000Z</time>
</trkpt>
<trkpt lat="43.55037" lon="5.33124">
<ele>206</ele>
<time>2012-03-24T13:03:28.000Z</time>
</trkpt>
<trkpt lat="43.55041" lon="5.33133">
<ele>205.9</ele>
<time>2012-03-24T13:03:29.000Z</time>
</trkpt>
<trkpt lat="43.55045" lon="5.33141">
<ele>205.8</ele>
<time>2012-03-24T13:03:30.000Z</time>
</trkpt>
<trkpt lat="43.55049" lon="5.3315">
<ele>206</ele>
<time>2012-03-24T13:03:31.000Z</time>
</trkpt>
<trkpt lat="43.55052" lon="5.33159">
<ele>205.8</ele>
<time>2012-03-24T13:03:32.000Z</time>
</trkpt>
<trkpt lat="43.55056" lon="5.33167">
<ele>205.9</ele>
<time>2012-03-24T13:03:33.000Z</time>
</trkpt>
<trkpt lat="43.5506" lon="5.33176">
<ele>206.6</ele>
<time>2012-03-24T13:03:34.000Z</time>
</trkpt>
<trkpt lat="43.55064" lon="5.33185">
<ele>206.9</ele>
<time>2012-03-24T13:03:35.000Z</time>
</trkpt>
<trkpt lat="43.55068" lon="5.33194">
<ele>206.8</ele>
<time>2012-03-24T13:03:36.000Z</time>
</trkpt>
<trkpt lat="43.55073" lon="5.33203">
<ele>206.9</ele>
<time>2012-03-24T13:03:37.000Z</time>
</trkpt>
<trkpt lat="43.55077" lon="5.33212">
<ele>206.9</ele>
<time>2012-03-24T13:03:38.000Z</time>
</trkpt>
<trkpt lat="43.5508" lon="5.33221">
<ele>206.3</ele>
<time>2012-03-24T13:03:39.000Z</time>
</trkpt>
<trkpt lat="43.55084" lon="5.33229">
<ele>205.9</ele>
<time>2012-03-24T13:03:40.000Z</time>
</trkpt>
<trkpt lat="43.55088" lon="5.33238">
<ele>205.8</ele>
<time>2012-03-24T13:03:41.000Z</time>
</trkpt>
<trkpt lat="43.55092" lon="5.33247">
<ele>206.3</ele>
<time>2012-03-24T13:03:42.000Z</time>
</trkpt>
<trkpt lat="43.55095" lon="5.33256">
<ele>206.2</ele>
<time>2012-03-24T13:03:43.000Z</time>
</trkpt>
<trkpt lat="43.55099" lon="5.33264">
<ele>206.6</ele>
<time>2012-03-24T13:03:44.000Z</time>
</trkpt>
<trkpt lat="43.55103" lon="5.33273">
<ele>206.5</ele>
<time>2012-03-24T13:03:45.000Z</time>
</trkpt>
<trkpt lat="43.55106" lon="5.33281">
<ele>207</ele>
<time>2012-03-24T13:03:46.000Z</time>
</trkpt>
<trkpt lat="43.5511" lon="5.3329">
<ele>207</ele>
<time>2012-03-24T13:03:47.000Z</time>
</trkpt>
<trkpt lat="43.55114" lon="5.333">
<ele>207</ele>
<time>2012-03-24T13:03:48.000Z</time>
</trkpt>
<trkpt lat="43.55117" lon="5.33308">
<ele>207</ele>
<time>2012-03-24T13:03:49.000Z</time>
</trkpt>
<trkpt lat="43.5512" lon="5.33316">
<ele>207.2</ele>
<time>2012-03-24T13:03:50.000Z</time>
</trkpt>
<trkpt lat="43.55124" lon="5.33324">
<ele>207.4</ele>
<time>2012-03-24T13:03:51.000Z</time>
</trkpt>
<trkpt lat="43.55128" lon="5.33332">
<ele>207.3</ele>
<time>2012-03-24T13:03:52.000Z</time>
</trkpt>
<trkpt lat="43.55131" lon="5.3334">
<ele>207.4</ele>
<time>2012-03-24T13:03:53.000Z</time>
</trkpt>
<trkpt lat="43.55135" lon="5.33348">
<ele>207.6</ele>
<time>2012-03-24T13:03:54.000Z</time>
</trkpt>
<trkpt lat="43.55138" lon="5.33356">
<ele>208</ele>
<time>2012-03-24T13:03:55.000Z</time>
</trkpt>
<trkpt lat="43.55142" lon="5.33365">
<ele>208.1</ele>
<time>2012-03-24T13:03:56.000Z</time>
</trkpt>
<trkpt lat="43.55145" lon="5.33373">
<ele>208.3</ele>
<time>2012-03-24T13:03:57.000Z</time>
</trkpt>
<trkpt lat="43.55148" lon="5.33381">
<ele>208.2</ele>
<time>2012-03-24T13:03:58.000Z</time>
</trkpt>
<trkpt lat="43.55152" lon="5.33389">
<ele>208</ele>
<time>2012-03-24T13:03:59.000Z</time>
</trkpt>
<trkpt lat="43.55155" lon="5.33396">
<ele>208.4</ele>
<time>2012-03-24T13:04:00.000Z</time>
</trkpt>
<trkpt lat="43.55159" lon="5.33404">
<ele>208.4</ele>
<time>2012-03-24T13:04:01.000Z</time>
</trkpt>
<trkpt lat="43.55162" lon="5.33412">
<ele>208.5</ele>
<time>2012-03-24T13:04:02.000Z</time>
</trkpt>
<trkpt lat="43.55165" lon="5.3342">
<ele>209</ele>
<time>2012-03-24T13:04:03.000Z</time>
</trkpt>
<trkpt lat="43.55169" lon="5.33428">
<ele>208.9</ele>
<time>2012-03-24T13:04:04.000Z</time>
</trkpt>
<trkpt lat="43.55172" lon="5.33436">
<ele>209.1</ele>
<time>2012-03-24T13:04:05.000Z</time>
</trkpt>
<trkpt lat="43.55175" lon="5.33444">
<ele>209</ele>
<time>2012-03-24T13:04:06.000Z</time>
</trkpt>
<trkpt lat="43.55178" lon="5.33452">
<ele>209</ele>
<time>2012-03-24T13:04:07.000Z</time>
</trkpt>
<trkpt lat="43.55182" lon="5.3346">
<ele>209.2</ele>
<time>2012-03-24T13:04:08.000Z</time>
</trkpt>
<trkpt lat="43.55185" lon="5.33468">
<ele>209.2</ele>
<time>2012-03-24T13:04:09.000Z</time>
</trkpt>
<trkpt lat="43.55189" lon="5.33476">
<ele>209.1</ele>
<time>2012-03-24T13:04:10.000Z</time>
</trkpt>
<trkpt lat="43.55192" lon="5.33484">
<ele>209.3</ele>
<time>2012-03-24T13:04:11.000Z</time>
</trkpt>
<trkpt lat="43.55196" lon="5.33492">
<ele>209.6</ele>
<time>2012-03-24T13:04:12.000Z</time>
</trkpt>
<trkpt lat="43.55199" lon="5.335">
<ele>209.5</ele>
<time>2012-03-24T13:04:13.000Z</time>
</trkpt>
<trkpt lat="43.55203" lon="5.33508">
<ele>209.4</ele>
<time>2012-03-24T13:04:14.000Z</time>
</trkpt>
<trkpt lat="43.55206" lon="5.33516">
<ele>209.6</ele>
<time>2012-03-24T13:04:15.000Z</time>
</trkpt>
<trkpt lat="43.5521" lon="5.33524">
<ele>209.7</ele>
<time>2012-03-24T13:04:16.000Z</time>
</trkpt>
<trkpt lat="43.55213" lon="5.33532">
<ele>209.6</ele>
<time>2012-03-24T13:04:17.000Z</time>
</trkpt>
<trkpt lat="43.55216" lon="5.3354">
<ele>209.9</ele>
<time>2012-03-24T13:04:18.000Z</time>
</trkpt>
<trkpt lat="43.5522" lon="5.33548">
<ele>210.2</ele>
<time>2012-03-24T13:04:19.000Z</time>
</trkpt>
<trkpt lat="43.55223" lon="5.33556">
<ele>210.5</ele>
<time>2012-03-24T13:04:20.000Z</time>
</trkpt>
<trkpt lat="43.55226" lon="5.33564">
<ele>210.2</ele>
<time>2012-03-24T13:04:21.000Z</time>
</trkpt>
<trkpt lat="43.5523" lon="5.33572">
<ele>210.1</ele>
<time>2012-03-24T13:04:22.000Z</time>
</trkpt>
<trkpt lat="43.55233" lon="5.33579">
<ele>210.3</ele>
<time>2012-03-24T13:04:23.000Z</time>
</trkpt>
<trkpt lat="43.55236" lon="5.33587">
<ele>210.5</ele>
<time>2012-03-24T13:04:24.000Z</time>
</trkpt>
<trkpt lat="43.5524" lon="5.33594">
<ele>210.5</ele>
<time>2012-03-24T13:04:25.000Z</time>
</trkpt>
<trkpt lat="43.55243" lon="5.33602">
<ele>210.1</ele>
<time>2012-03-24T13:04:26.000Z</time>
</trkpt>
<trkpt lat="43.55246" lon="5.3361">
<ele>210.4</ele>
<time>2012-03-24T13:04:27.000Z</time>
</trkpt>
<trkpt lat="43.5525" lon="5.33619">
<ele>209.9</ele>
<time>2012-03-24T13:04:28.000Z</time>
</trkpt>
<trkpt lat="43.55253" lon="5.33627">
<ele>209.6</ele>
<time>2012-03-24T13:04:29.000Z</time>
</trkpt>
<trkpt lat="43.55256" lon="5.33634">
<ele>209.8</ele>
<time>2012-03-24T13:04:30.000Z</time>
</trkpt>
<trkpt lat="43.5526" lon="5.33642">
<ele>209.9</ele>
<time>2012-03-24T13:04:31.000Z</time>
</trkpt>
<trkpt lat="43.55263" lon="5.3365">
<ele>210</ele>
<time>2012-03-24T13:04:32.000Z</time>
</trkpt>
<trkpt lat="43.55267" lon="5.33658">
<ele>210</ele>
<time>2012-03-24T13:04:33.000Z</time>
</trkpt>
<trkpt lat="43.5527" lon="5.33666">
<ele>210.1</ele>
<time>2012-03-24T13:04:34.000Z</time>
</trkpt>
<trkpt lat="43.55273" lon="5.33674">
<ele>210.3</ele>
<time>2012-03-24T13:04:35.000Z</time>
</trkpt>
<trkpt lat="43.55277" lon="5.33682">
<ele>210.4</ele>
<time>2012-03-24T13:04:36.000Z</time>
</trkpt>
<trkpt lat="43.55281" lon="5.3369">
<ele>210.7</ele>
<time>2012-03-24T13:04:37.000Z</time>
</trkpt>
<trkpt lat="43.55284" lon="5.33698">
<ele>210.7</ele>
<time>2012-03-24T13:04:38.000Z</time>
</trkpt>
<trkpt lat="43.55288" lon="5.33706">
<ele>210.6</ele>
<time>2012-03-24T13:04:39.000Z</time>
</trkpt>
<trkpt lat="43.55291" lon="5.33713">
<ele>210.8</ele>
<time>2012-03-24T13:04:40.000Z</time>
</trkpt>
<trkpt lat="43.55294" lon="5.33721">
<ele>210.7</ele>
<time>2012-03-24T13:04:41.000Z</time>
</trkpt>
<trkpt lat="43.55298" lon="5.33729">
<ele>210.4</ele>
<time>2012-03-24T13:04:42.000Z</time>
</trkpt>
<trkpt lat="43.55301" lon="5.33737">
<ele>210.4</ele>
<time>2012-03-24T13:04:43.000Z</time>
</trkpt>
<trkpt lat="43.55304" lon="5.33744">
<ele>210.9</ele>
<time>2012-03-24T13:04:44.000Z</time>
</trkpt>
<trkpt lat="43.55308" lon="5.33752">
<ele>211</ele>
<time>2012-03-24T13:04:45.000Z</time>
</trkpt>
<trkpt lat="43.55311" lon="5.3376">
<ele>210.9</ele>
<time>2012-03-24T13:04:46.000Z</time>
</trkpt>
<trkpt lat="43.55315" lon="5.33768">
<ele>211.1</ele>
<time>2012-03-24T13:04:47.000Z</time>
</trkpt>
<trkpt lat="43.55318" lon="5.33776">
<ele>211.3</ele>
<time>2012-03-24T13:04:48.000Z</time>
</trkpt>
<trkpt lat="43.55321" lon="5.33784">
<ele>211.4</ele>
<time>2012-03-24T13:04:49.000Z</time>
</trkpt>
<trkpt lat="43.55324" lon="5.33792">
<ele>211.5</ele>
<time>2012-03-24T13:04:50.000Z</time>
</trkpt>
<trkpt lat="43.55328" lon="5.338">
<ele>211.4</ele>
<time>2012-03-24T13:04:51.000Z</time>
</trkpt>
<trkpt lat="43.55332" lon="5.33808">
<ele>211.5</ele>
<time>2012-03-24T13:04:52.000Z</time>
</trkpt>
<trkpt lat="43.55335" lon="5.33816">
<ele>211.4</ele>
<time>2012-03-24T13:04:53.000Z</time>
</trkpt>
<trkpt lat="43.55338" lon="5.33824">
<ele>211.5</ele>
<time>2012-03-24T13:04:54.000Z</time>
</trkpt>
<trkpt lat="43.55341" lon="5.33832">
<ele>211.8</ele>
<time>2012-03-24T13:04:55.000Z</time>
</trkpt>
<trkpt lat="43.55344" lon="5.3384">
<ele>212</ele>
<time>2012-03-24T13:04:56.000Z</time>
</trkpt>
<trkpt lat="43.55347" lon="5.33847">
<ele>212.1</ele>
<time>2012-03-24T13:04:57.000Z</time>
</trkpt>
<trkpt lat="43.55351" lon="5.33854">
<ele>212.3</ele>
<time>2012-03-24T13:04:58.000Z</time>
</trkpt>
<trkpt lat="43.55354" lon="5.33862">
<ele>212.1</ele>
<time>2012-03-24T13:04:59.000Z</time>
</trkpt>
<trkpt lat="43.55358" lon="5.33869">
<ele>212</ele>
<time>2012-03-24T13:05:00.000Z</time>
</trkpt>
<trkpt lat="43.55361" lon="5.33876">
<ele>212.1</ele>
<time>2012-03-24T13:05:01.000Z</time>
</trkpt>
<trkpt lat="43.55365" lon="5.33883">
<ele>212.1</ele>
<time>2012-03-24T13:05:02.000Z</time>
</trkpt>
<trkpt lat="43.55369" lon="5.3389">
<ele>212.1</ele>
<time>2012-03-24T13:05:03.000Z</time>
</trkpt>
<trkpt lat="43.55373" lon="5.33897">
<ele>212.2</ele>
<time>2012-03-24T13:05:04.000Z</time>
</trkpt>
<trkpt lat="43.55377" lon="5.33904">
<ele>212.5</ele>
<time>2012-03-24T13:05:05.000Z</time>
</trkpt>
<trkpt lat="43.5538" lon="5.33911">
<ele>212.4</ele>
<time>2012-03-24T13:05:06.000Z</time>
</trkpt>
<trkpt lat="43.55384" lon="5.33918">
<ele>212.4</ele>
<time>2012-03-24T13:05:07.000Z</time>
</trkpt>
<trkpt lat="43.55388" lon="5.33925">
<ele>212.3</ele>
<time>2012-03-24T13:05:08.000Z</time>
</trkpt>
<trkpt lat="43.55391" lon="5.33932">
<ele>212.6</ele>
<time>2012-03-24T13:05:09.000Z</time>
</trkpt>
<trkpt lat="43.55395" lon="5.3394">
<ele>212.4</ele>
<time>2012-03-24T13:05:10.000Z</time>
</trkpt>
<trkpt lat="43.55398" lon="5.33947">
<ele>212.4</ele>
<time>2012-03-24T13:05:11.000Z</time>
</trkpt>
<trkpt lat="43.55402" lon="5.33954">
<ele>212.9</ele>
<time>2012-03-24T13:05:12.000Z</time>
</trkpt>
<trkpt lat="43.55406" lon="5.3396">
<ele>213</ele>
<time>2012-03-24T13:05:13.000Z</time>
</trkpt>
<trkpt lat="43.55409" lon="5.33967">
<ele>213.1</ele>
<time>2012-03-24T13:05:14.000Z</time>
</trkpt>
<trkpt lat="43.55413" lon="5.33974">
<ele>213.1</ele>
<time>2012-03-24T13:05:15.000Z</time>
</trkpt>
<trkpt lat="43.55416" lon="5.33981">
<ele>213</ele>
<time>2012-03-24T13:05:16.000Z</time>
</trkpt>
<trkpt lat="43.5542" lon="5.33988">
<ele>213.4</ele>
<time>2012-03-24T13:05:17.000Z</time>
</trkpt>
<trkpt lat="43.55424" lon="5.33995">
<ele>213.6</ele>
<time>2012-03-24T13:05:18.000Z</time>
</trkpt>
<trkpt lat="43.55428" lon="5.34002">
<ele>213.9</ele>
<time>2012-03-24T13:05:19.000Z</time>
</trkpt>
<trkpt lat="43.55432" lon="5.34009">
<ele>213.5</ele>
<time>2012-03-24T13:05:20.000Z</time>
</trkpt>
<trkpt lat="43.55435" lon="5.34016">
<ele>213.6</ele>
<time>2012-03-24T13:05:21.000Z</time>
</trkpt>
<trkpt lat="43.55439" lon="5.34023">
<ele>213.8</ele>
<time>2012-03-24T13:05:22.000Z</time>
</trkpt>
<trkpt lat="43.55443" lon="5.3403">
<ele>214.1</ele>
<time>2012-03-24T13:05:23.000Z</time>
</trkpt>
<trkpt lat="43.55446" lon="5.34037">
<ele>213.9</ele>
<time>2012-03-24T13:05:24.000Z</time>
</trkpt>
<trkpt lat="43.5545" lon="5.34043">
<ele>213.8</ele>
<time>2012-03-24T13:05:25.000Z</time>
</trkpt>
<trkpt lat="43.55454" lon="5.3405">
<ele>213.9</ele>
<time>2012-03-24T13:05:26.000Z</time>
</trkpt>
<trkpt lat="43.55457" lon="5.34057">
<ele>214.2</ele>
<time>2012-03-24T13:05:27.000Z</time>
</trkpt>
<trkpt lat="43.55461" lon="5.34064">
<ele>214.3</ele>
<time>2012-03-24T13:05:28.000Z</time>
</trkpt>
<trkpt lat="43.55465" lon="5.3407">
<ele>214.3</ele>
<time>2012-03-24T13:05:29.000Z</time>
</trkpt>
<trkpt lat="43.55469" lon="5.34077">
<ele>214.4</ele>
<time>2012-03-24T13:05:30.000Z</time>
</trkpt>
<trkpt lat="43.55473" lon="5.34082">
<ele>214.6</ele>
<time>2012-03-24T13:05:31.000Z</time>
</trkpt>
<trkpt lat="43.55478" lon="5.34088">
<ele>214.4</ele>
<time>2012-03-24T13:05:32.000Z</time>
</trkpt>
<trkpt lat="43.55482" lon="5.34094">
<ele>214.3</ele>
<time>2012-03-24T13:05:33.000Z</time>
</trkpt>
<trkpt lat="43.55487" lon="5.34099">
<ele>214.3</ele>
<time>2012-03-24T13:05:34.000Z</time>
</trkpt>
<trkpt lat="43.55493" lon="5.34102">
<ele>214.4</ele>
<time>2012-03-24T13:05:35.000Z</time>
</trkpt>
<trkpt lat="43.55498" lon="5.34106">
<ele>214.3</ele>
<time>2012-03-24T13:05:36.000Z</time>
</trkpt>
<trkpt lat="43.55503" lon="5.34108">
<ele>214.4</ele>
<time>2012-03-24T13:05:37.000Z</time>
</trkpt>
<trkpt lat="43.55509" lon="5.34111">
<ele>214.3</ele>
<time>2012-03-24T13:05:38.000Z</time>
</trkpt>
<trkpt lat="43.55515" lon="5.34113">
<ele>214.1</ele>
<time>2012-03-24T13:05:39.000Z</time>
</trkpt>
<trkpt lat="43.55521" lon="5.34116">
<ele>213.9</ele>
<time>2012-03-24T13:05:40.000Z</time>
</trkpt>
<trkpt lat="43.55527" lon="5.34118">
<ele>214</ele>
<time>2012-03-24T13:05:41.000Z</time>
</trkpt>
<trkpt lat="43.55533" lon="5.3412">
<ele>213.9</ele>
<time>2012-03-24T13:05:42.000Z</time>
</trkpt>
<trkpt lat="43.55539" lon="5.34123">
<ele>213.2</ele>
<time>2012-03-24T13:05:43.000Z</time>
</trkpt>
<trkpt lat="43.55544" lon="5.34125">
<ele>213.3</ele>
<time>2012-03-24T13:05:44.000Z</time>
</trkpt>
<trkpt lat="43.5555" lon="5.34127">
<ele>213.6</ele>
<time>2012-03-24T13:05:45.000Z</time>
</trkpt>
<trkpt lat="43.55556" lon="5.34128">
<ele>213.6</ele>
<time>2012-03-24T13:05:46.000Z</time>
</trkpt>
<trkpt lat="43.55562" lon="5.3413">
<ele>213.7</ele>
<time>2012-03-24T13:05:47.000Z</time>
</trkpt>
<trkpt lat="43.55569" lon="5.34133">
<ele>213.7</ele>
<time>2012-03-24T13:05:48.000Z</time>
</trkpt>
<trkpt lat="43.55574" lon="5.34134">
<ele>214.1</ele>
<time>2012-03-24T13:05:49.000Z</time>
</trkpt>
<trkpt lat="43.55581" lon="5.34136">
<ele>213.9</ele>
<time>2012-03-24T13:05:50.000Z</time>
</trkpt>
<trkpt lat="43.55587" lon="5.34139">
<ele>213.9</ele>
<time>2012-03-24T13:05:51.000Z</time>
</trkpt>
<trkpt lat="43.55593" lon="5.34142">
<ele>214</ele>
<time>2012-03-24T13:05:52.000Z</time>
</trkpt>
<trkpt lat="43.55598" lon="5.34144">
<ele>214.2</ele>
<time>2012-03-24T13:05:53.000Z</time>
</trkpt>
<trkpt lat="43.55603" lon="5.3415">
<ele>214.6</ele>
<time>2012-03-24T13:05:54.000Z</time>
</trkpt>
<trkpt lat="43.55608" lon="5.34155">
<ele>214.2</ele>
<time>2012-03-24T13:05:55.000Z</time>
</trkpt>
<trkpt lat="43.55613" lon="5.34161">
<ele>214.3</ele>
<time>2012-03-24T13:05:56.000Z</time>
</trkpt>
<trkpt lat="43.55618" lon="5.34168">
<ele>214.4</ele>
<time>2012-03-24T13:05:57.000Z</time>
</trkpt>
<trkpt lat="43.55621" lon="5.34176">
<ele>214.1</ele>
<time>2012-03-24T13:05:58.000Z</time>
</trkpt>
<trkpt lat="43.55624" lon="5.34183">
<ele>214.1</ele>
<time>2012-03-24T13:05:59.000Z</time>
</trkpt>
<trkpt lat="43.55626" lon="5.34192">
<ele>213.9</ele>
<time>2012-03-24T13:06:00.000Z</time>
</trkpt>
<trkpt lat="43.55629" lon="5.34199">
<ele>214.3</ele>
<time>2012-03-24T13:06:01.000Z</time>
</trkpt>
<trkpt lat="43.55632" lon="5.34207">
<ele>214.5</ele>
<time>2012-03-24T13:06:02.000Z</time>
</trkpt>
<trkpt lat="43.55635" lon="5.34215">
<ele>214.3</ele>
<time>2012-03-24T13:06:03.000Z</time>
</trkpt>
<trkpt lat="43.55638" lon="5.34222">
<ele>214.3</ele>
<time>2012-03-24T13:06:04.000Z</time>
</trkpt>
<trkpt lat="43.5564" lon="5.3423">
<ele>214.4</ele>
<time>2012-03-24T13:06:05.000Z</time>
</trkpt>
<trkpt lat="43.55642" lon="5.34238">
<ele>214.3</ele>
<time>2012-03-24T13:06:06.000Z</time>
</trkpt>
<trkpt lat="43.55645" lon="5.34246">
<ele>214.1</ele>
<time>2012-03-24T13:06:07.000Z</time>
</trkpt>
<trkpt lat="43.55648" lon="5.34254">
<ele>214.1</ele>
<time>2012-03-24T13:06:08.000Z</time>
</trkpt>
<trkpt lat="43.55651" lon="5.34262">
<ele>214.2</ele>
<time>2012-03-24T13:06:09.000Z</time>
</trkpt>
<trkpt lat="43.55653" lon="5.3427">
<ele>214.4</ele>
<time>2012-03-24T13:06:10.000Z</time>
</trkpt>
<trkpt lat="43.55656" lon="5.34278">
<ele>214.2</ele>
<time>2012-03-24T13:06:11.000Z</time>
</trkpt>
<trkpt lat="43.55659" lon="5.34285">
<ele>214.6</ele>
<time>2012-03-24T13:06:12.000Z</time>
</trkpt>
<trkpt lat="43.55661" lon="5.34293">
<ele>215.1</ele>
<time>2012-03-24T13:06:13.000Z</time>
</trkpt>
<trkpt lat="43.55664" lon="5.343">
<ele>215.1</ele>
<time>2012-03-24T13:06:14.000Z</time>
</trkpt>
<trkpt lat="43.55666" lon="5.34308">
<ele>215.2</ele>
<time>2012-03-24T13:06:15.000Z</time>
</trkpt>
<trkpt lat="43.55668" lon="5.34316">
<ele>215.2</ele>
<time>2012-03-24T13:06:16.000Z</time>
</trkpt>
<trkpt lat="43.55671" lon="5.34322">
<ele>215.2</ele>
<time>2012-03-24T13:06:17.000Z</time>
</trkpt>
<trkpt lat="43.55675" lon="5.34329">
<ele>215.3</ele>
<time>2012-03-24T13:06:18.000Z</time>
</trkpt>
<trkpt lat="43.55679" lon="5.34336">
<ele>215.5</ele>
<time>2012-03-24T13:06:19.000Z</time>
</trkpt>
<trkpt lat="43.55684" lon="5.34343">
<ele>215.3</ele>
<time>2012-03-24T13:06:20.000Z</time>
</trkpt>
<trkpt lat="43.55689" lon="5.34351">
<ele>215.4</ele>
<time>2012-03-24T13:06:21.000Z</time>
</trkpt>
<trkpt lat="43.55692" lon="5.34357">
<ele>215.4</ele>
<time>2012-03-24T13:06:22.000Z</time>
</trkpt>
<trkpt lat="43.55696" lon="5.34364">
<ele>215.8</ele>
<time>2012-03-24T13:06:23.000Z</time>
</trkpt>
<trkpt lat="43.55699" lon="5.34371">
<ele>215.7</ele>
<time>2012-03-24T13:06:24.000Z</time>
</trkpt>
<trkpt lat="43.55703" lon="5.34378">
<ele>216</ele>
<time>2012-03-24T13:06:25.000Z</time>
</trkpt>
<trkpt lat="43.55706" lon="5.34385">
<ele>216.4</ele>
<time>2012-03-24T13:06:26.000Z</time>
</trkpt>
<trkpt lat="43.5571" lon="5.34391">
<ele>216.5</ele>
<time>2012-03-24T13:06:27.000Z</time>
</trkpt>
<trkpt lat="43.55713" lon="5.34398">
<ele>216.4</ele>
<time>2012-03-24T13:06:28.000Z</time>
</trkpt>
<trkpt lat="43.55717" lon="5.34405">
<ele>216.4</ele>
<time>2012-03-24T13:06:29.000Z</time>
</trkpt>
<trkpt lat="43.55721" lon="5.34411">
<ele>216.5</ele>
<time>2012-03-24T13:06:30.000Z</time>
</trkpt>
<trkpt lat="43.55724" lon="5.34418">
<ele>216.6</ele>
<time>2012-03-24T13:06:31.000Z</time>
</trkpt>
<trkpt lat="43.55728" lon="5.34424">
<ele>216.6</ele>
<time>2012-03-24T13:06:32.000Z</time>
</trkpt>
<trkpt lat="43.55732" lon="5.34431">
<ele>216.7</ele>
<time>2012-03-24T13:06:33.000Z</time>
</trkpt>
<trkpt lat="43.55736" lon="5.34438">
<ele>216.7</ele>
<time>2012-03-24T13:06:34.000Z</time>
</trkpt>
<trkpt lat="43.55739" lon="5.34445">
<ele>216.5</ele>
<time>2012-03-24T13:06:35.000Z</time>
</trkpt>
<trkpt lat="43.55743" lon="5.34452">
<ele>216.6</ele>
<time>2012-03-24T13:06:36.000Z</time>
</trkpt>
<trkpt lat="43.55746" lon="5.34458">
<ele>216.6</ele>
<time>2012-03-24T13:06:37.000Z</time>
</trkpt>
<trkpt lat="43.5575" lon="5.34465">
<ele>216.8</ele>
<time>2012-03-24T13:06:38.000Z</time>
</trkpt>
<trkpt lat="43.55754" lon="5.34472">
<ele>217.2</ele>
<time>2012-03-24T13:06:39.000Z</time>
</trkpt>
<trkpt lat="43.55758" lon="5.34478">
<ele>217.6</ele>
<time>2012-03-24T13:06:40.000Z</time>
</trkpt>
<trkpt lat="43.55762" lon="5.34483">
<ele>218</ele>
<time>2012-03-24T13:06:41.000Z</time>
</trkpt>
<trkpt lat="43.55767" lon="5.34488">
<ele>217.5</ele>
<time>2012-03-24T13:06:42.000Z</time>
</trkpt>
<trkpt lat="43.55771" lon="5.34492">
<ele>217.7</ele>
<time>2012-03-24T13:06:43.000Z</time>
</trkpt>
<trkpt lat="43.55775" lon="5.34496">
<ele>217.8</ele>
<time>2012-03-24T13:06:44.000Z</time>
</trkpt>
<trkpt lat="43.55777" lon="5.34504">
<ele>217.3</ele>
<time>2012-03-24T13:06:45.000Z</time>
</trkpt>
<trkpt lat="43.5578" lon="5.34511">
<ele>217.3</ele>
<time>2012-03-24T13:06:46.000Z</time>
</trkpt>
<trkpt lat="43.55784" lon="5.34517">
<ele>217.6</ele>
<time>2012-03-24T13:06:47.000Z</time>
</trkpt>
<trkpt lat="43.55789" lon="5.34522">
<ele>217.9</ele>
<time>2012-03-24T13:06:48.000Z</time>
</trkpt>
<trkpt lat="43.55793" lon="5.34529">
<ele>217.8</ele>
<time>2012-03-24T13:06:49.000Z</time>
</trkpt>
<trkpt lat="43.55798" lon="5.34535">
<ele>217.8</ele>
<time>2012-03-24T13:06:50.000Z</time>
</trkpt>
<trkpt lat="43.55803" lon="5.34541">
<ele>217.8</ele>
<time>2012-03-24T13:06:51.000Z</time>
</trkpt>
<trkpt lat="43.55808" lon="5.34547">
<ele>217.7</ele>
<time>2012-03-24T13:06:52.000Z</time>
</trkpt>
<trkpt lat="43.55813" lon="5.34553">
<ele>217.9</ele>
<time>2012-03-24T13:06:53.000Z</time>
</trkpt>
<trkpt lat="43.55818" lon="5.34558">
<ele>218</ele>
<time>2012-03-24T13:06:54.000Z</time>
</trkpt>
<trkpt lat="43.55824" lon="5.34563">
<ele>218.1</ele>
<time>2012-03-24T13:06:55.000Z</time>
</trkpt>
<trkpt lat="43.55829" lon="5.34568">
<ele>217.9</ele>
<time>2012-03-24T13:06:56.000Z</time>
</trkpt>
<trkpt lat="43.55834" lon="5.34574">
<ele>217.9</ele>
<time>2012-03-24T13:06:57.000Z</time>
</trkpt>
<trkpt lat="43.5584" lon="5.3458">
<ele>218.2</ele>
<time>2012-03-24T13:06:58.000Z</time>
</trkpt>
<trkpt lat="43.55845" lon="5.34585">
<ele>218.4</ele>
<time>2012-03-24T13:06:59.000Z</time>
</trkpt>
<trkpt lat="43.5585" lon="5.34591">
<ele>218.5</ele>
<time>2012-03-24T13:07:00.000Z</time>
</trkpt>
<trkpt lat="43.55854" lon="5.34596">
<ele>218.6</ele>
<time>2012-03-24T13:07:01.000Z</time>
</trkpt>
<trkpt lat="43.55859" lon="5.34602">
<ele>218.8</ele>
<time>2012-03-24T13:07:02.000Z</time>
</trkpt>
<trkpt lat="43.55864" lon="5.34608">
<ele>219</ele>
<time>2012-03-24T13:07:03.000Z</time>
</trkpt>
<trkpt lat="43.55868" lon="5.34613">
<ele>219.4</ele>
<time>2012-03-24T13:07:04.000Z</time>
</trkpt>
<trkpt lat="43.55873" lon="5.34619">
<ele>219.5</ele>
<time>2012-03-24T13:07:05.000Z</time>
</trkpt>
<trkpt lat="43.55878" lon="5.34625">
<ele>219.4</ele>
<time>2012-03-24T13:07:06.000Z</time>
</trkpt>
<trkpt lat="43.55882" lon="5.34631">
<ele>219.4</ele>
<time>2012-03-24T13:07:07.000Z</time>
</trkpt>
<trkpt lat="43.55886" lon="5.34638">
<ele>219.8</ele>
<time>2012-03-24T13:07:08.000Z</time>
</trkpt>
<trkpt lat="43.55891" lon="5.34643">
<ele>219.8</ele>
<time>2012-03-24T13:07:09.000Z</time>
</trkpt>
<trkpt lat="43.55896" lon="5.34649">
<ele>220.2</ele>
<time>2012-03-24T13:07:10.000Z</time>
</trkpt>
<trkpt lat="43.559" lon="5.34655">
<ele>220.4</ele>
<time>2012-03-24T13:07:11.000Z</time>
</trkpt>
<trkpt lat="43.55904" lon="5.34661">
<ele>220.4</ele>
<time>2012-03-24T13:07:12.000Z</time>
</trkpt>
<trkpt lat="43.55908" lon="5.34668">
<ele>220.6</ele>
<time>2012-03-24T13:07:13.000Z</time>
</trkpt>
<trkpt lat="43.55912" lon="5.34675">
<ele>220.5</ele>
<time>2012-03-24T13:07:14.000Z</time>
</trkpt>
<trkpt lat="43.55915" lon="5.34682">
<ele>220.7</ele>
<time>2012-03-24T13:07:15.000Z</time>
</trkpt>
<trkpt lat="43.55918" lon="5.3469">
<ele>221.1</ele>
<time>2012-03-24T13:07:16.000Z</time>
</trkpt>
<trkpt lat="43.5592" lon="5.34698">
<ele>221.3</ele>
<time>2012-03-24T13:07:17.000Z</time>
</trkpt>
<trkpt lat="43.55922" lon="5.34706">
<ele>221.2</ele>
<time>2012-03-24T13:07:18.000Z</time>
</trkpt>
<trkpt lat="43.55924" lon="5.34714">
<ele>221.4</ele>
<time>2012-03-24T13:07:19.000Z</time>
</trkpt>
<trkpt lat="43.55926" lon="5.34722">
<ele>221.5</ele>
<time>2012-03-24T13:07:20.000Z</time>
</trkpt>
<trkpt lat="43.55928" lon="5.3473">
<ele>221.4</ele>
<time>2012-03-24T13:07:21.000Z</time>
</trkpt>
<trkpt lat="43.5593" lon="5.34738">
<ele>221.5</ele>
<time>2012-03-24T13:07:22.000Z</time>
</trkpt>
<trkpt lat="43.55932" lon="5.34746">
<ele>221.3</ele>
<time>2012-03-24T13:07:23.000Z</time>
</trkpt>
<trkpt lat="43.55935" lon="5.34753">
<ele>221.2</ele>
<time>2012-03-24T13:07:24.000Z</time>
</trkpt>
<trkpt lat="43.55938" lon="5.34761">
<ele>221.5</ele>
<time>2012-03-24T13:07:25.000Z</time>
</trkpt>
<trkpt lat="43.55941" lon="5.34768">
<ele>221.7</ele>
<time>2012-03-24T13:07:26.000Z</time>
</trkpt>
<trkpt lat="43.55944" lon="5.34776">
<ele>221.7</ele>
<time>2012-03-24T13:07:27.000Z</time>
</trkpt>
<trkpt lat="43.55948" lon="5.34783">
<ele>221.9</ele>
<time>2012-03-24T13:07:28.000Z</time>
</trkpt>
<trkpt lat="43.55951" lon="5.3479">
<ele>222.3</ele>
<time>2012-03-24T13:07:29.000Z</time>
</trkpt>
<trkpt lat="43.55954" lon="5.34797">
<ele>222.5</ele>
<time>2012-03-24T13:07:30.000Z</time>
</trkpt>
<trkpt lat="43.55958" lon="5.34804">
<ele>222.5</ele>
<time>2012-03-24T13:07:31.000Z</time>
</trkpt>
<trkpt lat="43.55962" lon="5.3481">
<ele>222.3</ele>
<time>2012-03-24T13:07:32.000Z</time>
</trkpt>
<trkpt lat="43.55966" lon="5.34816">
<ele>222.7</ele>
<time>2012-03-24T13:07:33.000Z</time>
</trkpt>
<trkpt lat="43.5597" lon="5.34822">
<ele>223</ele>
<time>2012-03-24T13:07:34.000Z</time>
</trkpt>
<trkpt lat="43.55975" lon="5.34828">
<ele>223.2</ele>
<time>2012-03-24T13:07:35.000Z</time>
</trkpt>
<trkpt lat="43.55979" lon="5.34834">
<ele>223.4</ele>
<time>2012-03-24T13:07:36.000Z</time>
</trkpt>
<trkpt lat="43.55983" lon="5.34839">
<ele>223.5</ele>
<time>2012-03-24T13:07:37.000Z</time>
</trkpt>
<trkpt lat="43.55988" lon="5.34844">
<ele>223.7</ele>
<time>2012-03-24T13:07:38.000Z</time>
</trkpt>
<trkpt lat="43.55993" lon="5.34849">
<ele>223.5</ele>
<time>2012-03-24T13:07:39.000Z</time>
</trkpt>
<trkpt lat="43.55998" lon="5.34854">
<ele>223.8</ele>
<time>2012-03-24T13:07:40.000Z</time>
</trkpt>
<trkpt lat="43.56003" lon="5.34859">
<ele>223.5</ele>
<time>2012-03-24T13:07:41.000Z</time>
</trkpt>
<trkpt lat="43.56007" lon="5.34864">
<ele>224</ele>
<time>2012-03-24T13:07:42.000Z</time>
</trkpt>
<trkpt lat="43.56012" lon="5.34869">
<ele>224.3</ele>
<time>2012-03-24T13:07:43.000Z</time>
</trkpt>
<trkpt lat="43.56016" lon="5.34875">
<ele>223.8</ele>
<time>2012-03-24T13:07:44.000Z</time>
</trkpt>
<trkpt lat="43.56021" lon="5.3488">
<ele>223.9</ele>
<time>2012-03-24T13:07:45.000Z</time>
</trkpt>
<trkpt lat="43.56025" lon="5.34885">
<ele>224.1</ele>
<time>2012-03-24T13:07:46.000Z</time>
</trkpt>
<trkpt lat="43.56029" lon="5.3489">
<ele>224.4</ele>
<time>2012-03-24T13:07:47.000Z</time>
</trkpt>
<trkpt lat="43.56034" lon="5.34895">
<ele>224.7</ele>
<time>2012-03-24T13:07:48.000Z</time>
</trkpt>
<trkpt lat="43.56038" lon="5.349">
<ele>224.8</ele>
<time>2012-03-24T13:07:49.000Z</time>
</trkpt>
<trkpt lat="43.56042" lon="5.34905">
<ele>224.9</ele>
<time>2012-03-24T13:07:50.000Z</time>
</trkpt>
<trkpt lat="43.56046" lon="5.3491">
<ele>225</ele>
<time>2012-03-24T13:07:51.000Z</time>
</trkpt>
<trkpt lat="43.56051" lon="5.34914">
<ele>225.5</ele>
<time>2012-03-24T13:07:52.000Z</time>
</trkpt>
<trkpt lat="43.56055" lon="5.34919">
<ele>225.9</ele>
<time>2012-03-24T13:07:53.000Z</time>
</trkpt>
<trkpt lat="43.56059" lon="5.34924">
<ele>226.1</ele>
<time>2012-03-24T13:07:54.000Z</time>
</trkpt>
<trkpt lat="43.56063" lon="5.34929">
<ele>225.8</ele>
<time>2012-03-24T13:07:55.000Z</time>
</trkpt>
<trkpt lat="43.56067" lon="5.34935">
<ele>225.8</ele>
<time>2012-03-24T13:07:56.000Z</time>
</trkpt>
<trkpt lat="43.56071" lon="5.3494">
<ele>225.8</ele>
<time>2012-03-24T13:07:57.000Z</time>
</trkpt>
<trkpt lat="43.56074" lon="5.34947">
<ele>225.6</ele>
<time>2012-03-24T13:07:58.000Z</time>
</trkpt>
<trkpt lat="43.56077" lon="5.34953">
<ele>226.5</ele>
<time>2012-03-24T13:07:59.000Z</time>
</trkpt>
<trkpt lat="43.56078" lon="5.34961">
<ele>225.3</ele>
<time>2012-03-24T13:08:00.000Z</time>
</trkpt>
<trkpt lat="43.5608" lon="5.34968">
<ele>225.9</ele>
<time>2012-03-24T13:08:01.000Z</time>
</trkpt>
<trkpt lat="43.5608" lon="5.34976">
<ele>226.2</ele>
<time>2012-03-24T13:08:02.000Z</time>
</trkpt>
<trkpt lat="43.5608" lon="5.34983">
<ele>226.3</ele>
<time>2012-03-24T13:08:03.000Z</time>
</trkpt>
<trkpt lat="43.56081" lon="5.3499">
<ele>226.6</ele>
<time>2012-03-24T13:08:04.000Z</time>
</trkpt>
<trkpt lat="43.56081" lon="5.34997">
<ele>227</ele>
<time>2012-03-24T13:08:05.000Z</time>
</trkpt>
<trkpt lat="43.5608" lon="5.35005">
<ele>225.8</ele>
<time>2012-03-24T13:08:06.000Z</time>
</trkpt>
<trkpt lat="43.5608" lon="5.35013">
<ele>225.3</ele>
<time>2012-03-24T13:08:07.000Z</time>
</trkpt>
<trkpt lat="43.56081" lon="5.35022">
<ele>225</ele>
<time>2012-03-24T13:08:08.000Z</time>
</trkpt>
<trkpt lat="43.56081" lon="5.35031">
<ele>227.1</ele>
<time>2012-03-24T13:08:10.000Z</time>
</trkpt>
<trkpt lat="43.5608" lon="5.35038">
<ele>227.3</ele>
<time>2012-03-24T13:08:11.000Z</time>
</trkpt>
<trkpt lat="43.56081" lon="5.3505">
<ele>228.1</ele>
<time>2012-03-24T13:08:13.000Z</time>
</trkpt>
<trkpt lat="43.56081" lon="5.35062">
<ele>228.3</ele>
<time>2012-03-24T13:08:15.000Z</time>
</trkpt>
<trkpt lat="43.56081" lon="5.35074">
<ele>228.9</ele>
<time>2012-03-24T13:08:17.000Z</time>
</trkpt>
<trkpt lat="43.56082" lon="5.3508">
<ele>229.5</ele>
<time>2012-03-24T13:08:18.000Z</time>
</trkpt>
<trkpt lat="43.56081" lon="5.35087">
<ele>229</ele>
<time>2012-03-24T13:08:19.000Z</time>
</trkpt>
<trkpt lat="43.56081" lon="5.35099">
<ele>230</ele>
<time>2012-03-24T13:08:21.000Z</time>
</trkpt>
<trkpt lat="43.56081" lon="5.35111">
<ele>230.4</ele>
<time>2012-03-24T13:08:23.000Z</time>
</trkpt>
<trkpt lat="43.56081" lon="5.35123">
<ele>231.1</ele>
<time>2012-03-24T13:08:25.000Z</time>
</trkpt>
<trkpt lat="43.56081" lon="5.35135">
<ele>232.3</ele>
<time>2012-03-24T13:08:27.000Z</time>
</trkpt>
<trkpt lat="43.56081" lon="5.35146">
<ele>232.2</ele>
<time>2012-03-24T13:08:29.000Z</time>
</trkpt>
<trkpt lat="43.5608" lon="5.35152">
<ele>232.7</ele>
<time>2012-03-24T13:08:30.000Z</time>
</trkpt>
<trkpt lat="43.5608" lon="5.35164">
<ele>233.9</ele>
<time>2012-03-24T13:08:32.000Z</time>
</trkpt>
<trkpt lat="43.56081" lon="5.35175">
<ele>234.8</ele>
<time>2012-03-24T13:08:34.000Z</time>
</trkpt>
<trkpt lat="43.56082" lon="5.35185">
<ele>235.1</ele>
<time>2012-03-24T13:08:36.000Z</time>
</trkpt>
<trkpt lat="43.56082" lon="5.35196">
<ele>235.7</ele>
<time>2012-03-24T13:08:38.000Z</time>
</trkpt>
<trkpt lat="43.56083" lon="5.35206">
<ele>235.7</ele>
<time>2012-03-24T13:08:40.000Z</time>
</trkpt>
<trkpt lat="43.56083" lon="5.35216">
<ele>236.3</ele>
<time>2012-03-24T13:08:42.000Z</time>
</trkpt>
<trkpt lat="43.56083" lon="5.35227">
<ele>236.6</ele>
<time>2012-03-24T13:08:44.000Z</time>
</trkpt>
<trkpt lat="43.56083" lon="5.35237">
<ele>236.8</ele>
<time>2012-03-24T13:08:46.000Z</time>
</trkpt>
<trkpt lat="43.56082" lon="5.35248">
<ele>237</ele>
<time>2012-03-24T13:08:48.000Z</time>
</trkpt>
<trkpt lat="43.5608" lon="5.35255">
<ele>236.9</ele>
<time>2012-03-24T13:08:50.000Z</time>
</trkpt>
<trkpt lat="43.56077" lon="5.35262">
<ele>236.7</ele>
<time>2012-03-24T13:08:53.000Z</time>
</trkpt>
<trkpt lat="43.56074" lon="5.35268">
<ele>237</ele>
<time>2012-03-24T13:08:55.000Z</time>
</trkpt>
<trkpt lat="43.56073" lon="5.35276">
<ele>237.2</ele>
<time>2012-03-24T13:08:57.000Z</time>
</trkpt>
<trkpt lat="43.56076" lon="5.35283">
<ele>238.1</ele>
<time>2012-03-24T13:08:59.000Z</time>
</trkpt>
<trkpt lat="43.56082" lon="5.35288">
<ele>238.4</ele>
<time>2012-03-24T13:09:01.000Z</time>
</trkpt>
<trkpt lat="43.56089" lon="5.35288">
<ele>238.5</ele>
<time>2012-03-24T13:09:03.000Z</time>
</trkpt>
<trkpt lat="43.56098" lon="5.35289">
<ele>238.5</ele>
<time>2012-03-24T13:09:05.000Z</time>
</trkpt>
<trkpt lat="43.56106" lon="5.35291">
<ele>238.6</ele>
<time>2012-03-24T13:09:07.000Z</time>
</trkpt>
<trkpt lat="43.56111" lon="5.35293">
<ele>239.3</ele>
<time>2012-03-24T13:09:08.000Z</time>
</trkpt>
<trkpt lat="43.56119" lon="5.35296">
<ele>239.1</ele>
<time>2012-03-24T13:09:10.000Z</time>
</trkpt>
<trkpt lat="43.56127" lon="5.353">
<ele>239.7</ele>
<time>2012-03-24T13:09:12.000Z</time>
</trkpt>
<trkpt lat="43.56135" lon="5.35302">
<ele>240.7</ele>
<time>2012-03-24T13:09:14.000Z</time>
</trkpt>
<trkpt lat="43.56144" lon="5.35305">
<ele>242.4</ele>
<time>2012-03-24T13:09:16.000Z</time>
</trkpt>
<trkpt lat="43.56151" lon="5.35309">
<ele>242.6</ele>
<time>2012-03-24T13:09:18.000Z</time>
</trkpt>
<trkpt lat="43.56159" lon="5.35314">
<ele>243.1</ele>
<time>2012-03-24T13:09:20.000Z</time>
</trkpt>
<trkpt lat="43.56166" lon="5.35319">
<ele>243.4</ele>
<time>2012-03-24T13:09:22.000Z</time>
</trkpt>
<trkpt lat="43.56174" lon="5.35324">
<ele>244.3</ele>
<time>2012-03-24T13:09:24.000Z</time>
</trkpt>
<trkpt lat="43.56181" lon="5.3533">
<ele>244.7</ele>
<time>2012-03-24T13:09:26.000Z</time>
</trkpt>
<trkpt lat="43.56188" lon="5.35335">
<ele>245.2</ele>
<time>2012-03-24T13:09:28.000Z</time>
</trkpt>
<trkpt lat="43.56196" lon="5.3534">
<ele>245.1</ele>
<time>2012-03-24T13:09:30.000Z</time>
</trkpt>
<trkpt lat="43.56204" lon="5.35346">
<ele>245.8</ele>
<time>2012-03-24T13:09:32.000Z</time>
</trkpt>
<trkpt lat="43.56211" lon="5.35352">
<ele>246</ele>
<time>2012-03-24T13:09:34.000Z</time>
</trkpt>
<trkpt lat="43.56219" lon="5.35356">
<ele>246.2</ele>
<time>2012-03-24T13:09:36.000Z</time>
</trkpt>
<trkpt lat="43.56226" lon="5.35362">
<ele>246.2</ele>
<time>2012-03-24T13:09:38.000Z</time>
</trkpt>
<trkpt lat="43.56233" lon="5.35367">
<ele>246.6</ele>
<time>2012-03-24T13:09:40.000Z</time>
</trkpt>
<trkpt lat="43.5624" lon="5.35372">
<ele>247.1</ele>
<time>2012-03-24T13:09:42.000Z</time>
</trkpt>
<trkpt lat="43.56248" lon="5.35377">
<ele>247.1</ele>
<time>2012-03-24T13:09:44.000Z</time>
</trkpt>
<trkpt lat="43.56256" lon="5.35382">
<ele>247.8</ele>
<time>2012-03-24T13:09:46.000Z</time>
</trkpt>
<trkpt lat="43.56263" lon="5.35387">
<ele>248.1</ele>
<time>2012-03-24T13:09:48.000Z</time>
</trkpt>
<trkpt lat="43.56271" lon="5.35392">
<ele>248.1</ele>
<time>2012-03-24T13:09:50.000Z</time>
</trkpt>
<trkpt lat="43.56278" lon="5.35398">
<ele>247.7</ele>
<time>2012-03-24T13:09:52.000Z</time>
</trkpt>
<trkpt lat="43.56286" lon="5.35403">
<ele>248</ele>
<time>2012-03-24T13:09:54.000Z</time>
</trkpt>
<trkpt lat="43.56293" lon="5.35408">
<ele>248</ele>
<time>2012-03-24T13:09:56.000Z</time>
</trkpt>
<trkpt lat="43.56298" lon="5.35416">
<ele>249</ele>
<time>2012-03-24T13:09:58.000Z</time>
</trkpt>
<trkpt lat="43.56303" lon="5.35426">
<ele>249.2</ele>
<time>2012-03-24T13:10:00.000Z</time>
</trkpt>
<trkpt lat="43.56307" lon="5.35435">
<ele>249.6</ele>
<time>2012-03-24T13:10:02.000Z</time>
</trkpt>
<trkpt lat="43.56309" lon="5.35446">
<ele>250.4</ele>
<time>2012-03-24T13:10:04.000Z</time>
</trkpt>
<trkpt lat="43.56311" lon="5.35457">
<ele>250.8</ele>
<time>2012-03-24T13:10:06.000Z</time>
</trkpt>
<trkpt lat="43.56311" lon="5.35463">
<ele>250.7</ele>
<time>2012-03-24T13:10:07.000Z</time>
</trkpt>
<trkpt lat="43.5631" lon="5.35474">
<ele>250.9</ele>
<time>2012-03-24T13:10:09.000Z</time>
</trkpt>
<trkpt lat="43.56311" lon="5.35486">
<ele>251</ele>
<time>2012-03-24T13:10:11.000Z</time>
</trkpt>
<trkpt lat="43.5631" lon="5.35497">
<ele>251.1</ele>
<time>2012-03-24T13:10:13.000Z</time>
</trkpt>
<trkpt lat="43.56311" lon="5.35508">
<ele>251.6</ele>
<time>2012-03-24T13:10:15.000Z</time>
</trkpt>
<trkpt lat="43.56312" lon="5.3552">
<ele>251.6</ele>
<time>2012-03-24T13:10:17.000Z</time>
</trkpt>
<trkpt lat="43.56314" lon="5.35531">
<ele>251.8</ele>
<time>2012-03-24T13:10:19.000Z</time>
</trkpt>
<trkpt lat="43.56317" lon="5.35542">
<ele>252.3</ele>
<time>2012-03-24T13:10:21.000Z</time>
</trkpt>
<trkpt lat="43.56321" lon="5.35551">
<ele>252.6</ele>
<time>2012-03-24T13:10:23.000Z</time>
</trkpt>
<trkpt lat="43.56325" lon="5.35554">
<ele>252.6</ele>
<time>2012-03-24T13:10:24.000Z</time>
</trkpt>
<trkpt lat="43.56331" lon="5.35562">
<ele>253.4</ele>
<time>2012-03-24T13:10:26.000Z</time>
</trkpt>
<trkpt lat="43.56335" lon="5.35564">
<ele>253.5</ele>
<time>2012-03-24T13:10:27.000Z</time>
</trkpt>
<trkpt lat="43.56342" lon="5.3557">
<ele>254.5</ele>
<time>2012-03-24T13:10:29.000Z</time>
</trkpt>
<trkpt lat="43.56349" lon="5.35576">
<ele>255.1</ele>
<time>2012-03-24T13:10:31.000Z</time>
</trkpt>
<trkpt lat="43.56356" lon="5.35581">
<ele>255.4</ele>
<time>2012-03-24T13:10:33.000Z</time>
</trkpt>
<trkpt lat="43.56362" lon="5.35586">
<ele>256.1</ele>
<time>2012-03-24T13:10:35.000Z</time>
</trkpt>
<trkpt lat="43.56369" lon="5.35591">
<ele>257.2</ele>
<time>2012-03-24T13:10:37.000Z</time>
</trkpt>
<trkpt lat="43.56376" lon="5.35595">
<ele>257.6</ele>
<time>2012-03-24T13:10:39.000Z</time>
</trkpt>
<trkpt lat="43.56383" lon="5.35599">
<ele>258.7</ele>
<time>2012-03-24T13:10:41.000Z</time>
</trkpt>
<trkpt lat="43.5639" lon="5.35605">
<ele>258.1</ele>
<time>2012-03-24T13:10:43.000Z</time>
</trkpt>
<trkpt lat="43.56396" lon="5.3561">
<ele>259.5</ele>
<time>2012-03-24T13:10:45.000Z</time>
</trkpt>
<trkpt lat="43.56403" lon="5.35616">
<ele>260.5</ele>
<time>2012-03-24T13:10:47.000Z</time>
</trkpt>
<trkpt lat="43.5641" lon="5.35621">
<ele>261</ele>
<time>2012-03-24T13:10:49.000Z</time>
</trkpt>
<trkpt lat="43.56417" lon="5.35625">
<ele>261.9</ele>
<time>2012-03-24T13:10:51.000Z</time>
</trkpt>
<trkpt lat="43.56424" lon="5.3563">
<ele>262.9</ele>
<time>2012-03-24T13:10:53.000Z</time>
</trkpt>
<trkpt lat="43.56431" lon="5.35636">
<ele>264</ele>
<time>2012-03-24T13:10:55.000Z</time>
</trkpt>
<trkpt lat="43.56438" lon="5.35641">
<ele>264.5</ele>
<time>2012-03-24T13:10:57.000Z</time>
</trkpt>
<trkpt lat="43.56444" lon="5.35646">
<ele>264.7</ele>
<time>2012-03-24T13:10:59.000Z</time>
</trkpt>
<trkpt lat="43.56451" lon="5.3565">
<ele>265.4</ele>
<time>2012-03-24T13:11:01.000Z</time>
</trkpt>
<trkpt lat="43.56457" lon="5.35655">
<ele>266</ele>
<time>2012-03-24T13:11:03.000Z</time>
</trkpt>
<trkpt lat="43.56464" lon="5.3566">
<ele>266.2</ele>
<time>2012-03-24T13:11:05.000Z</time>
</trkpt>
<trkpt lat="43.56471" lon="5.35666">
<ele>266.5</ele>
<time>2012-03-24T13:11:07.000Z</time>
</trkpt>
<trkpt lat="43.56477" lon="5.35671">
<ele>266.7</ele>
<time>2012-03-24T13:11:09.000Z</time>
</trkpt>
<trkpt lat="43.56484" lon="5.35675">
<ele>267.6</ele>
<time>2012-03-24T13:11:11.000Z</time>
</trkpt>
<trkpt lat="43.5649" lon="5.3568">
<ele>268.4</ele>
<time>2012-03-24T13:11:13.000Z</time>
</trkpt>
<trkpt lat="43.56496" lon="5.35685">
<ele>269.4</ele>
<time>2012-03-24T13:11:15.000Z</time>
</trkpt>
<trkpt lat="43.56502" lon="5.35691">
<ele>270.1</ele>
<time>2012-03-24T13:11:17.000Z</time>
</trkpt>
<trkpt lat="43.56508" lon="5.35698">
<ele>270.4</ele>
<time>2012-03-24T13:11:19.000Z</time>
</trkpt>
<trkpt lat="43.56512" lon="5.35706">
<ele>271</ele>
<time>2012-03-24T13:11:21.000Z</time>
</trkpt>
<trkpt lat="43.56515" lon="5.35715">
<ele>270.6</ele>
<time>2012-03-24T13:11:23.000Z</time>
</trkpt>
<trkpt lat="43.56515" lon="5.35725">
<ele>270.9</ele>
<time>2012-03-24T13:11:25.000Z</time>
</trkpt>
<trkpt lat="43.56515" lon="5.35735">
<ele>271.6</ele>
<time>2012-03-24T13:11:27.000Z</time>
</trkpt>
<trkpt lat="43.56514" lon="5.35744">
<ele>271.9</ele>
<time>2012-03-24T13:11:29.000Z</time>
</trkpt>
<trkpt lat="43.56511" lon="5.35753">
<ele>272.1</ele>
<time>2012-03-24T13:11:31.000Z</time>
</trkpt>
<trkpt lat="43.56509" lon="5.35762">
<ele>273.1</ele>
<time>2012-03-24T13:11:33.000Z</time>
</trkpt>
<trkpt lat="43.56506" lon="5.35772">
<ele>273.7</ele>
<time>2012-03-24T13:11:35.000Z</time>
</trkpt>
<trkpt lat="43.56505" lon="5.35783">
<ele>274.5</ele>
<time>2012-03-24T13:11:37.000Z</time>
</trkpt>
<trkpt lat="43.56504" lon="5.35794">
<ele>275</ele>
<time>2012-03-24T13:11:39.000Z</time>
</trkpt>
<trkpt lat="43.56504" lon="5.35804">
<ele>275.3</ele>
<time>2012-03-24T13:11:41.000Z</time>
</trkpt>
<trkpt lat="43.56505" lon="5.35815">
<ele>276</ele>
<time>2012-03-24T13:11:43.000Z</time>
</trkpt>
<trkpt lat="43.56507" lon="5.35826">
<ele>277.6</ele>
<time>2012-03-24T13:11:45.000Z</time>
</trkpt>
<trkpt lat="43.5651" lon="5.35836">
<ele>278</ele>
<time>2012-03-24T13:11:47.000Z</time>
</trkpt>
<trkpt lat="43.56516" lon="5.35842">
<ele>279</ele>
<time>2012-03-24T13:11:49.000Z</time>
</trkpt>
<trkpt lat="43.56523" lon="5.35847">
<ele>280</ele>
<time>2012-03-24T13:11:51.000Z</time>
</trkpt>
<trkpt lat="43.56528" lon="5.35854">
<ele>281</ele>
<time>2012-03-24T13:11:53.000Z</time>
</trkpt>
<trkpt lat="43.56534" lon="5.35861">
<ele>281.1</ele>
<time>2012-03-24T13:11:55.000Z</time>
</trkpt>
<trkpt lat="43.56539" lon="5.35869">
<ele>281.5</ele>
<time>2012-03-24T13:11:57.000Z</time>
</trkpt>
<trkpt lat="43.56544" lon="5.35877">
<ele>282.2</ele>
<time>2012-03-24T13:11:59.000Z</time>
</trkpt>
<trkpt lat="43.56549" lon="5.35886">
<ele>282.7</ele>
<time>2012-03-24T13:12:01.000Z</time>
</trkpt>
<trkpt lat="43.56554" lon="5.35894">
<ele>283.3</ele>
<time>2012-03-24T13:12:03.000Z</time>
</trkpt>
<trkpt lat="43.56559" lon="5.35902">
<ele>283.8</ele>
<time>2012-03-24T13:12:05.000Z</time>
</trkpt>
<trkpt lat="43.56564" lon="5.35911">
<ele>284.7</ele>
<time>2012-03-24T13:12:07.000Z</time>
</trkpt>
<trkpt lat="43.56569" lon="5.35919">
<ele>285.4</ele>
<time>2012-03-24T13:12:09.000Z</time>
</trkpt>
<trkpt lat="43.56574" lon="5.35926">
<ele>286.1</ele>
<time>2012-03-24T13:12:11.000Z</time>
</trkpt>
<trkpt lat="43.5658" lon="5.35933">
<ele>286.6</ele>
<time>2012-03-24T13:12:13.000Z</time>
</trkpt>
<trkpt lat="43.56585" lon="5.35939">
<ele>287.3</ele>
<time>2012-03-24T13:12:15.000Z</time>
</trkpt>
<trkpt lat="43.56591" lon="5.35945">
<ele>287.8</ele>
<time>2012-03-24T13:12:17.000Z</time>
</trkpt>
<trkpt lat="43.56598" lon="5.35951">
<ele>287.9</ele>
<time>2012-03-24T13:12:19.000Z</time>
</trkpt>
<trkpt lat="43.56605" lon="5.35955">
<ele>288.1</ele>
<time>2012-03-24T13:12:21.000Z</time>
</trkpt>
<trkpt lat="43.56612" lon="5.35958">
<ele>288.5</ele>
<time>2012-03-24T13:12:23.000Z</time>
</trkpt>
<trkpt lat="43.56619" lon="5.35961">
<ele>288.5</ele>
<time>2012-03-24T13:12:25.000Z</time>
</trkpt>
<trkpt lat="43.56626" lon="5.35962">
<ele>289.2</ele>
<time>2012-03-24T13:12:27.000Z</time>
</trkpt>
<trkpt lat="43.56634" lon="5.35964">
<ele>289.4</ele>
<time>2012-03-24T13:12:29.000Z</time>
</trkpt>
<trkpt lat="43.5664" lon="5.35965">
<ele>290.1</ele>
<time>2012-03-24T13:12:31.000Z</time>
</trkpt>
<trkpt lat="43.56648" lon="5.35966">
<ele>290.7</ele>
<time>2012-03-24T13:12:33.000Z</time>
</trkpt>
<trkpt lat="43.56655" lon="5.35968">
<ele>291.6</ele>
<time>2012-03-24T13:12:35.000Z</time>
</trkpt>
<trkpt lat="43.56662" lon="5.3597">
<ele>291.9</ele>
<time>2012-03-24T13:12:37.000Z</time>
</trkpt>
<trkpt lat="43.5667" lon="5.35971">
<ele>292.3</ele>
<time>2012-03-24T13:12:39.000Z</time>
</trkpt>
<trkpt lat="43.56677" lon="5.35972">
<ele>293.1</ele>
<time>2012-03-24T13:12:41.000Z</time>
</trkpt>
<trkpt lat="43.56684" lon="5.35973">
<ele>293.7</ele>
<time>2012-03-24T13:12:43.000Z</time>
</trkpt>
<trkpt lat="43.56691" lon="5.35974">
<ele>293.8</ele>
<time>2012-03-24T13:12:45.000Z</time>
</trkpt>
<trkpt lat="43.56699" lon="5.35975">
<ele>294.4</ele>
<time>2012-03-24T13:12:47.000Z</time>
</trkpt>
<trkpt lat="43.56706" lon="5.35975">
<ele>295</ele>
<time>2012-03-24T13:12:49.000Z</time>
</trkpt>
<trkpt lat="43.56713" lon="5.35974">
<ele>295.3</ele>
<time>2012-03-24T13:12:51.000Z</time>
</trkpt>
<trkpt lat="43.5672" lon="5.35971">
<ele>295.6</ele>
<time>2012-03-24T13:12:53.000Z</time>
</trkpt>
<trkpt lat="43.56728" lon="5.35968">
<ele>295.9</ele>
<time>2012-03-24T13:12:55.000Z</time>
</trkpt>
<trkpt lat="43.56735" lon="5.35965">
<ele>296.5</ele>
<time>2012-03-24T13:12:57.000Z</time>
</trkpt>
<trkpt lat="43.56742" lon="5.35962">
<ele>297</ele>
<time>2012-03-24T13:12:59.000Z</time>
</trkpt>
<trkpt lat="43.56749" lon="5.35958">
<ele>297</ele>
<time>2012-03-24T13:13:01.000Z</time>
</trkpt>
<trkpt lat="43.56756" lon="5.35955">
<ele>297.8</ele>
<time>2012-03-24T13:13:03.000Z</time>
</trkpt>
<trkpt lat="43.56764" lon="5.35951">
<ele>298.5</ele>
<time>2012-03-24T13:13:05.000Z</time>
</trkpt>
<trkpt lat="43.56772" lon="5.3595">
<ele>299.5</ele>
<time>2012-03-24T13:13:07.000Z</time>
</trkpt>
<trkpt lat="43.56779" lon="5.35952">
<ele>300.1</ele>
<time>2012-03-24T13:13:09.000Z</time>
</trkpt>
<trkpt lat="43.56786" lon="5.35956">
<ele>300.1</ele>
<time>2012-03-24T13:13:11.000Z</time>
</trkpt>
<trkpt lat="43.56792" lon="5.35962">
<ele>300.4</ele>
<time>2012-03-24T13:13:13.000Z</time>
</trkpt>
<trkpt lat="43.56798" lon="5.3597">
<ele>300.9</ele>
<time>2012-03-24T13:13:15.000Z</time>
</trkpt>
<trkpt lat="43.56803" lon="5.35977">
<ele>301.7</ele>
<time>2012-03-24T13:13:17.000Z</time>
</trkpt>
<trkpt lat="43.56808" lon="5.35984">
<ele>302.7</ele>
<time>2012-03-24T13:13:19.000Z</time>
</trkpt>
<trkpt lat="43.56813" lon="5.35991">
<ele>303.6</ele>
<time>2012-03-24T13:13:21.000Z</time>
</trkpt>
<trkpt lat="43.56818" lon="5.35999">
<ele>303.6</ele>
<time>2012-03-24T13:13:23.000Z</time>
</trkpt>
<trkpt lat="43.56824" lon="5.36006">
<ele>304.1</ele>
<time>2012-03-24T13:13:25.000Z</time>
</trkpt>
<trkpt lat="43.56829" lon="5.36013">
<ele>304.3</ele>
<time>2012-03-24T13:13:27.000Z</time>
</trkpt>
<trkpt lat="43.56834" lon="5.3602">
<ele>304.4</ele>
<time>2012-03-24T13:13:29.000Z</time>
</trkpt>
<trkpt lat="43.5684" lon="5.36027">
<ele>305.1</ele>
<time>2012-03-24T13:13:31.000Z</time>
</trkpt>
<trkpt lat="43.56846" lon="5.36034">
<ele>305.3</ele>
<time>2012-03-24T13:13:33.000Z</time>
</trkpt>
<trkpt lat="43.56852" lon="5.3604">
<ele>306.5</ele>
<time>2012-03-24T13:13:35.000Z</time>
</trkpt>
<trkpt lat="43.56859" lon="5.36045">
<ele>307.7</ele>
<time>2012-03-24T13:13:37.000Z</time>
</trkpt>
<trkpt lat="43.56866" lon="5.36046">
<ele>308.1</ele>
<time>2012-03-24T13:13:39.000Z</time>
</trkpt>
<trkpt lat="43.56871" lon="5.36041">
<ele>307.7</ele>
<time>2012-03-24T13:13:40.000Z</time>
</trkpt>
<trkpt lat="43.56877" lon="5.36034">
<ele>308.4</ele>
<time>2012-03-24T13:13:42.000Z</time>
</trkpt>
<trkpt lat="43.56881" lon="5.36026">
<ele>309.3</ele>
<time>2012-03-24T13:13:44.000Z</time>
</trkpt>
<trkpt lat="43.5688" lon="5.36016">
<ele>309.1</ele>
<time>2012-03-24T13:13:46.000Z</time>
</trkpt>
<trkpt lat="43.5688" lon="5.36005">
<ele>309.2</ele>
<time>2012-03-24T13:13:48.000Z</time>
</trkpt>
<trkpt lat="43.56876" lon="5.35996">
<ele>309.7</ele>
<time>2012-03-24T13:13:50.000Z</time>
</trkpt>
<trkpt lat="43.56873" lon="5.35986">
<ele>310.2</ele>
<time>2012-03-24T13:13:52.000Z</time>
</trkpt>
<trkpt lat="43.5687" lon="5.35975">
<ele>310.6</ele>
<time>2012-03-24T13:13:54.000Z</time>
</trkpt>
<trkpt lat="43.56868" lon="5.35965">
<ele>311.1</ele>
<time>2012-03-24T13:13:56.000Z</time>
</trkpt>
<trkpt lat="43.56865" lon="5.35955">
<ele>311.4</ele>
<time>2012-03-24T13:13:58.000Z</time>
</trkpt>
<trkpt lat="43.56862" lon="5.35945">
<ele>311.9</ele>
<time>2012-03-24T13:14:00.000Z</time>
</trkpt>
<trkpt lat="43.56859" lon="5.35935">
<ele>312.2</ele>
<time>2012-03-24T13:14:02.000Z</time>
</trkpt>
<trkpt lat="43.56855" lon="5.35926">
<ele>312.8</ele>
<time>2012-03-24T13:14:04.000Z</time>
</trkpt>
<trkpt lat="43.56853" lon="5.35919">
<ele>312.8</ele>
<time>2012-03-24T13:14:06.000Z</time>
</trkpt>
<trkpt lat="43.56851" lon="5.35909">
<ele>315.5</ele>
<time>2012-03-24T13:14:08.000Z</time>
</trkpt>
<trkpt lat="43.5685" lon="5.35902">
<ele>315.5</ele>
<time>2012-03-24T13:14:09.000Z</time>
</trkpt>
<trkpt lat="43.56846" lon="5.35891">
<ele>316</ele>
<time>2012-03-24T13:14:11.000Z</time>
</trkpt>
<trkpt lat="43.56843" lon="5.3588">
<ele>315.8</ele>
<time>2012-03-24T13:14:13.000Z</time>
</trkpt>
<trkpt lat="43.56842" lon="5.35874">
<ele>315.8</ele>
<time>2012-03-24T13:14:14.000Z</time>
</trkpt>
<trkpt lat="43.5684" lon="5.35863">
<ele>316.1</ele>
<time>2012-03-24T13:14:16.000Z</time>
</trkpt>
<trkpt lat="43.56838" lon="5.35852">
<ele>316.5</ele>
<time>2012-03-24T13:14:18.000Z</time>
</trkpt>
<trkpt lat="43.56837" lon="5.35842">
<ele>317.5</ele>
<time>2012-03-24T13:14:20.000Z</time>
</trkpt>
<trkpt lat="43.56836" lon="5.35831">
<ele>318.7</ele>
<time>2012-03-24T13:14:22.000Z</time>
</trkpt>
<trkpt lat="43.56835" lon="5.35821">
<ele>319.7</ele>
<time>2012-03-24T13:14:24.000Z</time>
</trkpt>
<trkpt lat="43.56833" lon="5.35812">
<ele>320.4</ele>
<time>2012-03-24T13:14:26.000Z</time>
</trkpt>
<trkpt lat="43.56834" lon="5.35801">
<ele>320.2</ele>
<time>2012-03-24T13:14:28.000Z</time>
</trkpt>
<trkpt lat="43.56833" lon="5.35791">
<ele>320.6</ele>
<time>2012-03-24T13:14:30.000Z</time>
</trkpt>
<trkpt lat="43.56832" lon="5.35782">
<ele>320.7</ele>
<time>2012-03-24T13:14:32.000Z</time>
</trkpt>
<trkpt lat="43.56831" lon="5.35772">
<ele>320.5</ele>
<time>2012-03-24T13:14:34.000Z</time>
</trkpt>
<trkpt lat="43.5683" lon="5.35762">
<ele>320.8</ele>
<time>2012-03-24T13:14:36.000Z</time>
</trkpt>
<trkpt lat="43.56831" lon="5.35754">
<ele>321.1</ele>
<time>2012-03-24T13:14:37.000Z</time>
</trkpt>
<trkpt lat="43.56831" lon="5.35744">
<ele>321.3</ele>
<time>2012-03-24T13:14:39.000Z</time>
</trkpt>
<trkpt lat="43.56833" lon="5.35731">
<ele>322.6</ele>
<time>2012-03-24T13:14:41.000Z</time>
</trkpt>
<trkpt lat="43.56833" lon="5.35719">
<ele>322.8</ele>
<time>2012-03-24T13:14:43.000Z</time>
</trkpt>
<trkpt lat="43.56834" lon="5.35708">
<ele>323.2</ele>
<time>2012-03-24T13:14:45.000Z</time>
</trkpt>
<trkpt lat="43.56834" lon="5.35698">
<ele>322.8</ele>
<time>2012-03-24T13:14:47.000Z</time>
</trkpt>
<trkpt lat="43.56835" lon="5.35687">
<ele>323</ele>
<time>2012-03-24T13:14:49.000Z</time>
</trkpt>
<trkpt lat="43.56837" lon="5.35675">
<ele>323.4</ele>
<time>2012-03-24T13:14:51.000Z</time>
</trkpt>
<trkpt lat="43.56838" lon="5.35669">
<ele>323.5</ele>
<time>2012-03-24T13:14:52.000Z</time>
</trkpt>
<trkpt lat="43.56838" lon="5.35656">
<ele>324.1</ele>
<time>2012-03-24T13:14:54.000Z</time>
</trkpt>
<trkpt lat="43.5684" lon="5.35646">
<ele>324.4</ele>
<time>2012-03-24T13:14:56.000Z</time>
</trkpt>
<trkpt lat="43.5684" lon="5.35635">
<ele>325.1</ele>
<time>2012-03-24T13:14:58.000Z</time>
</trkpt>
<trkpt lat="43.56841" lon="5.35625">
<ele>325.5</ele>
<time>2012-03-24T13:15:00.000Z</time>
</trkpt>
<trkpt lat="43.5684" lon="5.35612">
<ele>326.3</ele>
<time>2012-03-24T13:15:02.000Z</time>
</trkpt>
<trkpt lat="43.56839" lon="5.35602">
<ele>326.1</ele>
<time>2012-03-24T13:15:04.000Z</time>
</trkpt>
<trkpt lat="43.56839" lon="5.35592">
<ele>327.2</ele>
<time>2012-03-24T13:15:05.000Z</time>
</trkpt>
<trkpt lat="43.5684" lon="5.35582">
<ele>326.9</ele>
<time>2012-03-24T13:15:07.000Z</time>
</trkpt>
<trkpt lat="43.5684" lon="5.35572">
<ele>327.2</ele>
<time>2012-03-24T13:15:09.000Z</time>
</trkpt>
<trkpt lat="43.5684" lon="5.35565">
<ele>327.1</ele>
<time>2012-03-24T13:15:10.000Z</time>
</trkpt>
<trkpt lat="43.56841" lon="5.35558">
<ele>327</ele>
<time>2012-03-24T13:15:11.000Z</time>
</trkpt>
<trkpt lat="43.56843" lon="5.35552">
<ele>327.3</ele>
<time>2012-03-24T13:15:12.000Z</time>
</trkpt>
<trkpt lat="43.56845" lon="5.3554">
<ele>327.1</ele>
<time>2012-03-24T13:15:14.000Z</time>
</trkpt>
<trkpt lat="43.56846" lon="5.35529">
<ele>327.2</ele>
<time>2012-03-24T13:15:16.000Z</time>
</trkpt>
<trkpt lat="43.56846" lon="5.35523">
<ele>327.2</ele>
<time>2012-03-24T13:15:17.000Z</time>
</trkpt>
<trkpt lat="43.56849" lon="5.35518">
<ele>327.2</ele>
<time>2012-03-24T13:15:18.000Z</time>
</trkpt>
<trkpt lat="43.5685" lon="5.35511">
<ele>327.7</ele>
<time>2012-03-24T13:15:19.000Z</time>
</trkpt>
<trkpt lat="43.56854" lon="5.35498">
<ele>327.9</ele>
<time>2012-03-24T13:15:21.000Z</time>
</trkpt>
<trkpt lat="43.56855" lon="5.35492">
<ele>328</ele>
<time>2012-03-24T13:15:22.000Z</time>
</trkpt>
<trkpt lat="43.56857" lon="5.35484">
<ele>327.9</ele>
<time>2012-03-24T13:15:23.000Z</time>
</trkpt>
<trkpt lat="43.56862" lon="5.35474">
<ele>328.1</ele>
<time>2012-03-24T13:15:25.000Z</time>
</trkpt>
<trkpt lat="43.56868" lon="5.35471">
<ele>327.9</ele>
<time>2012-03-24T13:15:26.000Z</time>
</trkpt>
<trkpt lat="43.56872" lon="5.35468">
<ele>327.7</ele>
<time>2012-03-24T13:15:27.000Z</time>
</trkpt>
<trkpt lat="43.56878" lon="5.35462">
<ele>327.8</ele>
<time>2012-03-24T13:15:29.000Z</time>
</trkpt>
<trkpt lat="43.56883" lon="5.35461">
<ele>327.8</ele>
<time>2012-03-24T13:15:30.000Z</time>
</trkpt>
<trkpt lat="43.56887" lon="5.35457">
<ele>328</ele>
<time>2012-03-24T13:15:31.000Z</time>
</trkpt>
<trkpt lat="43.56892" lon="5.3545">
<ele>328</ele>
<time>2012-03-24T13:15:32.000Z</time>
</trkpt>
<trkpt lat="43.56898" lon="5.35442">
<ele>328.1</ele>
<time>2012-03-24T13:15:34.000Z</time>
</trkpt>
<trkpt lat="43.56902" lon="5.35438">
<ele>328.6</ele>
<time>2012-03-24T13:15:35.000Z</time>
</trkpt>
<trkpt lat="43.56906" lon="5.35438">
<ele>329.1</ele>
<time>2012-03-24T13:15:36.000Z</time>
</trkpt>
<trkpt lat="43.56914" lon="5.35432">
<ele>330</ele>
<time>2012-03-24T13:15:38.000Z</time>
</trkpt>
<trkpt lat="43.56919" lon="5.35428">
<ele>330.7</ele>
<time>2012-03-24T13:15:39.000Z</time>
</trkpt>
<trkpt lat="43.56928" lon="5.35428">
<ele>332.6</ele>
<time>2012-03-24T13:15:40.000Z</time>
</trkpt>
<trkpt lat="43.56932" lon="5.35428">
<ele>332.8</ele>
<time>2012-03-24T13:15:41.000Z</time>
</trkpt>
<trkpt lat="43.56939" lon="5.35428">
<ele>332.9</ele>
<time>2012-03-24T13:15:42.000Z</time>
</trkpt>
<trkpt lat="43.56944" lon="5.35427">
<ele>332.9</ele>
<time>2012-03-24T13:15:43.000Z</time>
</trkpt>
<trkpt lat="43.56948" lon="5.35425">
<ele>332.9</ele>
<time>2012-03-24T13:15:44.000Z</time>
</trkpt>
<trkpt lat="43.56957" lon="5.35425">
<ele>333.4</ele>
<time>2012-03-24T13:15:46.000Z</time>
</trkpt>
<trkpt lat="43.56962" lon="5.35426">
<ele>333.6</ele>
<time>2012-03-24T13:15:47.000Z</time>
</trkpt>
<trkpt lat="43.56971" lon="5.35427">
<ele>333.3</ele>
<time>2012-03-24T13:15:49.000Z</time>
</trkpt>
<trkpt lat="43.56976" lon="5.35428">
<ele>333.3</ele>
<time>2012-03-24T13:15:50.000Z</time>
</trkpt>
<trkpt lat="43.56981" lon="5.35429">
<ele>333.9</ele>
<time>2012-03-24T13:15:51.000Z</time>
</trkpt>
<trkpt lat="43.56985" lon="5.35431">
<ele>334.6</ele>
<time>2012-03-24T13:15:52.000Z</time>
</trkpt>
<trkpt lat="43.56993" lon="5.3543">
<ele>336</ele>
<time>2012-03-24T13:15:54.000Z</time>
</trkpt>
<trkpt lat="43.56998" lon="5.35434">
<ele>335.3</ele>
<time>2012-03-24T13:15:55.000Z</time>
</trkpt>
<trkpt lat="43.57006" lon="5.35434">
<ele>338.4</ele>
<time>2012-03-24T13:15:57.000Z</time>
</trkpt>
<trkpt lat="43.57011" lon="5.35436">
<ele>337.3</ele>
<time>2012-03-24T13:15:58.000Z</time>
</trkpt>
<trkpt lat="43.57019" lon="5.35436">
<ele>337.5</ele>
<time>2012-03-24T13:16:00.000Z</time>
</trkpt>
<trkpt lat="43.57024" lon="5.35436">
<ele>337.3</ele>
<time>2012-03-24T13:16:01.000Z</time>
</trkpt>
<trkpt lat="43.57029" lon="5.35436">
<ele>338.1</ele>
<time>2012-03-24T13:16:02.000Z</time>
</trkpt>
<trkpt lat="43.57033" lon="5.35436">
<ele>338.7</ele>
<time>2012-03-24T13:16:03.000Z</time>
</trkpt>
<trkpt lat="43.57038" lon="5.35437">
<ele>339.5</ele>
<time>2012-03-24T13:16:04.000Z</time>
</trkpt>
<trkpt lat="43.57047" lon="5.35437">
<ele>340.3</ele>
<time>2012-03-24T13:16:06.000Z</time>
</trkpt>
<trkpt lat="43.57055" lon="5.35438">
<ele>340.4</ele>
<time>2012-03-24T13:16:08.000Z</time>
</trkpt>
<trkpt lat="43.57063" lon="5.35439">
<ele>340.5</ele>
<time>2012-03-24T13:16:10.000Z</time>
</trkpt>
<trkpt lat="43.57069" lon="5.35438">
<ele>341.9</ele>
<time>2012-03-24T13:16:12.000Z</time>
</trkpt>
<trkpt lat="43.57073" lon="5.35448">
<ele>339</ele>
<time>2012-03-24T13:16:13.000Z</time>
</trkpt>
<trkpt lat="43.57078" lon="5.35457">
<ele>340</ele>
<time>2012-03-24T13:16:15.000Z</time>
</trkpt>
<trkpt lat="43.57078" lon="5.35464">
<ele>339</ele>
<time>2012-03-24T13:16:16.000Z</time>
</trkpt>
<trkpt lat="43.57078" lon="5.3547">
<ele>338.7</ele>
<time>2012-03-24T13:16:17.000Z</time>
</trkpt>
<trkpt lat="43.57077" lon="5.35484">
<ele>338.1</ele>
<time>2012-03-24T13:16:19.000Z</time>
</trkpt>
<trkpt lat="43.57074" lon="5.3549">
<ele>338.8</ele>
<time>2012-03-24T13:16:20.000Z</time>
</trkpt>
<trkpt lat="43.57073" lon="5.35497">
<ele>338.5</ele>
<time>2012-03-24T13:16:21.000Z</time>
</trkpt>
<trkpt lat="43.57072" lon="5.35504">
<ele>338.5</ele>
<time>2012-03-24T13:16:22.000Z</time>
</trkpt>
<trkpt lat="43.57071" lon="5.35511">
<ele>338.2</ele>
<time>2012-03-24T13:16:23.000Z</time>
</trkpt>
<trkpt lat="43.5707" lon="5.35517">
<ele>338.6</ele>
<time>2012-03-24T13:16:24.000Z</time>
</trkpt>
<trkpt lat="43.5707" lon="5.35524">
<ele>338.9</ele>
<time>2012-03-24T13:16:25.000Z</time>
</trkpt>
<trkpt lat="43.57069" lon="5.3553">
<ele>338.8</ele>
<time>2012-03-24T13:16:26.000Z</time>
</trkpt>
<trkpt lat="43.57068" lon="5.35536">
<ele>339</ele>
<time>2012-03-24T13:16:27.000Z</time>
</trkpt>
<trkpt lat="43.57067" lon="5.35543">
<ele>338.6</ele>
<time>2012-03-24T13:16:28.000Z</time>
</trkpt>
<trkpt lat="43.57066" lon="5.35551">
<ele>339.1</ele>
<time>2012-03-24T13:16:29.000Z</time>
</trkpt>
<trkpt lat="43.57066" lon="5.35558">
<ele>339.7</ele>
<time>2012-03-24T13:16:30.000Z</time>
</trkpt>
<trkpt lat="43.57064" lon="5.35565">
<ele>340.1</ele>
<time>2012-03-24T13:16:31.000Z</time>
</trkpt>
<trkpt lat="43.57063" lon="5.35574">
<ele>340.3</ele>
<time>2012-03-24T13:16:32.000Z</time>
</trkpt>
<trkpt lat="43.57062" lon="5.35582">
<ele>340.2</ele>
<time>2012-03-24T13:16:33.000Z</time>
</trkpt>
<trkpt lat="43.5706" lon="5.35592">
<ele>340</ele>
<time>2012-03-24T13:16:34.000Z</time>
</trkpt>
<trkpt lat="43.57058" lon="5.356">
<ele>339.8</ele>
<time>2012-03-24T13:16:35.000Z</time>
</trkpt>
<trkpt lat="43.57056" lon="5.35608">
<ele>339.8</ele>
<time>2012-03-24T13:16:36.000Z</time>
</trkpt>
<trkpt lat="43.57053" lon="5.35617">
<ele>338.7</ele>
<time>2012-03-24T13:16:37.000Z</time>
</trkpt>
<trkpt lat="43.57052" lon="5.35625">
<ele>339</ele>
<time>2012-03-24T13:16:38.000Z</time>
</trkpt>
<trkpt lat="43.5705" lon="5.35633">
<ele>339.4</ele>
<time>2012-03-24T13:16:39.000Z</time>
</trkpt>
<trkpt lat="43.57048" lon="5.35642">
<ele>339.3</ele>
<time>2012-03-24T13:16:40.000Z</time>
</trkpt>
<trkpt lat="43.57048" lon="5.35651">
<ele>340.1</ele>
<time>2012-03-24T13:16:41.000Z</time>
</trkpt>
<trkpt lat="43.57048" lon="5.3566">
<ele>339.8</ele>
<time>2012-03-24T13:16:42.000Z</time>
</trkpt>
<trkpt lat="43.57047" lon="5.35668">
<ele>340.3</ele>
<time>2012-03-24T13:16:43.000Z</time>
</trkpt>
<trkpt lat="43.57047" lon="5.35676">
<ele>340.3</ele>
<time>2012-03-24T13:16:44.000Z</time>
</trkpt>
<trkpt lat="43.57049" lon="5.35685">
<ele>340.7</ele>
<time>2012-03-24T13:16:45.000Z</time>
</trkpt>
<trkpt lat="43.5705" lon="5.35693">
<ele>340.9</ele>
<time>2012-03-24T13:16:46.000Z</time>
</trkpt>
<trkpt lat="43.57052" lon="5.35702">
<ele>341.5</ele>
<time>2012-03-24T13:16:47.000Z</time>
</trkpt>
<trkpt lat="43.57054" lon="5.35709">
<ele>342.1</ele>
<time>2012-03-24T13:16:48.000Z</time>
</trkpt>
<trkpt lat="43.57057" lon="5.35716">
<ele>342.4</ele>
<time>2012-03-24T13:16:49.000Z</time>
</trkpt>
<trkpt lat="43.57059" lon="5.35722">
<ele>343</ele>
<time>2012-03-24T13:16:50.000Z</time>
</trkpt>
<trkpt lat="43.57062" lon="5.35727">
<ele>342.9</ele>
<time>2012-03-24T13:16:51.000Z</time>
</trkpt>
<trkpt lat="43.57064" lon="5.35733">
<ele>343.3</ele>
<time>2012-03-24T13:16:52.000Z</time>
</trkpt>
<trkpt lat="43.57067" lon="5.35737">
<ele>343.8</ele>
<time>2012-03-24T13:16:53.000Z</time>
</trkpt>
<trkpt lat="43.57072" lon="5.35746">
<ele>344.4</ele>
<time>2012-03-24T13:16:55.000Z</time>
</trkpt>
<trkpt lat="43.57074" lon="5.35754">
<ele>344.4</ele>
<time>2012-03-24T13:16:57.000Z</time>
</trkpt>
<trkpt lat="43.57076" lon="5.35763">
<ele>344.4</ele>
<time>2012-03-24T13:16:59.000Z</time>
</trkpt>
<trkpt lat="43.57079" lon="5.35773">
<ele>344.7</ele>
<time>2012-03-24T13:17:01.000Z</time>
</trkpt>
<trkpt lat="43.57082" lon="5.35784">
<ele>344.6</ele>
<time>2012-03-24T13:17:03.000Z</time>
</trkpt>
<trkpt lat="43.57086" lon="5.35795">
<ele>344.8</ele>
<time>2012-03-24T13:17:05.000Z</time>
</trkpt>
<trkpt lat="43.5709" lon="5.35806">
<ele>345.1</ele>
<time>2012-03-24T13:17:07.000Z</time>
</trkpt>
<trkpt lat="43.57092" lon="5.35812">
<ele>345.7</ele>
<time>2012-03-24T13:17:08.000Z</time>
</trkpt>
<trkpt lat="43.57094" lon="5.35817">
<ele>346.5</ele>
<time>2012-03-24T13:17:09.000Z</time>
</trkpt>
<trkpt lat="43.57096" lon="5.35823">
<ele>346.4</ele>
<time>2012-03-24T13:17:10.000Z</time>
</trkpt>
<trkpt lat="43.57099" lon="5.35829">
<ele>346.4</ele>
<time>2012-03-24T13:17:11.000Z</time>
</trkpt>
<trkpt lat="43.57101" lon="5.35836">
<ele>346.9</ele>
<time>2012-03-24T13:17:12.000Z</time>
</trkpt>
<trkpt lat="43.57103" lon="5.35842">
<ele>347.2</ele>
<time>2012-03-24T13:17:13.000Z</time>
</trkpt>
<trkpt lat="43.57105" lon="5.35848">
<ele>347.5</ele>
<time>2012-03-24T13:17:14.000Z</time>
</trkpt>
<trkpt lat="43.57107" lon="5.35854">
<ele>347.8</ele>
<time>2012-03-24T13:17:15.000Z</time>
</trkpt>
<trkpt lat="43.57109" lon="5.35861">
<ele>347.9</ele>
<time>2012-03-24T13:17:16.000Z</time>
</trkpt>
<trkpt lat="43.57112" lon="5.35867">
<ele>348.1</ele>
<time>2012-03-24T13:17:17.000Z</time>
</trkpt>
<trkpt lat="43.57114" lon="5.35873">
<ele>348</ele>
<time>2012-03-24T13:17:18.000Z</time>
</trkpt>
<trkpt lat="43.57115" lon="5.35879">
<ele>347.9</ele>
<time>2012-03-24T13:17:19.000Z</time>
</trkpt>
<trkpt lat="43.57118" lon="5.35885">
<ele>348.3</ele>
<time>2012-03-24T13:17:20.000Z</time>
</trkpt>
<trkpt lat="43.5712" lon="5.35892">
<ele>348.3</ele>
<time>2012-03-24T13:17:21.000Z</time>
</trkpt>
<trkpt lat="43.57122" lon="5.35898">
<ele>348.6</ele>
<time>2012-03-24T13:17:22.000Z</time>
</trkpt>
<trkpt lat="43.57125" lon="5.35905">
<ele>348.9</ele>
<time>2012-03-24T13:17:23.000Z</time>
</trkpt>
<trkpt lat="43.57127" lon="5.35911">
<ele>349.2</ele>
<time>2012-03-24T13:17:24.000Z</time>
</trkpt>
<trkpt lat="43.57129" lon="5.35918">
<ele>349.5</ele>
<time>2012-03-24T13:17:25.000Z</time>
</trkpt>
<trkpt lat="43.57131" lon="5.35924">
<ele>350</ele>
<time>2012-03-24T13:17:26.000Z</time>
</trkpt>
<trkpt lat="43.57133" lon="5.3593">
<ele>350.1</ele>
<time>2012-03-24T13:17:27.000Z</time>
</trkpt>
<trkpt lat="43.57135" lon="5.35936">
<ele>350.3</ele>
<time>2012-03-24T13:17:28.000Z</time>
</trkpt>
<trkpt lat="43.57137" lon="5.35942">
<ele>350.5</ele>
<time>2012-03-24T13:17:29.000Z</time>
</trkpt>
<trkpt lat="43.57139" lon="5.35949">
<ele>350.5</ele>
<time>2012-03-24T13:17:30.000Z</time>
</trkpt>
<trkpt lat="43.57141" lon="5.35955">
<ele>350.9</ele>
<time>2012-03-24T13:17:31.000Z</time>
</trkpt>
<trkpt lat="43.57143" lon="5.35961">
<ele>351.4</ele>
<time>2012-03-24T13:17:32.000Z</time>
</trkpt>
<trkpt lat="43.57146" lon="5.35967">
<ele>351.7</ele>
<time>2012-03-24T13:17:33.000Z</time>
</trkpt>
<trkpt lat="43.57148" lon="5.35973">
<ele>351.5</ele>
<time>2012-03-24T13:17:34.000Z</time>
</trkpt>
<trkpt lat="43.5715" lon="5.35979">
<ele>351.6</ele>
<time>2012-03-24T13:17:35.000Z</time>
</trkpt>
<trkpt lat="43.57152" lon="5.35985">
<ele>351.6</ele>
<time>2012-03-24T13:17:36.000Z</time>
</trkpt>
<trkpt lat="43.57153" lon="5.3599">
<ele>351.8</ele>
<time>2012-03-24T13:17:37.000Z</time>
</trkpt>
<trkpt lat="43.57156" lon="5.35996">
<ele>352</ele>
<time>2012-03-24T13:17:38.000Z</time>
</trkpt>
<trkpt lat="43.5716" lon="5.36006">
<ele>352.5</ele>
<time>2012-03-24T13:17:40.000Z</time>
</trkpt>
<trkpt lat="43.57163" lon="5.36017">
<ele>352.2</ele>
<time>2012-03-24T13:17:42.000Z</time>
</trkpt>
<trkpt lat="43.57166" lon="5.36028">
<ele>353.3</ele>
<time>2012-03-24T13:17:44.000Z</time>
</trkpt>
<trkpt lat="43.57169" lon="5.36039">
<ele>353.5</ele>
<time>2012-03-24T13:17:46.000Z</time>
</trkpt>
<trkpt lat="43.57174" lon="5.36049">
<ele>354</ele>
<time>2012-03-24T13:17:48.000Z</time>
</trkpt>
<trkpt lat="43.57182" lon="5.36054">
<ele>353.7</ele>
<time>2012-03-24T13:17:50.000Z</time>
</trkpt>
<trkpt lat="43.57189" lon="5.36059">
<ele>353.9</ele>
<time>2012-03-24T13:17:52.000Z</time>
</trkpt>
<trkpt lat="43.57193" lon="5.36064">
<ele>354.4</ele>
<time>2012-03-24T13:17:53.000Z</time>
</trkpt>
<trkpt lat="43.57196" lon="5.36068">
<ele>354.7</ele>
<time>2012-03-24T13:17:54.000Z</time>
</trkpt>
<trkpt lat="43.572" lon="5.36073">
<ele>354.8</ele>
<time>2012-03-24T13:17:55.000Z</time>
</trkpt>
<trkpt lat="43.57203" lon="5.36078">
<ele>355.1</ele>
<time>2012-03-24T13:17:56.000Z</time>
</trkpt>
<trkpt lat="43.57207" lon="5.36083">
<ele>355.2</ele>
<time>2012-03-24T13:17:57.000Z</time>
</trkpt>
<trkpt lat="43.5721" lon="5.36088">
<ele>355.3</ele>
<time>2012-03-24T13:17:58.000Z</time>
</trkpt>
<trkpt lat="43.57214" lon="5.36092">
<ele>355.4</ele>
<time>2012-03-24T13:17:59.000Z</time>
</trkpt>
<trkpt lat="43.57218" lon="5.36097">
<ele>355.6</ele>
<time>2012-03-24T13:18:00.000Z</time>
</trkpt>
<trkpt lat="43.57222" lon="5.361">
<ele>356.1</ele>
<time>2012-03-24T13:18:01.000Z</time>
</trkpt>
<trkpt lat="43.57226" lon="5.36104">
<ele>356.5</ele>
<time>2012-03-24T13:18:02.000Z</time>
</trkpt>
<trkpt lat="43.5723" lon="5.36108">
<ele>356.9</ele>
<time>2012-03-24T13:18:03.000Z</time>
</trkpt>
<trkpt lat="43.57235" lon="5.3611">
<ele>357.7</ele>
<time>2012-03-24T13:18:04.000Z</time>
</trkpt>
<trkpt lat="43.57239" lon="5.36114">
<ele>357.9</ele>
<time>2012-03-24T13:18:05.000Z</time>
</trkpt>
<trkpt lat="43.57243" lon="5.36116">
<ele>357.6</ele>
<time>2012-03-24T13:18:06.000Z</time>
</trkpt>
<trkpt lat="43.57248" lon="5.3612">
<ele>358</ele>
<time>2012-03-24T13:18:07.000Z</time>
</trkpt>
<trkpt lat="43.57253" lon="5.36123">
<ele>358</ele>
<time>2012-03-24T13:18:08.000Z</time>
</trkpt>
<trkpt lat="43.57257" lon="5.36126">
<ele>358.1</ele>
<time>2012-03-24T13:18:09.000Z</time>
</trkpt>
<trkpt lat="43.57261" lon="5.36129">
<ele>358.4</ele>
<time>2012-03-24T13:18:10.000Z</time>
</trkpt>
<trkpt lat="43.57265" lon="5.36132">
<ele>358.5</ele>
<time>2012-03-24T13:18:11.000Z</time>
</trkpt>
<trkpt lat="43.5727" lon="5.36135">
<ele>358.4</ele>
<time>2012-03-24T13:18:12.000Z</time>
</trkpt>
<trkpt lat="43.57274" lon="5.36138">
<ele>358.4</ele>
<time>2012-03-24T13:18:13.000Z</time>
</trkpt>
<trkpt lat="43.57279" lon="5.3614">
<ele>358.6</ele>
<time>2012-03-24T13:18:14.000Z</time>
</trkpt>
<trkpt lat="43.57284" lon="5.36143">
<ele>359.1</ele>
<time>2012-03-24T13:18:15.000Z</time>
</trkpt>
<trkpt lat="43.57289" lon="5.36145">
<ele>359.4</ele>
<time>2012-03-24T13:18:16.000Z</time>
</trkpt>
<trkpt lat="43.57293" lon="5.36148">
<ele>359.7</ele>
<time>2012-03-24T13:18:17.000Z</time>
</trkpt>
<trkpt lat="43.57297" lon="5.36151">
<ele>359.8</ele>
<time>2012-03-24T13:18:18.000Z</time>
</trkpt>
<trkpt lat="43.57302" lon="5.36154">
<ele>360.1</ele>
<time>2012-03-24T13:18:19.000Z</time>
</trkpt>
<trkpt lat="43.57306" lon="5.36158">
<ele>360</ele>
<time>2012-03-24T13:18:20.000Z</time>
</trkpt>
<trkpt lat="43.57308" lon="5.36163">
<ele>360.1</ele>
<time>2012-03-24T13:18:21.000Z</time>
</trkpt>
<trkpt lat="43.57311" lon="5.36169">
<ele>359.9</ele>
<time>2012-03-24T13:18:22.000Z</time>
</trkpt>
<trkpt lat="43.57313" lon="5.36174">
<ele>359.9</ele>
<time>2012-03-24T13:18:23.000Z</time>
</trkpt>
<trkpt lat="43.57316" lon="5.3618">
<ele>359.9</ele>
<time>2012-03-24T13:18:24.000Z</time>
</trkpt>
<trkpt lat="43.57318" lon="5.36186">
<ele>359.7</ele>
<time>2012-03-24T13:18:25.000Z</time>
</trkpt>
<trkpt lat="43.57321" lon="5.36192">
<ele>359.6</ele>
<time>2012-03-24T13:18:26.000Z</time>
</trkpt>
<trkpt lat="43.57324" lon="5.36198">
<ele>359.5</ele>
<time>2012-03-24T13:18:27.000Z</time>
</trkpt>
<trkpt lat="43.57326" lon="5.36204">
<ele>359.6</ele>
<time>2012-03-24T13:18:28.000Z</time>
</trkpt>
<trkpt lat="43.57329" lon="5.3621">
<ele>359.6</ele>
<time>2012-03-24T13:18:29.000Z</time>
</trkpt>
<trkpt lat="43.57332" lon="5.36217">
<ele>359.3</ele>
<time>2012-03-24T13:18:30.000Z</time>
</trkpt>
<trkpt lat="43.57335" lon="5.36224">
<ele>358.4</ele>
<time>2012-03-24T13:18:31.000Z</time>
</trkpt>
<trkpt lat="43.57338" lon="5.3623">
<ele>357.9</ele>
<time>2012-03-24T13:18:32.000Z</time>
</trkpt>
<trkpt lat="43.5734" lon="5.36235">
<ele>357.6</ele>
<time>2012-03-24T13:18:33.000Z</time>
</trkpt>
<trkpt lat="43.57343" lon="5.36242">
<ele>357.6</ele>
<time>2012-03-24T13:18:34.000Z</time>
</trkpt>
<trkpt lat="43.57346" lon="5.36249">
<ele>357.6</ele>
<time>2012-03-24T13:18:35.000Z</time>
</trkpt>
<trkpt lat="43.5735" lon="5.36256">
<ele>357.4</ele>
<time>2012-03-24T13:18:36.000Z</time>
</trkpt>
<trkpt lat="43.57353" lon="5.36263">
<ele>357.1</ele>
<time>2012-03-24T13:18:37.000Z</time>
</trkpt>
<trkpt lat="43.57356" lon="5.36271">
<ele>357.3</ele>
<time>2012-03-24T13:18:38.000Z</time>
</trkpt>
<trkpt lat="43.57359" lon="5.36278">
<ele>357.3</ele>
<time>2012-03-24T13:18:39.000Z</time>
</trkpt>
<trkpt lat="43.57362" lon="5.36285">
<ele>357.1</ele>
<time>2012-03-24T13:18:40.000Z</time>
</trkpt>
<trkpt lat="43.57366" lon="5.36293">
<ele>356.6</ele>
<time>2012-03-24T13:18:41.000Z</time>
</trkpt>
<trkpt lat="43.57369" lon="5.363">
<ele>356.5</ele>
<time>2012-03-24T13:18:42.000Z</time>
</trkpt>
<trkpt lat="43.57373" lon="5.36308">
<ele>356.6</ele>
<time>2012-03-24T13:18:43.000Z</time>
</trkpt>
<trkpt lat="43.57376" lon="5.36316">
<ele>356.6</ele>
<time>2012-03-24T13:18:44.000Z</time>
</trkpt>
<trkpt lat="43.57379" lon="5.36324">
<ele>356.4</ele>
<time>2012-03-24T13:18:45.000Z</time>
</trkpt>
<trkpt lat="43.57383" lon="5.36331">
<ele>356.4</ele>
<time>2012-03-24T13:18:46.000Z</time>
</trkpt>
<trkpt lat="43.57386" lon="5.36339">
<ele>356.4</ele>
<time>2012-03-24T13:18:47.000Z</time>
</trkpt>
<trkpt lat="43.5739" lon="5.36348">
<ele>356.6</ele>
<time>2012-03-24T13:18:48.000Z</time>
</trkpt>
<trkpt lat="43.57394" lon="5.36356">
<ele>356.5</ele>
<time>2012-03-24T13:18:49.000Z</time>
</trkpt>
<trkpt lat="43.57398" lon="5.36364">
<ele>356</ele>
<time>2012-03-24T13:18:50.000Z</time>
</trkpt>
<trkpt lat="43.57402" lon="5.36372">
<ele>355.8</ele>
<time>2012-03-24T13:18:51.000Z</time>
</trkpt>
<trkpt lat="43.57406" lon="5.3638">
<ele>355.6</ele>
<time>2012-03-24T13:18:52.000Z</time>
</trkpt>
<trkpt lat="43.5741" lon="5.36389">
<ele>355.5</ele>
<time>2012-03-24T13:18:53.000Z</time>
</trkpt>
<trkpt lat="43.57413" lon="5.36396">
<ele>355.6</ele>
<time>2012-03-24T13:18:54.000Z</time>
</trkpt>
<trkpt lat="43.57417" lon="5.36404">
<ele>355.6</ele>
<time>2012-03-24T13:18:55.000Z</time>
</trkpt>
<trkpt lat="43.5742" lon="5.36413">
<ele>355.4</ele>
<time>2012-03-24T13:18:56.000Z</time>
</trkpt>
<trkpt lat="43.57424" lon="5.36421">
<ele>355.3</ele>
<time>2012-03-24T13:18:57.000Z</time>
</trkpt>
<trkpt lat="43.57428" lon="5.36429">
<ele>355.2</ele>
<time>2012-03-24T13:18:58.000Z</time>
</trkpt>
<trkpt lat="43.57432" lon="5.36438">
<ele>354.6</ele>
<time>2012-03-24T13:18:59.000Z</time>
</trkpt>
<trkpt lat="43.57436" lon="5.36447">
<ele>354</ele>
<time>2012-03-24T13:19:00.000Z</time>
</trkpt>
<trkpt lat="43.5744" lon="5.36456">
<ele>354</ele>
<time>2012-03-24T13:19:01.000Z</time>
</trkpt>
<trkpt lat="43.57444" lon="5.36464">
<ele>353.7</ele>
<time>2012-03-24T13:19:02.000Z</time>
</trkpt>
<trkpt lat="43.57448" lon="5.36476">
<ele>352.1</ele>
<time>2012-03-24T13:19:03.000Z</time>
</trkpt>
<trkpt lat="43.57452" lon="5.36487">
<ele>351.7</ele>
<time>2012-03-24T13:19:04.000Z</time>
</trkpt>
<trkpt lat="43.57455" lon="5.36498">
<ele>351.5</ele>
<time>2012-03-24T13:19:05.000Z</time>
</trkpt>
<trkpt lat="43.57458" lon="5.36509">
<ele>351.4</ele>
<time>2012-03-24T13:19:06.000Z</time>
</trkpt>
<trkpt lat="43.57462" lon="5.3652">
<ele>351.3</ele>
<time>2012-03-24T13:19:07.000Z</time>
</trkpt>
<trkpt lat="43.57464" lon="5.36532">
<ele>350.9</ele>
<time>2012-03-24T13:19:08.000Z</time>
</trkpt>
<trkpt lat="43.57463" lon="5.36549">
<ele>349.9</ele>
<time>2012-03-24T13:19:09.000Z</time>
</trkpt>
<trkpt lat="43.57465" lon="5.36564">
<ele>349.6</ele>
<time>2012-03-24T13:19:10.000Z</time>
</trkpt>
<trkpt lat="43.57466" lon="5.36579">
<ele>349.8</ele>
<time>2012-03-24T13:19:11.000Z</time>
</trkpt>
<trkpt lat="43.57465" lon="5.36594">
<ele>348.6</ele>
<time>2012-03-24T13:19:12.000Z</time>
</trkpt>
<trkpt lat="43.57465" lon="5.3661">
<ele>348</ele>
<time>2012-03-24T13:19:13.000Z</time>
</trkpt>
<trkpt lat="43.57464" lon="5.36624">
<ele>346.6</ele>
<time>2012-03-24T13:19:14.000Z</time>
</trkpt>
<trkpt lat="43.57463" lon="5.36639">
<ele>345.9</ele>
<time>2012-03-24T13:19:15.000Z</time>
</trkpt>
<trkpt lat="43.57461" lon="5.36655">
<ele>344.8</ele>
<time>2012-03-24T13:19:16.000Z</time>
</trkpt>
<trkpt lat="43.5746" lon="5.3667">
<ele>344.6</ele>
<time>2012-03-24T13:19:17.000Z</time>
</trkpt>
<trkpt lat="43.57459" lon="5.36685">
<ele>344.4</ele>
<time>2012-03-24T13:19:18.000Z</time>
</trkpt>
<trkpt lat="43.57458" lon="5.367">
<ele>344.2</ele>
<time>2012-03-24T13:19:19.000Z</time>
</trkpt>
<trkpt lat="43.57457" lon="5.36716">
<ele>342.5</ele>
<time>2012-03-24T13:19:20.000Z</time>
</trkpt>
<trkpt lat="43.57455" lon="5.36734">
<ele>342.2</ele>
<time>2012-03-24T13:19:21.000Z</time>
</trkpt>
<trkpt lat="43.57453" lon="5.3675">
<ele>342.9</ele>
<time>2012-03-24T13:19:22.000Z</time>
</trkpt>
<trkpt lat="43.57452" lon="5.36764">
<ele>343.6</ele>
<time>2012-03-24T13:19:23.000Z</time>
</trkpt>
<trkpt lat="43.57451" lon="5.36782">
<ele>339.7</ele>
<time>2012-03-24T13:19:24.000Z</time>
</trkpt>
<trkpt lat="43.57449" lon="5.36799">
<ele>339.2</ele>
<time>2012-03-24T13:19:25.000Z</time>
</trkpt>
<trkpt lat="43.57447" lon="5.36815">
<ele>337.6</ele>
<time>2012-03-24T13:19:26.000Z</time>
</trkpt>
<trkpt lat="43.57445" lon="5.36832">
<ele>338.5</ele>
<time>2012-03-24T13:19:27.000Z</time>
</trkpt>
<trkpt lat="43.57445" lon="5.36849">
<ele>337.8</ele>
<time>2012-03-24T13:19:28.000Z</time>
</trkpt>
<trkpt lat="43.57444" lon="5.36867">
<ele>336.8</ele>
<time>2012-03-24T13:19:29.000Z</time>
</trkpt>
<trkpt lat="43.57442" lon="5.36884">
<ele>336.8</ele>
<time>2012-03-24T13:19:30.000Z</time>
</trkpt>
<trkpt lat="43.57441" lon="5.36901">
<ele>337.8</ele>
<time>2012-03-24T13:19:31.000Z</time>
</trkpt>
<trkpt lat="43.5744" lon="5.36921">
<ele>339.2</ele>
<time>2012-03-24T13:19:32.000Z</time>
</trkpt>
<trkpt lat="43.57438" lon="5.3694">
<ele>336.3</ele>
<time>2012-03-24T13:19:33.000Z</time>
</trkpt>
<trkpt lat="43.57436" lon="5.36958">
<ele>335.5</ele>
<time>2012-03-24T13:19:34.000Z</time>
</trkpt>
<trkpt lat="43.57435" lon="5.36977">
<ele>334.9</ele>
<time>2012-03-24T13:19:35.000Z</time>
</trkpt>
<trkpt lat="43.57434" lon="5.36994">
<ele>334.3</ele>
<time>2012-03-24T13:19:36.000Z</time>
</trkpt>
<trkpt lat="43.57433" lon="5.37013">
<ele>333.8</ele>
<time>2012-03-24T13:19:37.000Z</time>
</trkpt>
<trkpt lat="43.57431" lon="5.37032">
<ele>333.4</ele>
<time>2012-03-24T13:19:38.000Z</time>
</trkpt>
<trkpt lat="43.5743" lon="5.37049">
<ele>332.9</ele>
<time>2012-03-24T13:19:39.000Z</time>
</trkpt>
<trkpt lat="43.57429" lon="5.37067">
<ele>332.1</ele>
<time>2012-03-24T13:19:40.000Z</time>
</trkpt>
<trkpt lat="43.57427" lon="5.37084">
<ele>332.4</ele>
<time>2012-03-24T13:19:41.000Z</time>
</trkpt>
<trkpt lat="43.57427" lon="5.37102">
<ele>332.1</ele>
<time>2012-03-24T13:19:42.000Z</time>
</trkpt>
<trkpt lat="43.57426" lon="5.3712">
<ele>331.7</ele>
<time>2012-03-24T13:19:43.000Z</time>
</trkpt>
<trkpt lat="43.57423" lon="5.37137">
<ele>331.1</ele>
<time>2012-03-24T13:19:44.000Z</time>
</trkpt>
<trkpt lat="43.5742" lon="5.37154">
<ele>331.2</ele>
<time>2012-03-24T13:19:45.000Z</time>
</trkpt>
<trkpt lat="43.57416" lon="5.37172">
<ele>331.2</ele>
<time>2012-03-24T13:19:46.000Z</time>
</trkpt>
<trkpt lat="43.57414" lon="5.37189">
<ele>331</ele>
<time>2012-03-24T13:19:47.000Z</time>
</trkpt>
<trkpt lat="43.5741" lon="5.37204">
<ele>330.7</ele>
<time>2012-03-24T13:19:48.000Z</time>
</trkpt>
<trkpt lat="43.57408" lon="5.3722">
<ele>330.3</ele>
<time>2012-03-24T13:19:49.000Z</time>
</trkpt>
<trkpt lat="43.57405" lon="5.37234">
<ele>329.9</ele>
<time>2012-03-24T13:19:50.000Z</time>
</trkpt>
<trkpt lat="43.57403" lon="5.37249">
<ele>328.9</ele>
<time>2012-03-24T13:19:51.000Z</time>
</trkpt>
<trkpt lat="43.57399" lon="5.37263">
<ele>328.3</ele>
<time>2012-03-24T13:19:52.000Z</time>
</trkpt>
<trkpt lat="43.57396" lon="5.37277">
<ele>328.6</ele>
<time>2012-03-24T13:19:53.000Z</time>
</trkpt>
<trkpt lat="43.57394" lon="5.37292">
<ele>328.3</ele>
<time>2012-03-24T13:19:54.000Z</time>
</trkpt>
<trkpt lat="43.57391" lon="5.37305">
<ele>328.3</ele>
<time>2012-03-24T13:19:55.000Z</time>
</trkpt>
<trkpt lat="43.57389" lon="5.37319">
<ele>328.6</ele>
<time>2012-03-24T13:19:56.000Z</time>
</trkpt>
<trkpt lat="43.57386" lon="5.37333">
<ele>328.4</ele>
<time>2012-03-24T13:19:57.000Z</time>
</trkpt>
<trkpt lat="43.57383" lon="5.37347">
<ele>328.3</ele>
<time>2012-03-24T13:19:58.000Z</time>
</trkpt>
<trkpt lat="43.5738" lon="5.37361">
<ele>328.2</ele>
<time>2012-03-24T13:19:59.000Z</time>
</trkpt>
<trkpt lat="43.57377" lon="5.37374">
<ele>328.5</ele>
<time>2012-03-24T13:20:00.000Z</time>
</trkpt>
<trkpt lat="43.57374" lon="5.37387">
<ele>328.8</ele>
<time>2012-03-24T13:20:01.000Z</time>
</trkpt>
<trkpt lat="43.57372" lon="5.374">
<ele>328.9</ele>
<time>2012-03-24T13:20:02.000Z</time>
</trkpt>
<trkpt lat="43.57369" lon="5.37413">
<ele>329</ele>
<time>2012-03-24T13:20:03.000Z</time>
</trkpt>
<trkpt lat="43.57367" lon="5.37425">
<ele>329</ele>
<time>2012-03-24T13:20:04.000Z</time>
</trkpt>
<trkpt lat="43.57364" lon="5.37437">
<ele>329.4</ele>
<time>2012-03-24T13:20:05.000Z</time>
</trkpt>
<trkpt lat="43.57362" lon="5.37449">
<ele>329.4</ele>
<time>2012-03-24T13:20:06.000Z</time>
</trkpt>
<trkpt lat="43.5736" lon="5.37461">
<ele>329.2</ele>
<time>2012-03-24T13:20:07.000Z</time>
</trkpt>
<trkpt lat="43.57358" lon="5.37473">
<ele>329.3</ele>
<time>2012-03-24T13:20:08.000Z</time>
</trkpt>
<trkpt lat="43.57356" lon="5.37484">
<ele>329</ele>
<time>2012-03-24T13:20:09.000Z</time>
</trkpt>
<trkpt lat="43.57354" lon="5.37496">
<ele>328.7</ele>
<time>2012-03-24T13:20:10.000Z</time>
</trkpt>
<trkpt lat="43.57353" lon="5.37508">
<ele>329</ele>
<time>2012-03-24T13:20:11.000Z</time>
</trkpt>
<trkpt lat="43.57351" lon="5.3752">
<ele>328.8</ele>
<time>2012-03-24T13:20:12.000Z</time>
</trkpt>
<trkpt lat="43.5735" lon="5.37532">
<ele>328.4</ele>
<time>2012-03-24T13:20:13.000Z</time>
</trkpt>
<trkpt lat="43.57349" lon="5.37544">
<ele>328.7</ele>
<time>2012-03-24T13:20:14.000Z</time>
</trkpt>
<trkpt lat="43.57348" lon="5.37555">
<ele>328.3</ele>
<time>2012-03-24T13:20:15.000Z</time>
</trkpt>
<trkpt lat="43.57347" lon="5.37567">
<ele>328.3</ele>
<time>2012-03-24T13:20:16.000Z</time>
</trkpt>
<trkpt lat="43.57346" lon="5.3758">
<ele>328.2</ele>
<time>2012-03-24T13:20:17.000Z</time>
</trkpt>
<trkpt lat="43.57346" lon="5.37592">
<ele>330.2</ele>
<time>2012-03-24T13:20:18.000Z</time>
</trkpt>
<trkpt lat="43.57345" lon="5.37604">
<ele>330.8</ele>
<time>2012-03-24T13:20:19.000Z</time>
</trkpt>
<trkpt lat="43.57345" lon="5.37615">
<ele>330.5</ele>
<time>2012-03-24T13:20:20.000Z</time>
</trkpt>
<trkpt lat="43.57344" lon="5.37627">
<ele>330.7</ele>
<time>2012-03-24T13:20:21.000Z</time>
</trkpt>
<trkpt lat="43.57344" lon="5.3764">
<ele>330</ele>
<time>2012-03-24T13:20:22.000Z</time>
</trkpt>
<trkpt lat="43.57343" lon="5.37652">
<ele>329.8</ele>
<time>2012-03-24T13:20:23.000Z</time>
</trkpt>
<trkpt lat="43.57342" lon="5.37665">
<ele>329.1</ele>
<time>2012-03-24T13:20:24.000Z</time>
</trkpt>
<trkpt lat="43.57342" lon="5.37677">
<ele>329.3</ele>
<time>2012-03-24T13:20:25.000Z</time>
</trkpt>
<trkpt lat="43.57341" lon="5.3769">
<ele>329.3</ele>
<time>2012-03-24T13:20:26.000Z</time>
</trkpt>
<trkpt lat="43.5734" lon="5.37702">
<ele>329.2</ele>
<time>2012-03-24T13:20:27.000Z</time>
</trkpt>
<trkpt lat="43.57339" lon="5.37715">
<ele>329</ele>
<time>2012-03-24T13:20:28.000Z</time>
</trkpt>
<trkpt lat="43.57338" lon="5.37728">
<ele>329.1</ele>
<time>2012-03-24T13:20:29.000Z</time>
</trkpt>
<trkpt lat="43.57338" lon="5.3774">
<ele>329.1</ele>
<time>2012-03-24T13:20:30.000Z</time>
</trkpt>
<trkpt lat="43.57337" lon="5.37753">
<ele>329</ele>
<time>2012-03-24T13:20:31.000Z</time>
</trkpt>
<trkpt lat="43.57336" lon="5.37764">
<ele>329.6</ele>
<time>2012-03-24T13:20:32.000Z</time>
</trkpt>
<trkpt lat="43.57336" lon="5.37778">
<ele>328.5</ele>
<time>2012-03-24T13:20:33.000Z</time>
</trkpt>
<trkpt lat="43.57335" lon="5.3779">
<ele>329.3</ele>
<time>2012-03-24T13:20:34.000Z</time>
</trkpt>
<trkpt lat="43.57335" lon="5.37803">
<ele>327.6</ele>
<time>2012-03-24T13:20:35.000Z</time>
</trkpt>
<trkpt lat="43.57334" lon="5.37816">
<ele>327.2</ele>
<time>2012-03-24T13:20:36.000Z</time>
</trkpt>
<trkpt lat="43.57334" lon="5.37829">
<ele>327</ele>
<time>2012-03-24T13:20:37.000Z</time>
</trkpt>
<trkpt lat="43.57333" lon="5.37841">
<ele>327.1</ele>
<time>2012-03-24T13:20:38.000Z</time>
</trkpt>
<trkpt lat="43.57332" lon="5.37854">
<ele>327.2</ele>
<time>2012-03-24T13:20:39.000Z</time>
</trkpt>
<trkpt lat="43.57331" lon="5.37867">
<ele>326.7</ele>
<time>2012-03-24T13:20:40.000Z</time>
</trkpt>
<trkpt lat="43.5733" lon="5.3788">
<ele>326.7</ele>
<time>2012-03-24T13:20:41.000Z</time>
</trkpt>
<trkpt lat="43.57329" lon="5.37893">
<ele>326.5</ele>
<time>2012-03-24T13:20:42.000Z</time>
</trkpt>
<trkpt lat="43.57329" lon="5.37906">
<ele>328</ele>
<time>2012-03-24T13:20:43.000Z</time>
</trkpt>
<trkpt lat="43.57327" lon="5.37919">
<ele>328.2</ele>
<time>2012-03-24T13:20:44.000Z</time>
</trkpt>
<trkpt lat="43.57326" lon="5.37932">
<ele>328.2</ele>
<time>2012-03-24T13:20:45.000Z</time>
</trkpt>
<trkpt lat="43.57324" lon="5.37945">
<ele>328.4</ele>
<time>2012-03-24T13:20:46.000Z</time>
</trkpt>
<trkpt lat="43.57322" lon="5.37958">
<ele>328</ele>
<time>2012-03-24T13:20:47.000Z</time>
</trkpt>
<trkpt lat="43.5732" lon="5.37972">
<ele>327.7</ele>
<time>2012-03-24T13:20:48.000Z</time>
</trkpt>
<trkpt lat="43.57318" lon="5.37985">
<ele>328.2</ele>
<time>2012-03-24T13:20:49.000Z</time>
</trkpt>
<trkpt lat="43.57316" lon="5.37998">
<ele>328.2</ele>
<time>2012-03-24T13:20:50.000Z</time>
</trkpt>
<trkpt lat="43.57314" lon="5.38011">
<ele>328.3</ele>
<time>2012-03-24T13:20:51.000Z</time>
</trkpt>
<trkpt lat="43.57311" lon="5.38024">
<ele>328</ele>
<time>2012-03-24T13:20:52.000Z</time>
</trkpt>
<trkpt lat="43.57309" lon="5.38038">
<ele>327.9</ele>
<time>2012-03-24T13:20:53.000Z</time>
</trkpt>
<trkpt lat="43.57307" lon="5.38052">
<ele>327.7</ele>
<time>2012-03-24T13:20:54.000Z</time>
</trkpt>
<trkpt lat="43.57305" lon="5.38065">
<ele>327.7</ele>
<time>2012-03-24T13:20:55.000Z</time>
</trkpt>
<trkpt lat="43.57303" lon="5.38078">
<ele>328</ele>
<time>2012-03-24T13:20:56.000Z</time>
</trkpt>
<trkpt lat="43.57301" lon="5.38092">
<ele>328.1</ele>
<time>2012-03-24T13:20:57.000Z</time>
</trkpt>
<trkpt lat="43.57299" lon="5.38105">
<ele>328.2</ele>
<time>2012-03-24T13:20:58.000Z</time>
</trkpt>
<trkpt lat="43.57297" lon="5.38118">
<ele>328.1</ele>
<time>2012-03-24T13:20:59.000Z</time>
</trkpt>
<trkpt lat="43.57294" lon="5.38132">
<ele>328.3</ele>
<time>2012-03-24T13:21:00.000Z</time>
</trkpt>
<trkpt lat="43.57292" lon="5.38146">
<ele>328.1</ele>
<time>2012-03-24T13:21:01.000Z</time>
</trkpt>
<trkpt lat="43.5729" lon="5.3816">
<ele>328.3</ele>
<time>2012-03-24T13:21:02.000Z</time>
</trkpt>
<trkpt lat="43.57289" lon="5.38173">
<ele>328.3</ele>
<time>2012-03-24T13:21:03.000Z</time>
</trkpt>
<trkpt lat="43.57287" lon="5.38186">
<ele>328.4</ele>
<time>2012-03-24T13:21:04.000Z</time>
</trkpt>
<trkpt lat="43.57284" lon="5.38199">
<ele>328</ele>
<time>2012-03-24T13:21:05.000Z</time>
</trkpt>
<trkpt lat="43.57282" lon="5.38213">
<ele>327.7</ele>
<time>2012-03-24T13:21:06.000Z</time>
</trkpt>
<trkpt lat="43.5728" lon="5.38226">
<ele>327.3</ele>
<time>2012-03-24T13:21:07.000Z</time>
</trkpt>
<trkpt lat="43.57277" lon="5.38239">
<ele>327.1</ele>
<time>2012-03-24T13:21:08.000Z</time>
</trkpt>
<trkpt lat="43.57276" lon="5.38253">
<ele>326.9</ele>
<time>2012-03-24T13:21:09.000Z</time>
</trkpt>
<trkpt lat="43.57273" lon="5.38266">
<ele>327</ele>
<time>2012-03-24T13:21:10.000Z</time>
</trkpt>
<trkpt lat="43.57271" lon="5.38279">
<ele>326.7</ele>
<time>2012-03-24T13:21:11.000Z</time>
</trkpt>
<trkpt lat="43.57268" lon="5.38293">
<ele>326.6</ele>
<time>2012-03-24T13:21:12.000Z</time>
</trkpt>
<trkpt lat="43.57265" lon="5.38307">
<ele>326.6</ele>
<time>2012-03-24T13:21:13.000Z</time>
</trkpt>
<trkpt lat="43.57263" lon="5.3832">
<ele>325.8</ele>
<time>2012-03-24T13:21:14.000Z</time>
</trkpt>
<trkpt lat="43.5726" lon="5.38333">
<ele>325.9</ele>
<time>2012-03-24T13:21:15.000Z</time>
</trkpt>
<trkpt lat="43.57256" lon="5.38346">
<ele>325.9</ele>
<time>2012-03-24T13:21:16.000Z</time>
</trkpt>
<trkpt lat="43.57254" lon="5.3836">
<ele>326.3</ele>
<time>2012-03-24T13:21:17.000Z</time>
</trkpt>
<trkpt lat="43.57251" lon="5.38374">
<ele>326</ele>
<time>2012-03-24T13:21:18.000Z</time>
</trkpt>
<trkpt lat="43.57249" lon="5.38387">
<ele>326.3</ele>
<time>2012-03-24T13:21:19.000Z</time>
</trkpt>
<trkpt lat="43.57245" lon="5.384">
<ele>325.6</ele>
<time>2012-03-24T13:21:20.000Z</time>
</trkpt>
<trkpt lat="43.57242" lon="5.38414">
<ele>325.5</ele>
<time>2012-03-24T13:21:21.000Z</time>
</trkpt>
<trkpt lat="43.5724" lon="5.38428">
<ele>325.3</ele>
<time>2012-03-24T13:21:22.000Z</time>
</trkpt>
<trkpt lat="43.57236" lon="5.38441">
<ele>325.2</ele>
<time>2012-03-24T13:21:23.000Z</time>
</trkpt>
<trkpt lat="43.57233" lon="5.38454">
<ele>325.3</ele>
<time>2012-03-24T13:21:24.000Z</time>
</trkpt>
<trkpt lat="43.5723" lon="5.38467">
<ele>324.8</ele>
<time>2012-03-24T13:21:25.000Z</time>
</trkpt>
<trkpt lat="43.57227" lon="5.3848">
<ele>324.1</ele>
<time>2012-03-24T13:21:26.000Z</time>
</trkpt>
<trkpt lat="43.57224" lon="5.38494">
<ele>323.9</ele>
<time>2012-03-24T13:21:27.000Z</time>
</trkpt>
<trkpt lat="43.57221" lon="5.38507">
<ele>323.6</ele>
<time>2012-03-24T13:21:28.000Z</time>
</trkpt>
<trkpt lat="43.57218" lon="5.38521">
<ele>323.5</ele>
<time>2012-03-24T13:21:29.000Z</time>
</trkpt>
<trkpt lat="43.57215" lon="5.38535">
<ele>323.2</ele>
<time>2012-03-24T13:21:30.000Z</time>
</trkpt>
<trkpt lat="43.57213" lon="5.38549">
<ele>322.9</ele>
<time>2012-03-24T13:21:31.000Z</time>
</trkpt>
<trkpt lat="43.57211" lon="5.38563">
<ele>322.8</ele>
<time>2012-03-24T13:21:32.000Z</time>
</trkpt>
<trkpt lat="43.5721" lon="5.38576">
<ele>322.6</ele>
<time>2012-03-24T13:21:33.000Z</time>
</trkpt>
<trkpt lat="43.5721" lon="5.38591">
<ele>322.6</ele>
<time>2012-03-24T13:21:34.000Z</time>
</trkpt>
<trkpt lat="43.5721" lon="5.38605">
<ele>322.3</ele>
<time>2012-03-24T13:21:35.000Z</time>
</trkpt>
<trkpt lat="43.5721" lon="5.38618">
<ele>322.1</ele>
<time>2012-03-24T13:21:36.000Z</time>
</trkpt>
<trkpt lat="43.57211" lon="5.38632">
<ele>321.9</ele>
<time>2012-03-24T13:21:37.000Z</time>
</trkpt>
<trkpt lat="43.57213" lon="5.38646">
<ele>321.6</ele>
<time>2012-03-24T13:21:38.000Z</time>
</trkpt>
<trkpt lat="43.57214" lon="5.3866">
<ele>321.4</ele>
<time>2012-03-24T13:21:39.000Z</time>
</trkpt>
<trkpt lat="43.57216" lon="5.38674">
<ele>321.3</ele>
<time>2012-03-24T13:21:40.000Z</time>
</trkpt>
<trkpt lat="43.57217" lon="5.38688">
<ele>321.3</ele>
<time>2012-03-24T13:21:41.000Z</time>
</trkpt>
<trkpt lat="43.57218" lon="5.38702">
<ele>321.2</ele>
<time>2012-03-24T13:21:42.000Z</time>
</trkpt>
<trkpt lat="43.5722" lon="5.38715">
<ele>321.1</ele>
<time>2012-03-24T13:21:43.000Z</time>
</trkpt>
<trkpt lat="43.57221" lon="5.38729">
<ele>321.1</ele>
<time>2012-03-24T13:21:44.000Z</time>
</trkpt>
<trkpt lat="43.57222" lon="5.38742">
<ele>321.4</ele>
<time>2012-03-24T13:21:45.000Z</time>
</trkpt>
<trkpt lat="43.57223" lon="5.38755">
<ele>321.8</ele>
<time>2012-03-24T13:21:46.000Z</time>
</trkpt>
<trkpt lat="43.57225" lon="5.38769">
<ele>321.6</ele>
<time>2012-03-24T13:21:47.000Z</time>
</trkpt>
<trkpt lat="43.57226" lon="5.38782">
<ele>321.3</ele>
<time>2012-03-24T13:21:48.000Z</time>
</trkpt>
<trkpt lat="43.57226" lon="5.38795">
<ele>321.5</ele>
<time>2012-03-24T13:21:49.000Z</time>
</trkpt>
<trkpt lat="43.57227" lon="5.38808">
<ele>321.7</ele>
<time>2012-03-24T13:21:50.000Z</time>
</trkpt>
<trkpt lat="43.57227" lon="5.38821">
<ele>321.9</ele>
<time>2012-03-24T13:21:51.000Z</time>
</trkpt>
<trkpt lat="43.57227" lon="5.38833">
<ele>321.9</ele>
<time>2012-03-24T13:21:52.000Z</time>
</trkpt>
<trkpt lat="43.57226" lon="5.38846">
<ele>322.3</ele>
<time>2012-03-24T13:21:53.000Z</time>
</trkpt>
<trkpt lat="43.57226" lon="5.38857">
<ele>322.7</ele>
<time>2012-03-24T13:21:54.000Z</time>
</trkpt>
<trkpt lat="43.57225" lon="5.38869">
<ele>323.1</ele>
<time>2012-03-24T13:21:55.000Z</time>
</trkpt>
<trkpt lat="43.57224" lon="5.3888">
<ele>323.3</ele>
<time>2012-03-24T13:21:56.000Z</time>
</trkpt>
<trkpt lat="43.57222" lon="5.38891">
<ele>323.5</ele>
<time>2012-03-24T13:21:57.000Z</time>
</trkpt>
<trkpt lat="43.57221" lon="5.38901">
<ele>323.5</ele>
<time>2012-03-24T13:21:58.000Z</time>
</trkpt>
<trkpt lat="43.57219" lon="5.38912">
<ele>323.6</ele>
<time>2012-03-24T13:21:59.000Z</time>
</trkpt>
<trkpt lat="43.57218" lon="5.38922">
<ele>323.6</ele>
<time>2012-03-24T13:22:00.000Z</time>
</trkpt>
<trkpt lat="43.57216" lon="5.38933">
<ele>323.9</ele>
<time>2012-03-24T13:22:01.000Z</time>
</trkpt>
<trkpt lat="43.57215" lon="5.38943">
<ele>323.9</ele>
<time>2012-03-24T13:22:02.000Z</time>
</trkpt>
<trkpt lat="43.57213" lon="5.38953">
<ele>324.1</ele>
<time>2012-03-24T13:22:03.000Z</time>
</trkpt>
<trkpt lat="43.57212" lon="5.38964">
<ele>323.9</ele>
<time>2012-03-24T13:22:04.000Z</time>
</trkpt>
<trkpt lat="43.5721" lon="5.38974">
<ele>323.9</ele>
<time>2012-03-24T13:22:05.000Z</time>
</trkpt>
<trkpt lat="43.57209" lon="5.38984">
<ele>323.8</ele>
<time>2012-03-24T13:22:06.000Z</time>
</trkpt>
<trkpt lat="43.57207" lon="5.38994">
<ele>323.8</ele>
<time>2012-03-24T13:22:07.000Z</time>
</trkpt>
<trkpt lat="43.57206" lon="5.39004">
<ele>324</ele>
<time>2012-03-24T13:22:08.000Z</time>
</trkpt>
<trkpt lat="43.57205" lon="5.39015">
<ele>323.9</ele>
<time>2012-03-24T13:22:09.000Z</time>
</trkpt>
<trkpt lat="43.57204" lon="5.39026">
<ele>323.6</ele>
<time>2012-03-24T13:22:10.000Z</time>
</trkpt>
<trkpt lat="43.57205" lon="5.39037">
<ele>323.3</ele>
<time>2012-03-24T13:22:11.000Z</time>
</trkpt>
<trkpt lat="43.57206" lon="5.39048">
<ele>322.7</ele>
<time>2012-03-24T13:22:12.000Z</time>
</trkpt>
<trkpt lat="43.57207" lon="5.39059">
<ele>322.3</ele>
<time>2012-03-24T13:22:13.000Z</time>
</trkpt>
<trkpt lat="43.5721" lon="5.3907">
<ele>321.9</ele>
<time>2012-03-24T13:22:14.000Z</time>
</trkpt>
<trkpt lat="43.57213" lon="5.39081">
<ele>321.2</ele>
<time>2012-03-24T13:22:15.000Z</time>
</trkpt>
<trkpt lat="43.57216" lon="5.39092">
<ele>321</ele>
<time>2012-03-24T13:22:16.000Z</time>
</trkpt>
<trkpt lat="43.57221" lon="5.39102">
<ele>320.8</ele>
<time>2012-03-24T13:22:17.000Z</time>
</trkpt>
<trkpt lat="43.57226" lon="5.39112">
<ele>320.5</ele>
<time>2012-03-24T13:22:18.000Z</time>
</trkpt>
<trkpt lat="43.57232" lon="5.39122">
<ele>320.1</ele>
<time>2012-03-24T13:22:19.000Z</time>
</trkpt>
<trkpt lat="43.57236" lon="5.39131">
<ele>320.3</ele>
<time>2012-03-24T13:22:20.000Z</time>
</trkpt>
<trkpt lat="43.5724" lon="5.3914">
<ele>320.1</ele>
<time>2012-03-24T13:22:21.000Z</time>
</trkpt>
<trkpt lat="43.57243" lon="5.39148">
<ele>320.1</ele>
<time>2012-03-24T13:22:22.000Z</time>
</trkpt>
<trkpt lat="43.57245" lon="5.39156">
<ele>319.9</ele>
<time>2012-03-24T13:22:23.000Z</time>
</trkpt>
<trkpt lat="43.57246" lon="5.39165">
<ele>319.7</ele>
<time>2012-03-24T13:22:24.000Z</time>
</trkpt>
<trkpt lat="43.57247" lon="5.39174">
<ele>319.5</ele>
<time>2012-03-24T13:22:25.000Z</time>
</trkpt>
<trkpt lat="43.5725" lon="5.39183">
<ele>319.2</ele>
<time>2012-03-24T13:22:26.000Z</time>
</trkpt>
<trkpt lat="43.57253" lon="5.39192">
<ele>318.8</ele>
<time>2012-03-24T13:22:27.000Z</time>
</trkpt>
<trkpt lat="43.57257" lon="5.39198">
<ele>319</ele>
<time>2012-03-24T13:22:28.000Z</time>
</trkpt>
<trkpt lat="43.57263" lon="5.39205">
<ele>318.1</ele>
<time>2012-03-24T13:22:29.000Z</time>
</trkpt>
<trkpt lat="43.5727" lon="5.39209">
<ele>318.1</ele>
<time>2012-03-24T13:22:30.000Z</time>
</trkpt>
<trkpt lat="43.57277" lon="5.39214">
<ele>318.1</ele>
<time>2012-03-24T13:22:31.000Z</time>
</trkpt>
<trkpt lat="43.57283" lon="5.39218">
<ele>318.1</ele>
<time>2012-03-24T13:22:32.000Z</time>
</trkpt>
<trkpt lat="43.57288" lon="5.39226">
<ele>318.1</ele>
<time>2012-03-24T13:22:33.000Z</time>
</trkpt>
<trkpt lat="43.57292" lon="5.39234">
<ele>317.9</ele>
<time>2012-03-24T13:22:34.000Z</time>
</trkpt>
<trkpt lat="43.57294" lon="5.39244">
<ele>317.6</ele>
<time>2012-03-24T13:22:35.000Z</time>
</trkpt>
<trkpt lat="43.57296" lon="5.39254">
<ele>317.9</ele>
<time>2012-03-24T13:22:36.000Z</time>
</trkpt>
<trkpt lat="43.57297" lon="5.39264">
<ele>317.9</ele>
<time>2012-03-24T13:22:37.000Z</time>
</trkpt>
<trkpt lat="43.57297" lon="5.39275">
<ele>317.9</ele>
<time>2012-03-24T13:22:38.000Z</time>
</trkpt>
<trkpt lat="43.57298" lon="5.39285">
<ele>318.3</ele>
<time>2012-03-24T13:22:39.000Z</time>
</trkpt>
<trkpt lat="43.57296" lon="5.39296">
<ele>318.4</ele>
<time>2012-03-24T13:22:40.000Z</time>
</trkpt>
<trkpt lat="43.57295" lon="5.39308">
<ele>318.3</ele>
<time>2012-03-24T13:22:41.000Z</time>
</trkpt>
<trkpt lat="43.57293" lon="5.39318">
<ele>318.3</ele>
<time>2012-03-24T13:22:42.000Z</time>
</trkpt>
<trkpt lat="43.57292" lon="5.3933">
<ele>318.3</ele>
<time>2012-03-24T13:22:43.000Z</time>
</trkpt>
<trkpt lat="43.57292" lon="5.39341">
<ele>317.9</ele>
<time>2012-03-24T13:22:44.000Z</time>
</trkpt>
<trkpt lat="43.57293" lon="5.39352">
<ele>318.6</ele>
<time>2012-03-24T13:22:45.000Z</time>
</trkpt>
<trkpt lat="43.57294" lon="5.39364">
<ele>318.2</ele>
<time>2012-03-24T13:22:46.000Z</time>
</trkpt>
<trkpt lat="43.57298" lon="5.39374">
<ele>318.1</ele>
<time>2012-03-24T13:22:47.000Z</time>
</trkpt>
<trkpt lat="43.573" lon="5.39384">
<ele>318.3</ele>
<time>2012-03-24T13:22:48.000Z</time>
</trkpt>
<trkpt lat="43.57304" lon="5.39394">
<ele>318.4</ele>
<time>2012-03-24T13:22:49.000Z</time>
</trkpt>
<trkpt lat="43.57307" lon="5.39404">
<ele>318.6</ele>
<time>2012-03-24T13:22:50.000Z</time>
</trkpt>
<trkpt lat="43.57311" lon="5.39414">
<ele>318.6</ele>
<time>2012-03-24T13:22:51.000Z</time>
</trkpt>
<trkpt lat="43.57314" lon="5.39423">
<ele>318.8</ele>
<time>2012-03-24T13:22:52.000Z</time>
</trkpt>
<trkpt lat="43.57318" lon="5.39432">
<ele>318.6</ele>
<time>2012-03-24T13:22:53.000Z</time>
</trkpt>
<trkpt lat="43.57322" lon="5.39442">
<ele>318.6</ele>
<time>2012-03-24T13:22:54.000Z</time>
</trkpt>
<trkpt lat="43.57327" lon="5.39452">
<ele>319.3</ele>
<time>2012-03-24T13:22:55.000Z</time>
</trkpt>
<trkpt lat="43.57331" lon="5.39462">
<ele>319.7</ele>
<time>2012-03-24T13:22:56.000Z</time>
</trkpt>
<trkpt lat="43.57334" lon="5.39473">
<ele>319.7</ele>
<time>2012-03-24T13:22:57.000Z</time>
</trkpt>
<trkpt lat="43.57338" lon="5.39483">
<ele>319.7</ele>
<time>2012-03-24T13:22:58.000Z</time>
</trkpt>
<trkpt lat="43.57342" lon="5.39493">
<ele>319.1</ele>
<time>2012-03-24T13:22:59.000Z</time>
</trkpt>
<trkpt lat="43.57346" lon="5.39503">
<ele>319.5</ele>
<time>2012-03-24T13:23:00.000Z</time>
</trkpt>
<trkpt lat="43.5735" lon="5.39512">
<ele>319.7</ele>
<time>2012-03-24T13:23:01.000Z</time>
</trkpt>
<trkpt lat="43.57354" lon="5.39521">
<ele>320.3</ele>
<time>2012-03-24T13:23:02.000Z</time>
</trkpt>
<trkpt lat="43.57358" lon="5.39529">
<ele>320.4</ele>
<time>2012-03-24T13:23:03.000Z</time>
</trkpt>
<trkpt lat="43.57362" lon="5.39538">
<ele>320.6</ele>
<time>2012-03-24T13:23:04.000Z</time>
</trkpt>
<trkpt lat="43.57365" lon="5.39548">
<ele>320.7</ele>
<time>2012-03-24T13:23:05.000Z</time>
</trkpt>
<trkpt lat="43.57369" lon="5.39557">
<ele>320.7</ele>
<time>2012-03-24T13:23:06.000Z</time>
</trkpt>
<trkpt lat="43.57374" lon="5.39566">
<ele>320.4</ele>
<time>2012-03-24T13:23:07.000Z</time>
</trkpt>
<trkpt lat="43.57378" lon="5.39574">
<ele>320.2</ele>
<time>2012-03-24T13:23:08.000Z</time>
</trkpt>
<trkpt lat="43.57382" lon="5.39583">
<ele>319.9</ele>
<time>2012-03-24T13:23:09.000Z</time>
</trkpt>
<trkpt lat="43.57386" lon="5.39592">
<ele>319.7</ele>
<time>2012-03-24T13:23:10.000Z</time>
</trkpt>
<trkpt lat="43.5739" lon="5.39602">
<ele>319.5</ele>
<time>2012-03-24T13:23:11.000Z</time>
</trkpt>
<trkpt lat="43.57393" lon="5.39613">
<ele>320.5</ele>
<time>2012-03-24T13:23:12.000Z</time>
</trkpt>
<trkpt lat="43.57396" lon="5.39625">
<ele>319.9</ele>
<time>2012-03-24T13:23:13.000Z</time>
</trkpt>
<trkpt lat="43.574" lon="5.39636">
<ele>319.5</ele>
<time>2012-03-24T13:23:14.000Z</time>
</trkpt>
<trkpt lat="43.57403" lon="5.39647">
<ele>320.3</ele>
<time>2012-03-24T13:23:15.000Z</time>
</trkpt>
<trkpt lat="43.57406" lon="5.39658">
<ele>320.6</ele>
<time>2012-03-24T13:23:16.000Z</time>
</trkpt>
<trkpt lat="43.57409" lon="5.39669">
<ele>320.2</ele>
<time>2012-03-24T13:23:17.000Z</time>
</trkpt>
<trkpt lat="43.57411" lon="5.3968">
<ele>320.1</ele>
<time>2012-03-24T13:23:18.000Z</time>
</trkpt>
<trkpt lat="43.57414" lon="5.39692">
<ele>320.2</ele>
<time>2012-03-24T13:23:19.000Z</time>
</trkpt>
<trkpt lat="43.57416" lon="5.39702">
<ele>320</ele>
<time>2012-03-24T13:23:20.000Z</time>
</trkpt>
<trkpt lat="43.57419" lon="5.39713">
<ele>320.1</ele>
<time>2012-03-24T13:23:21.000Z</time>
</trkpt>
<trkpt lat="43.57423" lon="5.39722">
<ele>320.3</ele>
<time>2012-03-24T13:23:22.000Z</time>
</trkpt>
<trkpt lat="43.57426" lon="5.39733">
<ele>320.7</ele>
<time>2012-03-24T13:23:23.000Z</time>
</trkpt>
<trkpt lat="43.5743" lon="5.39742">
<ele>320.7</ele>
<time>2012-03-24T13:23:24.000Z</time>
</trkpt>
<trkpt lat="43.57434" lon="5.39752">
<ele>320.8</ele>
<time>2012-03-24T13:23:25.000Z</time>
</trkpt>
<trkpt lat="43.57438" lon="5.39761">
<ele>320.9</ele>
<time>2012-03-24T13:23:26.000Z</time>
</trkpt>
<trkpt lat="43.57441" lon="5.39771">
<ele>321.3</ele>
<time>2012-03-24T13:23:27.000Z</time>
</trkpt>
<trkpt lat="43.57446" lon="5.3978">
<ele>321.1</ele>
<time>2012-03-24T13:23:28.000Z</time>
</trkpt>
<trkpt lat="43.5745" lon="5.39789">
<ele>321.2</ele>
<time>2012-03-24T13:23:29.000Z</time>
</trkpt>
<trkpt lat="43.57453" lon="5.398">
<ele>320.9</ele>
<time>2012-03-24T13:23:30.000Z</time>
</trkpt>
<trkpt lat="43.57454" lon="5.39813">
<ele>320.7</ele>
<time>2012-03-24T13:23:31.000Z</time>
</trkpt>
<trkpt lat="43.57457" lon="5.39822">
<ele>320.7</ele>
<time>2012-03-24T13:23:32.000Z</time>
</trkpt>
<trkpt lat="43.5746" lon="5.39832">
<ele>320.4</ele>
<time>2012-03-24T13:23:33.000Z</time>
</trkpt>
<trkpt lat="43.57462" lon="5.39844">
<ele>320.7</ele>
<time>2012-03-24T13:23:34.000Z</time>
</trkpt>
<trkpt lat="43.57464" lon="5.39856">
<ele>320.7</ele>
<time>2012-03-24T13:23:35.000Z</time>
</trkpt>
<trkpt lat="43.57465" lon="5.39868">
<ele>320.9</ele>
<time>2012-03-24T13:23:36.000Z</time>
</trkpt>
<trkpt lat="43.57466" lon="5.39878">
<ele>320.5</ele>
<time>2012-03-24T13:23:37.000Z</time>
</trkpt>
<trkpt lat="43.57467" lon="5.39889">
<ele>321.2</ele>
<time>2012-03-24T13:23:38.000Z</time>
</trkpt>
<trkpt lat="43.57468" lon="5.399">
<ele>322</ele>
<time>2012-03-24T13:23:39.000Z</time>
</trkpt>
<trkpt lat="43.57469" lon="5.3991">
<ele>322.2</ele>
<time>2012-03-24T13:23:40.000Z</time>
</trkpt>
<trkpt lat="43.5747" lon="5.39921">
<ele>321.6</ele>
<time>2012-03-24T13:23:41.000Z</time>
</trkpt>
<trkpt lat="43.57471" lon="5.39931">
<ele>322.1</ele>
<time>2012-03-24T13:23:42.000Z</time>
</trkpt>
<trkpt lat="43.57472" lon="5.39941">
<ele>322.7</ele>
<time>2012-03-24T13:23:43.000Z</time>
</trkpt>
<trkpt lat="43.57473" lon="5.39952">
<ele>322.9</ele>
<time>2012-03-24T13:23:44.000Z</time>
</trkpt>
<trkpt lat="43.57475" lon="5.39963">
<ele>323.9</ele>
<time>2012-03-24T13:23:45.000Z</time>
</trkpt>
<trkpt lat="43.57477" lon="5.39974">
<ele>324</ele>
<time>2012-03-24T13:23:46.000Z</time>
</trkpt>
<trkpt lat="43.57479" lon="5.39985">
<ele>323.6</ele>
<time>2012-03-24T13:23:47.000Z</time>
</trkpt>
<trkpt lat="43.57481" lon="5.39996">
<ele>323.6</ele>
<time>2012-03-24T13:23:48.000Z</time>
</trkpt>
<trkpt lat="43.57483" lon="5.40007">
<ele>323.7</ele>
<time>2012-03-24T13:23:49.000Z</time>
</trkpt>
<trkpt lat="43.57486" lon="5.40018">
<ele>323.8</ele>
<time>2012-03-24T13:23:50.000Z</time>
</trkpt>
<trkpt lat="43.57489" lon="5.40028">
<ele>324.2</ele>
<time>2012-03-24T13:23:51.000Z</time>
</trkpt>
<trkpt lat="43.57491" lon="5.40039">
<ele>324.2</ele>
<time>2012-03-24T13:23:52.000Z</time>
</trkpt>
<trkpt lat="43.57494" lon="5.40049">
<ele>324.3</ele>
<time>2012-03-24T13:23:53.000Z</time>
</trkpt>
<trkpt lat="43.57498" lon="5.4006">
<ele>324.8</ele>
<time>2012-03-24T13:23:54.000Z</time>
</trkpt>
<trkpt lat="43.575" lon="5.4007">
<ele>325.2</ele>
<time>2012-03-24T13:23:55.000Z</time>
</trkpt>
<trkpt lat="43.57504" lon="5.40081">
<ele>325.3</ele>
<time>2012-03-24T13:23:56.000Z</time>
</trkpt>
<trkpt lat="43.57508" lon="5.40091">
<ele>325.5</ele>
<time>2012-03-24T13:23:57.000Z</time>
</trkpt>
<trkpt lat="43.5751" lon="5.40101">
<ele>325.8</ele>
<time>2012-03-24T13:23:58.000Z</time>
</trkpt>
<trkpt lat="43.57513" lon="5.40111">
<ele>326.2</ele>
<time>2012-03-24T13:23:59.000Z</time>
</trkpt>
<trkpt lat="43.57516" lon="5.40122">
<ele>326.3</ele>
<time>2012-03-24T13:24:00.000Z</time>
</trkpt>
<trkpt lat="43.57519" lon="5.40132">
<ele>326.2</ele>
<time>2012-03-24T13:24:01.000Z</time>
</trkpt>
<trkpt lat="43.57521" lon="5.40142">
<ele>326.3</ele>
<time>2012-03-24T13:24:02.000Z</time>
</trkpt>
<trkpt lat="43.57523" lon="5.40152">
<ele>326.4</ele>
<time>2012-03-24T13:24:03.000Z</time>
</trkpt>
<trkpt lat="43.57525" lon="5.40162">
<ele>326.8</ele>
<time>2012-03-24T13:24:04.000Z</time>
</trkpt>
<trkpt lat="43.57526" lon="5.40173">
<ele>327.4</ele>
<time>2012-03-24T13:24:05.000Z</time>
</trkpt>
<trkpt lat="43.57528" lon="5.40183">
<ele>327.7</ele>
<time>2012-03-24T13:24:06.000Z</time>
</trkpt>
<trkpt lat="43.57529" lon="5.40193">
<ele>327.9</ele>
<time>2012-03-24T13:24:07.000Z</time>
</trkpt>
<trkpt lat="43.5753" lon="5.40204">
<ele>328.1</ele>
<time>2012-03-24T13:24:08.000Z</time>
</trkpt>
<trkpt lat="43.5753" lon="5.40215">
<ele>328.3</ele>
<time>2012-03-24T13:24:09.000Z</time>
</trkpt>
<trkpt lat="43.5753" lon="5.40226">
<ele>328.4</ele>
<time>2012-03-24T13:24:10.000Z</time>
</trkpt>
<trkpt lat="43.57531" lon="5.40236">
<ele>328.7</ele>
<time>2012-03-24T13:24:11.000Z</time>
</trkpt>
<trkpt lat="43.57532" lon="5.40247">
<ele>329.3</ele>
<time>2012-03-24T13:24:12.000Z</time>
</trkpt>
<trkpt lat="43.57533" lon="5.40258">
<ele>329.2</ele>
<time>2012-03-24T13:24:13.000Z</time>
</trkpt>
<trkpt lat="43.57534" lon="5.40268">
<ele>329.3</ele>
<time>2012-03-24T13:24:14.000Z</time>
</trkpt>
<trkpt lat="43.57535" lon="5.40278">
<ele>329.8</ele>
<time>2012-03-24T13:24:15.000Z</time>
</trkpt>
<trkpt lat="43.57538" lon="5.40288">
<ele>329.9</ele>
<time>2012-03-24T13:24:16.000Z</time>
</trkpt>
<trkpt lat="43.57541" lon="5.40297">
<ele>330</ele>
<time>2012-03-24T13:24:17.000Z</time>
</trkpt>
<trkpt lat="43.57544" lon="5.40306">
<ele>330.1</ele>
<time>2012-03-24T13:24:18.000Z</time>
</trkpt>
<trkpt lat="43.57548" lon="5.40315">
<ele>330.4</ele>
<time>2012-03-24T13:24:19.000Z</time>
</trkpt>
<trkpt lat="43.57552" lon="5.40324">
<ele>330.6</ele>
<time>2012-03-24T13:24:20.000Z</time>
</trkpt>
<trkpt lat="43.57556" lon="5.40332">
<ele>330.6</ele>
<time>2012-03-24T13:24:21.000Z</time>
</trkpt>
<trkpt lat="43.5756" lon="5.4034">
<ele>330.6</ele>
<time>2012-03-24T13:24:22.000Z</time>
</trkpt>
<trkpt lat="43.57563" lon="5.40349">
<ele>331.1</ele>
<time>2012-03-24T13:24:23.000Z</time>
</trkpt>
<trkpt lat="43.57567" lon="5.40357">
<ele>331.5</ele>
<time>2012-03-24T13:24:24.000Z</time>
</trkpt>
<trkpt lat="43.5757" lon="5.40364">
<ele>332</ele>
<time>2012-03-24T13:24:25.000Z</time>
</trkpt>
<trkpt lat="43.57574" lon="5.40372">
<ele>332.2</ele>
<time>2012-03-24T13:24:26.000Z</time>
</trkpt>
<trkpt lat="43.57578" lon="5.4038">
<ele>332.4</ele>
<time>2012-03-24T13:24:27.000Z</time>
</trkpt>
<trkpt lat="43.57581" lon="5.40387">
<ele>332.4</ele>
<time>2012-03-24T13:24:28.000Z</time>
</trkpt>
<trkpt lat="43.57584" lon="5.40396">
<ele>332.3</ele>
<time>2012-03-24T13:24:29.000Z</time>
</trkpt>
<trkpt lat="43.57588" lon="5.40404">
<ele>332.7</ele>
<time>2012-03-24T13:24:30.000Z</time>
</trkpt>
<trkpt lat="43.57591" lon="5.40412">
<ele>332.9</ele>
<time>2012-03-24T13:24:31.000Z</time>
</trkpt>
<trkpt lat="43.57595" lon="5.4042">
<ele>333.2</ele>
<time>2012-03-24T13:24:32.000Z</time>
</trkpt>
<trkpt lat="43.57598" lon="5.40428">
<ele>333.4</ele>
<time>2012-03-24T13:24:33.000Z</time>
</trkpt>
<trkpt lat="43.57602" lon="5.40436">
<ele>333.3</ele>
<time>2012-03-24T13:24:34.000Z</time>
</trkpt>
<trkpt lat="43.57606" lon="5.40445">
<ele>333.2</ele>
<time>2012-03-24T13:24:35.000Z</time>
</trkpt>
<trkpt lat="43.57609" lon="5.40453">
<ele>333.4</ele>
<time>2012-03-24T13:24:36.000Z</time>
</trkpt>
<trkpt lat="43.57614" lon="5.40463">
<ele>331.8</ele>
<time>2012-03-24T13:24:37.000Z</time>
</trkpt>
<trkpt lat="43.57617" lon="5.40472">
<ele>332.4</ele>
<time>2012-03-24T13:24:38.000Z</time>
</trkpt>
<trkpt lat="43.57621" lon="5.4048">
<ele>332.7</ele>
<time>2012-03-24T13:24:39.000Z</time>
</trkpt>
<trkpt lat="43.57624" lon="5.40489">
<ele>332.9</ele>
<time>2012-03-24T13:24:40.000Z</time>
</trkpt>
<trkpt lat="43.57628" lon="5.40496">
<ele>333.2</ele>
<time>2012-03-24T13:24:41.000Z</time>
</trkpt>
<trkpt lat="43.57631" lon="5.40505">
<ele>333</ele>
<time>2012-03-24T13:24:42.000Z</time>
</trkpt>
<trkpt lat="43.57635" lon="5.40513">
<ele>333.4</ele>
<time>2012-03-24T13:24:43.000Z</time>
</trkpt>
<trkpt lat="43.57638" lon="5.40521">
<ele>333.9</ele>
<time>2012-03-24T13:24:44.000Z</time>
</trkpt>
<trkpt lat="43.57642" lon="5.40529">
<ele>334.1</ele>
<time>2012-03-24T13:24:45.000Z</time>
</trkpt>
<trkpt lat="43.57645" lon="5.40537">
<ele>334.7</ele>
<time>2012-03-24T13:24:46.000Z</time>
</trkpt>
<trkpt lat="43.57648" lon="5.40545">
<ele>334.6</ele>
<time>2012-03-24T13:24:47.000Z</time>
</trkpt>
<trkpt lat="43.57652" lon="5.40554">
<ele>334.9</ele>
<time>2012-03-24T13:24:48.000Z</time>
</trkpt>
<trkpt lat="43.57654" lon="5.40562">
<ele>335.3</ele>
<time>2012-03-24T13:24:49.000Z</time>
</trkpt>
<trkpt lat="43.57657" lon="5.4057">
<ele>335.5</ele>
<time>2012-03-24T13:24:50.000Z</time>
</trkpt>
<trkpt lat="43.57661" lon="5.40578">
<ele>335.8</ele>
<time>2012-03-24T13:24:51.000Z</time>
</trkpt>
<trkpt lat="43.57664" lon="5.40586">
<ele>335.6</ele>
<time>2012-03-24T13:24:52.000Z</time>
</trkpt>
<trkpt lat="43.57667" lon="5.40594">
<ele>335.6</ele>
<time>2012-03-24T13:24:53.000Z</time>
</trkpt>
<trkpt lat="43.57671" lon="5.40602">
<ele>335.8</ele>
<time>2012-03-24T13:24:54.000Z</time>
</trkpt>
<trkpt lat="43.57674" lon="5.40611">
<ele>335.8</ele>
<time>2012-03-24T13:24:55.000Z</time>
</trkpt>
<trkpt lat="43.57678" lon="5.40619">
<ele>335</ele>
<time>2012-03-24T13:24:56.000Z</time>
</trkpt>
<trkpt lat="43.57682" lon="5.40628">
<ele>335</ele>
<time>2012-03-24T13:24:57.000Z</time>
</trkpt>
<trkpt lat="43.57686" lon="5.40637">
<ele>335.3</ele>
<time>2012-03-24T13:24:58.000Z</time>
</trkpt>
<trkpt lat="43.5769" lon="5.40645">
<ele>335.4</ele>
<time>2012-03-24T13:24:59.000Z</time>
</trkpt>
<trkpt lat="43.57693" lon="5.40654">
<ele>335.5</ele>
<time>2012-03-24T13:25:00.000Z</time>
</trkpt>
<trkpt lat="43.57697" lon="5.40662">
<ele>335.8</ele>
<time>2012-03-24T13:25:01.000Z</time>
</trkpt>
<trkpt lat="43.577" lon="5.4067">
<ele>336.1</ele>
<time>2012-03-24T13:25:02.000Z</time>
</trkpt>
<trkpt lat="43.57704" lon="5.40678">
<ele>336.3</ele>
<time>2012-03-24T13:25:03.000Z</time>
</trkpt>
<trkpt lat="43.57706" lon="5.40686">
<ele>336.1</ele>
<time>2012-03-24T13:25:04.000Z</time>
</trkpt>
<trkpt lat="43.5771" lon="5.40694">
<ele>336.2</ele>
<time>2012-03-24T13:25:05.000Z</time>
</trkpt>
<trkpt lat="43.57712" lon="5.40704">
<ele>334</ele>
<time>2012-03-24T13:25:06.000Z</time>
</trkpt>
<trkpt lat="43.57716" lon="5.40713">
<ele>333.6</ele>
<time>2012-03-24T13:25:07.000Z</time>
</trkpt>
<trkpt lat="43.57717" lon="5.40721">
<ele>333.6</ele>
<time>2012-03-24T13:25:08.000Z</time>
</trkpt>
<trkpt lat="43.57719" lon="5.40731">
<ele>333.5</ele>
<time>2012-03-24T13:25:09.000Z</time>
</trkpt>
<trkpt lat="43.5772" lon="5.4074">
<ele>332.9</ele>
<time>2012-03-24T13:25:10.000Z</time>
</trkpt>
<trkpt lat="43.57722" lon="5.4075">
<ele>333.5</ele>
<time>2012-03-24T13:25:11.000Z</time>
</trkpt>
<trkpt lat="43.57723" lon="5.40759">
<ele>333.5</ele>
<time>2012-03-24T13:25:12.000Z</time>
</trkpt>
<trkpt lat="43.57723" lon="5.40768">
<ele>333.3</ele>
<time>2012-03-24T13:25:13.000Z</time>
</trkpt>
<trkpt lat="43.57724" lon="5.40778">
<ele>333.4</ele>
<time>2012-03-24T13:25:14.000Z</time>
</trkpt>
<trkpt lat="43.57724" lon="5.40788">
<ele>333.2</ele>
<time>2012-03-24T13:25:15.000Z</time>
</trkpt>
<trkpt lat="43.57724" lon="5.40799">
<ele>332.7</ele>
<time>2012-03-24T13:25:16.000Z</time>
</trkpt>
<trkpt lat="43.57725" lon="5.4081">
<ele>332.6</ele>
<time>2012-03-24T13:25:17.000Z</time>
</trkpt>
<trkpt lat="43.57724" lon="5.4082">
<ele>332.7</ele>
<time>2012-03-24T13:25:18.000Z</time>
</trkpt>
<trkpt lat="43.57725" lon="5.40831">
<ele>333.3</ele>
<time>2012-03-24T13:25:19.000Z</time>
</trkpt>
<trkpt lat="43.57725" lon="5.40842">
<ele>332.7</ele>
<time>2012-03-24T13:25:20.000Z</time>
</trkpt>
<trkpt lat="43.57725" lon="5.40853">
<ele>332.3</ele>
<time>2012-03-24T13:25:21.000Z</time>
</trkpt>
<trkpt lat="43.57725" lon="5.40863">
<ele>332.7</ele>
<time>2012-03-24T13:25:22.000Z</time>
</trkpt>
<trkpt lat="43.57724" lon="5.40874">
<ele>332.7</ele>
<time>2012-03-24T13:25:23.000Z</time>
</trkpt>
<trkpt lat="43.57723" lon="5.40885">
<ele>332.8</ele>
<time>2012-03-24T13:25:24.000Z</time>
</trkpt>
<trkpt lat="43.57721" lon="5.40896">
<ele>333.1</ele>
<time>2012-03-24T13:25:25.000Z</time>
</trkpt>
<trkpt lat="43.57719" lon="5.40906">
<ele>333.1</ele>
<time>2012-03-24T13:25:26.000Z</time>
</trkpt>
<trkpt lat="43.57717" lon="5.40917">
<ele>332.9</ele>
<time>2012-03-24T13:25:27.000Z</time>
</trkpt>
<trkpt lat="43.57714" lon="5.40928">
<ele>332.9</ele>
<time>2012-03-24T13:25:28.000Z</time>
</trkpt>
<trkpt lat="43.57712" lon="5.40939">
<ele>332.9</ele>
<time>2012-03-24T13:25:29.000Z</time>
</trkpt>
<trkpt lat="43.57709" lon="5.4095">
<ele>333.2</ele>
<time>2012-03-24T13:25:30.000Z</time>
</trkpt>
<trkpt lat="43.57706" lon="5.40962">
<ele>332.7</ele>
<time>2012-03-24T13:25:31.000Z</time>
</trkpt>
<trkpt lat="43.57704" lon="5.40972">
<ele>332.7</ele>
<time>2012-03-24T13:25:32.000Z</time>
</trkpt>
<trkpt lat="43.57702" lon="5.40984">
<ele>333</ele>
<time>2012-03-24T13:25:33.000Z</time>
</trkpt>
<trkpt lat="43.577" lon="5.40994">
<ele>333.2</ele>
<time>2012-03-24T13:25:34.000Z</time>
</trkpt>
<trkpt lat="43.57698" lon="5.41005">
<ele>333.3</ele>
<time>2012-03-24T13:25:35.000Z</time>
</trkpt>
<trkpt lat="43.57695" lon="5.41015">
<ele>333.2</ele>
<time>2012-03-24T13:25:36.000Z</time>
</trkpt>
<trkpt lat="43.57692" lon="5.41025">
<ele>332.7</ele>
<time>2012-03-24T13:25:37.000Z</time>
</trkpt>
<trkpt lat="43.5769" lon="5.41035">
<ele>332.8</ele>
<time>2012-03-24T13:25:38.000Z</time>
</trkpt>
<trkpt lat="43.57688" lon="5.41046">
<ele>332.7</ele>
<time>2012-03-24T13:25:39.000Z</time>
</trkpt>
<trkpt lat="43.57686" lon="5.41056">
<ele>332.6</ele>
<time>2012-03-24T13:25:40.000Z</time>
</trkpt>
<trkpt lat="43.57684" lon="5.41066">
<ele>332.2</ele>
<time>2012-03-24T13:25:41.000Z</time>
</trkpt>
<trkpt lat="43.57682" lon="5.41076">
<ele>333.2</ele>
<time>2012-03-24T13:25:42.000Z</time>
</trkpt>
<trkpt lat="43.57679" lon="5.41085">
<ele>332.5</ele>
<time>2012-03-24T13:25:43.000Z</time>
</trkpt>
<trkpt lat="43.57678" lon="5.41095">
<ele>332.9</ele>
<time>2012-03-24T13:25:44.000Z</time>
</trkpt>
<trkpt lat="43.57675" lon="5.41104">
<ele>333.5</ele>
<time>2012-03-24T13:25:45.000Z</time>
</trkpt>
<trkpt lat="43.57673" lon="5.41113">
<ele>334.1</ele>
<time>2012-03-24T13:25:46.000Z</time>
</trkpt>
<trkpt lat="43.57671" lon="5.41122">
<ele>335.2</ele>
<time>2012-03-24T13:25:47.000Z</time>
</trkpt>
<trkpt lat="43.57669" lon="5.41131">
<ele>335.5</ele>
<time>2012-03-24T13:25:48.000Z</time>
</trkpt>
<trkpt lat="43.57667" lon="5.4114">
<ele>334.7</ele>
<time>2012-03-24T13:25:49.000Z</time>
</trkpt>
<trkpt lat="43.57665" lon="5.41148">
<ele>334.9</ele>
<time>2012-03-24T13:25:50.000Z</time>
</trkpt>
<trkpt lat="43.57663" lon="5.41156">
<ele>335.1</ele>
<time>2012-03-24T13:25:51.000Z</time>
</trkpt>
<trkpt lat="43.57662" lon="5.41165">
<ele>335.2</ele>
<time>2012-03-24T13:25:52.000Z</time>
</trkpt>
<trkpt lat="43.5766" lon="5.41174">
<ele>335.3</ele>
<time>2012-03-24T13:25:53.000Z</time>
</trkpt>
<trkpt lat="43.57658" lon="5.41183">
<ele>335.3</ele>
<time>2012-03-24T13:25:54.000Z</time>
</trkpt>
<trkpt lat="43.57656" lon="5.41192">
<ele>335.7</ele>
<time>2012-03-24T13:25:55.000Z</time>
</trkpt>
<trkpt lat="43.57654" lon="5.41202">
<ele>335.7</ele>
<time>2012-03-24T13:25:56.000Z</time>
</trkpt>
<trkpt lat="43.57652" lon="5.41211">
<ele>335.3</ele>
<time>2012-03-24T13:25:57.000Z</time>
</trkpt>
<trkpt lat="43.5765" lon="5.41221">
<ele>335.6</ele>
<time>2012-03-24T13:25:58.000Z</time>
</trkpt>
<trkpt lat="43.57648" lon="5.4123">
<ele>335.8</ele>
<time>2012-03-24T13:25:59.000Z</time>
</trkpt>
<trkpt lat="43.57645" lon="5.41238">
<ele>335.7</ele>
<time>2012-03-24T13:26:00.000Z</time>
</trkpt>
<trkpt lat="43.57643" lon="5.41247">
<ele>335.5</ele>
<time>2012-03-24T13:26:01.000Z</time>
</trkpt>
<trkpt lat="43.5764" lon="5.41258">
<ele>335.8</ele>
<time>2012-03-24T13:26:02.000Z</time>
</trkpt>
<trkpt lat="43.57638" lon="5.41267">
<ele>336</ele>
<time>2012-03-24T13:26:03.000Z</time>
</trkpt>
<trkpt lat="43.57636" lon="5.41277">
<ele>336.2</ele>
<time>2012-03-24T13:26:04.000Z</time>
</trkpt>
<trkpt lat="43.57634" lon="5.41286">
<ele>336.7</ele>
<time>2012-03-24T13:26:05.000Z</time>
</trkpt>
<trkpt lat="43.57631" lon="5.41296">
<ele>336.4</ele>
<time>2012-03-24T13:26:06.000Z</time>
</trkpt>
<trkpt lat="43.57628" lon="5.41304">
<ele>336.1</ele>
<time>2012-03-24T13:26:07.000Z</time>
</trkpt>
<trkpt lat="43.57625" lon="5.41313">
<ele>335.8</ele>
<time>2012-03-24T13:26:08.000Z</time>
</trkpt>
<trkpt lat="43.57622" lon="5.41322">
<ele>335.6</ele>
<time>2012-03-24T13:26:09.000Z</time>
</trkpt>
<trkpt lat="43.57618" lon="5.4133">
<ele>335.8</ele>
<time>2012-03-24T13:26:10.000Z</time>
</trkpt>
<trkpt lat="43.57614" lon="5.41337">
<ele>336</ele>
<time>2012-03-24T13:26:11.000Z</time>
</trkpt>
<trkpt lat="43.57611" lon="5.41344">
<ele>336.5</ele>
<time>2012-03-24T13:26:12.000Z</time>
</trkpt>
<trkpt lat="43.57607" lon="5.41353">
<ele>336.5</ele>
<time>2012-03-24T13:26:13.000Z</time>
</trkpt>
<trkpt lat="43.57603" lon="5.41362">
<ele>335.9</ele>
<time>2012-03-24T13:26:14.000Z</time>
</trkpt>
<trkpt lat="43.576" lon="5.41371">
<ele>335.6</ele>
<time>2012-03-24T13:26:15.000Z</time>
</trkpt>
<trkpt lat="43.57596" lon="5.4138">
<ele>336.1</ele>
<time>2012-03-24T13:26:16.000Z</time>
</trkpt>
<trkpt lat="43.57591" lon="5.41388">
<ele>337</ele>
<time>2012-03-24T13:26:17.000Z</time>
</trkpt>
<trkpt lat="43.57589" lon="5.41396">
<ele>333.1</ele>
<time>2012-03-24T13:26:18.000Z</time>
</trkpt>
<trkpt lat="43.57585" lon="5.41404">
<ele>333.4</ele>
<time>2012-03-24T13:26:19.000Z</time>
</trkpt>
<trkpt lat="43.57582" lon="5.41412">
<ele>332.5</ele>
<time>2012-03-24T13:26:20.000Z</time>
</trkpt>
<trkpt lat="43.5758" lon="5.41419">
<ele>332.7</ele>
<time>2012-03-24T13:26:21.000Z</time>
</trkpt>
<trkpt lat="43.57577" lon="5.41428">
<ele>332.2</ele>
<time>2012-03-24T13:26:22.000Z</time>
</trkpt>
<trkpt lat="43.57574" lon="5.41437">
<ele>331.8</ele>
<time>2012-03-24T13:26:23.000Z</time>
</trkpt>
<trkpt lat="43.57572" lon="5.41446">
<ele>331.8</ele>
<time>2012-03-24T13:26:24.000Z</time>
</trkpt>
<trkpt lat="43.5757" lon="5.41456">
<ele>332</ele>
<time>2012-03-24T13:26:25.000Z</time>
</trkpt>
<trkpt lat="43.57567" lon="5.41465">
<ele>332</ele>
<time>2012-03-24T13:26:26.000Z</time>
</trkpt>
<trkpt lat="43.57566" lon="5.41474">
<ele>332.3</ele>
<time>2012-03-24T13:26:27.000Z</time>
</trkpt>
<trkpt lat="43.57564" lon="5.41485">
<ele>332.6</ele>
<time>2012-03-24T13:26:28.000Z</time>
</trkpt>
<trkpt lat="43.57561" lon="5.41494">
<ele>332.8</ele>
<time>2012-03-24T13:26:29.000Z</time>
</trkpt>
<trkpt lat="43.57559" lon="5.41505">
<ele>332.9</ele>
<time>2012-03-24T13:26:30.000Z</time>
</trkpt>
<trkpt lat="43.57558" lon="5.41515">
<ele>333.9</ele>
<time>2012-03-24T13:26:31.000Z</time>
</trkpt>
<trkpt lat="43.57556" lon="5.41524">
<ele>334.2</ele>
<time>2012-03-24T13:26:32.000Z</time>
</trkpt>
<trkpt lat="43.57555" lon="5.41533">
<ele>335</ele>
<time>2012-03-24T13:26:33.000Z</time>
</trkpt>
<trkpt lat="43.57553" lon="5.41543">
<ele>335.5</ele>
<time>2012-03-24T13:26:34.000Z</time>
</trkpt>
<trkpt lat="43.57552" lon="5.41552">
<ele>336</ele>
<time>2012-03-24T13:26:35.000Z</time>
</trkpt>
<trkpt lat="43.57549" lon="5.41562">
<ele>337.2</ele>
<time>2012-03-24T13:26:36.000Z</time>
</trkpt>
<trkpt lat="43.57548" lon="5.41572">
<ele>337.9</ele>
<time>2012-03-24T13:26:37.000Z</time>
</trkpt>
<trkpt lat="43.57546" lon="5.41581">
<ele>338.3</ele>
<time>2012-03-24T13:26:38.000Z</time>
</trkpt>
<trkpt lat="43.57544" lon="5.41591">
<ele>338.3</ele>
<time>2012-03-24T13:26:39.000Z</time>
</trkpt>
<trkpt lat="43.57542" lon="5.41601">
<ele>338.5</ele>
<time>2012-03-24T13:26:40.000Z</time>
</trkpt>
<trkpt lat="43.5754" lon="5.41611">
<ele>339</ele>
<time>2012-03-24T13:26:41.000Z</time>
</trkpt>
<trkpt lat="43.57538" lon="5.41621">
<ele>339.1</ele>
<time>2012-03-24T13:26:42.000Z</time>
</trkpt>
<trkpt lat="43.57537" lon="5.41631">
<ele>339.3</ele>
<time>2012-03-24T13:26:43.000Z</time>
</trkpt>
<trkpt lat="43.57535" lon="5.41642">
<ele>339.5</ele>
<time>2012-03-24T13:26:44.000Z</time>
</trkpt>
<trkpt lat="43.57532" lon="5.41652">
<ele>339.7</ele>
<time>2012-03-24T13:26:45.000Z</time>
</trkpt>
<trkpt lat="43.5753" lon="5.41662">
<ele>339.7</ele>
<time>2012-03-24T13:26:46.000Z</time>
</trkpt>
<trkpt lat="43.57528" lon="5.41672">
<ele>339.7</ele>
<time>2012-03-24T13:26:47.000Z</time>
</trkpt>
<trkpt lat="43.57525" lon="5.41683">
<ele>340.1</ele>
<time>2012-03-24T13:26:48.000Z</time>
</trkpt>
<trkpt lat="43.57522" lon="5.41694">
<ele>340.5</ele>
<time>2012-03-24T13:26:49.000Z</time>
</trkpt>
<trkpt lat="43.5752" lon="5.41704">
<ele>340.8</ele>
<time>2012-03-24T13:26:50.000Z</time>
</trkpt>
<trkpt lat="43.57518" lon="5.41714">
<ele>341.1</ele>
<time>2012-03-24T13:26:51.000Z</time>
</trkpt>
<trkpt lat="43.57516" lon="5.41723">
<ele>341.4</ele>
<time>2012-03-24T13:26:52.000Z</time>
</trkpt>
<trkpt lat="43.57514" lon="5.41733">
<ele>341.7</ele>
<time>2012-03-24T13:26:53.000Z</time>
</trkpt>
<trkpt lat="43.57512" lon="5.41742">
<ele>342</ele>
<time>2012-03-24T13:26:54.000Z</time>
</trkpt>
<trkpt lat="43.57511" lon="5.41752">
<ele>342.3</ele>
<time>2012-03-24T13:26:55.000Z</time>
</trkpt>
<trkpt lat="43.5751" lon="5.41762">
<ele>342.5</ele>
<time>2012-03-24T13:26:56.000Z</time>
</trkpt>
<trkpt lat="43.5751" lon="5.41771">
<ele>342.5</ele>
<time>2012-03-24T13:26:57.000Z</time>
</trkpt>
<trkpt lat="43.57509" lon="5.41781">
<ele>342.7</ele>
<time>2012-03-24T13:26:58.000Z</time>
</trkpt>
<trkpt lat="43.57509" lon="5.41791">
<ele>343.1</ele>
<time>2012-03-24T13:26:59.000Z</time>
</trkpt>
<trkpt lat="43.57508" lon="5.418">
<ele>343</ele>
<time>2012-03-24T13:27:00.000Z</time>
</trkpt>
<trkpt lat="43.57508" lon="5.41809">
<ele>343.3</ele>
<time>2012-03-24T13:27:01.000Z</time>
</trkpt>
<trkpt lat="43.57508" lon="5.41818">
<ele>343.5</ele>
<time>2012-03-24T13:27:02.000Z</time>
</trkpt>
<trkpt lat="43.57508" lon="5.41827">
<ele>343.6</ele>
<time>2012-03-24T13:27:03.000Z</time>
</trkpt>
<trkpt lat="43.57508" lon="5.41837">
<ele>343.3</ele>
<time>2012-03-24T13:27:04.000Z</time>
</trkpt>
<trkpt lat="43.57508" lon="5.41846">
<ele>343.6</ele>
<time>2012-03-24T13:27:05.000Z</time>
</trkpt>
<trkpt lat="43.57508" lon="5.41856">
<ele>343.3</ele>
<time>2012-03-24T13:27:06.000Z</time>
</trkpt>
<trkpt lat="43.57509" lon="5.41865">
<ele>343.4</ele>
<time>2012-03-24T13:27:07.000Z</time>
</trkpt>
<trkpt lat="43.57509" lon="5.41875">
<ele>344</ele>
<time>2012-03-24T13:27:08.000Z</time>
</trkpt>
<trkpt lat="43.57509" lon="5.41885">
<ele>344.7</ele>
<time>2012-03-24T13:27:09.000Z</time>
</trkpt>
<trkpt lat="43.57509" lon="5.41894">
<ele>344.1</ele>
<time>2012-03-24T13:27:10.000Z</time>
</trkpt>
<trkpt lat="43.5751" lon="5.41903">
<ele>344</ele>
<time>2012-03-24T13:27:11.000Z</time>
</trkpt>
<trkpt lat="43.5751" lon="5.41913">
<ele>344.3</ele>
<time>2012-03-24T13:27:12.000Z</time>
</trkpt>
<trkpt lat="43.57509" lon="5.41923">
<ele>344.2</ele>
<time>2012-03-24T13:27:13.000Z</time>
</trkpt>
<trkpt lat="43.57508" lon="5.41934">
<ele>344.3</ele>
<time>2012-03-24T13:27:14.000Z</time>
</trkpt>
<trkpt lat="43.57508" lon="5.41944">
<ele>344.6</ele>
<time>2012-03-24T13:27:15.000Z</time>
</trkpt>
<trkpt lat="43.57508" lon="5.41954">
<ele>344.7</ele>
<time>2012-03-24T13:27:16.000Z</time>
</trkpt>
<trkpt lat="43.57507" lon="5.41964">
<ele>344.9</ele>
<time>2012-03-24T13:27:17.000Z</time>
</trkpt>
<trkpt lat="43.57506" lon="5.41973">
<ele>345.1</ele>
<time>2012-03-24T13:27:18.000Z</time>
</trkpt>
<trkpt lat="43.57506" lon="5.41983">
<ele>345.3</ele>
<time>2012-03-24T13:27:19.000Z</time>
</trkpt>
<trkpt lat="43.57506" lon="5.41993">
<ele>345.1</ele>
<time>2012-03-24T13:27:20.000Z</time>
</trkpt>
<trkpt lat="43.57505" lon="5.42003">
<ele>345.2</ele>
<time>2012-03-24T13:27:21.000Z</time>
</trkpt>
<trkpt lat="43.57505" lon="5.42013">
<ele>345.4</ele>
<time>2012-03-24T13:27:22.000Z</time>
</trkpt>
<trkpt lat="43.57505" lon="5.42022">
<ele>345.4</ele>
<time>2012-03-24T13:27:23.000Z</time>
</trkpt>
<trkpt lat="43.57504" lon="5.42032">
<ele>345.5</ele>
<time>2012-03-24T13:27:24.000Z</time>
</trkpt>
<trkpt lat="43.57504" lon="5.42042">
<ele>345.2</ele>
<time>2012-03-24T13:27:25.000Z</time>
</trkpt>
<trkpt lat="43.57503" lon="5.42052">
<ele>345</ele>
<time>2012-03-24T13:27:26.000Z</time>
</trkpt>
<trkpt lat="43.57503" lon="5.42061">
<ele>345.2</ele>
<time>2012-03-24T13:27:27.000Z</time>
</trkpt>
<trkpt lat="43.57502" lon="5.42071">
<ele>345.6</ele>
<time>2012-03-24T13:27:28.000Z</time>
</trkpt>
<trkpt lat="43.57501" lon="5.4208">
<ele>345.8</ele>
<time>2012-03-24T13:27:29.000Z</time>
</trkpt>
<trkpt lat="43.57501" lon="5.4209">
<ele>346.4</ele>
<time>2012-03-24T13:27:30.000Z</time>
</trkpt>
<trkpt lat="43.575" lon="5.42099">
<ele>346.1</ele>
<time>2012-03-24T13:27:31.000Z</time>
</trkpt>
<trkpt lat="43.575" lon="5.42109">
<ele>346.1</ele>
<time>2012-03-24T13:27:32.000Z</time>
</trkpt>
<trkpt lat="43.575" lon="5.42116">
<ele>346.5</ele>
<time>2012-03-24T13:27:33.000Z</time>
</trkpt>
<trkpt lat="43.57499" lon="5.42125">
<ele>346.2</ele>
<time>2012-03-24T13:27:34.000Z</time>
</trkpt>
<trkpt lat="43.57497" lon="5.42134">
<ele>346.4</ele>
<time>2012-03-24T13:27:35.000Z</time>
</trkpt>
<trkpt lat="43.57496" lon="5.42143">
<ele>346.7</ele>
<time>2012-03-24T13:27:36.000Z</time>
</trkpt>
<trkpt lat="43.57495" lon="5.4215">
<ele>346.8</ele>
<time>2012-03-24T13:27:37.000Z</time>
</trkpt>
<trkpt lat="43.57492" lon="5.42159">
<ele>346.9</ele>
<time>2012-03-24T13:27:38.000Z</time>
</trkpt>
<trkpt lat="43.5749" lon="5.42168">
<ele>347.1</ele>
<time>2012-03-24T13:27:39.000Z</time>
</trkpt>
<trkpt lat="43.57488" lon="5.42175">
<ele>347.4</ele>
<time>2012-03-24T13:27:40.000Z</time>
</trkpt>
<trkpt lat="43.57487" lon="5.42184">
<ele>347.3</ele>
<time>2012-03-24T13:27:41.000Z</time>
</trkpt>
<trkpt lat="43.57488" lon="5.42192">
<ele>347</ele>
<time>2012-03-24T13:27:42.000Z</time>
</trkpt>
<trkpt lat="43.5749" lon="5.422">
<ele>347</ele>
<time>2012-03-24T13:27:43.000Z</time>
</trkpt>
<trkpt lat="43.57494" lon="5.42207">
<ele>347.3</ele>
<time>2012-03-24T13:27:44.000Z</time>
</trkpt>
<trkpt lat="43.57497" lon="5.42214">
<ele>347.3</ele>
<time>2012-03-24T13:27:45.000Z</time>
</trkpt>
<trkpt lat="43.57504" lon="5.42218">
<ele>346.9</ele>
<time>2012-03-24T13:27:46.000Z</time>
</trkpt>
<trkpt lat="43.57509" lon="5.42225">
<ele>347</ele>
<time>2012-03-24T13:27:47.000Z</time>
</trkpt>
<trkpt lat="43.57513" lon="5.42233">
<ele>347.3</ele>
<time>2012-03-24T13:27:48.000Z</time>
</trkpt>
<trkpt lat="43.57516" lon="5.42241">
<ele>347.2</ele>
<time>2012-03-24T13:27:49.000Z</time>
</trkpt>
<trkpt lat="43.57518" lon="5.42251">
<ele>346.9</ele>
<time>2012-03-24T13:27:50.000Z</time>
</trkpt>
<trkpt lat="43.57521" lon="5.42261">
<ele>346.4</ele>
<time>2012-03-24T13:27:51.000Z</time>
</trkpt>
<trkpt lat="43.57523" lon="5.42272">
<ele>346.1</ele>
<time>2012-03-24T13:27:52.000Z</time>
</trkpt>
<trkpt lat="43.57526" lon="5.42283">
<ele>345.9</ele>
<time>2012-03-24T13:27:53.000Z</time>
</trkpt>
<trkpt lat="43.57528" lon="5.42293">
<ele>345.8</ele>
<time>2012-03-24T13:27:54.000Z</time>
</trkpt>
<trkpt lat="43.57531" lon="5.42304">
<ele>345.8</ele>
<time>2012-03-24T13:27:55.000Z</time>
</trkpt>
<trkpt lat="43.57532" lon="5.42315">
<ele>345.4</ele>
<time>2012-03-24T13:27:56.000Z</time>
</trkpt>
<trkpt lat="43.57535" lon="5.42326">
<ele>345.4</ele>
<time>2012-03-24T13:27:57.000Z</time>
</trkpt>
<trkpt lat="43.57537" lon="5.42336">
<ele>345.2</ele>
<time>2012-03-24T13:27:58.000Z</time>
</trkpt>
<trkpt lat="43.57538" lon="5.42347">
<ele>345.3</ele>
<time>2012-03-24T13:27:59.000Z</time>
</trkpt>
<trkpt lat="43.57541" lon="5.42358">
<ele>345.3</ele>
<time>2012-03-24T13:28:00.000Z</time>
</trkpt>
<trkpt lat="43.57543" lon="5.42371">
<ele>345.1</ele>
<time>2012-03-24T13:28:01.000Z</time>
</trkpt>
<trkpt lat="43.57543" lon="5.42382">
<ele>345.2</ele>
<time>2012-03-24T13:28:02.000Z</time>
</trkpt>
<trkpt lat="43.57544" lon="5.42393">
<ele>344.9</ele>
<time>2012-03-24T13:28:03.000Z</time>
</trkpt>
<trkpt lat="43.57546" lon="5.42405">
<ele>345.1</ele>
<time>2012-03-24T13:28:04.000Z</time>
</trkpt>
<trkpt lat="43.57547" lon="5.42415">
<ele>345.4</ele>
<time>2012-03-24T13:28:05.000Z</time>
</trkpt>
<trkpt lat="43.57548" lon="5.42426">
<ele>344.7</ele>
<time>2012-03-24T13:28:06.000Z</time>
</trkpt>
<trkpt lat="43.5755" lon="5.42436">
<ele>344.8</ele>
<time>2012-03-24T13:28:07.000Z</time>
</trkpt>
<trkpt lat="43.57552" lon="5.42447">
<ele>344.7</ele>
<time>2012-03-24T13:28:08.000Z</time>
</trkpt>
<trkpt lat="43.57553" lon="5.42456">
<ele>344.5</ele>
<time>2012-03-24T13:28:09.000Z</time>
</trkpt>
<trkpt lat="43.57554" lon="5.42466">
<ele>344.8</ele>
<time>2012-03-24T13:28:10.000Z</time>
</trkpt>
<trkpt lat="43.57555" lon="5.42477">
<ele>345</ele>
<time>2012-03-24T13:28:11.000Z</time>
</trkpt>
<trkpt lat="43.57556" lon="5.42487">
<ele>345.4</ele>
<time>2012-03-24T13:28:12.000Z</time>
</trkpt>
<trkpt lat="43.57557" lon="5.42497">
<ele>344.9</ele>
<time>2012-03-24T13:28:13.000Z</time>
</trkpt>
<trkpt lat="43.57558" lon="5.42507">
<ele>344.6</ele>
<time>2012-03-24T13:28:14.000Z</time>
</trkpt>
<trkpt lat="43.57559" lon="5.42517">
<ele>344.8</ele>
<time>2012-03-24T13:28:15.000Z</time>
</trkpt>
<trkpt lat="43.5756" lon="5.42527">
<ele>344.9</ele>
<time>2012-03-24T13:28:16.000Z</time>
</trkpt>
<trkpt lat="43.57562" lon="5.42536">
<ele>345</ele>
<time>2012-03-24T13:28:17.000Z</time>
</trkpt>
<trkpt lat="43.57563" lon="5.42546">
<ele>345.4</ele>
<time>2012-03-24T13:28:18.000Z</time>
</trkpt>
<trkpt lat="43.57565" lon="5.42556">
<ele>345.4</ele>
<time>2012-03-24T13:28:19.000Z</time>
</trkpt>
<trkpt lat="43.57566" lon="5.42566">
<ele>345.5</ele>
<time>2012-03-24T13:28:20.000Z</time>
</trkpt>
<trkpt lat="43.57569" lon="5.42575">
<ele>345.6</ele>
<time>2012-03-24T13:28:21.000Z</time>
</trkpt>
<trkpt lat="43.5757" lon="5.42584">
<ele>345.3</ele>
<time>2012-03-24T13:28:22.000Z</time>
</trkpt>
<trkpt lat="43.57572" lon="5.42593">
<ele>345.9</ele>
<time>2012-03-24T13:28:23.000Z</time>
</trkpt>
<trkpt lat="43.57574" lon="5.42603">
<ele>345.6</ele>
<time>2012-03-24T13:28:24.000Z</time>
</trkpt>
<trkpt lat="43.57576" lon="5.42612">
<ele>345.8</ele>
<time>2012-03-24T13:28:25.000Z</time>
</trkpt>
<trkpt lat="43.57578" lon="5.42621">
<ele>345.8</ele>
<time>2012-03-24T13:28:26.000Z</time>
</trkpt>
<trkpt lat="43.57581" lon="5.42631">
<ele>346.1</ele>
<time>2012-03-24T13:28:27.000Z</time>
</trkpt>
<trkpt lat="43.57582" lon="5.42639">
<ele>346.4</ele>
<time>2012-03-24T13:28:28.000Z</time>
</trkpt>
<trkpt lat="43.57585" lon="5.42648">
<ele>346.8</ele>
<time>2012-03-24T13:28:29.000Z</time>
</trkpt>
<trkpt lat="43.57587" lon="5.42657">
<ele>346.8</ele>
<time>2012-03-24T13:28:30.000Z</time>
</trkpt>
<trkpt lat="43.57589" lon="5.42665">
<ele>346.7</ele>
<time>2012-03-24T13:28:31.000Z</time>
</trkpt>
<trkpt lat="43.57591" lon="5.42673">
<ele>347.2</ele>
<time>2012-03-24T13:28:32.000Z</time>
</trkpt>
<trkpt lat="43.57593" lon="5.42682">
<ele>347.3</ele>
<time>2012-03-24T13:28:33.000Z</time>
</trkpt>
<trkpt lat="43.57595" lon="5.4269">
<ele>348</ele>
<time>2012-03-24T13:28:34.000Z</time>
</trkpt>
<trkpt lat="43.57598" lon="5.427">
<ele>348.3</ele>
<time>2012-03-24T13:28:35.000Z</time>
</trkpt>
<trkpt lat="43.576" lon="5.42708">
<ele>348.4</ele>
<time>2012-03-24T13:28:36.000Z</time>
</trkpt>
<trkpt lat="43.57603" lon="5.42716">
<ele>348.6</ele>
<time>2012-03-24T13:28:37.000Z</time>
</trkpt>
<trkpt lat="43.57606" lon="5.42724">
<ele>348.8</ele>
<time>2012-03-24T13:28:38.000Z</time>
</trkpt>
<trkpt lat="43.57609" lon="5.42732">
<ele>349</ele>
<time>2012-03-24T13:28:39.000Z</time>
</trkpt>
<trkpt lat="43.57612" lon="5.4274">
<ele>349.2</ele>
<time>2012-03-24T13:28:40.000Z</time>
</trkpt>
<trkpt lat="43.57614" lon="5.42748">
<ele>349.4</ele>
<time>2012-03-24T13:28:41.000Z</time>
</trkpt>
<trkpt lat="43.57618" lon="5.42756">
<ele>349.6</ele>
<time>2012-03-24T13:28:42.000Z</time>
</trkpt>
<trkpt lat="43.57621" lon="5.42765">
<ele>349.8</ele>
<time>2012-03-24T13:28:43.000Z</time>
</trkpt>
<trkpt lat="43.57624" lon="5.42773">
<ele>350</ele>
<time>2012-03-24T13:28:44.000Z</time>
</trkpt>
<trkpt lat="43.57627" lon="5.42781">
<ele>349.8</ele>
<time>2012-03-24T13:28:45.000Z</time>
</trkpt>
<trkpt lat="43.57631" lon="5.42789">
<ele>350</ele>
<time>2012-03-24T13:28:46.000Z</time>
</trkpt>
<trkpt lat="43.57634" lon="5.42797">
<ele>350.2</ele>
<time>2012-03-24T13:28:47.000Z</time>
</trkpt>
<trkpt lat="43.57638" lon="5.42805">
<ele>350.4</ele>
<time>2012-03-24T13:28:48.000Z</time>
</trkpt>
<trkpt lat="43.57642" lon="5.42813">
<ele>350.2</ele>
<time>2012-03-24T13:28:49.000Z</time>
</trkpt>
<trkpt lat="43.57646" lon="5.42821">
<ele>350.3</ele>
<time>2012-03-24T13:28:50.000Z</time>
</trkpt>
<trkpt lat="43.57649" lon="5.42829">
<ele>350.4</ele>
<time>2012-03-24T13:28:51.000Z</time>
</trkpt>
<trkpt lat="43.57653" lon="5.42838">
<ele>350.6</ele>
<time>2012-03-24T13:28:52.000Z</time>
</trkpt>
<trkpt lat="43.57658" lon="5.42845">
<ele>351</ele>
<time>2012-03-24T13:28:53.000Z</time>
</trkpt>
<trkpt lat="43.57662" lon="5.42853">
<ele>351.2</ele>
<time>2012-03-24T13:28:54.000Z</time>
</trkpt>
<trkpt lat="43.57666" lon="5.42861">
<ele>350.9</ele>
<time>2012-03-24T13:28:55.000Z</time>
</trkpt>
<trkpt lat="43.57671" lon="5.42869">
<ele>350.8</ele>
<time>2012-03-24T13:28:56.000Z</time>
</trkpt>
<trkpt lat="43.57675" lon="5.42877">
<ele>351.1</ele>
<time>2012-03-24T13:28:57.000Z</time>
</trkpt>
<trkpt lat="43.57679" lon="5.42885">
<ele>350.9</ele>
<time>2012-03-24T13:28:58.000Z</time>
</trkpt>
<trkpt lat="43.57683" lon="5.42893">
<ele>351</ele>
<time>2012-03-24T13:28:59.000Z</time>
</trkpt>
<trkpt lat="43.57687" lon="5.42901">
<ele>351.1</ele>
<time>2012-03-24T13:29:00.000Z</time>
</trkpt>
<trkpt lat="43.57691" lon="5.42909">
<ele>351.1</ele>
<time>2012-03-24T13:29:01.000Z</time>
</trkpt>
<trkpt lat="43.57696" lon="5.42916">
<ele>350.9</ele>
<time>2012-03-24T13:29:02.000Z</time>
</trkpt>
<trkpt lat="43.577" lon="5.42925">
<ele>350.7</ele>
<time>2012-03-24T13:29:03.000Z</time>
</trkpt>
<trkpt lat="43.57705" lon="5.42933">
<ele>351.1</ele>
<time>2012-03-24T13:29:04.000Z</time>
</trkpt>
<trkpt lat="43.57709" lon="5.42941">
<ele>351.3</ele>
<time>2012-03-24T13:29:05.000Z</time>
</trkpt>
<trkpt lat="43.57713" lon="5.42949">
<ele>351.6</ele>
<time>2012-03-24T13:29:06.000Z</time>
</trkpt>
<trkpt lat="43.57718" lon="5.42957">
<ele>351.6</ele>
<time>2012-03-24T13:29:07.000Z</time>
</trkpt>
<trkpt lat="43.57722" lon="5.42965">
<ele>351.8</ele>
<time>2012-03-24T13:29:08.000Z</time>
</trkpt>
<trkpt lat="43.57726" lon="5.42973">
<ele>351.8</ele>
<time>2012-03-24T13:29:09.000Z</time>
</trkpt>
<trkpt lat="43.5773" lon="5.42981">
<ele>351.9</ele>
<time>2012-03-24T13:29:10.000Z</time>
</trkpt>
<trkpt lat="43.57735" lon="5.42988">
<ele>352.4</ele>
<time>2012-03-24T13:29:11.000Z</time>
</trkpt>
<trkpt lat="43.57738" lon="5.42996">
<ele>352.8</ele>
<time>2012-03-24T13:29:12.000Z</time>
</trkpt>
<trkpt lat="43.57743" lon="5.43004">
<ele>352.8</ele>
<time>2012-03-24T13:29:13.000Z</time>
</trkpt>
<trkpt lat="43.57747" lon="5.43012">
<ele>353.2</ele>
<time>2012-03-24T13:29:14.000Z</time>
</trkpt>
<trkpt lat="43.57751" lon="5.4302">
<ele>353</ele>
<time>2012-03-24T13:29:15.000Z</time>
</trkpt>
<trkpt lat="43.57755" lon="5.43029">
<ele>353</ele>
<time>2012-03-24T13:29:16.000Z</time>
</trkpt>
<trkpt lat="43.57758" lon="5.43038">
<ele>353</ele>
<time>2012-03-24T13:29:17.000Z</time>
</trkpt>
<trkpt lat="43.57761" lon="5.43046">
<ele>353.3</ele>
<time>2012-03-24T13:29:18.000Z</time>
</trkpt>
<trkpt lat="43.57765" lon="5.43056">
<ele>353.2</ele>
<time>2012-03-24T13:29:19.000Z</time>
</trkpt>
<trkpt lat="43.57768" lon="5.43065">
<ele>353.4</ele>
<time>2012-03-24T13:29:20.000Z</time>
</trkpt>
<trkpt lat="43.57772" lon="5.43075">
<ele>353.2</ele>
<time>2012-03-24T13:29:21.000Z</time>
</trkpt>
<trkpt lat="43.57775" lon="5.43084">
<ele>353.2</ele>
<time>2012-03-24T13:29:22.000Z</time>
</trkpt>
<trkpt lat="43.57778" lon="5.43093">
<ele>353.3</ele>
<time>2012-03-24T13:29:23.000Z</time>
</trkpt>
<trkpt lat="43.57782" lon="5.43102">
<ele>353.2</ele>
<time>2012-03-24T13:29:24.000Z</time>
</trkpt>
<trkpt lat="43.57785" lon="5.43111">
<ele>353</ele>
<time>2012-03-24T13:29:25.000Z</time>
</trkpt>
<trkpt lat="43.57787" lon="5.43121">
<ele>352.7</ele>
<time>2012-03-24T13:29:26.000Z</time>
</trkpt>
<trkpt lat="43.5779" lon="5.4313">
<ele>352.8</ele>
<time>2012-03-24T13:29:27.000Z</time>
</trkpt>
<trkpt lat="43.57792" lon="5.43138">
<ele>352.7</ele>
<time>2012-03-24T13:29:28.000Z</time>
</trkpt>
<trkpt lat="43.57793" lon="5.43147">
<ele>352.7</ele>
<time>2012-03-24T13:29:29.000Z</time>
</trkpt>
<trkpt lat="43.57794" lon="5.43155">
<ele>352.3</ele>
<time>2012-03-24T13:29:30.000Z</time>
</trkpt>
<trkpt lat="43.57793" lon="5.43165">
<ele>352.2</ele>
<time>2012-03-24T13:29:31.000Z</time>
</trkpt>
<trkpt lat="43.57795" lon="5.43175">
<ele>352.5</ele>
<time>2012-03-24T13:29:32.000Z</time>
</trkpt>
<trkpt lat="43.57797" lon="5.43187">
<ele>352.5</ele>
<time>2012-03-24T13:29:33.000Z</time>
</trkpt>
<trkpt lat="43.57798" lon="5.43197">
<ele>352.4</ele>
<time>2012-03-24T13:29:34.000Z</time>
</trkpt>
<trkpt lat="43.57798" lon="5.43209">
<ele>352.5</ele>
<time>2012-03-24T13:29:35.000Z</time>
</trkpt>
<trkpt lat="43.578" lon="5.4322">
<ele>352.3</ele>
<time>2012-03-24T13:29:36.000Z</time>
</trkpt>
<trkpt lat="43.578" lon="5.43231">
<ele>355.3</ele>
<time>2012-03-24T13:29:37.000Z</time>
</trkpt>
<trkpt lat="43.57801" lon="5.43243">
<ele>356.9</ele>
<time>2012-03-24T13:29:38.000Z</time>
</trkpt>
<trkpt lat="43.57802" lon="5.43254">
<ele>356.4</ele>
<time>2012-03-24T13:29:39.000Z</time>
</trkpt>
<trkpt lat="43.57803" lon="5.43266">
<ele>356.8</ele>
<time>2012-03-24T13:29:40.000Z</time>
</trkpt>
<trkpt lat="43.57804" lon="5.43279">
<ele>356.3</ele>
<time>2012-03-24T13:29:41.000Z</time>
</trkpt>
<trkpt lat="43.57805" lon="5.43292">
<ele>355.6</ele>
<time>2012-03-24T13:29:42.000Z</time>
</trkpt>
<trkpt lat="43.57805" lon="5.43303">
<ele>355.3</ele>
<time>2012-03-24T13:29:43.000Z</time>
</trkpt>
<trkpt lat="43.57804" lon="5.43315">
<ele>356.1</ele>
<time>2012-03-24T13:29:44.000Z</time>
</trkpt>
<trkpt lat="43.57803" lon="5.43327">
<ele>355.5</ele>
<time>2012-03-24T13:29:45.000Z</time>
</trkpt>
<trkpt lat="43.57802" lon="5.43338">
<ele>355.1</ele>
<time>2012-03-24T13:29:46.000Z</time>
</trkpt>
<trkpt lat="43.57802" lon="5.4335">
<ele>355.5</ele>
<time>2012-03-24T13:29:47.000Z</time>
</trkpt>
<trkpt lat="43.578" lon="5.43361">
<ele>355.8</ele>
<time>2012-03-24T13:29:48.000Z</time>
</trkpt>
<trkpt lat="43.578" lon="5.43372">
<ele>355.8</ele>
<time>2012-03-24T13:29:49.000Z</time>
</trkpt>
<trkpt lat="43.57798" lon="5.43383">
<ele>355.5</ele>
<time>2012-03-24T13:29:50.000Z</time>
</trkpt>
<trkpt lat="43.57797" lon="5.43395">
<ele>354.7</ele>
<time>2012-03-24T13:29:51.000Z</time>
</trkpt>
<trkpt lat="43.57796" lon="5.43406">
<ele>354.3</ele>
<time>2012-03-24T13:29:52.000Z</time>
</trkpt>
<trkpt lat="43.57796" lon="5.43417">
<ele>354.9</ele>
<time>2012-03-24T13:29:53.000Z</time>
</trkpt>
<trkpt lat="43.57795" lon="5.43427">
<ele>355.3</ele>
<time>2012-03-24T13:29:54.000Z</time>
</trkpt>
<trkpt lat="43.57794" lon="5.43438">
<ele>354.8</ele>
<time>2012-03-24T13:29:55.000Z</time>
</trkpt>
<trkpt lat="43.57793" lon="5.43449">
<ele>354.6</ele>
<time>2012-03-24T13:29:56.000Z</time>
</trkpt>
<trkpt lat="43.57793" lon="5.4346">
<ele>354.5</ele>
<time>2012-03-24T13:29:57.000Z</time>
</trkpt>
<trkpt lat="43.57792" lon="5.4347">
<ele>354.8</ele>
<time>2012-03-24T13:29:58.000Z</time>
</trkpt>
<trkpt lat="43.57791" lon="5.43481">
<ele>354.7</ele>
<time>2012-03-24T13:29:59.000Z</time>
</trkpt>
<trkpt lat="43.5779" lon="5.43492">
<ele>354.3</ele>
<time>2012-03-24T13:30:00.000Z</time>
</trkpt>
<trkpt lat="43.5779" lon="5.43503">
<ele>354.2</ele>
<time>2012-03-24T13:30:01.000Z</time>
</trkpt>
<trkpt lat="43.57791" lon="5.43514">
<ele>354.1</ele>
<time>2012-03-24T13:30:02.000Z</time>
</trkpt>
<trkpt lat="43.57791" lon="5.43524">
<ele>354</ele>
<time>2012-03-24T13:30:03.000Z</time>
</trkpt>
<trkpt lat="43.57791" lon="5.43536">
<ele>353.9</ele>
<time>2012-03-24T13:30:04.000Z</time>
</trkpt>
<trkpt lat="43.57792" lon="5.43547">
<ele>354.1</ele>
<time>2012-03-24T13:30:05.000Z</time>
</trkpt>
<trkpt lat="43.57792" lon="5.43558">
<ele>354.4</ele>
<time>2012-03-24T13:30:06.000Z</time>
</trkpt>
<trkpt lat="43.57792" lon="5.4357">
<ele>354.3</ele>
<time>2012-03-24T13:30:07.000Z</time>
</trkpt>
<trkpt lat="43.57793" lon="5.43581">
<ele>354.4</ele>
<time>2012-03-24T13:30:08.000Z</time>
</trkpt>
<trkpt lat="43.57794" lon="5.43592">
<ele>354.2</ele>
<time>2012-03-24T13:30:09.000Z</time>
</trkpt>
<trkpt lat="43.57795" lon="5.43603">
<ele>354</ele>
<time>2012-03-24T13:30:10.000Z</time>
</trkpt>
<trkpt lat="43.57797" lon="5.43615">
<ele>354</ele>
<time>2012-03-24T13:30:11.000Z</time>
</trkpt>
<trkpt lat="43.57799" lon="5.43626">
<ele>354</ele>
<time>2012-03-24T13:30:12.000Z</time>
</trkpt>
<trkpt lat="43.57801" lon="5.43637">
<ele>354.6</ele>
<time>2012-03-24T13:30:13.000Z</time>
</trkpt>
<trkpt lat="43.57802" lon="5.43648">
<ele>354.7</ele>
<time>2012-03-24T13:30:14.000Z</time>
</trkpt>
<trkpt lat="43.57805" lon="5.43658">
<ele>354.2</ele>
<time>2012-03-24T13:30:15.000Z</time>
</trkpt>
<trkpt lat="43.57807" lon="5.4367">
<ele>354.5</ele>
<time>2012-03-24T13:30:16.000Z</time>
</trkpt>
<trkpt lat="43.57809" lon="5.43681">
<ele>354.4</ele>
<time>2012-03-24T13:30:17.000Z</time>
</trkpt>
<trkpt lat="43.57811" lon="5.43692">
<ele>354.8</ele>
<time>2012-03-24T13:30:18.000Z</time>
</trkpt>
<trkpt lat="43.57813" lon="5.43703">
<ele>354.7</ele>
<time>2012-03-24T13:30:19.000Z</time>
</trkpt>
<trkpt lat="43.57815" lon="5.43714">
<ele>355</ele>
<time>2012-03-24T13:30:20.000Z</time>
</trkpt>
<trkpt lat="43.57817" lon="5.43725">
<ele>354.9</ele>
<time>2012-03-24T13:30:21.000Z</time>
</trkpt>
<trkpt lat="43.57819" lon="5.43736">
<ele>354.8</ele>
<time>2012-03-24T13:30:22.000Z</time>
</trkpt>
<trkpt lat="43.5782" lon="5.43747">
<ele>354.9</ele>
<time>2012-03-24T13:30:23.000Z</time>
</trkpt>
<trkpt lat="43.57822" lon="5.43758">
<ele>354.7</ele>
<time>2012-03-24T13:30:24.000Z</time>
</trkpt>
<trkpt lat="43.57825" lon="5.43769">
<ele>354.6</ele>
<time>2012-03-24T13:30:25.000Z</time>
</trkpt>
<trkpt lat="43.57827" lon="5.4378">
<ele>355.3</ele>
<time>2012-03-24T13:30:26.000Z</time>
</trkpt>
<trkpt lat="43.57828" lon="5.43792">
<ele>356</ele>
<time>2012-03-24T13:30:27.000Z</time>
</trkpt>
<trkpt lat="43.5783" lon="5.43803">
<ele>355.8</ele>
<time>2012-03-24T13:30:28.000Z</time>
</trkpt>
<trkpt lat="43.57832" lon="5.43815">
<ele>356.3</ele>
<time>2012-03-24T13:30:29.000Z</time>
</trkpt>
<trkpt lat="43.57834" lon="5.43825">
<ele>356.6</ele>
<time>2012-03-24T13:30:30.000Z</time>
</trkpt>
<trkpt lat="43.57836" lon="5.43837">
<ele>356.5</ele>
<time>2012-03-24T13:30:31.000Z</time>
</trkpt>
<trkpt lat="43.57838" lon="5.43848">
<ele>356.5</ele>
<time>2012-03-24T13:30:32.000Z</time>
</trkpt>
<trkpt lat="43.5784" lon="5.43859">
<ele>356.3</ele>
<time>2012-03-24T13:30:33.000Z</time>
</trkpt>
<trkpt lat="43.57841" lon="5.43869">
<ele>356.2</ele>
<time>2012-03-24T13:30:34.000Z</time>
</trkpt>
<trkpt lat="43.57841" lon="5.4388">
<ele>356.4</ele>
<time>2012-03-24T13:30:35.000Z</time>
</trkpt>
<trkpt lat="43.5784" lon="5.43891">
<ele>356.2</ele>
<time>2012-03-24T13:30:36.000Z</time>
</trkpt>
<trkpt lat="43.5784" lon="5.43902">
<ele>356.3</ele>
<time>2012-03-24T13:30:37.000Z</time>
</trkpt>
<trkpt lat="43.57839" lon="5.43913">
<ele>356.4</ele>
<time>2012-03-24T13:30:38.000Z</time>
</trkpt>
<trkpt lat="43.57837" lon="5.43923">
<ele>355.9</ele>
<time>2012-03-24T13:30:39.000Z</time>
</trkpt>
<trkpt lat="43.57835" lon="5.43932">
<ele>355.6</ele>
<time>2012-03-24T13:30:40.000Z</time>
</trkpt>
<trkpt lat="43.57833" lon="5.43942">
<ele>356</ele>
<time>2012-03-24T13:30:41.000Z</time>
</trkpt>
<trkpt lat="43.57832" lon="5.43952">
<ele>355.8</ele>
<time>2012-03-24T13:30:42.000Z</time>
</trkpt>
<trkpt lat="43.57836" lon="5.43962">
<ele>356.2</ele>
<time>2012-03-24T13:30:43.000Z</time>
</trkpt>
<trkpt lat="43.57838" lon="5.43973">
<ele>356</ele>
<time>2012-03-24T13:30:44.000Z</time>
</trkpt>
<trkpt lat="43.57839" lon="5.43982">
<ele>356</ele>
<time>2012-03-24T13:30:45.000Z</time>
</trkpt>
<trkpt lat="43.57842" lon="5.43991">
<ele>356.6</ele>
<time>2012-03-24T13:30:46.000Z</time>
</trkpt>
<trkpt lat="43.57845" lon="5.44002">
<ele>354.3</ele>
<time>2012-03-24T13:30:47.000Z</time>
</trkpt>
<trkpt lat="43.57846" lon="5.44012">
<ele>353.2</ele>
<time>2012-03-24T13:30:48.000Z</time>
</trkpt>
<trkpt lat="43.57849" lon="5.44022">
<ele>352.6</ele>
<time>2012-03-24T13:30:49.000Z</time>
</trkpt>
<trkpt lat="43.57852" lon="5.44033">
<ele>351.2</ele>
<time>2012-03-24T13:30:50.000Z</time>
</trkpt>
<trkpt lat="43.57857" lon="5.44044">
<ele>349.8</ele>
<time>2012-03-24T13:30:51.000Z</time>
</trkpt>
<trkpt lat="43.57859" lon="5.44054">
<ele>348.3</ele>
<time>2012-03-24T13:30:52.000Z</time>
</trkpt>
<trkpt lat="43.57861" lon="5.44063">
<ele>347.4</ele>
<time>2012-03-24T13:30:53.000Z</time>
</trkpt>
<trkpt lat="43.57862" lon="5.44071">
<ele>346.9</ele>
<time>2012-03-24T13:30:54.000Z</time>
</trkpt>
<trkpt lat="43.57862" lon="5.44081">
<ele>347.8</ele>
<time>2012-03-24T13:30:55.000Z</time>
</trkpt>
<trkpt lat="43.57863" lon="5.44092">
<ele>347.9</ele>
<time>2012-03-24T13:30:56.000Z</time>
</trkpt>
<trkpt lat="43.57865" lon="5.44102">
<ele>347.7</ele>
<time>2012-03-24T13:30:57.000Z</time>
</trkpt>
<trkpt lat="43.57866" lon="5.44112">
<ele>347.5</ele>
<time>2012-03-24T13:30:58.000Z</time>
</trkpt>
<trkpt lat="43.57868" lon="5.44121">
<ele>347.8</ele>
<time>2012-03-24T13:30:59.000Z</time>
</trkpt>
<trkpt lat="43.57871" lon="5.44131">
<ele>348.5</ele>
<time>2012-03-24T13:31:00.000Z</time>
</trkpt>
<trkpt lat="43.57872" lon="5.4414">
<ele>349.1</ele>
<time>2012-03-24T13:31:01.000Z</time>
</trkpt>
<trkpt lat="43.57874" lon="5.44149">
<ele>349</ele>
<time>2012-03-24T13:31:02.000Z</time>
</trkpt>
<trkpt lat="43.57876" lon="5.44157">
<ele>349.4</ele>
<time>2012-03-24T13:31:03.000Z</time>
</trkpt>
<trkpt lat="43.57878" lon="5.44166">
<ele>349.8</ele>
<time>2012-03-24T13:31:04.000Z</time>
</trkpt>
<trkpt lat="43.5788" lon="5.44174">
<ele>350</ele>
<time>2012-03-24T13:31:05.000Z</time>
</trkpt>
<trkpt lat="43.57882" lon="5.44182">
<ele>350</ele>
<time>2012-03-24T13:31:06.000Z</time>
</trkpt>
<trkpt lat="43.57885" lon="5.44189">
<ele>350.1</ele>
<time>2012-03-24T13:31:07.000Z</time>
</trkpt>
<trkpt lat="43.57888" lon="5.44198">
<ele>350.4</ele>
<time>2012-03-24T13:31:08.000Z</time>
</trkpt>
<trkpt lat="43.57892" lon="5.44207">
<ele>350.9</ele>
<time>2012-03-24T13:31:09.000Z</time>
</trkpt>
<trkpt lat="43.57895" lon="5.44215">
<ele>351.3</ele>
<time>2012-03-24T13:31:10.000Z</time>
</trkpt>
<trkpt lat="43.57898" lon="5.44222">
<ele>351.9</ele>
<time>2012-03-24T13:31:11.000Z</time>
</trkpt>
<trkpt lat="43.57901" lon="5.44231">
<ele>352.6</ele>
<time>2012-03-24T13:31:12.000Z</time>
</trkpt>
<trkpt lat="43.57904" lon="5.4424">
<ele>352.7</ele>
<time>2012-03-24T13:31:13.000Z</time>
</trkpt>
<trkpt lat="43.57907" lon="5.44249">
<ele>352.8</ele>
<time>2012-03-24T13:31:14.000Z</time>
</trkpt>
<trkpt lat="43.57909" lon="5.44258">
<ele>353</ele>
<time>2012-03-24T13:31:15.000Z</time>
</trkpt>
<trkpt lat="43.57911" lon="5.44266">
<ele>353.6</ele>
<time>2012-03-24T13:31:16.000Z</time>
</trkpt>
<trkpt lat="43.57913" lon="5.44275">
<ele>353.9</ele>
<time>2012-03-24T13:31:17.000Z</time>
</trkpt>
<trkpt lat="43.57914" lon="5.44283">
<ele>353.6</ele>
<time>2012-03-24T13:31:18.000Z</time>
</trkpt>
<trkpt lat="43.57915" lon="5.4429">
<ele>353.7</ele>
<time>2012-03-24T13:31:19.000Z</time>
</trkpt>
<trkpt lat="43.57918" lon="5.44299">
<ele>353.5</ele>
<time>2012-03-24T13:31:20.000Z</time>
</trkpt>
<trkpt lat="43.57919" lon="5.44308">
<ele>353.6</ele>
<time>2012-03-24T13:31:21.000Z</time>
</trkpt>
<trkpt lat="43.57921" lon="5.44316">
<ele>353.6</ele>
<time>2012-03-24T13:31:22.000Z</time>
</trkpt>
<trkpt lat="43.57922" lon="5.44326">
<ele>353.4</ele>
<time>2012-03-24T13:31:23.000Z</time>
</trkpt>
<trkpt lat="43.57922" lon="5.44336">
<ele>353.6</ele>
<time>2012-03-24T13:31:24.000Z</time>
</trkpt>
<trkpt lat="43.57924" lon="5.44346">
<ele>353.7</ele>
<time>2012-03-24T13:31:25.000Z</time>
</trkpt>
<trkpt lat="43.57924" lon="5.44356">
<ele>353.7</ele>
<time>2012-03-24T13:31:26.000Z</time>
</trkpt>
<trkpt lat="43.57925" lon="5.44367">
<ele>353.4</ele>
<time>2012-03-24T13:31:27.000Z</time>
</trkpt>
<trkpt lat="43.57924" lon="5.44376">
<ele>353.4</ele>
<time>2012-03-24T13:31:28.000Z</time>
</trkpt>
<trkpt lat="43.57926" lon="5.44386">
<ele>353.5</ele>
<time>2012-03-24T13:31:29.000Z</time>
</trkpt>
<trkpt lat="43.57928" lon="5.44396">
<ele>353.8</ele>
<time>2012-03-24T13:31:30.000Z</time>
</trkpt>
<trkpt lat="43.57927" lon="5.44407">
<ele>353.8</ele>
<time>2012-03-24T13:31:31.000Z</time>
</trkpt>
<trkpt lat="43.57928" lon="5.44419">
<ele>353.4</ele>
<time>2012-03-24T13:31:32.000Z</time>
</trkpt>
<trkpt lat="43.5793" lon="5.44429">
<ele>353.5</ele>
<time>2012-03-24T13:31:33.000Z</time>
</trkpt>
<trkpt lat="43.57936" lon="5.44442">
<ele>354.5</ele>
<time>2012-03-24T13:31:34.000Z</time>
</trkpt>
<trkpt lat="43.57936" lon="5.44452">
<ele>354.6</ele>
<time>2012-03-24T13:31:35.000Z</time>
</trkpt>
<trkpt lat="43.57938" lon="5.44463">
<ele>355.1</ele>
<time>2012-03-24T13:31:36.000Z</time>
</trkpt>
<trkpt lat="43.57938" lon="5.44474">
<ele>355</ele>
<time>2012-03-24T13:31:37.000Z</time>
</trkpt>
<trkpt lat="43.57938" lon="5.44487">
<ele>355.1</ele>
<time>2012-03-24T13:31:38.000Z</time>
</trkpt>
<trkpt lat="43.57938" lon="5.44497">
<ele>355.1</ele>
<time>2012-03-24T13:31:39.000Z</time>
</trkpt>
<trkpt lat="43.57939" lon="5.44508">
<ele>355.5</ele>
<time>2012-03-24T13:31:40.000Z</time>
</trkpt>
<trkpt lat="43.57938" lon="5.44519">
<ele>355.1</ele>
<time>2012-03-24T13:31:41.000Z</time>
</trkpt>
<trkpt lat="43.57939" lon="5.44531">
<ele>355.5</ele>
<time>2012-03-24T13:31:42.000Z</time>
</trkpt>
<trkpt lat="43.57938" lon="5.44542">
<ele>355.7</ele>
<time>2012-03-24T13:31:43.000Z</time>
</trkpt>
<trkpt lat="43.57939" lon="5.44552">
<ele>356</ele>
<time>2012-03-24T13:31:44.000Z</time>
</trkpt>
<trkpt lat="43.57938" lon="5.44563">
<ele>356.6</ele>
<time>2012-03-24T13:31:45.000Z</time>
</trkpt>
<trkpt lat="43.57935" lon="5.44574">
<ele>356.7</ele>
<time>2012-03-24T13:31:46.000Z</time>
</trkpt>
<trkpt lat="43.57934" lon="5.44583">
<ele>356.7</ele>
<time>2012-03-24T13:31:47.000Z</time>
</trkpt>
<trkpt lat="43.57932" lon="5.44592">
<ele>356.5</ele>
<time>2012-03-24T13:31:48.000Z</time>
</trkpt>
<trkpt lat="43.57932" lon="5.44603">
<ele>356.6</ele>
<time>2012-03-24T13:31:49.000Z</time>
</trkpt>
<trkpt lat="43.5793" lon="5.44613">
<ele>356.6</ele>
<time>2012-03-24T13:31:50.000Z</time>
</trkpt>
<trkpt lat="43.57929" lon="5.44624">
<ele>355.9</ele>
<time>2012-03-24T13:31:51.000Z</time>
</trkpt>
<trkpt lat="43.57928" lon="5.44634">
<ele>355.4</ele>
<time>2012-03-24T13:31:52.000Z</time>
</trkpt>
<trkpt lat="43.57928" lon="5.44644">
<ele>355.5</ele>
<time>2012-03-24T13:31:53.000Z</time>
</trkpt>
<trkpt lat="43.57927" lon="5.44655">
<ele>355.5</ele>
<time>2012-03-24T13:31:54.000Z</time>
</trkpt>
<trkpt lat="43.57925" lon="5.44666">
<ele>355.1</ele>
<time>2012-03-24T13:31:55.000Z</time>
</trkpt>
<trkpt lat="43.57924" lon="5.44676">
<ele>355</ele>
<time>2012-03-24T13:31:56.000Z</time>
</trkpt>
<trkpt lat="43.57923" lon="5.44687">
<ele>355.5</ele>
<time>2012-03-24T13:31:57.000Z</time>
</trkpt>
<trkpt lat="43.5792" lon="5.44699">
<ele>355.5</ele>
<time>2012-03-24T13:31:58.000Z</time>
</trkpt>
<trkpt lat="43.57919" lon="5.44711">
<ele>355.9</ele>
<time>2012-03-24T13:31:59.000Z</time>
</trkpt>
<trkpt lat="43.57921" lon="5.44721">
<ele>355.9</ele>
<time>2012-03-24T13:32:00.000Z</time>
</trkpt>
<trkpt lat="43.57923" lon="5.4473">
<ele>355.6</ele>
<time>2012-03-24T13:32:01.000Z</time>
</trkpt>
<trkpt lat="43.57923" lon="5.44741">
<ele>356</ele>
<time>2012-03-24T13:32:02.000Z</time>
</trkpt>
<trkpt lat="43.57922" lon="5.44752">
<ele>355.9</ele>
<time>2012-03-24T13:32:03.000Z</time>
</trkpt>
<trkpt lat="43.57922" lon="5.44762">
<ele>355.6</ele>
<time>2012-03-24T13:32:04.000Z</time>
</trkpt>
<trkpt lat="43.57921" lon="5.44771">
<ele>356.3</ele>
<time>2012-03-24T13:32:05.000Z</time>
</trkpt>
<trkpt lat="43.57921" lon="5.44782">
<ele>356.5</ele>
<time>2012-03-24T13:32:06.000Z</time>
</trkpt>
<trkpt lat="43.57923" lon="5.44792">
<ele>357.1</ele>
<time>2012-03-24T13:32:07.000Z</time>
</trkpt>
<trkpt lat="43.57924" lon="5.44804">
<ele>357.3</ele>
<time>2012-03-24T13:32:08.000Z</time>
</trkpt>
<trkpt lat="43.57928" lon="5.44814">
<ele>357.1</ele>
<time>2012-03-24T13:32:09.000Z</time>
</trkpt>
<trkpt lat="43.57931" lon="5.44825">
<ele>356.8</ele>
<time>2012-03-24T13:32:10.000Z</time>
</trkpt>
<trkpt lat="43.57932" lon="5.44835">
<ele>357</ele>
<time>2012-03-24T13:32:11.000Z</time>
</trkpt>
<trkpt lat="43.57935" lon="5.44845">
<ele>356.3</ele>
<time>2012-03-24T13:32:12.000Z</time>
</trkpt>
<trkpt lat="43.57936" lon="5.44856">
<ele>354.9</ele>
<time>2012-03-24T13:32:13.000Z</time>
</trkpt>
<trkpt lat="43.57939" lon="5.44863">
<ele>356.7</ele>
<time>2012-03-24T13:32:14.000Z</time>
</trkpt>
<trkpt lat="43.57941" lon="5.44872">
<ele>357</ele>
<time>2012-03-24T13:32:15.000Z</time>
</trkpt>
<trkpt lat="43.57942" lon="5.44881">
<ele>357.1</ele>
<time>2012-03-24T13:32:16.000Z</time>
</trkpt>
<trkpt lat="43.57944" lon="5.44889">
<ele>356.9</ele>
<time>2012-03-24T13:32:17.000Z</time>
</trkpt>
<trkpt lat="43.57943" lon="5.449">
<ele>356.7</ele>
<time>2012-03-24T13:32:19.000Z</time>
</trkpt>
<trkpt lat="43.57938" lon="5.4491">
<ele>356.2</ele>
<time>2012-03-24T13:32:21.000Z</time>
</trkpt>
<trkpt lat="43.5793" lon="5.44916">
<ele>356.4</ele>
<time>2012-03-24T13:32:23.000Z</time>
</trkpt>
<trkpt lat="43.57926" lon="5.44921">
<ele>356.1</ele>
<time>2012-03-24T13:32:24.000Z</time>
</trkpt>
<trkpt lat="43.57924" lon="5.44926">
<ele>356.4</ele>
<time>2012-03-24T13:32:25.000Z</time>
</trkpt>
<trkpt lat="43.57924" lon="5.44935">
<ele>356.7</ele>
<time>2012-03-24T13:32:26.000Z</time>
</trkpt>
<trkpt lat="43.57924" lon="5.44942">
<ele>356.9</ele>
<time>2012-03-24T13:32:27.000Z</time>
</trkpt>
<trkpt lat="43.57924" lon="5.4495">
<ele>357</ele>
<time>2012-03-24T13:32:28.000Z</time>
</trkpt>
<trkpt lat="43.57924" lon="5.44959">
<ele>357</ele>
<time>2012-03-24T13:32:29.000Z</time>
</trkpt>
<trkpt lat="43.57924" lon="5.44968">
<ele>356.3</ele>
<time>2012-03-24T13:32:30.000Z</time>
</trkpt>
<trkpt lat="43.57923" lon="5.44977">
<ele>357.5</ele>
<time>2012-03-24T13:32:31.000Z</time>
</trkpt>
<trkpt lat="43.57924" lon="5.44985">
<ele>356.7</ele>
<time>2012-03-24T13:32:32.000Z</time>
</trkpt>
<trkpt lat="43.57925" lon="5.44995">
<ele>356.2</ele>
<time>2012-03-24T13:32:33.000Z</time>
</trkpt>
<trkpt lat="43.57926" lon="5.45005">
<ele>355.1</ele>
<time>2012-03-24T13:32:34.000Z</time>
</trkpt>
<trkpt lat="43.57927" lon="5.45014">
<ele>354.3</ele>
<time>2012-03-24T13:32:35.000Z</time>
</trkpt>
<trkpt lat="43.57926" lon="5.45023">
<ele>355.9</ele>
<time>2012-03-24T13:32:36.000Z</time>
</trkpt>
<trkpt lat="43.57926" lon="5.45032">
<ele>355.8</ele>
<time>2012-03-24T13:32:37.000Z</time>
</trkpt>
<trkpt lat="43.57927" lon="5.45041">
<ele>355.7</ele>
<time>2012-03-24T13:32:38.000Z</time>
</trkpt>
<trkpt lat="43.57927" lon="5.45051">
<ele>355.4</ele>
<time>2012-03-24T13:32:39.000Z</time>
</trkpt>
<trkpt lat="43.57928" lon="5.4506">
<ele>355.9</ele>
<time>2012-03-24T13:32:40.000Z</time>
</trkpt>
<trkpt lat="43.57928" lon="5.4507">
<ele>356.2</ele>
<time>2012-03-24T13:32:41.000Z</time>
</trkpt>
<trkpt lat="43.57929" lon="5.45079">
<ele>356.4</ele>
<time>2012-03-24T13:32:42.000Z</time>
</trkpt>
<trkpt lat="43.5793" lon="5.45088">
<ele>356.7</ele>
<time>2012-03-24T13:32:43.000Z</time>
</trkpt>
<trkpt lat="43.57931" lon="5.45097">
<ele>357.2</ele>
<time>2012-03-24T13:32:44.000Z</time>
</trkpt>
<trkpt lat="43.57932" lon="5.45106">
<ele>357.1</ele>
<time>2012-03-24T13:32:45.000Z</time>
</trkpt>
<trkpt lat="43.57934" lon="5.45116">
<ele>357.4</ele>
<time>2012-03-24T13:32:46.000Z</time>
</trkpt>
<trkpt lat="43.57935" lon="5.45125">
<ele>357.3</ele>
<time>2012-03-24T13:32:47.000Z</time>
</trkpt>
<trkpt lat="43.57937" lon="5.45134">
<ele>356.9</ele>
<time>2012-03-24T13:32:48.000Z</time>
</trkpt>
<trkpt lat="43.57938" lon="5.45143">
<ele>357.2</ele>
<time>2012-03-24T13:32:49.000Z</time>
</trkpt>
<trkpt lat="43.5794" lon="5.45152">
<ele>357.5</ele>
<time>2012-03-24T13:32:50.000Z</time>
</trkpt>
<trkpt lat="43.57942" lon="5.45162">
<ele>357.6</ele>
<time>2012-03-24T13:32:51.000Z</time>
</trkpt>
<trkpt lat="43.57943" lon="5.45171">
<ele>357.8</ele>
<time>2012-03-24T13:32:52.000Z</time>
</trkpt>
<trkpt lat="43.57945" lon="5.4518">
<ele>358.1</ele>
<time>2012-03-24T13:32:53.000Z</time>
</trkpt>
<trkpt lat="43.57947" lon="5.4519">
<ele>358.7</ele>
<time>2012-03-24T13:32:54.000Z</time>
</trkpt>
<trkpt lat="43.57948" lon="5.452">
<ele>358.6</ele>
<time>2012-03-24T13:32:55.000Z</time>
</trkpt>
<trkpt lat="43.5795" lon="5.45209">
<ele>359</ele>
<time>2012-03-24T13:32:56.000Z</time>
</trkpt>
<trkpt lat="43.57953" lon="5.45218">
<ele>359</ele>
<time>2012-03-24T13:32:57.000Z</time>
</trkpt>
<trkpt lat="43.57954" lon="5.45227">
<ele>359</ele>
<time>2012-03-24T13:32:58.000Z</time>
</trkpt>
<trkpt lat="43.57956" lon="5.45237">
<ele>359.3</ele>
<time>2012-03-24T13:32:59.000Z</time>
</trkpt>
<trkpt lat="43.57958" lon="5.45247">
<ele>359.8</ele>
<time>2012-03-24T13:33:00.000Z</time>
</trkpt>
<trkpt lat="43.5796" lon="5.45256">
<ele>359.9</ele>
<time>2012-03-24T13:33:01.000Z</time>
</trkpt>
<trkpt lat="43.57962" lon="5.45266">
<ele>359.8</ele>
<time>2012-03-24T13:33:02.000Z</time>
</trkpt>
<trkpt lat="43.57964" lon="5.45276">
<ele>359.6</ele>
<time>2012-03-24T13:33:03.000Z</time>
</trkpt>
<trkpt lat="43.57966" lon="5.45285">
<ele>359.9</ele>
<time>2012-03-24T13:33:04.000Z</time>
</trkpt>
<trkpt lat="43.57968" lon="5.45295">
<ele>360</ele>
<time>2012-03-24T13:33:05.000Z</time>
</trkpt>
<trkpt lat="43.5797" lon="5.45305">
<ele>359.9</ele>
<time>2012-03-24T13:33:06.000Z</time>
</trkpt>
<trkpt lat="43.57971" lon="5.45315">
<ele>360.2</ele>
<time>2012-03-24T13:33:07.000Z</time>
</trkpt>
<trkpt lat="43.57972" lon="5.45324">
<ele>360.2</ele>
<time>2012-03-24T13:33:08.000Z</time>
</trkpt>
<trkpt lat="43.57974" lon="5.45333">
<ele>360.4</ele>
<time>2012-03-24T13:33:09.000Z</time>
</trkpt>
<trkpt lat="43.57976" lon="5.45342">
<ele>360.6</ele>
<time>2012-03-24T13:33:10.000Z</time>
</trkpt>
<trkpt lat="43.57976" lon="5.45352">
<ele>360.7</ele>
<time>2012-03-24T13:33:11.000Z</time>
</trkpt>
<trkpt lat="43.57979" lon="5.45362">
<ele>355.8</ele>
<time>2012-03-24T13:33:12.000Z</time>
</trkpt>
<trkpt lat="43.5798" lon="5.45372">
<ele>355.3</ele>
<time>2012-03-24T13:33:13.000Z</time>
</trkpt>
<trkpt lat="43.5798" lon="5.45383">
<ele>354.6</ele>
<time>2012-03-24T13:33:14.000Z</time>
</trkpt>
<trkpt lat="43.57982" lon="5.45393">
<ele>356.6</ele>
<time>2012-03-24T13:33:15.000Z</time>
</trkpt>
<trkpt lat="43.57984" lon="5.45404">
<ele>356.6</ele>
<time>2012-03-24T13:33:16.000Z</time>
</trkpt>
<trkpt lat="43.57985" lon="5.45413">
<ele>356.4</ele>
<time>2012-03-24T13:33:17.000Z</time>
</trkpt>
<trkpt lat="43.57986" lon="5.45423">
<ele>355.9</ele>
<time>2012-03-24T13:33:18.000Z</time>
</trkpt>
<trkpt lat="43.57987" lon="5.45434">
<ele>355.7</ele>
<time>2012-03-24T13:33:19.000Z</time>
</trkpt>
<trkpt lat="43.57988" lon="5.45444">
<ele>355.6</ele>
<time>2012-03-24T13:33:20.000Z</time>
</trkpt>
<trkpt lat="43.57989" lon="5.45454">
<ele>355.9</ele>
<time>2012-03-24T13:33:21.000Z</time>
</trkpt>
<trkpt lat="43.5799" lon="5.45464">
<ele>356.1</ele>
<time>2012-03-24T13:33:22.000Z</time>
</trkpt>
<trkpt lat="43.57991" lon="5.45475">
<ele>356.2</ele>
<time>2012-03-24T13:33:23.000Z</time>
</trkpt>
<trkpt lat="43.57992" lon="5.45485">
<ele>356.2</ele>
<time>2012-03-24T13:33:24.000Z</time>
</trkpt>
<trkpt lat="43.57992" lon="5.45495">
<ele>356.1</ele>
<time>2012-03-24T13:33:25.000Z</time>
</trkpt>
<trkpt lat="43.57992" lon="5.45506">
<ele>355.7</ele>
<time>2012-03-24T13:33:26.000Z</time>
</trkpt>
<trkpt lat="43.57995" lon="5.45516">
<ele>356.2</ele>
<time>2012-03-24T13:33:27.000Z</time>
</trkpt>
<trkpt lat="43.57996" lon="5.45526">
<ele>356.4</ele>
<time>2012-03-24T13:33:28.000Z</time>
</trkpt>
<trkpt lat="43.57997" lon="5.45536">
<ele>356.3</ele>
<time>2012-03-24T13:33:29.000Z</time>
</trkpt>
<trkpt lat="43.57998" lon="5.45546">
<ele>356.6</ele>
<time>2012-03-24T13:33:30.000Z</time>
</trkpt>
<trkpt lat="43.58001" lon="5.45557">
<ele>356.8</ele>
<time>2012-03-24T13:33:31.000Z</time>
</trkpt>
<trkpt lat="43.58002" lon="5.45567">
<ele>356.6</ele>
<time>2012-03-24T13:33:32.000Z</time>
</trkpt>
<trkpt lat="43.58004" lon="5.45577">
<ele>357</ele>
<time>2012-03-24T13:33:33.000Z</time>
</trkpt>
<trkpt lat="43.58008" lon="5.45587">
<ele>357.6</ele>
<time>2012-03-24T13:33:34.000Z</time>
</trkpt>
<trkpt lat="43.58009" lon="5.45596">
<ele>358.4</ele>
<time>2012-03-24T13:33:35.000Z</time>
</trkpt>
<trkpt lat="43.58012" lon="5.45605">
<ele>359.3</ele>
<time>2012-03-24T13:33:36.000Z</time>
</trkpt>
<trkpt lat="43.58015" lon="5.45613">
<ele>359.1</ele>
<time>2012-03-24T13:33:37.000Z</time>
</trkpt>
<trkpt lat="43.58018" lon="5.45619">
<ele>359.1</ele>
<time>2012-03-24T13:33:38.000Z</time>
</trkpt>
<trkpt lat="43.58022" lon="5.45626">
<ele>359.1</ele>
<time>2012-03-24T13:33:39.000Z</time>
</trkpt>
<trkpt lat="43.58028" lon="5.45634">
<ele>358.6</ele>
<time>2012-03-24T13:33:40.000Z</time>
</trkpt>
<trkpt lat="43.58033" lon="5.45641">
<ele>359.4</ele>
<time>2012-03-24T13:33:41.000Z</time>
</trkpt>
<trkpt lat="43.58038" lon="5.45648">
<ele>359.2</ele>
<time>2012-03-24T13:33:42.000Z</time>
</trkpt>
<trkpt lat="43.58042" lon="5.45656">
<ele>359.2</ele>
<time>2012-03-24T13:33:43.000Z</time>
</trkpt>
<trkpt lat="43.58046" lon="5.45664">
<ele>359.1</ele>
<time>2012-03-24T13:33:44.000Z</time>
</trkpt>
<trkpt lat="43.58047" lon="5.45674">
<ele>358.9</ele>
<time>2012-03-24T13:33:45.000Z</time>
</trkpt>
<trkpt lat="43.58048" lon="5.45684">
<ele>359.4</ele>
<time>2012-03-24T13:33:46.000Z</time>
</trkpt>
<trkpt lat="43.5805" lon="5.45692">
<ele>359.9</ele>
<time>2012-03-24T13:33:47.000Z</time>
</trkpt>
<trkpt lat="43.58052" lon="5.45701">
<ele>360.4</ele>
<time>2012-03-24T13:33:48.000Z</time>
</trkpt>
<trkpt lat="43.58056" lon="5.45709">
<ele>360.2</ele>
<time>2012-03-24T13:33:49.000Z</time>
</trkpt>
<trkpt lat="43.58061" lon="5.45716">
<ele>360.2</ele>
<time>2012-03-24T13:33:50.000Z</time>
</trkpt>
<trkpt lat="43.58066" lon="5.45724">
<ele>360.6</ele>
<time>2012-03-24T13:33:51.000Z</time>
</trkpt>
<trkpt lat="43.58071" lon="5.45731">
<ele>360.4</ele>
<time>2012-03-24T13:33:52.000Z</time>
</trkpt>
<trkpt lat="43.58076" lon="5.45738">
<ele>360.8</ele>
<time>2012-03-24T13:33:53.000Z</time>
</trkpt>
<trkpt lat="43.5808" lon="5.45745">
<ele>361.3</ele>
<time>2012-03-24T13:33:54.000Z</time>
</trkpt>
<trkpt lat="43.58083" lon="5.45753">
<ele>362</ele>
<time>2012-03-24T13:33:55.000Z</time>
</trkpt>
<trkpt lat="43.58087" lon="5.45762">
<ele>361.9</ele>
<time>2012-03-24T13:33:56.000Z</time>
</trkpt>
<trkpt lat="43.5809" lon="5.45771">
<ele>362.2</ele>
<time>2012-03-24T13:33:57.000Z</time>
</trkpt>
<trkpt lat="43.58094" lon="5.45779">
<ele>362.6</ele>
<time>2012-03-24T13:33:58.000Z</time>
</trkpt>
<trkpt lat="43.58097" lon="5.45787">
<ele>362.5</ele>
<time>2012-03-24T13:33:59.000Z</time>
</trkpt>
<trkpt lat="43.581" lon="5.45796">
<ele>362.8</ele>
<time>2012-03-24T13:34:00.000Z</time>
</trkpt>
<trkpt lat="43.58103" lon="5.45805">
<ele>363.3</ele>
<time>2012-03-24T13:34:01.000Z</time>
</trkpt>
<trkpt lat="43.58106" lon="5.45813">
<ele>363.8</ele>
<time>2012-03-24T13:34:02.000Z</time>
</trkpt>
<trkpt lat="43.58109" lon="5.45822">
<ele>364.4</ele>
<time>2012-03-24T13:34:03.000Z</time>
</trkpt>
<trkpt lat="43.58113" lon="5.45832">
<ele>364.5</ele>
<time>2012-03-24T13:34:04.000Z</time>
</trkpt>
<trkpt lat="43.58116" lon="5.45841">
<ele>364.2</ele>
<time>2012-03-24T13:34:05.000Z</time>
</trkpt>
<trkpt lat="43.58119" lon="5.45851">
<ele>364.1</ele>
<time>2012-03-24T13:34:06.000Z</time>
</trkpt>
<trkpt lat="43.58122" lon="5.4586">
<ele>364.4</ele>
<time>2012-03-24T13:34:07.000Z</time>
</trkpt>
<trkpt lat="43.58124" lon="5.4587">
<ele>365</ele>
<time>2012-03-24T13:34:08.000Z</time>
</trkpt>
<trkpt lat="43.58126" lon="5.45878">
<ele>365.8</ele>
<time>2012-03-24T13:34:09.000Z</time>
</trkpt>
<trkpt lat="43.58128" lon="5.45888">
<ele>365.8</ele>
<time>2012-03-24T13:34:10.000Z</time>
</trkpt>
<trkpt lat="43.5813" lon="5.45898">
<ele>365.1</ele>
<time>2012-03-24T13:34:11.000Z</time>
</trkpt>
<trkpt lat="43.5813" lon="5.45908">
<ele>366.5</ele>
<time>2012-03-24T13:34:12.000Z</time>
</trkpt>
<trkpt lat="43.58132" lon="5.45918">
<ele>365.7</ele>
<time>2012-03-24T13:34:13.000Z</time>
</trkpt>
<trkpt lat="43.58132" lon="5.45928">
<ele>366.4</ele>
<time>2012-03-24T13:34:14.000Z</time>
</trkpt>
<trkpt lat="43.58132" lon="5.45938">
<ele>366.3</ele>
<time>2012-03-24T13:34:15.000Z</time>
</trkpt>
<trkpt lat="43.58132" lon="5.45948">
<ele>365.8</ele>
<time>2012-03-24T13:34:16.000Z</time>
</trkpt>
<trkpt lat="43.58132" lon="5.45958">
<ele>365.8</ele>
<time>2012-03-24T13:34:17.000Z</time>
</trkpt>
<trkpt lat="43.58132" lon="5.45968">
<ele>366</ele>
<time>2012-03-24T13:34:18.000Z</time>
</trkpt>
<trkpt lat="43.58132" lon="5.45978">
<ele>365.8</ele>
<time>2012-03-24T13:34:19.000Z</time>
</trkpt>
<trkpt lat="43.58132" lon="5.45988">
<ele>365.6</ele>
<time>2012-03-24T13:34:20.000Z</time>
</trkpt>
<trkpt lat="43.58132" lon="5.45998">
<ele>366</ele>
<time>2012-03-24T13:34:21.000Z</time>
</trkpt>
<trkpt lat="43.58131" lon="5.46009">
<ele>366.3</ele>
<time>2012-03-24T13:34:22.000Z</time>
</trkpt>
<trkpt lat="43.5813" lon="5.46018">
<ele>367.5</ele>
<time>2012-03-24T13:34:23.000Z</time>
</trkpt>
<trkpt lat="43.5813" lon="5.46028">
<ele>367.2</ele>
<time>2012-03-24T13:34:24.000Z</time>
</trkpt>
<trkpt lat="43.5813" lon="5.46038">
<ele>367.6</ele>
<time>2012-03-24T13:34:25.000Z</time>
</trkpt>
<trkpt lat="43.58129" lon="5.46048">
<ele>367</ele>
<time>2012-03-24T13:34:26.000Z</time>
</trkpt>
<trkpt lat="43.58129" lon="5.46058">
<ele>367.5</ele>
<time>2012-03-24T13:34:27.000Z</time>
</trkpt>
<trkpt lat="43.58128" lon="5.46067">
<ele>367.2</ele>
<time>2012-03-24T13:34:28.000Z</time>
</trkpt>
<trkpt lat="43.58129" lon="5.46077">
<ele>367.3</ele>
<time>2012-03-24T13:34:29.000Z</time>
</trkpt>
<trkpt lat="43.58129" lon="5.46087">
<ele>367.3</ele>
<time>2012-03-24T13:34:30.000Z</time>
</trkpt>
<trkpt lat="43.5813" lon="5.46096">
<ele>367.4</ele>
<time>2012-03-24T13:34:31.000Z</time>
</trkpt>
<trkpt lat="43.58131" lon="5.46106">
<ele>367.3</ele>
<time>2012-03-24T13:34:32.000Z</time>
</trkpt>
<trkpt lat="43.58133" lon="5.46117">
<ele>366.9</ele>
<time>2012-03-24T13:34:33.000Z</time>
</trkpt>
<trkpt lat="43.58134" lon="5.46127">
<ele>366.8</ele>
<time>2012-03-24T13:34:34.000Z</time>
</trkpt>
<trkpt lat="43.58135" lon="5.46136">
<ele>366.8</ele>
<time>2012-03-24T13:34:35.000Z</time>
</trkpt>
<trkpt lat="43.58136" lon="5.46146">
<ele>366.9</ele>
<time>2012-03-24T13:34:36.000Z</time>
</trkpt>
<trkpt lat="43.58137" lon="5.46155">
<ele>366.8</ele>
<time>2012-03-24T13:34:37.000Z</time>
</trkpt>
<trkpt lat="43.58138" lon="5.46166">
<ele>366.7</ele>
<time>2012-03-24T13:34:38.000Z</time>
</trkpt>
<trkpt lat="43.58139" lon="5.46176">
<ele>365.7</ele>
<time>2012-03-24T13:34:39.000Z</time>
</trkpt>
<trkpt lat="43.58141" lon="5.46187">
<ele>365.4</ele>
<time>2012-03-24T13:34:40.000Z</time>
</trkpt>
<trkpt lat="43.58142" lon="5.46199">
<ele>365.3</ele>
<time>2012-03-24T13:34:41.000Z</time>
</trkpt>
<trkpt lat="43.58144" lon="5.4621">
<ele>365.3</ele>
<time>2012-03-24T13:34:42.000Z</time>
</trkpt>
<trkpt lat="43.58146" lon="5.4622">
<ele>365.1</ele>
<time>2012-03-24T13:34:43.000Z</time>
</trkpt>
<trkpt lat="43.58147" lon="5.46231">
<ele>365.3</ele>
<time>2012-03-24T13:34:44.000Z</time>
</trkpt>
<trkpt lat="43.58148" lon="5.46242">
<ele>366</ele>
<time>2012-03-24T13:34:45.000Z</time>
</trkpt>
<trkpt lat="43.58149" lon="5.46253">
<ele>366.3</ele>
<time>2012-03-24T13:34:46.000Z</time>
</trkpt>
<trkpt lat="43.58151" lon="5.46263">
<ele>366.2</ele>
<time>2012-03-24T13:34:47.000Z</time>
</trkpt>
<trkpt lat="43.58152" lon="5.46274">
<ele>366.3</ele>
<time>2012-03-24T13:34:48.000Z</time>
</trkpt>
<trkpt lat="43.58153" lon="5.46286">
<ele>366.4</ele>
<time>2012-03-24T13:34:49.000Z</time>
</trkpt>
<trkpt lat="43.58154" lon="5.46297">
<ele>366.2</ele>
<time>2012-03-24T13:34:50.000Z</time>
</trkpt>
<trkpt lat="43.58155" lon="5.46307">
<ele>366.4</ele>
<time>2012-03-24T13:34:51.000Z</time>
</trkpt>
<trkpt lat="43.58156" lon="5.46318">
<ele>366.2</ele>
<time>2012-03-24T13:34:52.000Z</time>
</trkpt>
<trkpt lat="43.58157" lon="5.46328">
<ele>366</ele>
<time>2012-03-24T13:34:53.000Z</time>
</trkpt>
<trkpt lat="43.58157" lon="5.46338">
<ele>366.4</ele>
<time>2012-03-24T13:34:54.000Z</time>
</trkpt>
<trkpt lat="43.58157" lon="5.46348">
<ele>366.3</ele>
<time>2012-03-24T13:34:55.000Z</time>
</trkpt>
<trkpt lat="43.58158" lon="5.46359">
<ele>366.3</ele>
<time>2012-03-24T13:34:56.000Z</time>
</trkpt>
<trkpt lat="43.58158" lon="5.4637">
<ele>366.3</ele>
<time>2012-03-24T13:34:57.000Z</time>
</trkpt>
<trkpt lat="43.58158" lon="5.4638">
<ele>366.9</ele>
<time>2012-03-24T13:34:58.000Z</time>
</trkpt>
<trkpt lat="43.58158" lon="5.4639">
<ele>367.1</ele>
<time>2012-03-24T13:34:59.000Z</time>
</trkpt>
<trkpt lat="43.58159" lon="5.464">
<ele>367</ele>
<time>2012-03-24T13:35:00.000Z</time>
</trkpt>
<trkpt lat="43.58159" lon="5.46411">
<ele>367</ele>
<time>2012-03-24T13:35:01.000Z</time>
</trkpt>
<trkpt lat="43.5816" lon="5.46421">
<ele>367</ele>
<time>2012-03-24T13:35:02.000Z</time>
</trkpt>
<trkpt lat="43.58162" lon="5.46431">
<ele>367.3</ele>
<time>2012-03-24T13:35:03.000Z</time>
</trkpt>
<trkpt lat="43.58163" lon="5.46441">
<ele>367.1</ele>
<time>2012-03-24T13:35:04.000Z</time>
</trkpt>
<trkpt lat="43.58164" lon="5.4645">
<ele>367.1</ele>
<time>2012-03-24T13:35:05.000Z</time>
</trkpt>
<trkpt lat="43.58166" lon="5.4646">
<ele>367.2</ele>
<time>2012-03-24T13:35:06.000Z</time>
</trkpt>
<trkpt lat="43.58171" lon="5.46469">
<ele>367.3</ele>
<time>2012-03-24T13:35:07.000Z</time>
</trkpt>
<trkpt lat="43.58172" lon="5.46478">
<ele>367.3</ele>
<time>2012-03-24T13:35:08.000Z</time>
</trkpt>
<trkpt lat="43.58176" lon="5.46486">
<ele>367.3</ele>
<time>2012-03-24T13:35:09.000Z</time>
</trkpt>
<trkpt lat="43.5818" lon="5.46495">
<ele>367.1</ele>
<time>2012-03-24T13:35:10.000Z</time>
</trkpt>
<trkpt lat="43.58183" lon="5.46503">
<ele>367.6</ele>
<time>2012-03-24T13:35:11.000Z</time>
</trkpt>
<trkpt lat="43.58186" lon="5.46512">
<ele>367.9</ele>
<time>2012-03-24T13:35:12.000Z</time>
</trkpt>
<trkpt lat="43.58189" lon="5.46521">
<ele>368.1</ele>
<time>2012-03-24T13:35:13.000Z</time>
</trkpt>
<trkpt lat="43.58191" lon="5.46529">
<ele>368.3</ele>
<time>2012-03-24T13:35:14.000Z</time>
</trkpt>
<trkpt lat="43.58194" lon="5.46538">
<ele>368.2</ele>
<time>2012-03-24T13:35:15.000Z</time>
</trkpt>
<trkpt lat="43.58197" lon="5.46547">
<ele>368.7</ele>
<time>2012-03-24T13:35:16.000Z</time>
</trkpt>
<trkpt lat="43.582" lon="5.46556">
<ele>368.8</ele>
<time>2012-03-24T13:35:17.000Z</time>
</trkpt>
<trkpt lat="43.58202" lon="5.46565">
<ele>368.8</ele>
<time>2012-03-24T13:35:18.000Z</time>
</trkpt>
<trkpt lat="43.58204" lon="5.46574">
<ele>368.8</ele>
<time>2012-03-24T13:35:19.000Z</time>
</trkpt>
<trkpt lat="43.58207" lon="5.46583">
<ele>368.9</ele>
<time>2012-03-24T13:35:20.000Z</time>
</trkpt>
<trkpt lat="43.5821" lon="5.46591">
<ele>369.2</ele>
<time>2012-03-24T13:35:21.000Z</time>
</trkpt>
<trkpt lat="43.58213" lon="5.466">
<ele>369</ele>
<time>2012-03-24T13:35:22.000Z</time>
</trkpt>
<trkpt lat="43.58216" lon="5.46609">
<ele>369.3</ele>
<time>2012-03-24T13:35:23.000Z</time>
</trkpt>
<trkpt lat="43.58219" lon="5.46619">
<ele>369.4</ele>
<time>2012-03-24T13:35:24.000Z</time>
</trkpt>
<trkpt lat="43.58222" lon="5.46628">
<ele>369.6</ele>
<time>2012-03-24T13:35:25.000Z</time>
</trkpt>
<trkpt lat="43.58226" lon="5.46636">
<ele>369.6</ele>
<time>2012-03-24T13:35:26.000Z</time>
</trkpt>
<trkpt lat="43.5823" lon="5.46644">
<ele>369.7</ele>
<time>2012-03-24T13:35:27.000Z</time>
</trkpt>
<trkpt lat="43.58234" lon="5.46652">
<ele>370</ele>
<time>2012-03-24T13:35:28.000Z</time>
</trkpt>
<trkpt lat="43.58239" lon="5.4666">
<ele>370.4</ele>
<time>2012-03-24T13:35:29.000Z</time>
</trkpt>
<trkpt lat="43.58243" lon="5.46668">
<ele>370.5</ele>
<time>2012-03-24T13:35:30.000Z</time>
</trkpt>
<trkpt lat="43.58246" lon="5.46674">
<ele>370.1</ele>
<time>2012-03-24T13:35:31.000Z</time>
</trkpt>
<trkpt lat="43.58249" lon="5.46683">
<ele>370.1</ele>
<time>2012-03-24T13:35:32.000Z</time>
</trkpt>
<trkpt lat="43.58253" lon="5.4669">
<ele>370.1</ele>
<time>2012-03-24T13:35:33.000Z</time>
</trkpt>
<trkpt lat="43.58258" lon="5.46697">
<ele>370.3</ele>
<time>2012-03-24T13:35:34.000Z</time>
</trkpt>
<trkpt lat="43.5826" lon="5.46703">
<ele>370.6</ele>
<time>2012-03-24T13:35:35.000Z</time>
</trkpt>
<trkpt lat="43.58265" lon="5.46708">
<ele>370.8</ele>
<time>2012-03-24T13:35:36.000Z</time>
</trkpt>
<trkpt lat="43.58271" lon="5.46713">
<ele>371.2</ele>
<time>2012-03-24T13:35:38.000Z</time>
</trkpt>
<trkpt lat="43.58276" lon="5.46719">
<ele>371.5</ele>
<time>2012-03-24T13:35:40.000Z</time>
</trkpt>
<trkpt lat="43.58276" lon="5.46727">
<ele>371.4</ele>
<time>2012-03-24T13:35:42.000Z</time>
</trkpt>
<trkpt lat="43.5828" lon="5.4673">
<ele>371.9</ele>
<time>2012-03-24T13:35:44.000Z</time>
</trkpt>
<trkpt lat="43.58284" lon="5.46732">
<ele>372.4</ele>
<time>2012-03-24T13:37:57.000Z</time>
</trkpt>
<trkpt lat="43.5829" lon="5.46735">
<ele>374.9</ele>
<time>2012-03-24T13:38:00.000Z</time>
</trkpt>
<trkpt lat="43.58294" lon="5.46739">
<ele>376.2</ele>
<time>2012-03-24T13:38:02.000Z</time>
</trkpt>
<trkpt lat="43.58298" lon="5.46745">
<ele>377.9</ele>
<time>2012-03-24T13:38:04.000Z</time>
</trkpt>
<trkpt lat="43.58301" lon="5.4675">
<ele>377.8</ele>
<time>2012-03-24T13:38:06.000Z</time>
</trkpt>
<trkpt lat="43.58306" lon="5.4676">
<ele>380.3</ele>
<time>2012-03-24T13:38:09.000Z</time>
</trkpt>
<trkpt lat="43.58309" lon="5.46767">
<ele>379.8</ele>
<time>2012-03-24T13:38:10.000Z</time>
</trkpt>
<trkpt lat="43.58312" lon="5.46775">
<ele>380.3</ele>
<time>2012-03-24T13:38:12.000Z</time>
</trkpt>
<trkpt lat="43.58314" lon="5.46782">
<ele>382.5</ele>
<time>2012-03-24T13:38:13.000Z</time>
</trkpt>
<trkpt lat="43.58317" lon="5.46791">
<ele>382.5</ele>
<time>2012-03-24T13:38:15.000Z</time>
</trkpt>
<trkpt lat="43.58321" lon="5.46798">
<ele>383</ele>
<time>2012-03-24T13:38:17.000Z</time>
</trkpt>
<trkpt lat="43.58324" lon="5.46804">
<ele>383.5</ele>
<time>2012-03-24T13:38:19.000Z</time>
</trkpt>
<trkpt lat="43.58327" lon="5.4681">
<ele>384.6</ele>
<time>2012-03-24T13:38:21.000Z</time>
</trkpt>
<trkpt lat="43.58331" lon="5.46816">
<ele>384.7</ele>
<time>2012-03-24T13:38:22.000Z</time>
</trkpt>
<trkpt lat="43.58337" lon="5.46828">
<ele>385.7</ele>
<time>2012-03-24T13:38:24.000Z</time>
</trkpt>
<trkpt lat="43.5834" lon="5.46833">
<ele>386.2</ele>
<time>2012-03-24T13:38:25.000Z</time>
</trkpt>
<trkpt lat="43.58343" lon="5.46838">
<ele>385.8</ele>
<time>2012-03-24T13:38:26.000Z</time>
</trkpt>
<trkpt lat="43.58347" lon="5.46845">
<ele>385.9</ele>
<time>2012-03-24T13:38:27.000Z</time>
</trkpt>
<trkpt lat="43.58351" lon="5.46851">
<ele>386.1</ele>
<time>2012-03-24T13:38:28.000Z</time>
</trkpt>
<trkpt lat="43.58354" lon="5.46857">
<ele>385.8</ele>
<time>2012-03-24T13:38:29.000Z</time>
</trkpt>
<trkpt lat="43.58357" lon="5.46864">
<ele>385.8</ele>
<time>2012-03-24T13:38:30.000Z</time>
</trkpt>
<trkpt lat="43.58358" lon="5.46869">
<ele>385.7</ele>
<time>2012-03-24T13:38:31.000Z</time>
</trkpt>
<trkpt lat="43.58361" lon="5.46876">
<ele>385.7</ele>
<time>2012-03-24T13:38:32.000Z</time>
</trkpt>
<trkpt lat="43.58363" lon="5.46883">
<ele>385.4</ele>
<time>2012-03-24T13:38:33.000Z</time>
</trkpt>
<trkpt lat="43.58368" lon="5.46892">
<ele>385.5</ele>
<time>2012-03-24T13:38:35.000Z</time>
</trkpt>
<trkpt lat="43.5837" lon="5.46897">
<ele>385.5</ele>
<time>2012-03-24T13:38:36.000Z</time>
</trkpt>
<trkpt lat="43.58371" lon="5.46904">
<ele>385.5</ele>
<time>2012-03-24T13:38:37.000Z</time>
</trkpt>
<trkpt lat="43.58374" lon="5.46911">
<ele>385.2</ele>
<time>2012-03-24T13:38:38.000Z</time>
</trkpt>
<trkpt lat="43.58376" lon="5.46919">
<ele>385.1</ele>
<time>2012-03-24T13:38:39.000Z</time>
</trkpt>
<trkpt lat="43.58377" lon="5.46926">
<ele>385</ele>
<time>2012-03-24T13:38:40.000Z</time>
</trkpt>
<trkpt lat="43.58379" lon="5.46932">
<ele>384.2</ele>
<time>2012-03-24T13:38:41.000Z</time>
</trkpt>
<trkpt lat="43.58382" lon="5.46939">
<ele>383.9</ele>
<time>2012-03-24T13:38:42.000Z</time>
</trkpt>
<trkpt lat="43.58383" lon="5.46945">
<ele>384</ele>
<time>2012-03-24T13:38:43.000Z</time>
</trkpt>
<trkpt lat="43.58385" lon="5.46951">
<ele>383.6</ele>
<time>2012-03-24T13:38:44.000Z</time>
</trkpt>
<trkpt lat="43.58388" lon="5.46958">
<ele>383.6</ele>
<time>2012-03-24T13:38:45.000Z</time>
</trkpt>
<trkpt lat="43.5839" lon="5.46965">
<ele>383.4</ele>
<time>2012-03-24T13:38:46.000Z</time>
</trkpt>
<trkpt lat="43.58392" lon="5.46972">
<ele>383.8</ele>
<time>2012-03-24T13:38:47.000Z</time>
</trkpt>
<trkpt lat="43.58392" lon="5.46985">
<ele>384</ele>
<time>2012-03-24T13:38:49.000Z</time>
</trkpt>
<trkpt lat="43.58394" lon="5.46992">
<ele>383.7</ele>
<time>2012-03-24T13:38:50.000Z</time>
</trkpt>
<trkpt lat="43.58398" lon="5.47003">
<ele>382.8</ele>
<time>2012-03-24T13:38:52.000Z</time>
</trkpt>
<trkpt lat="43.584" lon="5.47009">
<ele>382.3</ele>
<time>2012-03-24T13:38:53.000Z</time>
</trkpt>
<trkpt lat="43.58403" lon="5.47016">
<ele>382.2</ele>
<time>2012-03-24T13:38:54.000Z</time>
</trkpt>
<trkpt lat="43.58407" lon="5.47021">
<ele>382.2</ele>
<time>2012-03-24T13:38:56.000Z</time>
</trkpt>
<trkpt lat="43.58413" lon="5.4702">
<ele>380.6</ele>
<time>2012-03-24T13:38:57.000Z</time>
</trkpt>
<trkpt lat="43.58418" lon="5.47022">
<ele>380.4</ele>
<time>2012-03-24T13:38:58.000Z</time>
</trkpt>
<trkpt lat="43.58426" lon="5.47023">
<ele>380.3</ele>
<time>2012-03-24T13:39:00.000Z</time>
</trkpt>
<trkpt lat="43.58437" lon="5.47032">
<ele>381.2</ele>
<time>2012-03-24T13:39:02.000Z</time>
</trkpt>
<trkpt lat="43.5844" lon="5.47037">
<ele>381.1</ele>
<time>2012-03-24T13:39:03.000Z</time>
</trkpt>
<trkpt lat="43.58443" lon="5.47042">
<ele>381.5</ele>
<time>2012-03-24T13:39:04.000Z</time>
</trkpt>
<trkpt lat="43.58446" lon="5.47048">
<ele>380.7</ele>
<time>2012-03-24T13:39:05.000Z</time>
</trkpt>
<trkpt lat="43.58449" lon="5.47053">
<ele>380.9</ele>
<time>2012-03-24T13:39:06.000Z</time>
</trkpt>
<trkpt lat="43.58454" lon="5.47058">
<ele>379.9</ele>
<time>2012-03-24T13:39:07.000Z</time>
</trkpt>
<trkpt lat="43.58461" lon="5.47066">
<ele>379.6</ele>
<time>2012-03-24T13:39:09.000Z</time>
</trkpt>
<trkpt lat="43.58466" lon="5.4707">
<ele>380.1</ele>
<time>2012-03-24T13:39:10.000Z</time>
</trkpt>
<trkpt lat="43.5847" lon="5.47073">
<ele>380.3</ele>
<time>2012-03-24T13:39:11.000Z</time>
</trkpt>
<trkpt lat="43.58475" lon="5.47077">
<ele>380.4</ele>
<time>2012-03-24T13:39:12.000Z</time>
</trkpt>
<trkpt lat="43.5848" lon="5.4708">
<ele>380.8</ele>
<time>2012-03-24T13:39:13.000Z</time>
</trkpt>
<trkpt lat="43.58485" lon="5.47084">
<ele>381.4</ele>
<time>2012-03-24T13:39:14.000Z</time>
</trkpt>
<trkpt lat="43.5849" lon="5.47089">
<ele>381.6</ele>
<time>2012-03-24T13:39:15.000Z</time>
</trkpt>
<trkpt lat="43.58494" lon="5.47093">
<ele>381.8</ele>
<time>2012-03-24T13:39:16.000Z</time>
</trkpt>
<trkpt lat="43.58499" lon="5.47097">
<ele>381.8</ele>
<time>2012-03-24T13:39:17.000Z</time>
</trkpt>
<trkpt lat="43.58503" lon="5.47101">
<ele>382.2</ele>
<time>2012-03-24T13:39:18.000Z</time>
</trkpt>
<trkpt lat="43.58507" lon="5.47105">
<ele>382</ele>
<time>2012-03-24T13:39:19.000Z</time>
</trkpt>
<trkpt lat="43.58512" lon="5.4711">
<ele>381.8</ele>
<time>2012-03-24T13:39:20.000Z</time>
</trkpt>
<trkpt lat="43.58516" lon="5.47115">
<ele>381.9</ele>
<time>2012-03-24T13:39:21.000Z</time>
</trkpt>
<trkpt lat="43.58519" lon="5.47121">
<ele>381.6</ele>
<time>2012-03-24T13:39:22.000Z</time>
</trkpt>
<trkpt lat="43.58522" lon="5.47128">
<ele>381.5</ele>
<time>2012-03-24T13:39:23.000Z</time>
</trkpt>
<trkpt lat="43.58525" lon="5.47136">
<ele>381.4</ele>
<time>2012-03-24T13:39:24.000Z</time>
</trkpt>
<trkpt lat="43.58528" lon="5.47143">
<ele>381.2</ele>
<time>2012-03-24T13:39:25.000Z</time>
</trkpt>
<trkpt lat="43.5853" lon="5.47151">
<ele>381.1</ele>
<time>2012-03-24T13:39:26.000Z</time>
</trkpt>
<trkpt lat="43.58532" lon="5.47157">
<ele>381.7</ele>
<time>2012-03-24T13:39:27.000Z</time>
</trkpt>
<trkpt lat="43.58535" lon="5.47165">
<ele>381.8</ele>
<time>2012-03-24T13:39:28.000Z</time>
</trkpt>
<trkpt lat="43.58537" lon="5.47173">
<ele>381.4</ele>
<time>2012-03-24T13:39:29.000Z</time>
</trkpt>
<trkpt lat="43.5854" lon="5.47181">
<ele>381.3</ele>
<time>2012-03-24T13:39:30.000Z</time>
</trkpt>
<trkpt lat="43.58542" lon="5.47189">
<ele>381</ele>
<time>2012-03-24T13:39:31.000Z</time>
</trkpt>
<trkpt lat="43.58544" lon="5.47198">
<ele>380.5</ele>
<time>2012-03-24T13:39:32.000Z</time>
</trkpt>
<trkpt lat="43.58547" lon="5.47206">
<ele>380.1</ele>
<time>2012-03-24T13:39:33.000Z</time>
</trkpt>
<trkpt lat="43.58551" lon="5.47214">
<ele>380.1</ele>
<time>2012-03-24T13:39:34.000Z</time>
</trkpt>
<trkpt lat="43.58554" lon="5.47222">
<ele>380.1</ele>
<time>2012-03-24T13:39:35.000Z</time>
</trkpt>
<trkpt lat="43.58556" lon="5.4723">
<ele>379.6</ele>
<time>2012-03-24T13:39:36.000Z</time>
</trkpt>
<trkpt lat="43.58558" lon="5.47238">
<ele>379.7</ele>
<time>2012-03-24T13:39:37.000Z</time>
</trkpt>
<trkpt lat="43.5856" lon="5.47246">
<ele>379.7</ele>
<time>2012-03-24T13:39:38.000Z</time>
</trkpt>
<trkpt lat="43.58564" lon="5.47254">
<ele>379.6</ele>
<time>2012-03-24T13:39:39.000Z</time>
</trkpt>
<trkpt lat="43.58565" lon="5.47261">
<ele>379.9</ele>
<time>2012-03-24T13:39:40.000Z</time>
</trkpt>
<trkpt lat="43.58567" lon="5.47268">
<ele>380</ele>
<time>2012-03-24T13:39:41.000Z</time>
</trkpt>
<trkpt lat="43.58569" lon="5.47276">
<ele>380.1</ele>
<time>2012-03-24T13:39:42.000Z</time>
</trkpt>
<trkpt lat="43.58574" lon="5.47285">
<ele>380.1</ele>
<time>2012-03-24T13:39:43.000Z</time>
</trkpt>
<trkpt lat="43.58576" lon="5.47293">
<ele>380.6</ele>
<time>2012-03-24T13:39:44.000Z</time>
</trkpt>
<trkpt lat="43.58578" lon="5.47302">
<ele>380.5</ele>
<time>2012-03-24T13:39:45.000Z</time>
</trkpt>
<trkpt lat="43.5858" lon="5.47312">
<ele>380.1</ele>
<time>2012-03-24T13:39:46.000Z</time>
</trkpt>
<trkpt lat="43.58582" lon="5.47318">
<ele>380.2</ele>
<time>2012-03-24T13:39:47.000Z</time>
</trkpt>
<trkpt lat="43.58582" lon="5.47327">
<ele>380.1</ele>
<time>2012-03-24T13:39:48.000Z</time>
</trkpt>
<trkpt lat="43.58582" lon="5.47336">
<ele>380.2</ele>
<time>2012-03-24T13:39:49.000Z</time>
</trkpt>
<trkpt lat="43.58585" lon="5.47344">
<ele>380.1</ele>
<time>2012-03-24T13:39:50.000Z</time>
</trkpt>
<trkpt lat="43.58588" lon="5.47352">
<ele>380.4</ele>
<time>2012-03-24T13:39:51.000Z</time>
</trkpt>
<trkpt lat="43.58592" lon="5.47359">
<ele>380.4</ele>
<time>2012-03-24T13:39:52.000Z</time>
</trkpt>
<trkpt lat="43.58596" lon="5.47367">
<ele>380.6</ele>
<time>2012-03-24T13:39:53.000Z</time>
</trkpt>
<trkpt lat="43.58599" lon="5.47374">
<ele>380.6</ele>
<time>2012-03-24T13:39:54.000Z</time>
</trkpt>
<trkpt lat="43.58601" lon="5.47382">
<ele>380.7</ele>
<time>2012-03-24T13:39:55.000Z</time>
</trkpt>
<trkpt lat="43.58602" lon="5.47389">
<ele>380.6</ele>
<time>2012-03-24T13:39:56.000Z</time>
</trkpt>
<trkpt lat="43.58606" lon="5.47397">
<ele>380.9</ele>
<time>2012-03-24T13:39:57.000Z</time>
</trkpt>
<trkpt lat="43.58608" lon="5.47405">
<ele>381</ele>
<time>2012-03-24T13:39:58.000Z</time>
</trkpt>
<trkpt lat="43.5861" lon="5.47412">
<ele>380.6</ele>
<time>2012-03-24T13:39:59.000Z</time>
</trkpt>
<trkpt lat="43.58611" lon="5.47419">
<ele>381.4</ele>
<time>2012-03-24T13:40:00.000Z</time>
</trkpt>
<trkpt lat="43.58613" lon="5.47426">
<ele>381.9</ele>
<time>2012-03-24T13:40:01.000Z</time>
</trkpt>
<trkpt lat="43.58615" lon="5.47433">
<ele>382.9</ele>
<time>2012-03-24T13:40:02.000Z</time>
</trkpt>
<trkpt lat="43.58618" lon="5.47439">
<ele>382.8</ele>
<time>2012-03-24T13:40:03.000Z</time>
</trkpt>
<trkpt lat="43.5862" lon="5.47453">
<ele>383.3</ele>
<time>2012-03-24T13:40:05.000Z</time>
</trkpt>
<trkpt lat="43.58621" lon="5.47459">
<ele>383.9</ele>
<time>2012-03-24T13:40:06.000Z</time>
</trkpt>
<trkpt lat="43.58627" lon="5.47462">
<ele>385</ele>
<time>2012-03-24T13:40:07.000Z</time>
</trkpt>
<trkpt lat="43.58632" lon="5.47464">
<ele>385.9</ele>
<time>2012-03-24T13:40:08.000Z</time>
</trkpt>
<trkpt lat="43.58638" lon="5.47466">
<ele>386.6</ele>
<time>2012-03-24T13:40:09.000Z</time>
</trkpt>
<trkpt lat="43.58644" lon="5.47467">
<ele>386.6</ele>
<time>2012-03-24T13:40:10.000Z</time>
</trkpt>
<trkpt lat="43.5865" lon="5.47466">
<ele>387.2</ele>
<time>2012-03-24T13:40:11.000Z</time>
</trkpt>
<trkpt lat="43.58656" lon="5.47466">
<ele>387.5</ele>
<time>2012-03-24T13:40:12.000Z</time>
</trkpt>
<trkpt lat="43.58661" lon="5.47466">
<ele>387.2</ele>
<time>2012-03-24T13:40:13.000Z</time>
</trkpt>
<trkpt lat="43.58667" lon="5.47466">
<ele>388</ele>
<time>2012-03-24T13:40:14.000Z</time>
</trkpt>
<trkpt lat="43.58673" lon="5.47467">
<ele>387.6</ele>
<time>2012-03-24T13:40:15.000Z</time>
</trkpt>
<trkpt lat="43.58679" lon="5.47467">
<ele>387.7</ele>
<time>2012-03-24T13:40:16.000Z</time>
</trkpt>
<trkpt lat="43.58684" lon="5.47466">
<ele>387.8</ele>
<time>2012-03-24T13:40:17.000Z</time>
</trkpt>
<trkpt lat="43.5869" lon="5.47467">
<ele>387.9</ele>
<time>2012-03-24T13:40:18.000Z</time>
</trkpt>
<trkpt lat="43.58694" lon="5.47468">
<ele>387.8</ele>
<time>2012-03-24T13:40:19.000Z</time>
</trkpt>
<trkpt lat="43.58701" lon="5.47469">
<ele>387.7</ele>
<time>2012-03-24T13:40:20.000Z</time>
</trkpt>
<trkpt lat="43.58706" lon="5.4747">
<ele>387.4</ele>
<time>2012-03-24T13:40:21.000Z</time>
</trkpt>
<trkpt lat="43.58713" lon="5.47468">
<ele>386.6</ele>
<time>2012-03-24T13:40:23.000Z</time>
</trkpt>
<trkpt lat="43.5872" lon="5.47468">
<ele>386.2</ele>
<time>2012-03-24T13:40:25.000Z</time>
</trkpt>
<trkpt lat="43.58725" lon="5.47476">
<ele>387.1</ele>
<time>2012-03-24T13:40:27.000Z</time>
</trkpt>
<trkpt lat="43.58728" lon="5.47482">
<ele>387.2</ele>
<time>2012-03-24T13:40:28.000Z</time>
</trkpt>
<trkpt lat="43.58728" lon="5.47495">
<ele>387.7</ele>
<time>2012-03-24T13:40:30.000Z</time>
</trkpt>
<trkpt lat="43.58728" lon="5.47502">
<ele>386.3</ele>
<time>2012-03-24T13:40:31.000Z</time>
</trkpt>
<trkpt lat="43.58728" lon="5.4751">
<ele>385.9</ele>
<time>2012-03-24T13:40:32.000Z</time>
</trkpt>
<trkpt lat="43.58728" lon="5.47516">
<ele>386.1</ele>
<time>2012-03-24T13:40:33.000Z</time>
</trkpt>
<trkpt lat="43.58727" lon="5.47523">
<ele>386.1</ele>
<time>2012-03-24T13:40:34.000Z</time>
</trkpt>
<trkpt lat="43.58727" lon="5.4753">
<ele>386.5</ele>
<time>2012-03-24T13:40:35.000Z</time>
</trkpt>
<trkpt lat="43.58727" lon="5.47536">
<ele>385.6</ele>
<time>2012-03-24T13:40:36.000Z</time>
</trkpt>
<trkpt lat="43.58726" lon="5.47542">
<ele>385.7</ele>
<time>2012-03-24T13:40:37.000Z</time>
</trkpt>
<trkpt lat="43.58721" lon="5.47554">
<ele>384.1</ele>
<time>2012-03-24T13:40:39.000Z</time>
</trkpt>
<trkpt lat="43.58718" lon="5.4756">
<ele>383.6</ele>
<time>2012-03-24T13:40:40.000Z</time>
</trkpt>
<trkpt lat="43.58717" lon="5.47567">
<ele>383.2</ele>
<time>2012-03-24T13:40:41.000Z</time>
</trkpt>
<trkpt lat="43.58716" lon="5.47574">
<ele>383</ele>
<time>2012-03-24T13:40:42.000Z</time>
</trkpt>
<trkpt lat="43.58715" lon="5.47581">
<ele>382.9</ele>
<time>2012-03-24T13:40:43.000Z</time>
</trkpt>
<trkpt lat="43.5872" lon="5.47587">
<ele>382.9</ele>
<time>2012-03-24T13:40:44.000Z</time>
</trkpt>
<trkpt lat="43.58723" lon="5.47592">
<ele>383.4</ele>
<time>2012-03-24T13:40:45.000Z</time>
</trkpt>
<trkpt lat="43.58726" lon="5.47598">
<ele>384</ele>
<time>2012-03-24T13:40:46.000Z</time>
</trkpt>
<trkpt lat="43.5873" lon="5.47601">
<ele>384.1</ele>
<time>2012-03-24T13:40:47.000Z</time>
</trkpt>
<trkpt lat="43.58734" lon="5.47606">
<ele>384.1</ele>
<time>2012-03-24T13:40:48.000Z</time>
</trkpt>
<trkpt lat="43.58739" lon="5.47609">
<ele>383.7</ele>
<time>2012-03-24T13:40:49.000Z</time>
</trkpt>
<trkpt lat="43.58743" lon="5.47614">
<ele>384.2</ele>
<time>2012-03-24T13:40:50.000Z</time>
</trkpt>
<trkpt lat="43.58747" lon="5.47618">
<ele>384.7</ele>
<time>2012-03-24T13:40:51.000Z</time>
</trkpt>
<trkpt lat="43.58752" lon="5.47621">
<ele>385</ele>
<time>2012-03-24T13:40:52.000Z</time>
</trkpt>
<trkpt lat="43.58759" lon="5.47627">
<ele>385.1</ele>
<time>2012-03-24T13:40:54.000Z</time>
</trkpt>
<trkpt lat="43.58763" lon="5.4763">
<ele>385.2</ele>
<time>2012-03-24T13:40:55.000Z</time>
</trkpt>
<trkpt lat="43.58767" lon="5.47634">
<ele>385.3</ele>
<time>2012-03-24T13:40:56.000Z</time>
</trkpt>
<trkpt lat="43.58771" lon="5.47638">
<ele>385.2</ele>
<time>2012-03-24T13:40:57.000Z</time>
</trkpt>
<trkpt lat="43.58776" lon="5.47642">
<ele>385.5</ele>
<time>2012-03-24T13:40:58.000Z</time>
</trkpt>
<trkpt lat="43.5878" lon="5.47646">
<ele>385.8</ele>
<time>2012-03-24T13:40:59.000Z</time>
</trkpt>
<trkpt lat="43.5879" lon="5.47651">
<ele>385.8</ele>
<time>2012-03-24T13:41:01.000Z</time>
</trkpt>
<trkpt lat="43.58793" lon="5.47656">
<ele>385.9</ele>
<time>2012-03-24T13:41:02.000Z</time>
</trkpt>
<trkpt lat="43.58798" lon="5.47659">
<ele>387.8</ele>
<time>2012-03-24T13:41:03.000Z</time>
</trkpt>
<trkpt lat="43.58804" lon="5.47662">
<ele>388.3</ele>
<time>2012-03-24T13:41:04.000Z</time>
</trkpt>
<trkpt lat="43.58809" lon="5.47665">
<ele>388.4</ele>
<time>2012-03-24T13:41:05.000Z</time>
</trkpt>
<trkpt lat="43.58814" lon="5.4767">
<ele>388.4</ele>
<time>2012-03-24T13:41:06.000Z</time>
</trkpt>
<trkpt lat="43.5882" lon="5.47676">
<ele>388.4</ele>
<time>2012-03-24T13:41:07.000Z</time>
</trkpt>
<trkpt lat="43.58824" lon="5.4768">
<ele>388.3</ele>
<time>2012-03-24T13:41:08.000Z</time>
</trkpt>
<trkpt lat="43.58829" lon="5.47684">
<ele>388.2</ele>
<time>2012-03-24T13:41:09.000Z</time>
</trkpt>
<trkpt lat="43.58834" lon="5.47688">
<ele>388.3</ele>
<time>2012-03-24T13:41:10.000Z</time>
</trkpt>
<trkpt lat="43.58838" lon="5.4769">
<ele>389.1</ele>
<time>2012-03-24T13:41:11.000Z</time>
</trkpt>
<trkpt lat="43.58844" lon="5.47693">
<ele>389</ele>
<time>2012-03-24T13:41:12.000Z</time>
</trkpt>
<trkpt lat="43.58848" lon="5.47695">
<ele>390.7</ele>
<time>2012-03-24T13:41:13.000Z</time>
</trkpt>
<trkpt lat="43.58854" lon="5.47698">
<ele>390.4</ele>
<time>2012-03-24T13:41:14.000Z</time>
</trkpt>
<trkpt lat="43.58859" lon="5.47699">
<ele>390.3</ele>
<time>2012-03-24T13:41:15.000Z</time>
</trkpt>
<trkpt lat="43.58865" lon="5.47701">
<ele>390.8</ele>
<time>2012-03-24T13:41:16.000Z</time>
</trkpt>
<trkpt lat="43.58871" lon="5.47704">
<ele>391.5</ele>
<time>2012-03-24T13:41:17.000Z</time>
</trkpt>
<trkpt lat="43.58877" lon="5.47706">
<ele>392</ele>
<time>2012-03-24T13:41:18.000Z</time>
</trkpt>
<trkpt lat="43.58883" lon="5.47708">
<ele>391.9</ele>
<time>2012-03-24T13:41:19.000Z</time>
</trkpt>
<trkpt lat="43.58889" lon="5.47711">
<ele>391.9</ele>
<time>2012-03-24T13:41:20.000Z</time>
</trkpt>
<trkpt lat="43.58895" lon="5.47713">
<ele>392.2</ele>
<time>2012-03-24T13:41:21.000Z</time>
</trkpt>
<trkpt lat="43.589" lon="5.47716">
<ele>392.1</ele>
<time>2012-03-24T13:41:22.000Z</time>
</trkpt>
<trkpt lat="43.58906" lon="5.47718">
<ele>392.3</ele>
<time>2012-03-24T13:41:23.000Z</time>
</trkpt>
<trkpt lat="43.58911" lon="5.47721">
<ele>392.5</ele>
<time>2012-03-24T13:41:24.000Z</time>
</trkpt>
<trkpt lat="43.58916" lon="5.47724">
<ele>392.3</ele>
<time>2012-03-24T13:41:25.000Z</time>
</trkpt>
<trkpt lat="43.58922" lon="5.47727">
<ele>392.3</ele>
<time>2012-03-24T13:41:26.000Z</time>
</trkpt>
<trkpt lat="43.58928" lon="5.47731">
<ele>392.4</ele>
<time>2012-03-24T13:41:27.000Z</time>
</trkpt>
<trkpt lat="43.58932" lon="5.47735">
<ele>393.4</ele>
<time>2012-03-24T13:41:28.000Z</time>
</trkpt>
<trkpt lat="43.58938" lon="5.47738">
<ele>393.7</ele>
<time>2012-03-24T13:41:29.000Z</time>
</trkpt>
<trkpt lat="43.58943" lon="5.47742">
<ele>394.1</ele>
<time>2012-03-24T13:41:30.000Z</time>
</trkpt>
<trkpt lat="43.58949" lon="5.47748">
<ele>394.1</ele>
<time>2012-03-24T13:41:31.000Z</time>
</trkpt>
<trkpt lat="43.58954" lon="5.47752">
<ele>394.4</ele>
<time>2012-03-24T13:41:32.000Z</time>
</trkpt>
<trkpt lat="43.58958" lon="5.47757">
<ele>394.4</ele>
<time>2012-03-24T13:41:33.000Z</time>
</trkpt>
<trkpt lat="43.58963" lon="5.47762">
<ele>394.1</ele>
<time>2012-03-24T13:41:34.000Z</time>
</trkpt>
<trkpt lat="43.58969" lon="5.47768">
<ele>393.4</ele>
<time>2012-03-24T13:41:35.000Z</time>
</trkpt>
<trkpt lat="43.58974" lon="5.47774">
<ele>392.2</ele>
<time>2012-03-24T13:41:36.000Z</time>
</trkpt>
<trkpt lat="43.58979" lon="5.47781">
<ele>391.9</ele>
<time>2012-03-24T13:41:37.000Z</time>
</trkpt>
<trkpt lat="43.58984" lon="5.47787">
<ele>391.6</ele>
<time>2012-03-24T13:41:38.000Z</time>
</trkpt>
<trkpt lat="43.58987" lon="5.47792">
<ele>391.7</ele>
<time>2012-03-24T13:41:39.000Z</time>
</trkpt>
<trkpt lat="43.58991" lon="5.47796">
<ele>391.8</ele>
<time>2012-03-24T13:41:40.000Z</time>
</trkpt>
<trkpt lat="43.58995" lon="5.47802">
<ele>391.9</ele>
<time>2012-03-24T13:41:41.000Z</time>
</trkpt>
<trkpt lat="43.59" lon="5.47809">
<ele>391.7</ele>
<time>2012-03-24T13:41:42.000Z</time>
</trkpt>
<trkpt lat="43.59005" lon="5.47814">
<ele>391.5</ele>
<time>2012-03-24T13:41:43.000Z</time>
</trkpt>
<trkpt lat="43.59008" lon="5.47819">
<ele>391.7</ele>
<time>2012-03-24T13:41:44.000Z</time>
</trkpt>
<trkpt lat="43.59012" lon="5.47824">
<ele>391.8</ele>
<time>2012-03-24T13:41:45.000Z</time>
</trkpt>
<trkpt lat="43.5902" lon="5.47834">
<ele>392.3</ele>
<time>2012-03-24T13:41:47.000Z</time>
</trkpt>
<trkpt lat="43.59024" lon="5.4784">
<ele>392.8</ele>
<time>2012-03-24T13:41:48.000Z</time>
</trkpt>
<trkpt lat="43.59029" lon="5.47846">
<ele>393.3</ele>
<time>2012-03-24T13:41:49.000Z</time>
</trkpt>
<trkpt lat="43.59033" lon="5.47852">
<ele>393.2</ele>
<time>2012-03-24T13:41:50.000Z</time>
</trkpt>
<trkpt lat="43.59038" lon="5.47857">
<ele>393.2</ele>
<time>2012-03-24T13:41:51.000Z</time>
</trkpt>
<trkpt lat="43.59042" lon="5.47862">
<ele>392.6</ele>
<time>2012-03-24T13:41:52.000Z</time>
</trkpt>
<trkpt lat="43.59046" lon="5.47868">
<ele>392.8</ele>
<time>2012-03-24T13:41:53.000Z</time>
</trkpt>
<trkpt lat="43.5905" lon="5.47874">
<ele>392.7</ele>
<time>2012-03-24T13:41:54.000Z</time>
</trkpt>
<trkpt lat="43.59055" lon="5.47879">
<ele>392.7</ele>
<time>2012-03-24T13:41:55.000Z</time>
</trkpt>
<trkpt lat="43.59058" lon="5.47884">
<ele>392.6</ele>
<time>2012-03-24T13:41:56.000Z</time>
</trkpt>
<trkpt lat="43.59062" lon="5.4789">
<ele>393</ele>
<time>2012-03-24T13:41:57.000Z</time>
</trkpt>
<trkpt lat="43.59068" lon="5.47896">
<ele>393.3</ele>
<time>2012-03-24T13:41:58.000Z</time>
</trkpt>
<trkpt lat="43.59071" lon="5.47901">
<ele>393.5</ele>
<time>2012-03-24T13:41:59.000Z</time>
</trkpt>
<trkpt lat="43.59076" lon="5.47908">
<ele>393.5</ele>
<time>2012-03-24T13:42:00.000Z</time>
</trkpt>
<trkpt lat="43.5908" lon="5.47914">
<ele>393.5</ele>
<time>2012-03-24T13:42:01.000Z</time>
</trkpt>
<trkpt lat="43.59084" lon="5.4792">
<ele>393.3</ele>
<time>2012-03-24T13:42:02.000Z</time>
</trkpt>
<trkpt lat="43.59088" lon="5.47926">
<ele>393</ele>
<time>2012-03-24T13:42:03.000Z</time>
</trkpt>
<trkpt lat="43.59091" lon="5.47932">
<ele>393</ele>
<time>2012-03-24T13:42:04.000Z</time>
</trkpt>
<trkpt lat="43.59096" lon="5.47937">
<ele>393.6</ele>
<time>2012-03-24T13:42:05.000Z</time>
</trkpt>
<trkpt lat="43.591" lon="5.47943">
<ele>393</ele>
<time>2012-03-24T13:42:06.000Z</time>
</trkpt>
<trkpt lat="43.59104" lon="5.47948">
<ele>392.7</ele>
<time>2012-03-24T13:42:07.000Z</time>
</trkpt>
<trkpt lat="43.59108" lon="5.47955">
<ele>392.6</ele>
<time>2012-03-24T13:42:08.000Z</time>
</trkpt>
<trkpt lat="43.59112" lon="5.47961">
<ele>392.8</ele>
<time>2012-03-24T13:42:09.000Z</time>
</trkpt>
<trkpt lat="43.59116" lon="5.47968">
<ele>392.5</ele>
<time>2012-03-24T13:42:10.000Z</time>
</trkpt>
<trkpt lat="43.5912" lon="5.47972">
<ele>392.2</ele>
<time>2012-03-24T13:42:11.000Z</time>
</trkpt>
<trkpt lat="43.59124" lon="5.47979">
<ele>392.1</ele>
<time>2012-03-24T13:42:12.000Z</time>
</trkpt>
<trkpt lat="43.59128" lon="5.47985">
<ele>392.3</ele>
<time>2012-03-24T13:42:13.000Z</time>
</trkpt>
<trkpt lat="43.59132" lon="5.4799">
<ele>392.7</ele>
<time>2012-03-24T13:42:14.000Z</time>
</trkpt>
<trkpt lat="43.59136" lon="5.47997">
<ele>392.4</ele>
<time>2012-03-24T13:42:15.000Z</time>
</trkpt>
<trkpt lat="43.5914" lon="5.48002">
<ele>392.5</ele>
<time>2012-03-24T13:42:16.000Z</time>
</trkpt>
<trkpt lat="43.59145" lon="5.48007">
<ele>393</ele>
<time>2012-03-24T13:42:17.000Z</time>
</trkpt>
<trkpt lat="43.59149" lon="5.48013">
<ele>392.9</ele>
<time>2012-03-24T13:42:18.000Z</time>
</trkpt>
<trkpt lat="43.59154" lon="5.48019">
<ele>393.1</ele>
<time>2012-03-24T13:42:19.000Z</time>
</trkpt>
<trkpt lat="43.59158" lon="5.48024">
<ele>393.5</ele>
<time>2012-03-24T13:42:20.000Z</time>
</trkpt>
<trkpt lat="43.59162" lon="5.48029">
<ele>393.7</ele>
<time>2012-03-24T13:42:21.000Z</time>
</trkpt>
<trkpt lat="43.59167" lon="5.48035">
<ele>394.2</ele>
<time>2012-03-24T13:42:22.000Z</time>
</trkpt>
<trkpt lat="43.59172" lon="5.4804">
<ele>394</ele>
<time>2012-03-24T13:42:23.000Z</time>
</trkpt>
<trkpt lat="43.59177" lon="5.48046">
<ele>394</ele>
<time>2012-03-24T13:42:24.000Z</time>
</trkpt>
<trkpt lat="43.59181" lon="5.48051">
<ele>394.2</ele>
<time>2012-03-24T13:42:25.000Z</time>
</trkpt>
<trkpt lat="43.59185" lon="5.48056">
<ele>394.4</ele>
<time>2012-03-24T13:42:26.000Z</time>
</trkpt>
<trkpt lat="43.5919" lon="5.48061">
<ele>394.9</ele>
<time>2012-03-24T13:42:27.000Z</time>
</trkpt>
<trkpt lat="43.59195" lon="5.48066">
<ele>395.5</ele>
<time>2012-03-24T13:42:28.000Z</time>
</trkpt>
<trkpt lat="43.59199" lon="5.48071">
<ele>395.6</ele>
<time>2012-03-24T13:42:29.000Z</time>
</trkpt>
<trkpt lat="43.59204" lon="5.48076">
<ele>396.1</ele>
<time>2012-03-24T13:42:30.000Z</time>
</trkpt>
<trkpt lat="43.59208" lon="5.4808">
<ele>396.9</ele>
<time>2012-03-24T13:42:31.000Z</time>
</trkpt>
<trkpt lat="43.59213" lon="5.48085">
<ele>396.9</ele>
<time>2012-03-24T13:42:32.000Z</time>
</trkpt>
<trkpt lat="43.59217" lon="5.48089">
<ele>397.9</ele>
<time>2012-03-24T13:42:33.000Z</time>
</trkpt>
<trkpt lat="43.59222" lon="5.48094">
<ele>398.4</ele>
<time>2012-03-24T13:42:34.000Z</time>
</trkpt>
<trkpt lat="43.59227" lon="5.48099">
<ele>398.8</ele>
<time>2012-03-24T13:42:35.000Z</time>
</trkpt>
<trkpt lat="43.59232" lon="5.48104">
<ele>399.1</ele>
<time>2012-03-24T13:42:36.000Z</time>
</trkpt>
<trkpt lat="43.59236" lon="5.48108">
<ele>400</ele>
<time>2012-03-24T13:42:37.000Z</time>
</trkpt>
<trkpt lat="43.59242" lon="5.48113">
<ele>400</ele>
<time>2012-03-24T13:42:38.000Z</time>
</trkpt>
<trkpt lat="43.59246" lon="5.48118">
<ele>400</ele>
<time>2012-03-24T13:42:39.000Z</time>
</trkpt>
<trkpt lat="43.59252" lon="5.48122">
<ele>400.5</ele>
<time>2012-03-24T13:42:40.000Z</time>
</trkpt>
<trkpt lat="43.59256" lon="5.48126">
<ele>400.6</ele>
<time>2012-03-24T13:42:41.000Z</time>
</trkpt>
<trkpt lat="43.59261" lon="5.48131">
<ele>400.8</ele>
<time>2012-03-24T13:42:42.000Z</time>
</trkpt>
<trkpt lat="43.59266" lon="5.48136">
<ele>400.4</ele>
<time>2012-03-24T13:42:43.000Z</time>
</trkpt>
<trkpt lat="43.59271" lon="5.4814">
<ele>400.8</ele>
<time>2012-03-24T13:42:44.000Z</time>
</trkpt>
<trkpt lat="43.59276" lon="5.48144">
<ele>400.9</ele>
<time>2012-03-24T13:42:45.000Z</time>
</trkpt>
<trkpt lat="43.59282" lon="5.48149">
<ele>401</ele>
<time>2012-03-24T13:42:46.000Z</time>
</trkpt>
<trkpt lat="43.59287" lon="5.48152">
<ele>401.1</ele>
<time>2012-03-24T13:42:47.000Z</time>
</trkpt>
<trkpt lat="43.59292" lon="5.48156">
<ele>401.1</ele>
<time>2012-03-24T13:42:48.000Z</time>
</trkpt>
<trkpt lat="43.59298" lon="5.4816">
<ele>400.8</ele>
<time>2012-03-24T13:42:49.000Z</time>
</trkpt>
<trkpt lat="43.59304" lon="5.48164">
<ele>401.1</ele>
<time>2012-03-24T13:42:50.000Z</time>
</trkpt>
<trkpt lat="43.5931" lon="5.48168">
<ele>401.8</ele>
<time>2012-03-24T13:42:51.000Z</time>
</trkpt>
<trkpt lat="43.59315" lon="5.48171">
<ele>402.3</ele>
<time>2012-03-24T13:42:52.000Z</time>
</trkpt>
<trkpt lat="43.59321" lon="5.48174">
<ele>402.9</ele>
<time>2012-03-24T13:42:53.000Z</time>
</trkpt>
<trkpt lat="43.59328" lon="5.48177">
<ele>402.6</ele>
<time>2012-03-24T13:42:54.000Z</time>
</trkpt>
<trkpt lat="43.59334" lon="5.4818">
<ele>403.3</ele>
<time>2012-03-24T13:42:55.000Z</time>
</trkpt>
<trkpt lat="43.5934" lon="5.48182">
<ele>403.4</ele>
<time>2012-03-24T13:42:56.000Z</time>
</trkpt>
<trkpt lat="43.59347" lon="5.48185">
<ele>403</ele>
<time>2012-03-24T13:42:57.000Z</time>
</trkpt>
<trkpt lat="43.59353" lon="5.48188">
<ele>403.2</ele>
<time>2012-03-24T13:42:58.000Z</time>
</trkpt>
<trkpt lat="43.59359" lon="5.48191">
<ele>402.9</ele>
<time>2012-03-24T13:42:59.000Z</time>
</trkpt>
<trkpt lat="43.59364" lon="5.48193">
<ele>403</ele>
<time>2012-03-24T13:43:00.000Z</time>
</trkpt>
<trkpt lat="43.5937" lon="5.48195">
<ele>403.2</ele>
<time>2012-03-24T13:43:01.000Z</time>
</trkpt>
<trkpt lat="43.59374" lon="5.48198">
<ele>403.1</ele>
<time>2012-03-24T13:43:02.000Z</time>
</trkpt>
<trkpt lat="43.59378" lon="5.48202">
<ele>403.3</ele>
<time>2012-03-24T13:43:03.000Z</time>
</trkpt>
<trkpt lat="43.59378" lon="5.48212">
<ele>403.5</ele>
<time>2012-03-24T13:43:04.000Z</time>
</trkpt>
<trkpt lat="43.5938" lon="5.4822">
<ele>403.4</ele>
<time>2012-03-24T13:43:05.000Z</time>
</trkpt>
<trkpt lat="43.5938" lon="5.48226">
<ele>403.4</ele>
<time>2012-03-24T13:43:06.000Z</time>
</trkpt>
<trkpt lat="43.59382" lon="5.48232">
<ele>403.3</ele>
<time>2012-03-24T13:43:07.000Z</time>
</trkpt>
<trkpt lat="43.59386" lon="5.48238">
<ele>403.3</ele>
<time>2012-03-24T13:43:08.000Z</time>
</trkpt>
<trkpt lat="43.5939" lon="5.48242">
<ele>404.2</ele>
<time>2012-03-24T13:43:09.000Z</time>
</trkpt>
<trkpt lat="43.59394" lon="5.48243">
<ele>404.6</ele>
<time>2012-03-24T13:43:10.000Z</time>
</trkpt>
<trkpt lat="43.59399" lon="5.48243">
<ele>404.6</ele>
<time>2012-03-24T13:43:11.000Z</time>
</trkpt>
<trkpt lat="43.59404" lon="5.48241">
<ele>404.7</ele>
<time>2012-03-24T13:43:12.000Z</time>
</trkpt>
<trkpt lat="43.59409" lon="5.48235">
<ele>404.7</ele>
<time>2012-03-24T13:43:13.000Z</time>
</trkpt>
<trkpt lat="43.59414" lon="5.48231">
<ele>404.4</ele>
<time>2012-03-24T13:43:14.000Z</time>
</trkpt>
<trkpt lat="43.59419" lon="5.48228">
<ele>404.4</ele>
<time>2012-03-24T13:43:15.000Z</time>
</trkpt>
<trkpt lat="43.59425" lon="5.48227">
<ele>404.5</ele>
<time>2012-03-24T13:43:16.000Z</time>
</trkpt>
<trkpt lat="43.59432" lon="5.48227">
<ele>404.6</ele>
<time>2012-03-24T13:43:17.000Z</time>
</trkpt>
<trkpt lat="43.59437" lon="5.48228">
<ele>404.9</ele>
<time>2012-03-24T13:43:18.000Z</time>
</trkpt>
<trkpt lat="43.59442" lon="5.48232">
<ele>405.2</ele>
<time>2012-03-24T13:43:19.000Z</time>
</trkpt>
<trkpt lat="43.59448" lon="5.48235">
<ele>405.1</ele>
<time>2012-03-24T13:43:20.000Z</time>
</trkpt>
<trkpt lat="43.59453" lon="5.48238">
<ele>405.6</ele>
<time>2012-03-24T13:43:21.000Z</time>
</trkpt>
<trkpt lat="43.59458" lon="5.48241">
<ele>405.8</ele>
<time>2012-03-24T13:43:22.000Z</time>
</trkpt>
<trkpt lat="43.59463" lon="5.48244">
<ele>405.6</ele>
<time>2012-03-24T13:43:23.000Z</time>
</trkpt>
<trkpt lat="43.59468" lon="5.48248">
<ele>405.7</ele>
<time>2012-03-24T13:43:24.000Z</time>
</trkpt>
<trkpt lat="43.59474" lon="5.48252">
<ele>405.6</ele>
<time>2012-03-24T13:43:25.000Z</time>
</trkpt>
<trkpt lat="43.59479" lon="5.48257">
<ele>405.8</ele>
<time>2012-03-24T13:43:26.000Z</time>
</trkpt>
<trkpt lat="43.59484" lon="5.4826">
<ele>406</ele>
<time>2012-03-24T13:43:27.000Z</time>
</trkpt>
<trkpt lat="43.59492" lon="5.48269">
<ele>409.3</ele>
<time>2012-03-24T13:43:29.000Z</time>
</trkpt>
<trkpt lat="43.59497" lon="5.48273">
<ele>410.4</ele>
<time>2012-03-24T13:43:30.000Z</time>
</trkpt>
<trkpt lat="43.59502" lon="5.48277">
<ele>411.2</ele>
<time>2012-03-24T13:43:31.000Z</time>
</trkpt>
<trkpt lat="43.59506" lon="5.48281">
<ele>411.7</ele>
<time>2012-03-24T13:43:32.000Z</time>
</trkpt>
<trkpt lat="43.59511" lon="5.48286">
<ele>411.2</ele>
<time>2012-03-24T13:43:33.000Z</time>
</trkpt>
<trkpt lat="43.59516" lon="5.4829">
<ele>411.8</ele>
<time>2012-03-24T13:43:34.000Z</time>
</trkpt>
<trkpt lat="43.5952" lon="5.48295">
<ele>412</ele>
<time>2012-03-24T13:43:35.000Z</time>
</trkpt>
<trkpt lat="43.59524" lon="5.483">
<ele>412.1</ele>
<time>2012-03-24T13:43:36.000Z</time>
</trkpt>
<trkpt lat="43.59529" lon="5.48305">
<ele>412.2</ele>
<time>2012-03-24T13:43:37.000Z</time>
</trkpt>
<trkpt lat="43.59533" lon="5.4831">
<ele>411.9</ele>
<time>2012-03-24T13:43:38.000Z</time>
</trkpt>
<trkpt lat="43.59537" lon="5.48316">
<ele>412.2</ele>
<time>2012-03-24T13:43:39.000Z</time>
</trkpt>
<trkpt lat="43.59542" lon="5.48321">
<ele>412.5</ele>
<time>2012-03-24T13:43:40.000Z</time>
</trkpt>
<trkpt lat="43.59546" lon="5.48326">
<ele>412.8</ele>
<time>2012-03-24T13:43:41.000Z</time>
</trkpt>
<trkpt lat="43.5955" lon="5.4833">
<ele>413.1</ele>
<time>2012-03-24T13:43:42.000Z</time>
</trkpt>
<trkpt lat="43.59554" lon="5.48335">
<ele>413.2</ele>
<time>2012-03-24T13:43:43.000Z</time>
</trkpt>
<trkpt lat="43.59559" lon="5.48341">
<ele>412.6</ele>
<time>2012-03-24T13:43:44.000Z</time>
</trkpt>
<trkpt lat="43.59563" lon="5.48345">
<ele>412.6</ele>
<time>2012-03-24T13:43:45.000Z</time>
</trkpt>
<trkpt lat="43.59567" lon="5.4835">
<ele>412.5</ele>
<time>2012-03-24T13:43:46.000Z</time>
</trkpt>
<trkpt lat="43.59571" lon="5.48354">
<ele>412.7</ele>
<time>2012-03-24T13:43:47.000Z</time>
</trkpt>
<trkpt lat="43.59576" lon="5.48359">
<ele>412.8</ele>
<time>2012-03-24T13:43:48.000Z</time>
</trkpt>
<trkpt lat="43.5958" lon="5.48363">
<ele>412.7</ele>
<time>2012-03-24T13:43:49.000Z</time>
</trkpt>
<trkpt lat="43.59585" lon="5.48368">
<ele>413.2</ele>
<time>2012-03-24T13:43:50.000Z</time>
</trkpt>
<trkpt lat="43.59589" lon="5.48372">
<ele>413.9</ele>
<time>2012-03-24T13:43:51.000Z</time>
</trkpt>
<trkpt lat="43.59594" lon="5.48376">
<ele>414</ele>
<time>2012-03-24T13:43:52.000Z</time>
</trkpt>
<trkpt lat="43.59598" lon="5.48381">
<ele>414</ele>
<time>2012-03-24T13:43:53.000Z</time>
</trkpt>
<trkpt lat="43.59602" lon="5.48386">
<ele>414.1</ele>
<time>2012-03-24T13:43:54.000Z</time>
</trkpt>
<trkpt lat="43.59607" lon="5.4839">
<ele>414.3</ele>
<time>2012-03-24T13:43:55.000Z</time>
</trkpt>
<trkpt lat="43.59612" lon="5.48394">
<ele>414.1</ele>
<time>2012-03-24T13:43:56.000Z</time>
</trkpt>
<trkpt lat="43.59617" lon="5.48398">
<ele>413.9</ele>
<time>2012-03-24T13:43:57.000Z</time>
</trkpt>
<trkpt lat="43.59621" lon="5.48402">
<ele>413.9</ele>
<time>2012-03-24T13:43:58.000Z</time>
</trkpt>
<trkpt lat="43.59626" lon="5.48406">
<ele>415.1</ele>
<time>2012-03-24T13:43:59.000Z</time>
</trkpt>
<trkpt lat="43.59631" lon="5.4841">
<ele>415.4</ele>
<time>2012-03-24T13:44:00.000Z</time>
</trkpt>
<trkpt lat="43.59635" lon="5.48414">
<ele>415.5</ele>
<time>2012-03-24T13:44:01.000Z</time>
</trkpt>
<trkpt lat="43.5964" lon="5.48417">
<ele>415.8</ele>
<time>2012-03-24T13:44:02.000Z</time>
</trkpt>
<trkpt lat="43.59645" lon="5.48421">
<ele>416.1</ele>
<time>2012-03-24T13:44:03.000Z</time>
</trkpt>
<trkpt lat="43.59649" lon="5.48424">
<ele>416.2</ele>
<time>2012-03-24T13:44:04.000Z</time>
</trkpt>
<trkpt lat="43.59654" lon="5.48427">
<ele>416.4</ele>
<time>2012-03-24T13:44:05.000Z</time>
</trkpt>
<trkpt lat="43.5966" lon="5.4843">
<ele>416.4</ele>
<time>2012-03-24T13:44:06.000Z</time>
</trkpt>
<trkpt lat="43.59666" lon="5.48435">
<ele>416.5</ele>
<time>2012-03-24T13:44:07.000Z</time>
</trkpt>
<trkpt lat="43.59671" lon="5.4844">
<ele>416.7</ele>
<time>2012-03-24T13:44:08.000Z</time>
</trkpt>
<trkpt lat="43.59676" lon="5.48444">
<ele>417</ele>
<time>2012-03-24T13:44:09.000Z</time>
</trkpt>
<trkpt lat="43.59681" lon="5.48447">
<ele>416.7</ele>
<time>2012-03-24T13:44:10.000Z</time>
</trkpt>
<trkpt lat="43.59687" lon="5.4845">
<ele>416.8</ele>
<time>2012-03-24T13:44:11.000Z</time>
</trkpt>
<trkpt lat="43.59693" lon="5.48454">
<ele>416.8</ele>
<time>2012-03-24T13:44:12.000Z</time>
</trkpt>
<trkpt lat="43.59701" lon="5.48456">
<ele>416.2</ele>
<time>2012-03-24T13:44:13.000Z</time>
</trkpt>
<trkpt lat="43.59707" lon="5.48461">
<ele>413.9</ele>
<time>2012-03-24T13:44:14.000Z</time>
</trkpt>
<trkpt lat="43.59712" lon="5.48463">
<ele>414.2</ele>
<time>2012-03-24T13:44:15.000Z</time>
</trkpt>
<trkpt lat="43.59716" lon="5.48466">
<ele>414.4</ele>
<time>2012-03-24T13:44:16.000Z</time>
</trkpt>
<trkpt lat="43.59723" lon="5.48468">
<ele>413.4</ele>
<time>2012-03-24T13:44:17.000Z</time>
</trkpt>
<trkpt lat="43.59729" lon="5.48472">
<ele>413.1</ele>
<time>2012-03-24T13:44:18.000Z</time>
</trkpt>
<trkpt lat="43.59734" lon="5.48474">
<ele>412.5</ele>
<time>2012-03-24T13:44:19.000Z</time>
</trkpt>
<trkpt lat="43.5974" lon="5.48476">
<ele>412.5</ele>
<time>2012-03-24T13:44:20.000Z</time>
</trkpt>
<trkpt lat="43.59746" lon="5.48477">
<ele>412.4</ele>
<time>2012-03-24T13:44:21.000Z</time>
</trkpt>
<trkpt lat="43.59755" lon="5.4848">
<ele>412.2</ele>
<time>2012-03-24T13:44:23.000Z</time>
</trkpt>
<trkpt lat="43.59762" lon="5.48482">
<ele>411.9</ele>
<time>2012-03-24T13:44:24.000Z</time>
</trkpt>
<trkpt lat="43.59767" lon="5.48484">
<ele>412.2</ele>
<time>2012-03-24T13:44:25.000Z</time>
</trkpt>
<trkpt lat="43.59771" lon="5.48486">
<ele>412.4</ele>
<time>2012-03-24T13:44:26.000Z</time>
</trkpt>
<trkpt lat="43.59777" lon="5.48487">
<ele>412.8</ele>
<time>2012-03-24T13:44:27.000Z</time>
</trkpt>
<trkpt lat="43.59783" lon="5.48489">
<ele>412.8</ele>
<time>2012-03-24T13:44:28.000Z</time>
</trkpt>
<trkpt lat="43.59789" lon="5.4849">
<ele>413.2</ele>
<time>2012-03-24T13:44:29.000Z</time>
</trkpt>
<trkpt lat="43.59795" lon="5.48492">
<ele>414.2</ele>
<time>2012-03-24T13:44:30.000Z</time>
</trkpt>
<trkpt lat="43.59801" lon="5.48491">
<ele>414.4</ele>
<time>2012-03-24T13:44:31.000Z</time>
</trkpt>
<trkpt lat="43.59807" lon="5.48491">
<ele>415.1</ele>
<time>2012-03-24T13:44:32.000Z</time>
</trkpt>
<trkpt lat="43.59812" lon="5.48494">
<ele>415.3</ele>
<time>2012-03-24T13:44:33.000Z</time>
</trkpt>
<trkpt lat="43.59818" lon="5.48494">
<ele>414.9</ele>
<time>2012-03-24T13:44:34.000Z</time>
</trkpt>
<trkpt lat="43.59824" lon="5.48494">
<ele>414.8</ele>
<time>2012-03-24T13:44:35.000Z</time>
</trkpt>
<trkpt lat="43.59829" lon="5.48496">
<ele>416</ele>
<time>2012-03-24T13:44:36.000Z</time>
</trkpt>
<trkpt lat="43.59836" lon="5.48497">
<ele>415.4</ele>
<time>2012-03-24T13:44:37.000Z</time>
</trkpt>
<trkpt lat="43.59842" lon="5.485">
<ele>416</ele>
<time>2012-03-24T13:44:38.000Z</time>
</trkpt>
<trkpt lat="43.59848" lon="5.48499">
<ele>415.9</ele>
<time>2012-03-24T13:44:39.000Z</time>
</trkpt>
<trkpt lat="43.59854" lon="5.485">
<ele>415.9</ele>
<time>2012-03-24T13:44:40.000Z</time>
</trkpt>
<trkpt lat="43.5986" lon="5.485">
<ele>415.9</ele>
<time>2012-03-24T13:44:41.000Z</time>
</trkpt>
<trkpt lat="43.59866" lon="5.48502">
<ele>416.6</ele>
<time>2012-03-24T13:44:42.000Z</time>
</trkpt>
<trkpt lat="43.59871" lon="5.48502">
<ele>417.1</ele>
<time>2012-03-24T13:44:43.000Z</time>
</trkpt>
<trkpt lat="43.59877" lon="5.48502">
<ele>417.4</ele>
<time>2012-03-24T13:44:44.000Z</time>
</trkpt>
<trkpt lat="43.59883" lon="5.48503">
<ele>417.6</ele>
<time>2012-03-24T13:44:45.000Z</time>
</trkpt>
<trkpt lat="43.59888" lon="5.48506">
<ele>417.9</ele>
<time>2012-03-24T13:44:46.000Z</time>
</trkpt>
<trkpt lat="43.59894" lon="5.48506">
<ele>418.3</ele>
<time>2012-03-24T13:44:47.000Z</time>
</trkpt>
<trkpt lat="43.599" lon="5.48507">
<ele>418.8</ele>
<time>2012-03-24T13:44:48.000Z</time>
</trkpt>
<trkpt lat="43.59906" lon="5.48508">
<ele>419.4</ele>
<time>2012-03-24T13:44:49.000Z</time>
</trkpt>
<trkpt lat="43.59912" lon="5.4851">
<ele>419.7</ele>
<time>2012-03-24T13:44:50.000Z</time>
</trkpt>
<trkpt lat="43.59917" lon="5.4851">
<ele>420.1</ele>
<time>2012-03-24T13:44:51.000Z</time>
</trkpt>
<trkpt lat="43.59923" lon="5.48512">
<ele>420.5</ele>
<time>2012-03-24T13:44:52.000Z</time>
</trkpt>
<trkpt lat="43.5993" lon="5.48514">
<ele>420.4</ele>
<time>2012-03-24T13:44:53.000Z</time>
</trkpt>
<trkpt lat="43.59936" lon="5.48513">
<ele>421.4</ele>
<time>2012-03-24T13:44:54.000Z</time>
</trkpt>
<trkpt lat="43.59942" lon="5.48514">
<ele>421.6</ele>
<time>2012-03-24T13:44:55.000Z</time>
</trkpt>
<trkpt lat="43.59948" lon="5.48515">
<ele>422.1</ele>
<time>2012-03-24T13:44:56.000Z</time>
</trkpt>
<trkpt lat="43.59957" lon="5.48522">
<ele>422.5</ele>
<time>2012-03-24T13:44:58.000Z</time>
</trkpt>
<trkpt lat="43.5996" lon="5.48533">
<ele>423.5</ele>
<time>2012-03-24T13:44:59.000Z</time>
</trkpt>
<trkpt lat="43.59964" lon="5.48542">
<ele>422.8</ele>
<time>2012-03-24T13:45:00.000Z</time>
</trkpt>
<trkpt lat="43.59967" lon="5.48548">
<ele>422.7</ele>
<time>2012-03-24T13:45:01.000Z</time>
</trkpt>
<trkpt lat="43.5997" lon="5.48556">
<ele>423.3</ele>
<time>2012-03-24T13:45:02.000Z</time>
</trkpt>
<trkpt lat="43.59974" lon="5.48564">
<ele>422.9</ele>
<time>2012-03-24T13:45:03.000Z</time>
</trkpt>
<trkpt lat="43.59978" lon="5.4857">
<ele>423.6</ele>
<time>2012-03-24T13:45:04.000Z</time>
</trkpt>
<trkpt lat="43.59981" lon="5.48575">
<ele>423.7</ele>
<time>2012-03-24T13:45:05.000Z</time>
</trkpt>
<trkpt lat="43.59984" lon="5.48582">
<ele>423.9</ele>
<time>2012-03-24T13:45:06.000Z</time>
</trkpt>
<trkpt lat="43.59988" lon="5.48588">
<ele>424.2</ele>
<time>2012-03-24T13:45:07.000Z</time>
</trkpt>
<trkpt lat="43.59991" lon="5.48595">
<ele>424.8</ele>
<time>2012-03-24T13:45:08.000Z</time>
</trkpt>
<trkpt lat="43.59996" lon="5.48602">
<ele>424.3</ele>
<time>2012-03-24T13:45:09.000Z</time>
</trkpt>
<trkpt lat="43.59999" lon="5.48608">
<ele>423.9</ele>
<time>2012-03-24T13:45:10.000Z</time>
</trkpt>
<trkpt lat="43.60002" lon="5.48614">
<ele>424.9</ele>
<time>2012-03-24T13:45:11.000Z</time>
</trkpt>
<trkpt lat="43.60006" lon="5.4862">
<ele>424.5</ele>
<time>2012-03-24T13:45:12.000Z</time>
</trkpt>
<trkpt lat="43.6001" lon="5.48627">
<ele>423.7</ele>
<time>2012-03-24T13:45:13.000Z</time>
</trkpt>
<trkpt lat="43.60014" lon="5.48632">
<ele>424.2</ele>
<time>2012-03-24T13:45:14.000Z</time>
</trkpt>
<trkpt lat="43.60017" lon="5.48638">
<ele>424.3</ele>
<time>2012-03-24T13:45:15.000Z</time>
</trkpt>
<trkpt lat="43.60021" lon="5.48644">
<ele>424.7</ele>
<time>2012-03-24T13:45:16.000Z</time>
</trkpt>
<trkpt lat="43.60025" lon="5.4865">
<ele>424.8</ele>
<time>2012-03-24T13:45:17.000Z</time>
</trkpt>
<trkpt lat="43.60029" lon="5.48656">
<ele>424.8</ele>
<time>2012-03-24T13:45:18.000Z</time>
</trkpt>
<trkpt lat="43.60033" lon="5.48662">
<ele>424.9</ele>
<time>2012-03-24T13:45:19.000Z</time>
</trkpt>
<trkpt lat="43.60038" lon="5.48667">
<ele>424.8</ele>
<time>2012-03-24T13:45:20.000Z</time>
</trkpt>
<trkpt lat="43.60042" lon="5.48674">
<ele>424.4</ele>
<time>2012-03-24T13:45:21.000Z</time>
</trkpt>
<trkpt lat="43.60047" lon="5.4868">
<ele>424.4</ele>
<time>2012-03-24T13:45:22.000Z</time>
</trkpt>
<trkpt lat="43.60052" lon="5.48686">
<ele>424.4</ele>
<time>2012-03-24T13:45:23.000Z</time>
</trkpt>
<trkpt lat="43.60056" lon="5.48692">
<ele>424.5</ele>
<time>2012-03-24T13:45:24.000Z</time>
</trkpt>
<trkpt lat="43.6006" lon="5.48699">
<ele>424.7</ele>
<time>2012-03-24T13:45:25.000Z</time>
</trkpt>
<trkpt lat="43.60064" lon="5.48706">
<ele>425.1</ele>
<time>2012-03-24T13:45:26.000Z</time>
</trkpt>
<trkpt lat="43.60067" lon="5.48712">
<ele>425.1</ele>
<time>2012-03-24T13:45:27.000Z</time>
</trkpt>
<trkpt lat="43.6007" lon="5.48718">
<ele>424.8</ele>
<time>2012-03-24T13:45:28.000Z</time>
</trkpt>
<trkpt lat="43.60073" lon="5.48726">
<ele>424.4</ele>
<time>2012-03-24T13:45:29.000Z</time>
</trkpt>
<trkpt lat="43.60074" lon="5.48733">
<ele>424.5</ele>
<time>2012-03-24T13:45:30.000Z</time>
</trkpt>
<trkpt lat="43.60075" lon="5.48741">
<ele>424.2</ele>
<time>2012-03-24T13:45:31.000Z</time>
</trkpt>
<trkpt lat="43.60076" lon="5.48747">
<ele>424.3</ele>
<time>2012-03-24T13:45:32.000Z</time>
</trkpt>
<trkpt lat="43.60078" lon="5.48753">
<ele>424.4</ele>
<time>2012-03-24T13:45:33.000Z</time>
</trkpt>
<trkpt lat="43.60089" lon="5.48757">
<ele>424.6</ele>
<time>2012-03-24T13:45:35.000Z</time>
</trkpt>
<trkpt lat="43.60093" lon="5.4876">
<ele>424.6</ele>
<time>2012-03-24T13:45:36.000Z</time>
</trkpt>
<trkpt lat="43.60098" lon="5.48764">
<ele>424.6</ele>
<time>2012-03-24T13:45:37.000Z</time>
</trkpt>
<trkpt lat="43.60103" lon="5.48769">
<ele>424.6</ele>
<time>2012-03-24T13:45:38.000Z</time>
</trkpt>
<trkpt lat="43.60106" lon="5.48776">
<ele>424.6</ele>
<time>2012-03-24T13:45:39.000Z</time>
</trkpt>
<trkpt lat="43.6011" lon="5.48783">
<ele>424.5</ele>
<time>2012-03-24T13:45:40.000Z</time>
</trkpt>
<trkpt lat="43.60112" lon="5.48791">
<ele>424.8</ele>
<time>2012-03-24T13:45:41.000Z</time>
</trkpt>
<trkpt lat="43.60114" lon="5.48798">
<ele>424.8</ele>
<time>2012-03-24T13:45:42.000Z</time>
</trkpt>
<trkpt lat="43.60116" lon="5.48806">
<ele>424.3</ele>
<time>2012-03-24T13:45:43.000Z</time>
</trkpt>
<trkpt lat="43.60118" lon="5.48813">
<ele>424.3</ele>
<time>2012-03-24T13:45:44.000Z</time>
</trkpt>
<trkpt lat="43.6012" lon="5.4882">
<ele>424.2</ele>
<time>2012-03-24T13:45:45.000Z</time>
</trkpt>
<trkpt lat="43.60121" lon="5.48829">
<ele>424.4</ele>
<time>2012-03-24T13:45:46.000Z</time>
</trkpt>
<trkpt lat="43.60121" lon="5.48838">
<ele>424.5</ele>
<time>2012-03-24T13:45:47.000Z</time>
</trkpt>
<trkpt lat="43.60122" lon="5.48846">
<ele>424.8</ele>
<time>2012-03-24T13:45:48.000Z</time>
</trkpt>
<trkpt lat="43.60122" lon="5.48856">
<ele>424.5</ele>
<time>2012-03-24T13:45:49.000Z</time>
</trkpt>
<trkpt lat="43.6012" lon="5.48867">
<ele>423.6</ele>
<time>2012-03-24T13:45:50.000Z</time>
</trkpt>
<trkpt lat="43.6012" lon="5.48876">
<ele>423.6</ele>
<time>2012-03-24T13:45:51.000Z</time>
</trkpt>
<trkpt lat="43.60119" lon="5.48886">
<ele>423.4</ele>
<time>2012-03-24T13:45:52.000Z</time>
</trkpt>
<trkpt lat="43.60118" lon="5.48897">
<ele>423.2</ele>
<time>2012-03-24T13:45:53.000Z</time>
</trkpt>
<trkpt lat="43.60116" lon="5.48907">
<ele>423.3</ele>
<time>2012-03-24T13:45:54.000Z</time>
</trkpt>
<trkpt lat="43.60112" lon="5.48917">
<ele>422.7</ele>
<time>2012-03-24T13:45:55.000Z</time>
</trkpt>
<trkpt lat="43.60108" lon="5.48926">
<ele>422.7</ele>
<time>2012-03-24T13:45:56.000Z</time>
</trkpt>
<trkpt lat="43.60104" lon="5.48933">
<ele>422.9</ele>
<time>2012-03-24T13:45:57.000Z</time>
</trkpt>
<trkpt lat="43.60097" lon="5.4894">
<ele>422.6</ele>
<time>2012-03-24T13:45:58.000Z</time>
</trkpt>
<trkpt lat="43.60092" lon="5.48949">
<ele>422.3</ele>
<time>2012-03-24T13:45:59.000Z</time>
</trkpt>
<trkpt lat="43.60086" lon="5.48957">
<ele>422</ele>
<time>2012-03-24T13:46:00.000Z</time>
</trkpt>
<trkpt lat="43.60081" lon="5.48966">
<ele>421.7</ele>
<time>2012-03-24T13:46:01.000Z</time>
</trkpt>
<trkpt lat="43.60077" lon="5.48976">
<ele>421.7</ele>
<time>2012-03-24T13:46:02.000Z</time>
</trkpt>
<trkpt lat="43.60074" lon="5.48987">
<ele>421.3</ele>
<time>2012-03-24T13:46:03.000Z</time>
</trkpt>
<trkpt lat="43.60072" lon="5.48999">
<ele>421.1</ele>
<time>2012-03-24T13:46:04.000Z</time>
</trkpt>
<trkpt lat="43.60067" lon="5.49012">
<ele>421.3</ele>
<time>2012-03-24T13:46:05.000Z</time>
</trkpt>
<trkpt lat="43.60064" lon="5.49023">
<ele>420.9</ele>
<time>2012-03-24T13:46:06.000Z</time>
</trkpt>
<trkpt lat="43.60062" lon="5.49038">
<ele>420.1</ele>
<time>2012-03-24T13:46:07.000Z</time>
</trkpt>
<trkpt lat="43.60062" lon="5.4905">
<ele>419.4</ele>
<time>2012-03-24T13:46:08.000Z</time>
</trkpt>
<trkpt lat="43.60062" lon="5.49064">
<ele>418.1</ele>
<time>2012-03-24T13:46:09.000Z</time>
</trkpt>
<trkpt lat="43.60061" lon="5.49078">
<ele>417.6</ele>
<time>2012-03-24T13:46:10.000Z</time>
</trkpt>
<trkpt lat="43.60058" lon="5.49092">
<ele>417</ele>
<time>2012-03-24T13:46:11.000Z</time>
</trkpt>
<trkpt lat="43.60056" lon="5.49105">
<ele>417.3</ele>
<time>2012-03-24T13:46:12.000Z</time>
</trkpt>
<trkpt lat="43.60054" lon="5.49119">
<ele>416.6</ele>
<time>2012-03-24T13:46:13.000Z</time>
</trkpt>
<trkpt lat="43.60053" lon="5.49133">
<ele>416</ele>
<time>2012-03-24T13:46:14.000Z</time>
</trkpt>
<trkpt lat="43.60052" lon="5.49147">
<ele>415.4</ele>
<time>2012-03-24T13:46:15.000Z</time>
</trkpt>
<trkpt lat="43.60053" lon="5.49161">
<ele>415</ele>
<time>2012-03-24T13:46:16.000Z</time>
</trkpt>
<trkpt lat="43.60057" lon="5.49174">
<ele>414.3</ele>
<time>2012-03-24T13:46:17.000Z</time>
</trkpt>
<trkpt lat="43.60057" lon="5.49188">
<ele>414</ele>
<time>2012-03-24T13:46:18.000Z</time>
</trkpt>
<trkpt lat="43.6006" lon="5.49202">
<ele>413.8</ele>
<time>2012-03-24T13:46:19.000Z</time>
</trkpt>
<trkpt lat="43.60059" lon="5.49218">
<ele>414</ele>
<time>2012-03-24T13:46:20.000Z</time>
</trkpt>
<trkpt lat="43.60058" lon="5.49231">
<ele>413.9</ele>
<time>2012-03-24T13:46:21.000Z</time>
</trkpt>
<trkpt lat="43.60058" lon="5.49241">
<ele>414.3</ele>
<time>2012-03-24T13:46:22.000Z</time>
</trkpt>
<trkpt lat="43.60066" lon="5.49253">
<ele>414.3</ele>
<time>2012-03-24T13:46:23.000Z</time>
</trkpt>
<trkpt lat="43.60075" lon="5.49262">
<ele>413.8</ele>
<time>2012-03-24T13:46:24.000Z</time>
</trkpt>
<trkpt lat="43.60085" lon="5.49274">
<ele>413.4</ele>
<time>2012-03-24T13:46:25.000Z</time>
</trkpt>
<trkpt lat="43.60097" lon="5.49288">
<ele>410.5</ele>
<time>2012-03-24T13:46:26.000Z</time>
</trkpt>
<trkpt lat="43.60105" lon="5.493">
<ele>408.6</ele>
<time>2012-03-24T13:46:27.000Z</time>
</trkpt>
<trkpt lat="43.60114" lon="5.49313">
<ele>407.6</ele>
<time>2012-03-24T13:46:28.000Z</time>
</trkpt>
<trkpt lat="43.60123" lon="5.49325">
<ele>406.2</ele>
<time>2012-03-24T13:46:29.000Z</time>
</trkpt>
<trkpt lat="43.60133" lon="5.49338">
<ele>405.3</ele>
<time>2012-03-24T13:46:30.000Z</time>
</trkpt>
<trkpt lat="43.60141" lon="5.49351">
<ele>404.2</ele>
<time>2012-03-24T13:46:31.000Z</time>
</trkpt>
<trkpt lat="43.6015" lon="5.49364">
<ele>404</ele>
<time>2012-03-24T13:46:32.000Z</time>
</trkpt>
<trkpt lat="43.60159" lon="5.49378">
<ele>403.4</ele>
<time>2012-03-24T13:46:33.000Z</time>
</trkpt>
<trkpt lat="43.60168" lon="5.4939">
<ele>403</ele>
<time>2012-03-24T13:46:34.000Z</time>
</trkpt>
<trkpt lat="43.60178" lon="5.49403">
<ele>401.8</ele>
<time>2012-03-24T13:46:35.000Z</time>
</trkpt>
<trkpt lat="43.60186" lon="5.49416">
<ele>401.1</ele>
<time>2012-03-24T13:46:36.000Z</time>
</trkpt>
<trkpt lat="43.60194" lon="5.49428">
<ele>402</ele>
<time>2012-03-24T13:46:37.000Z</time>
</trkpt>
<trkpt lat="43.60202" lon="5.4944">
<ele>401.2</ele>
<time>2012-03-24T13:46:38.000Z</time>
</trkpt>
<trkpt lat="43.60209" lon="5.49453">
<ele>400.3</ele>
<time>2012-03-24T13:46:39.000Z</time>
</trkpt>
<trkpt lat="43.60218" lon="5.49464">
<ele>400.4</ele>
<time>2012-03-24T13:46:40.000Z</time>
</trkpt>
<trkpt lat="43.60227" lon="5.49476">
<ele>400.2</ele>
<time>2012-03-24T13:46:41.000Z</time>
</trkpt>
<trkpt lat="43.60236" lon="5.49487">
<ele>400.1</ele>
<time>2012-03-24T13:46:42.000Z</time>
</trkpt>
<trkpt lat="43.60244" lon="5.49498">
<ele>400.2</ele>
<time>2012-03-24T13:46:43.000Z</time>
</trkpt>
<trkpt lat="43.60253" lon="5.49509">
<ele>399.4</ele>
<time>2012-03-24T13:46:44.000Z</time>
</trkpt>
<trkpt lat="43.60262" lon="5.49518">
<ele>399</ele>
<time>2012-03-24T13:46:45.000Z</time>
</trkpt>
<trkpt lat="43.6027" lon="5.49526">
<ele>398.7</ele>
<time>2012-03-24T13:46:46.000Z</time>
</trkpt>
<trkpt lat="43.60279" lon="5.49533">
<ele>397.7</ele>
<time>2012-03-24T13:46:47.000Z</time>
</trkpt>
<trkpt lat="43.60288" lon="5.49541">
<ele>397</ele>
<time>2012-03-24T13:46:48.000Z</time>
</trkpt>
<trkpt lat="43.60296" lon="5.49548">
<ele>396.6</ele>
<time>2012-03-24T13:46:49.000Z</time>
</trkpt>
<trkpt lat="43.60304" lon="5.49556">
<ele>396.3</ele>
<time>2012-03-24T13:46:50.000Z</time>
</trkpt>
<trkpt lat="43.60312" lon="5.49565">
<ele>396.1</ele>
<time>2012-03-24T13:46:51.000Z</time>
</trkpt>
<trkpt lat="43.60319" lon="5.49574">
<ele>396.2</ele>
<time>2012-03-24T13:46:52.000Z</time>
</trkpt>
<trkpt lat="43.60326" lon="5.49585">
<ele>395.9</ele>
<time>2012-03-24T13:46:53.000Z</time>
</trkpt>
<trkpt lat="43.60334" lon="5.49595">
<ele>395.9</ele>
<time>2012-03-24T13:46:54.000Z</time>
</trkpt>
<trkpt lat="43.6034" lon="5.49604">
<ele>395.9</ele>
<time>2012-03-24T13:46:55.000Z</time>
</trkpt>
<trkpt lat="43.60348" lon="5.49612">
<ele>395.8</ele>
<time>2012-03-24T13:46:56.000Z</time>
</trkpt>
<trkpt lat="43.60356" lon="5.49619">
<ele>395.6</ele>
<time>2012-03-24T13:46:57.000Z</time>
</trkpt>
<trkpt lat="43.60365" lon="5.49623">
<ele>395.7</ele>
<time>2012-03-24T13:46:58.000Z</time>
</trkpt>
<trkpt lat="43.60375" lon="5.49625">
<ele>395.8</ele>
<time>2012-03-24T13:46:59.000Z</time>
</trkpt>
<trkpt lat="43.60386" lon="5.49624">
<ele>395.8</ele>
<time>2012-03-24T13:47:00.000Z</time>
</trkpt>
<trkpt lat="43.60396" lon="5.49624">
<ele>395.6</ele>
<time>2012-03-24T13:47:01.000Z</time>
</trkpt>
<trkpt lat="43.60406" lon="5.49628">
<ele>395.1</ele>
<time>2012-03-24T13:47:02.000Z</time>
</trkpt>
<trkpt lat="43.60416" lon="5.49629">
<ele>395.1</ele>
<time>2012-03-24T13:47:03.000Z</time>
</trkpt>
<trkpt lat="43.60425" lon="5.49626">
<ele>395.6</ele>
<time>2012-03-24T13:47:04.000Z</time>
</trkpt>
<trkpt lat="43.6043" lon="5.49616">
<ele>395.3</ele>
<time>2012-03-24T13:47:05.000Z</time>
</trkpt>
<trkpt lat="43.60438" lon="5.49594">
<ele>392.9</ele>
<time>2012-03-24T13:47:06.000Z</time>
</trkpt>
<trkpt lat="43.60445" lon="5.49583">
<ele>392.3</ele>
<time>2012-03-24T13:47:07.000Z</time>
</trkpt>
<trkpt lat="43.60453" lon="5.49575">
<ele>391.9</ele>
<time>2012-03-24T13:47:08.000Z</time>
</trkpt>
<trkpt lat="43.6046" lon="5.49565">
<ele>391.5</ele>
<time>2012-03-24T13:47:09.000Z</time>
</trkpt>
<trkpt lat="43.60468" lon="5.49555">
<ele>390.6</ele>
<time>2012-03-24T13:47:10.000Z</time>
</trkpt>
<trkpt lat="43.60474" lon="5.49545">
<ele>390.5</ele>
<time>2012-03-24T13:47:11.000Z</time>
</trkpt>
<trkpt lat="43.60482" lon="5.49536">
<ele>390</ele>
<time>2012-03-24T13:47:12.000Z</time>
</trkpt>
<trkpt lat="43.60488" lon="5.49527">
<ele>389.2</ele>
<time>2012-03-24T13:47:13.000Z</time>
</trkpt>
<trkpt lat="43.60494" lon="5.49518">
<ele>388.8</ele>
<time>2012-03-24T13:47:14.000Z</time>
</trkpt>
<trkpt lat="43.60501" lon="5.4951">
<ele>388.3</ele>
<time>2012-03-24T13:47:15.000Z</time>
</trkpt>
<trkpt lat="43.60507" lon="5.49502">
<ele>388.4</ele>
<time>2012-03-24T13:47:16.000Z</time>
</trkpt>
<trkpt lat="43.60513" lon="5.49494">
<ele>387.9</ele>
<time>2012-03-24T13:47:17.000Z</time>
</trkpt>
<trkpt lat="43.60524" lon="5.49478">
<ele>387.9</ele>
<time>2012-03-24T13:47:19.000Z</time>
</trkpt>
<trkpt lat="43.6053" lon="5.49471">
<ele>387.8</ele>
<time>2012-03-24T13:47:20.000Z</time>
</trkpt>
<trkpt lat="43.60536" lon="5.49462">
<ele>387.5</ele>
<time>2012-03-24T13:47:21.000Z</time>
</trkpt>
<trkpt lat="43.60541" lon="5.49454">
<ele>387.4</ele>
<time>2012-03-24T13:47:22.000Z</time>
</trkpt>
<trkpt lat="43.60548" lon="5.49446">
<ele>386.7</ele>
<time>2012-03-24T13:47:23.000Z</time>
</trkpt>
<trkpt lat="43.60555" lon="5.49439">
<ele>386.2</ele>
<time>2012-03-24T13:47:24.000Z</time>
</trkpt>
<trkpt lat="43.60562" lon="5.49431">
<ele>385.6</ele>
<time>2012-03-24T13:47:25.000Z</time>
</trkpt>
<trkpt lat="43.60569" lon="5.49424">
<ele>384.8</ele>
<time>2012-03-24T13:47:26.000Z</time>
</trkpt>
<trkpt lat="43.60576" lon="5.49416">
<ele>384.5</ele>
<time>2012-03-24T13:47:27.000Z</time>
</trkpt>
<trkpt lat="43.60584" lon="5.49409">
<ele>384.3</ele>
<time>2012-03-24T13:47:28.000Z</time>
</trkpt>
<trkpt lat="43.60592" lon="5.49402">
<ele>383.9</ele>
<time>2012-03-24T13:47:29.000Z</time>
</trkpt>
<trkpt lat="43.60602" lon="5.49397">
<ele>383.7</ele>
<time>2012-03-24T13:47:30.000Z</time>
</trkpt>
<trkpt lat="43.60612" lon="5.49393">
<ele>383.2</ele>
<time>2012-03-24T13:47:31.000Z</time>
</trkpt>
<trkpt lat="43.60621" lon="5.49391">
<ele>383.4</ele>
<time>2012-03-24T13:47:32.000Z</time>
</trkpt>
<trkpt lat="43.6063" lon="5.4939">
<ele>383.3</ele>
<time>2012-03-24T13:47:33.000Z</time>
</trkpt>
<trkpt lat="43.60639" lon="5.49391">
<ele>383.3</ele>
<time>2012-03-24T13:47:34.000Z</time>
</trkpt>
<trkpt lat="43.60647" lon="5.49394">
<ele>383.6</ele>
<time>2012-03-24T13:47:35.000Z</time>
</trkpt>
<trkpt lat="43.60654" lon="5.49398">
<ele>383.4</ele>
<time>2012-03-24T13:47:36.000Z</time>
</trkpt>
<trkpt lat="43.6066" lon="5.49402">
<ele>383.3</ele>
<time>2012-03-24T13:47:37.000Z</time>
</trkpt>
<trkpt lat="43.60668" lon="5.49406">
<ele>383</ele>
<time>2012-03-24T13:47:38.000Z</time>
</trkpt>
<trkpt lat="43.60676" lon="5.49411">
<ele>383.1</ele>
<time>2012-03-24T13:47:39.000Z</time>
</trkpt>
<trkpt lat="43.60683" lon="5.49417">
<ele>383.1</ele>
<time>2012-03-24T13:47:40.000Z</time>
</trkpt>
<trkpt lat="43.6069" lon="5.49424">
<ele>382.1</ele>
<time>2012-03-24T13:47:41.000Z</time>
</trkpt>
<trkpt lat="43.60696" lon="5.49432">
<ele>381.1</ele>
<time>2012-03-24T13:47:42.000Z</time>
</trkpt>
<trkpt lat="43.60703" lon="5.49439">
<ele>380.5</ele>
<time>2012-03-24T13:47:43.000Z</time>
</trkpt>
<trkpt lat="43.60708" lon="5.49446">
<ele>379.9</ele>
<time>2012-03-24T13:47:44.000Z</time>
</trkpt>
<trkpt lat="43.60714" lon="5.49452">
<ele>379</ele>
<time>2012-03-24T13:47:45.000Z</time>
</trkpt>
<trkpt lat="43.60718" lon="5.49456">
<ele>378.5</ele>
<time>2012-03-24T13:47:46.000Z</time>
</trkpt>
<trkpt lat="43.60722" lon="5.49462">
<ele>377.7</ele>
<time>2012-03-24T13:47:48.000Z</time>
</trkpt>
<trkpt lat="43.60725" lon="5.49468">
<ele>377.5</ele>
<time>2012-03-24T13:48:05.000Z</time>
</trkpt>
<trkpt lat="43.60729" lon="5.49472">
<ele>377.5</ele>
<time>2012-03-24T13:48:08.000Z</time>
</trkpt>
<trkpt lat="43.60735" lon="5.49478">
<ele>376.9</ele>
<time>2012-03-24T13:48:10.000Z</time>
</trkpt>
<trkpt lat="43.60742" lon="5.49484">
<ele>376.4</ele>
<time>2012-03-24T13:48:12.000Z</time>
</trkpt>
<trkpt lat="43.60751" lon="5.49488">
<ele>376.4</ele>
<time>2012-03-24T13:48:14.000Z</time>
</trkpt>
<trkpt lat="43.60755" lon="5.4949">
<ele>376.4</ele>
<time>2012-03-24T13:48:15.000Z</time>
</trkpt>
<trkpt lat="43.60764" lon="5.49492">
<ele>376.3</ele>
<time>2012-03-24T13:48:17.000Z</time>
</trkpt>
<trkpt lat="43.60769" lon="5.49496">
<ele>375.6</ele>
<time>2012-03-24T13:48:18.000Z</time>
</trkpt>
<trkpt lat="43.60773" lon="5.49499">
<ele>375.3</ele>
<time>2012-03-24T13:48:19.000Z</time>
</trkpt>
<trkpt lat="43.60778" lon="5.49503">
<ele>375.9</ele>
<time>2012-03-24T13:48:20.000Z</time>
</trkpt>
<trkpt lat="43.60782" lon="5.49506">
<ele>376.3</ele>
<time>2012-03-24T13:48:21.000Z</time>
</trkpt>
<trkpt lat="43.60788" lon="5.4951">
<ele>376.3</ele>
<time>2012-03-24T13:48:22.000Z</time>
</trkpt>
<trkpt lat="43.60792" lon="5.49514">
<ele>376.3</ele>
<time>2012-03-24T13:48:23.000Z</time>
</trkpt>
<trkpt lat="43.60798" lon="5.49518">
<ele>376.7</ele>
<time>2012-03-24T13:48:24.000Z</time>
</trkpt>
<trkpt lat="43.60802" lon="5.49524">
<ele>376.4</ele>
<time>2012-03-24T13:48:25.000Z</time>
</trkpt>
<trkpt lat="43.60808" lon="5.49529">
<ele>376.4</ele>
<time>2012-03-24T13:48:26.000Z</time>
</trkpt>
<trkpt lat="43.60813" lon="5.49535">
<ele>376.5</ele>
<time>2012-03-24T13:48:27.000Z</time>
</trkpt>
<trkpt lat="43.60818" lon="5.49542">
<ele>376.5</ele>
<time>2012-03-24T13:48:28.000Z</time>
</trkpt>
<trkpt lat="43.60823" lon="5.49548">
<ele>376.2</ele>
<time>2012-03-24T13:48:29.000Z</time>
</trkpt>
<trkpt lat="43.60828" lon="5.49554">
<ele>376.6</ele>
<time>2012-03-24T13:48:30.000Z</time>
</trkpt>
<trkpt lat="43.60834" lon="5.4956">
<ele>376.1</ele>
<time>2012-03-24T13:48:31.000Z</time>
</trkpt>
<trkpt lat="43.60839" lon="5.49567">
<ele>375.7</ele>
<time>2012-03-24T13:48:32.000Z</time>
</trkpt>
<trkpt lat="43.60844" lon="5.49572">
<ele>375.9</ele>
<time>2012-03-24T13:48:33.000Z</time>
</trkpt>
<trkpt lat="43.60849" lon="5.49578">
<ele>376.2</ele>
<time>2012-03-24T13:48:34.000Z</time>
</trkpt>
<trkpt lat="43.60853" lon="5.49581">
<ele>376.5</ele>
<time>2012-03-24T13:48:35.000Z</time>
</trkpt>
<trkpt lat="43.6086" lon="5.49582">
<ele>375.7</ele>
<time>2012-03-24T13:48:36.000Z</time>
</trkpt>
<trkpt lat="43.60865" lon="5.49582">
<ele>374.6</ele>
<time>2012-03-24T13:48:37.000Z</time>
</trkpt>
<trkpt lat="43.60872" lon="5.49584">
<ele>372.6</ele>
<time>2012-03-24T13:48:38.000Z</time>
</trkpt>
<trkpt lat="43.60879" lon="5.49582">
<ele>371.7</ele>
<time>2012-03-24T13:48:39.000Z</time>
</trkpt>
<trkpt lat="43.60886" lon="5.4958">
<ele>370.2</ele>
<time>2012-03-24T13:48:40.000Z</time>
</trkpt>
<trkpt lat="43.60894" lon="5.4958">
<ele>369.3</ele>
<time>2012-03-24T13:48:41.000Z</time>
</trkpt>
<trkpt lat="43.609" lon="5.49579">
<ele>369.2</ele>
<time>2012-03-24T13:48:42.000Z</time>
</trkpt>
<trkpt lat="43.60908" lon="5.49578">
<ele>368.9</ele>
<time>2012-03-24T13:48:43.000Z</time>
</trkpt>
<trkpt lat="43.60915" lon="5.49578">
<ele>368.6</ele>
<time>2012-03-24T13:48:44.000Z</time>
</trkpt>
<trkpt lat="43.60923" lon="5.49578">
<ele>368.2</ele>
<time>2012-03-24T13:48:45.000Z</time>
</trkpt>
<trkpt lat="43.60934" lon="5.49576">
<ele>367.3</ele>
<time>2012-03-24T13:48:46.000Z</time>
</trkpt>
<trkpt lat="43.60943" lon="5.49574">
<ele>367</ele>
<time>2012-03-24T13:48:47.000Z</time>
</trkpt>
<trkpt lat="43.60951" lon="5.49573">
<ele>366.7</ele>
<time>2012-03-24T13:48:48.000Z</time>
</trkpt>
<trkpt lat="43.60962" lon="5.49571">
<ele>366.8</ele>
<time>2012-03-24T13:48:49.000Z</time>
</trkpt>
<trkpt lat="43.60971" lon="5.4957">
<ele>367.3</ele>
<time>2012-03-24T13:48:50.000Z</time>
</trkpt>
<trkpt lat="43.6098" lon="5.49568">
<ele>367.1</ele>
<time>2012-03-24T13:48:51.000Z</time>
</trkpt>
<trkpt lat="43.60991" lon="5.49566">
<ele>366.9</ele>
<time>2012-03-24T13:48:52.000Z</time>
</trkpt>
<trkpt lat="43.61" lon="5.49565">
<ele>366.4</ele>
<time>2012-03-24T13:48:53.000Z</time>
</trkpt>
<trkpt lat="43.61011" lon="5.49562">
<ele>366.5</ele>
<time>2012-03-24T13:48:54.000Z</time>
</trkpt>
<trkpt lat="43.6102" lon="5.49559">
<ele>366.2</ele>
<time>2012-03-24T13:48:55.000Z</time>
</trkpt>
<trkpt lat="43.6103" lon="5.49558">
<ele>365.9</ele>
<time>2012-03-24T13:48:56.000Z</time>
</trkpt>
<trkpt lat="43.6104" lon="5.49556">
<ele>365.3</ele>
<time>2012-03-24T13:48:57.000Z</time>
</trkpt>
<trkpt lat="43.61049" lon="5.49556">
<ele>365.3</ele>
<time>2012-03-24T13:48:58.000Z</time>
</trkpt>
<trkpt lat="43.61061" lon="5.49556">
<ele>363.1</ele>
<time>2012-03-24T13:48:59.000Z</time>
</trkpt>
<trkpt lat="43.61071" lon="5.49554">
<ele>363</ele>
<time>2012-03-24T13:49:00.000Z</time>
</trkpt>
<trkpt lat="43.61082" lon="5.49552">
<ele>363.1</ele>
<time>2012-03-24T13:49:01.000Z</time>
</trkpt>
<trkpt lat="43.61093" lon="5.49551">
<ele>364</ele>
<time>2012-03-24T13:49:02.000Z</time>
</trkpt>
<trkpt lat="43.61104" lon="5.4955">
<ele>363</ele>
<time>2012-03-24T13:49:03.000Z</time>
</trkpt>
<trkpt lat="43.61114" lon="5.4955">
<ele>362.4</ele>
<time>2012-03-24T13:49:04.000Z</time>
</trkpt>
<trkpt lat="43.61124" lon="5.49548">
<ele>362</ele>
<time>2012-03-24T13:49:05.000Z</time>
</trkpt>
<trkpt lat="43.61135" lon="5.49547">
<ele>361.7</ele>
<time>2012-03-24T13:49:06.000Z</time>
</trkpt>
<trkpt lat="43.61146" lon="5.49546">
<ele>360.8</ele>
<time>2012-03-24T13:49:07.000Z</time>
</trkpt>
<trkpt lat="43.61159" lon="5.49544">
<ele>358.8</ele>
<time>2012-03-24T13:49:08.000Z</time>
</trkpt>
<trkpt lat="43.6117" lon="5.49542">
<ele>357.5</ele>
<time>2012-03-24T13:49:09.000Z</time>
</trkpt>
<trkpt lat="43.61181" lon="5.49541">
<ele>357.1</ele>
<time>2012-03-24T13:49:10.000Z</time>
</trkpt>
<trkpt lat="43.61193" lon="5.4954">
<ele>356.8</ele>
<time>2012-03-24T13:49:11.000Z</time>
</trkpt>
<trkpt lat="43.61203" lon="5.49539">
<ele>357</ele>
<time>2012-03-24T13:49:12.000Z</time>
</trkpt>
<trkpt lat="43.61215" lon="5.49536">
<ele>356.9</ele>
<time>2012-03-24T13:49:13.000Z</time>
</trkpt>
<trkpt lat="43.61226" lon="5.49534">
<ele>356.7</ele>
<time>2012-03-24T13:49:14.000Z</time>
</trkpt>
<trkpt lat="43.61237" lon="5.49532">
<ele>356.2</ele>
<time>2012-03-24T13:49:15.000Z</time>
</trkpt>
<trkpt lat="43.61248" lon="5.4953">
<ele>355.9</ele>
<time>2012-03-24T13:49:16.000Z</time>
</trkpt>
<trkpt lat="43.61259" lon="5.49528">
<ele>356.2</ele>
<time>2012-03-24T13:49:17.000Z</time>
</trkpt>
<trkpt lat="43.6127" lon="5.49527">
<ele>355.9</ele>
<time>2012-03-24T13:49:18.000Z</time>
</trkpt>
<trkpt lat="43.61281" lon="5.49526">
<ele>355.8</ele>
<time>2012-03-24T13:49:19.000Z</time>
</trkpt>
<trkpt lat="43.61292" lon="5.49524">
<ele>355.5</ele>
<time>2012-03-24T13:49:20.000Z</time>
</trkpt>
<trkpt lat="43.61301" lon="5.49524">
<ele>355.4</ele>
<time>2012-03-24T13:49:21.000Z</time>
</trkpt>
<trkpt lat="43.61312" lon="5.49523">
<ele>355.9</ele>
<time>2012-03-24T13:49:22.000Z</time>
</trkpt>
<trkpt lat="43.61323" lon="5.49521">
<ele>355.8</ele>
<time>2012-03-24T13:49:23.000Z</time>
</trkpt>
<trkpt lat="43.61334" lon="5.49519">
<ele>356</ele>
<time>2012-03-24T13:49:24.000Z</time>
</trkpt>
<trkpt lat="43.61344" lon="5.49516">
<ele>356.2</ele>
<time>2012-03-24T13:49:25.000Z</time>
</trkpt>
<trkpt lat="43.61354" lon="5.49515">
<ele>356.3</ele>
<time>2012-03-24T13:49:26.000Z</time>
</trkpt>
<trkpt lat="43.61364" lon="5.49513">
<ele>356.6</ele>
<time>2012-03-24T13:49:27.000Z</time>
</trkpt>
<trkpt lat="43.61374" lon="5.4951">
<ele>356.1</ele>
<time>2012-03-24T13:49:28.000Z</time>
</trkpt>
<trkpt lat="43.61383" lon="5.49509">
<ele>356.3</ele>
<time>2012-03-24T13:49:29.000Z</time>
</trkpt>
<trkpt lat="43.61394" lon="5.49506">
<ele>355.8</ele>
<time>2012-03-24T13:49:30.000Z</time>
</trkpt>
<trkpt lat="43.61405" lon="5.49504">
<ele>355.3</ele>
<time>2012-03-24T13:49:31.000Z</time>
</trkpt>
<trkpt lat="43.61414" lon="5.495">
<ele>354.9</ele>
<time>2012-03-24T13:49:32.000Z</time>
</trkpt>
<trkpt lat="43.61425" lon="5.49497">
<ele>354.7</ele>
<time>2012-03-24T13:49:33.000Z</time>
</trkpt>
<trkpt lat="43.61435" lon="5.49494">
<ele>354</ele>
<time>2012-03-24T13:49:34.000Z</time>
</trkpt>
<trkpt lat="43.61446" lon="5.49492">
<ele>353.2</ele>
<time>2012-03-24T13:49:35.000Z</time>
</trkpt>
<trkpt lat="43.61456" lon="5.49488">
<ele>351.9</ele>
<time>2012-03-24T13:49:36.000Z</time>
</trkpt>
<trkpt lat="43.61466" lon="5.49483">
<ele>351</ele>
<time>2012-03-24T13:49:37.000Z</time>
</trkpt>
<trkpt lat="43.61478" lon="5.4948">
<ele>350.2</ele>
<time>2012-03-24T13:49:38.000Z</time>
</trkpt>
<trkpt lat="43.61491" lon="5.49475">
<ele>348.8</ele>
<time>2012-03-24T13:49:39.000Z</time>
</trkpt>
<trkpt lat="43.61502" lon="5.49471">
<ele>348.1</ele>
<time>2012-03-24T13:49:40.000Z</time>
</trkpt>
<trkpt lat="43.61513" lon="5.49468">
<ele>347.8</ele>
<time>2012-03-24T13:49:41.000Z</time>
</trkpt>
<trkpt lat="43.61523" lon="5.49464">
<ele>347.5</ele>
<time>2012-03-24T13:49:42.000Z</time>
</trkpt>
<trkpt lat="43.61534" lon="5.49461">
<ele>347.3</ele>
<time>2012-03-24T13:49:43.000Z</time>
</trkpt>
<trkpt lat="43.61544" lon="5.49456">
<ele>347.4</ele>
<time>2012-03-24T13:49:44.000Z</time>
</trkpt>
<trkpt lat="43.61555" lon="5.49452">
<ele>346.4</ele>
<time>2012-03-24T13:49:45.000Z</time>
</trkpt>
<trkpt lat="43.61563" lon="5.49447">
<ele>345.2</ele>
<time>2012-03-24T13:49:46.000Z</time>
</trkpt>
<trkpt lat="43.61571" lon="5.49443">
<ele>344.2</ele>
<time>2012-03-24T13:49:47.000Z</time>
</trkpt>
<trkpt lat="43.61582" lon="5.4944">
<ele>343.5</ele>
<time>2012-03-24T13:49:48.000Z</time>
</trkpt>
<trkpt lat="43.61592" lon="5.49437">
<ele>342.9</ele>
<time>2012-03-24T13:49:49.000Z</time>
</trkpt>
<trkpt lat="43.61601" lon="5.49434">
<ele>342.2</ele>
<time>2012-03-24T13:49:50.000Z</time>
</trkpt>
<trkpt lat="43.61611" lon="5.4943">
<ele>341.7</ele>
<time>2012-03-24T13:49:51.000Z</time>
</trkpt>
<trkpt lat="43.61622" lon="5.49426">
<ele>341.3</ele>
<time>2012-03-24T13:49:52.000Z</time>
</trkpt>
<trkpt lat="43.61632" lon="5.49423">
<ele>340.3</ele>
<time>2012-03-24T13:49:53.000Z</time>
</trkpt>
<trkpt lat="43.61643" lon="5.4942">
<ele>339.9</ele>
<time>2012-03-24T13:49:54.000Z</time>
</trkpt>
<trkpt lat="43.61653" lon="5.49415">
<ele>339.9</ele>
<time>2012-03-24T13:49:55.000Z</time>
</trkpt>
<trkpt lat="43.61663" lon="5.49411">
<ele>339.2</ele>
<time>2012-03-24T13:49:56.000Z</time>
</trkpt>
<trkpt lat="43.61673" lon="5.49408">
<ele>338.8</ele>
<time>2012-03-24T13:49:57.000Z</time>
</trkpt>
<trkpt lat="43.61682" lon="5.49406">
<ele>338.3</ele>
<time>2012-03-24T13:49:58.000Z</time>
</trkpt>
<trkpt lat="43.61694" lon="5.49401">
<ele>338.4</ele>
<time>2012-03-24T13:49:59.000Z</time>
</trkpt>
<trkpt lat="43.61704" lon="5.49397">
<ele>338.1</ele>
<time>2012-03-24T13:50:00.000Z</time>
</trkpt>
<trkpt lat="43.61715" lon="5.49393">
<ele>337.9</ele>
<time>2012-03-24T13:50:01.000Z</time>
</trkpt>
<trkpt lat="43.61726" lon="5.49388">
<ele>336.8</ele>
<time>2012-03-24T13:50:02.000Z</time>
</trkpt>
<trkpt lat="43.61736" lon="5.49385">
<ele>336.1</ele>
<time>2012-03-24T13:50:03.000Z</time>
</trkpt>
<trkpt lat="43.61747" lon="5.4938">
<ele>335.9</ele>
<time>2012-03-24T13:50:04.000Z</time>
</trkpt>
<trkpt lat="43.61757" lon="5.49375">
<ele>335.6</ele>
<time>2012-03-24T13:50:05.000Z</time>
</trkpt>
<trkpt lat="43.61769" lon="5.49371">
<ele>335.1</ele>
<time>2012-03-24T13:50:06.000Z</time>
</trkpt>
<trkpt lat="43.61779" lon="5.49366">
<ele>335.3</ele>
<time>2012-03-24T13:50:07.000Z</time>
</trkpt>
<trkpt lat="43.61788" lon="5.49363">
<ele>335.1</ele>
<time>2012-03-24T13:50:08.000Z</time>
</trkpt>
<trkpt lat="43.61798" lon="5.49357">
<ele>335.2</ele>
<time>2012-03-24T13:50:09.000Z</time>
</trkpt>
<trkpt lat="43.61809" lon="5.49352">
<ele>335.1</ele>
<time>2012-03-24T13:50:10.000Z</time>
</trkpt>
<trkpt lat="43.6182" lon="5.49348">
<ele>335</ele>
<time>2012-03-24T13:50:11.000Z</time>
</trkpt>
<trkpt lat="43.61831" lon="5.49344">
<ele>335</ele>
<time>2012-03-24T13:50:12.000Z</time>
</trkpt>
<trkpt lat="43.6184" lon="5.49338">
<ele>334.9</ele>
<time>2012-03-24T13:50:13.000Z</time>
</trkpt>
<trkpt lat="43.61851" lon="5.49332">
<ele>334.6</ele>
<time>2012-03-24T13:50:14.000Z</time>
</trkpt>
<trkpt lat="43.61862" lon="5.49326">
<ele>334.1</ele>
<time>2012-03-24T13:50:15.000Z</time>
</trkpt>
<trkpt lat="43.61872" lon="5.4932">
<ele>332.6</ele>
<time>2012-03-24T13:50:16.000Z</time>
</trkpt>
<trkpt lat="43.61882" lon="5.49314">
<ele>332.6</ele>
<time>2012-03-24T13:50:17.000Z</time>
</trkpt>
<trkpt lat="43.61892" lon="5.49307">
<ele>332.6</ele>
<time>2012-03-24T13:50:18.000Z</time>
</trkpt>
<trkpt lat="43.61901" lon="5.49301">
<ele>332.3</ele>
<time>2012-03-24T13:50:19.000Z</time>
</trkpt>
<trkpt lat="43.6191" lon="5.49294">
<ele>330.7</ele>
<time>2012-03-24T13:50:20.000Z</time>
</trkpt>
<trkpt lat="43.61919" lon="5.49288">
<ele>330</ele>
<time>2012-03-24T13:50:21.000Z</time>
</trkpt>
<trkpt lat="43.61929" lon="5.49281">
<ele>329.4</ele>
<time>2012-03-24T13:50:22.000Z</time>
</trkpt>
<trkpt lat="43.61938" lon="5.49275">
<ele>328.5</ele>
<time>2012-03-24T13:50:23.000Z</time>
</trkpt>
<trkpt lat="43.61947" lon="5.49268">
<ele>328.3</ele>
<time>2012-03-24T13:50:24.000Z</time>
</trkpt>
<trkpt lat="43.61956" lon="5.49261">
<ele>327.6</ele>
<time>2012-03-24T13:50:25.000Z</time>
</trkpt>
<trkpt lat="43.61966" lon="5.49255">
<ele>327.5</ele>
<time>2012-03-24T13:50:26.000Z</time>
</trkpt>
<trkpt lat="43.61977" lon="5.49248">
<ele>327.4</ele>
<time>2012-03-24T13:50:27.000Z</time>
</trkpt>
<trkpt lat="43.61987" lon="5.4924">
<ele>327.3</ele>
<time>2012-03-24T13:50:28.000Z</time>
</trkpt>
<trkpt lat="43.62" lon="5.4923">
<ele>328.2</ele>
<time>2012-03-24T13:50:29.000Z</time>
</trkpt>
<trkpt lat="43.62013" lon="5.49219">
<ele>330.6</ele>
<time>2012-03-24T13:50:30.000Z</time>
</trkpt>
<trkpt lat="43.62015" lon="5.49213">
<ele>331.1</ele>
<time>2012-03-24T13:50:31.000Z</time>
</trkpt>
<trkpt lat="43.62021" lon="5.49196">
<ele>331.7</ele>
<time>2012-03-24T13:50:32.000Z</time>
</trkpt>
<trkpt lat="43.62029" lon="5.49196">
<ele>332</ele>
<time>2012-03-24T13:50:33.000Z</time>
</trkpt>
<trkpt lat="43.62039" lon="5.49189">
<ele>332.3</ele>
<time>2012-03-24T13:50:34.000Z</time>
</trkpt>
<trkpt lat="43.62045" lon="5.49182">
<ele>332.1</ele>
<time>2012-03-24T13:50:35.000Z</time>
</trkpt>
<trkpt lat="43.62053" lon="5.49173">
<ele>332.2</ele>
<time>2012-03-24T13:50:36.000Z</time>
</trkpt>
<trkpt lat="43.62063" lon="5.49167">
<ele>332.1</ele>
<time>2012-03-24T13:50:37.000Z</time>
</trkpt>
<trkpt lat="43.62073" lon="5.49163">
<ele>331.5</ele>
<time>2012-03-24T13:50:38.000Z</time>
</trkpt>
<trkpt lat="43.62081" lon="5.49161">
<ele>331.1</ele>
<time>2012-03-24T13:50:39.000Z</time>
</trkpt>
<trkpt lat="43.62095" lon="5.49156">
<ele>331.1</ele>
<time>2012-03-24T13:50:40.000Z</time>
</trkpt>
<trkpt lat="43.62103" lon="5.49148">
<ele>331.4</ele>
<time>2012-03-24T13:50:41.000Z</time>
</trkpt>
<trkpt lat="43.62115" lon="5.49139">
<ele>331.8</ele>
<time>2012-03-24T13:50:42.000Z</time>
</trkpt>
<trkpt lat="43.62129" lon="5.49128">
<ele>332</ele>
<time>2012-03-24T13:50:43.000Z</time>
</trkpt>
<trkpt lat="43.6215" lon="5.49102">
<ele>331.8</ele>
<time>2012-03-24T13:50:44.000Z</time>
</trkpt>
<trkpt lat="43.62144" lon="5.49118">
<ele>333.8</ele>
<time>2012-03-24T13:50:45.000Z</time>
</trkpt>
<trkpt lat="43.62156" lon="5.49113">
<ele>333</ele>
<time>2012-03-24T13:50:46.000Z</time>
</trkpt>
<trkpt lat="43.62166" lon="5.49113">
<ele>332.9</ele>
<time>2012-03-24T13:50:47.000Z</time>
</trkpt>
<trkpt lat="43.62177" lon="5.49108">
<ele>332.1</ele>
<time>2012-03-24T13:50:48.000Z</time>
</trkpt>
<trkpt lat="43.62183" lon="5.49105">
<ele>331.1</ele>
<time>2012-03-24T13:50:49.000Z</time>
</trkpt>
<trkpt lat="43.62194" lon="5.49099">
<ele>329.2</ele>
<time>2012-03-24T13:50:50.000Z</time>
</trkpt>
<trkpt lat="43.62203" lon="5.49093">
<ele>328.1</ele>
<time>2012-03-24T13:50:51.000Z</time>
</trkpt>
<trkpt lat="43.62211" lon="5.49086">
<ele>327.2</ele>
<time>2012-03-24T13:50:52.000Z</time>
</trkpt>
<trkpt lat="43.62221" lon="5.49079">
<ele>325.6</ele>
<time>2012-03-24T13:50:53.000Z</time>
</trkpt>
<trkpt lat="43.6223" lon="5.49071">
<ele>324</ele>
<time>2012-03-24T13:50:54.000Z</time>
</trkpt>
<trkpt lat="43.62238" lon="5.49065">
<ele>323.4</ele>
<time>2012-03-24T13:50:55.000Z</time>
</trkpt>
<trkpt lat="43.62247" lon="5.49058">
<ele>322.2</ele>
<time>2012-03-24T13:50:56.000Z</time>
</trkpt>
<trkpt lat="43.62256" lon="5.4905">
<ele>321.1</ele>
<time>2012-03-24T13:50:57.000Z</time>
</trkpt>
<trkpt lat="43.62264" lon="5.49044">
<ele>320.3</ele>
<time>2012-03-24T13:50:58.000Z</time>
</trkpt>
<trkpt lat="43.62274" lon="5.49041">
<ele>320.1</ele>
<time>2012-03-24T13:50:59.000Z</time>
</trkpt>
<trkpt lat="43.62284" lon="5.49038">
<ele>320</ele>
<time>2012-03-24T13:51:00.000Z</time>
</trkpt>
<trkpt lat="43.62292" lon="5.49036">
<ele>319.4</ele>
<time>2012-03-24T13:51:01.000Z</time>
</trkpt>
<trkpt lat="43.62303" lon="5.49036">
<ele>318.7</ele>
<time>2012-03-24T13:51:02.000Z</time>
</trkpt>
<trkpt lat="43.62312" lon="5.49036">
<ele>318.9</ele>
<time>2012-03-24T13:51:03.000Z</time>
</trkpt>
<trkpt lat="43.62323" lon="5.49034">
<ele>318.1</ele>
<time>2012-03-24T13:51:04.000Z</time>
</trkpt>
<trkpt lat="43.62332" lon="5.4903">
<ele>318.4</ele>
<time>2012-03-24T13:51:05.000Z</time>
</trkpt>
<trkpt lat="43.62342" lon="5.49025">
<ele>318.7</ele>
<time>2012-03-24T13:51:06.000Z</time>
</trkpt>
<trkpt lat="43.62351" lon="5.4902">
<ele>319</ele>
<time>2012-03-24T13:51:07.000Z</time>
</trkpt>
<trkpt lat="43.62358" lon="5.49015">
<ele>318.4</ele>
<time>2012-03-24T13:51:08.000Z</time>
</trkpt>
<trkpt lat="43.62374" lon="5.49018">
<ele>318.5</ele>
<time>2012-03-24T13:51:10.000Z</time>
</trkpt>
<trkpt lat="43.62388" lon="5.4902">
<ele>318.6</ele>
<time>2012-03-24T13:51:11.000Z</time>
</trkpt>
<trkpt lat="43.62403" lon="5.49019">
<ele>318.5</ele>
<time>2012-03-24T13:51:12.000Z</time>
</trkpt>
<trkpt lat="43.62415" lon="5.4902">
<ele>318</ele>
<time>2012-03-24T13:51:13.000Z</time>
</trkpt>
<trkpt lat="43.62426" lon="5.4902">
<ele>317.6</ele>
<time>2012-03-24T13:51:14.000Z</time>
</trkpt>
<trkpt lat="43.62436" lon="5.49022">
<ele>317.8</ele>
<time>2012-03-24T13:51:15.000Z</time>
</trkpt>
<trkpt lat="43.62446" lon="5.49021">
<ele>317.4</ele>
<time>2012-03-24T13:51:16.000Z</time>
</trkpt>
<trkpt lat="43.62453" lon="5.49023">
<ele>317.4</ele>
<time>2012-03-24T13:51:17.000Z</time>
</trkpt>
<trkpt lat="43.62464" lon="5.49036">
<ele>317.9</ele>
<time>2012-03-24T13:51:19.000Z</time>
</trkpt>
<trkpt lat="43.62489" lon="5.49032">
<ele>317.3</ele>
<time>2012-03-24T13:51:20.000Z</time>
</trkpt>
<trkpt lat="43.62503" lon="5.49021">
<ele>316.9</ele>
<time>2012-03-24T13:51:21.000Z</time>
</trkpt>
<trkpt lat="43.62513" lon="5.49018">
<ele>315.9</ele>
<time>2012-03-24T13:51:22.000Z</time>
</trkpt>
<trkpt lat="43.62523" lon="5.49016">
<ele>315.1</ele>
<time>2012-03-24T13:51:23.000Z</time>
</trkpt>
<trkpt lat="43.62535" lon="5.49013">
<ele>314.5</ele>
<time>2012-03-24T13:51:24.000Z</time>
</trkpt>
<trkpt lat="43.62546" lon="5.49012">
<ele>313.3</ele>
<time>2012-03-24T13:51:25.000Z</time>
</trkpt>
<trkpt lat="43.62559" lon="5.4901">
<ele>311.8</ele>
<time>2012-03-24T13:51:26.000Z</time>
</trkpt>
<trkpt lat="43.62571" lon="5.49008">
<ele>311.4</ele>
<time>2012-03-24T13:51:27.000Z</time>
</trkpt>
<trkpt lat="43.62582" lon="5.49007">
<ele>310.9</ele>
<time>2012-03-24T13:51:28.000Z</time>
</trkpt>
<trkpt lat="43.62594" lon="5.49005">
<ele>310.3</ele>
<time>2012-03-24T13:51:29.000Z</time>
</trkpt>
<trkpt lat="43.62606" lon="5.49004">
<ele>309.5</ele>
<time>2012-03-24T13:51:30.000Z</time>
</trkpt>
<trkpt lat="43.62617" lon="5.49002">
<ele>309.1</ele>
<time>2012-03-24T13:51:31.000Z</time>
</trkpt>
<trkpt lat="43.62629" lon="5.49">
<ele>308.6</ele>
<time>2012-03-24T13:51:32.000Z</time>
</trkpt>
<trkpt lat="43.62641" lon="5.48998">
<ele>308.1</ele>
<time>2012-03-24T13:51:33.000Z</time>
</trkpt>
<trkpt lat="43.62653" lon="5.48995">
<ele>307.1</ele>
<time>2012-03-24T13:51:34.000Z</time>
</trkpt>
<trkpt lat="43.62664" lon="5.48993">
<ele>306.3</ele>
<time>2012-03-24T13:51:35.000Z</time>
</trkpt>
<trkpt lat="43.62675" lon="5.48989">
<ele>305.4</ele>
<time>2012-03-24T13:51:36.000Z</time>
</trkpt>
<trkpt lat="43.62687" lon="5.48986">
<ele>303.9</ele>
<time>2012-03-24T13:51:37.000Z</time>
</trkpt>
<trkpt lat="43.62698" lon="5.48984">
<ele>303.1</ele>
<time>2012-03-24T13:51:38.000Z</time>
</trkpt>
<trkpt lat="43.62709" lon="5.48983">
<ele>303.4</ele>
<time>2012-03-24T13:51:39.000Z</time>
</trkpt>
<trkpt lat="43.62721" lon="5.48981">
<ele>303.5</ele>
<time>2012-03-24T13:51:40.000Z</time>
</trkpt>
<trkpt lat="43.62732" lon="5.4898">
<ele>303.7</ele>
<time>2012-03-24T13:51:41.000Z</time>
</trkpt>
<trkpt lat="43.62744" lon="5.48978">
<ele>303</ele>
<time>2012-03-24T13:51:42.000Z</time>
</trkpt>
<trkpt lat="43.62754" lon="5.48974">
<ele>302.2</ele>
<time>2012-03-24T13:51:43.000Z</time>
</trkpt>
<trkpt lat="43.62766" lon="5.48969">
<ele>302.3</ele>
<time>2012-03-24T13:51:44.000Z</time>
</trkpt>
<trkpt lat="43.62777" lon="5.48963">
<ele>301.9</ele>
<time>2012-03-24T13:51:45.000Z</time>
</trkpt>
<trkpt lat="43.62788" lon="5.48956">
<ele>300.2</ele>
<time>2012-03-24T13:51:46.000Z</time>
</trkpt>
<trkpt lat="43.62798" lon="5.48949">
<ele>299.3</ele>
<time>2012-03-24T13:51:47.000Z</time>
</trkpt>
<trkpt lat="43.62809" lon="5.48942">
<ele>298.4</ele>
<time>2012-03-24T13:51:48.000Z</time>
</trkpt>
<trkpt lat="43.6282" lon="5.48934">
<ele>297.7</ele>
<time>2012-03-24T13:51:49.000Z</time>
</trkpt>
<trkpt lat="43.6283" lon="5.48927">
<ele>297.1</ele>
<time>2012-03-24T13:51:50.000Z</time>
</trkpt>
<trkpt lat="43.6284" lon="5.4892">
<ele>296.6</ele>
<time>2012-03-24T13:51:51.000Z</time>
</trkpt>
<trkpt lat="43.62851" lon="5.48913">
<ele>296.9</ele>
<time>2012-03-24T13:51:52.000Z</time>
</trkpt>
<trkpt lat="43.62861" lon="5.48905">
<ele>296.4</ele>
<time>2012-03-24T13:51:53.000Z</time>
</trkpt>
<trkpt lat="43.62872" lon="5.48898">
<ele>296.1</ele>
<time>2012-03-24T13:51:54.000Z</time>
</trkpt>
<trkpt lat="43.62882" lon="5.48891">
<ele>296.1</ele>
<time>2012-03-24T13:51:55.000Z</time>
</trkpt>
<trkpt lat="43.62893" lon="5.48884">
<ele>296</ele>
<time>2012-03-24T13:51:56.000Z</time>
</trkpt>
<trkpt lat="43.62903" lon="5.48878">
<ele>295.2</ele>
<time>2012-03-24T13:51:57.000Z</time>
</trkpt>
<trkpt lat="43.62913" lon="5.48871">
<ele>294.1</ele>
<time>2012-03-24T13:51:58.000Z</time>
</trkpt>
<trkpt lat="43.62923" lon="5.48863">
<ele>293.8</ele>
<time>2012-03-24T13:51:59.000Z</time>
</trkpt>
<trkpt lat="43.62934" lon="5.48857">
<ele>293.5</ele>
<time>2012-03-24T13:52:00.000Z</time>
</trkpt>
<trkpt lat="43.62944" lon="5.48851">
<ele>293.2</ele>
<time>2012-03-24T13:52:01.000Z</time>
</trkpt>
<trkpt lat="43.62954" lon="5.48844">
<ele>292.5</ele>
<time>2012-03-24T13:52:02.000Z</time>
</trkpt>
<trkpt lat="43.62964" lon="5.48838">
<ele>292.4</ele>
<time>2012-03-24T13:52:03.000Z</time>
</trkpt>
<trkpt lat="43.62975" lon="5.48832">
<ele>292</ele>
<time>2012-03-24T13:52:04.000Z</time>
</trkpt>
<trkpt lat="43.62986" lon="5.48827">
<ele>291.5</ele>
<time>2012-03-24T13:52:05.000Z</time>
</trkpt>
<trkpt lat="43.62998" lon="5.48824">
<ele>291.1</ele>
<time>2012-03-24T13:52:06.000Z</time>
</trkpt>
<trkpt lat="43.63009" lon="5.48823">
<ele>291.1</ele>
<time>2012-03-24T13:52:07.000Z</time>
</trkpt>
<trkpt lat="43.63021" lon="5.48822">
<ele>291</ele>
<time>2012-03-24T13:52:08.000Z</time>
</trkpt>
<trkpt lat="43.63032" lon="5.48821">
<ele>290.8</ele>
<time>2012-03-24T13:52:09.000Z</time>
</trkpt>
<trkpt lat="43.63042" lon="5.48821">
<ele>290.7</ele>
<time>2012-03-24T13:52:10.000Z</time>
</trkpt>
<trkpt lat="43.63053" lon="5.4882">
<ele>290.4</ele>
<time>2012-03-24T13:52:11.000Z</time>
</trkpt>
<trkpt lat="43.63064" lon="5.4882">
<ele>290.4</ele>
<time>2012-03-24T13:52:12.000Z</time>
</trkpt>
<trkpt lat="43.63075" lon="5.48819">
<ele>290.5</ele>
<time>2012-03-24T13:52:13.000Z</time>
</trkpt>
<trkpt lat="43.63084" lon="5.48817">
<ele>290.5</ele>
<time>2012-03-24T13:52:14.000Z</time>
</trkpt>
<trkpt lat="43.63094" lon="5.48814">
<ele>290.7</ele>
<time>2012-03-24T13:52:15.000Z</time>
</trkpt>
<trkpt lat="43.63104" lon="5.48806">
<ele>290.3</ele>
<time>2012-03-24T13:52:16.000Z</time>
</trkpt>
<trkpt lat="43.63113" lon="5.48801">
<ele>290.5</ele>
<time>2012-03-24T13:52:17.000Z</time>
</trkpt>
<trkpt lat="43.63124" lon="5.48796">
<ele>290.6</ele>
<time>2012-03-24T13:52:18.000Z</time>
</trkpt>
<trkpt lat="43.63133" lon="5.48789">
<ele>290.7</ele>
<time>2012-03-24T13:52:19.000Z</time>
</trkpt>
<trkpt lat="43.63142" lon="5.48783">
<ele>290</ele>
<time>2012-03-24T13:52:20.000Z</time>
</trkpt>
<trkpt lat="43.63149" lon="5.48777">
<ele>289.7</ele>
<time>2012-03-24T13:52:21.000Z</time>
</trkpt>
<trkpt lat="43.63158" lon="5.4877">
<ele>288.7</ele>
<time>2012-03-24T13:52:22.000Z</time>
</trkpt>
<trkpt lat="43.63166" lon="5.48765">
<ele>288.4</ele>
<time>2012-03-24T13:52:23.000Z</time>
</trkpt>
<trkpt lat="43.63175" lon="5.48758">
<ele>288.1</ele>
<time>2012-03-24T13:52:24.000Z</time>
</trkpt>
<trkpt lat="43.63185" lon="5.48752">
<ele>287.9</ele>
<time>2012-03-24T13:52:25.000Z</time>
</trkpt>
<trkpt lat="43.63195" lon="5.48746">
<ele>287.7</ele>
<time>2012-03-24T13:52:26.000Z</time>
</trkpt>
<trkpt lat="43.63205" lon="5.48741">
<ele>287.6</ele>
<time>2012-03-24T13:52:27.000Z</time>
</trkpt>
<trkpt lat="43.63214" lon="5.48734">
<ele>288.1</ele>
<time>2012-03-24T13:52:28.000Z</time>
</trkpt>
<trkpt lat="43.63223" lon="5.4873">
<ele>288.3</ele>
<time>2012-03-24T13:52:29.000Z</time>
</trkpt>
<trkpt lat="43.63233" lon="5.48724">
<ele>287.9</ele>
<time>2012-03-24T13:52:30.000Z</time>
</trkpt>
<trkpt lat="43.63243" lon="5.48719">
<ele>287.8</ele>
<time>2012-03-24T13:52:31.000Z</time>
</trkpt>
<trkpt lat="43.63252" lon="5.48717">
<ele>288.2</ele>
<time>2012-03-24T13:52:32.000Z</time>
</trkpt>
<trkpt lat="43.63261" lon="5.48716">
<ele>287.2</ele>
<time>2012-03-24T13:52:33.000Z</time>
</trkpt>
<trkpt lat="43.6327" lon="5.48714">
<ele>287.5</ele>
<time>2012-03-24T13:52:34.000Z</time>
</trkpt>
<trkpt lat="43.63278" lon="5.48713">
<ele>287.1</ele>
<time>2012-03-24T13:52:35.000Z</time>
</trkpt>
<trkpt lat="43.63286" lon="5.48712">
<ele>287.5</ele>
<time>2012-03-24T13:52:36.000Z</time>
</trkpt>
<trkpt lat="43.63295" lon="5.48711">
<ele>287.6</ele>
<time>2012-03-24T13:52:37.000Z</time>
</trkpt>
<trkpt lat="43.63305" lon="5.48709">
<ele>286.8</ele>
<time>2012-03-24T13:52:38.000Z</time>
</trkpt>
<trkpt lat="43.63314" lon="5.48709">
<ele>286.9</ele>
<time>2012-03-24T13:52:39.000Z</time>
</trkpt>
<trkpt lat="43.63324" lon="5.48708">
<ele>286.9</ele>
<time>2012-03-24T13:52:40.000Z</time>
</trkpt>
<trkpt lat="43.63334" lon="5.4871">
<ele>286.7</ele>
<time>2012-03-24T13:52:41.000Z</time>
</trkpt>
<trkpt lat="43.63343" lon="5.48712">
<ele>286.3</ele>
<time>2012-03-24T13:52:42.000Z</time>
</trkpt>
<trkpt lat="43.63352" lon="5.48714">
<ele>286.2</ele>
<time>2012-03-24T13:52:43.000Z</time>
</trkpt>
<trkpt lat="43.63361" lon="5.48715">
<ele>285.5</ele>
<time>2012-03-24T13:52:44.000Z</time>
</trkpt>
<trkpt lat="43.63369" lon="5.48718">
<ele>285.6</ele>
<time>2012-03-24T13:52:45.000Z</time>
</trkpt>
<trkpt lat="43.63377" lon="5.48721">
<ele>285</ele>
<time>2012-03-24T13:52:46.000Z</time>
</trkpt>
<trkpt lat="43.63385" lon="5.48724">
<ele>284.6</ele>
<time>2012-03-24T13:52:47.000Z</time>
</trkpt>
<trkpt lat="43.63393" lon="5.48728">
<ele>284.6</ele>
<time>2012-03-24T13:52:48.000Z</time>
</trkpt>
<trkpt lat="43.634" lon="5.48732">
<ele>284.7</ele>
<time>2012-03-24T13:52:49.000Z</time>
</trkpt>
<trkpt lat="43.63409" lon="5.48736">
<ele>284.4</ele>
<time>2012-03-24T13:52:50.000Z</time>
</trkpt>
<trkpt lat="43.63418" lon="5.48742">
<ele>283.9</ele>
<time>2012-03-24T13:52:51.000Z</time>
</trkpt>
<trkpt lat="43.63424" lon="5.48746">
<ele>284</ele>
<time>2012-03-24T13:52:52.000Z</time>
</trkpt>
<trkpt lat="43.63432" lon="5.4875">
<ele>284.2</ele>
<time>2012-03-24T13:52:53.000Z</time>
</trkpt>
<trkpt lat="43.63439" lon="5.48754">
<ele>283.7</ele>
<time>2012-03-24T13:52:54.000Z</time>
</trkpt>
<trkpt lat="43.63446" lon="5.4876">
<ele>284.1</ele>
<time>2012-03-24T13:52:55.000Z</time>
</trkpt>
<trkpt lat="43.63454" lon="5.48761">
<ele>283.6</ele>
<time>2012-03-24T13:52:56.000Z</time>
</trkpt>
<trkpt lat="43.63461" lon="5.48766">
<ele>283.5</ele>
<time>2012-03-24T13:52:57.000Z</time>
</trkpt>
<trkpt lat="43.63468" lon="5.4877">
<ele>283.1</ele>
<time>2012-03-24T13:52:58.000Z</time>
</trkpt>
<trkpt lat="43.63476" lon="5.48773">
<ele>282.8</ele>
<time>2012-03-24T13:52:59.000Z</time>
</trkpt>
<trkpt lat="43.63483" lon="5.48777">
<ele>282.3</ele>
<time>2012-03-24T13:53:00.000Z</time>
</trkpt>
<trkpt lat="43.6349" lon="5.48781">
<ele>282.4</ele>
<time>2012-03-24T13:53:01.000Z</time>
</trkpt>
<trkpt lat="43.63497" lon="5.48785">
<ele>282.8</ele>
<time>2012-03-24T13:53:02.000Z</time>
</trkpt>
<trkpt lat="43.63503" lon="5.48789">
<ele>283.3</ele>
<time>2012-03-24T13:53:03.000Z</time>
</trkpt>
<trkpt lat="43.63509" lon="5.48793">
<ele>283.8</ele>
<time>2012-03-24T13:53:04.000Z</time>
</trkpt>
<trkpt lat="43.63514" lon="5.48798">
<ele>283.9</ele>
<time>2012-03-24T13:53:05.000Z</time>
</trkpt>
<trkpt lat="43.63519" lon="5.48802">
<ele>283.7</ele>
<time>2012-03-24T13:53:06.000Z</time>
</trkpt>
<trkpt lat="43.63523" lon="5.48808">
<ele>284</ele>
<time>2012-03-24T13:53:07.000Z</time>
</trkpt>
<trkpt lat="43.63526" lon="5.48814">
<ele>284.2</ele>
<time>2012-03-24T13:53:08.000Z</time>
</trkpt>
<trkpt lat="43.63529" lon="5.48819">
<ele>284</ele>
<time>2012-03-24T13:53:09.000Z</time>
</trkpt>
<trkpt lat="43.6353" lon="5.48825">
<ele>284.1</ele>
<time>2012-03-24T13:53:10.000Z</time>
</trkpt>
<trkpt lat="43.63532" lon="5.48832">
<ele>283.6</ele>
<time>2012-03-24T13:53:11.000Z</time>
</trkpt>
<trkpt lat="43.63533" lon="5.48839">
<ele>283.3</ele>
<time>2012-03-24T13:53:12.000Z</time>
</trkpt>
<trkpt lat="43.63534" lon="5.48846">
<ele>283.6</ele>
<time>2012-03-24T13:53:13.000Z</time>
</trkpt>
<trkpt lat="43.63536" lon="5.48853">
<ele>283.4</ele>
<time>2012-03-24T13:53:14.000Z</time>
</trkpt>
<trkpt lat="43.63538" lon="5.4886">
<ele>283.4</ele>
<time>2012-03-24T13:53:15.000Z</time>
</trkpt>
<trkpt lat="43.6354" lon="5.48868">
<ele>283.3</ele>
<time>2012-03-24T13:53:16.000Z</time>
</trkpt>
<trkpt lat="43.63543" lon="5.48875">
<ele>283</ele>
<time>2012-03-24T13:53:17.000Z</time>
</trkpt>
<trkpt lat="43.63544" lon="5.48883">
<ele>283</ele>
<time>2012-03-24T13:53:18.000Z</time>
</trkpt>
<trkpt lat="43.63546" lon="5.4889">
<ele>282.8</ele>
<time>2012-03-24T13:53:19.000Z</time>
</trkpt>
<trkpt lat="43.63548" lon="5.48896">
<ele>282.9</ele>
<time>2012-03-24T13:53:20.000Z</time>
</trkpt>
<trkpt lat="43.6355" lon="5.48902">
<ele>283</ele>
<time>2012-03-24T13:53:21.000Z</time>
</trkpt>
<trkpt lat="43.63551" lon="5.48908">
<ele>283</ele>
<time>2012-03-24T13:53:22.000Z</time>
</trkpt>
<trkpt lat="43.63554" lon="5.48915">
<ele>283.1</ele>
<time>2012-03-24T13:53:23.000Z</time>
</trkpt>
<trkpt lat="43.63555" lon="5.48922">
<ele>282.8</ele>
<time>2012-03-24T13:53:24.000Z</time>
</trkpt>
<trkpt lat="43.63558" lon="5.4893">
<ele>282.3</ele>
<time>2012-03-24T13:53:25.000Z</time>
</trkpt>
<trkpt lat="43.63562" lon="5.48941">
<ele>281.9</ele>
<time>2012-03-24T13:53:27.000Z</time>
</trkpt>
<trkpt lat="43.63563" lon="5.48949">
<ele>282.4</ele>
<time>2012-03-24T13:53:28.000Z</time>
</trkpt>
<trkpt lat="43.63565" lon="5.48954">
<ele>282.7</ele>
<time>2012-03-24T13:53:29.000Z</time>
</trkpt>
<trkpt lat="43.63568" lon="5.48961">
<ele>282.5</ele>
<time>2012-03-24T13:53:30.000Z</time>
</trkpt>
<trkpt lat="43.6357" lon="5.48968">
<ele>282.4</ele>
<time>2012-03-24T13:53:31.000Z</time>
</trkpt>
<trkpt lat="43.63571" lon="5.48973">
<ele>282.6</ele>
<time>2012-03-24T13:53:32.000Z</time>
</trkpt>
<trkpt lat="43.63574" lon="5.48979">
<ele>282.9</ele>
<time>2012-03-24T13:53:33.000Z</time>
</trkpt>
<trkpt lat="43.63577" lon="5.48985">
<ele>283</ele>
<time>2012-03-24T13:53:34.000Z</time>
</trkpt>
<trkpt lat="43.63579" lon="5.48991">
<ele>282.6</ele>
<time>2012-03-24T13:53:35.000Z</time>
</trkpt>
<trkpt lat="43.63581" lon="5.48997">
<ele>282.2</ele>
<time>2012-03-24T13:53:36.000Z</time>
</trkpt>
<trkpt lat="43.63584" lon="5.49004">
<ele>283.1</ele>
<time>2012-03-24T13:53:37.000Z</time>
</trkpt>
<trkpt lat="43.63586" lon="5.49012">
<ele>282.8</ele>
<time>2012-03-24T13:53:38.000Z</time>
</trkpt>
<trkpt lat="43.63589" lon="5.49019">
<ele>282.1</ele>
<time>2012-03-24T13:53:39.000Z</time>
</trkpt>
<trkpt lat="43.63591" lon="5.49026">
<ele>282.1</ele>
<time>2012-03-24T13:53:40.000Z</time>
</trkpt>
<trkpt lat="43.63594" lon="5.49033">
<ele>281.9</ele>
<time>2012-03-24T13:53:41.000Z</time>
</trkpt>
<trkpt lat="43.63597" lon="5.49041">
<ele>282.3</ele>
<time>2012-03-24T13:53:42.000Z</time>
</trkpt>
<trkpt lat="43.636" lon="5.4905">
<ele>282.8</ele>
<time>2012-03-24T13:53:43.000Z</time>
</trkpt>
<trkpt lat="43.63603" lon="5.49058">
<ele>283.3</ele>
<time>2012-03-24T13:53:44.000Z</time>
</trkpt>
<trkpt lat="43.63606" lon="5.49064">
<ele>283.1</ele>
<time>2012-03-24T13:53:45.000Z</time>
</trkpt>
<trkpt lat="43.6361" lon="5.49072">
<ele>282.4</ele>
<time>2012-03-24T13:53:46.000Z</time>
</trkpt>
<trkpt lat="43.63612" lon="5.49079">
<ele>282.3</ele>
<time>2012-03-24T13:53:47.000Z</time>
</trkpt>
<trkpt lat="43.63615" lon="5.49086">
<ele>282.2</ele>
<time>2012-03-24T13:53:48.000Z</time>
</trkpt>
<trkpt lat="43.63619" lon="5.49092">
<ele>282.2</ele>
<time>2012-03-24T13:53:49.000Z</time>
</trkpt>
<trkpt lat="43.63622" lon="5.491">
<ele>282.4</ele>
<time>2012-03-24T13:53:50.000Z</time>
</trkpt>
<trkpt lat="43.63626" lon="5.49106">
<ele>282</ele>
<time>2012-03-24T13:53:51.000Z</time>
</trkpt>
<trkpt lat="43.63628" lon="5.49114">
<ele>282.1</ele>
<time>2012-03-24T13:53:52.000Z</time>
</trkpt>
<trkpt lat="43.63632" lon="5.4912">
<ele>282.2</ele>
<time>2012-03-24T13:53:53.000Z</time>
</trkpt>
<trkpt lat="43.63635" lon="5.49128">
<ele>281.7</ele>
<time>2012-03-24T13:53:54.000Z</time>
</trkpt>
<trkpt lat="43.63638" lon="5.49134">
<ele>281.7</ele>
<time>2012-03-24T13:53:55.000Z</time>
</trkpt>
<trkpt lat="43.63643" lon="5.49143">
<ele>281.7</ele>
<time>2012-03-24T13:53:56.000Z</time>
</trkpt>
<trkpt lat="43.63643" lon="5.4915">
<ele>281.6</ele>
<time>2012-03-24T13:53:57.000Z</time>
</trkpt>
<trkpt lat="43.63645" lon="5.49156">
<ele>282.3</ele>
<time>2012-03-24T13:53:58.000Z</time>
</trkpt>
<trkpt lat="43.63637" lon="5.49164">
<ele>284.2</ele>
<time>2012-03-24T13:54:00.000Z</time>
</trkpt>
<trkpt lat="43.63648" lon="5.49172">
<ele>284.2</ele>
<time>2012-03-24T13:54:01.000Z</time>
</trkpt>
<trkpt lat="43.63654" lon="5.4918">
<ele>284.5</ele>
<time>2012-03-24T13:54:02.000Z</time>
</trkpt>
<trkpt lat="43.63659" lon="5.49192">
<ele>284.1</ele>
<time>2012-03-24T13:54:03.000Z</time>
</trkpt>
<trkpt lat="43.63666" lon="5.492">
<ele>283.2</ele>
<time>2012-03-24T13:54:04.000Z</time>
</trkpt>
<trkpt lat="43.63669" lon="5.49206">
<ele>283</ele>
<time>2012-03-24T13:54:05.000Z</time>
</trkpt>
<trkpt lat="43.63674" lon="5.49213">
<ele>283</ele>
<time>2012-03-24T13:54:06.000Z</time>
</trkpt>
<trkpt lat="43.63677" lon="5.49221">
<ele>283.4</ele>
<time>2012-03-24T13:54:07.000Z</time>
</trkpt>
<trkpt lat="43.6368" lon="5.4923">
<ele>283.7</ele>
<time>2012-03-24T13:54:08.000Z</time>
</trkpt>
<trkpt lat="43.63682" lon="5.49238">
<ele>283.3</ele>
<time>2012-03-24T13:54:09.000Z</time>
</trkpt>
<trkpt lat="43.63686" lon="5.49244">
<ele>283.4</ele>
<time>2012-03-24T13:54:10.000Z</time>
</trkpt>
<trkpt lat="43.6369" lon="5.49257">
<ele>286.7</ele>
<time>2012-03-24T13:54:12.000Z</time>
</trkpt>
<trkpt lat="43.63694" lon="5.49266">
<ele>286.5</ele>
<time>2012-03-24T13:54:13.000Z</time>
</trkpt>
<trkpt lat="43.63696" lon="5.49276">
<ele>286.1</ele>
<time>2012-03-24T13:54:14.000Z</time>
</trkpt>
<trkpt lat="43.63698" lon="5.49283">
<ele>286.4</ele>
<time>2012-03-24T13:54:15.000Z</time>
</trkpt>
<trkpt lat="43.637" lon="5.49291">
<ele>286</ele>
<time>2012-03-24T13:54:16.000Z</time>
</trkpt>
<trkpt lat="43.63703" lon="5.49298">
<ele>286.1</ele>
<time>2012-03-24T13:54:17.000Z</time>
</trkpt>
<trkpt lat="43.63707" lon="5.49305">
<ele>286</ele>
<time>2012-03-24T13:54:18.000Z</time>
</trkpt>
<trkpt lat="43.6371" lon="5.49313">
<ele>286.2</ele>
<time>2012-03-24T13:54:19.000Z</time>
</trkpt>
<trkpt lat="43.63713" lon="5.49321">
<ele>286.8</ele>
<time>2012-03-24T13:54:20.000Z</time>
</trkpt>
<trkpt lat="43.63717" lon="5.49329">
<ele>286.7</ele>
<time>2012-03-24T13:54:21.000Z</time>
</trkpt>
<trkpt lat="43.63721" lon="5.49338">
<ele>286.6</ele>
<time>2012-03-24T13:54:22.000Z</time>
</trkpt>
<trkpt lat="43.63725" lon="5.49348">
<ele>286.6</ele>
<time>2012-03-24T13:54:23.000Z</time>
</trkpt>
<trkpt lat="43.63729" lon="5.49358">
<ele>286.3</ele>
<time>2012-03-24T13:54:24.000Z</time>
</trkpt>
<trkpt lat="43.63732" lon="5.49366">
<ele>286.4</ele>
<time>2012-03-24T13:54:25.000Z</time>
</trkpt>
<trkpt lat="43.63735" lon="5.49374">
<ele>286.1</ele>
<time>2012-03-24T13:54:26.000Z</time>
</trkpt>
<trkpt lat="43.63737" lon="5.4938">
<ele>285.8</ele>
<time>2012-03-24T13:54:27.000Z</time>
</trkpt>
<trkpt lat="43.63741" lon="5.49388">
<ele>286</ele>
<time>2012-03-24T13:54:28.000Z</time>
</trkpt>
<trkpt lat="43.63747" lon="5.49394">
<ele>286.3</ele>
<time>2012-03-24T13:54:29.000Z</time>
</trkpt>
<trkpt lat="43.63751" lon="5.494">
<ele>286.5</ele>
<time>2012-03-24T13:54:30.000Z</time>
</trkpt>
<trkpt lat="43.63756" lon="5.49408">
<ele>286.3</ele>
<time>2012-03-24T13:54:31.000Z</time>
</trkpt>
<trkpt lat="43.63757" lon="5.49417">
<ele>286.6</ele>
<time>2012-03-24T13:54:32.000Z</time>
</trkpt>
<trkpt lat="43.63759" lon="5.49424">
<ele>287.2</ele>
<time>2012-03-24T13:54:33.000Z</time>
</trkpt>
<trkpt lat="43.63763" lon="5.49431">
<ele>286.9</ele>
<time>2012-03-24T13:54:34.000Z</time>
</trkpt>
<trkpt lat="43.63766" lon="5.49439">
<ele>287.1</ele>
<time>2012-03-24T13:54:35.000Z</time>
</trkpt>
<trkpt lat="43.63769" lon="5.49447">
<ele>287</ele>
<time>2012-03-24T13:54:36.000Z</time>
</trkpt>
<trkpt lat="43.63771" lon="5.49455">
<ele>287.8</ele>
<time>2012-03-24T13:54:37.000Z</time>
</trkpt>
<trkpt lat="43.63774" lon="5.49462">
<ele>286.8</ele>
<time>2012-03-24T13:54:38.000Z</time>
</trkpt>
<trkpt lat="43.63776" lon="5.49468">
<ele>287.2</ele>
<time>2012-03-24T13:54:39.000Z</time>
</trkpt>
<trkpt lat="43.63779" lon="5.49476">
<ele>287.1</ele>
<time>2012-03-24T13:54:40.000Z</time>
</trkpt>
<trkpt lat="43.63782" lon="5.49483">
<ele>286.7</ele>
<time>2012-03-24T13:54:41.000Z</time>
</trkpt>
<trkpt lat="43.63785" lon="5.49491">
<ele>287</ele>
<time>2012-03-24T13:54:42.000Z</time>
</trkpt>
<trkpt lat="43.63789" lon="5.49498">
<ele>286.5</ele>
<time>2012-03-24T13:54:43.000Z</time>
</trkpt>
<trkpt lat="43.63792" lon="5.49506">
<ele>287</ele>
<time>2012-03-24T13:54:44.000Z</time>
</trkpt>
<trkpt lat="43.63796" lon="5.49514">
<ele>286.9</ele>
<time>2012-03-24T13:54:45.000Z</time>
</trkpt>
<trkpt lat="43.63799" lon="5.49522">
<ele>286.8</ele>
<time>2012-03-24T13:54:46.000Z</time>
</trkpt>
<trkpt lat="43.63803" lon="5.4953">
<ele>286.8</ele>
<time>2012-03-24T13:54:47.000Z</time>
</trkpt>
<trkpt lat="43.63806" lon="5.49538">
<ele>286.8</ele>
<time>2012-03-24T13:54:48.000Z</time>
</trkpt>
<trkpt lat="43.63809" lon="5.49546">
<ele>286.8</ele>
<time>2012-03-24T13:54:49.000Z</time>
</trkpt>
<trkpt lat="43.63812" lon="5.49554">
<ele>286.7</ele>
<time>2012-03-24T13:54:50.000Z</time>
</trkpt>
<trkpt lat="43.63815" lon="5.49562">
<ele>286.6</ele>
<time>2012-03-24T13:54:51.000Z</time>
</trkpt>
<trkpt lat="43.63817" lon="5.4957">
<ele>286.6</ele>
<time>2012-03-24T13:54:52.000Z</time>
</trkpt>
<trkpt lat="43.6382" lon="5.49579">
<ele>285.9</ele>
<time>2012-03-24T13:54:53.000Z</time>
</trkpt>
<trkpt lat="43.63823" lon="5.4959">
<ele>285.5</ele>
<time>2012-03-24T13:54:54.000Z</time>
</trkpt>
<trkpt lat="43.63826" lon="5.49598">
<ele>285</ele>
<time>2012-03-24T13:54:55.000Z</time>
</trkpt>
<trkpt lat="43.63828" lon="5.49607">
<ele>285</ele>
<time>2012-03-24T13:54:56.000Z</time>
</trkpt>
<trkpt lat="43.6383" lon="5.49615">
<ele>284.9</ele>
<time>2012-03-24T13:54:57.000Z</time>
</trkpt>
<trkpt lat="43.63833" lon="5.49624">
<ele>284.4</ele>
<time>2012-03-24T13:54:58.000Z</time>
</trkpt>
<trkpt lat="43.63835" lon="5.49632">
<ele>284.3</ele>
<time>2012-03-24T13:54:59.000Z</time>
</trkpt>
<trkpt lat="43.63837" lon="5.49642">
<ele>283.7</ele>
<time>2012-03-24T13:55:00.000Z</time>
</trkpt>
<trkpt lat="43.6384" lon="5.49652">
<ele>284</ele>
<time>2012-03-24T13:55:01.000Z</time>
</trkpt>
<trkpt lat="43.63842" lon="5.4966">
<ele>283.8</ele>
<time>2012-03-24T13:55:02.000Z</time>
</trkpt>
<trkpt lat="43.63843" lon="5.49669">
<ele>283.8</ele>
<time>2012-03-24T13:55:03.000Z</time>
</trkpt>
<trkpt lat="43.63845" lon="5.49678">
<ele>283.7</ele>
<time>2012-03-24T13:55:04.000Z</time>
</trkpt>
<trkpt lat="43.63847" lon="5.49686">
<ele>283.1</ele>
<time>2012-03-24T13:55:05.000Z</time>
</trkpt>
<trkpt lat="43.63848" lon="5.49694">
<ele>283.2</ele>
<time>2012-03-24T13:55:06.000Z</time>
</trkpt>
<trkpt lat="43.6385" lon="5.49702">
<ele>283.1</ele>
<time>2012-03-24T13:55:07.000Z</time>
</trkpt>
<trkpt lat="43.63853" lon="5.4971">
<ele>282.1</ele>
<time>2012-03-24T13:55:08.000Z</time>
</trkpt>
<trkpt lat="43.63853" lon="5.49718">
<ele>281.3</ele>
<time>2012-03-24T13:55:09.000Z</time>
</trkpt>
<trkpt lat="43.63854" lon="5.49727">
<ele>280.7</ele>
<time>2012-03-24T13:55:10.000Z</time>
</trkpt>
<trkpt lat="43.63856" lon="5.49736">
<ele>281.1</ele>
<time>2012-03-24T13:55:11.000Z</time>
</trkpt>
<trkpt lat="43.63857" lon="5.49744">
<ele>281.1</ele>
<time>2012-03-24T13:55:12.000Z</time>
</trkpt>
<trkpt lat="43.63858" lon="5.49752">
<ele>281.3</ele>
<time>2012-03-24T13:55:13.000Z</time>
</trkpt>
<trkpt lat="43.63859" lon="5.4976">
<ele>280.9</ele>
<time>2012-03-24T13:55:14.000Z</time>
</trkpt>
<trkpt lat="43.6386" lon="5.4977">
<ele>281.4</ele>
<time>2012-03-24T13:55:15.000Z</time>
</trkpt>
<trkpt lat="43.63862" lon="5.4978">
<ele>281</ele>
<time>2012-03-24T13:55:16.000Z</time>
</trkpt>
<trkpt lat="43.63863" lon="5.49789">
<ele>281</ele>
<time>2012-03-24T13:55:17.000Z</time>
</trkpt>
<trkpt lat="43.63864" lon="5.49797">
<ele>281.4</ele>
<time>2012-03-24T13:55:18.000Z</time>
</trkpt>
<trkpt lat="43.63866" lon="5.49806">
<ele>282</ele>
<time>2012-03-24T13:55:19.000Z</time>
</trkpt>
<trkpt lat="43.63867" lon="5.49814">
<ele>282</ele>
<time>2012-03-24T13:55:20.000Z</time>
</trkpt>
<trkpt lat="43.63868" lon="5.49823">
<ele>282</ele>
<time>2012-03-24T13:55:21.000Z</time>
</trkpt>
<trkpt lat="43.63869" lon="5.49831">
<ele>282.1</ele>
<time>2012-03-24T13:55:22.000Z</time>
</trkpt>
<trkpt lat="43.63871" lon="5.49839">
<ele>282</ele>
<time>2012-03-24T13:55:23.000Z</time>
</trkpt>
<trkpt lat="43.63872" lon="5.49847">
<ele>281.6</ele>
<time>2012-03-24T13:55:24.000Z</time>
</trkpt>
<trkpt lat="43.63874" lon="5.49856">
<ele>281.6</ele>
<time>2012-03-24T13:55:25.000Z</time>
</trkpt>
<trkpt lat="43.63875" lon="5.49866">
<ele>282</ele>
<time>2012-03-24T13:55:26.000Z</time>
</trkpt>
<trkpt lat="43.63876" lon="5.49875">
<ele>282.2</ele>
<time>2012-03-24T13:55:27.000Z</time>
</trkpt>
<trkpt lat="43.63878" lon="5.49884">
<ele>281.8</ele>
<time>2012-03-24T13:55:28.000Z</time>
</trkpt>
<trkpt lat="43.63879" lon="5.49892">
<ele>281.4</ele>
<time>2012-03-24T13:55:29.000Z</time>
</trkpt>
<trkpt lat="43.6388" lon="5.49899">
<ele>280.7</ele>
<time>2012-03-24T13:55:30.000Z</time>
</trkpt>
<trkpt lat="43.63883" lon="5.49909">
<ele>280.7</ele>
<time>2012-03-24T13:55:31.000Z</time>
</trkpt>
<trkpt lat="43.63884" lon="5.49916">
<ele>280.1</ele>
<time>2012-03-24T13:55:32.000Z</time>
</trkpt>
<trkpt lat="43.63885" lon="5.49924">
<ele>280.1</ele>
<time>2012-03-24T13:55:33.000Z</time>
</trkpt>
<trkpt lat="43.63885" lon="5.49932">
<ele>280.6</ele>
<time>2012-03-24T13:55:34.000Z</time>
</trkpt>
<trkpt lat="43.63886" lon="5.49939">
<ele>280.1</ele>
<time>2012-03-24T13:55:35.000Z</time>
</trkpt>
<trkpt lat="43.63887" lon="5.49945">
<ele>280.4</ele>
<time>2012-03-24T13:55:36.000Z</time>
</trkpt>
<trkpt lat="43.63888" lon="5.49954">
<ele>280.3</ele>
<time>2012-03-24T13:55:37.000Z</time>
</trkpt>
<trkpt lat="43.63888" lon="5.49964">
<ele>280</ele>
<time>2012-03-24T13:55:38.000Z</time>
</trkpt>
<trkpt lat="43.63889" lon="5.49974">
<ele>280.2</ele>
<time>2012-03-24T13:55:39.000Z</time>
</trkpt>
<trkpt lat="43.6389" lon="5.49982">
<ele>279.5</ele>
<time>2012-03-24T13:55:40.000Z</time>
</trkpt>
<trkpt lat="43.63892" lon="5.49991">
<ele>279.8</ele>
<time>2012-03-24T13:55:41.000Z</time>
</trkpt>
<trkpt lat="43.63893" lon="5.50001">
<ele>280.1</ele>
<time>2012-03-24T13:55:42.000Z</time>
</trkpt>
<trkpt lat="43.63894" lon="5.5001">
<ele>279.9</ele>
<time>2012-03-24T13:55:43.000Z</time>
</trkpt>
<trkpt lat="43.63894" lon="5.50019">
<ele>280.2</ele>
<time>2012-03-24T13:55:44.000Z</time>
</trkpt>
<trkpt lat="43.63896" lon="5.50028">
<ele>280.1</ele>
<time>2012-03-24T13:55:45.000Z</time>
</trkpt>
<trkpt lat="43.63898" lon="5.50036">
<ele>280.1</ele>
<time>2012-03-24T13:55:46.000Z</time>
</trkpt>
<trkpt lat="43.63899" lon="5.50045">
<ele>280.6</ele>
<time>2012-03-24T13:55:47.000Z</time>
</trkpt>
<trkpt lat="43.639" lon="5.50054">
<ele>280.8</ele>
<time>2012-03-24T13:55:48.000Z</time>
</trkpt>
<trkpt lat="43.63902" lon="5.50063">
<ele>280.9</ele>
<time>2012-03-24T13:55:49.000Z</time>
</trkpt>
<trkpt lat="43.63904" lon="5.50073">
<ele>280.5</ele>
<time>2012-03-24T13:55:50.000Z</time>
</trkpt>
<trkpt lat="43.63905" lon="5.50081">
<ele>280.7</ele>
<time>2012-03-24T13:55:51.000Z</time>
</trkpt>
<trkpt lat="43.63906" lon="5.50091">
<ele>280.8</ele>
<time>2012-03-24T13:55:52.000Z</time>
</trkpt>
<trkpt lat="43.63908" lon="5.501">
<ele>280.9</ele>
<time>2012-03-24T13:55:53.000Z</time>
</trkpt>
<trkpt lat="43.63909" lon="5.50109">
<ele>280.5</ele>
<time>2012-03-24T13:55:54.000Z</time>
</trkpt>
<trkpt lat="43.6391" lon="5.50118">
<ele>280.4</ele>
<time>2012-03-24T13:55:55.000Z</time>
</trkpt>
<trkpt lat="43.63911" lon="5.50127">
<ele>280.3</ele>
<time>2012-03-24T13:55:56.000Z</time>
</trkpt>
<trkpt lat="43.63913" lon="5.50136">
<ele>280.7</ele>
<time>2012-03-24T13:55:57.000Z</time>
</trkpt>
<trkpt lat="43.63913" lon="5.50145">
<ele>280.5</ele>
<time>2012-03-24T13:55:58.000Z</time>
</trkpt>
<trkpt lat="43.63914" lon="5.50154">
<ele>281.1</ele>
<time>2012-03-24T13:55:59.000Z</time>
</trkpt>
<trkpt lat="43.63914" lon="5.50163">
<ele>281.7</ele>
<time>2012-03-24T13:56:00.000Z</time>
</trkpt>
<trkpt lat="43.63915" lon="5.50171">
<ele>281.4</ele>
<time>2012-03-24T13:56:01.000Z</time>
</trkpt>
<trkpt lat="43.63916" lon="5.5018">
<ele>281.1</ele>
<time>2012-03-24T13:56:02.000Z</time>
</trkpt>
<trkpt lat="43.63916" lon="5.50188">
<ele>280.7</ele>
<time>2012-03-24T13:56:03.000Z</time>
</trkpt>
<trkpt lat="43.63916" lon="5.50195">
<ele>281.7</ele>
<time>2012-03-24T13:56:04.000Z</time>
</trkpt>
<trkpt lat="43.63917" lon="5.50202">
<ele>281.9</ele>
<time>2012-03-24T13:56:05.000Z</time>
</trkpt>
<trkpt lat="43.63916" lon="5.5021">
<ele>281.7</ele>
<time>2012-03-24T13:56:06.000Z</time>
</trkpt>
<trkpt lat="43.63916" lon="5.50216">
<ele>281.7</ele>
<time>2012-03-24T13:56:07.000Z</time>
</trkpt>
<trkpt lat="43.63918" lon="5.50223">
<ele>281.9</ele>
<time>2012-03-24T13:56:08.000Z</time>
</trkpt>
<trkpt lat="43.63919" lon="5.5023">
<ele>281.6</ele>
<time>2012-03-24T13:56:09.000Z</time>
</trkpt>
<trkpt lat="43.6392" lon="5.50238">
<ele>281.5</ele>
<time>2012-03-24T13:56:11.000Z</time>
</trkpt>
<trkpt lat="43.63922" lon="5.50246">
<ele>282.1</ele>
<time>2012-03-24T13:56:14.000Z</time>
</trkpt>
<trkpt lat="43.63923" lon="5.50253">
<ele>281.6</ele>
<time>2012-03-24T13:56:16.000Z</time>
</trkpt>
<trkpt lat="43.63924" lon="5.50265">
<ele>281.3</ele>
<time>2012-03-24T13:56:18.000Z</time>
</trkpt>
<trkpt lat="43.63923" lon="5.50274">
<ele>279.9</ele>
<time>2012-03-24T13:56:19.000Z</time>
</trkpt>
<trkpt lat="43.63925" lon="5.50282">
<ele>279.3</ele>
<time>2012-03-24T13:56:20.000Z</time>
</trkpt>
<trkpt lat="43.63924" lon="5.50292">
<ele>278.3</ele>
<time>2012-03-24T13:56:21.000Z</time>
</trkpt>
<trkpt lat="43.63923" lon="5.50302">
<ele>277.9</ele>
<time>2012-03-24T13:56:22.000Z</time>
</trkpt>
<trkpt lat="43.63921" lon="5.50314">
<ele>277.6</ele>
<time>2012-03-24T13:56:23.000Z</time>
</trkpt>
<trkpt lat="43.63918" lon="5.50325">
<ele>277.4</ele>
<time>2012-03-24T13:56:24.000Z</time>
</trkpt>
<trkpt lat="43.63916" lon="5.50336">
<ele>276.6</ele>
<time>2012-03-24T13:56:25.000Z</time>
</trkpt>
<trkpt lat="43.63914" lon="5.50347">
<ele>276.3</ele>
<time>2012-03-24T13:56:26.000Z</time>
</trkpt>
<trkpt lat="43.63913" lon="5.50358">
<ele>276.3</ele>
<time>2012-03-24T13:56:27.000Z</time>
</trkpt>
<trkpt lat="43.6391" lon="5.5037">
<ele>275.8</ele>
<time>2012-03-24T13:56:28.000Z</time>
</trkpt>
<trkpt lat="43.6391" lon="5.5038">
<ele>275.3</ele>
<time>2012-03-24T13:56:29.000Z</time>
</trkpt>
<trkpt lat="43.63911" lon="5.50389">
<ele>274.8</ele>
<time>2012-03-24T13:56:30.000Z</time>
</trkpt>
<trkpt lat="43.63911" lon="5.50397">
<ele>274.6</ele>
<time>2012-03-24T13:56:31.000Z</time>
</trkpt>
<trkpt lat="43.63911" lon="5.50407">
<ele>274.9</ele>
<time>2012-03-24T13:56:32.000Z</time>
</trkpt>
<trkpt lat="43.63913" lon="5.50416">
<ele>274.7</ele>
<time>2012-03-24T13:56:33.000Z</time>
</trkpt>
<trkpt lat="43.63915" lon="5.50425">
<ele>274.7</ele>
<time>2012-03-24T13:56:34.000Z</time>
</trkpt>
<trkpt lat="43.63917" lon="5.50435">
<ele>274.5</ele>
<time>2012-03-24T13:56:35.000Z</time>
</trkpt>
<trkpt lat="43.6392" lon="5.50444">
<ele>274.5</ele>
<time>2012-03-24T13:56:36.000Z</time>
</trkpt>
<trkpt lat="43.63924" lon="5.50452">
<ele>274</ele>
<time>2012-03-24T13:56:37.000Z</time>
</trkpt>
<trkpt lat="43.63926" lon="5.50462">
<ele>273.8</ele>
<time>2012-03-24T13:56:38.000Z</time>
</trkpt>
<trkpt lat="43.63929" lon="5.50469">
<ele>273.9</ele>
<time>2012-03-24T13:56:39.000Z</time>
</trkpt>
<trkpt lat="43.63932" lon="5.50477">
<ele>273.4</ele>
<time>2012-03-24T13:56:40.000Z</time>
</trkpt>
<trkpt lat="43.63936" lon="5.50484">
<ele>274</ele>
<time>2012-03-24T13:56:41.000Z</time>
</trkpt>
<trkpt lat="43.6394" lon="5.50491">
<ele>273.9</ele>
<time>2012-03-24T13:56:42.000Z</time>
</trkpt>
<trkpt lat="43.63943" lon="5.50498">
<ele>274.2</ele>
<time>2012-03-24T13:56:43.000Z</time>
</trkpt>
<trkpt lat="43.63947" lon="5.50505">
<ele>274.1</ele>
<time>2012-03-24T13:56:44.000Z</time>
</trkpt>
<trkpt lat="43.6395" lon="5.50512">
<ele>274.2</ele>
<time>2012-03-24T13:56:45.000Z</time>
</trkpt>
<trkpt lat="43.6395" lon="5.50519">
<ele>275.6</ele>
<time>2012-03-24T13:56:46.000Z</time>
</trkpt>
<trkpt lat="43.63952" lon="5.50526">
<ele>276.4</ele>
<time>2012-03-24T13:56:47.000Z</time>
</trkpt>
<trkpt lat="43.63954" lon="5.50532">
<ele>276.5</ele>
<time>2012-03-24T13:56:48.000Z</time>
</trkpt>
<trkpt lat="43.63956" lon="5.5054">
<ele>276.9</ele>
<time>2012-03-24T13:56:49.000Z</time>
</trkpt>
<trkpt lat="43.63956" lon="5.50547">
<ele>277.1</ele>
<time>2012-03-24T13:56:50.000Z</time>
</trkpt>
<trkpt lat="43.63958" lon="5.50554">
<ele>277.4</ele>
<time>2012-03-24T13:56:51.000Z</time>
</trkpt>
<trkpt lat="43.6396" lon="5.50561">
<ele>277.6</ele>
<time>2012-03-24T13:56:52.000Z</time>
</trkpt>
<trkpt lat="43.63962" lon="5.50568">
<ele>277.4</ele>
<time>2012-03-24T13:56:53.000Z</time>
</trkpt>
<trkpt lat="43.63965" lon="5.50576">
<ele>277.7</ele>
<time>2012-03-24T13:56:54.000Z</time>
</trkpt>
<trkpt lat="43.63967" lon="5.50583">
<ele>277.8</ele>
<time>2012-03-24T13:56:55.000Z</time>
</trkpt>
<trkpt lat="43.63969" lon="5.50591">
<ele>278</ele>
<time>2012-03-24T13:56:56.000Z</time>
</trkpt>
<trkpt lat="43.63969" lon="5.50598">
<ele>278.2</ele>
<time>2012-03-24T13:56:57.000Z</time>
</trkpt>
<trkpt lat="43.63971" lon="5.50606">
<ele>277.9</ele>
<time>2012-03-24T13:56:58.000Z</time>
</trkpt>
<trkpt lat="43.63973" lon="5.50616">
<ele>277.8</ele>
<time>2012-03-24T13:56:59.000Z</time>
</trkpt>
<trkpt lat="43.63975" lon="5.50627">
<ele>277.8</ele>
<time>2012-03-24T13:57:00.000Z</time>
</trkpt>
<trkpt lat="43.63977" lon="5.50638">
<ele>277.5</ele>
<time>2012-03-24T13:57:01.000Z</time>
</trkpt>
<trkpt lat="43.6398" lon="5.50648">
<ele>277.6</ele>
<time>2012-03-24T13:57:02.000Z</time>
</trkpt>
<trkpt lat="43.63982" lon="5.5066">
<ele>277.4</ele>
<time>2012-03-24T13:57:03.000Z</time>
</trkpt>
<trkpt lat="43.63986" lon="5.50673">
<ele>277.5</ele>
<time>2012-03-24T13:57:04.000Z</time>
</trkpt>
<trkpt lat="43.63987" lon="5.50685">
<ele>277.3</ele>
<time>2012-03-24T13:57:05.000Z</time>
</trkpt>
<trkpt lat="43.6399" lon="5.50698">
<ele>277.4</ele>
<time>2012-03-24T13:57:06.000Z</time>
</trkpt>
<trkpt lat="43.63992" lon="5.50712">
<ele>277.3</ele>
<time>2012-03-24T13:57:07.000Z</time>
</trkpt>
<trkpt lat="43.63995" lon="5.50724">
<ele>277.1</ele>
<time>2012-03-24T13:57:08.000Z</time>
</trkpt>
<trkpt lat="43.63998" lon="5.50738">
<ele>277.2</ele>
<time>2012-03-24T13:57:09.000Z</time>
</trkpt>
<trkpt lat="43.64" lon="5.50751">
<ele>277</ele>
<time>2012-03-24T13:57:10.000Z</time>
</trkpt>
<trkpt lat="43.64002" lon="5.50765">
<ele>277.1</ele>
<time>2012-03-24T13:57:11.000Z</time>
</trkpt>
<trkpt lat="43.64005" lon="5.50778">
<ele>276.9</ele>
<time>2012-03-24T13:57:12.000Z</time>
</trkpt>
<trkpt lat="43.64006" lon="5.5079">
<ele>276.8</ele>
<time>2012-03-24T13:57:13.000Z</time>
</trkpt>
<trkpt lat="43.64009" lon="5.50803">
<ele>276.8</ele>
<time>2012-03-24T13:57:14.000Z</time>
</trkpt>
<trkpt lat="43.64011" lon="5.50815">
<ele>276.9</ele>
<time>2012-03-24T13:57:15.000Z</time>
</trkpt>
<trkpt lat="43.64013" lon="5.50827">
<ele>277.3</ele>
<time>2012-03-24T13:57:16.000Z</time>
</trkpt>
<trkpt lat="43.64014" lon="5.5084">
<ele>277.4</ele>
<time>2012-03-24T13:57:17.000Z</time>
</trkpt>
<trkpt lat="43.64017" lon="5.5085">
<ele>277</ele>
<time>2012-03-24T13:57:18.000Z</time>
</trkpt>
<trkpt lat="43.64018" lon="5.50862">
<ele>276.4</ele>
<time>2012-03-24T13:57:19.000Z</time>
</trkpt>
<trkpt lat="43.64018" lon="5.50874">
<ele>276.3</ele>
<time>2012-03-24T13:57:20.000Z</time>
</trkpt>
<trkpt lat="43.64019" lon="5.50886">
<ele>276.4</ele>
<time>2012-03-24T13:57:21.000Z</time>
</trkpt>
<trkpt lat="43.64022" lon="5.50897">
<ele>276.1</ele>
<time>2012-03-24T13:57:22.000Z</time>
</trkpt>
<trkpt lat="43.64024" lon="5.50907">
<ele>276.1</ele>
<time>2012-03-24T13:57:23.000Z</time>
</trkpt>
<trkpt lat="43.64024" lon="5.50919">
<ele>277.5</ele>
<time>2012-03-24T13:57:24.000Z</time>
</trkpt>
<trkpt lat="43.64026" lon="5.5093">
<ele>277.4</ele>
<time>2012-03-24T13:57:25.000Z</time>
</trkpt>
<trkpt lat="43.64028" lon="5.50941">
<ele>277.4</ele>
<time>2012-03-24T13:57:26.000Z</time>
</trkpt>
<trkpt lat="43.64029" lon="5.50951">
<ele>277.6</ele>
<time>2012-03-24T13:57:27.000Z</time>
</trkpt>
<trkpt lat="43.64031" lon="5.50961">
<ele>277.2</ele>
<time>2012-03-24T13:57:28.000Z</time>
</trkpt>
<trkpt lat="43.64032" lon="5.50971">
<ele>277.8</ele>
<time>2012-03-24T13:57:29.000Z</time>
</trkpt>
<trkpt lat="43.64035" lon="5.50981">
<ele>278.5</ele>
<time>2012-03-24T13:57:30.000Z</time>
</trkpt>
<trkpt lat="43.64037" lon="5.5099">
<ele>279.4</ele>
<time>2012-03-24T13:57:31.000Z</time>
</trkpt>
<trkpt lat="43.64038" lon="5.51">
<ele>279.8</ele>
<time>2012-03-24T13:57:32.000Z</time>
</trkpt>
<trkpt lat="43.6404" lon="5.51009">
<ele>279.4</ele>
<time>2012-03-24T13:57:33.000Z</time>
</trkpt>
<trkpt lat="43.64042" lon="5.51018">
<ele>279.2</ele>
<time>2012-03-24T13:57:34.000Z</time>
</trkpt>
<trkpt lat="43.64042" lon="5.51027">
<ele>280</ele>
<time>2012-03-24T13:57:35.000Z</time>
</trkpt>
<trkpt lat="43.64044" lon="5.51037">
<ele>279.6</ele>
<time>2012-03-24T13:57:36.000Z</time>
</trkpt>
<trkpt lat="43.64045" lon="5.51046">
<ele>280.1</ele>
<time>2012-03-24T13:57:37.000Z</time>
</trkpt>
<trkpt lat="43.64046" lon="5.51054">
<ele>280.2</ele>
<time>2012-03-24T13:57:38.000Z</time>
</trkpt>
<trkpt lat="43.64048" lon="5.51064">
<ele>280.7</ele>
<time>2012-03-24T13:57:39.000Z</time>
</trkpt>
<trkpt lat="43.6405" lon="5.51073">
<ele>280.9</ele>
<time>2012-03-24T13:57:40.000Z</time>
</trkpt>
<trkpt lat="43.64051" lon="5.51081">
<ele>280.8</ele>
<time>2012-03-24T13:57:41.000Z</time>
</trkpt>
<trkpt lat="43.64053" lon="5.5109">
<ele>280.2</ele>
<time>2012-03-24T13:57:42.000Z</time>
</trkpt>
<trkpt lat="43.64054" lon="5.51098">
<ele>280.1</ele>
<time>2012-03-24T13:57:43.000Z</time>
</trkpt>
<trkpt lat="43.64055" lon="5.51105">
<ele>280.3</ele>
<time>2012-03-24T13:57:44.000Z</time>
</trkpt>
<trkpt lat="43.64056" lon="5.51112">
<ele>280.3</ele>
<time>2012-03-24T13:57:45.000Z</time>
</trkpt>
<trkpt lat="43.64057" lon="5.51119">
<ele>280.3</ele>
<time>2012-03-24T13:57:46.000Z</time>
</trkpt>
<trkpt lat="43.64058" lon="5.51125">
<ele>279.7</ele>
<time>2012-03-24T13:57:47.000Z</time>
</trkpt>
<trkpt lat="43.6406" lon="5.51132">
<ele>280.7</ele>
<time>2012-03-24T13:57:49.000Z</time>
</trkpt>
<trkpt lat="43.64066" lon="5.51136">
<ele>281.3</ele>
<time>2012-03-24T13:57:51.000Z</time>
</trkpt>
<trkpt lat="43.64072" lon="5.51136">
<ele>281.7</ele>
<time>2012-03-24T13:57:53.000Z</time>
</trkpt>
<trkpt lat="43.6408" lon="5.51134">
<ele>281.8</ele>
<time>2012-03-24T13:57:55.000Z</time>
</trkpt>
<trkpt lat="43.64088" lon="5.51131">
<ele>281.6</ele>
<time>2012-03-24T13:57:57.000Z</time>
</trkpt>
<trkpt lat="43.64095" lon="5.51128">
<ele>282.3</ele>
<time>2012-03-24T13:57:59.000Z</time>
</trkpt>
<trkpt lat="43.641" lon="5.51127">
<ele>282.5</ele>
<time>2012-03-24T13:58:00.000Z</time>
</trkpt>
<trkpt lat="43.64107" lon="5.51124">
<ele>278.5</ele>
<time>2012-03-24T13:58:01.000Z</time>
</trkpt>
<trkpt lat="43.64115" lon="5.51122">
<ele>278.2</ele>
<time>2012-03-24T13:58:03.000Z</time>
</trkpt>
<trkpt lat="43.64122" lon="5.51122">
<ele>278.4</ele>
<time>2012-03-24T13:58:05.000Z</time>
</trkpt>
<trkpt lat="43.64128" lon="5.51132">
<ele>279.3</ele>
<time>2012-03-24T13:58:07.000Z</time>
</trkpt>
<trkpt lat="43.64131" lon="5.51142">
<ele>279.2</ele>
<time>2012-03-24T13:58:09.000Z</time>
</trkpt>
<trkpt lat="43.64132" lon="5.51149">
<ele>278.7</ele>
<time>2012-03-24T13:58:10.000Z</time>
</trkpt>
<trkpt lat="43.64132" lon="5.51157">
<ele>279.1</ele>
<time>2012-03-24T13:58:11.000Z</time>
</trkpt>
<trkpt lat="43.64133" lon="5.51164">
<ele>278.9</ele>
<time>2012-03-24T13:58:12.000Z</time>
</trkpt>
<trkpt lat="43.64134" lon="5.51172">
<ele>278.7</ele>
<time>2012-03-24T13:58:13.000Z</time>
</trkpt>
<trkpt lat="43.64134" lon="5.51181">
<ele>279.2</ele>
<time>2012-03-24T13:58:14.000Z</time>
</trkpt>
<trkpt lat="43.64134" lon="5.51189">
<ele>279.4</ele>
<time>2012-03-24T13:58:15.000Z</time>
</trkpt>
<trkpt lat="43.64135" lon="5.51197">
<ele>279</ele>
<time>2012-03-24T13:58:16.000Z</time>
</trkpt>
<trkpt lat="43.64136" lon="5.51205">
<ele>278.6</ele>
<time>2012-03-24T13:58:17.000Z</time>
</trkpt>
<trkpt lat="43.64139" lon="5.51214">
<ele>278.1</ele>
<time>2012-03-24T13:58:18.000Z</time>
</trkpt>
<trkpt lat="43.6414" lon="5.51222">
<ele>278.1</ele>
<time>2012-03-24T13:58:19.000Z</time>
</trkpt>
<trkpt lat="43.64142" lon="5.5123">
<ele>278.1</ele>
<time>2012-03-24T13:58:20.000Z</time>
</trkpt>
<trkpt lat="43.64143" lon="5.51239">
<ele>278</ele>
<time>2012-03-24T13:58:21.000Z</time>
</trkpt>
<trkpt lat="43.64145" lon="5.51247">
<ele>277.9</ele>
<time>2012-03-24T13:58:22.000Z</time>
</trkpt>
<trkpt lat="43.64147" lon="5.51256">
<ele>277.4</ele>
<time>2012-03-24T13:58:23.000Z</time>
</trkpt>
<trkpt lat="43.64149" lon="5.51265">
<ele>276.6</ele>
<time>2012-03-24T13:58:24.000Z</time>
</trkpt>
<trkpt lat="43.64151" lon="5.51274">
<ele>276</ele>
<time>2012-03-24T13:58:25.000Z</time>
</trkpt>
<trkpt lat="43.64152" lon="5.51284">
<ele>275.9</ele>
<time>2012-03-24T13:58:26.000Z</time>
</trkpt>
<trkpt lat="43.64154" lon="5.51293">
<ele>275.9</ele>
<time>2012-03-24T13:58:27.000Z</time>
</trkpt>
<trkpt lat="43.64155" lon="5.51302">
<ele>276</ele>
<time>2012-03-24T13:58:28.000Z</time>
</trkpt>
<trkpt lat="43.64157" lon="5.51312">
<ele>275.9</ele>
<time>2012-03-24T13:58:29.000Z</time>
</trkpt>
<trkpt lat="43.64158" lon="5.51322">
<ele>275.9</ele>
<time>2012-03-24T13:58:30.000Z</time>
</trkpt>
<trkpt lat="43.64161" lon="5.51332">
<ele>276.2</ele>
<time>2012-03-24T13:58:31.000Z</time>
</trkpt>
<trkpt lat="43.64163" lon="5.51345">
<ele>276.5</ele>
<time>2012-03-24T13:58:32.000Z</time>
</trkpt>
<trkpt lat="43.64166" lon="5.51358">
<ele>276.3</ele>
<time>2012-03-24T13:58:33.000Z</time>
</trkpt>
<trkpt lat="43.64167" lon="5.51371">
<ele>276.7</ele>
<time>2012-03-24T13:58:34.000Z</time>
</trkpt>
<trkpt lat="43.64169" lon="5.51382">
<ele>277.2</ele>
<time>2012-03-24T13:58:35.000Z</time>
</trkpt>
<trkpt lat="43.64171" lon="5.51393">
<ele>277.1</ele>
<time>2012-03-24T13:58:36.000Z</time>
</trkpt>
<trkpt lat="43.64174" lon="5.51403">
<ele>276.9</ele>
<time>2012-03-24T13:58:37.000Z</time>
</trkpt>
<trkpt lat="43.64176" lon="5.51412">
<ele>277</ele>
<time>2012-03-24T13:58:38.000Z</time>
</trkpt>
<trkpt lat="43.6418" lon="5.51424">
<ele>276.5</ele>
<time>2012-03-24T13:58:39.000Z</time>
</trkpt>
<trkpt lat="43.64182" lon="5.51433">
<ele>276.3</ele>
<time>2012-03-24T13:58:40.000Z</time>
</trkpt>
<trkpt lat="43.64184" lon="5.51443">
<ele>276.6</ele>
<time>2012-03-24T13:58:41.000Z</time>
</trkpt>
<trkpt lat="43.64186" lon="5.51452">
<ele>276.4</ele>
<time>2012-03-24T13:58:42.000Z</time>
</trkpt>
<trkpt lat="43.64191" lon="5.51465">
<ele>275.9</ele>
<time>2012-03-24T13:58:43.000Z</time>
</trkpt>
<trkpt lat="43.64194" lon="5.51477">
<ele>275.8</ele>
<time>2012-03-24T13:58:44.000Z</time>
</trkpt>
<trkpt lat="43.64198" lon="5.51488">
<ele>275.8</ele>
<time>2012-03-24T13:58:45.000Z</time>
</trkpt>
<trkpt lat="43.64201" lon="5.51496">
<ele>275.9</ele>
<time>2012-03-24T13:58:46.000Z</time>
</trkpt>
<trkpt lat="43.64204" lon="5.51507">
<ele>275.8</ele>
<time>2012-03-24T13:58:47.000Z</time>
</trkpt>
<trkpt lat="43.64208" lon="5.51517">
<ele>275.7</ele>
<time>2012-03-24T13:58:48.000Z</time>
</trkpt>
<trkpt lat="43.64211" lon="5.51528">
<ele>275.6</ele>
<time>2012-03-24T13:58:49.000Z</time>
</trkpt>
<trkpt lat="43.64215" lon="5.51538">
<ele>275.2</ele>
<time>2012-03-24T13:58:50.000Z</time>
</trkpt>
<trkpt lat="43.64218" lon="5.51549">
<ele>274.9</ele>
<time>2012-03-24T13:58:51.000Z</time>
</trkpt>
<trkpt lat="43.6422" lon="5.51559">
<ele>275.3</ele>
<time>2012-03-24T13:58:52.000Z</time>
</trkpt>
<trkpt lat="43.64222" lon="5.51569">
<ele>275.4</ele>
<time>2012-03-24T13:58:53.000Z</time>
</trkpt>
<trkpt lat="43.64224" lon="5.51578">
<ele>275.1</ele>
<time>2012-03-24T13:58:54.000Z</time>
</trkpt>
<trkpt lat="43.64226" lon="5.51587">
<ele>274.8</ele>
<time>2012-03-24T13:58:55.000Z</time>
</trkpt>
<trkpt lat="43.64227" lon="5.51595">
<ele>274.6</ele>
<time>2012-03-24T13:58:56.000Z</time>
</trkpt>
<trkpt lat="43.64228" lon="5.51604">
<ele>274.4</ele>
<time>2012-03-24T13:58:57.000Z</time>
</trkpt>
<trkpt lat="43.64229" lon="5.51614">
<ele>274.6</ele>
<time>2012-03-24T13:58:58.000Z</time>
</trkpt>
<trkpt lat="43.64231" lon="5.51624">
<ele>274.6</ele>
<time>2012-03-24T13:58:59.000Z</time>
</trkpt>
<trkpt lat="43.64232" lon="5.51635">
<ele>274.7</ele>
<time>2012-03-24T13:59:00.000Z</time>
</trkpt>
<trkpt lat="43.64234" lon="5.51644">
<ele>274.7</ele>
<time>2012-03-24T13:59:01.000Z</time>
</trkpt>
<trkpt lat="43.64235" lon="5.51654">
<ele>274.6</ele>
<time>2012-03-24T13:59:02.000Z</time>
</trkpt>
<trkpt lat="43.64235" lon="5.51665">
<ele>274.6</ele>
<time>2012-03-24T13:59:03.000Z</time>
</trkpt>
<trkpt lat="43.64237" lon="5.51675">
<ele>274.6</ele>
<time>2012-03-24T13:59:04.000Z</time>
</trkpt>
<trkpt lat="43.64239" lon="5.51685">
<ele>274.6</ele>
<time>2012-03-24T13:59:05.000Z</time>
</trkpt>
<trkpt lat="43.6424" lon="5.51695">
<ele>274.7</ele>
<time>2012-03-24T13:59:06.000Z</time>
</trkpt>
<trkpt lat="43.6424" lon="5.51706">
<ele>274.9</ele>
<time>2012-03-24T13:59:07.000Z</time>
</trkpt>
<trkpt lat="43.64241" lon="5.51718">
<ele>275.3</ele>
<time>2012-03-24T13:59:08.000Z</time>
</trkpt>
<trkpt lat="43.64242" lon="5.51727">
<ele>274.8</ele>
<time>2012-03-24T13:59:09.000Z</time>
</trkpt>
<trkpt lat="43.64242" lon="5.51736">
<ele>274.5</ele>
<time>2012-03-24T13:59:10.000Z</time>
</trkpt>
<trkpt lat="43.64241" lon="5.51746">
<ele>274.5</ele>
<time>2012-03-24T13:59:11.000Z</time>
</trkpt>
<trkpt lat="43.64243" lon="5.51757">
<ele>274.1</ele>
<time>2012-03-24T13:59:12.000Z</time>
</trkpt>
<trkpt lat="43.64243" lon="5.51766">
<ele>274.4</ele>
<time>2012-03-24T13:59:13.000Z</time>
</trkpt>
<trkpt lat="43.64243" lon="5.51776">
<ele>274.6</ele>
<time>2012-03-24T13:59:14.000Z</time>
</trkpt>
<trkpt lat="43.64243" lon="5.51786">
<ele>274.5</ele>
<time>2012-03-24T13:59:15.000Z</time>
</trkpt>
<trkpt lat="43.64243" lon="5.51797">
<ele>274.6</ele>
<time>2012-03-24T13:59:16.000Z</time>
</trkpt>
<trkpt lat="43.64242" lon="5.51806">
<ele>275</ele>
<time>2012-03-24T13:59:17.000Z</time>
</trkpt>
<trkpt lat="43.64241" lon="5.51817">
<ele>275</ele>
<time>2012-03-24T13:59:18.000Z</time>
</trkpt>
<trkpt lat="43.64241" lon="5.51827">
<ele>275.1</ele>
<time>2012-03-24T13:59:19.000Z</time>
</trkpt>
<trkpt lat="43.64242" lon="5.51836">
<ele>275.4</ele>
<time>2012-03-24T13:59:20.000Z</time>
</trkpt>
<trkpt lat="43.64242" lon="5.51846">
<ele>275.5</ele>
<time>2012-03-24T13:59:21.000Z</time>
</trkpt>
<trkpt lat="43.64244" lon="5.51854">
<ele>275.3</ele>
<time>2012-03-24T13:59:22.000Z</time>
</trkpt>
<trkpt lat="43.64244" lon="5.51862">
<ele>274.9</ele>
<time>2012-03-24T13:59:23.000Z</time>
</trkpt>
<trkpt lat="43.64246" lon="5.51872">
<ele>274.9</ele>
<time>2012-03-24T13:59:24.000Z</time>
</trkpt>
<trkpt lat="43.64248" lon="5.51881">
<ele>275</ele>
<time>2012-03-24T13:59:25.000Z</time>
</trkpt>
<trkpt lat="43.64248" lon="5.51892">
<ele>274.7</ele>
<time>2012-03-24T13:59:26.000Z</time>
</trkpt>
<trkpt lat="43.64248" lon="5.519">
<ele>274</ele>
<time>2012-03-24T13:59:27.000Z</time>
</trkpt>
<trkpt lat="43.64248" lon="5.51911">
<ele>273.7</ele>
<time>2012-03-24T13:59:28.000Z</time>
</trkpt>
<trkpt lat="43.64248" lon="5.5192">
<ele>273.9</ele>
<time>2012-03-24T13:59:29.000Z</time>
</trkpt>
<trkpt lat="43.64248" lon="5.5193">
<ele>273.3</ele>
<time>2012-03-24T13:59:30.000Z</time>
</trkpt>
<trkpt lat="43.64249" lon="5.51939">
<ele>273.1</ele>
<time>2012-03-24T13:59:31.000Z</time>
</trkpt>
<trkpt lat="43.64248" lon="5.51949">
<ele>273.2</ele>
<time>2012-03-24T13:59:32.000Z</time>
</trkpt>
<trkpt lat="43.64247" lon="5.5196">
<ele>273.3</ele>
<time>2012-03-24T13:59:33.000Z</time>
</trkpt>
<trkpt lat="43.64247" lon="5.5197">
<ele>273.3</ele>
<time>2012-03-24T13:59:34.000Z</time>
</trkpt>
<trkpt lat="43.64248" lon="5.51981">
<ele>273.3</ele>
<time>2012-03-24T13:59:35.000Z</time>
</trkpt>
<trkpt lat="43.64246" lon="5.51992">
<ele>274.1</ele>
<time>2012-03-24T13:59:36.000Z</time>
</trkpt>
<trkpt lat="43.64246" lon="5.52002">
<ele>273.8</ele>
<time>2012-03-24T13:59:37.000Z</time>
</trkpt>
<trkpt lat="43.64245" lon="5.52013">
<ele>273.1</ele>
<time>2012-03-24T13:59:38.000Z</time>
</trkpt>
<trkpt lat="43.64244" lon="5.52023">
<ele>272.7</ele>
<time>2012-03-24T13:59:39.000Z</time>
</trkpt>
<trkpt lat="43.64243" lon="5.52034">
<ele>273</ele>
<time>2012-03-24T13:59:40.000Z</time>
</trkpt>
<trkpt lat="43.64242" lon="5.52045">
<ele>273</ele>
<time>2012-03-24T13:59:41.000Z</time>
</trkpt>
<trkpt lat="43.64243" lon="5.52058">
<ele>273</ele>
<time>2012-03-24T13:59:42.000Z</time>
</trkpt>
<trkpt lat="43.64243" lon="5.52068">
<ele>273.1</ele>
<time>2012-03-24T13:59:43.000Z</time>
</trkpt>
<trkpt lat="43.64241" lon="5.5208">
<ele>272.9</ele>
<time>2012-03-24T13:59:44.000Z</time>
</trkpt>
<trkpt lat="43.64242" lon="5.5209">
<ele>272.5</ele>
<time>2012-03-24T13:59:45.000Z</time>
</trkpt>
<trkpt lat="43.64244" lon="5.52102">
<ele>272.4</ele>
<time>2012-03-24T13:59:46.000Z</time>
</trkpt>
<trkpt lat="43.64246" lon="5.52114">
<ele>272</ele>
<time>2012-03-24T13:59:47.000Z</time>
</trkpt>
<trkpt lat="43.64248" lon="5.52124">
<ele>272.1</ele>
<time>2012-03-24T13:59:48.000Z</time>
</trkpt>
<trkpt lat="43.6425" lon="5.52135">
<ele>272.2</ele>
<time>2012-03-24T13:59:49.000Z</time>
</trkpt>
<trkpt lat="43.64253" lon="5.52145">
<ele>273.1</ele>
<time>2012-03-24T13:59:50.000Z</time>
</trkpt>
<trkpt lat="43.64256" lon="5.52154">
<ele>273.4</ele>
<time>2012-03-24T13:59:51.000Z</time>
</trkpt>
<trkpt lat="43.64259" lon="5.52165">
<ele>273.7</ele>
<time>2012-03-24T13:59:52.000Z</time>
</trkpt>
<trkpt lat="43.64262" lon="5.52174">
<ele>273.1</ele>
<time>2012-03-24T13:59:53.000Z</time>
</trkpt>
<trkpt lat="43.64265" lon="5.52183">
<ele>273</ele>
<time>2012-03-24T13:59:54.000Z</time>
</trkpt>
<trkpt lat="43.64268" lon="5.5219">
<ele>273.3</ele>
<time>2012-03-24T13:59:55.000Z</time>
</trkpt>
<trkpt lat="43.64271" lon="5.522">
<ele>272.9</ele>
<time>2012-03-24T13:59:56.000Z</time>
</trkpt>
<trkpt lat="43.64273" lon="5.52208">
<ele>273.5</ele>
<time>2012-03-24T13:59:57.000Z</time>
</trkpt>
<trkpt lat="43.64276" lon="5.52218">
<ele>273.5</ele>
<time>2012-03-24T13:59:58.000Z</time>
</trkpt>
<trkpt lat="43.64278" lon="5.52227">
<ele>273.5</ele>
<time>2012-03-24T13:59:59.000Z</time>
</trkpt>
<trkpt lat="43.6428" lon="5.52236">
<ele>273.5</ele>
<time>2012-03-24T14:00:00.000Z</time>
</trkpt>
<trkpt lat="43.64282" lon="5.52245">
<ele>273.5</ele>
<time>2012-03-24T14:00:01.000Z</time>
</trkpt>
<trkpt lat="43.64285" lon="5.52253">
<ele>273.6</ele>
<time>2012-03-24T14:00:02.000Z</time>
</trkpt>
<trkpt lat="43.64288" lon="5.5226">
<ele>274</ele>
<time>2012-03-24T14:00:03.000Z</time>
</trkpt>
<trkpt lat="43.6429" lon="5.52268">
<ele>273.9</ele>
<time>2012-03-24T14:00:04.000Z</time>
</trkpt>
<trkpt lat="43.64293" lon="5.52275">
<ele>274</ele>
<time>2012-03-24T14:00:05.000Z</time>
</trkpt>
<trkpt lat="43.64295" lon="5.52282">
<ele>273.6</ele>
<time>2012-03-24T14:00:06.000Z</time>
</trkpt>
<trkpt lat="43.64297" lon="5.5229">
<ele>274.2</ele>
<time>2012-03-24T14:00:07.000Z</time>
</trkpt>
<trkpt lat="43.64298" lon="5.52296">
<ele>274.3</ele>
<time>2012-03-24T14:00:08.000Z</time>
</trkpt>
<trkpt lat="43.643" lon="5.52302">
<ele>274.6</ele>
<time>2012-03-24T14:00:09.000Z</time>
</trkpt>
<trkpt lat="43.64301" lon="5.52315">
<ele>275.3</ele>
<time>2012-03-24T14:00:11.000Z</time>
</trkpt>
<trkpt lat="43.64303" lon="5.52327">
<ele>276.4</ele>
<time>2012-03-24T14:00:13.000Z</time>
</trkpt>
<trkpt lat="43.64303" lon="5.52339">
<ele>277</ele>
<time>2012-03-24T14:00:15.000Z</time>
</trkpt>
<trkpt lat="43.64298" lon="5.52348">
<ele>276.6</ele>
<time>2012-03-24T14:00:17.000Z</time>
</trkpt>
<trkpt lat="43.64292" lon="5.52354">
<ele>275.6</ele>
<time>2012-03-24T14:00:19.000Z</time>
</trkpt>
<trkpt lat="43.64288" lon="5.52358">
<ele>275.6</ele>
<time>2012-03-24T14:00:20.000Z</time>
</trkpt>
<trkpt lat="43.64283" lon="5.52362">
<ele>275.7</ele>
<time>2012-03-24T14:00:21.000Z</time>
</trkpt>
<trkpt lat="43.64279" lon="5.52365">
<ele>276.1</ele>
<time>2012-03-24T14:00:22.000Z</time>
</trkpt>
<trkpt lat="43.64275" lon="5.52368">
<ele>276.8</ele>
<time>2012-03-24T14:00:23.000Z</time>
</trkpt>
<trkpt lat="43.6427" lon="5.52373">
<ele>277.3</ele>
<time>2012-03-24T14:00:24.000Z</time>
</trkpt>
<trkpt lat="43.64266" lon="5.52377">
<ele>277</ele>
<time>2012-03-24T14:00:25.000Z</time>
</trkpt>
<trkpt lat="43.64262" lon="5.5238">
<ele>276.4</ele>
<time>2012-03-24T14:00:26.000Z</time>
</trkpt>
<trkpt lat="43.64257" lon="5.52384">
<ele>276.5</ele>
<time>2012-03-24T14:00:27.000Z</time>
</trkpt>
<trkpt lat="43.64252" lon="5.52388">
<ele>276.2</ele>
<time>2012-03-24T14:00:28.000Z</time>
</trkpt>
<trkpt lat="43.64248" lon="5.52392">
<ele>276.7</ele>
<time>2012-03-24T14:00:29.000Z</time>
</trkpt>
<trkpt lat="43.64244" lon="5.52395">
<ele>277.3</ele>
<time>2012-03-24T14:00:30.000Z</time>
</trkpt>
<trkpt lat="43.64239" lon="5.52399">
<ele>277.2</ele>
<time>2012-03-24T14:00:31.000Z</time>
</trkpt>
<trkpt lat="43.64233" lon="5.52403">
<ele>277.3</ele>
<time>2012-03-24T14:00:32.000Z</time>
</trkpt>
<trkpt lat="43.64229" lon="5.52407">
<ele>278</ele>
<time>2012-03-24T14:00:33.000Z</time>
</trkpt>
<trkpt lat="43.64224" lon="5.52411">
<ele>278.4</ele>
<time>2012-03-24T14:00:34.000Z</time>
</trkpt>
<trkpt lat="43.64219" lon="5.52415">
<ele>278.7</ele>
<time>2012-03-24T14:00:35.000Z</time>
</trkpt>
<trkpt lat="43.64214" lon="5.52419">
<ele>278.7</ele>
<time>2012-03-24T14:00:36.000Z</time>
</trkpt>
<trkpt lat="43.64209" lon="5.52424">
<ele>278.6</ele>
<time>2012-03-24T14:00:37.000Z</time>
</trkpt>
<trkpt lat="43.64204" lon="5.52428">
<ele>278.1</ele>
<time>2012-03-24T14:00:38.000Z</time>
</trkpt>
<trkpt lat="43.64199" lon="5.52431">
<ele>278.2</ele>
<time>2012-03-24T14:00:39.000Z</time>
</trkpt>
<trkpt lat="43.64194" lon="5.52435">
<ele>278.2</ele>
<time>2012-03-24T14:00:40.000Z</time>
</trkpt>
<trkpt lat="43.64189" lon="5.52439">
<ele>278.3</ele>
<time>2012-03-24T14:00:41.000Z</time>
</trkpt>
<trkpt lat="43.64184" lon="5.52444">
<ele>278.2</ele>
<time>2012-03-24T14:00:42.000Z</time>
</trkpt>
<trkpt lat="43.6418" lon="5.52449">
<ele>278.4</ele>
<time>2012-03-24T14:00:43.000Z</time>
</trkpt>
<trkpt lat="43.64174" lon="5.52454">
<ele>278.3</ele>
<time>2012-03-24T14:00:44.000Z</time>
</trkpt>
<trkpt lat="43.64168" lon="5.52458">
<ele>278.6</ele>
<time>2012-03-24T14:00:45.000Z</time>
</trkpt>
<trkpt lat="43.64163" lon="5.52461">
<ele>278.9</ele>
<time>2012-03-24T14:00:46.000Z</time>
</trkpt>
<trkpt lat="43.64158" lon="5.52467">
<ele>279.2</ele>
<time>2012-03-24T14:00:47.000Z</time>
</trkpt>
<trkpt lat="43.64152" lon="5.52472">
<ele>278.8</ele>
<time>2012-03-24T14:00:48.000Z</time>
</trkpt>
<trkpt lat="43.64147" lon="5.52477">
<ele>279.3</ele>
<time>2012-03-24T14:00:49.000Z</time>
</trkpt>
<trkpt lat="43.64142" lon="5.52482">
<ele>279.4</ele>
<time>2012-03-24T14:00:50.000Z</time>
</trkpt>
<trkpt lat="43.64137" lon="5.52486">
<ele>279.5</ele>
<time>2012-03-24T14:00:51.000Z</time>
</trkpt>
<trkpt lat="43.64133" lon="5.52491">
<ele>279.5</ele>
<time>2012-03-24T14:00:52.000Z</time>
</trkpt>
<trkpt lat="43.64128" lon="5.52494">
<ele>279.6</ele>
<time>2012-03-24T14:00:53.000Z</time>
</trkpt>
<trkpt lat="43.64123" lon="5.52498">
<ele>279.6</ele>
<time>2012-03-24T14:00:54.000Z</time>
</trkpt>
<trkpt lat="43.64118" lon="5.52502">
<ele>280</ele>
<time>2012-03-24T14:00:55.000Z</time>
</trkpt>
<trkpt lat="43.64113" lon="5.52506">
<ele>280.3</ele>
<time>2012-03-24T14:00:56.000Z</time>
</trkpt>
<trkpt lat="43.64107" lon="5.5251">
<ele>281</ele>
<time>2012-03-24T14:00:57.000Z</time>
</trkpt>
<trkpt lat="43.64102" lon="5.52513">
<ele>281</ele>
<time>2012-03-24T14:00:58.000Z</time>
</trkpt>
<trkpt lat="43.64097" lon="5.52517">
<ele>281</ele>
<time>2012-03-24T14:00:59.000Z</time>
</trkpt>
<trkpt lat="43.64092" lon="5.52522">
<ele>281.2</ele>
<time>2012-03-24T14:01:00.000Z</time>
</trkpt>
<trkpt lat="43.64086" lon="5.52527">
<ele>281</ele>
<time>2012-03-24T14:01:01.000Z</time>
</trkpt>
<trkpt lat="43.64081" lon="5.52531">
<ele>280.9</ele>
<time>2012-03-24T14:01:02.000Z</time>
</trkpt>
<trkpt lat="43.64076" lon="5.52535">
<ele>281.1</ele>
<time>2012-03-24T14:01:03.000Z</time>
</trkpt>
<trkpt lat="43.64071" lon="5.52539">
<ele>281.3</ele>
<time>2012-03-24T14:01:04.000Z</time>
</trkpt>
<trkpt lat="43.64065" lon="5.52542">
<ele>281.4</ele>
<time>2012-03-24T14:01:05.000Z</time>
</trkpt>
<trkpt lat="43.64059" lon="5.52541">
<ele>282</ele>
<time>2012-03-24T14:01:06.000Z</time>
</trkpt>
<trkpt lat="43.64054" lon="5.52541">
<ele>282.1</ele>
<time>2012-03-24T14:01:07.000Z</time>
</trkpt>
<trkpt lat="43.64048" lon="5.52541">
<ele>282.3</ele>
<time>2012-03-24T14:01:08.000Z</time>
</trkpt>
<trkpt lat="43.64044" lon="5.52542">
<ele>282.4</ele>
<time>2012-03-24T14:01:09.000Z</time>
</trkpt>
<trkpt lat="43.64039" lon="5.52547">
<ele>282.1</ele>
<time>2012-03-24T14:01:10.000Z</time>
</trkpt>
<trkpt lat="43.64036" lon="5.52553">
<ele>282.4</ele>
<time>2012-03-24T14:01:11.000Z</time>
</trkpt>
<trkpt lat="43.64036" lon="5.5256">
<ele>282.4</ele>
<time>2012-03-24T14:01:12.000Z</time>
</trkpt>
<trkpt lat="43.64037" lon="5.52567">
<ele>282.6</ele>
<time>2012-03-24T14:01:13.000Z</time>
</trkpt>
<trkpt lat="43.64042" lon="5.52575">
<ele>282.4</ele>
<time>2012-03-24T14:01:14.000Z</time>
</trkpt>
<trkpt lat="43.64046" lon="5.52582">
<ele>282.9</ele>
<time>2012-03-24T14:01:15.000Z</time>
</trkpt>
<trkpt lat="43.6405" lon="5.52588">
<ele>283.1</ele>
<time>2012-03-24T14:01:16.000Z</time>
</trkpt>
<trkpt lat="43.64055" lon="5.52595">
<ele>282.9</ele>
<time>2012-03-24T14:01:17.000Z</time>
</trkpt>
<trkpt lat="43.64059" lon="5.52602">
<ele>283.1</ele>
<time>2012-03-24T14:01:18.000Z</time>
</trkpt>
<trkpt lat="43.64062" lon="5.5261">
<ele>282.8</ele>
<time>2012-03-24T14:01:19.000Z</time>
</trkpt>
<trkpt lat="43.64064" lon="5.52618">
<ele>282.6</ele>
<time>2012-03-24T14:01:20.000Z</time>
</trkpt>
<trkpt lat="43.64065" lon="5.52626">
<ele>282.4</ele>
<time>2012-03-24T14:01:21.000Z</time>
</trkpt>
<trkpt lat="43.64066" lon="5.52634">
<ele>282.4</ele>
<time>2012-03-24T14:01:22.000Z</time>
</trkpt>
<trkpt lat="43.64068" lon="5.52641">
<ele>282.3</ele>
<time>2012-03-24T14:01:23.000Z</time>
</trkpt>
<trkpt lat="43.64069" lon="5.5265">
<ele>282.7</ele>
<time>2012-03-24T14:01:24.000Z</time>
</trkpt>
<trkpt lat="43.64071" lon="5.52657">
<ele>283.3</ele>
<time>2012-03-24T14:01:25.000Z</time>
</trkpt>
<trkpt lat="43.64072" lon="5.52665">
<ele>283.3</ele>
<time>2012-03-24T14:01:26.000Z</time>
</trkpt>
<trkpt lat="43.64073" lon="5.52674">
<ele>283.5</ele>
<time>2012-03-24T14:01:27.000Z</time>
</trkpt>
<trkpt lat="43.64074" lon="5.52682">
<ele>283.5</ele>
<time>2012-03-24T14:01:28.000Z</time>
</trkpt>
<trkpt lat="43.64076" lon="5.52691">
<ele>284</ele>
<time>2012-03-24T14:01:29.000Z</time>
</trkpt>
<trkpt lat="43.64078" lon="5.527">
<ele>283.9</ele>
<time>2012-03-24T14:01:30.000Z</time>
</trkpt>
<trkpt lat="43.64079" lon="5.52708">
<ele>284.2</ele>
<time>2012-03-24T14:01:31.000Z</time>
</trkpt>
<trkpt lat="43.6408" lon="5.52717">
<ele>284.1</ele>
<time>2012-03-24T14:01:32.000Z</time>
</trkpt>
<trkpt lat="43.64082" lon="5.52726">
<ele>284.3</ele>
<time>2012-03-24T14:01:33.000Z</time>
</trkpt>
<trkpt lat="43.64084" lon="5.52734">
<ele>283.9</ele>
<time>2012-03-24T14:01:34.000Z</time>
</trkpt>
<trkpt lat="43.64086" lon="5.52743">
<ele>283.8</ele>
<time>2012-03-24T14:01:35.000Z</time>
</trkpt>
<trkpt lat="43.64087" lon="5.52751">
<ele>283.9</ele>
<time>2012-03-24T14:01:36.000Z</time>
</trkpt>
<trkpt lat="43.6409" lon="5.5276">
<ele>283.8</ele>
<time>2012-03-24T14:01:37.000Z</time>
</trkpt>
<trkpt lat="43.6409" lon="5.52769">
<ele>283.1</ele>
<time>2012-03-24T14:01:38.000Z</time>
</trkpt>
<trkpt lat="43.64092" lon="5.52779">
<ele>282.7</ele>
<time>2012-03-24T14:01:39.000Z</time>
</trkpt>
<trkpt lat="43.64094" lon="5.52789">
<ele>282.8</ele>
<time>2012-03-24T14:01:40.000Z</time>
</trkpt>
<trkpt lat="43.64096" lon="5.52799">
<ele>282.3</ele>
<time>2012-03-24T14:01:41.000Z</time>
</trkpt>
<trkpt lat="43.64098" lon="5.52808">
<ele>282.5</ele>
<time>2012-03-24T14:01:42.000Z</time>
</trkpt>
<trkpt lat="43.641" lon="5.52819">
<ele>282.4</ele>
<time>2012-03-24T14:01:43.000Z</time>
</trkpt>
<trkpt lat="43.64102" lon="5.52829">
<ele>282.3</ele>
<time>2012-03-24T14:01:44.000Z</time>
</trkpt>
<trkpt lat="43.64103" lon="5.5284">
<ele>281.6</ele>
<time>2012-03-24T14:01:45.000Z</time>
</trkpt>
<trkpt lat="43.64105" lon="5.52851">
<ele>282</ele>
<time>2012-03-24T14:01:46.000Z</time>
</trkpt>
<trkpt lat="43.64106" lon="5.52862">
<ele>282.2</ele>
<time>2012-03-24T14:01:47.000Z</time>
</trkpt>
<trkpt lat="43.64108" lon="5.52872">
<ele>282.6</ele>
<time>2012-03-24T14:01:48.000Z</time>
</trkpt>
<trkpt lat="43.6411" lon="5.52884">
<ele>282.4</ele>
<time>2012-03-24T14:01:49.000Z</time>
</trkpt>
<trkpt lat="43.64111" lon="5.52894">
<ele>282.9</ele>
<time>2012-03-24T14:01:50.000Z</time>
</trkpt>
<trkpt lat="43.64113" lon="5.52907">
<ele>282.5</ele>
<time>2012-03-24T14:01:51.000Z</time>
</trkpt>
<trkpt lat="43.64115" lon="5.52919">
<ele>282.3</ele>
<time>2012-03-24T14:01:52.000Z</time>
</trkpt>
<trkpt lat="43.64118" lon="5.52931">
<ele>282.4</ele>
<time>2012-03-24T14:01:53.000Z</time>
</trkpt>
<trkpt lat="43.64121" lon="5.52943">
<ele>282</ele>
<time>2012-03-24T14:01:54.000Z</time>
</trkpt>
<trkpt lat="43.64123" lon="5.52957">
<ele>280.4</ele>
<time>2012-03-24T14:01:55.000Z</time>
</trkpt>
<trkpt lat="43.64126" lon="5.5297">
<ele>280.1</ele>
<time>2012-03-24T14:01:56.000Z</time>
</trkpt>
<trkpt lat="43.64128" lon="5.52985">
<ele>278.9</ele>
<time>2012-03-24T14:01:57.000Z</time>
</trkpt>
<trkpt lat="43.64131" lon="5.52999">
<ele>278.6</ele>
<time>2012-03-24T14:01:58.000Z</time>
</trkpt>
<trkpt lat="43.64133" lon="5.53015">
<ele>278.5</ele>
<time>2012-03-24T14:01:59.000Z</time>
</trkpt>
<trkpt lat="43.64134" lon="5.53029">
<ele>277.8</ele>
<time>2012-03-24T14:02:00.000Z</time>
</trkpt>
<trkpt lat="43.64138" lon="5.53044">
<ele>276.5</ele>
<time>2012-03-24T14:02:01.000Z</time>
</trkpt>
<trkpt lat="43.6414" lon="5.53058">
<ele>277.1</ele>
<time>2012-03-24T14:02:02.000Z</time>
</trkpt>
<trkpt lat="43.64143" lon="5.53072">
<ele>276.4</ele>
<time>2012-03-24T14:02:03.000Z</time>
</trkpt>
<trkpt lat="43.64146" lon="5.53087">
<ele>275.8</ele>
<time>2012-03-24T14:02:04.000Z</time>
</trkpt>
<trkpt lat="43.64148" lon="5.53102">
<ele>275.5</ele>
<time>2012-03-24T14:02:05.000Z</time>
</trkpt>
<trkpt lat="43.64151" lon="5.53118">
<ele>275</ele>
<time>2012-03-24T14:02:06.000Z</time>
</trkpt>
<trkpt lat="43.64153" lon="5.53134">
<ele>274.6</ele>
<time>2012-03-24T14:02:07.000Z</time>
</trkpt>
<trkpt lat="43.64155" lon="5.53149">
<ele>274.4</ele>
<time>2012-03-24T14:02:08.000Z</time>
</trkpt>
<trkpt lat="43.64158" lon="5.53167">
<ele>274.3</ele>
<time>2012-03-24T14:02:09.000Z</time>
</trkpt>
<trkpt lat="43.64162" lon="5.53185">
<ele>273.9</ele>
<time>2012-03-24T14:02:10.000Z</time>
</trkpt>
<trkpt lat="43.64165" lon="5.53204">
<ele>273.3</ele>
<time>2012-03-24T14:02:11.000Z</time>
</trkpt>
<trkpt lat="43.64168" lon="5.5322">
<ele>272.1</ele>
<time>2012-03-24T14:02:12.000Z</time>
</trkpt>
<trkpt lat="43.64171" lon="5.53238">
<ele>271.8</ele>
<time>2012-03-24T14:02:13.000Z</time>
</trkpt>
<trkpt lat="43.64174" lon="5.53252">
<ele>271.4</ele>
<time>2012-03-24T14:02:14.000Z</time>
</trkpt>
<trkpt lat="43.64177" lon="5.53268">
<ele>271.3</ele>
<time>2012-03-24T14:02:15.000Z</time>
</trkpt>
<trkpt lat="43.64179" lon="5.53284">
<ele>271.2</ele>
<time>2012-03-24T14:02:16.000Z</time>
</trkpt>
<trkpt lat="43.64181" lon="5.53301">
<ele>271</ele>
<time>2012-03-24T14:02:17.000Z</time>
</trkpt>
<trkpt lat="43.64185" lon="5.53316">
<ele>270.4</ele>
<time>2012-03-24T14:02:18.000Z</time>
</trkpt>
<trkpt lat="43.64189" lon="5.53334">
<ele>270.7</ele>
<time>2012-03-24T14:02:19.000Z</time>
</trkpt>
<trkpt lat="43.64193" lon="5.53347">
<ele>269.8</ele>
<time>2012-03-24T14:02:20.000Z</time>
</trkpt>
<trkpt lat="43.64197" lon="5.53363">
<ele>270.1</ele>
<time>2012-03-24T14:02:21.000Z</time>
</trkpt>
<trkpt lat="43.642" lon="5.53378">
<ele>270</ele>
<time>2012-03-24T14:02:22.000Z</time>
</trkpt>
<trkpt lat="43.64207" lon="5.53394">
<ele>270</ele>
<time>2012-03-24T14:02:23.000Z</time>
</trkpt>
<trkpt lat="43.64213" lon="5.53409">
<ele>269.5</ele>
<time>2012-03-24T14:02:24.000Z</time>
</trkpt>
<trkpt lat="43.64216" lon="5.53424">
<ele>269.1</ele>
<time>2012-03-24T14:02:25.000Z</time>
</trkpt>
<trkpt lat="43.64215" lon="5.53435">
<ele>269.1</ele>
<time>2012-03-24T14:02:26.000Z</time>
</trkpt>
<trkpt lat="43.64215" lon="5.53447">
<ele>268.2</ele>
<time>2012-03-24T14:02:27.000Z</time>
</trkpt>
<trkpt lat="43.64215" lon="5.53455">
<ele>268.2</ele>
<time>2012-03-24T14:02:28.000Z</time>
</trkpt>
<trkpt lat="43.64214" lon="5.53464">
<ele>268.3</ele>
<time>2012-03-24T14:02:29.000Z</time>
</trkpt>
<trkpt lat="43.64211" lon="5.53476">
<ele>268.3</ele>
<time>2012-03-24T14:02:30.000Z</time>
</trkpt>
<trkpt lat="43.6421" lon="5.53483">
<ele>267.4</ele>
<time>2012-03-24T14:02:31.000Z</time>
</trkpt>
<trkpt lat="43.64215" lon="5.53488">
<ele>267.1</ele>
<time>2012-03-24T14:02:33.000Z</time>
</trkpt>
<trkpt lat="43.64218" lon="5.53496">
<ele>266.8</ele>
<time>2012-03-24T14:02:34.000Z</time>
</trkpt>
<trkpt lat="43.6422" lon="5.53503">
<ele>266.8</ele>
<time>2012-03-24T14:02:35.000Z</time>
</trkpt>
<trkpt lat="43.64222" lon="5.53511">
<ele>267.1</ele>
<time>2012-03-24T14:02:36.000Z</time>
</trkpt>
<trkpt lat="43.64224" lon="5.53521">
<ele>267.1</ele>
<time>2012-03-24T14:02:37.000Z</time>
</trkpt>
<trkpt lat="43.64225" lon="5.53531">
<ele>267.4</ele>
<time>2012-03-24T14:02:38.000Z</time>
</trkpt>
<trkpt lat="43.64227" lon="5.53541">
<ele>267.7</ele>
<time>2012-03-24T14:02:39.000Z</time>
</trkpt>
<trkpt lat="43.64229" lon="5.5355">
<ele>268.3</ele>
<time>2012-03-24T14:02:40.000Z</time>
</trkpt>
<trkpt lat="43.64231" lon="5.5356">
<ele>268.7</ele>
<time>2012-03-24T14:02:41.000Z</time>
</trkpt>
<trkpt lat="43.64234" lon="5.5357">
<ele>267.8</ele>
<time>2012-03-24T14:02:42.000Z</time>
</trkpt>
<trkpt lat="43.64236" lon="5.53581">
<ele>267.6</ele>
<time>2012-03-24T14:02:43.000Z</time>
</trkpt>
<trkpt lat="43.64239" lon="5.53591">
<ele>267.3</ele>
<time>2012-03-24T14:02:44.000Z</time>
</trkpt>
<trkpt lat="43.6424" lon="5.53602">
<ele>267.2</ele>
<time>2012-03-24T14:02:45.000Z</time>
</trkpt>
<trkpt lat="43.64243" lon="5.53613">
<ele>267.3</ele>
<time>2012-03-24T14:02:46.000Z</time>
</trkpt>
<trkpt lat="43.64245" lon="5.53624">
<ele>267.6</ele>
<time>2012-03-24T14:02:47.000Z</time>
</trkpt>
<trkpt lat="43.64246" lon="5.53636">
<ele>267.7</ele>
<time>2012-03-24T14:02:48.000Z</time>
</trkpt>
<trkpt lat="43.6425" lon="5.53648">
<ele>267.4</ele>
<time>2012-03-24T14:02:49.000Z</time>
</trkpt>
<trkpt lat="43.64252" lon="5.53659">
<ele>266.5</ele>
<time>2012-03-24T14:02:50.000Z</time>
</trkpt>
<trkpt lat="43.64255" lon="5.5367">
<ele>266.6</ele>
<time>2012-03-24T14:02:51.000Z</time>
</trkpt>
<trkpt lat="43.64257" lon="5.5368">
<ele>266.5</ele>
<time>2012-03-24T14:02:52.000Z</time>
</trkpt>
<trkpt lat="43.64259" lon="5.53691">
<ele>266.4</ele>
<time>2012-03-24T14:02:53.000Z</time>
</trkpt>
<trkpt lat="43.64262" lon="5.53702">
<ele>265.8</ele>
<time>2012-03-24T14:02:54.000Z</time>
</trkpt>
<trkpt lat="43.64263" lon="5.53714">
<ele>266</ele>
<time>2012-03-24T14:02:55.000Z</time>
</trkpt>
<trkpt lat="43.64266" lon="5.53725">
<ele>265.5</ele>
<time>2012-03-24T14:02:56.000Z</time>
</trkpt>
<trkpt lat="43.64268" lon="5.53735">
<ele>265.3</ele>
<time>2012-03-24T14:02:57.000Z</time>
</trkpt>
<trkpt lat="43.6427" lon="5.53744">
<ele>265.3</ele>
<time>2012-03-24T14:02:58.000Z</time>
</trkpt>
<trkpt lat="43.64273" lon="5.53755">
<ele>265.5</ele>
<time>2012-03-24T14:02:59.000Z</time>
</trkpt>
<trkpt lat="43.64276" lon="5.53766">
<ele>265.1</ele>
<time>2012-03-24T14:03:00.000Z</time>
</trkpt>
<trkpt lat="43.64278" lon="5.53776">
<ele>264.9</ele>
<time>2012-03-24T14:03:01.000Z</time>
</trkpt>
<trkpt lat="43.64281" lon="5.53787">
<ele>264.9</ele>
<time>2012-03-24T14:03:02.000Z</time>
</trkpt>
<trkpt lat="43.64283" lon="5.53799">
<ele>264.7</ele>
<time>2012-03-24T14:03:03.000Z</time>
</trkpt>
<trkpt lat="43.64284" lon="5.53811">
<ele>264.8</ele>
<time>2012-03-24T14:03:04.000Z</time>
</trkpt>
<trkpt lat="43.64288" lon="5.5382">
<ele>265.4</ele>
<time>2012-03-24T14:03:05.000Z</time>
</trkpt>
<trkpt lat="43.64291" lon="5.53833">
<ele>265.7</ele>
<time>2012-03-24T14:03:06.000Z</time>
</trkpt>
<trkpt lat="43.64294" lon="5.53846">
<ele>265.2</ele>
<time>2012-03-24T14:03:07.000Z</time>
</trkpt>
<trkpt lat="43.64296" lon="5.53858">
<ele>265.6</ele>
<time>2012-03-24T14:03:08.000Z</time>
</trkpt>
<trkpt lat="43.64298" lon="5.53868">
<ele>265.7</ele>
<time>2012-03-24T14:03:09.000Z</time>
</trkpt>
<trkpt lat="43.64301" lon="5.53879">
<ele>266.2</ele>
<time>2012-03-24T14:03:10.000Z</time>
</trkpt>
<trkpt lat="43.64303" lon="5.53889">
<ele>266.2</ele>
<time>2012-03-24T14:03:11.000Z</time>
</trkpt>
<trkpt lat="43.64307" lon="5.53902">
<ele>266.5</ele>
<time>2012-03-24T14:03:12.000Z</time>
</trkpt>
<trkpt lat="43.6431" lon="5.53914">
<ele>267.5</ele>
<time>2012-03-24T14:03:13.000Z</time>
</trkpt>
<trkpt lat="43.64313" lon="5.53922">
<ele>267.8</ele>
<time>2012-03-24T14:03:14.000Z</time>
</trkpt>
<trkpt lat="43.64314" lon="5.53933">
<ele>268.2</ele>
<time>2012-03-24T14:03:15.000Z</time>
</trkpt>
<trkpt lat="43.64319" lon="5.53944">
<ele>268.3</ele>
<time>2012-03-24T14:03:16.000Z</time>
</trkpt>
<trkpt lat="43.64319" lon="5.53956">
<ele>268.4</ele>
<time>2012-03-24T14:03:17.000Z</time>
</trkpt>
<trkpt lat="43.64322" lon="5.5397">
<ele>268.7</ele>
<time>2012-03-24T14:03:18.000Z</time>
</trkpt>
<trkpt lat="43.64324" lon="5.5398">
<ele>268.9</ele>
<time>2012-03-24T14:03:19.000Z</time>
</trkpt>
<trkpt lat="43.64326" lon="5.5399">
<ele>269</ele>
<time>2012-03-24T14:03:20.000Z</time>
</trkpt>
<trkpt lat="43.64325" lon="5.54002">
<ele>269.1</ele>
<time>2012-03-24T14:03:21.000Z</time>
</trkpt>
<trkpt lat="43.64324" lon="5.54013">
<ele>268.9</ele>
<time>2012-03-24T14:03:22.000Z</time>
</trkpt>
<trkpt lat="43.64324" lon="5.54023">
<ele>269.1</ele>
<time>2012-03-24T14:03:23.000Z</time>
</trkpt>
<trkpt lat="43.64322" lon="5.54034">
<ele>268.6</ele>
<time>2012-03-24T14:03:24.000Z</time>
</trkpt>
<trkpt lat="43.64323" lon="5.54045">
<ele>268.4</ele>
<time>2012-03-24T14:03:25.000Z</time>
</trkpt>
<trkpt lat="43.64323" lon="5.54056">
<ele>268.3</ele>
<time>2012-03-24T14:03:26.000Z</time>
</trkpt>
<trkpt lat="43.64323" lon="5.54068">
<ele>268.9</ele>
<time>2012-03-24T14:03:27.000Z</time>
</trkpt>
<trkpt lat="43.64322" lon="5.5408">
<ele>268.9</ele>
<time>2012-03-24T14:03:28.000Z</time>
</trkpt>
<trkpt lat="43.64323" lon="5.5409">
<ele>269.2</ele>
<time>2012-03-24T14:03:29.000Z</time>
</trkpt>
<trkpt lat="43.64324" lon="5.54101">
<ele>269.1</ele>
<time>2012-03-24T14:03:30.000Z</time>
</trkpt>
<trkpt lat="43.64325" lon="5.54112">
<ele>269</ele>
<time>2012-03-24T14:03:31.000Z</time>
</trkpt>
<trkpt lat="43.64325" lon="5.54121">
<ele>269.3</ele>
<time>2012-03-24T14:03:32.000Z</time>
</trkpt>
<trkpt lat="43.64324" lon="5.54132">
<ele>269.2</ele>
<time>2012-03-24T14:03:33.000Z</time>
</trkpt>
<trkpt lat="43.64323" lon="5.54142">
<ele>269.1</ele>
<time>2012-03-24T14:03:34.000Z</time>
</trkpt>
<trkpt lat="43.64322" lon="5.54152">
<ele>268.3</ele>
<time>2012-03-24T14:03:35.000Z</time>
</trkpt>
<trkpt lat="43.6432" lon="5.54162">
<ele>268.1</ele>
<time>2012-03-24T14:03:36.000Z</time>
</trkpt>
<trkpt lat="43.6432" lon="5.54172">
<ele>268.1</ele>
<time>2012-03-24T14:03:37.000Z</time>
</trkpt>
<trkpt lat="43.64321" lon="5.54183">
<ele>268.3</ele>
<time>2012-03-24T14:03:38.000Z</time>
</trkpt>
<trkpt lat="43.6432" lon="5.54191">
<ele>268.3</ele>
<time>2012-03-24T14:03:39.000Z</time>
</trkpt>
<trkpt lat="43.64321" lon="5.54201">
<ele>268.3</ele>
<time>2012-03-24T14:03:40.000Z</time>
</trkpt>
<trkpt lat="43.6432" lon="5.54211">
<ele>268.6</ele>
<time>2012-03-24T14:03:41.000Z</time>
</trkpt>
<trkpt lat="43.64319" lon="5.54223">
<ele>268.7</ele>
<time>2012-03-24T14:03:42.000Z</time>
</trkpt>
<trkpt lat="43.64316" lon="5.54235">
<ele>268.8</ele>
<time>2012-03-24T14:03:43.000Z</time>
</trkpt>
<trkpt lat="43.64317" lon="5.54245">
<ele>268.6</ele>
<time>2012-03-24T14:03:44.000Z</time>
</trkpt>
<trkpt lat="43.64316" lon="5.54255">
<ele>268.2</ele>
<time>2012-03-24T14:03:45.000Z</time>
</trkpt>
<trkpt lat="43.64316" lon="5.54265">
<ele>267.7</ele>
<time>2012-03-24T14:03:46.000Z</time>
</trkpt>
<trkpt lat="43.64317" lon="5.54275">
<ele>267.7</ele>
<time>2012-03-24T14:03:47.000Z</time>
</trkpt>
<trkpt lat="43.64317" lon="5.54286">
<ele>267.6</ele>
<time>2012-03-24T14:03:48.000Z</time>
</trkpt>
<trkpt lat="43.64318" lon="5.54298">
<ele>267</ele>
<time>2012-03-24T14:03:49.000Z</time>
</trkpt>
<trkpt lat="43.64317" lon="5.54306">
<ele>266.8</ele>
<time>2012-03-24T14:03:50.000Z</time>
</trkpt>
<trkpt lat="43.64317" lon="5.54318">
<ele>266.7</ele>
<time>2012-03-24T14:03:51.000Z</time>
</trkpt>
<trkpt lat="43.64319" lon="5.54328">
<ele>267</ele>
<time>2012-03-24T14:03:52.000Z</time>
</trkpt>
<trkpt lat="43.64319" lon="5.54335">
<ele>267.2</ele>
<time>2012-03-24T14:03:53.000Z</time>
</trkpt>
<trkpt lat="43.64318" lon="5.54342">
<ele>266.6</ele>
<time>2012-03-24T14:03:54.000Z</time>
</trkpt>
<trkpt lat="43.64318" lon="5.54349">
<ele>266.5</ele>
<time>2012-03-24T14:03:55.000Z</time>
</trkpt>
<trkpt lat="43.64313" lon="5.54361">
<ele>266.2</ele>
<time>2012-03-24T14:03:57.000Z</time>
</trkpt>
<trkpt lat="43.64308" lon="5.54366">
<ele>265.7</ele>
<time>2012-03-24T14:03:58.000Z</time>
</trkpt>
<trkpt lat="43.64303" lon="5.5437">
<ele>263.7</ele>
<time>2012-03-24T14:03:59.000Z</time>
</trkpt>
<trkpt lat="43.64295" lon="5.54369">
<ele>263.9</ele>
<time>2012-03-24T14:04:00.000Z</time>
</trkpt>
<trkpt lat="43.64288" lon="5.5437">
<ele>264.1</ele>
<time>2012-03-24T14:04:01.000Z</time>
</trkpt>
<trkpt lat="43.64283" lon="5.54369">
<ele>264.9</ele>
<time>2012-03-24T14:04:02.000Z</time>
</trkpt>
<trkpt lat="43.64277" lon="5.54369">
<ele>266.1</ele>
<time>2012-03-24T14:04:03.000Z</time>
</trkpt>
<trkpt lat="43.64268" lon="5.54366">
<ele>265.4</ele>
<time>2012-03-24T14:04:05.000Z</time>
</trkpt>
<trkpt lat="43.64263" lon="5.54364">
<ele>265.2</ele>
<time>2012-03-24T14:04:06.000Z</time>
</trkpt>
<trkpt lat="43.64258" lon="5.54363">
<ele>265.4</ele>
<time>2012-03-24T14:04:07.000Z</time>
</trkpt>
<trkpt lat="43.64254" lon="5.54362">
<ele>265.8</ele>
<time>2012-03-24T14:04:08.000Z</time>
</trkpt>
<trkpt lat="43.64249" lon="5.5436">
<ele>266</ele>
<time>2012-03-24T14:04:09.000Z</time>
</trkpt>
<trkpt lat="43.64244" lon="5.54359">
<ele>266.4</ele>
<time>2012-03-24T14:04:10.000Z</time>
</trkpt>
<trkpt lat="43.64239" lon="5.54357">
<ele>266.2</ele>
<time>2012-03-24T14:04:11.000Z</time>
</trkpt>
<trkpt lat="43.64235" lon="5.54356">
<ele>267.3</ele>
<time>2012-03-24T14:04:12.000Z</time>
</trkpt>
<trkpt lat="43.6423" lon="5.54354">
<ele>267.5</ele>
<time>2012-03-24T14:04:13.000Z</time>
</trkpt>
<trkpt lat="43.64225" lon="5.54352">
<ele>267.4</ele>
<time>2012-03-24T14:04:14.000Z</time>
</trkpt>
<trkpt lat="43.64221" lon="5.5435">
<ele>267.8</ele>
<time>2012-03-24T14:04:15.000Z</time>
</trkpt>
<trkpt lat="43.64216" lon="5.54348">
<ele>268.2</ele>
<time>2012-03-24T14:04:16.000Z</time>
</trkpt>
<trkpt lat="43.64208" lon="5.54346">
<ele>270.3</ele>
<time>2012-03-24T14:04:18.000Z</time>
</trkpt>
<trkpt lat="43.64202" lon="5.54345">
<ele>269.5</ele>
<time>2012-03-24T14:04:20.000Z</time>
</trkpt>
<trkpt lat="43.64196" lon="5.54347">
<ele>269.1</ele>
<time>2012-03-24T14:04:22.000Z</time>
</trkpt>
<trkpt lat="43.64193" lon="5.54352">
<ele>268.9</ele>
<time>2012-03-24T14:04:24.000Z</time>
</trkpt>
<trkpt lat="43.64193" lon="5.54359">
<ele>268.5</ele>
<time>2012-03-24T14:04:26.000Z</time>
</trkpt>
<trkpt lat="43.64194" lon="5.54366">
<ele>268.8</ele>
<time>2012-03-24T14:04:28.000Z</time>
</trkpt>
<trkpt lat="43.64199" lon="5.54377">
<ele>269.3</ele>
<time>2012-03-24T14:04:30.000Z</time>
</trkpt>
<trkpt lat="43.64203" lon="5.54385">
<ele>269.4</ele>
<time>2012-03-24T14:04:32.000Z</time>
</trkpt>
<trkpt lat="43.64198" lon="5.54393">
<ele>270.5</ele>
<time>2012-03-24T14:04:35.000Z</time>
</trkpt>
<trkpt lat="43.64194" lon="5.54396">
<ele>270.8</ele>
<time>2012-03-24T14:04:36.000Z</time>
</trkpt>
<trkpt lat="43.6419" lon="5.544">
<ele>270.9</ele>
<time>2012-03-24T14:04:37.000Z</time>
</trkpt>
<trkpt lat="43.64183" lon="5.54406">
<ele>271.4</ele>
<time>2012-03-24T14:04:39.000Z</time>
</trkpt>
<trkpt lat="43.64179" lon="5.54412">
<ele>271.3</ele>
<time>2012-03-24T14:04:41.000Z</time>
</trkpt>
<trkpt lat="43.64178" lon="5.54424">
<ele>270.2</ele>
<time>2012-03-24T14:04:43.000Z</time>
</trkpt>
<trkpt lat="43.64175" lon="5.54432">
<ele>269.4</ele>
<time>2012-03-24T14:04:44.000Z</time>
</trkpt>
<trkpt lat="43.64171" lon="5.54444">
<ele>268.3</ele>
<time>2012-03-24T14:04:45.000Z</time>
</trkpt>
<trkpt lat="43.64164" lon="5.54451">
<ele>268.6</ele>
<time>2012-03-24T14:04:46.000Z</time>
</trkpt>
<trkpt lat="43.6416" lon="5.5446">
<ele>269</ele>
<time>2012-03-24T14:04:47.000Z</time>
</trkpt>
<trkpt lat="43.64156" lon="5.54469">
<ele>269.1</ele>
<time>2012-03-24T14:04:48.000Z</time>
</trkpt>
<trkpt lat="43.64152" lon="5.54478">
<ele>269.3</ele>
<time>2012-03-24T14:04:49.000Z</time>
</trkpt>
<trkpt lat="43.64148" lon="5.54487">
<ele>269.7</ele>
<time>2012-03-24T14:04:50.000Z</time>
</trkpt>
<trkpt lat="43.64144" lon="5.54496">
<ele>270.3</ele>
<time>2012-03-24T14:04:51.000Z</time>
</trkpt>
<trkpt lat="43.6414" lon="5.54505">
<ele>270.3</ele>
<time>2012-03-24T14:04:52.000Z</time>
</trkpt>
<trkpt lat="43.64136" lon="5.54514">
<ele>270.2</ele>
<time>2012-03-24T14:04:53.000Z</time>
</trkpt>
<trkpt lat="43.64132" lon="5.54521">
<ele>270.5</ele>
<time>2012-03-24T14:04:54.000Z</time>
</trkpt>
<trkpt lat="43.64128" lon="5.5453">
<ele>270.5</ele>
<time>2012-03-24T14:04:55.000Z</time>
</trkpt>
<trkpt lat="43.64125" lon="5.54536">
<ele>270</ele>
<time>2012-03-24T14:04:56.000Z</time>
</trkpt>
<trkpt lat="43.64121" lon="5.54543">
<ele>270.1</ele>
<time>2012-03-24T14:04:57.000Z</time>
</trkpt>
<trkpt lat="43.64117" lon="5.54552">
<ele>270.4</ele>
<time>2012-03-24T14:04:58.000Z</time>
</trkpt>
<trkpt lat="43.64116" lon="5.54559">
<ele>270.4</ele>
<time>2012-03-24T14:04:59.000Z</time>
</trkpt>
<trkpt lat="43.64112" lon="5.54566">
<ele>269.7</ele>
<time>2012-03-24T14:05:00.000Z</time>
</trkpt>
<trkpt lat="43.64108" lon="5.54572">
<ele>269.9</ele>
<time>2012-03-24T14:05:01.000Z</time>
</trkpt>
<trkpt lat="43.64104" lon="5.54578">
<ele>269.7</ele>
<time>2012-03-24T14:05:02.000Z</time>
</trkpt>
<trkpt lat="43.64102" lon="5.54585">
<ele>269.3</ele>
<time>2012-03-24T14:05:03.000Z</time>
</trkpt>
<trkpt lat="43.64098" lon="5.54592">
<ele>269.1</ele>
<time>2012-03-24T14:05:04.000Z</time>
</trkpt>
<trkpt lat="43.64095" lon="5.54599">
<ele>268.5</ele>
<time>2012-03-24T14:05:05.000Z</time>
</trkpt>
<trkpt lat="43.6409" lon="5.54608">
<ele>268.5</ele>
<time>2012-03-24T14:05:06.000Z</time>
</trkpt>
<trkpt lat="43.64087" lon="5.54615">
<ele>268</ele>
<time>2012-03-24T14:05:07.000Z</time>
</trkpt>
<trkpt lat="43.64083" lon="5.54623">
<ele>268.1</ele>
<time>2012-03-24T14:05:08.000Z</time>
</trkpt>
<trkpt lat="43.64079" lon="5.54632">
<ele>268</ele>
<time>2012-03-24T14:05:09.000Z</time>
</trkpt>
<trkpt lat="43.64075" lon="5.5464">
<ele>267.2</ele>
<time>2012-03-24T14:05:10.000Z</time>
</trkpt>
<trkpt lat="43.64072" lon="5.54647">
<ele>267.2</ele>
<time>2012-03-24T14:05:11.000Z</time>
</trkpt>
<trkpt lat="43.64068" lon="5.54654">
<ele>267</ele>
<time>2012-03-24T14:05:12.000Z</time>
</trkpt>
<trkpt lat="43.64067" lon="5.5466">
<ele>266.9</ele>
<time>2012-03-24T14:05:13.000Z</time>
</trkpt>
<trkpt lat="43.64066" lon="5.54666">
<ele>267.1</ele>
<time>2012-03-24T14:05:14.000Z</time>
</trkpt>
<trkpt lat="43.64066" lon="5.54674">
<ele>267</ele>
<time>2012-03-24T14:05:15.000Z</time>
</trkpt>
<trkpt lat="43.64065" lon="5.5468">
<ele>267</ele>
<time>2012-03-24T14:05:16.000Z</time>
</trkpt>
<trkpt lat="43.64065" lon="5.54688">
<ele>266.7</ele>
<time>2012-03-24T14:05:17.000Z</time>
</trkpt>
<trkpt lat="43.64063" lon="5.54696">
<ele>267</ele>
<time>2012-03-24T14:05:18.000Z</time>
</trkpt>
<trkpt lat="43.64064" lon="5.54703">
<ele>267.6</ele>
<time>2012-03-24T14:05:19.000Z</time>
</trkpt>
<trkpt lat="43.64063" lon="5.54711">
<ele>267.6</ele>
<time>2012-03-24T14:05:20.000Z</time>
</trkpt>
<trkpt lat="43.64064" lon="5.54719">
<ele>267.7</ele>
<time>2012-03-24T14:05:21.000Z</time>
</trkpt>
<trkpt lat="43.64065" lon="5.54727">
<ele>267.4</ele>
<time>2012-03-24T14:05:22.000Z</time>
</trkpt>
<trkpt lat="43.64066" lon="5.54734">
<ele>267.6</ele>
<time>2012-03-24T14:05:23.000Z</time>
</trkpt>
<trkpt lat="43.64065" lon="5.54741">
<ele>267.4</ele>
<time>2012-03-24T14:05:24.000Z</time>
</trkpt>
<trkpt lat="43.64065" lon="5.54749">
<ele>267.8</ele>
<time>2012-03-24T14:05:25.000Z</time>
</trkpt>
<trkpt lat="43.64065" lon="5.54757">
<ele>268.2</ele>
<time>2012-03-24T14:05:26.000Z</time>
</trkpt>
<trkpt lat="43.64066" lon="5.54766">
<ele>268.6</ele>
<time>2012-03-24T14:05:27.000Z</time>
</trkpt>
<trkpt lat="43.64067" lon="5.54773">
<ele>268.9</ele>
<time>2012-03-24T14:05:28.000Z</time>
</trkpt>
<trkpt lat="43.64066" lon="5.5478">
<ele>269.6</ele>
<time>2012-03-24T14:05:29.000Z</time>
</trkpt>
<trkpt lat="43.64065" lon="5.54789">
<ele>269.8</ele>
<time>2012-03-24T14:05:30.000Z</time>
</trkpt>
<trkpt lat="43.64063" lon="5.54796">
<ele>269.5</ele>
<time>2012-03-24T14:05:31.000Z</time>
</trkpt>
<trkpt lat="43.64061" lon="5.54802">
<ele>269.3</ele>
<time>2012-03-24T14:05:32.000Z</time>
</trkpt>
<trkpt lat="43.64062" lon="5.54808">
<ele>269.7</ele>
<time>2012-03-24T14:05:33.000Z</time>
</trkpt>
<trkpt lat="43.64062" lon="5.54816">
<ele>269.8</ele>
<time>2012-03-24T14:05:34.000Z</time>
</trkpt>
<trkpt lat="43.64062" lon="5.54822">
<ele>270</ele>
<time>2012-03-24T14:05:35.000Z</time>
</trkpt>
<trkpt lat="43.64061" lon="5.54833">
<ele>270.3</ele>
<time>2012-03-24T14:05:37.000Z</time>
</trkpt>
<trkpt lat="43.6406" lon="5.5484">
<ele>271</ele>
<time>2012-03-24T14:05:38.000Z</time>
</trkpt>
<trkpt lat="43.64058" lon="5.54851">
<ele>271.2</ele>
<time>2012-03-24T14:05:40.000Z</time>
</trkpt>
<trkpt lat="43.64058" lon="5.54857">
<ele>271.2</ele>
<time>2012-03-24T14:05:41.000Z</time>
</trkpt>
<trkpt lat="43.64056" lon="5.54867">
<ele>271.2</ele>
<time>2012-03-24T14:05:43.000Z</time>
</trkpt>
<trkpt lat="43.64056" lon="5.54875">
<ele>271.7</ele>
<time>2012-03-24T14:05:44.000Z</time>
</trkpt>
<trkpt lat="43.64055" lon="5.54884">
<ele>272.5</ele>
<time>2012-03-24T14:05:45.000Z</time>
</trkpt>
<trkpt lat="43.64054" lon="5.54891">
<ele>272.4</ele>
<time>2012-03-24T14:05:46.000Z</time>
</trkpt>
<trkpt lat="43.64055" lon="5.54898">
<ele>273.4</ele>
<time>2012-03-24T14:05:47.000Z</time>
</trkpt>
<trkpt lat="43.64054" lon="5.54908">
<ele>273.8</ele>
<time>2012-03-24T14:05:48.000Z</time>
</trkpt>
<trkpt lat="43.64052" lon="5.54921">
<ele>273.7</ele>
<time>2012-03-24T14:05:50.000Z</time>
</trkpt>
<trkpt lat="43.6405" lon="5.54929">
<ele>273.4</ele>
<time>2012-03-24T14:05:51.000Z</time>
</trkpt>
<trkpt lat="43.64048" lon="5.54935">
<ele>273.7</ele>
<time>2012-03-24T14:05:52.000Z</time>
</trkpt>
<trkpt lat="43.64048" lon="5.54942">
<ele>273.8</ele>
<time>2012-03-24T14:05:53.000Z</time>
</trkpt>
<trkpt lat="43.64047" lon="5.5495">
<ele>273.4</ele>
<time>2012-03-24T14:05:54.000Z</time>
</trkpt>
<trkpt lat="43.64045" lon="5.54957">
<ele>273</ele>
<time>2012-03-24T14:05:55.000Z</time>
</trkpt>
<trkpt lat="43.64042" lon="5.54966">
<ele>272.9</ele>
<time>2012-03-24T14:05:56.000Z</time>
</trkpt>
<trkpt lat="43.64042" lon="5.54974">
<ele>272.9</ele>
<time>2012-03-24T14:05:57.000Z</time>
</trkpt>
<trkpt lat="43.6404" lon="5.54982">
<ele>273.1</ele>
<time>2012-03-24T14:05:58.000Z</time>
</trkpt>
<trkpt lat="43.6404" lon="5.54988">
<ele>273</ele>
<time>2012-03-24T14:05:59.000Z</time>
</trkpt>
<trkpt lat="43.6404" lon="5.54996">
<ele>273.3</ele>
<time>2012-03-24T14:06:00.000Z</time>
</trkpt>
<trkpt lat="43.6404" lon="5.55004">
<ele>273.5</ele>
<time>2012-03-24T14:06:01.000Z</time>
</trkpt>
<trkpt lat="43.64039" lon="5.55013">
<ele>273.6</ele>
<time>2012-03-24T14:06:02.000Z</time>
</trkpt>
<trkpt lat="43.64037" lon="5.55022">
<ele>273.6</ele>
<time>2012-03-24T14:06:03.000Z</time>
</trkpt>
<trkpt lat="43.64037" lon="5.55029">
<ele>273.2</ele>
<time>2012-03-24T14:06:04.000Z</time>
</trkpt>
<trkpt lat="43.64034" lon="5.55038">
<ele>273.4</ele>
<time>2012-03-24T14:06:05.000Z</time>
</trkpt>
<trkpt lat="43.64033" lon="5.55045">
<ele>273.3</ele>
<time>2012-03-24T14:06:06.000Z</time>
</trkpt>
<trkpt lat="43.64031" lon="5.55052">
<ele>272.9</ele>
<time>2012-03-24T14:06:07.000Z</time>
</trkpt>
<trkpt lat="43.64028" lon="5.5506">
<ele>273.4</ele>
<time>2012-03-24T14:06:08.000Z</time>
</trkpt>
<trkpt lat="43.64026" lon="5.55069">
<ele>274.7</ele>
<time>2012-03-24T14:06:09.000Z</time>
</trkpt>
<trkpt lat="43.64023" lon="5.55076">
<ele>273.9</ele>
<time>2012-03-24T14:06:10.000Z</time>
</trkpt>
<trkpt lat="43.64021" lon="5.55083">
<ele>273.6</ele>
<time>2012-03-24T14:06:11.000Z</time>
</trkpt>
<trkpt lat="43.64021" lon="5.55089">
<ele>273.6</ele>
<time>2012-03-24T14:06:12.000Z</time>
</trkpt>
<trkpt lat="43.64021" lon="5.55097">
<ele>273.4</ele>
<time>2012-03-24T14:06:13.000Z</time>
</trkpt>
<trkpt lat="43.64018" lon="5.55105">
<ele>273.5</ele>
<time>2012-03-24T14:06:14.000Z</time>
</trkpt>
<trkpt lat="43.64018" lon="5.55114">
<ele>274.4</ele>
<time>2012-03-24T14:06:15.000Z</time>
</trkpt>
<trkpt lat="43.64016" lon="5.55121">
<ele>274.9</ele>
<time>2012-03-24T14:06:16.000Z</time>
</trkpt>
<trkpt lat="43.64017" lon="5.5513">
<ele>275.1</ele>
<time>2012-03-24T14:06:17.000Z</time>
</trkpt>
<trkpt lat="43.64017" lon="5.55137">
<ele>275.7</ele>
<time>2012-03-24T14:06:18.000Z</time>
</trkpt>
<trkpt lat="43.64017" lon="5.55144">
<ele>276.3</ele>
<time>2012-03-24T14:06:19.000Z</time>
</trkpt>
<trkpt lat="43.64018" lon="5.5515">
<ele>276.4</ele>
<time>2012-03-24T14:06:20.000Z</time>
</trkpt>
<trkpt lat="43.64015" lon="5.55161">
<ele>276.6</ele>
<time>2012-03-24T14:06:22.000Z</time>
</trkpt>
<trkpt lat="43.64014" lon="5.55168">
<ele>275.7</ele>
<time>2012-03-24T14:06:23.000Z</time>
</trkpt>
<trkpt lat="43.64014" lon="5.55174">
<ele>275.7</ele>
<time>2012-03-24T14:06:24.000Z</time>
</trkpt>
<trkpt lat="43.64013" lon="5.55181">
<ele>276.5</ele>
<time>2012-03-24T14:06:25.000Z</time>
</trkpt>
<trkpt lat="43.6401" lon="5.55188">
<ele>276.8</ele>
<time>2012-03-24T14:06:26.000Z</time>
</trkpt>
<trkpt lat="43.64008" lon="5.55194">
<ele>277</ele>
<time>2012-03-24T14:06:27.000Z</time>
</trkpt>
<trkpt lat="43.64008" lon="5.55201">
<ele>277.1</ele>
<time>2012-03-24T14:06:28.000Z</time>
</trkpt>
<trkpt lat="43.64007" lon="5.55208">
<ele>278.2</ele>
<time>2012-03-24T14:06:29.000Z</time>
</trkpt>
<trkpt lat="43.64005" lon="5.55214">
<ele>278.6</ele>
<time>2012-03-24T14:06:30.000Z</time>
</trkpt>
<trkpt lat="43.64005" lon="5.55222">
<ele>278.6</ele>
<time>2012-03-24T14:06:31.000Z</time>
</trkpt>
<trkpt lat="43.64004" lon="5.55229">
<ele>278.9</ele>
<time>2012-03-24T14:06:32.000Z</time>
</trkpt>
<trkpt lat="43.64003" lon="5.55241">
<ele>280.2</ele>
<time>2012-03-24T14:06:34.000Z</time>
</trkpt>
<trkpt lat="43.64001" lon="5.55248">
<ele>280.4</ele>
<time>2012-03-24T14:06:35.000Z</time>
</trkpt>
<trkpt lat="43.63998" lon="5.55256">
<ele>280.5</ele>
<time>2012-03-24T14:06:36.000Z</time>
</trkpt>
<trkpt lat="43.63995" lon="5.55264">
<ele>280.8</ele>
<time>2012-03-24T14:06:37.000Z</time>
</trkpt>
<trkpt lat="43.63992" lon="5.55273">
<ele>281.1</ele>
<time>2012-03-24T14:06:38.000Z</time>
</trkpt>
<trkpt lat="43.6399" lon="5.55283">
<ele>281.3</ele>
<time>2012-03-24T14:06:39.000Z</time>
</trkpt>
<trkpt lat="43.63988" lon="5.5529">
<ele>281.1</ele>
<time>2012-03-24T14:06:40.000Z</time>
</trkpt>
<trkpt lat="43.63985" lon="5.55298">
<ele>280.8</ele>
<time>2012-03-24T14:06:41.000Z</time>
</trkpt>
<trkpt lat="43.63984" lon="5.55305">
<ele>281.3</ele>
<time>2012-03-24T14:06:42.000Z</time>
</trkpt>
<trkpt lat="43.63981" lon="5.55312">
<ele>281.1</ele>
<time>2012-03-24T14:06:43.000Z</time>
</trkpt>
<trkpt lat="43.63979" lon="5.55318">
<ele>281</ele>
<time>2012-03-24T14:06:44.000Z</time>
</trkpt>
<trkpt lat="43.63974" lon="5.55328">
<ele>280.7</ele>
<time>2012-03-24T14:06:45.000Z</time>
</trkpt>
<trkpt lat="43.63971" lon="5.55335">
<ele>280.7</ele>
<time>2012-03-24T14:06:46.000Z</time>
</trkpt>
<trkpt lat="43.63965" lon="5.55341">
<ele>280.9</ele>
<time>2012-03-24T14:06:47.000Z</time>
</trkpt>
<trkpt lat="43.63959" lon="5.55346">
<ele>279.7</ele>
<time>2012-03-24T14:06:48.000Z</time>
</trkpt>
<trkpt lat="43.63951" lon="5.55354">
<ele>279.9</ele>
<time>2012-03-24T14:06:49.000Z</time>
</trkpt>
<trkpt lat="43.63942" lon="5.55358">
<ele>279.7</ele>
<time>2012-03-24T14:06:50.000Z</time>
</trkpt>
<trkpt lat="43.63932" lon="5.5536">
<ele>279.1</ele>
<time>2012-03-24T14:06:51.000Z</time>
</trkpt>
<trkpt lat="43.63927" lon="5.55362">
<ele>279</ele>
<time>2012-03-24T14:06:52.000Z</time>
</trkpt>
<trkpt lat="43.63921" lon="5.5536">
<ele>278.9</ele>
<time>2012-03-24T14:06:53.000Z</time>
</trkpt>
<trkpt lat="43.63917" lon="5.55358">
<ele>278.3</ele>
<time>2012-03-24T14:06:55.000Z</time>
</trkpt>
<trkpt lat="43.63911" lon="5.55358">
<ele>279</ele>
<time>2012-03-24T14:07:09.000Z</time>
</trkpt>
<trkpt lat="43.63904" lon="5.55355">
<ele>278.9</ele>
<time>2012-03-24T14:07:12.000Z</time>
</trkpt>
<trkpt lat="43.63897" lon="5.5535">
<ele>279</ele>
<time>2012-03-24T14:07:14.000Z</time>
</trkpt>
<trkpt lat="43.63889" lon="5.55345">
<ele>279</ele>
<time>2012-03-24T14:07:16.000Z</time>
</trkpt>
<trkpt lat="43.63881" lon="5.55341">
<ele>279.3</ele>
<time>2012-03-24T14:07:18.000Z</time>
</trkpt>
<trkpt lat="43.63872" lon="5.55339">
<ele>279.6</ele>
<time>2012-03-24T14:07:20.000Z</time>
</trkpt>
<trkpt lat="43.63865" lon="5.55343">
<ele>279.7</ele>
<time>2012-03-24T14:07:22.000Z</time>
</trkpt>
<trkpt lat="43.63859" lon="5.5535">
<ele>279.8</ele>
<time>2012-03-24T14:07:24.000Z</time>
</trkpt>
<trkpt lat="43.63857" lon="5.55356">
<ele>279.3</ele>
<time>2012-03-24T14:07:25.000Z</time>
</trkpt>
<trkpt lat="43.63855" lon="5.55362">
<ele>279.1</ele>
<time>2012-03-24T14:07:26.000Z</time>
</trkpt>
<trkpt lat="43.63853" lon="5.55369">
<ele>278.7</ele>
<time>2012-03-24T14:07:27.000Z</time>
</trkpt>
<trkpt lat="43.63852" lon="5.55377">
<ele>278.8</ele>
<time>2012-03-24T14:07:28.000Z</time>
</trkpt>
<trkpt lat="43.63852" lon="5.55384">
<ele>278.6</ele>
<time>2012-03-24T14:07:29.000Z</time>
</trkpt>
<trkpt lat="43.63851" lon="5.55392">
<ele>278.3</ele>
<time>2012-03-24T14:07:30.000Z</time>
</trkpt>
<trkpt lat="43.63851" lon="5.55398">
<ele>278.4</ele>
<time>2012-03-24T14:07:31.000Z</time>
</trkpt>
<trkpt lat="43.63849" lon="5.55405">
<ele>278.2</ele>
<time>2012-03-24T14:07:32.000Z</time>
</trkpt>
<trkpt lat="43.63848" lon="5.55411">
<ele>278.1</ele>
<time>2012-03-24T14:07:33.000Z</time>
</trkpt>
<trkpt lat="43.63847" lon="5.55419">
<ele>277.8</ele>
<time>2012-03-24T14:07:34.000Z</time>
</trkpt>
<trkpt lat="43.63846" lon="5.55425">
<ele>278.1</ele>
<time>2012-03-24T14:07:35.000Z</time>
</trkpt>
<trkpt lat="43.63844" lon="5.55437">
<ele>278</ele>
<time>2012-03-24T14:07:37.000Z</time>
</trkpt>
<trkpt lat="43.63842" lon="5.55444">
<ele>277.8</ele>
<time>2012-03-24T14:07:38.000Z</time>
</trkpt>
<trkpt lat="43.63842" lon="5.55452">
<ele>277.3</ele>
<time>2012-03-24T14:07:39.000Z</time>
</trkpt>
<trkpt lat="43.6384" lon="5.5546">
<ele>277.4</ele>
<time>2012-03-24T14:07:40.000Z</time>
</trkpt>
<trkpt lat="43.63838" lon="5.55467">
<ele>277.4</ele>
<time>2012-03-24T14:07:41.000Z</time>
</trkpt>
<trkpt lat="43.63836" lon="5.55474">
<ele>277.4</ele>
<time>2012-03-24T14:07:42.000Z</time>
</trkpt>
<trkpt lat="43.63834" lon="5.55481">
<ele>277.1</ele>
<time>2012-03-24T14:07:43.000Z</time>
</trkpt>
<trkpt lat="43.63832" lon="5.55489">
<ele>277.1</ele>
<time>2012-03-24T14:07:44.000Z</time>
</trkpt>
<trkpt lat="43.63831" lon="5.55496">
<ele>277.2</ele>
<time>2012-03-24T14:07:45.000Z</time>
</trkpt>
<trkpt lat="43.63829" lon="5.55503">
<ele>277.1</ele>
<time>2012-03-24T14:07:46.000Z</time>
</trkpt>
<trkpt lat="43.63828" lon="5.5551">
<ele>277.1</ele>
<time>2012-03-24T14:07:47.000Z</time>
</trkpt>
<trkpt lat="43.63826" lon="5.55518">
<ele>277.4</ele>
<time>2012-03-24T14:07:48.000Z</time>
</trkpt>
<trkpt lat="43.63823" lon="5.55525">
<ele>277.3</ele>
<time>2012-03-24T14:07:49.000Z</time>
</trkpt>
<trkpt lat="43.63822" lon="5.55533">
<ele>277.3</ele>
<time>2012-03-24T14:07:50.000Z</time>
</trkpt>
<trkpt lat="43.6382" lon="5.55541">
<ele>277.2</ele>
<time>2012-03-24T14:07:51.000Z</time>
</trkpt>
<trkpt lat="43.63818" lon="5.55549">
<ele>277.2</ele>
<time>2012-03-24T14:07:52.000Z</time>
</trkpt>
<trkpt lat="43.63815" lon="5.55557">
<ele>277.3</ele>
<time>2012-03-24T14:07:53.000Z</time>
</trkpt>
<trkpt lat="43.63812" lon="5.55565">
<ele>277.2</ele>
<time>2012-03-24T14:07:54.000Z</time>
</trkpt>
<trkpt lat="43.6381" lon="5.55574">
<ele>276.7</ele>
<time>2012-03-24T14:07:55.000Z</time>
</trkpt>
<trkpt lat="43.63808" lon="5.55582">
<ele>276.9</ele>
<time>2012-03-24T14:07:56.000Z</time>
</trkpt>
<trkpt lat="43.63807" lon="5.5559">
<ele>277.1</ele>
<time>2012-03-24T14:07:57.000Z</time>
</trkpt>
<trkpt lat="43.63806" lon="5.55598">
<ele>277</ele>
<time>2012-03-24T14:07:58.000Z</time>
</trkpt>
<trkpt lat="43.63803" lon="5.55607">
<ele>277.4</ele>
<time>2012-03-24T14:07:59.000Z</time>
</trkpt>
<trkpt lat="43.638" lon="5.55615">
<ele>277.3</ele>
<time>2012-03-24T14:08:00.000Z</time>
</trkpt>
<trkpt lat="43.63798" lon="5.55623">
<ele>277.5</ele>
<time>2012-03-24T14:08:01.000Z</time>
</trkpt>
<trkpt lat="43.63796" lon="5.55631">
<ele>277.4</ele>
<time>2012-03-24T14:08:02.000Z</time>
</trkpt>
<trkpt lat="43.63794" lon="5.5564">
<ele>277.2</ele>
<time>2012-03-24T14:08:03.000Z</time>
</trkpt>
<trkpt lat="43.63793" lon="5.55648">
<ele>277.4</ele>
<time>2012-03-24T14:08:04.000Z</time>
</trkpt>
<trkpt lat="43.6379" lon="5.55656">
<ele>277.4</ele>
<time>2012-03-24T14:08:05.000Z</time>
</trkpt>
<trkpt lat="43.63788" lon="5.55665">
<ele>277.5</ele>
<time>2012-03-24T14:08:06.000Z</time>
</trkpt>
<trkpt lat="43.63786" lon="5.55673">
<ele>277.9</ele>
<time>2012-03-24T14:08:07.000Z</time>
</trkpt>
<trkpt lat="43.63784" lon="5.55682">
<ele>277.9</ele>
<time>2012-03-24T14:08:08.000Z</time>
</trkpt>
<trkpt lat="43.63783" lon="5.5569">
<ele>278.2</ele>
<time>2012-03-24T14:08:09.000Z</time>
</trkpt>
<trkpt lat="43.63782" lon="5.55698">
<ele>277.3</ele>
<time>2012-03-24T14:08:10.000Z</time>
</trkpt>
<trkpt lat="43.6378" lon="5.55706">
<ele>277.5</ele>
<time>2012-03-24T14:08:11.000Z</time>
</trkpt>
<trkpt lat="43.63778" lon="5.55715">
<ele>277.4</ele>
<time>2012-03-24T14:08:12.000Z</time>
</trkpt>
<trkpt lat="43.63777" lon="5.55723">
<ele>277.2</ele>
<time>2012-03-24T14:08:13.000Z</time>
</trkpt>
<trkpt lat="43.63777" lon="5.55732">
<ele>277.2</ele>
<time>2012-03-24T14:08:14.000Z</time>
</trkpt>
<trkpt lat="43.63778" lon="5.5574">
<ele>277.2</ele>
<time>2012-03-24T14:08:15.000Z</time>
</trkpt>
<trkpt lat="43.63776" lon="5.5575">
<ele>277.2</ele>
<time>2012-03-24T14:08:16.000Z</time>
</trkpt>
<trkpt lat="43.63776" lon="5.55759">
<ele>277.6</ele>
<time>2012-03-24T14:08:17.000Z</time>
</trkpt>
<trkpt lat="43.63775" lon="5.55768">
<ele>277.7</ele>
<time>2012-03-24T14:08:18.000Z</time>
</trkpt>
<trkpt lat="43.63775" lon="5.55777">
<ele>277.8</ele>
<time>2012-03-24T14:08:19.000Z</time>
</trkpt>
<trkpt lat="43.63774" lon="5.55785">
<ele>277.7</ele>
<time>2012-03-24T14:08:20.000Z</time>
</trkpt>
<trkpt lat="43.63775" lon="5.55794">
<ele>278</ele>
<time>2012-03-24T14:08:21.000Z</time>
</trkpt>
<trkpt lat="43.63775" lon="5.55804">
<ele>277.6</ele>
<time>2012-03-24T14:08:22.000Z</time>
</trkpt>
<trkpt lat="43.63775" lon="5.55812">
<ele>277.6</ele>
<time>2012-03-24T14:08:23.000Z</time>
</trkpt>
<trkpt lat="43.63775" lon="5.55821">
<ele>277.4</ele>
<time>2012-03-24T14:08:24.000Z</time>
</trkpt>
<trkpt lat="43.63776" lon="5.55831">
<ele>277.6</ele>
<time>2012-03-24T14:08:25.000Z</time>
</trkpt>
<trkpt lat="43.63778" lon="5.55839">
<ele>277.4</ele>
<time>2012-03-24T14:08:26.000Z</time>
</trkpt>
<trkpt lat="43.6378" lon="5.55849">
<ele>277.8</ele>
<time>2012-03-24T14:08:27.000Z</time>
</trkpt>
<trkpt lat="43.63782" lon="5.55859">
<ele>277.6</ele>
<time>2012-03-24T14:08:28.000Z</time>
</trkpt>
<trkpt lat="43.63783" lon="5.55868">
<ele>276.9</ele>
<time>2012-03-24T14:08:29.000Z</time>
</trkpt>
<trkpt lat="43.63784" lon="5.55877">
<ele>277.2</ele>
<time>2012-03-24T14:08:30.000Z</time>
</trkpt>
<trkpt lat="43.63787" lon="5.55886">
<ele>277.4</ele>
<time>2012-03-24T14:08:31.000Z</time>
</trkpt>
<trkpt lat="43.63786" lon="5.55896">
<ele>275.9</ele>
<time>2012-03-24T14:08:32.000Z</time>
</trkpt>
<trkpt lat="43.63787" lon="5.55906">
<ele>275.3</ele>
<time>2012-03-24T14:08:33.000Z</time>
</trkpt>
<trkpt lat="43.63789" lon="5.55914">
<ele>275.6</ele>
<time>2012-03-24T14:08:34.000Z</time>
</trkpt>
<trkpt lat="43.6379" lon="5.55922">
<ele>276.1</ele>
<time>2012-03-24T14:08:35.000Z</time>
</trkpt>
<trkpt lat="43.63791" lon="5.5593">
<ele>275.3</ele>
<time>2012-03-24T14:08:36.000Z</time>
</trkpt>
<trkpt lat="43.63793" lon="5.55938">
<ele>275.6</ele>
<time>2012-03-24T14:08:37.000Z</time>
</trkpt>
<trkpt lat="43.63795" lon="5.55947">
<ele>275.8</ele>
<time>2012-03-24T14:08:38.000Z</time>
</trkpt>
<trkpt lat="43.63796" lon="5.55955">
<ele>276</ele>
<time>2012-03-24T14:08:39.000Z</time>
</trkpt>
<trkpt lat="43.63798" lon="5.55963">
<ele>276.2</ele>
<time>2012-03-24T14:08:40.000Z</time>
</trkpt>
<trkpt lat="43.63799" lon="5.55972">
<ele>275.7</ele>
<time>2012-03-24T14:08:41.000Z</time>
</trkpt>
<trkpt lat="43.63798" lon="5.5598">
<ele>275</ele>
<time>2012-03-24T14:08:42.000Z</time>
</trkpt>
<trkpt lat="43.63799" lon="5.55989">
<ele>274.4</ele>
<time>2012-03-24T14:08:43.000Z</time>
</trkpt>
<trkpt lat="43.63801" lon="5.55997">
<ele>273.8</ele>
<time>2012-03-24T14:08:44.000Z</time>
</trkpt>
<trkpt lat="43.63801" lon="5.56005">
<ele>273.7</ele>
<time>2012-03-24T14:08:45.000Z</time>
</trkpt>
<trkpt lat="43.63803" lon="5.56012">
<ele>274.6</ele>
<time>2012-03-24T14:08:46.000Z</time>
</trkpt>
<trkpt lat="43.63804" lon="5.5602">
<ele>274.2</ele>
<time>2012-03-24T14:08:47.000Z</time>
</trkpt>
<trkpt lat="43.63805" lon="5.56028">
<ele>274.2</ele>
<time>2012-03-24T14:08:48.000Z</time>
</trkpt>
<trkpt lat="43.63806" lon="5.56035">
<ele>274.1</ele>
<time>2012-03-24T14:08:49.000Z</time>
</trkpt>
<trkpt lat="43.63808" lon="5.56042">
<ele>274.4</ele>
<time>2012-03-24T14:08:50.000Z</time>
</trkpt>
<trkpt lat="43.63809" lon="5.56051">
<ele>273.7</ele>
<time>2012-03-24T14:08:51.000Z</time>
</trkpt>
<trkpt lat="43.6381" lon="5.56058">
<ele>272.7</ele>
<time>2012-03-24T14:08:52.000Z</time>
</trkpt>
<trkpt lat="43.63812" lon="5.56065">
<ele>272</ele>
<time>2012-03-24T14:08:53.000Z</time>
</trkpt>
<trkpt lat="43.63813" lon="5.56072">
<ele>271.6</ele>
<time>2012-03-24T14:08:54.000Z</time>
</trkpt>
<trkpt lat="43.63814" lon="5.56081">
<ele>271.5</ele>
<time>2012-03-24T14:08:55.000Z</time>
</trkpt>
<trkpt lat="43.63815" lon="5.56089">
<ele>271.6</ele>
<time>2012-03-24T14:08:56.000Z</time>
</trkpt>
<trkpt lat="43.63817" lon="5.56098">
<ele>271.4</ele>
<time>2012-03-24T14:08:57.000Z</time>
</trkpt>
<trkpt lat="43.63821" lon="5.56108">
<ele>271.9</ele>
<time>2012-03-24T14:08:58.000Z</time>
</trkpt>
<trkpt lat="43.63822" lon="5.56117">
<ele>272.4</ele>
<time>2012-03-24T14:08:59.000Z</time>
</trkpt>
<trkpt lat="43.63822" lon="5.56126">
<ele>272.4</ele>
<time>2012-03-24T14:09:00.000Z</time>
</trkpt>
<trkpt lat="43.63824" lon="5.56135">
<ele>273.2</ele>
<time>2012-03-24T14:09:01.000Z</time>
</trkpt>
<trkpt lat="43.63826" lon="5.56144">
<ele>273.1</ele>
<time>2012-03-24T14:09:02.000Z</time>
</trkpt>
<trkpt lat="43.63827" lon="5.56153">
<ele>273</ele>
<time>2012-03-24T14:09:03.000Z</time>
</trkpt>
<trkpt lat="43.63827" lon="5.56161">
<ele>272.9</ele>
<time>2012-03-24T14:09:04.000Z</time>
</trkpt>
<trkpt lat="43.63828" lon="5.5617">
<ele>273</ele>
<time>2012-03-24T14:09:05.000Z</time>
</trkpt>
<trkpt lat="43.63828" lon="5.56179">
<ele>273.1</ele>
<time>2012-03-24T14:09:06.000Z</time>
</trkpt>
<trkpt lat="43.63828" lon="5.56188">
<ele>273</ele>
<time>2012-03-24T14:09:07.000Z</time>
</trkpt>
<trkpt lat="43.63829" lon="5.56196">
<ele>272.5</ele>
<time>2012-03-24T14:09:08.000Z</time>
</trkpt>
<trkpt lat="43.6383" lon="5.56206">
<ele>273.4</ele>
<time>2012-03-24T14:09:09.000Z</time>
</trkpt>
<trkpt lat="43.63831" lon="5.56214">
<ele>273.5</ele>
<time>2012-03-24T14:09:10.000Z</time>
</trkpt>
<trkpt lat="43.63832" lon="5.56223">
<ele>273.6</ele>
<time>2012-03-24T14:09:11.000Z</time>
</trkpt>
<trkpt lat="43.63832" lon="5.56232">
<ele>273.8</ele>
<time>2012-03-24T14:09:12.000Z</time>
</trkpt>
<trkpt lat="43.63833" lon="5.56241">
<ele>274.3</ele>
<time>2012-03-24T14:09:13.000Z</time>
</trkpt>
<trkpt lat="43.63832" lon="5.56249">
<ele>274.5</ele>
<time>2012-03-24T14:09:14.000Z</time>
</trkpt>
<trkpt lat="43.63832" lon="5.56258">
<ele>274.6</ele>
<time>2012-03-24T14:09:15.000Z</time>
</trkpt>
<trkpt lat="43.63832" lon="5.56268">
<ele>274.8</ele>
<time>2012-03-24T14:09:16.000Z</time>
</trkpt>
<trkpt lat="43.63833" lon="5.56277">
<ele>275</ele>
<time>2012-03-24T14:09:17.000Z</time>
</trkpt>
<trkpt lat="43.63833" lon="5.56286">
<ele>274.8</ele>
<time>2012-03-24T14:09:18.000Z</time>
</trkpt>
<trkpt lat="43.63833" lon="5.56296">
<ele>274.8</ele>
<time>2012-03-24T14:09:19.000Z</time>
</trkpt>
<trkpt lat="43.63833" lon="5.56306">
<ele>274.6</ele>
<time>2012-03-24T14:09:20.000Z</time>
</trkpt>
<trkpt lat="43.63833" lon="5.56314">
<ele>274.7</ele>
<time>2012-03-24T14:09:21.000Z</time>
</trkpt>
<trkpt lat="43.63833" lon="5.56323">
<ele>274.3</ele>
<time>2012-03-24T14:09:22.000Z</time>
</trkpt>
<trkpt lat="43.63833" lon="5.56333">
<ele>274.1</ele>
<time>2012-03-24T14:09:23.000Z</time>
</trkpt>
<trkpt lat="43.63834" lon="5.56341">
<ele>274.6</ele>
<time>2012-03-24T14:09:24.000Z</time>
</trkpt>
<trkpt lat="43.63833" lon="5.56351">
<ele>275</ele>
<time>2012-03-24T14:09:25.000Z</time>
</trkpt>
<trkpt lat="43.63833" lon="5.5636">
<ele>275.4</ele>
<time>2012-03-24T14:09:26.000Z</time>
</trkpt>
<trkpt lat="43.63834" lon="5.56371">
<ele>274.9</ele>
<time>2012-03-24T14:09:27.000Z</time>
</trkpt>
<trkpt lat="43.63835" lon="5.56381">
<ele>275.5</ele>
<time>2012-03-24T14:09:28.000Z</time>
</trkpt>
<trkpt lat="43.63835" lon="5.5639">
<ele>275.7</ele>
<time>2012-03-24T14:09:29.000Z</time>
</trkpt>
<trkpt lat="43.63836" lon="5.56399">
<ele>275.3</ele>
<time>2012-03-24T14:09:30.000Z</time>
</trkpt>
<trkpt lat="43.63836" lon="5.56408">
<ele>275.8</ele>
<time>2012-03-24T14:09:31.000Z</time>
</trkpt>
<trkpt lat="43.63835" lon="5.56418">
<ele>275.7</ele>
<time>2012-03-24T14:09:32.000Z</time>
</trkpt>
<trkpt lat="43.63836" lon="5.56427">
<ele>275.4</ele>
<time>2012-03-24T14:09:33.000Z</time>
</trkpt>
<trkpt lat="43.63836" lon="5.56437">
<ele>275.3</ele>
<time>2012-03-24T14:09:34.000Z</time>
</trkpt>
<trkpt lat="43.63836" lon="5.56445">
<ele>275.6</ele>
<time>2012-03-24T14:09:35.000Z</time>
</trkpt>
<trkpt lat="43.63836" lon="5.56454">
<ele>275.6</ele>
<time>2012-03-24T14:09:36.000Z</time>
</trkpt>
<trkpt lat="43.63838" lon="5.56464">
<ele>275.7</ele>
<time>2012-03-24T14:09:37.000Z</time>
</trkpt>
<trkpt lat="43.63838" lon="5.56474">
<ele>275.6</ele>
<time>2012-03-24T14:09:38.000Z</time>
</trkpt>
<trkpt lat="43.63838" lon="5.56483">
<ele>275.3</ele>
<time>2012-03-24T14:09:39.000Z</time>
</trkpt>
<trkpt lat="43.63839" lon="5.56492">
<ele>275.3</ele>
<time>2012-03-24T14:09:40.000Z</time>
</trkpt>
<trkpt lat="43.63839" lon="5.56502">
<ele>275.2</ele>
<time>2012-03-24T14:09:41.000Z</time>
</trkpt>
<trkpt lat="43.63839" lon="5.5651">
<ele>275.7</ele>
<time>2012-03-24T14:09:42.000Z</time>
</trkpt>
<trkpt lat="43.63839" lon="5.56519">
<ele>275.9</ele>
<time>2012-03-24T14:09:43.000Z</time>
</trkpt>
<trkpt lat="43.63839" lon="5.56529">
<ele>276</ele>
<time>2012-03-24T14:09:44.000Z</time>
</trkpt>
<trkpt lat="43.6384" lon="5.56538">
<ele>275.6</ele>
<time>2012-03-24T14:09:45.000Z</time>
</trkpt>
<trkpt lat="43.63841" lon="5.56548">
<ele>275.6</ele>
<time>2012-03-24T14:09:46.000Z</time>
</trkpt>
<trkpt lat="43.63841" lon="5.56557">
<ele>276</ele>
<time>2012-03-24T14:09:47.000Z</time>
</trkpt>
<trkpt lat="43.63841" lon="5.56565">
<ele>275.8</ele>
<time>2012-03-24T14:09:48.000Z</time>
</trkpt>
<trkpt lat="43.63843" lon="5.56573">
<ele>275</ele>
<time>2012-03-24T14:09:49.000Z</time>
</trkpt>
<trkpt lat="43.63844" lon="5.56583">
<ele>275.3</ele>
<time>2012-03-24T14:09:50.000Z</time>
</trkpt>
<trkpt lat="43.63845" lon="5.56592">
<ele>276</ele>
<time>2012-03-24T14:09:51.000Z</time>
</trkpt>
<trkpt lat="43.63845" lon="5.56602">
<ele>276.3</ele>
<time>2012-03-24T14:09:52.000Z</time>
</trkpt>
<trkpt lat="43.63845" lon="5.56611">
<ele>277</ele>
<time>2012-03-24T14:09:53.000Z</time>
</trkpt>
<trkpt lat="43.63845" lon="5.5662">
<ele>277.1</ele>
<time>2012-03-24T14:09:54.000Z</time>
</trkpt>
<trkpt lat="43.63846" lon="5.5663">
<ele>277</ele>
<time>2012-03-24T14:09:55.000Z</time>
</trkpt>
<trkpt lat="43.63846" lon="5.56639">
<ele>277.2</ele>
<time>2012-03-24T14:09:56.000Z</time>
</trkpt>
<trkpt lat="43.63846" lon="5.56648">
<ele>276.9</ele>
<time>2012-03-24T14:09:57.000Z</time>
</trkpt>
<trkpt lat="43.63846" lon="5.56656">
<ele>277.4</ele>
<time>2012-03-24T14:09:58.000Z</time>
</trkpt>
<trkpt lat="43.63846" lon="5.56665">
<ele>277.6</ele>
<time>2012-03-24T14:09:59.000Z</time>
</trkpt>
<trkpt lat="43.63845" lon="5.56671">
<ele>277.9</ele>
<time>2012-03-24T14:10:00.000Z</time>
</trkpt>
<trkpt lat="43.63844" lon="5.5668">
<ele>278.5</ele>
<time>2012-03-24T14:10:01.000Z</time>
</trkpt>
<trkpt lat="43.63843" lon="5.56686">
<ele>279.5</ele>
<time>2012-03-24T14:10:02.000Z</time>
</trkpt>
<trkpt lat="43.63842" lon="5.56694">
<ele>279.2</ele>
<time>2012-03-24T14:10:03.000Z</time>
</trkpt>
<trkpt lat="43.63843" lon="5.56701">
<ele>279.3</ele>
<time>2012-03-24T14:10:04.000Z</time>
</trkpt>
<trkpt lat="43.63843" lon="5.56708">
<ele>279.6</ele>
<time>2012-03-24T14:10:05.000Z</time>
</trkpt>
<trkpt lat="43.63842" lon="5.56715">
<ele>279.7</ele>
<time>2012-03-24T14:10:06.000Z</time>
</trkpt>
<trkpt lat="43.63843" lon="5.56722">
<ele>280.1</ele>
<time>2012-03-24T14:10:07.000Z</time>
</trkpt>
<trkpt lat="43.63842" lon="5.56728">
<ele>280.4</ele>
<time>2012-03-24T14:10:08.000Z</time>
</trkpt>
<trkpt lat="43.63841" lon="5.56739">
<ele>280.7</ele>
<time>2012-03-24T14:10:10.000Z</time>
</trkpt>
<trkpt lat="43.63839" lon="5.56746">
<ele>280.5</ele>
<time>2012-03-24T14:10:11.000Z</time>
</trkpt>
<trkpt lat="43.63838" lon="5.56756">
<ele>280.4</ele>
<time>2012-03-24T14:10:13.000Z</time>
</trkpt>
<trkpt lat="43.63839" lon="5.56762">
<ele>280.3</ele>
<time>2012-03-24T14:10:14.000Z</time>
</trkpt>
<trkpt lat="43.6384" lon="5.56768">
<ele>280.4</ele>
<time>2012-03-24T14:10:15.000Z</time>
</trkpt>
<trkpt lat="43.63842" lon="5.56774">
<ele>280.7</ele>
<time>2012-03-24T14:10:16.000Z</time>
</trkpt>
<trkpt lat="43.63843" lon="5.56781">
<ele>280.5</ele>
<time>2012-03-24T14:10:17.000Z</time>
</trkpt>
<trkpt lat="43.63844" lon="5.56789">
<ele>280.2</ele>
<time>2012-03-24T14:10:18.000Z</time>
</trkpt>
<trkpt lat="43.63844" lon="5.56796">
<ele>279.9</ele>
<time>2012-03-24T14:10:19.000Z</time>
</trkpt>
<trkpt lat="43.63845" lon="5.56803">
<ele>279.7</ele>
<time>2012-03-24T14:10:20.000Z</time>
</trkpt>
<trkpt lat="43.63845" lon="5.5681">
<ele>279.3</ele>
<time>2012-03-24T14:10:21.000Z</time>
</trkpt>
<trkpt lat="43.63846" lon="5.56818">
<ele>279.3</ele>
<time>2012-03-24T14:10:22.000Z</time>
</trkpt>
<trkpt lat="43.63847" lon="5.56826">
<ele>279.6</ele>
<time>2012-03-24T14:10:23.000Z</time>
</trkpt>
<trkpt lat="43.63848" lon="5.56834">
<ele>279.3</ele>
<time>2012-03-24T14:10:24.000Z</time>
</trkpt>
<trkpt lat="43.63848" lon="5.56842">
<ele>279.4</ele>
<time>2012-03-24T14:10:25.000Z</time>
</trkpt>
<trkpt lat="43.63848" lon="5.56851">
<ele>279.3</ele>
<time>2012-03-24T14:10:26.000Z</time>
</trkpt>
<trkpt lat="43.63849" lon="5.56859">
<ele>279.2</ele>
<time>2012-03-24T14:10:27.000Z</time>
</trkpt>
<trkpt lat="43.63849" lon="5.56868">
<ele>278.8</ele>
<time>2012-03-24T14:10:28.000Z</time>
</trkpt>
<trkpt lat="43.6385" lon="5.56876">
<ele>278.7</ele>
<time>2012-03-24T14:10:29.000Z</time>
</trkpt>
<trkpt lat="43.6385" lon="5.56885">
<ele>279</ele>
<time>2012-03-24T14:10:30.000Z</time>
</trkpt>
<trkpt lat="43.6385" lon="5.56894">
<ele>278.9</ele>
<time>2012-03-24T14:10:31.000Z</time>
</trkpt>
<trkpt lat="43.63851" lon="5.56903">
<ele>278.9</ele>
<time>2012-03-24T14:10:32.000Z</time>
</trkpt>
<trkpt lat="43.63851" lon="5.56912">
<ele>278.9</ele>
<time>2012-03-24T14:10:33.000Z</time>
</trkpt>
<trkpt lat="43.63851" lon="5.5692">
<ele>278.9</ele>
<time>2012-03-24T14:10:34.000Z</time>
</trkpt>
<trkpt lat="43.63851" lon="5.56928">
<ele>278.8</ele>
<time>2012-03-24T14:10:35.000Z</time>
</trkpt>
<trkpt lat="43.63852" lon="5.56937">
<ele>278.9</ele>
<time>2012-03-24T14:10:36.000Z</time>
</trkpt>
<trkpt lat="43.63852" lon="5.56946">
<ele>279</ele>
<time>2012-03-24T14:10:37.000Z</time>
</trkpt>
<trkpt lat="43.63851" lon="5.56953">
<ele>278.8</ele>
<time>2012-03-24T14:10:38.000Z</time>
</trkpt>
<trkpt lat="43.63852" lon="5.56962">
<ele>279</ele>
<time>2012-03-24T14:10:39.000Z</time>
</trkpt>
<trkpt lat="43.63852" lon="5.5697">
<ele>278.8</ele>
<time>2012-03-24T14:10:40.000Z</time>
</trkpt>
<trkpt lat="43.63852" lon="5.56979">
<ele>278.9</ele>
<time>2012-03-24T14:10:41.000Z</time>
</trkpt>
<trkpt lat="43.63852" lon="5.56987">
<ele>278.9</ele>
<time>2012-03-24T14:10:42.000Z</time>
</trkpt>
<trkpt lat="43.63852" lon="5.56996">
<ele>278.5</ele>
<time>2012-03-24T14:10:43.000Z</time>
</trkpt>
<trkpt lat="43.63853" lon="5.57005">
<ele>278.2</ele>
<time>2012-03-24T14:10:44.000Z</time>
</trkpt>
<trkpt lat="43.63853" lon="5.57015">
<ele>278</ele>
<time>2012-03-24T14:10:45.000Z</time>
</trkpt>
<trkpt lat="43.63853" lon="5.57024">
<ele>278.2</ele>
<time>2012-03-24T14:10:46.000Z</time>
</trkpt>
<trkpt lat="43.63854" lon="5.57033">
<ele>277.9</ele>
<time>2012-03-24T14:10:47.000Z</time>
</trkpt>
<trkpt lat="43.63855" lon="5.57042">
<ele>277.6</ele>
<time>2012-03-24T14:10:48.000Z</time>
</trkpt>
<trkpt lat="43.63855" lon="5.57051">
<ele>277.6</ele>
<time>2012-03-24T14:10:49.000Z</time>
</trkpt>
<trkpt lat="43.63856" lon="5.5706">
<ele>277.4</ele>
<time>2012-03-24T14:10:50.000Z</time>
</trkpt>
<trkpt lat="43.63856" lon="5.57069">
<ele>277.4</ele>
<time>2012-03-24T14:10:51.000Z</time>
</trkpt>
<trkpt lat="43.63857" lon="5.57077">
<ele>277.3</ele>
<time>2012-03-24T14:10:52.000Z</time>
</trkpt>
<trkpt lat="43.63857" lon="5.57086">
<ele>277</ele>
<time>2012-03-24T14:10:53.000Z</time>
</trkpt>
<trkpt lat="43.63858" lon="5.57095">
<ele>277.2</ele>
<time>2012-03-24T14:10:54.000Z</time>
</trkpt>
<trkpt lat="43.6386" lon="5.57104">
<ele>277.8</ele>
<time>2012-03-24T14:10:55.000Z</time>
</trkpt>
<trkpt lat="43.63861" lon="5.57113">
<ele>277.5</ele>
<time>2012-03-24T14:10:56.000Z</time>
</trkpt>
<trkpt lat="43.63861" lon="5.57123">
<ele>277.3</ele>
<time>2012-03-24T14:10:57.000Z</time>
</trkpt>
<trkpt lat="43.63862" lon="5.57132">
<ele>277.1</ele>
<time>2012-03-24T14:10:58.000Z</time>
</trkpt>
<trkpt lat="43.63863" lon="5.57141">
<ele>277.3</ele>
<time>2012-03-24T14:10:59.000Z</time>
</trkpt>
<trkpt lat="43.63865" lon="5.57149">
<ele>277.3</ele>
<time>2012-03-24T14:11:00.000Z</time>
</trkpt>
<trkpt lat="43.63866" lon="5.57158">
<ele>277.2</ele>
<time>2012-03-24T14:11:01.000Z</time>
</trkpt>
<trkpt lat="43.63868" lon="5.57167">
<ele>277.2</ele>
<time>2012-03-24T14:11:02.000Z</time>
</trkpt>
<trkpt lat="43.63869" lon="5.57176">
<ele>277</ele>
<time>2012-03-24T14:11:03.000Z</time>
</trkpt>
<trkpt lat="43.6387" lon="5.57184">
<ele>276.8</ele>
<time>2012-03-24T14:11:04.000Z</time>
</trkpt>
<trkpt lat="43.63871" lon="5.57193">
<ele>276.7</ele>
<time>2012-03-24T14:11:05.000Z</time>
</trkpt>
<trkpt lat="43.63873" lon="5.57202">
<ele>276.5</ele>
<time>2012-03-24T14:11:06.000Z</time>
</trkpt>
<trkpt lat="43.63874" lon="5.5721">
<ele>276.2</ele>
<time>2012-03-24T14:11:07.000Z</time>
</trkpt>
<trkpt lat="43.63876" lon="5.57218">
<ele>276</ele>
<time>2012-03-24T14:11:08.000Z</time>
</trkpt>
<trkpt lat="43.63878" lon="5.57227">
<ele>275.9</ele>
<time>2012-03-24T14:11:09.000Z</time>
</trkpt>
<trkpt lat="43.6388" lon="5.57236">
<ele>275.7</ele>
<time>2012-03-24T14:11:10.000Z</time>
</trkpt>
<trkpt lat="43.63882" lon="5.57244">
<ele>276.1</ele>
<time>2012-03-24T14:11:11.000Z</time>
</trkpt>
<trkpt lat="43.63884" lon="5.57253">
<ele>276.1</ele>
<time>2012-03-24T14:11:12.000Z</time>
</trkpt>
<trkpt lat="43.63886" lon="5.57262">
<ele>275.9</ele>
<time>2012-03-24T14:11:13.000Z</time>
</trkpt>
<trkpt lat="43.63888" lon="5.57271">
<ele>275.6</ele>
<time>2012-03-24T14:11:14.000Z</time>
</trkpt>
<trkpt lat="43.63889" lon="5.5728">
<ele>276</ele>
<time>2012-03-24T14:11:15.000Z</time>
</trkpt>
<trkpt lat="43.63891" lon="5.57288">
<ele>275.5</ele>
<time>2012-03-24T14:11:16.000Z</time>
</trkpt>
<trkpt lat="43.63894" lon="5.57297">
<ele>275.6</ele>
<time>2012-03-24T14:11:17.000Z</time>
</trkpt>
<trkpt lat="43.63895" lon="5.57306">
<ele>275.3</ele>
<time>2012-03-24T14:11:18.000Z</time>
</trkpt>
<trkpt lat="43.63897" lon="5.57315">
<ele>275.1</ele>
<time>2012-03-24T14:11:19.000Z</time>
</trkpt>
<trkpt lat="43.63899" lon="5.57323">
<ele>274.8</ele>
<time>2012-03-24T14:11:20.000Z</time>
</trkpt>
<trkpt lat="43.63902" lon="5.57332">
<ele>275</ele>
<time>2012-03-24T14:11:21.000Z</time>
</trkpt>
<trkpt lat="43.63903" lon="5.57341">
<ele>275</ele>
<time>2012-03-24T14:11:22.000Z</time>
</trkpt>
<trkpt lat="43.63905" lon="5.5735">
<ele>274.7</ele>
<time>2012-03-24T14:11:23.000Z</time>
</trkpt>
<trkpt lat="43.63907" lon="5.57359">
<ele>274.9</ele>
<time>2012-03-24T14:11:24.000Z</time>
</trkpt>
<trkpt lat="43.63909" lon="5.57368">
<ele>274.4</ele>
<time>2012-03-24T14:11:25.000Z</time>
</trkpt>
<trkpt lat="43.63911" lon="5.57377">
<ele>274.5</ele>
<time>2012-03-24T14:11:26.000Z</time>
</trkpt>
<trkpt lat="43.63913" lon="5.57386">
<ele>274.6</ele>
<time>2012-03-24T14:11:27.000Z</time>
</trkpt>
<trkpt lat="43.63916" lon="5.57396">
<ele>274.7</ele>
<time>2012-03-24T14:11:28.000Z</time>
</trkpt>
<trkpt lat="43.63918" lon="5.57405">
<ele>274.5</ele>
<time>2012-03-24T14:11:29.000Z</time>
</trkpt>
<trkpt lat="43.6392" lon="5.57414">
<ele>274.6</ele>
<time>2012-03-24T14:11:30.000Z</time>
</trkpt>
<trkpt lat="43.63922" lon="5.57423">
<ele>275.3</ele>
<time>2012-03-24T14:11:31.000Z</time>
</trkpt>
<trkpt lat="43.63924" lon="5.57431">
<ele>275.1</ele>
<time>2012-03-24T14:11:32.000Z</time>
</trkpt>
<trkpt lat="43.63926" lon="5.5744">
<ele>274.7</ele>
<time>2012-03-24T14:11:33.000Z</time>
</trkpt>
<trkpt lat="43.63928" lon="5.57448">
<ele>274.5</ele>
<time>2012-03-24T14:11:34.000Z</time>
</trkpt>
<trkpt lat="43.6393" lon="5.57456">
<ele>275.1</ele>
<time>2012-03-24T14:11:35.000Z</time>
</trkpt>
<trkpt lat="43.63932" lon="5.57465">
<ele>274.6</ele>
<time>2012-03-24T14:11:36.000Z</time>
</trkpt>
<trkpt lat="43.63934" lon="5.57473">
<ele>274.5</ele>
<time>2012-03-24T14:11:37.000Z</time>
</trkpt>
<trkpt lat="43.63936" lon="5.57481">
<ele>274.6</ele>
<time>2012-03-24T14:11:38.000Z</time>
</trkpt>
<trkpt lat="43.63937" lon="5.5749">
<ele>274.6</ele>
<time>2012-03-24T14:11:39.000Z</time>
</trkpt>
<trkpt lat="43.6394" lon="5.57498">
<ele>274.5</ele>
<time>2012-03-24T14:11:40.000Z</time>
</trkpt>
<trkpt lat="43.63942" lon="5.57506">
<ele>274.6</ele>
<time>2012-03-24T14:11:41.000Z</time>
</trkpt>
<trkpt lat="43.63944" lon="5.57514">
<ele>274.5</ele>
<time>2012-03-24T14:11:42.000Z</time>
</trkpt>
<trkpt lat="43.63946" lon="5.57523">
<ele>274.2</ele>
<time>2012-03-24T14:11:43.000Z</time>
</trkpt>
<trkpt lat="43.63947" lon="5.57533">
<ele>274.2</ele>
<time>2012-03-24T14:11:44.000Z</time>
</trkpt>
<trkpt lat="43.63949" lon="5.57542">
<ele>273.7</ele>
<time>2012-03-24T14:11:45.000Z</time>
</trkpt>
<trkpt lat="43.63951" lon="5.57551">
<ele>274</ele>
<time>2012-03-24T14:11:46.000Z</time>
</trkpt>
<trkpt lat="43.63954" lon="5.5756">
<ele>274.1</ele>
<time>2012-03-24T14:11:47.000Z</time>
</trkpt>
<trkpt lat="43.63956" lon="5.57568">
<ele>274.1</ele>
<time>2012-03-24T14:11:48.000Z</time>
</trkpt>
<trkpt lat="43.63957" lon="5.57577">
<ele>273.8</ele>
<time>2012-03-24T14:11:49.000Z</time>
</trkpt>
<trkpt lat="43.6396" lon="5.57586">
<ele>273.9</ele>
<time>2012-03-24T14:11:50.000Z</time>
</trkpt>
<trkpt lat="43.63962" lon="5.57594">
<ele>273.4</ele>
<time>2012-03-24T14:11:51.000Z</time>
</trkpt>
<trkpt lat="43.63964" lon="5.57603">
<ele>273.5</ele>
<time>2012-03-24T14:11:52.000Z</time>
</trkpt>
<trkpt lat="43.63966" lon="5.57612">
<ele>273.1</ele>
<time>2012-03-24T14:11:53.000Z</time>
</trkpt>
<trkpt lat="43.63968" lon="5.57621">
<ele>273.2</ele>
<time>2012-03-24T14:11:54.000Z</time>
</trkpt>
<trkpt lat="43.6397" lon="5.5763">
<ele>273.3</ele>
<time>2012-03-24T14:11:55.000Z</time>
</trkpt>
<trkpt lat="43.63972" lon="5.57638">
<ele>273.1</ele>
<time>2012-03-24T14:11:56.000Z</time>
</trkpt>
<trkpt lat="43.63974" lon="5.57647">
<ele>272.9</ele>
<time>2012-03-24T14:11:57.000Z</time>
</trkpt>
<trkpt lat="43.63975" lon="5.57656">
<ele>272.8</ele>
<time>2012-03-24T14:11:58.000Z</time>
</trkpt>
<trkpt lat="43.63977" lon="5.57665">
<ele>272.8</ele>
<time>2012-03-24T14:11:59.000Z</time>
</trkpt>
<trkpt lat="43.63979" lon="5.57674">
<ele>273.2</ele>
<time>2012-03-24T14:12:00.000Z</time>
</trkpt>
<trkpt lat="43.63981" lon="5.57682">
<ele>273.3</ele>
<time>2012-03-24T14:12:01.000Z</time>
</trkpt>
<trkpt lat="43.63984" lon="5.57692">
<ele>273.1</ele>
<time>2012-03-24T14:12:02.000Z</time>
</trkpt>
<trkpt lat="43.63986" lon="5.577">
<ele>273.1</ele>
<time>2012-03-24T14:12:03.000Z</time>
</trkpt>
<trkpt lat="43.63988" lon="5.57709">
<ele>273.2</ele>
<time>2012-03-24T14:12:04.000Z</time>
</trkpt>
<trkpt lat="43.6399" lon="5.57718">
<ele>273.1</ele>
<time>2012-03-24T14:12:05.000Z</time>
</trkpt>
<trkpt lat="43.63992" lon="5.57728">
<ele>273.5</ele>
<time>2012-03-24T14:12:06.000Z</time>
</trkpt>
<trkpt lat="43.63994" lon="5.57736">
<ele>273.6</ele>
<time>2012-03-24T14:12:07.000Z</time>
</trkpt>
<trkpt lat="43.63995" lon="5.57745">
<ele>274.1</ele>
<time>2012-03-24T14:12:08.000Z</time>
</trkpt>
<trkpt lat="43.63997" lon="5.57754">
<ele>274.4</ele>
<time>2012-03-24T14:12:09.000Z</time>
</trkpt>
<trkpt lat="43.63999" lon="5.57762">
<ele>273.8</ele>
<time>2012-03-24T14:12:10.000Z</time>
</trkpt>
<trkpt lat="43.64" lon="5.5777">
<ele>273.7</ele>
<time>2012-03-24T14:12:11.000Z</time>
</trkpt>
<trkpt lat="43.64002" lon="5.57779">
<ele>274.2</ele>
<time>2012-03-24T14:12:12.000Z</time>
</trkpt>
<trkpt lat="43.64002" lon="5.57787">
<ele>273.6</ele>
<time>2012-03-24T14:12:13.000Z</time>
</trkpt>
<trkpt lat="43.64004" lon="5.57795">
<ele>273.7</ele>
<time>2012-03-24T14:12:14.000Z</time>
</trkpt>
<trkpt lat="43.64005" lon="5.57803">
<ele>274.1</ele>
<time>2012-03-24T14:12:15.000Z</time>
</trkpt>
<trkpt lat="43.64005" lon="5.57811">
<ele>274.2</ele>
<time>2012-03-24T14:12:16.000Z</time>
</trkpt>
<trkpt lat="43.64005" lon="5.57819">
<ele>274.4</ele>
<time>2012-03-24T14:12:17.000Z</time>
</trkpt>
<trkpt lat="43.64006" lon="5.57826">
<ele>274.9</ele>
<time>2012-03-24T14:12:18.000Z</time>
</trkpt>
<trkpt lat="43.64007" lon="5.57834">
<ele>275.6</ele>
<time>2012-03-24T14:12:19.000Z</time>
</trkpt>
<trkpt lat="43.64009" lon="5.57841">
<ele>275.9</ele>
<time>2012-03-24T14:12:20.000Z</time>
</trkpt>
<trkpt lat="43.64013" lon="5.57848">
<ele>275.4</ele>
<time>2012-03-24T14:12:21.000Z</time>
</trkpt>
<trkpt lat="43.64017" lon="5.57855">
<ele>275.3</ele>
<time>2012-03-24T14:12:22.000Z</time>
</trkpt>
<trkpt lat="43.6402" lon="5.57862">
<ele>275.2</ele>
<time>2012-03-24T14:12:23.000Z</time>
</trkpt>
<trkpt lat="43.64022" lon="5.57869">
<ele>275.2</ele>
<time>2012-03-24T14:12:24.000Z</time>
</trkpt>
<trkpt lat="43.64025" lon="5.57876">
<ele>275.5</ele>
<time>2012-03-24T14:12:25.000Z</time>
</trkpt>
<trkpt lat="43.64027" lon="5.57884">
<ele>275.2</ele>
<time>2012-03-24T14:12:26.000Z</time>
</trkpt>
<trkpt lat="43.64029" lon="5.57891">
<ele>275.2</ele>
<time>2012-03-24T14:12:27.000Z</time>
</trkpt>
<trkpt lat="43.64031" lon="5.57898">
<ele>275.6</ele>
<time>2012-03-24T14:12:28.000Z</time>
</trkpt>
<trkpt lat="43.64032" lon="5.57906">
<ele>275.7</ele>
<time>2012-03-24T14:12:29.000Z</time>
</trkpt>
<trkpt lat="43.64035" lon="5.57914">
<ele>275.5</ele>
<time>2012-03-24T14:12:30.000Z</time>
</trkpt>
<trkpt lat="43.64036" lon="5.57923">
<ele>275.1</ele>
<time>2012-03-24T14:12:31.000Z</time>
</trkpt>
<trkpt lat="43.64039" lon="5.57931">
<ele>275.1</ele>
<time>2012-03-24T14:12:32.000Z</time>
</trkpt>
<trkpt lat="43.64042" lon="5.5794">
<ele>275</ele>
<time>2012-03-24T14:12:33.000Z</time>
</trkpt>
<trkpt lat="43.64044" lon="5.57948">
<ele>274.9</ele>
<time>2012-03-24T14:12:34.000Z</time>
</trkpt>
<trkpt lat="43.64046" lon="5.57957">
<ele>275.2</ele>
<time>2012-03-24T14:12:35.000Z</time>
</trkpt>
<trkpt lat="43.64048" lon="5.57966">
<ele>275.1</ele>
<time>2012-03-24T14:12:36.000Z</time>
</trkpt>
<trkpt lat="43.6405" lon="5.57975">
<ele>275.3</ele>
<time>2012-03-24T14:12:37.000Z</time>
</trkpt>
<trkpt lat="43.64052" lon="5.57984">
<ele>275.4</ele>
<time>2012-03-24T14:12:38.000Z</time>
</trkpt>
<trkpt lat="43.64055" lon="5.57993">
<ele>275.5</ele>
<time>2012-03-24T14:12:39.000Z</time>
</trkpt>
<trkpt lat="43.64057" lon="5.58002">
<ele>275.5</ele>
<time>2012-03-24T14:12:40.000Z</time>
</trkpt>
<trkpt lat="43.6406" lon="5.5801">
<ele>275.2</ele>
<time>2012-03-24T14:12:41.000Z</time>
</trkpt>
<trkpt lat="43.64063" lon="5.5802">
<ele>275.4</ele>
<time>2012-03-24T14:12:42.000Z</time>
</trkpt>
<trkpt lat="43.64066" lon="5.58029">
<ele>275.6</ele>
<time>2012-03-24T14:12:43.000Z</time>
</trkpt>
<trkpt lat="43.64069" lon="5.58038">
<ele>275.8</ele>
<time>2012-03-24T14:12:44.000Z</time>
</trkpt>
<trkpt lat="43.64072" lon="5.58047">
<ele>275.6</ele>
<time>2012-03-24T14:12:45.000Z</time>
</trkpt>
<trkpt lat="43.64075" lon="5.58056">
<ele>275.7</ele>
<time>2012-03-24T14:12:46.000Z</time>
</trkpt>
<trkpt lat="43.64078" lon="5.58065">
<ele>275.5</ele>
<time>2012-03-24T14:12:47.000Z</time>
</trkpt>
<trkpt lat="43.64081" lon="5.58073">
<ele>275.3</ele>
<time>2012-03-24T14:12:48.000Z</time>
</trkpt>
<trkpt lat="43.64084" lon="5.58082">
<ele>275.5</ele>
<time>2012-03-24T14:12:49.000Z</time>
</trkpt>
<trkpt lat="43.64088" lon="5.5809">
<ele>275.7</ele>
<time>2012-03-24T14:12:50.000Z</time>
</trkpt>
<trkpt lat="43.64092" lon="5.58099">
<ele>275.6</ele>
<time>2012-03-24T14:12:51.000Z</time>
</trkpt>
<trkpt lat="43.64096" lon="5.58108">
<ele>275.8</ele>
<time>2012-03-24T14:12:52.000Z</time>
</trkpt>
<trkpt lat="43.641" lon="5.58117">
<ele>275.9</ele>
<time>2012-03-24T14:12:53.000Z</time>
</trkpt>
<trkpt lat="43.64104" lon="5.58125">
<ele>276</ele>
<time>2012-03-24T14:12:54.000Z</time>
</trkpt>
<trkpt lat="43.64108" lon="5.58133">
<ele>276.5</ele>
<time>2012-03-24T14:12:55.000Z</time>
</trkpt>
<trkpt lat="43.64112" lon="5.5814">
<ele>276.6</ele>
<time>2012-03-24T14:12:56.000Z</time>
</trkpt>
<trkpt lat="43.64116" lon="5.58148">
<ele>276.8</ele>
<time>2012-03-24T14:12:57.000Z</time>
</trkpt>
<trkpt lat="43.6412" lon="5.58155">
<ele>277</ele>
<time>2012-03-24T14:12:58.000Z</time>
</trkpt>
<trkpt lat="43.64125" lon="5.58163">
<ele>277</ele>
<time>2012-03-24T14:12:59.000Z</time>
</trkpt>
<trkpt lat="43.64129" lon="5.5817">
<ele>277.3</ele>
<time>2012-03-24T14:13:00.000Z</time>
</trkpt>
<trkpt lat="43.64133" lon="5.58177">
<ele>277.2</ele>
<time>2012-03-24T14:13:01.000Z</time>
</trkpt>
<trkpt lat="43.64138" lon="5.58184">
<ele>277.4</ele>
<time>2012-03-24T14:13:02.000Z</time>
</trkpt>
<trkpt lat="43.64142" lon="5.5819">
<ele>277.2</ele>
<time>2012-03-24T14:13:03.000Z</time>
</trkpt>
<trkpt lat="43.64146" lon="5.58196">
<ele>277.7</ele>
<time>2012-03-24T14:13:04.000Z</time>
</trkpt>
<trkpt lat="43.64149" lon="5.58203">
<ele>277.7</ele>
<time>2012-03-24T14:13:05.000Z</time>
</trkpt>
<trkpt lat="43.64153" lon="5.58208">
<ele>277.5</ele>
<time>2012-03-24T14:13:06.000Z</time>
</trkpt>
<trkpt lat="43.64157" lon="5.58212">
<ele>277.4</ele>
<time>2012-03-24T14:13:07.000Z</time>
</trkpt>
<trkpt lat="43.64161" lon="5.58218">
<ele>277.8</ele>
<time>2012-03-24T14:13:08.000Z</time>
</trkpt>
<trkpt lat="43.64163" lon="5.58224">
<ele>277.9</ele>
<time>2012-03-24T14:13:09.000Z</time>
</trkpt>
<trkpt lat="43.64167" lon="5.5823">
<ele>277.4</ele>
<time>2012-03-24T14:13:10.000Z</time>
</trkpt>
<trkpt lat="43.64171" lon="5.58237">
<ele>277.3</ele>
<time>2012-03-24T14:13:11.000Z</time>
</trkpt>
<trkpt lat="43.64175" lon="5.58245">
<ele>277.6</ele>
<time>2012-03-24T14:13:12.000Z</time>
</trkpt>
<trkpt lat="43.6418" lon="5.58251">
<ele>277.4</ele>
<time>2012-03-24T14:13:13.000Z</time>
</trkpt>
<trkpt lat="43.64184" lon="5.58259">
<ele>277.6</ele>
<time>2012-03-24T14:13:14.000Z</time>
</trkpt>
<trkpt lat="43.64188" lon="5.58267">
<ele>277.9</ele>
<time>2012-03-24T14:13:15.000Z</time>
</trkpt>
<trkpt lat="43.64192" lon="5.58275">
<ele>277.5</ele>
<time>2012-03-24T14:13:16.000Z</time>
</trkpt>
<trkpt lat="43.64196" lon="5.58283">
<ele>277.5</ele>
<time>2012-03-24T14:13:17.000Z</time>
</trkpt>
<trkpt lat="43.642" lon="5.58292">
<ele>276.9</ele>
<time>2012-03-24T14:13:18.000Z</time>
</trkpt>
<trkpt lat="43.64205" lon="5.583">
<ele>276.8</ele>
<time>2012-03-24T14:13:19.000Z</time>
</trkpt>
<trkpt lat="43.64209" lon="5.58309">
<ele>276.5</ele>
<time>2012-03-24T14:13:20.000Z</time>
</trkpt>
<trkpt lat="43.64213" lon="5.58318">
<ele>275.8</ele>
<time>2012-03-24T14:13:21.000Z</time>
</trkpt>
<trkpt lat="43.64217" lon="5.58327">
<ele>275.7</ele>
<time>2012-03-24T14:13:22.000Z</time>
</trkpt>
<trkpt lat="43.6422" lon="5.58336">
<ele>275.2</ele>
<time>2012-03-24T14:13:23.000Z</time>
</trkpt>
<trkpt lat="43.64224" lon="5.58345">
<ele>275.5</ele>
<time>2012-03-24T14:13:24.000Z</time>
</trkpt>
<trkpt lat="43.64227" lon="5.58354">
<ele>275.9</ele>
<time>2012-03-24T14:13:25.000Z</time>
</trkpt>
<trkpt lat="43.6423" lon="5.58363">
<ele>275.8</ele>
<time>2012-03-24T14:13:26.000Z</time>
</trkpt>
<trkpt lat="43.64233" lon="5.58373">
<ele>276</ele>
<time>2012-03-24T14:13:27.000Z</time>
</trkpt>
<trkpt lat="43.64236" lon="5.58382">
<ele>275.7</ele>
<time>2012-03-24T14:13:28.000Z</time>
</trkpt>
<trkpt lat="43.64239" lon="5.58392">
<ele>275.7</ele>
<time>2012-03-24T14:13:29.000Z</time>
</trkpt>
<trkpt lat="43.64241" lon="5.58402">
<ele>275.5</ele>
<time>2012-03-24T14:13:30.000Z</time>
</trkpt>
<trkpt lat="43.64244" lon="5.58412">
<ele>275.3</ele>
<time>2012-03-24T14:13:31.000Z</time>
</trkpt>
<trkpt lat="43.64247" lon="5.58422">
<ele>275.3</ele>
<time>2012-03-24T14:13:32.000Z</time>
</trkpt>
<trkpt lat="43.6425" lon="5.58432">
<ele>275.4</ele>
<time>2012-03-24T14:13:33.000Z</time>
</trkpt>
<trkpt lat="43.64252" lon="5.58441">
<ele>275.4</ele>
<time>2012-03-24T14:13:34.000Z</time>
</trkpt>
<trkpt lat="43.64254" lon="5.5845">
<ele>274.9</ele>
<time>2012-03-24T14:13:35.000Z</time>
</trkpt>
<trkpt lat="43.64256" lon="5.5846">
<ele>274.9</ele>
<time>2012-03-24T14:13:36.000Z</time>
</trkpt>
<trkpt lat="43.64258" lon="5.58469">
<ele>274.3</ele>
<time>2012-03-24T14:13:37.000Z</time>
</trkpt>
<trkpt lat="43.6426" lon="5.58478">
<ele>274.2</ele>
<time>2012-03-24T14:13:38.000Z</time>
</trkpt>
<trkpt lat="43.64262" lon="5.58487">
<ele>274.5</ele>
<time>2012-03-24T14:13:39.000Z</time>
</trkpt>
<trkpt lat="43.64264" lon="5.58496">
<ele>274.5</ele>
<time>2012-03-24T14:13:40.000Z</time>
</trkpt>
<trkpt lat="43.64264" lon="5.58503">
<ele>274.8</ele>
<time>2012-03-24T14:13:41.000Z</time>
</trkpt>
<trkpt lat="43.64265" lon="5.58511">
<ele>275</ele>
<time>2012-03-24T14:13:42.000Z</time>
</trkpt>
<trkpt lat="43.64266" lon="5.58518">
<ele>275.1</ele>
<time>2012-03-24T14:13:43.000Z</time>
</trkpt>
<trkpt lat="43.64267" lon="5.58524">
<ele>275.2</ele>
<time>2012-03-24T14:13:44.000Z</time>
</trkpt>
<trkpt lat="43.64269" lon="5.58534">
<ele>275.4</ele>
<time>2012-03-24T14:13:46.000Z</time>
</trkpt>
<trkpt lat="43.6427" lon="5.58541">
<ele>275.7</ele>
<time>2012-03-24T14:13:48.000Z</time>
</trkpt>
<trkpt lat="43.64272" lon="5.58547">
<ele>275.8</ele>
<time>2012-03-24T14:13:50.000Z</time>
</trkpt>
<trkpt lat="43.64276" lon="5.58554">
<ele>276.3</ele>
<time>2012-03-24T14:13:52.000Z</time>
</trkpt>
<trkpt lat="43.6428" lon="5.58563">
<ele>276.2</ele>
<time>2012-03-24T14:13:54.000Z</time>
</trkpt>
<trkpt lat="43.64282" lon="5.58569">
<ele>276</ele>
<time>2012-03-24T14:13:55.000Z</time>
</trkpt>
<trkpt lat="43.64284" lon="5.58574">
<ele>275.7</ele>
<time>2012-03-24T14:13:56.000Z</time>
</trkpt>
<trkpt lat="43.64286" lon="5.58581">
<ele>275.7</ele>
<time>2012-03-24T14:13:57.000Z</time>
</trkpt>
<trkpt lat="43.64289" lon="5.58589">
<ele>275.1</ele>
<time>2012-03-24T14:13:58.000Z</time>
</trkpt>
<trkpt lat="43.64292" lon="5.58597">
<ele>274.9</ele>
<time>2012-03-24T14:13:59.000Z</time>
</trkpt>
<trkpt lat="43.64294" lon="5.58605">
<ele>275</ele>
<time>2012-03-24T14:14:00.000Z</time>
</trkpt>
<trkpt lat="43.64297" lon="5.58613">
<ele>274.7</ele>
<time>2012-03-24T14:14:01.000Z</time>
</trkpt>
<trkpt lat="43.643" lon="5.58622">
<ele>274.3</ele>
<time>2012-03-24T14:14:02.000Z</time>
</trkpt>
<trkpt lat="43.64303" lon="5.58631">
<ele>274</ele>
<time>2012-03-24T14:14:03.000Z</time>
</trkpt>
<trkpt lat="43.64306" lon="5.58638">
<ele>274.3</ele>
<time>2012-03-24T14:14:04.000Z</time>
</trkpt>
<trkpt lat="43.64309" lon="5.58645">
<ele>274.3</ele>
<time>2012-03-24T14:14:05.000Z</time>
</trkpt>
<trkpt lat="43.6431" lon="5.58652">
<ele>274.3</ele>
<time>2012-03-24T14:14:06.000Z</time>
</trkpt>
<trkpt lat="43.64312" lon="5.5866">
<ele>274.6</ele>
<time>2012-03-24T14:14:07.000Z</time>
</trkpt>
<trkpt lat="43.64313" lon="5.58668">
<ele>274.5</ele>
<time>2012-03-24T14:14:08.000Z</time>
</trkpt>
<trkpt lat="43.64316" lon="5.58676">
<ele>273.9</ele>
<time>2012-03-24T14:14:09.000Z</time>
</trkpt>
<trkpt lat="43.64316" lon="5.58685">
<ele>273.4</ele>
<time>2012-03-24T14:14:10.000Z</time>
</trkpt>
<trkpt lat="43.64319" lon="5.58693">
<ele>273.2</ele>
<time>2012-03-24T14:14:11.000Z</time>
</trkpt>
<trkpt lat="43.6432" lon="5.58701">
<ele>273.5</ele>
<time>2012-03-24T14:14:12.000Z</time>
</trkpt>
<trkpt lat="43.64321" lon="5.58709">
<ele>273.4</ele>
<time>2012-03-24T14:14:13.000Z</time>
</trkpt>
<trkpt lat="43.64323" lon="5.58719">
<ele>273.8</ele>
<time>2012-03-24T14:14:14.000Z</time>
</trkpt>
<trkpt lat="43.64324" lon="5.58728">
<ele>273.9</ele>
<time>2012-03-24T14:14:15.000Z</time>
</trkpt>
<trkpt lat="43.64325" lon="5.58737">
<ele>273.5</ele>
<time>2012-03-24T14:14:16.000Z</time>
</trkpt>
<trkpt lat="43.64326" lon="5.58746">
<ele>273.3</ele>
<time>2012-03-24T14:14:17.000Z</time>
</trkpt>
<trkpt lat="43.64327" lon="5.58755">
<ele>273.4</ele>
<time>2012-03-24T14:14:18.000Z</time>
</trkpt>
<trkpt lat="43.64328" lon="5.58765">
<ele>273.4</ele>
<time>2012-03-24T14:14:19.000Z</time>
</trkpt>
<trkpt lat="43.64329" lon="5.58774">
<ele>273.7</ele>
<time>2012-03-24T14:14:20.000Z</time>
</trkpt>
<trkpt lat="43.6433" lon="5.58783">
<ele>273.6</ele>
<time>2012-03-24T14:14:21.000Z</time>
</trkpt>
<trkpt lat="43.6433" lon="5.58792">
<ele>273.8</ele>
<time>2012-03-24T14:14:22.000Z</time>
</trkpt>
<trkpt lat="43.64331" lon="5.58802">
<ele>273.7</ele>
<time>2012-03-24T14:14:23.000Z</time>
</trkpt>
<trkpt lat="43.64332" lon="5.58811">
<ele>273.8</ele>
<time>2012-03-24T14:14:24.000Z</time>
</trkpt>
<trkpt lat="43.64332" lon="5.5882">
<ele>273.8</ele>
<time>2012-03-24T14:14:25.000Z</time>
</trkpt>
<trkpt lat="43.64332" lon="5.58829">
<ele>274</ele>
<time>2012-03-24T14:14:26.000Z</time>
</trkpt>
<trkpt lat="43.64332" lon="5.58838">
<ele>273.9</ele>
<time>2012-03-24T14:14:27.000Z</time>
</trkpt>
<trkpt lat="43.64332" lon="5.58847">
<ele>273.9</ele>
<time>2012-03-24T14:14:28.000Z</time>
</trkpt>
<trkpt lat="43.64332" lon="5.58857">
<ele>273.8</ele>
<time>2012-03-24T14:14:29.000Z</time>
</trkpt>
<trkpt lat="43.64333" lon="5.58866">
<ele>273.8</ele>
<time>2012-03-24T14:14:30.000Z</time>
</trkpt>
<trkpt lat="43.64333" lon="5.58876">
<ele>273.7</ele>
<time>2012-03-24T14:14:31.000Z</time>
</trkpt>
<trkpt lat="43.64334" lon="5.58886">
<ele>273.6</ele>
<time>2012-03-24T14:14:32.000Z</time>
</trkpt>
<trkpt lat="43.64334" lon="5.58896">
<ele>273.5</ele>
<time>2012-03-24T14:14:33.000Z</time>
</trkpt>
<trkpt lat="43.64335" lon="5.58905">
<ele>273.8</ele>
<time>2012-03-24T14:14:34.000Z</time>
</trkpt>
<trkpt lat="43.64335" lon="5.58915">
<ele>273.3</ele>
<time>2012-03-24T14:14:35.000Z</time>
</trkpt>
<trkpt lat="43.64336" lon="5.58925">
<ele>273</ele>
<time>2012-03-24T14:14:36.000Z</time>
</trkpt>
<trkpt lat="43.64336" lon="5.58935">
<ele>272.8</ele>
<time>2012-03-24T14:14:37.000Z</time>
</trkpt>
<trkpt lat="43.64336" lon="5.58945">
<ele>272.6</ele>
<time>2012-03-24T14:14:38.000Z</time>
</trkpt>
<trkpt lat="43.64336" lon="5.58954">
<ele>272.5</ele>
<time>2012-03-24T14:14:39.000Z</time>
</trkpt>
<trkpt lat="43.64336" lon="5.58964">
<ele>272.4</ele>
<time>2012-03-24T14:14:40.000Z</time>
</trkpt>
<trkpt lat="43.64337" lon="5.58974">
<ele>272.4</ele>
<time>2012-03-24T14:14:41.000Z</time>
</trkpt>
<trkpt lat="43.64337" lon="5.58983">
<ele>272.6</ele>
<time>2012-03-24T14:14:42.000Z</time>
</trkpt>
<trkpt lat="43.64337" lon="5.58993">
<ele>272.6</ele>
<time>2012-03-24T14:14:43.000Z</time>
</trkpt>
<trkpt lat="43.64338" lon="5.59003">
<ele>272.5</ele>
<time>2012-03-24T14:14:44.000Z</time>
</trkpt>
<trkpt lat="43.64338" lon="5.59013">
<ele>272.4</ele>
<time>2012-03-24T14:14:45.000Z</time>
</trkpt>
<trkpt lat="43.64338" lon="5.59023">
<ele>272.4</ele>
<time>2012-03-24T14:14:46.000Z</time>
</trkpt>
<trkpt lat="43.64338" lon="5.59033">
<ele>272.5</ele>
<time>2012-03-24T14:14:47.000Z</time>
</trkpt>
<trkpt lat="43.64338" lon="5.59044">
<ele>272.4</ele>
<time>2012-03-24T14:14:48.000Z</time>
</trkpt>
<trkpt lat="43.64338" lon="5.59054">
<ele>272.5</ele>
<time>2012-03-24T14:14:49.000Z</time>
</trkpt>
<trkpt lat="43.64339" lon="5.59064">
<ele>272.5</ele>
<time>2012-03-24T14:14:50.000Z</time>
</trkpt>
<trkpt lat="43.64339" lon="5.59075">
<ele>272.5</ele>
<time>2012-03-24T14:14:51.000Z</time>
</trkpt>
<trkpt lat="43.6434" lon="5.59085">
<ele>272.7</ele>
<time>2012-03-24T14:14:52.000Z</time>
</trkpt>
<trkpt lat="43.6434" lon="5.59096">
<ele>272.4</ele>
<time>2012-03-24T14:14:53.000Z</time>
</trkpt>
<trkpt lat="43.6434" lon="5.59106">
<ele>272.2</ele>
<time>2012-03-24T14:14:54.000Z</time>
</trkpt>
<trkpt lat="43.6434" lon="5.59116">
<ele>272</ele>
<time>2012-03-24T14:14:55.000Z</time>
</trkpt>
<trkpt lat="43.6434" lon="5.59126">
<ele>272.4</ele>
<time>2012-03-24T14:14:56.000Z</time>
</trkpt>
<trkpt lat="43.6434" lon="5.59135">
<ele>272.5</ele>
<time>2012-03-24T14:14:57.000Z</time>
</trkpt>
<trkpt lat="43.64341" lon="5.59142">
<ele>273.3</ele>
<time>2012-03-24T14:14:58.000Z</time>
</trkpt>
<trkpt lat="43.64341" lon="5.59148">
<ele>274</ele>
<time>2012-03-24T14:14:59.000Z</time>
</trkpt>
<trkpt lat="43.64342" lon="5.59158">
<ele>274.6</ele>
<time>2012-03-24T14:15:01.000Z</time>
</trkpt>
<trkpt lat="43.64343" lon="5.59164">
<ele>274.9</ele>
<time>2012-03-24T14:15:03.000Z</time>
</trkpt>
<trkpt lat="43.64346" lon="5.59172">
<ele>274.7</ele>
<time>2012-03-24T14:15:05.000Z</time>
</trkpt>
<trkpt lat="43.64351" lon="5.59183">
<ele>274</ele>
<time>2012-03-24T14:15:07.000Z</time>
</trkpt>
<trkpt lat="43.64353" lon="5.59189">
<ele>273.6</ele>
<time>2012-03-24T14:15:08.000Z</time>
</trkpt>
<trkpt lat="43.64355" lon="5.59196">
<ele>273.4</ele>
<time>2012-03-24T14:15:09.000Z</time>
</trkpt>
<trkpt lat="43.64356" lon="5.59203">
<ele>273.6</ele>
<time>2012-03-24T14:15:10.000Z</time>
</trkpt>
<trkpt lat="43.64358" lon="5.59211">
<ele>273.7</ele>
<time>2012-03-24T14:15:11.000Z</time>
</trkpt>
<trkpt lat="43.6436" lon="5.59221">
<ele>273</ele>
<time>2012-03-24T14:15:12.000Z</time>
</trkpt>
<trkpt lat="43.64363" lon="5.59231">
<ele>272.8</ele>
<time>2012-03-24T14:15:13.000Z</time>
</trkpt>
<trkpt lat="43.64365" lon="5.59239">
<ele>273.1</ele>
<time>2012-03-24T14:15:14.000Z</time>
</trkpt>
<trkpt lat="43.64367" lon="5.59249">
<ele>273.5</ele>
<time>2012-03-24T14:15:15.000Z</time>
</trkpt>
<trkpt lat="43.64369" lon="5.59259">
<ele>272.7</ele>
<time>2012-03-24T14:15:16.000Z</time>
</trkpt>
<trkpt lat="43.64371" lon="5.59268">
<ele>272.6</ele>
<time>2012-03-24T14:15:17.000Z</time>
</trkpt>
<trkpt lat="43.64373" lon="5.59277">
<ele>272.6</ele>
<time>2012-03-24T14:15:18.000Z</time>
</trkpt>
<trkpt lat="43.64374" lon="5.59286">
<ele>272.6</ele>
<time>2012-03-24T14:15:19.000Z</time>
</trkpt>
<trkpt lat="43.64376" lon="5.59296">
<ele>272.6</ele>
<time>2012-03-24T14:15:20.000Z</time>
</trkpt>
<trkpt lat="43.64378" lon="5.59306">
<ele>272.3</ele>
<time>2012-03-24T14:15:21.000Z</time>
</trkpt>
<trkpt lat="43.6438" lon="5.59316">
<ele>272.2</ele>
<time>2012-03-24T14:15:22.000Z</time>
</trkpt>
<trkpt lat="43.64382" lon="5.59325">
<ele>272.1</ele>
<time>2012-03-24T14:15:23.000Z</time>
</trkpt>
<trkpt lat="43.64384" lon="5.59334">
<ele>272.3</ele>
<time>2012-03-24T14:15:24.000Z</time>
</trkpt>
<trkpt lat="43.64385" lon="5.59343">
<ele>272.2</ele>
<time>2012-03-24T14:15:25.000Z</time>
</trkpt>
<trkpt lat="43.64386" lon="5.59352">
<ele>272.5</ele>
<time>2012-03-24T14:15:26.000Z</time>
</trkpt>
<trkpt lat="43.64388" lon="5.59361">
<ele>272.1</ele>
<time>2012-03-24T14:15:27.000Z</time>
</trkpt>
<trkpt lat="43.64388" lon="5.5937">
<ele>272.4</ele>
<time>2012-03-24T14:15:28.000Z</time>
</trkpt>
<trkpt lat="43.64388" lon="5.5938">
<ele>272.9</ele>
<time>2012-03-24T14:15:29.000Z</time>
</trkpt>
<trkpt lat="43.64388" lon="5.59389">
<ele>273.5</ele>
<time>2012-03-24T14:15:30.000Z</time>
</trkpt>
<trkpt lat="43.64389" lon="5.59398">
<ele>273.6</ele>
<time>2012-03-24T14:15:31.000Z</time>
</trkpt>
<trkpt lat="43.6439" lon="5.59407">
<ele>274.1</ele>
<time>2012-03-24T14:15:32.000Z</time>
</trkpt>
<trkpt lat="43.64391" lon="5.59415">
<ele>274.5</ele>
<time>2012-03-24T14:15:33.000Z</time>
</trkpt>
<trkpt lat="43.64392" lon="5.59424">
<ele>274.7</ele>
<time>2012-03-24T14:15:34.000Z</time>
</trkpt>
<trkpt lat="43.64393" lon="5.59432">
<ele>274.8</ele>
<time>2012-03-24T14:15:35.000Z</time>
</trkpt>
<trkpt lat="43.64395" lon="5.59439">
<ele>275</ele>
<time>2012-03-24T14:15:36.000Z</time>
</trkpt>
<trkpt lat="43.64396" lon="5.59446">
<ele>275.3</ele>
<time>2012-03-24T14:15:37.000Z</time>
</trkpt>
<trkpt lat="43.64397" lon="5.59455">
<ele>275.4</ele>
<time>2012-03-24T14:15:38.000Z</time>
</trkpt>
<trkpt lat="43.64398" lon="5.59462">
<ele>275.5</ele>
<time>2012-03-24T14:15:39.000Z</time>
</trkpt>
<trkpt lat="43.64399" lon="5.59469">
<ele>275.9</ele>
<time>2012-03-24T14:15:40.000Z</time>
</trkpt>
<trkpt lat="43.64401" lon="5.59477">
<ele>276.2</ele>
<time>2012-03-24T14:15:41.000Z</time>
</trkpt>
<trkpt lat="43.64401" lon="5.59484">
<ele>276.5</ele>
<time>2012-03-24T14:15:42.000Z</time>
</trkpt>
<trkpt lat="43.64402" lon="5.59491">
<ele>276.7</ele>
<time>2012-03-24T14:15:43.000Z</time>
</trkpt>
<trkpt lat="43.64403" lon="5.59498">
<ele>276.8</ele>
<time>2012-03-24T14:15:44.000Z</time>
</trkpt>
<trkpt lat="43.64404" lon="5.59506">
<ele>276.7</ele>
<time>2012-03-24T14:15:45.000Z</time>
</trkpt>
<trkpt lat="43.64404" lon="5.59515">
<ele>276.6</ele>
<time>2012-03-24T14:15:46.000Z</time>
</trkpt>
<trkpt lat="43.64405" lon="5.59525">
<ele>277</ele>
<time>2012-03-24T14:15:47.000Z</time>
</trkpt>
<trkpt lat="43.64404" lon="5.59533">
<ele>277.1</ele>
<time>2012-03-24T14:15:48.000Z</time>
</trkpt>
<trkpt lat="43.64406" lon="5.5954">
<ele>277</ele>
<time>2012-03-24T14:15:49.000Z</time>
</trkpt>
<trkpt lat="43.64407" lon="5.59548">
<ele>276.7</ele>
<time>2012-03-24T14:15:50.000Z</time>
</trkpt>
<trkpt lat="43.64408" lon="5.59555">
<ele>276.8</ele>
<time>2012-03-24T14:15:51.000Z</time>
</trkpt>
<trkpt lat="43.6441" lon="5.59564">
<ele>276.6</ele>
<time>2012-03-24T14:15:52.000Z</time>
</trkpt>
<trkpt lat="43.64411" lon="5.59572">
<ele>277</ele>
<time>2012-03-24T14:15:53.000Z</time>
</trkpt>
<trkpt lat="43.64412" lon="5.59581">
<ele>277.2</ele>
<time>2012-03-24T14:15:54.000Z</time>
</trkpt>
<trkpt lat="43.64413" lon="5.59589">
<ele>277.3</ele>
<time>2012-03-24T14:15:55.000Z</time>
</trkpt>
<trkpt lat="43.64414" lon="5.59599">
<ele>277.5</ele>
<time>2012-03-24T14:15:56.000Z</time>
</trkpt>
<trkpt lat="43.64415" lon="5.59607">
<ele>277.7</ele>
<time>2012-03-24T14:15:57.000Z</time>
</trkpt>
<trkpt lat="43.64415" lon="5.59616">
<ele>277.2</ele>
<time>2012-03-24T14:15:58.000Z</time>
</trkpt>
<trkpt lat="43.64415" lon="5.59626">
<ele>277.5</ele>
<time>2012-03-24T14:15:59.000Z</time>
</trkpt>
<trkpt lat="43.64414" lon="5.59635">
<ele>277.5</ele>
<time>2012-03-24T14:16:00.000Z</time>
</trkpt>
<trkpt lat="43.64415" lon="5.59647">
<ele>277.5</ele>
<time>2012-03-24T14:16:01.000Z</time>
</trkpt>
<trkpt lat="43.64414" lon="5.59658">
<ele>277.9</ele>
<time>2012-03-24T14:16:02.000Z</time>
</trkpt>
<trkpt lat="43.64414" lon="5.59668">
<ele>277</ele>
<time>2012-03-24T14:16:03.000Z</time>
</trkpt>
<trkpt lat="43.64414" lon="5.59676">
<ele>276.6</ele>
<time>2012-03-24T14:16:04.000Z</time>
</trkpt>
<trkpt lat="43.64414" lon="5.59687">
<ele>276.8</ele>
<time>2012-03-24T14:16:05.000Z</time>
</trkpt>
<trkpt lat="43.64414" lon="5.59698">
<ele>277.8</ele>
<time>2012-03-24T14:16:06.000Z</time>
</trkpt>
<trkpt lat="43.64415" lon="5.59708">
<ele>277.8</ele>
<time>2012-03-24T14:16:07.000Z</time>
</trkpt>
<trkpt lat="43.64415" lon="5.59718">
<ele>278</ele>
<time>2012-03-24T14:16:08.000Z</time>
</trkpt>
<trkpt lat="43.64416" lon="5.59728">
<ele>278.4</ele>
<time>2012-03-24T14:16:09.000Z</time>
</trkpt>
<trkpt lat="43.64416" lon="5.59737">
<ele>278.4</ele>
<time>2012-03-24T14:16:10.000Z</time>
</trkpt>
<trkpt lat="43.64417" lon="5.59747">
<ele>278.6</ele>
<time>2012-03-24T14:16:11.000Z</time>
</trkpt>
<trkpt lat="43.64418" lon="5.59757">
<ele>278.4</ele>
<time>2012-03-24T14:16:12.000Z</time>
</trkpt>
<trkpt lat="43.64418" lon="5.59765">
<ele>278.8</ele>
<time>2012-03-24T14:16:13.000Z</time>
</trkpt>
<trkpt lat="43.64419" lon="5.59774">
<ele>278.7</ele>
<time>2012-03-24T14:16:14.000Z</time>
</trkpt>
<trkpt lat="43.6442" lon="5.59783">
<ele>278.3</ele>
<time>2012-03-24T14:16:15.000Z</time>
</trkpt>
<trkpt lat="43.64421" lon="5.59792">
<ele>278.3</ele>
<time>2012-03-24T14:16:16.000Z</time>
</trkpt>
<trkpt lat="43.64422" lon="5.59801">
<ele>278.5</ele>
<time>2012-03-24T14:16:17.000Z</time>
</trkpt>
<trkpt lat="43.64423" lon="5.59809">
<ele>278.6</ele>
<time>2012-03-24T14:16:18.000Z</time>
</trkpt>
<trkpt lat="43.64425" lon="5.59818">
<ele>278.3</ele>
<time>2012-03-24T14:16:19.000Z</time>
</trkpt>
<trkpt lat="43.64426" lon="5.59827">
<ele>278.3</ele>
<time>2012-03-24T14:16:20.000Z</time>
</trkpt>
<trkpt lat="43.64428" lon="5.59836">
<ele>278</ele>
<time>2012-03-24T14:16:21.000Z</time>
</trkpt>
<trkpt lat="43.64429" lon="5.59844">
<ele>277.8</ele>
<time>2012-03-24T14:16:22.000Z</time>
</trkpt>
<trkpt lat="43.64432" lon="5.59853">
<ele>277.9</ele>
<time>2012-03-24T14:16:23.000Z</time>
</trkpt>
<trkpt lat="43.64433" lon="5.59862">
<ele>277.7</ele>
<time>2012-03-24T14:16:24.000Z</time>
</trkpt>
<trkpt lat="43.64436" lon="5.59871">
<ele>277.1</ele>
<time>2012-03-24T14:16:25.000Z</time>
</trkpt>
<trkpt lat="43.64438" lon="5.5988">
<ele>276.9</ele>
<time>2012-03-24T14:16:26.000Z</time>
</trkpt>
<trkpt lat="43.6444" lon="5.5989">
<ele>276.9</ele>
<time>2012-03-24T14:16:27.000Z</time>
</trkpt>
<trkpt lat="43.64442" lon="5.599">
<ele>276.9</ele>
<time>2012-03-24T14:16:28.000Z</time>
</trkpt>
<trkpt lat="43.64444" lon="5.59909">
<ele>276.6</ele>
<time>2012-03-24T14:16:29.000Z</time>
</trkpt>
<trkpt lat="43.64446" lon="5.59919">
<ele>276.8</ele>
<time>2012-03-24T14:16:30.000Z</time>
</trkpt>
<trkpt lat="43.64447" lon="5.59928">
<ele>277</ele>
<time>2012-03-24T14:16:31.000Z</time>
</trkpt>
<trkpt lat="43.64448" lon="5.59938">
<ele>276.9</ele>
<time>2012-03-24T14:16:32.000Z</time>
</trkpt>
<trkpt lat="43.6445" lon="5.59948">
<ele>276.9</ele>
<time>2012-03-24T14:16:33.000Z</time>
</trkpt>
<trkpt lat="43.64451" lon="5.59957">
<ele>276.5</ele>
<time>2012-03-24T14:16:34.000Z</time>
</trkpt>
<trkpt lat="43.64452" lon="5.59967">
<ele>276.4</ele>
<time>2012-03-24T14:16:35.000Z</time>
</trkpt>
<trkpt lat="43.64453" lon="5.59977">
<ele>276.4</ele>
<time>2012-03-24T14:16:36.000Z</time>
</trkpt>
<trkpt lat="43.64454" lon="5.59986">
<ele>275.9</ele>
<time>2012-03-24T14:16:37.000Z</time>
</trkpt>
<trkpt lat="43.64456" lon="5.59996">
<ele>275.9</ele>
<time>2012-03-24T14:16:38.000Z</time>
</trkpt>
<trkpt lat="43.64457" lon="5.60006">
<ele>275.8</ele>
<time>2012-03-24T14:16:39.000Z</time>
</trkpt>
<trkpt lat="43.64458" lon="5.60015">
<ele>275.7</ele>
<time>2012-03-24T14:16:40.000Z</time>
</trkpt>
<trkpt lat="43.64459" lon="5.60025">
<ele>275.5</ele>
<time>2012-03-24T14:16:41.000Z</time>
</trkpt>
<trkpt lat="43.64461" lon="5.60034">
<ele>275.5</ele>
<time>2012-03-24T14:16:42.000Z</time>
</trkpt>
<trkpt lat="43.64462" lon="5.60044">
<ele>275.4</ele>
<time>2012-03-24T14:16:43.000Z</time>
</trkpt>
<trkpt lat="43.64464" lon="5.60053">
<ele>275</ele>
<time>2012-03-24T14:16:44.000Z</time>
</trkpt>
<trkpt lat="43.64466" lon="5.60063">
<ele>275.1</ele>
<time>2012-03-24T14:16:45.000Z</time>
</trkpt>
<trkpt lat="43.64468" lon="5.60072">
<ele>275</ele>
<time>2012-03-24T14:16:46.000Z</time>
</trkpt>
<trkpt lat="43.6447" lon="5.60082">
<ele>275.2</ele>
<time>2012-03-24T14:16:47.000Z</time>
</trkpt>
<trkpt lat="43.64472" lon="5.60091">
<ele>275.3</ele>
<time>2012-03-24T14:16:48.000Z</time>
</trkpt>
<trkpt lat="43.64474" lon="5.60101">
<ele>275.4</ele>
<time>2012-03-24T14:16:49.000Z</time>
</trkpt>
<trkpt lat="43.64476" lon="5.6011">
<ele>275.7</ele>
<time>2012-03-24T14:16:50.000Z</time>
</trkpt>
<trkpt lat="43.64477" lon="5.60118">
<ele>275.9</ele>
<time>2012-03-24T14:16:51.000Z</time>
</trkpt>
<trkpt lat="43.64479" lon="5.60128">
<ele>276.1</ele>
<time>2012-03-24T14:16:52.000Z</time>
</trkpt>
<trkpt lat="43.6448" lon="5.60135">
<ele>276.6</ele>
<time>2012-03-24T14:16:53.000Z</time>
</trkpt>
<trkpt lat="43.64481" lon="5.60143">
<ele>276.6</ele>
<time>2012-03-24T14:16:54.000Z</time>
</trkpt>
<trkpt lat="43.64483" lon="5.6015">
<ele>277.1</ele>
<time>2012-03-24T14:16:55.000Z</time>
</trkpt>
<trkpt lat="43.64484" lon="5.60157">
<ele>277.1</ele>
<time>2012-03-24T14:16:56.000Z</time>
</trkpt>
<trkpt lat="43.64486" lon="5.60164">
<ele>277.9</ele>
<time>2012-03-24T14:16:57.000Z</time>
</trkpt>
<trkpt lat="43.64487" lon="5.60171">
<ele>278.6</ele>
<time>2012-03-24T14:16:58.000Z</time>
</trkpt>
<trkpt lat="43.64488" lon="5.60178">
<ele>279</ele>
<time>2012-03-24T14:16:59.000Z</time>
</trkpt>
<trkpt lat="43.64489" lon="5.60185">
<ele>279.3</ele>
<time>2012-03-24T14:17:00.000Z</time>
</trkpt>
<trkpt lat="43.6449" lon="5.60191">
<ele>279.6</ele>
<time>2012-03-24T14:17:01.000Z</time>
</trkpt>
<trkpt lat="43.64492" lon="5.60198">
<ele>279.7</ele>
<time>2012-03-24T14:17:02.000Z</time>
</trkpt>
<trkpt lat="43.64493" lon="5.60204">
<ele>279.7</ele>
<time>2012-03-24T14:17:03.000Z</time>
</trkpt>
<trkpt lat="43.64493" lon="5.60211">
<ele>279.7</ele>
<time>2012-03-24T14:17:04.000Z</time>
</trkpt>
<trkpt lat="43.64493" lon="5.60218">
<ele>279.6</ele>
<time>2012-03-24T14:17:05.000Z</time>
</trkpt>
<trkpt lat="43.64493" lon="5.60224">
<ele>280</ele>
<time>2012-03-24T14:17:06.000Z</time>
</trkpt>
<trkpt lat="43.64493" lon="5.60232">
<ele>280.3</ele>
<time>2012-03-24T14:17:07.000Z</time>
</trkpt>
<trkpt lat="43.64493" lon="5.60239">
<ele>280.5</ele>
<time>2012-03-24T14:17:08.000Z</time>
</trkpt>
<trkpt lat="43.64492" lon="5.60245">
<ele>280.9</ele>
<time>2012-03-24T14:17:09.000Z</time>
</trkpt>
<trkpt lat="43.64491" lon="5.60252">
<ele>280.9</ele>
<time>2012-03-24T14:17:10.000Z</time>
</trkpt>
<trkpt lat="43.64491" lon="5.6026">
<ele>281.8</ele>
<time>2012-03-24T14:17:11.000Z</time>
</trkpt>
<trkpt lat="43.6449" lon="5.60267">
<ele>282.2</ele>
<time>2012-03-24T14:17:12.000Z</time>
</trkpt>
<trkpt lat="43.6449" lon="5.60274">
<ele>282.3</ele>
<time>2012-03-24T14:17:13.000Z</time>
</trkpt>
<trkpt lat="43.6449" lon="5.60282">
<ele>282.9</ele>
<time>2012-03-24T14:17:14.000Z</time>
</trkpt>
<trkpt lat="43.6449" lon="5.6029">
<ele>283.2</ele>
<time>2012-03-24T14:17:15.000Z</time>
</trkpt>
<trkpt lat="43.6449" lon="5.60297">
<ele>283.2</ele>
<time>2012-03-24T14:17:16.000Z</time>
</trkpt>
<trkpt lat="43.64489" lon="5.60305">
<ele>283.3</ele>
<time>2012-03-24T14:17:17.000Z</time>
</trkpt>
<trkpt lat="43.64488" lon="5.60313">
<ele>283.7</ele>
<time>2012-03-24T14:17:18.000Z</time>
</trkpt>
<trkpt lat="43.64487" lon="5.60321">
<ele>283.9</ele>
<time>2012-03-24T14:17:19.000Z</time>
</trkpt>
<trkpt lat="43.64487" lon="5.60328">
<ele>284</ele>
<time>2012-03-24T14:17:20.000Z</time>
</trkpt>
<trkpt lat="43.64486" lon="5.60336">
<ele>284.2</ele>
<time>2012-03-24T14:17:21.000Z</time>
</trkpt>
<trkpt lat="43.64487" lon="5.60342">
<ele>284</ele>
<time>2012-03-24T14:17:22.000Z</time>
</trkpt>
<trkpt lat="43.64485" lon="5.60349">
<ele>284.2</ele>
<time>2012-03-24T14:17:23.000Z</time>
</trkpt>
<trkpt lat="43.64484" lon="5.60355">
<ele>284</ele>
<time>2012-03-24T14:17:24.000Z</time>
</trkpt>
<trkpt lat="43.64483" lon="5.60362">
<ele>284</ele>
<time>2012-03-24T14:17:25.000Z</time>
</trkpt>
<trkpt lat="43.64482" lon="5.60368">
<ele>284</ele>
<time>2012-03-24T14:17:26.000Z</time>
</trkpt>
<trkpt lat="43.64484" lon="5.60374">
<ele>283.8</ele>
<time>2012-03-24T14:17:27.000Z</time>
</trkpt>
<trkpt lat="43.64485" lon="5.60382">
<ele>284.1</ele>
<time>2012-03-24T14:17:28.000Z</time>
</trkpt>
<trkpt lat="43.64485" lon="5.60389">
<ele>284.2</ele>
<time>2012-03-24T14:17:29.000Z</time>
</trkpt>
<trkpt lat="43.64481" lon="5.60396">
<ele>284.7</ele>
<time>2012-03-24T14:17:30.000Z</time>
</trkpt>
<trkpt lat="43.64481" lon="5.60402">
<ele>284.9</ele>
<time>2012-03-24T14:17:31.000Z</time>
</trkpt>
<trkpt lat="43.64481" lon="5.60415">
<ele>285.2</ele>
<time>2012-03-24T14:17:33.000Z</time>
</trkpt>
<trkpt lat="43.64482" lon="5.60422">
<ele>285.6</ele>
<time>2012-03-24T14:17:34.000Z</time>
</trkpt>
<trkpt lat="43.64476" lon="5.6043">
<ele>282.6</ele>
<time>2012-03-24T14:17:35.000Z</time>
</trkpt>
<trkpt lat="43.64475" lon="5.60437">
<ele>282.7</ele>
<time>2012-03-24T14:17:36.000Z</time>
</trkpt>
<trkpt lat="43.64475" lon="5.60444">
<ele>283.4</ele>
<time>2012-03-24T14:17:37.000Z</time>
</trkpt>
<trkpt lat="43.64476" lon="5.60451">
<ele>283.7</ele>
<time>2012-03-24T14:17:38.000Z</time>
</trkpt>
<trkpt lat="43.64477" lon="5.60462">
<ele>284.4</ele>
<time>2012-03-24T14:17:40.000Z</time>
</trkpt>
<trkpt lat="43.64476" lon="5.60468">
<ele>284.7</ele>
<time>2012-03-24T14:17:41.000Z</time>
</trkpt>
<trkpt lat="43.64478" lon="5.60474">
<ele>284.9</ele>
<time>2012-03-24T14:17:42.000Z</time>
</trkpt>
<trkpt lat="43.64477" lon="5.60486">
<ele>285.1</ele>
<time>2012-03-24T14:17:44.000Z</time>
</trkpt>
<trkpt lat="43.64475" lon="5.60498">
<ele>285.2</ele>
<time>2012-03-24T14:17:46.000Z</time>
</trkpt>
<trkpt lat="43.64472" lon="5.60504">
<ele>284.8</ele>
<time>2012-03-24T14:17:47.000Z</time>
</trkpt>
<trkpt lat="43.64466" lon="5.60513">
<ele>284.9</ele>
<time>2012-03-24T14:17:48.000Z</time>
</trkpt>
<trkpt lat="43.64462" lon="5.6052">
<ele>286</ele>
<time>2012-03-24T14:17:50.000Z</time>
</trkpt>
<trkpt lat="43.64456" lon="5.60528">
<ele>286.4</ele>
<time>2012-03-24T14:17:52.000Z</time>
</trkpt>
<trkpt lat="43.64451" lon="5.60537">
<ele>286.5</ele>
<time>2012-03-24T14:17:54.000Z</time>
</trkpt>
<trkpt lat="43.64447" lon="5.60542">
<ele>286.8</ele>
<time>2012-03-24T14:17:55.000Z</time>
</trkpt>
<trkpt lat="43.64442" lon="5.60549">
<ele>286.7</ele>
<time>2012-03-24T14:17:57.000Z</time>
</trkpt>
<trkpt lat="43.64436" lon="5.60556">
<ele>287.2</ele>
<time>2012-03-24T14:17:59.000Z</time>
</trkpt>
<trkpt lat="43.64432" lon="5.60561">
<ele>287.1</ele>
<time>2012-03-24T14:18:00.000Z</time>
</trkpt>
<trkpt lat="43.64428" lon="5.60565">
<ele>287.3</ele>
<time>2012-03-24T14:18:01.000Z</time>
</trkpt>
<trkpt lat="43.64423" lon="5.6057">
<ele>287.5</ele>
<time>2012-03-24T14:18:02.000Z</time>
</trkpt>
<trkpt lat="43.64418" lon="5.60573">
<ele>287.4</ele>
<time>2012-03-24T14:18:03.000Z</time>
</trkpt>
<trkpt lat="43.64412" lon="5.6058">
<ele>287.8</ele>
<time>2012-03-24T14:18:04.000Z</time>
</trkpt>
<trkpt lat="43.64408" lon="5.60588">
<ele>289.3</ele>
<time>2012-03-24T14:18:05.000Z</time>
</trkpt>
<trkpt lat="43.64404" lon="5.60595">
<ele>289.6</ele>
<time>2012-03-24T14:18:06.000Z</time>
</trkpt>
<trkpt lat="43.64399" lon="5.606">
<ele>289.4</ele>
<time>2012-03-24T14:18:07.000Z</time>
</trkpt>
<trkpt lat="43.64397" lon="5.60606">
<ele>289.8</ele>
<time>2012-03-24T14:18:08.000Z</time>
</trkpt>
<trkpt lat="43.64394" lon="5.60613">
<ele>290.9</ele>
<time>2012-03-24T14:18:09.000Z</time>
</trkpt>
<trkpt lat="43.64391" lon="5.6062">
<ele>291.5</ele>
<time>2012-03-24T14:18:10.000Z</time>
</trkpt>
<trkpt lat="43.64387" lon="5.60626">
<ele>291.9</ele>
<time>2012-03-24T14:18:11.000Z</time>
</trkpt>
<trkpt lat="43.64384" lon="5.60634">
<ele>292.1</ele>
<time>2012-03-24T14:18:12.000Z</time>
</trkpt>
<trkpt lat="43.64381" lon="5.60641">
<ele>292.1</ele>
<time>2012-03-24T14:18:13.000Z</time>
</trkpt>
<trkpt lat="43.64377" lon="5.60648">
<ele>292.3</ele>
<time>2012-03-24T14:18:14.000Z</time>
</trkpt>
<trkpt lat="43.64372" lon="5.60656">
<ele>292.2</ele>
<time>2012-03-24T14:18:15.000Z</time>
</trkpt>
<trkpt lat="43.64369" lon="5.60664">
<ele>292.3</ele>
<time>2012-03-24T14:18:16.000Z</time>
</trkpt>
<trkpt lat="43.64367" lon="5.60672">
<ele>293.1</ele>
<time>2012-03-24T14:18:17.000Z</time>
</trkpt>
<trkpt lat="43.64364" lon="5.6068">
<ele>293.6</ele>
<time>2012-03-24T14:18:18.000Z</time>
</trkpt>
<trkpt lat="43.64361" lon="5.60687">
<ele>293.6</ele>
<time>2012-03-24T14:18:19.000Z</time>
</trkpt>
<trkpt lat="43.6436" lon="5.60694">
<ele>293.4</ele>
<time>2012-03-24T14:18:20.000Z</time>
</trkpt>
<trkpt lat="43.64357" lon="5.60701">
<ele>293.8</ele>
<time>2012-03-24T14:18:21.000Z</time>
</trkpt>
<trkpt lat="43.64355" lon="5.60709">
<ele>294.3</ele>
<time>2012-03-24T14:18:22.000Z</time>
</trkpt>
<trkpt lat="43.64353" lon="5.60716">
<ele>294.3</ele>
<time>2012-03-24T14:18:23.000Z</time>
</trkpt>
<trkpt lat="43.64352" lon="5.60725">
<ele>294.7</ele>
<time>2012-03-24T14:18:24.000Z</time>
</trkpt>
<trkpt lat="43.64349" lon="5.60734">
<ele>295</ele>
<time>2012-03-24T14:18:25.000Z</time>
</trkpt>
<trkpt lat="43.64348" lon="5.60742">
<ele>294.6</ele>
<time>2012-03-24T14:18:26.000Z</time>
</trkpt>
<trkpt lat="43.64345" lon="5.6075">
<ele>294</ele>
<time>2012-03-24T14:18:27.000Z</time>
</trkpt>
<trkpt lat="43.64343" lon="5.60759">
<ele>293.5</ele>
<time>2012-03-24T14:18:28.000Z</time>
</trkpt>
<trkpt lat="43.64342" lon="5.60768">
<ele>293.7</ele>
<time>2012-03-24T14:18:29.000Z</time>
</trkpt>
<trkpt lat="43.6434" lon="5.60776">
<ele>294.2</ele>
<time>2012-03-24T14:18:30.000Z</time>
</trkpt>
<trkpt lat="43.64337" lon="5.60785">
<ele>294.2</ele>
<time>2012-03-24T14:18:31.000Z</time>
</trkpt>
<trkpt lat="43.64335" lon="5.60793">
<ele>294.5</ele>
<time>2012-03-24T14:18:32.000Z</time>
</trkpt>
<trkpt lat="43.64331" lon="5.60802">
<ele>294.4</ele>
<time>2012-03-24T14:18:33.000Z</time>
</trkpt>
<trkpt lat="43.64328" lon="5.6081">
<ele>295.1</ele>
<time>2012-03-24T14:18:34.000Z</time>
</trkpt>
<trkpt lat="43.64324" lon="5.60819">
<ele>295.4</ele>
<time>2012-03-24T14:18:35.000Z</time>
</trkpt>
<trkpt lat="43.6432" lon="5.60827">
<ele>295.6</ele>
<time>2012-03-24T14:18:36.000Z</time>
</trkpt>
<trkpt lat="43.64315" lon="5.60835">
<ele>295.9</ele>
<time>2012-03-24T14:18:37.000Z</time>
</trkpt>
<trkpt lat="43.64311" lon="5.60843">
<ele>296.7</ele>
<time>2012-03-24T14:18:38.000Z</time>
</trkpt>
<trkpt lat="43.64306" lon="5.6085">
<ele>296.3</ele>
<time>2012-03-24T14:18:39.000Z</time>
</trkpt>
<trkpt lat="43.64301" lon="5.60858">
<ele>296.6</ele>
<time>2012-03-24T14:18:40.000Z</time>
</trkpt>
<trkpt lat="43.64296" lon="5.60865">
<ele>296.9</ele>
<time>2012-03-24T14:18:41.000Z</time>
</trkpt>
<trkpt lat="43.64292" lon="5.60872">
<ele>296.8</ele>
<time>2012-03-24T14:18:42.000Z</time>
</trkpt>
<trkpt lat="43.64287" lon="5.6088">
<ele>296.5</ele>
<time>2012-03-24T14:18:43.000Z</time>
</trkpt>
<trkpt lat="43.64282" lon="5.60887">
<ele>296.7</ele>
<time>2012-03-24T14:18:44.000Z</time>
</trkpt>
<trkpt lat="43.64278" lon="5.60894">
<ele>296.9</ele>
<time>2012-03-24T14:18:45.000Z</time>
</trkpt>
<trkpt lat="43.64273" lon="5.60901">
<ele>298.1</ele>
<time>2012-03-24T14:18:46.000Z</time>
</trkpt>
<trkpt lat="43.6427" lon="5.60908">
<ele>298.3</ele>
<time>2012-03-24T14:18:47.000Z</time>
</trkpt>
<trkpt lat="43.64265" lon="5.60915">
<ele>298.2</ele>
<time>2012-03-24T14:18:48.000Z</time>
</trkpt>
<trkpt lat="43.64261" lon="5.60923">
<ele>298.5</ele>
<time>2012-03-24T14:18:49.000Z</time>
</trkpt>
<trkpt lat="43.64257" lon="5.6093">
<ele>298.7</ele>
<time>2012-03-24T14:18:50.000Z</time>
</trkpt>
<trkpt lat="43.64252" lon="5.60937">
<ele>298.8</ele>
<time>2012-03-24T14:18:51.000Z</time>
</trkpt>
<trkpt lat="43.64248" lon="5.60944">
<ele>298.8</ele>
<time>2012-03-24T14:18:52.000Z</time>
</trkpt>
<trkpt lat="43.64245" lon="5.60952">
<ele>298.9</ele>
<time>2012-03-24T14:18:53.000Z</time>
</trkpt>
<trkpt lat="43.64241" lon="5.60959">
<ele>298.9</ele>
<time>2012-03-24T14:18:54.000Z</time>
</trkpt>
<trkpt lat="43.64238" lon="5.60965">
<ele>299</ele>
<time>2012-03-24T14:18:55.000Z</time>
</trkpt>
<trkpt lat="43.64234" lon="5.60973">
<ele>298.9</ele>
<time>2012-03-24T14:18:56.000Z</time>
</trkpt>
<trkpt lat="43.6423" lon="5.60981">
<ele>298.7</ele>
<time>2012-03-24T14:18:57.000Z</time>
</trkpt>
<trkpt lat="43.64225" lon="5.6099">
<ele>298.7</ele>
<time>2012-03-24T14:18:58.000Z</time>
</trkpt>
<trkpt lat="43.6422" lon="5.61">
<ele>298.5</ele>
<time>2012-03-24T14:18:59.000Z</time>
</trkpt>
<trkpt lat="43.64215" lon="5.6101">
<ele>298.5</ele>
<time>2012-03-24T14:19:00.000Z</time>
</trkpt>
<trkpt lat="43.6421" lon="5.61021">
<ele>297.5</ele>
<time>2012-03-24T14:19:01.000Z</time>
</trkpt>
<trkpt lat="43.64205" lon="5.61031">
<ele>297.5</ele>
<time>2012-03-24T14:19:02.000Z</time>
</trkpt>
<trkpt lat="43.642" lon="5.6104">
<ele>297.7</ele>
<time>2012-03-24T14:19:03.000Z</time>
</trkpt>
<trkpt lat="43.64194" lon="5.6105">
<ele>297.7</ele>
<time>2012-03-24T14:19:04.000Z</time>
</trkpt>
<trkpt lat="43.6419" lon="5.61062">
<ele>297.7</ele>
<time>2012-03-24T14:19:05.000Z</time>
</trkpt>
<trkpt lat="43.64186" lon="5.61071">
<ele>297.7</ele>
<time>2012-03-24T14:19:06.000Z</time>
</trkpt>
<trkpt lat="43.64182" lon="5.61082">
<ele>297.6</ele>
<time>2012-03-24T14:19:07.000Z</time>
</trkpt>
<trkpt lat="43.6418" lon="5.61093">
<ele>297.3</ele>
<time>2012-03-24T14:19:08.000Z</time>
</trkpt>
<trkpt lat="43.64177" lon="5.61103">
<ele>297.7</ele>
<time>2012-03-24T14:19:09.000Z</time>
</trkpt>
<trkpt lat="43.64174" lon="5.61113">
<ele>297.7</ele>
<time>2012-03-24T14:19:10.000Z</time>
</trkpt>
<trkpt lat="43.64171" lon="5.61124">
<ele>297.9</ele>
<time>2012-03-24T14:19:11.000Z</time>
</trkpt>
<trkpt lat="43.64168" lon="5.61134">
<ele>297.6</ele>
<time>2012-03-24T14:19:12.000Z</time>
</trkpt>
<trkpt lat="43.64165" lon="5.61145">
<ele>297.7</ele>
<time>2012-03-24T14:19:13.000Z</time>
</trkpt>
<trkpt lat="43.64163" lon="5.61153">
<ele>297.9</ele>
<time>2012-03-24T14:19:14.000Z</time>
</trkpt>
<trkpt lat="43.64162" lon="5.61164">
<ele>298.2</ele>
<time>2012-03-24T14:19:15.000Z</time>
</trkpt>
<trkpt lat="43.64158" lon="5.61174">
<ele>298.8</ele>
<time>2012-03-24T14:19:16.000Z</time>
</trkpt>
<trkpt lat="43.64154" lon="5.61184">
<ele>298.3</ele>
<time>2012-03-24T14:19:17.000Z</time>
</trkpt>
<trkpt lat="43.6415" lon="5.61194">
<ele>298.2</ele>
<time>2012-03-24T14:19:18.000Z</time>
</trkpt>
<trkpt lat="43.64148" lon="5.61205">
<ele>298.3</ele>
<time>2012-03-24T14:19:19.000Z</time>
</trkpt>
<trkpt lat="43.64146" lon="5.61215">
<ele>298.4</ele>
<time>2012-03-24T14:19:20.000Z</time>
</trkpt>
<trkpt lat="43.64142" lon="5.61225">
<ele>298.3</ele>
<time>2012-03-24T14:19:21.000Z</time>
</trkpt>
<trkpt lat="43.6414" lon="5.61236">
<ele>298.3</ele>
<time>2012-03-24T14:19:22.000Z</time>
</trkpt>
<trkpt lat="43.64138" lon="5.61248">
<ele>298.3</ele>
<time>2012-03-24T14:19:23.000Z</time>
</trkpt>
<trkpt lat="43.64134" lon="5.61259">
<ele>298.4</ele>
<time>2012-03-24T14:19:24.000Z</time>
</trkpt>
<trkpt lat="43.64129" lon="5.6127">
<ele>298.8</ele>
<time>2012-03-24T14:19:25.000Z</time>
</trkpt>
<trkpt lat="43.64126" lon="5.61282">
<ele>299.4</ele>
<time>2012-03-24T14:19:26.000Z</time>
</trkpt>
<trkpt lat="43.64123" lon="5.61293">
<ele>298.8</ele>
<time>2012-03-24T14:19:27.000Z</time>
</trkpt>
<trkpt lat="43.64119" lon="5.61303">
<ele>298.7</ele>
<time>2012-03-24T14:19:28.000Z</time>
</trkpt>
<trkpt lat="43.64116" lon="5.61313">
<ele>298.1</ele>
<time>2012-03-24T14:19:29.000Z</time>
</trkpt>
<trkpt lat="43.64112" lon="5.61324">
<ele>298.2</ele>
<time>2012-03-24T14:19:30.000Z</time>
</trkpt>
<trkpt lat="43.64108" lon="5.61334">
<ele>298.3</ele>
<time>2012-03-24T14:19:31.000Z</time>
</trkpt>
<trkpt lat="43.64102" lon="5.61343">
<ele>298.6</ele>
<time>2012-03-24T14:19:32.000Z</time>
</trkpt>
<trkpt lat="43.64098" lon="5.61354">
<ele>299</ele>
<time>2012-03-24T14:19:33.000Z</time>
</trkpt>
<trkpt lat="43.64092" lon="5.61364">
<ele>299.1</ele>
<time>2012-03-24T14:19:34.000Z</time>
</trkpt>
<trkpt lat="43.64086" lon="5.61372">
<ele>299.2</ele>
<time>2012-03-24T14:19:35.000Z</time>
</trkpt>
<trkpt lat="43.64081" lon="5.6138">
<ele>299.4</ele>
<time>2012-03-24T14:19:36.000Z</time>
</trkpt>
<trkpt lat="43.64075" lon="5.61388">
<ele>299.6</ele>
<time>2012-03-24T14:19:37.000Z</time>
</trkpt>
<trkpt lat="43.6407" lon="5.61396">
<ele>299.8</ele>
<time>2012-03-24T14:19:38.000Z</time>
</trkpt>
<trkpt lat="43.64065" lon="5.61405">
<ele>300</ele>
<time>2012-03-24T14:19:39.000Z</time>
</trkpt>
<trkpt lat="43.64059" lon="5.61413">
<ele>300.3</ele>
<time>2012-03-24T14:19:40.000Z</time>
</trkpt>
<trkpt lat="43.64054" lon="5.61421">
<ele>300.4</ele>
<time>2012-03-24T14:19:41.000Z</time>
</trkpt>
<trkpt lat="43.64049" lon="5.6143">
<ele>300.4</ele>
<time>2012-03-24T14:19:42.000Z</time>
</trkpt>
<trkpt lat="43.64044" lon="5.61438">
<ele>300.6</ele>
<time>2012-03-24T14:19:43.000Z</time>
</trkpt>
<trkpt lat="43.64039" lon="5.61446">
<ele>300.6</ele>
<time>2012-03-24T14:19:44.000Z</time>
</trkpt>
<trkpt lat="43.64034" lon="5.61455">
<ele>300.6</ele>
<time>2012-03-24T14:19:45.000Z</time>
</trkpt>
<trkpt lat="43.64028" lon="5.61463">
<ele>300.5</ele>
<time>2012-03-24T14:19:46.000Z</time>
</trkpt>
<trkpt lat="43.64022" lon="5.61472">
<ele>300.4</ele>
<time>2012-03-24T14:19:47.000Z</time>
</trkpt>
<trkpt lat="43.64017" lon="5.61481">
<ele>300.3</ele>
<time>2012-03-24T14:19:48.000Z</time>
</trkpt>
<trkpt lat="43.64011" lon="5.61489">
<ele>300.2</ele>
<time>2012-03-24T14:19:49.000Z</time>
</trkpt>
<trkpt lat="43.64005" lon="5.61497">
<ele>300.6</ele>
<time>2012-03-24T14:19:50.000Z</time>
</trkpt>
<trkpt lat="43.63998" lon="5.61505">
<ele>300.2</ele>
<time>2012-03-24T14:19:51.000Z</time>
</trkpt>
<trkpt lat="43.63991" lon="5.61513">
<ele>300.5</ele>
<time>2012-03-24T14:19:52.000Z</time>
</trkpt>
<trkpt lat="43.63984" lon="5.6152">
<ele>300.2</ele>
<time>2012-03-24T14:19:53.000Z</time>
</trkpt>
<trkpt lat="43.63977" lon="5.61527">
<ele>300.2</ele>
<time>2012-03-24T14:19:54.000Z</time>
</trkpt>
<trkpt lat="43.6397" lon="5.61534">
<ele>300.1</ele>
<time>2012-03-24T14:19:55.000Z</time>
</trkpt>
<trkpt lat="43.63962" lon="5.61541">
<ele>299.8</ele>
<time>2012-03-24T14:19:56.000Z</time>
</trkpt>
<trkpt lat="43.63955" lon="5.61548">
<ele>300</ele>
<time>2012-03-24T14:19:57.000Z</time>
</trkpt>
<trkpt lat="43.63948" lon="5.61555">
<ele>300.1</ele>
<time>2012-03-24T14:19:58.000Z</time>
</trkpt>
<trkpt lat="43.63941" lon="5.61562">
<ele>300.5</ele>
<time>2012-03-24T14:19:59.000Z</time>
</trkpt>
<trkpt lat="43.63934" lon="5.61568">
<ele>300.1</ele>
<time>2012-03-24T14:20:00.000Z</time>
</trkpt>
<trkpt lat="43.63927" lon="5.61575">
<ele>300.1</ele>
<time>2012-03-24T14:20:01.000Z</time>
</trkpt>
<trkpt lat="43.6392" lon="5.61582">
<ele>300</ele>
<time>2012-03-24T14:20:02.000Z</time>
</trkpt>
<trkpt lat="43.63913" lon="5.61589">
<ele>300.3</ele>
<time>2012-03-24T14:20:03.000Z</time>
</trkpt>
<trkpt lat="43.63906" lon="5.61596">
<ele>300.6</ele>
<time>2012-03-24T14:20:04.000Z</time>
</trkpt>
<trkpt lat="43.639" lon="5.61604">
<ele>300.8</ele>
<time>2012-03-24T14:20:05.000Z</time>
</trkpt>
<trkpt lat="43.63894" lon="5.61612">
<ele>300.7</ele>
<time>2012-03-24T14:20:06.000Z</time>
</trkpt>
<trkpt lat="43.63889" lon="5.61621">
<ele>301.1</ele>
<time>2012-03-24T14:20:07.000Z</time>
</trkpt>
<trkpt lat="43.63884" lon="5.6163">
<ele>301.1</ele>
<time>2012-03-24T14:20:08.000Z</time>
</trkpt>
<trkpt lat="43.6388" lon="5.61639">
<ele>301.3</ele>
<time>2012-03-24T14:20:09.000Z</time>
</trkpt>
<trkpt lat="43.63877" lon="5.61649">
<ele>301.4</ele>
<time>2012-03-24T14:20:10.000Z</time>
</trkpt>
<trkpt lat="43.63877" lon="5.6166">
<ele>301.6</ele>
<time>2012-03-24T14:20:11.000Z</time>
</trkpt>
<trkpt lat="43.63876" lon="5.6167">
<ele>301.5</ele>
<time>2012-03-24T14:20:12.000Z</time>
</trkpt>
<trkpt lat="43.63875" lon="5.61682">
<ele>302</ele>
<time>2012-03-24T14:20:13.000Z</time>
</trkpt>
<trkpt lat="43.63874" lon="5.61694">
<ele>301.8</ele>
<time>2012-03-24T14:20:14.000Z</time>
</trkpt>
<trkpt lat="43.63873" lon="5.61704">
<ele>302.3</ele>
<time>2012-03-24T14:20:15.000Z</time>
</trkpt>
<trkpt lat="43.63871" lon="5.61716">
<ele>302.5</ele>
<time>2012-03-24T14:20:16.000Z</time>
</trkpt>
<trkpt lat="43.6387" lon="5.61727">
<ele>303.1</ele>
<time>2012-03-24T14:20:17.000Z</time>
</trkpt>
<trkpt lat="43.63869" lon="5.61739">
<ele>303.5</ele>
<time>2012-03-24T14:20:18.000Z</time>
</trkpt>
<trkpt lat="43.63868" lon="5.6175">
<ele>303.1</ele>
<time>2012-03-24T14:20:19.000Z</time>
</trkpt>
<trkpt lat="43.63866" lon="5.61761">
<ele>303.1</ele>
<time>2012-03-24T14:20:20.000Z</time>
</trkpt>
<trkpt lat="43.63865" lon="5.61772">
<ele>303</ele>
<time>2012-03-24T14:20:21.000Z</time>
</trkpt>
<trkpt lat="43.63863" lon="5.61783">
<ele>302.8</ele>
<time>2012-03-24T14:20:22.000Z</time>
</trkpt>
<trkpt lat="43.63863" lon="5.61794">
<ele>302.9</ele>
<time>2012-03-24T14:20:23.000Z</time>
</trkpt>
<trkpt lat="43.63862" lon="5.61805">
<ele>302.7</ele>
<time>2012-03-24T14:20:24.000Z</time>
</trkpt>
<trkpt lat="43.6386" lon="5.61816">
<ele>302.8</ele>
<time>2012-03-24T14:20:25.000Z</time>
</trkpt>
<trkpt lat="43.63859" lon="5.61827">
<ele>303</ele>
<time>2012-03-24T14:20:26.000Z</time>
</trkpt>
<trkpt lat="43.63858" lon="5.61837">
<ele>303.2</ele>
<time>2012-03-24T14:20:27.000Z</time>
</trkpt>
<trkpt lat="43.63857" lon="5.61847">
<ele>303.6</ele>
<time>2012-03-24T14:20:28.000Z</time>
</trkpt>
<trkpt lat="43.63857" lon="5.61858">
<ele>303.7</ele>
<time>2012-03-24T14:20:29.000Z</time>
</trkpt>
<trkpt lat="43.63856" lon="5.61869">
<ele>303.3</ele>
<time>2012-03-24T14:20:30.000Z</time>
</trkpt>
<trkpt lat="43.63855" lon="5.61879">
<ele>303</ele>
<time>2012-03-24T14:20:31.000Z</time>
</trkpt>
<trkpt lat="43.63854" lon="5.6189">
<ele>303.6</ele>
<time>2012-03-24T14:20:32.000Z</time>
</trkpt>
<trkpt lat="43.63852" lon="5.61901">
<ele>303.7</ele>
<time>2012-03-24T14:20:33.000Z</time>
</trkpt>
<trkpt lat="43.63851" lon="5.61912">
<ele>303.5</ele>
<time>2012-03-24T14:20:34.000Z</time>
</trkpt>
<trkpt lat="43.6385" lon="5.61922">
<ele>303.8</ele>
<time>2012-03-24T14:20:35.000Z</time>
</trkpt>
<trkpt lat="43.63849" lon="5.61934">
<ele>303.8</ele>
<time>2012-03-24T14:20:36.000Z</time>
</trkpt>
<trkpt lat="43.63847" lon="5.61945">
<ele>303.9</ele>
<time>2012-03-24T14:20:37.000Z</time>
</trkpt>
<trkpt lat="43.63846" lon="5.61956">
<ele>303.6</ele>
<time>2012-03-24T14:20:38.000Z</time>
</trkpt>
<trkpt lat="43.63844" lon="5.61967">
<ele>303.5</ele>
<time>2012-03-24T14:20:39.000Z</time>
</trkpt>
<trkpt lat="43.63842" lon="5.61978">
<ele>303.4</ele>
<time>2012-03-24T14:20:40.000Z</time>
</trkpt>
<trkpt lat="43.6384" lon="5.6199">
<ele>303.4</ele>
<time>2012-03-24T14:20:41.000Z</time>
</trkpt>
<trkpt lat="43.63839" lon="5.62001">
<ele>303.5</ele>
<time>2012-03-24T14:20:42.000Z</time>
</trkpt>
<trkpt lat="43.63836" lon="5.62011">
<ele>303.4</ele>
<time>2012-03-24T14:20:43.000Z</time>
</trkpt>
<trkpt lat="43.63833" lon="5.62022">
<ele>303.2</ele>
<time>2012-03-24T14:20:44.000Z</time>
</trkpt>
<trkpt lat="43.63831" lon="5.62033">
<ele>303.4</ele>
<time>2012-03-24T14:20:45.000Z</time>
</trkpt>
<trkpt lat="43.63828" lon="5.62044">
<ele>303.4</ele>
<time>2012-03-24T14:20:46.000Z</time>
</trkpt>
<trkpt lat="43.63826" lon="5.62055">
<ele>303.5</ele>
<time>2012-03-24T14:20:47.000Z</time>
</trkpt>
<trkpt lat="43.63823" lon="5.62068">
<ele>303.4</ele>
<time>2012-03-24T14:20:48.000Z</time>
</trkpt>
<trkpt lat="43.6382" lon="5.62079">
<ele>303</ele>
<time>2012-03-24T14:20:49.000Z</time>
</trkpt>
<trkpt lat="43.63817" lon="5.6209">
<ele>303.2</ele>
<time>2012-03-24T14:20:50.000Z</time>
</trkpt>
<trkpt lat="43.63814" lon="5.62102">
<ele>303.8</ele>
<time>2012-03-24T14:20:51.000Z</time>
</trkpt>
<trkpt lat="43.63811" lon="5.62114">
<ele>303.7</ele>
<time>2012-03-24T14:20:52.000Z</time>
</trkpt>
<trkpt lat="43.63808" lon="5.62126">
<ele>303.7</ele>
<time>2012-03-24T14:20:53.000Z</time>
</trkpt>
<trkpt lat="43.63803" lon="5.62138">
<ele>303.6</ele>
<time>2012-03-24T14:20:54.000Z</time>
</trkpt>
<trkpt lat="43.63796" lon="5.62148">
<ele>303.5</ele>
<time>2012-03-24T14:20:55.000Z</time>
</trkpt>
<trkpt lat="43.63788" lon="5.62155">
<ele>303.5</ele>
<time>2012-03-24T14:20:56.000Z</time>
</trkpt>
<trkpt lat="43.6378" lon="5.62162">
<ele>303.5</ele>
<time>2012-03-24T14:20:57.000Z</time>
</trkpt>
<trkpt lat="43.6377" lon="5.62167">
<ele>304.1</ele>
<time>2012-03-24T14:20:58.000Z</time>
</trkpt>
<trkpt lat="43.63757" lon="5.62172">
<ele>304.9</ele>
<time>2012-03-24T14:20:59.000Z</time>
</trkpt>
<trkpt lat="43.63745" lon="5.6217">
<ele>304.8</ele>
<time>2012-03-24T14:21:00.000Z</time>
</trkpt>
<trkpt lat="43.63736" lon="5.62171">
<ele>304.3</ele>
<time>2012-03-24T14:21:01.000Z</time>
</trkpt>
<trkpt lat="43.63726" lon="5.62172">
<ele>304.5</ele>
<time>2012-03-24T14:21:02.000Z</time>
</trkpt>
<trkpt lat="43.63716" lon="5.62173">
<ele>304.5</ele>
<time>2012-03-24T14:21:03.000Z</time>
</trkpt>
<trkpt lat="43.63706" lon="5.62174">
<ele>304.3</ele>
<time>2012-03-24T14:21:04.000Z</time>
</trkpt>
<trkpt lat="43.63697" lon="5.62175">
<ele>304.4</ele>
<time>2012-03-24T14:21:05.000Z</time>
</trkpt>
<trkpt lat="43.63687" lon="5.62178">
<ele>304.2</ele>
<time>2012-03-24T14:21:06.000Z</time>
</trkpt>
<trkpt lat="43.63678" lon="5.62185">
<ele>304.3</ele>
<time>2012-03-24T14:21:07.000Z</time>
</trkpt>
<trkpt lat="43.6367" lon="5.62194">
<ele>303.7</ele>
<time>2012-03-24T14:21:08.000Z</time>
</trkpt>
<trkpt lat="43.63664" lon="5.62204">
<ele>303.1</ele>
<time>2012-03-24T14:21:09.000Z</time>
</trkpt>
<trkpt lat="43.63659" lon="5.62216">
<ele>302.6</ele>
<time>2012-03-24T14:21:10.000Z</time>
</trkpt>
<trkpt lat="43.63658" lon="5.62231">
<ele>302.4</ele>
<time>2012-03-24T14:21:11.000Z</time>
</trkpt>
<trkpt lat="43.63656" lon="5.62245">
<ele>302.5</ele>
<time>2012-03-24T14:21:12.000Z</time>
</trkpt>
<trkpt lat="43.63652" lon="5.62258">
<ele>302.5</ele>
<time>2012-03-24T14:21:13.000Z</time>
</trkpt>
<trkpt lat="43.6365" lon="5.6227">
<ele>302.2</ele>
<time>2012-03-24T14:21:14.000Z</time>
</trkpt>
<trkpt lat="43.63648" lon="5.62285">
<ele>301.8</ele>
<time>2012-03-24T14:21:15.000Z</time>
</trkpt>
<trkpt lat="43.63646" lon="5.62298">
<ele>301.7</ele>
<time>2012-03-24T14:21:16.000Z</time>
</trkpt>
<trkpt lat="43.63643" lon="5.62312">
<ele>301.2</ele>
<time>2012-03-24T14:21:17.000Z</time>
</trkpt>
<trkpt lat="43.63644" lon="5.62323">
<ele>301.5</ele>
<time>2012-03-24T14:21:18.000Z</time>
</trkpt>
<trkpt lat="43.63641" lon="5.62333">
<ele>301.6</ele>
<time>2012-03-24T14:21:19.000Z</time>
</trkpt>
<trkpt lat="43.63638" lon="5.62343">
<ele>301.5</ele>
<time>2012-03-24T14:21:20.000Z</time>
</trkpt>
<trkpt lat="43.63634" lon="5.62354">
<ele>301.5</ele>
<time>2012-03-24T14:21:21.000Z</time>
</trkpt>
<trkpt lat="43.63632" lon="5.62366">
<ele>301.3</ele>
<time>2012-03-24T14:21:22.000Z</time>
</trkpt>
<trkpt lat="43.63627" lon="5.62376">
<ele>301.4</ele>
<time>2012-03-24T14:21:23.000Z</time>
</trkpt>
<trkpt lat="43.63624" lon="5.62387">
<ele>301.3</ele>
<time>2012-03-24T14:21:24.000Z</time>
</trkpt>
<trkpt lat="43.6362" lon="5.62398">
<ele>301.1</ele>
<time>2012-03-24T14:21:25.000Z</time>
</trkpt>
<trkpt lat="43.63618" lon="5.62408">
<ele>301</ele>
<time>2012-03-24T14:21:26.000Z</time>
</trkpt>
<trkpt lat="43.63616" lon="5.62417">
<ele>301.2</ele>
<time>2012-03-24T14:21:27.000Z</time>
</trkpt>
<trkpt lat="43.63614" lon="5.62428">
<ele>301.3</ele>
<time>2012-03-24T14:21:28.000Z</time>
</trkpt>
<trkpt lat="43.63609" lon="5.62439">
<ele>301.1</ele>
<time>2012-03-24T14:21:29.000Z</time>
</trkpt>
<trkpt lat="43.63606" lon="5.62452">
<ele>301.2</ele>
<time>2012-03-24T14:21:30.000Z</time>
</trkpt>
<trkpt lat="43.63603" lon="5.62463">
<ele>301.5</ele>
<time>2012-03-24T14:21:31.000Z</time>
</trkpt>
<trkpt lat="43.63599" lon="5.62474">
<ele>301.8</ele>
<time>2012-03-24T14:21:32.000Z</time>
</trkpt>
<trkpt lat="43.63596" lon="5.62485">
<ele>302.5</ele>
<time>2012-03-24T14:21:33.000Z</time>
</trkpt>
<trkpt lat="43.63595" lon="5.62496">
<ele>303.1</ele>
<time>2012-03-24T14:21:34.000Z</time>
</trkpt>
<trkpt lat="43.6359" lon="5.62507">
<ele>303.3</ele>
<time>2012-03-24T14:21:35.000Z</time>
</trkpt>
<trkpt lat="43.63588" lon="5.62519">
<ele>303.5</ele>
<time>2012-03-24T14:21:36.000Z</time>
</trkpt>
<trkpt lat="43.63583" lon="5.62528">
<ele>303.3</ele>
<time>2012-03-24T14:21:37.000Z</time>
</trkpt>
<trkpt lat="43.63581" lon="5.62539">
<ele>303.5</ele>
<time>2012-03-24T14:21:38.000Z</time>
</trkpt>
<trkpt lat="43.63574" lon="5.62548">
<ele>301.9</ele>
<time>2012-03-24T14:21:39.000Z</time>
</trkpt>
<trkpt lat="43.63567" lon="5.62559">
<ele>301.4</ele>
<time>2012-03-24T14:21:40.000Z</time>
</trkpt>
<trkpt lat="43.63564" lon="5.62566">
<ele>301.7</ele>
<time>2012-03-24T14:21:41.000Z</time>
</trkpt>
<trkpt lat="43.63562" lon="5.62574">
<ele>301.7</ele>
<time>2012-03-24T14:21:42.000Z</time>
</trkpt>
<trkpt lat="43.6356" lon="5.62585">
<ele>301.8</ele>
<time>2012-03-24T14:21:43.000Z</time>
</trkpt>
<trkpt lat="43.63558" lon="5.62596">
<ele>301.3</ele>
<time>2012-03-24T14:21:44.000Z</time>
</trkpt>
<trkpt lat="43.63557" lon="5.62604">
<ele>301.2</ele>
<time>2012-03-24T14:21:45.000Z</time>
</trkpt>
<trkpt lat="43.63555" lon="5.62613">
<ele>301.7</ele>
<time>2012-03-24T14:21:46.000Z</time>
</trkpt>
<trkpt lat="43.63551" lon="5.62622">
<ele>302.5</ele>
<time>2012-03-24T14:21:47.000Z</time>
</trkpt>
<trkpt lat="43.63547" lon="5.62632">
<ele>302.4</ele>
<time>2012-03-24T14:21:48.000Z</time>
</trkpt>
<trkpt lat="43.63543" lon="5.6264">
<ele>301.7</ele>
<time>2012-03-24T14:21:49.000Z</time>
</trkpt>
<trkpt lat="43.63543" lon="5.62648">
<ele>301.1</ele>
<time>2012-03-24T14:21:50.000Z</time>
</trkpt>
<trkpt lat="43.63541" lon="5.62658">
<ele>302.7</ele>
<time>2012-03-24T14:21:51.000Z</time>
</trkpt>
<trkpt lat="43.63539" lon="5.62668">
<ele>303.9</ele>
<time>2012-03-24T14:21:52.000Z</time>
</trkpt>
<trkpt lat="43.63539" lon="5.62676">
<ele>304.1</ele>
<time>2012-03-24T14:21:53.000Z</time>
</trkpt>
<trkpt lat="43.63539" lon="5.62686">
<ele>303.9</ele>
<time>2012-03-24T14:21:54.000Z</time>
</trkpt>
<trkpt lat="43.63537" lon="5.62696">
<ele>303.9</ele>
<time>2012-03-24T14:21:55.000Z</time>
</trkpt>
<trkpt lat="43.63536" lon="5.62706">
<ele>304.5</ele>
<time>2012-03-24T14:21:56.000Z</time>
</trkpt>
<trkpt lat="43.63535" lon="5.62715">
<ele>304.8</ele>
<time>2012-03-24T14:21:57.000Z</time>
</trkpt>
<trkpt lat="43.63536" lon="5.62725">
<ele>304.5</ele>
<time>2012-03-24T14:21:58.000Z</time>
</trkpt>
<trkpt lat="43.63535" lon="5.62734">
<ele>305</ele>
<time>2012-03-24T14:21:59.000Z</time>
</trkpt>
<trkpt lat="43.63534" lon="5.62743">
<ele>305.5</ele>
<time>2012-03-24T14:22:00.000Z</time>
</trkpt>
<trkpt lat="43.63534" lon="5.62752">
<ele>305.3</ele>
<time>2012-03-24T14:22:01.000Z</time>
</trkpt>
<trkpt lat="43.63532" lon="5.62762">
<ele>304.8</ele>
<time>2012-03-24T14:22:02.000Z</time>
</trkpt>
<trkpt lat="43.63533" lon="5.62772">
<ele>305.3</ele>
<time>2012-03-24T14:22:03.000Z</time>
</trkpt>
<trkpt lat="43.6353" lon="5.6278">
<ele>300.2</ele>
<time>2012-03-24T14:22:04.000Z</time>
</trkpt>
<trkpt lat="43.63528" lon="5.6279">
<ele>300.5</ele>
<time>2012-03-24T14:22:05.000Z</time>
</trkpt>
<trkpt lat="43.63527" lon="5.628">
<ele>300</ele>
<time>2012-03-24T14:22:06.000Z</time>
</trkpt>
<trkpt lat="43.63526" lon="5.6281">
<ele>299.9</ele>
<time>2012-03-24T14:22:07.000Z</time>
</trkpt>
<trkpt lat="43.63525" lon="5.6282">
<ele>299.7</ele>
<time>2012-03-24T14:22:08.000Z</time>
</trkpt>
<trkpt lat="43.63524" lon="5.62831">
<ele>299.6</ele>
<time>2012-03-24T14:22:09.000Z</time>
</trkpt>
<trkpt lat="43.63522" lon="5.62842">
<ele>299.8</ele>
<time>2012-03-24T14:22:10.000Z</time>
</trkpt>
<trkpt lat="43.63522" lon="5.62853">
<ele>299.8</ele>
<time>2012-03-24T14:22:11.000Z</time>
</trkpt>
<trkpt lat="43.63522" lon="5.62865">
<ele>299.8</ele>
<time>2012-03-24T14:22:12.000Z</time>
</trkpt>
<trkpt lat="43.63521" lon="5.62876">
<ele>299.7</ele>
<time>2012-03-24T14:22:13.000Z</time>
</trkpt>
<trkpt lat="43.6352" lon="5.62889">
<ele>300.1</ele>
<time>2012-03-24T14:22:14.000Z</time>
</trkpt>
<trkpt lat="43.63519" lon="5.62901">
<ele>300</ele>
<time>2012-03-24T14:22:15.000Z</time>
</trkpt>
<trkpt lat="43.63519" lon="5.62913">
<ele>300</ele>
<time>2012-03-24T14:22:16.000Z</time>
</trkpt>
<trkpt lat="43.63517" lon="5.62925">
<ele>300.4</ele>
<time>2012-03-24T14:22:17.000Z</time>
</trkpt>
<trkpt lat="43.63516" lon="5.62937">
<ele>300.1</ele>
<time>2012-03-24T14:22:18.000Z</time>
</trkpt>
<trkpt lat="43.63514" lon="5.62949">
<ele>300.6</ele>
<time>2012-03-24T14:22:19.000Z</time>
</trkpt>
<trkpt lat="43.63513" lon="5.62961">
<ele>300.9</ele>
<time>2012-03-24T14:22:20.000Z</time>
</trkpt>
<trkpt lat="43.63512" lon="5.62973">
<ele>300.9</ele>
<time>2012-03-24T14:22:21.000Z</time>
</trkpt>
<trkpt lat="43.63511" lon="5.62983">
<ele>301</ele>
<time>2012-03-24T14:22:22.000Z</time>
</trkpt>
<trkpt lat="43.6351" lon="5.62995">
<ele>301.4</ele>
<time>2012-03-24T14:22:23.000Z</time>
</trkpt>
<trkpt lat="43.63509" lon="5.63006">
<ele>301.6</ele>
<time>2012-03-24T14:22:24.000Z</time>
</trkpt>
<trkpt lat="43.63509" lon="5.63017">
<ele>301.8</ele>
<time>2012-03-24T14:22:25.000Z</time>
</trkpt>
<trkpt lat="43.63508" lon="5.63028">
<ele>302.1</ele>
<time>2012-03-24T14:22:26.000Z</time>
</trkpt>
<trkpt lat="43.63507" lon="5.6304">
<ele>302.1</ele>
<time>2012-03-24T14:22:27.000Z</time>
</trkpt>
<trkpt lat="43.63507" lon="5.6305">
<ele>302.2</ele>
<time>2012-03-24T14:22:28.000Z</time>
</trkpt>
<trkpt lat="43.63507" lon="5.63062">
<ele>301.9</ele>
<time>2012-03-24T14:22:29.000Z</time>
</trkpt>
<trkpt lat="43.63507" lon="5.63072">
<ele>301.6</ele>
<time>2012-03-24T14:22:30.000Z</time>
</trkpt>
<trkpt lat="43.63508" lon="5.63083">
<ele>302</ele>
<time>2012-03-24T14:22:31.000Z</time>
</trkpt>
<trkpt lat="43.63508" lon="5.63095">
<ele>302.3</ele>
<time>2012-03-24T14:22:32.000Z</time>
</trkpt>
<trkpt lat="43.6351" lon="5.63105">
<ele>302.4</ele>
<time>2012-03-24T14:22:33.000Z</time>
</trkpt>
<trkpt lat="43.63512" lon="5.63115">
<ele>302.4</ele>
<time>2012-03-24T14:22:34.000Z</time>
</trkpt>
<trkpt lat="43.63515" lon="5.63124">
<ele>303</ele>
<time>2012-03-24T14:22:35.000Z</time>
</trkpt>
<trkpt lat="43.6352" lon="5.63133">
<ele>303</ele>
<time>2012-03-24T14:22:36.000Z</time>
</trkpt>
<trkpt lat="43.63525" lon="5.63141">
<ele>303.2</ele>
<time>2012-03-24T14:22:37.000Z</time>
</trkpt>
<trkpt lat="43.63531" lon="5.63148">
<ele>303.2</ele>
<time>2012-03-24T14:22:38.000Z</time>
</trkpt>
<trkpt lat="43.63535" lon="5.63155">
<ele>303.3</ele>
<time>2012-03-24T14:22:39.000Z</time>
</trkpt>
<trkpt lat="43.63541" lon="5.63161">
<ele>303.4</ele>
<time>2012-03-24T14:22:40.000Z</time>
</trkpt>
<trkpt lat="43.63549" lon="5.63166">
<ele>303.7</ele>
<time>2012-03-24T14:22:41.000Z</time>
</trkpt>
<trkpt lat="43.63556" lon="5.63172">
<ele>304.7</ele>
<time>2012-03-24T14:22:42.000Z</time>
</trkpt>
<trkpt lat="43.63562" lon="5.63178">
<ele>304.8</ele>
<time>2012-03-24T14:22:43.000Z</time>
</trkpt>
<trkpt lat="43.63569" lon="5.63183">
<ele>305.3</ele>
<time>2012-03-24T14:22:44.000Z</time>
</trkpt>
<trkpt lat="43.63576" lon="5.63188">
<ele>305.9</ele>
<time>2012-03-24T14:22:45.000Z</time>
</trkpt>
<trkpt lat="43.63583" lon="5.63193">
<ele>306.1</ele>
<time>2012-03-24T14:22:46.000Z</time>
</trkpt>
<trkpt lat="43.6359" lon="5.63198">
<ele>306.5</ele>
<time>2012-03-24T14:22:47.000Z</time>
</trkpt>
<trkpt lat="43.63596" lon="5.63204">
<ele>306.9</ele>
<time>2012-03-24T14:22:48.000Z</time>
</trkpt>
<trkpt lat="43.63602" lon="5.63209">
<ele>307.1</ele>
<time>2012-03-24T14:22:49.000Z</time>
</trkpt>
<trkpt lat="43.63609" lon="5.63214">
<ele>307.7</ele>
<time>2012-03-24T14:22:50.000Z</time>
</trkpt>
<trkpt lat="43.63615" lon="5.6322">
<ele>307.6</ele>
<time>2012-03-24T14:22:51.000Z</time>
</trkpt>
<trkpt lat="43.63621" lon="5.63226">
<ele>308</ele>
<time>2012-03-24T14:22:52.000Z</time>
</trkpt>
<trkpt lat="43.63628" lon="5.63231">
<ele>307.9</ele>
<time>2012-03-24T14:22:53.000Z</time>
</trkpt>
<trkpt lat="43.63635" lon="5.63237">
<ele>308.1</ele>
<time>2012-03-24T14:22:54.000Z</time>
</trkpt>
<trkpt lat="43.6364" lon="5.63242">
<ele>308</ele>
<time>2012-03-24T14:22:55.000Z</time>
</trkpt>
<trkpt lat="43.63647" lon="5.63247">
<ele>308.2</ele>
<time>2012-03-24T14:22:56.000Z</time>
</trkpt>
<trkpt lat="43.63653" lon="5.63253">
<ele>308.5</ele>
<time>2012-03-24T14:22:57.000Z</time>
</trkpt>
<trkpt lat="43.6366" lon="5.63259">
<ele>308.7</ele>
<time>2012-03-24T14:22:58.000Z</time>
</trkpt>
<trkpt lat="43.63666" lon="5.63264">
<ele>308.8</ele>
<time>2012-03-24T14:22:59.000Z</time>
</trkpt>
<trkpt lat="43.63671" lon="5.6327">
<ele>308.9</ele>
<time>2012-03-24T14:23:00.000Z</time>
</trkpt>
<trkpt lat="43.63676" lon="5.63276">
<ele>309.3</ele>
<time>2012-03-24T14:23:01.000Z</time>
</trkpt>
<trkpt lat="43.63683" lon="5.63283">
<ele>309.1</ele>
<time>2012-03-24T14:23:02.000Z</time>
</trkpt>
<trkpt lat="43.63688" lon="5.6329">
<ele>309.2</ele>
<time>2012-03-24T14:23:03.000Z</time>
</trkpt>
<trkpt lat="43.63693" lon="5.63297">
<ele>310.1</ele>
<time>2012-03-24T14:23:04.000Z</time>
</trkpt>
<trkpt lat="43.63699" lon="5.63303">
<ele>310.2</ele>
<time>2012-03-24T14:23:05.000Z</time>
</trkpt>
<trkpt lat="43.63705" lon="5.6331">
<ele>310.1</ele>
<time>2012-03-24T14:23:06.000Z</time>
</trkpt>
<trkpt lat="43.6371" lon="5.63317">
<ele>310.5</ele>
<time>2012-03-24T14:23:07.000Z</time>
</trkpt>
<trkpt lat="43.63712" lon="5.63326">
<ele>310.6</ele>
<time>2012-03-24T14:23:08.000Z</time>
</trkpt>
<trkpt lat="43.63716" lon="5.63333">
<ele>310.5</ele>
<time>2012-03-24T14:23:09.000Z</time>
</trkpt>
<trkpt lat="43.63719" lon="5.63341">
<ele>310.4</ele>
<time>2012-03-24T14:23:10.000Z</time>
</trkpt>
<trkpt lat="43.63721" lon="5.6335">
<ele>310.7</ele>
<time>2012-03-24T14:23:11.000Z</time>
</trkpt>
<trkpt lat="43.63722" lon="5.63359">
<ele>310.4</ele>
<time>2012-03-24T14:23:12.000Z</time>
</trkpt>
<trkpt lat="43.63724" lon="5.63368">
<ele>310.2</ele>
<time>2012-03-24T14:23:13.000Z</time>
</trkpt>
<trkpt lat="43.63725" lon="5.63378">
<ele>309.8</ele>
<time>2012-03-24T14:23:14.000Z</time>
</trkpt>
<trkpt lat="43.63725" lon="5.63387">
<ele>309.8</ele>
<time>2012-03-24T14:23:15.000Z</time>
</trkpt>
<trkpt lat="43.63725" lon="5.63395">
<ele>309.9</ele>
<time>2012-03-24T14:23:16.000Z</time>
</trkpt>
<trkpt lat="43.63724" lon="5.63403">
<ele>310.5</ele>
<time>2012-03-24T14:23:17.000Z</time>
</trkpt>
<trkpt lat="43.63725" lon="5.63412">
<ele>310.3</ele>
<time>2012-03-24T14:23:18.000Z</time>
</trkpt>
<trkpt lat="43.63724" lon="5.63422">
<ele>310.8</ele>
<time>2012-03-24T14:23:19.000Z</time>
</trkpt>
<trkpt lat="43.63726" lon="5.63429">
<ele>310.8</ele>
<time>2012-03-24T14:23:20.000Z</time>
</trkpt>
<trkpt lat="43.63725" lon="5.63436">
<ele>310.6</ele>
<time>2012-03-24T14:23:21.000Z</time>
</trkpt>
<trkpt lat="43.63725" lon="5.63445">
<ele>310.9</ele>
<time>2012-03-24T14:23:22.000Z</time>
</trkpt>
<trkpt lat="43.63725" lon="5.63454">
<ele>311.4</ele>
<time>2012-03-24T14:23:23.000Z</time>
</trkpt>
<trkpt lat="43.63723" lon="5.63462">
<ele>311.9</ele>
<time>2012-03-24T14:23:24.000Z</time>
</trkpt>
<trkpt lat="43.63721" lon="5.63471">
<ele>311.9</ele>
<time>2012-03-24T14:23:25.000Z</time>
</trkpt>
<trkpt lat="43.63717" lon="5.6348">
<ele>312.3</ele>
<time>2012-03-24T14:23:26.000Z</time>
</trkpt>
<trkpt lat="43.63712" lon="5.63489">
<ele>312.4</ele>
<time>2012-03-24T14:23:27.000Z</time>
</trkpt>
<trkpt lat="43.6371" lon="5.63497">
<ele>312.5</ele>
<time>2012-03-24T14:23:28.000Z</time>
</trkpt>
<trkpt lat="43.63707" lon="5.63506">
<ele>312.5</ele>
<time>2012-03-24T14:23:29.000Z</time>
</trkpt>
<trkpt lat="43.63704" lon="5.63515">
<ele>312.6</ele>
<time>2012-03-24T14:23:30.000Z</time>
</trkpt>
<trkpt lat="43.637" lon="5.63525">
<ele>312.5</ele>
<time>2012-03-24T14:23:31.000Z</time>
</trkpt>
<trkpt lat="43.63698" lon="5.63536">
<ele>312.9</ele>
<time>2012-03-24T14:23:32.000Z</time>
</trkpt>
<trkpt lat="43.63696" lon="5.63543">
<ele>313.1</ele>
<time>2012-03-24T14:23:33.000Z</time>
</trkpt>
<trkpt lat="43.63696" lon="5.63553">
<ele>313.4</ele>
<time>2012-03-24T14:23:34.000Z</time>
</trkpt>
<trkpt lat="43.63694" lon="5.63563">
<ele>313.9</ele>
<time>2012-03-24T14:23:35.000Z</time>
</trkpt>
<trkpt lat="43.63692" lon="5.63571">
<ele>314.1</ele>
<time>2012-03-24T14:23:36.000Z</time>
</trkpt>
<trkpt lat="43.63691" lon="5.63578">
<ele>314</ele>
<time>2012-03-24T14:23:37.000Z</time>
</trkpt>
<trkpt lat="43.63691" lon="5.63587">
<ele>314.3</ele>
<time>2012-03-24T14:23:38.000Z</time>
</trkpt>
<trkpt lat="43.63688" lon="5.63595">
<ele>314.4</ele>
<time>2012-03-24T14:23:39.000Z</time>
</trkpt>
<trkpt lat="43.6369" lon="5.63602">
<ele>315.1</ele>
<time>2012-03-24T14:23:40.000Z</time>
</trkpt>
<trkpt lat="43.63688" lon="5.63612">
<ele>315.2</ele>
<time>2012-03-24T14:23:41.000Z</time>
</trkpt>
<trkpt lat="43.63688" lon="5.63622">
<ele>315.4</ele>
<time>2012-03-24T14:23:42.000Z</time>
</trkpt>
<trkpt lat="43.63691" lon="5.63631">
<ele>316.1</ele>
<time>2012-03-24T14:23:43.000Z</time>
</trkpt>
<trkpt lat="43.63686" lon="5.63643">
<ele>315.4</ele>
<time>2012-03-24T14:23:44.000Z</time>
</trkpt>
<trkpt lat="43.63689" lon="5.63654">
<ele>315.5</ele>
<time>2012-03-24T14:23:45.000Z</time>
</trkpt>
<trkpt lat="43.63686" lon="5.63663">
<ele>315.3</ele>
<time>2012-03-24T14:23:46.000Z</time>
</trkpt>
<trkpt lat="43.63687" lon="5.63677">
<ele>314.9</ele>
<time>2012-03-24T14:23:48.000Z</time>
</trkpt>
<trkpt lat="43.63689" lon="5.63687">
<ele>314.5</ele>
<time>2012-03-24T14:23:49.000Z</time>
</trkpt>
<trkpt lat="43.6369" lon="5.63697">
<ele>314.5</ele>
<time>2012-03-24T14:23:50.000Z</time>
</trkpt>
<trkpt lat="43.63693" lon="5.63706">
<ele>314.4</ele>
<time>2012-03-24T14:23:51.000Z</time>
</trkpt>
<trkpt lat="43.63692" lon="5.63718">
<ele>314</ele>
<time>2012-03-24T14:23:52.000Z</time>
</trkpt>
<trkpt lat="43.63691" lon="5.63728">
<ele>313.8</ele>
<time>2012-03-24T14:23:53.000Z</time>
</trkpt>
<trkpt lat="43.63688" lon="5.6374">
<ele>313</ele>
<time>2012-03-24T14:23:54.000Z</time>
</trkpt>
<trkpt lat="43.63688" lon="5.6375">
<ele>312.9</ele>
<time>2012-03-24T14:23:55.000Z</time>
</trkpt>
<trkpt lat="43.63689" lon="5.63758">
<ele>312.7</ele>
<time>2012-03-24T14:23:56.000Z</time>
</trkpt>
<trkpt lat="43.63692" lon="5.63766">
<ele>312.7</ele>
<time>2012-03-24T14:23:57.000Z</time>
</trkpt>
<trkpt lat="43.63696" lon="5.63774">
<ele>312.6</ele>
<time>2012-03-24T14:23:58.000Z</time>
</trkpt>
<trkpt lat="43.637" lon="5.63782">
<ele>312.5</ele>
<time>2012-03-24T14:23:59.000Z</time>
</trkpt>
<trkpt lat="43.63702" lon="5.6379">
<ele>312.9</ele>
<time>2012-03-24T14:24:00.000Z</time>
</trkpt>
<trkpt lat="43.63706" lon="5.63798">
<ele>313.4</ele>
<time>2012-03-24T14:24:01.000Z</time>
</trkpt>
<trkpt lat="43.63709" lon="5.63808">
<ele>313.1</ele>
<time>2012-03-24T14:24:02.000Z</time>
</trkpt>
<trkpt lat="43.63712" lon="5.63818">
<ele>313.4</ele>
<time>2012-03-24T14:24:03.000Z</time>
</trkpt>
<trkpt lat="43.63714" lon="5.63827">
<ele>313.8</ele>
<time>2012-03-24T14:24:04.000Z</time>
</trkpt>
<trkpt lat="43.63715" lon="5.63838">
<ele>314.6</ele>
<time>2012-03-24T14:24:05.000Z</time>
</trkpt>
<trkpt lat="43.63716" lon="5.63845">
<ele>314.9</ele>
<time>2012-03-24T14:24:06.000Z</time>
</trkpt>
<trkpt lat="43.63717" lon="5.63855">
<ele>314.7</ele>
<time>2012-03-24T14:24:07.000Z</time>
</trkpt>
<trkpt lat="43.63717" lon="5.63865">
<ele>314.5</ele>
<time>2012-03-24T14:24:08.000Z</time>
</trkpt>
<trkpt lat="43.63718" lon="5.63874">
<ele>313.4</ele>
<time>2012-03-24T14:24:09.000Z</time>
</trkpt>
<trkpt lat="43.63719" lon="5.63884">
<ele>314</ele>
<time>2012-03-24T14:24:10.000Z</time>
</trkpt>
<trkpt lat="43.6372" lon="5.63894">
<ele>314.1</ele>
<time>2012-03-24T14:24:11.000Z</time>
</trkpt>
<trkpt lat="43.63722" lon="5.63902">
<ele>314.1</ele>
<time>2012-03-24T14:24:12.000Z</time>
</trkpt>
<trkpt lat="43.63724" lon="5.63911">
<ele>313.9</ele>
<time>2012-03-24T14:24:13.000Z</time>
</trkpt>
<trkpt lat="43.63725" lon="5.63921">
<ele>314.3</ele>
<time>2012-03-24T14:24:14.000Z</time>
</trkpt>
<trkpt lat="43.63726" lon="5.63932">
<ele>314.8</ele>
<time>2012-03-24T14:24:15.000Z</time>
</trkpt>
<trkpt lat="43.63727" lon="5.63941">
<ele>315.2</ele>
<time>2012-03-24T14:24:16.000Z</time>
</trkpt>
<trkpt lat="43.63728" lon="5.63951">
<ele>315.4</ele>
<time>2012-03-24T14:24:17.000Z</time>
</trkpt>
<trkpt lat="43.6373" lon="5.63961">
<ele>315.5</ele>
<time>2012-03-24T14:24:18.000Z</time>
</trkpt>
<trkpt lat="43.63732" lon="5.63971">
<ele>316.4</ele>
<time>2012-03-24T14:24:19.000Z</time>
</trkpt>
<trkpt lat="43.63732" lon="5.63981">
<ele>316.9</ele>
<time>2012-03-24T14:24:20.000Z</time>
</trkpt>
<trkpt lat="43.63732" lon="5.63992">
<ele>317.4</ele>
<time>2012-03-24T14:24:21.000Z</time>
</trkpt>
<trkpt lat="43.63734" lon="5.64002">
<ele>317.5</ele>
<time>2012-03-24T14:24:22.000Z</time>
</trkpt>
<trkpt lat="43.63734" lon="5.64011">
<ele>317.8</ele>
<time>2012-03-24T14:24:23.000Z</time>
</trkpt>
<trkpt lat="43.63734" lon="5.6402">
<ele>317.9</ele>
<time>2012-03-24T14:24:24.000Z</time>
</trkpt>
<trkpt lat="43.63734" lon="5.6403">
<ele>318.2</ele>
<time>2012-03-24T14:24:25.000Z</time>
</trkpt>
<trkpt lat="43.63734" lon="5.6404">
<ele>318.5</ele>
<time>2012-03-24T14:24:26.000Z</time>
</trkpt>
<trkpt lat="43.63733" lon="5.64047">
<ele>318.9</ele>
<time>2012-03-24T14:24:27.000Z</time>
</trkpt>
<trkpt lat="43.63733" lon="5.64055">
<ele>319.5</ele>
<time>2012-03-24T14:24:28.000Z</time>
</trkpt>
<trkpt lat="43.63733" lon="5.64064">
<ele>319.9</ele>
<time>2012-03-24T14:24:29.000Z</time>
</trkpt>
<trkpt lat="43.63732" lon="5.64074">
<ele>320.1</ele>
<time>2012-03-24T14:24:30.000Z</time>
</trkpt>
<trkpt lat="43.63732" lon="5.64086">
<ele>320.7</ele>
<time>2012-03-24T14:24:31.000Z</time>
</trkpt>
<trkpt lat="43.63731" lon="5.64099">
<ele>320.7</ele>
<time>2012-03-24T14:24:32.000Z</time>
</trkpt>
<trkpt lat="43.6373" lon="5.6411">
<ele>321</ele>
<time>2012-03-24T14:24:33.000Z</time>
</trkpt>
<trkpt lat="43.63728" lon="5.64118">
<ele>320.8</ele>
<time>2012-03-24T14:24:34.000Z</time>
</trkpt>
<trkpt lat="43.63728" lon="5.64127">
<ele>320.8</ele>
<time>2012-03-24T14:24:35.000Z</time>
</trkpt>
<trkpt lat="43.63727" lon="5.64141">
<ele>320.6</ele>
<time>2012-03-24T14:24:37.000Z</time>
</trkpt>
<trkpt lat="43.63726" lon="5.64151">
<ele>320.5</ele>
<time>2012-03-24T14:24:38.000Z</time>
</trkpt>
<trkpt lat="43.63724" lon="5.64161">
<ele>320</ele>
<time>2012-03-24T14:24:39.000Z</time>
</trkpt>
<trkpt lat="43.63723" lon="5.64172">
<ele>320.1</ele>
<time>2012-03-24T14:24:40.000Z</time>
</trkpt>
<trkpt lat="43.63719" lon="5.64181">
<ele>320.5</ele>
<time>2012-03-24T14:24:41.000Z</time>
</trkpt>
<trkpt lat="43.63719" lon="5.64191">
<ele>320.7</ele>
<time>2012-03-24T14:24:42.000Z</time>
</trkpt>
<trkpt lat="43.63716" lon="5.64202">
<ele>320.7</ele>
<time>2012-03-24T14:24:43.000Z</time>
</trkpt>
<trkpt lat="43.63713" lon="5.64209">
<ele>320.8</ele>
<time>2012-03-24T14:24:44.000Z</time>
</trkpt>
<trkpt lat="43.63708" lon="5.64217">
<ele>320.5</ele>
<time>2012-03-24T14:24:45.000Z</time>
</trkpt>
<trkpt lat="43.63703" lon="5.64224">
<ele>321</ele>
<time>2012-03-24T14:24:46.000Z</time>
</trkpt>
<trkpt lat="43.637" lon="5.64233">
<ele>321</ele>
<time>2012-03-24T14:24:47.000Z</time>
</trkpt>
<trkpt lat="43.63695" lon="5.64241">
<ele>320.5</ele>
<time>2012-03-24T14:24:48.000Z</time>
</trkpt>
<trkpt lat="43.6369" lon="5.64246">
<ele>320.6</ele>
<time>2012-03-24T14:24:49.000Z</time>
</trkpt>
<trkpt lat="43.6369" lon="5.64253">
<ele>321</ele>
<time>2012-03-24T14:24:50.000Z</time>
</trkpt>
<trkpt lat="43.63691" lon="5.6426">
<ele>320.7</ele>
<time>2012-03-24T14:24:51.000Z</time>
</trkpt>
<trkpt lat="43.63691" lon="5.64267">
<ele>320.1</ele>
<time>2012-03-24T14:24:52.000Z</time>
</trkpt>
<trkpt lat="43.63689" lon="5.64273">
<ele>319.7</ele>
<time>2012-03-24T14:24:53.000Z</time>
</trkpt>
<trkpt lat="43.6369" lon="5.64283">
<ele>319.7</ele>
<time>2012-03-24T14:24:55.000Z</time>
</trkpt>
<trkpt lat="43.63686" lon="5.6428">
<ele>322.9</ele>
<time>2012-03-24T14:25:23.000Z</time>
</trkpt>
<trkpt lat="43.63678" lon="5.64281">
<ele>322.1</ele>
<time>2012-03-24T14:27:59.000Z</time>
</trkpt>
<trkpt lat="43.63673" lon="5.64285">
<ele>322</ele>
<time>2012-03-24T14:28:01.000Z</time>
</trkpt>
<trkpt lat="43.63668" lon="5.64288">
<ele>322</ele>
<time>2012-03-24T14:28:03.000Z</time>
</trkpt>
<trkpt lat="43.6366" lon="5.64292">
<ele>321.5</ele>
<time>2012-03-24T14:28:05.000Z</time>
</trkpt>
<trkpt lat="43.63651" lon="5.64294">
<ele>323</ele>
<time>2012-03-24T14:28:07.000Z</time>
</trkpt>
<trkpt lat="43.63645" lon="5.64294">
<ele>321.6</ele>
<time>2012-03-24T14:28:08.000Z</time>
</trkpt>
<trkpt lat="43.6364" lon="5.64294">
<ele>319.8</ele>
<time>2012-03-24T14:28:09.000Z</time>
</trkpt>
<trkpt lat="43.63635" lon="5.64296">
<ele>319.8</ele>
<time>2012-03-24T14:28:10.000Z</time>
</trkpt>
<trkpt lat="43.63627" lon="5.64299">
<ele>319.8</ele>
<time>2012-03-24T14:28:12.000Z</time>
</trkpt>
<trkpt lat="43.6362" lon="5.64299">
<ele>321</ele>
<time>2012-03-24T14:28:13.000Z</time>
</trkpt>
<trkpt lat="43.63611" lon="5.64301">
<ele>321.7</ele>
<time>2012-03-24T14:28:15.000Z</time>
</trkpt>
<trkpt lat="43.63607" lon="5.64301">
<ele>321.3</ele>
<time>2012-03-24T14:28:16.000Z</time>
</trkpt>
<trkpt lat="43.63598" lon="5.64302">
<ele>321.6</ele>
<time>2012-03-24T14:28:18.000Z</time>
</trkpt>
<trkpt lat="43.6359" lon="5.64302">
<ele>321.9</ele>
<time>2012-03-24T14:28:20.000Z</time>
</trkpt>
<trkpt lat="43.63585" lon="5.64303">
<ele>322.4</ele>
<time>2012-03-24T14:28:21.000Z</time>
</trkpt>
<trkpt lat="43.63578" lon="5.64301">
<ele>325.1</ele>
<time>2012-03-24T14:28:22.000Z</time>
</trkpt>
<trkpt lat="43.63572" lon="5.64302">
<ele>325.3</ele>
<time>2012-03-24T14:28:23.000Z</time>
</trkpt>
<trkpt lat="43.63567" lon="5.64302">
<ele>325.3</ele>
<time>2012-03-24T14:28:24.000Z</time>
</trkpt>
<trkpt lat="43.63562" lon="5.64301">
<ele>324.9</ele>
<time>2012-03-24T14:28:25.000Z</time>
</trkpt>
<trkpt lat="43.63556" lon="5.643">
<ele>324.8</ele>
<time>2012-03-24T14:28:26.000Z</time>
</trkpt>
<trkpt lat="43.63551" lon="5.64299">
<ele>324.8</ele>
<time>2012-03-24T14:28:27.000Z</time>
</trkpt>
<trkpt lat="43.63547" lon="5.64299">
<ele>324.6</ele>
<time>2012-03-24T14:28:28.000Z</time>
</trkpt>
<trkpt lat="43.63541" lon="5.64298">
<ele>324.7</ele>
<time>2012-03-24T14:28:29.000Z</time>
</trkpt>
<trkpt lat="43.63535" lon="5.64299">
<ele>324.6</ele>
<time>2012-03-24T14:28:30.000Z</time>
</trkpt>
<trkpt lat="43.6353" lon="5.643">
<ele>324.8</ele>
<time>2012-03-24T14:28:31.000Z</time>
</trkpt>
<trkpt lat="43.63526" lon="5.643">
<ele>324.2</ele>
<time>2012-03-24T14:28:32.000Z</time>
</trkpt>
<trkpt lat="43.63521" lon="5.64303">
<ele>324.6</ele>
<time>2012-03-24T14:28:33.000Z</time>
</trkpt>
<trkpt lat="43.63516" lon="5.64305">
<ele>324.8</ele>
<time>2012-03-24T14:28:34.000Z</time>
</trkpt>
<trkpt lat="43.6351" lon="5.64307">
<ele>324.7</ele>
<time>2012-03-24T14:28:35.000Z</time>
</trkpt>
<trkpt lat="43.63505" lon="5.6431">
<ele>323.8</ele>
<time>2012-03-24T14:28:36.000Z</time>
</trkpt>
<trkpt lat="43.63499" lon="5.64313">
<ele>323.6</ele>
<time>2012-03-24T14:28:37.000Z</time>
</trkpt>
<trkpt lat="43.63493" lon="5.64314">
<ele>323.1</ele>
<time>2012-03-24T14:28:38.000Z</time>
</trkpt>
<trkpt lat="43.63488" lon="5.64317">
<ele>322.4</ele>
<time>2012-03-24T14:28:39.000Z</time>
</trkpt>
<trkpt lat="43.63483" lon="5.6432">
<ele>322</ele>
<time>2012-03-24T14:28:40.000Z</time>
</trkpt>
<trkpt lat="43.63477" lon="5.64323">
<ele>321.9</ele>
<time>2012-03-24T14:28:41.000Z</time>
</trkpt>
<trkpt lat="43.63471" lon="5.64325">
<ele>322.6</ele>
<time>2012-03-24T14:28:42.000Z</time>
</trkpt>
<trkpt lat="43.63465" lon="5.64327">
<ele>322.6</ele>
<time>2012-03-24T14:28:43.000Z</time>
</trkpt>
<trkpt lat="43.6346" lon="5.6433">
<ele>322.6</ele>
<time>2012-03-24T14:28:44.000Z</time>
</trkpt>
<trkpt lat="43.63454" lon="5.64331">
<ele>322.4</ele>
<time>2012-03-24T14:28:45.000Z</time>
</trkpt>
<trkpt lat="43.63448" lon="5.64334">
<ele>322.1</ele>
<time>2012-03-24T14:28:46.000Z</time>
</trkpt>
<trkpt lat="43.63444" lon="5.64336">
<ele>321.6</ele>
<time>2012-03-24T14:28:47.000Z</time>
</trkpt>
<trkpt lat="43.63438" lon="5.64338">
<ele>320.9</ele>
<time>2012-03-24T14:28:48.000Z</time>
</trkpt>
<trkpt lat="43.63432" lon="5.6434">
<ele>320.7</ele>
<time>2012-03-24T14:28:49.000Z</time>
</trkpt>
<trkpt lat="43.63425" lon="5.64342">
<ele>320.3</ele>
<time>2012-03-24T14:28:50.000Z</time>
</trkpt>
<trkpt lat="43.63419" lon="5.64344">
<ele>320.1</ele>
<time>2012-03-24T14:28:51.000Z</time>
</trkpt>
<trkpt lat="43.63413" lon="5.64346">
<ele>319.7</ele>
<time>2012-03-24T14:28:52.000Z</time>
</trkpt>
<trkpt lat="43.63408" lon="5.64348">
<ele>319.7</ele>
<time>2012-03-24T14:28:53.000Z</time>
</trkpt>
<trkpt lat="43.63402" lon="5.64348">
<ele>319.8</ele>
<time>2012-03-24T14:28:54.000Z</time>
</trkpt>
<trkpt lat="43.63396" lon="5.64348">
<ele>320</ele>
<time>2012-03-24T14:28:55.000Z</time>
</trkpt>
<trkpt lat="43.6339" lon="5.64347">
<ele>320.7</ele>
<time>2012-03-24T14:28:56.000Z</time>
</trkpt>
<trkpt lat="43.63384" lon="5.64346">
<ele>321.1</ele>
<time>2012-03-24T14:28:57.000Z</time>
</trkpt>
<trkpt lat="43.63379" lon="5.64344">
<ele>321.8</ele>
<time>2012-03-24T14:28:58.000Z</time>
</trkpt>
<trkpt lat="43.63373" lon="5.64342">
<ele>321.9</ele>
<time>2012-03-24T14:28:59.000Z</time>
</trkpt>
<trkpt lat="43.63367" lon="5.6434">
<ele>322.3</ele>
<time>2012-03-24T14:29:00.000Z</time>
</trkpt>
<trkpt lat="43.63362" lon="5.64339">
<ele>321.5</ele>
<time>2012-03-24T14:29:01.000Z</time>
</trkpt>
<trkpt lat="43.63356" lon="5.64338">
<ele>321</ele>
<time>2012-03-24T14:29:02.000Z</time>
</trkpt>
<trkpt lat="43.6335" lon="5.64337">
<ele>320.9</ele>
<time>2012-03-24T14:29:03.000Z</time>
</trkpt>
<trkpt lat="43.63344" lon="5.64336">
<ele>321.1</ele>
<time>2012-03-24T14:29:04.000Z</time>
</trkpt>
<trkpt lat="43.63338" lon="5.64337">
<ele>320.9</ele>
<time>2012-03-24T14:29:05.000Z</time>
</trkpt>
<trkpt lat="43.63332" lon="5.64339">
<ele>321.1</ele>
<time>2012-03-24T14:29:06.000Z</time>
</trkpt>
<trkpt lat="43.63327" lon="5.64342">
<ele>321.4</ele>
<time>2012-03-24T14:29:07.000Z</time>
</trkpt>
<trkpt lat="43.63324" lon="5.64346">
<ele>321.3</ele>
<time>2012-03-24T14:29:08.000Z</time>
</trkpt>
<trkpt lat="43.6332" lon="5.64351">
<ele>321.4</ele>
<time>2012-03-24T14:29:09.000Z</time>
</trkpt>
<trkpt lat="43.63315" lon="5.64361">
<ele>321.7</ele>
<time>2012-03-24T14:29:11.000Z</time>
</trkpt>
<trkpt lat="43.63312" lon="5.64366">
<ele>321.4</ele>
<time>2012-03-24T14:29:12.000Z</time>
</trkpt>
<trkpt lat="43.63308" lon="5.64376">
<ele>321.1</ele>
<time>2012-03-24T14:29:14.000Z</time>
</trkpt>
<trkpt lat="43.63303" lon="5.6438">
<ele>321.5</ele>
<time>2012-03-24T14:29:15.000Z</time>
</trkpt>
<trkpt lat="43.63297" lon="5.64379">
<ele>321.6</ele>
<time>2012-03-24T14:29:16.000Z</time>
</trkpt>
<trkpt lat="43.63292" lon="5.64381">
<ele>321.5</ele>
<time>2012-03-24T14:29:17.000Z</time>
</trkpt>
<trkpt lat="43.63286" lon="5.64382">
<ele>321.3</ele>
<time>2012-03-24T14:29:18.000Z</time>
</trkpt>
<trkpt lat="43.63281" lon="5.64383">
<ele>321.4</ele>
<time>2012-03-24T14:29:19.000Z</time>
</trkpt>
<trkpt lat="43.63272" lon="5.64381">
<ele>320.2</ele>
<time>2012-03-24T14:29:21.000Z</time>
</trkpt>
<trkpt lat="43.63267" lon="5.64383">
<ele>320.9</ele>
<time>2012-03-24T14:29:22.000Z</time>
</trkpt>
<trkpt lat="43.63262" lon="5.64383">
<ele>320.9</ele>
<time>2012-03-24T14:29:23.000Z</time>
</trkpt>
<trkpt lat="43.63256" lon="5.64384">
<ele>321.2</ele>
<time>2012-03-24T14:29:24.000Z</time>
</trkpt>
<trkpt lat="43.63251" lon="5.64385">
<ele>321.4</ele>
<time>2012-03-24T14:29:25.000Z</time>
</trkpt>
<trkpt lat="43.63246" lon="5.64387">
<ele>320.7</ele>
<time>2012-03-24T14:29:26.000Z</time>
</trkpt>
<trkpt lat="43.63241" lon="5.64388">
<ele>320.3</ele>
<time>2012-03-24T14:29:27.000Z</time>
</trkpt>
<trkpt lat="43.63236" lon="5.64391">
<ele>320.1</ele>
<time>2012-03-24T14:29:28.000Z</time>
</trkpt>
<trkpt lat="43.6323" lon="5.64394">
<ele>320.2</ele>
<time>2012-03-24T14:29:29.000Z</time>
</trkpt>
<trkpt lat="43.63226" lon="5.64397">
<ele>320.3</ele>
<time>2012-03-24T14:29:30.000Z</time>
</trkpt>
<trkpt lat="43.63221" lon="5.644">
<ele>320.4</ele>
<time>2012-03-24T14:29:31.000Z</time>
</trkpt>
<trkpt lat="43.63216" lon="5.64404">
<ele>319.7</ele>
<time>2012-03-24T14:29:32.000Z</time>
</trkpt>
<trkpt lat="43.63212" lon="5.64408">
<ele>319.7</ele>
<time>2012-03-24T14:29:33.000Z</time>
</trkpt>
<trkpt lat="43.63207" lon="5.64411">
<ele>319.6</ele>
<time>2012-03-24T14:29:34.000Z</time>
</trkpt>
<trkpt lat="43.63202" lon="5.64415">
<ele>319.9</ele>
<time>2012-03-24T14:29:35.000Z</time>
</trkpt>
<trkpt lat="43.63197" lon="5.64419">
<ele>319.9</ele>
<time>2012-03-24T14:29:36.000Z</time>
</trkpt>
<trkpt lat="43.63192" lon="5.64423">
<ele>320</ele>
<time>2012-03-24T14:29:37.000Z</time>
</trkpt>
<trkpt lat="43.63187" lon="5.64427">
<ele>320.1</ele>
<time>2012-03-24T14:29:38.000Z</time>
</trkpt>
<trkpt lat="43.63182" lon="5.6443">
<ele>320.3</ele>
<time>2012-03-24T14:29:39.000Z</time>
</trkpt>
<trkpt lat="43.63176" lon="5.64434">
<ele>320.9</ele>
<time>2012-03-24T14:29:40.000Z</time>
</trkpt>
<trkpt lat="43.63171" lon="5.64437">
<ele>321.1</ele>
<time>2012-03-24T14:29:41.000Z</time>
</trkpt>
<trkpt lat="43.63165" lon="5.64441">
<ele>321</ele>
<time>2012-03-24T14:29:42.000Z</time>
</trkpt>
<trkpt lat="43.6316" lon="5.64445">
<ele>320.7</ele>
<time>2012-03-24T14:29:43.000Z</time>
</trkpt>
<trkpt lat="43.63154" lon="5.64448">
<ele>320.9</ele>
<time>2012-03-24T14:29:44.000Z</time>
</trkpt>
<trkpt lat="43.63149" lon="5.64451">
<ele>320.8</ele>
<time>2012-03-24T14:29:45.000Z</time>
</trkpt>
<trkpt lat="43.63144" lon="5.64453">
<ele>320.5</ele>
<time>2012-03-24T14:29:46.000Z</time>
</trkpt>
<trkpt lat="43.63139" lon="5.64455">
<ele>320.7</ele>
<time>2012-03-24T14:29:47.000Z</time>
</trkpt>
<trkpt lat="43.63134" lon="5.64456">
<ele>321.4</ele>
<time>2012-03-24T14:29:48.000Z</time>
</trkpt>
<trkpt lat="43.63128" lon="5.64457">
<ele>322</ele>
<time>2012-03-24T14:29:49.000Z</time>
</trkpt>
<trkpt lat="43.63122" lon="5.64458">
<ele>321.9</ele>
<time>2012-03-24T14:29:50.000Z</time>
</trkpt>
<trkpt lat="43.63117" lon="5.6446">
<ele>321.5</ele>
<time>2012-03-24T14:29:51.000Z</time>
</trkpt>
<trkpt lat="43.63112" lon="5.64461">
<ele>321</ele>
<time>2012-03-24T14:29:52.000Z</time>
</trkpt>
<trkpt lat="43.63106" lon="5.64462">
<ele>321.4</ele>
<time>2012-03-24T14:29:53.000Z</time>
</trkpt>
<trkpt lat="43.63101" lon="5.64463">
<ele>321.4</ele>
<time>2012-03-24T14:29:54.000Z</time>
</trkpt>
<trkpt lat="43.63096" lon="5.64464">
<ele>321.9</ele>
<time>2012-03-24T14:29:55.000Z</time>
</trkpt>
<trkpt lat="43.63091" lon="5.64466">
<ele>323.2</ele>
<time>2012-03-24T14:29:56.000Z</time>
</trkpt>
<trkpt lat="43.63085" lon="5.64467">
<ele>324.3</ele>
<time>2012-03-24T14:29:57.000Z</time>
</trkpt>
<trkpt lat="43.63081" lon="5.64468">
<ele>324.6</ele>
<time>2012-03-24T14:29:58.000Z</time>
</trkpt>
<trkpt lat="43.63071" lon="5.64469">
<ele>325.9</ele>
<time>2012-03-24T14:30:00.000Z</time>
</trkpt>
<trkpt lat="43.63062" lon="5.64471">
<ele>326.6</ele>
<time>2012-03-24T14:30:02.000Z</time>
</trkpt>
<trkpt lat="43.63058" lon="5.64472">
<ele>326.2</ele>
<time>2012-03-24T14:30:03.000Z</time>
</trkpt>
<trkpt lat="43.63052" lon="5.64473">
<ele>326.6</ele>
<time>2012-03-24T14:30:04.000Z</time>
</trkpt>
<trkpt lat="43.63048" lon="5.64474">
<ele>326.9</ele>
<time>2012-03-24T14:30:05.000Z</time>
</trkpt>
<trkpt lat="43.63043" lon="5.64474">
<ele>326.9</ele>
<time>2012-03-24T14:30:06.000Z</time>
</trkpt>
<trkpt lat="43.63038" lon="5.64475">
<ele>327.1</ele>
<time>2012-03-24T14:30:07.000Z</time>
</trkpt>
<trkpt lat="43.63033" lon="5.64476">
<ele>327.4</ele>
<time>2012-03-24T14:30:08.000Z</time>
</trkpt>
<trkpt lat="43.63024" lon="5.64477">
<ele>328.1</ele>
<time>2012-03-24T14:30:10.000Z</time>
</trkpt>
<trkpt lat="43.63016" lon="5.64478">
<ele>328.5</ele>
<time>2012-03-24T14:30:12.000Z</time>
</trkpt>
<trkpt lat="43.63006" lon="5.6448">
<ele>328.7</ele>
<time>2012-03-24T14:30:14.000Z</time>
</trkpt>
<trkpt lat="43.62997" lon="5.6448">
<ele>329.2</ele>
<time>2012-03-24T14:30:16.000Z</time>
</trkpt>
<trkpt lat="43.62992" lon="5.64481">
<ele>329.2</ele>
<time>2012-03-24T14:30:17.000Z</time>
</trkpt>
<trkpt lat="43.62987" lon="5.64482">
<ele>329.3</ele>
<time>2012-03-24T14:30:18.000Z</time>
</trkpt>
<trkpt lat="43.62978" lon="5.64482">
<ele>329.9</ele>
<time>2012-03-24T14:30:20.000Z</time>
</trkpt>
<trkpt lat="43.6297" lon="5.64481">
<ele>330</ele>
<time>2012-03-24T14:30:22.000Z</time>
</trkpt>
<trkpt lat="43.62965" lon="5.64482">
<ele>329.9</ele>
<time>2012-03-24T14:30:23.000Z</time>
</trkpt>
<trkpt lat="43.62956" lon="5.64483">
<ele>330.2</ele>
<time>2012-03-24T14:30:25.000Z</time>
</trkpt>
<trkpt lat="43.62948" lon="5.64484">
<ele>330.2</ele>
<time>2012-03-24T14:30:27.000Z</time>
</trkpt>
<trkpt lat="43.62939" lon="5.64484">
<ele>330.5</ele>
<time>2012-03-24T14:30:29.000Z</time>
</trkpt>
<trkpt lat="43.62934" lon="5.64485">
<ele>330.3</ele>
<time>2012-03-24T14:30:30.000Z</time>
</trkpt>
<trkpt lat="43.62926" lon="5.64487">
<ele>330.6</ele>
<time>2012-03-24T14:30:32.000Z</time>
</trkpt>
<trkpt lat="43.62918" lon="5.64491">
<ele>330.5</ele>
<time>2012-03-24T14:30:34.000Z</time>
</trkpt>
<trkpt lat="43.62913" lon="5.64492">
<ele>331.1</ele>
<time>2012-03-24T14:30:35.000Z</time>
</trkpt>
<trkpt lat="43.62905" lon="5.64495">
<ele>331.3</ele>
<time>2012-03-24T14:30:37.000Z</time>
</trkpt>
<trkpt lat="43.62897" lon="5.645">
<ele>331.9</ele>
<time>2012-03-24T14:30:39.000Z</time>
</trkpt>
<trkpt lat="43.6289" lon="5.64507">
<ele>331.3</ele>
<time>2012-03-24T14:30:41.000Z</time>
</trkpt>
<trkpt lat="43.62884" lon="5.64513">
<ele>331.2</ele>
<time>2012-03-24T14:30:43.000Z</time>
</trkpt>
<trkpt lat="43.62876" lon="5.64518">
<ele>331.9</ele>
<time>2012-03-24T14:30:45.000Z</time>
</trkpt>
<trkpt lat="43.62869" lon="5.64522">
<ele>332.1</ele>
<time>2012-03-24T14:30:47.000Z</time>
</trkpt>
<trkpt lat="43.62864" lon="5.64528">
<ele>332.1</ele>
<time>2012-03-24T14:30:49.000Z</time>
</trkpt>
<trkpt lat="43.62858" lon="5.64536">
<ele>332.4</ele>
<time>2012-03-24T14:30:51.000Z</time>
</trkpt>
<trkpt lat="43.62854" lon="5.64542">
<ele>332.9</ele>
<time>2012-03-24T14:30:53.000Z</time>
</trkpt>
<trkpt lat="43.62852" lon="5.64552">
<ele>333.4</ele>
<time>2012-03-24T14:30:55.000Z</time>
</trkpt>
<trkpt lat="43.62849" lon="5.64562">
<ele>333.5</ele>
<time>2012-03-24T14:30:57.000Z</time>
</trkpt>
<trkpt lat="43.62847" lon="5.64568">
<ele>334.4</ele>
<time>2012-03-24T14:30:59.000Z</time>
</trkpt>
<trkpt lat="43.62841" lon="5.64574">
<ele>335.2</ele>
<time>2012-03-24T14:31:01.000Z</time>
</trkpt>
<trkpt lat="43.62836" lon="5.64583">
<ele>335.1</ele>
<time>2012-03-24T14:31:03.000Z</time>
</trkpt>
<trkpt lat="43.62832" lon="5.64592">
<ele>335</ele>
<time>2012-03-24T14:31:05.000Z</time>
</trkpt>
<trkpt lat="43.62828" lon="5.646">
<ele>335.9</ele>
<time>2012-03-24T14:31:07.000Z</time>
</trkpt>
<trkpt lat="43.62825" lon="5.64605">
<ele>336.4</ele>
<time>2012-03-24T14:31:08.000Z</time>
</trkpt>
<trkpt lat="43.62824" lon="5.64611">
<ele>336.5</ele>
<time>2012-03-24T14:31:09.000Z</time>
</trkpt>
<trkpt lat="43.62819" lon="5.64619">
<ele>336.9</ele>
<time>2012-03-24T14:31:11.000Z</time>
</trkpt>
<trkpt lat="43.62813" lon="5.6463">
<ele>337.8</ele>
<time>2012-03-24T14:31:13.000Z</time>
</trkpt>
<trkpt lat="43.62808" lon="5.64638">
<ele>339</ele>
<time>2012-03-24T14:31:15.000Z</time>
</trkpt>
<trkpt lat="43.62803" lon="5.64647">
<ele>339</ele>
<time>2012-03-24T14:31:17.000Z</time>
</trkpt>
<trkpt lat="43.62796" lon="5.64657">
<ele>339.5</ele>
<time>2012-03-24T14:31:19.000Z</time>
</trkpt>
<trkpt lat="43.62793" lon="5.64666">
<ele>340.1</ele>
<time>2012-03-24T14:31:21.000Z</time>
</trkpt>
<trkpt lat="43.6279" lon="5.64671">
<ele>340.1</ele>
<time>2012-03-24T14:31:22.000Z</time>
</trkpt>
<trkpt lat="43.62787" lon="5.64682">
<ele>340.4</ele>
<time>2012-03-24T14:31:24.000Z</time>
</trkpt>
<trkpt lat="43.62784" lon="5.64688">
<ele>340.1</ele>
<time>2012-03-24T14:31:25.000Z</time>
</trkpt>
<trkpt lat="43.62781" lon="5.64694">
<ele>340.2</ele>
<time>2012-03-24T14:31:26.000Z</time>
</trkpt>
<trkpt lat="43.62776" lon="5.64702">
<ele>340.3</ele>
<time>2012-03-24T14:31:28.000Z</time>
</trkpt>
<trkpt lat="43.62774" lon="5.64707">
<ele>340.4</ele>
<time>2012-03-24T14:31:29.000Z</time>
</trkpt>
<trkpt lat="43.6277" lon="5.64712">
<ele>340.5</ele>
<time>2012-03-24T14:31:30.000Z</time>
</trkpt>
<trkpt lat="43.62766" lon="5.64721">
<ele>340.7</ele>
<time>2012-03-24T14:31:32.000Z</time>
</trkpt>
<trkpt lat="43.62763" lon="5.64727">
<ele>340.4</ele>
<time>2012-03-24T14:31:33.000Z</time>
</trkpt>
<trkpt lat="43.62758" lon="5.64735">
<ele>342.1</ele>
<time>2012-03-24T14:31:35.000Z</time>
</trkpt>
<trkpt lat="43.62755" lon="5.6474">
<ele>342.1</ele>
<time>2012-03-24T14:31:36.000Z</time>
</trkpt>
<trkpt lat="43.62751" lon="5.64749">
<ele>342.4</ele>
<time>2012-03-24T14:31:38.000Z</time>
</trkpt>
<trkpt lat="43.62747" lon="5.6476">
<ele>342.4</ele>
<time>2012-03-24T14:31:40.000Z</time>
</trkpt>
<trkpt lat="43.62742" lon="5.64768">
<ele>343.6</ele>
<time>2012-03-24T14:31:42.000Z</time>
</trkpt>
<trkpt lat="43.62735" lon="5.64778">
<ele>344.5</ele>
<time>2012-03-24T14:31:44.000Z</time>
</trkpt>
<trkpt lat="43.62733" lon="5.64784">
<ele>345.6</ele>
<time>2012-03-24T14:31:45.000Z</time>
</trkpt>
<trkpt lat="43.62729" lon="5.64794">
<ele>346.1</ele>
<time>2012-03-24T14:31:47.000Z</time>
</trkpt>
<trkpt lat="43.62724" lon="5.64804">
<ele>346.1</ele>
<time>2012-03-24T14:31:49.000Z</time>
</trkpt>
<trkpt lat="43.62719" lon="5.64809">
<ele>346.4</ele>
<time>2012-03-24T14:31:50.000Z</time>
</trkpt>
<trkpt lat="43.62712" lon="5.64819">
<ele>346.9</ele>
<time>2012-03-24T14:31:52.000Z</time>
</trkpt>
<trkpt lat="43.62707" lon="5.6482">
<ele>347.6</ele>
<time>2012-03-24T14:31:53.000Z</time>
</trkpt>
<trkpt lat="43.62698" lon="5.64823">
<ele>348.2</ele>
<time>2012-03-24T14:31:55.000Z</time>
</trkpt>
<trkpt lat="43.62689" lon="5.64823">
<ele>348</ele>
<time>2012-03-24T14:31:57.000Z</time>
</trkpt>
<trkpt lat="43.62686" lon="5.64819">
<ele>349</ele>
<time>2012-03-24T14:31:58.000Z</time>
</trkpt>
<trkpt lat="43.62682" lon="5.64816">
<ele>349.4</ele>
<time>2012-03-24T14:31:59.000Z</time>
</trkpt>
<trkpt lat="43.62678" lon="5.64812">
<ele>350.1</ele>
<time>2012-03-24T14:32:00.000Z</time>
</trkpt>
<trkpt lat="43.62672" lon="5.64805">
<ele>351</ele>
<time>2012-03-24T14:32:02.000Z</time>
</trkpt>
<trkpt lat="43.62668" lon="5.64798">
<ele>352.3</ele>
<time>2012-03-24T14:32:04.000Z</time>
</trkpt>
<trkpt lat="43.62665" lon="5.64794">
<ele>353.6</ele>
<time>2012-03-24T14:32:06.000Z</time>
</trkpt>
<trkpt lat="43.62661" lon="5.64786">
<ele>358.1</ele>
<time>2012-03-24T14:32:09.000Z</time>
</trkpt>
<trkpt lat="43.62657" lon="5.64777">
<ele>359.8</ele>
<time>2012-03-24T14:32:11.000Z</time>
</trkpt>
<trkpt lat="43.62653" lon="5.64765">
<ele>361.1</ele>
<time>2012-03-24T14:32:13.000Z</time>
</trkpt>
<trkpt lat="43.62651" lon="5.64758">
<ele>361.7</ele>
<time>2012-03-24T14:32:14.000Z</time>
</trkpt>
<trkpt lat="43.62646" lon="5.64746">
<ele>365.9</ele>
<time>2012-03-24T14:32:16.000Z</time>
</trkpt>
<trkpt lat="43.62642" lon="5.64735">
<ele>368.1</ele>
<time>2012-03-24T14:32:18.000Z</time>
</trkpt>
<trkpt lat="43.62638" lon="5.64725">
<ele>369.4</ele>
<time>2012-03-24T14:32:20.000Z</time>
</trkpt>
<trkpt lat="43.62631" lon="5.64716">
<ele>370</ele>
<time>2012-03-24T14:32:22.000Z</time>
</trkpt>
<trkpt lat="43.62629" lon="5.6471">
<ele>368.9</ele>
<time>2012-03-24T14:32:23.000Z</time>
</trkpt>
<trkpt lat="43.62624" lon="5.64701">
<ele>367.7</ele>
<time>2012-03-24T14:32:25.000Z</time>
</trkpt>
<trkpt lat="43.62622" lon="5.64694">
<ele>367.7</ele>
<time>2012-03-24T14:32:26.000Z</time>
</trkpt>
<trkpt lat="43.62618" lon="5.64691">
<ele>370.8</ele>
<time>2012-03-24T14:32:27.000Z</time>
</trkpt>
<trkpt lat="43.62614" lon="5.64686">
<ele>370.8</ele>
<time>2012-03-24T14:32:28.000Z</time>
</trkpt>
<trkpt lat="43.62607" lon="5.64681">
<ele>370.7</ele>
<time>2012-03-24T14:32:30.000Z</time>
</trkpt>
<trkpt lat="43.62598" lon="5.64677">
<ele>370.9</ele>
<time>2012-03-24T14:32:32.000Z</time>
</trkpt>
<trkpt lat="43.62589" lon="5.64674">
<ele>370.1</ele>
<time>2012-03-24T14:32:34.000Z</time>
</trkpt>
<trkpt lat="43.62584" lon="5.64671">
<ele>369.3</ele>
<time>2012-03-24T14:32:35.000Z</time>
</trkpt>
<trkpt lat="43.62579" lon="5.64671">
<ele>369.1</ele>
<time>2012-03-24T14:32:36.000Z</time>
</trkpt>
<trkpt lat="43.62572" lon="5.6467">
<ele>369.1</ele>
<time>2012-03-24T14:32:37.000Z</time>
</trkpt>
<trkpt lat="43.62565" lon="5.6467">
<ele>369.3</ele>
<time>2012-03-24T14:32:38.000Z</time>
</trkpt>
<trkpt lat="43.62558" lon="5.6467">
<ele>369.3</ele>
<time>2012-03-24T14:32:39.000Z</time>
</trkpt>
<trkpt lat="43.62551" lon="5.6467">
<ele>369.2</ele>
<time>2012-03-24T14:32:40.000Z</time>
</trkpt>
<trkpt lat="43.62544" lon="5.6467">
<ele>369.3</ele>
<time>2012-03-24T14:32:41.000Z</time>
</trkpt>
<trkpt lat="43.62535" lon="5.6467">
<ele>368.8</ele>
<time>2012-03-24T14:32:42.000Z</time>
</trkpt>
<trkpt lat="43.62526" lon="5.6467">
<ele>368.9</ele>
<time>2012-03-24T14:32:43.000Z</time>
</trkpt>
<trkpt lat="43.62517" lon="5.64669">
<ele>368.7</ele>
<time>2012-03-24T14:32:44.000Z</time>
</trkpt>
<trkpt lat="43.62509" lon="5.64668">
<ele>368.4</ele>
<time>2012-03-24T14:32:45.000Z</time>
</trkpt>
<trkpt lat="43.62499" lon="5.64668">
<ele>367.4</ele>
<time>2012-03-24T14:32:46.000Z</time>
</trkpt>
<trkpt lat="43.6249" lon="5.64666">
<ele>365.4</ele>
<time>2012-03-24T14:32:47.000Z</time>
</trkpt>
<trkpt lat="43.62481" lon="5.64665">
<ele>363.6</ele>
<time>2012-03-24T14:32:48.000Z</time>
</trkpt>
<trkpt lat="43.62472" lon="5.64666">
<ele>361.6</ele>
<time>2012-03-24T14:32:49.000Z</time>
</trkpt>
<trkpt lat="43.62462" lon="5.64668">
<ele>361.3</ele>
<time>2012-03-24T14:32:50.000Z</time>
</trkpt>
<trkpt lat="43.62454" lon="5.64671">
<ele>360.4</ele>
<time>2012-03-24T14:32:51.000Z</time>
</trkpt>
<trkpt lat="43.62445" lon="5.64674">
<ele>359.4</ele>
<time>2012-03-24T14:32:52.000Z</time>
</trkpt>
<trkpt lat="43.62436" lon="5.64678">
<ele>359.7</ele>
<time>2012-03-24T14:32:53.000Z</time>
</trkpt>
<trkpt lat="43.62428" lon="5.64683">
<ele>359.3</ele>
<time>2012-03-24T14:32:54.000Z</time>
</trkpt>
<trkpt lat="43.62421" lon="5.64688">
<ele>359.3</ele>
<time>2012-03-24T14:32:55.000Z</time>
</trkpt>
<trkpt lat="43.62414" lon="5.64694">
<ele>359.2</ele>
<time>2012-03-24T14:32:56.000Z</time>
</trkpt>
<trkpt lat="43.62407" lon="5.64698">
<ele>359.7</ele>
<time>2012-03-24T14:32:57.000Z</time>
</trkpt>
<trkpt lat="43.62401" lon="5.64702">
<ele>359.8</ele>
<time>2012-03-24T14:32:58.000Z</time>
</trkpt>
<trkpt lat="43.62394" lon="5.64705">
<ele>359.2</ele>
<time>2012-03-24T14:32:59.000Z</time>
</trkpt>
<trkpt lat="43.62388" lon="5.64709">
<ele>359.3</ele>
<time>2012-03-24T14:33:00.000Z</time>
</trkpt>
<trkpt lat="43.62381" lon="5.64713">
<ele>359.8</ele>
<time>2012-03-24T14:33:01.000Z</time>
</trkpt>
<trkpt lat="43.62375" lon="5.64717">
<ele>359.5</ele>
<time>2012-03-24T14:33:02.000Z</time>
</trkpt>
<trkpt lat="43.62369" lon="5.6472">
<ele>359.4</ele>
<time>2012-03-24T14:33:03.000Z</time>
</trkpt>
<trkpt lat="43.62362" lon="5.64724">
<ele>359.6</ele>
<time>2012-03-24T14:33:04.000Z</time>
</trkpt>
<trkpt lat="43.62356" lon="5.64728">
<ele>358.8</ele>
<time>2012-03-24T14:33:05.000Z</time>
</trkpt>
<trkpt lat="43.62349" lon="5.64731">
<ele>359.4</ele>
<time>2012-03-24T14:33:06.000Z</time>
</trkpt>
<trkpt lat="43.62342" lon="5.64735">
<ele>358.8</ele>
<time>2012-03-24T14:33:07.000Z</time>
</trkpt>
<trkpt lat="43.62337" lon="5.64738">
<ele>358.7</ele>
<time>2012-03-24T14:33:08.000Z</time>
</trkpt>
<trkpt lat="43.62331" lon="5.64742">
<ele>358.4</ele>
<time>2012-03-24T14:33:09.000Z</time>
</trkpt>
<trkpt lat="43.62324" lon="5.64746">
<ele>358</ele>
<time>2012-03-24T14:33:10.000Z</time>
</trkpt>
<trkpt lat="43.62318" lon="5.6475">
<ele>357.8</ele>
<time>2012-03-24T14:33:11.000Z</time>
</trkpt>
<trkpt lat="43.6231" lon="5.64755">
<ele>357.3</ele>
<time>2012-03-24T14:33:12.000Z</time>
</trkpt>
<trkpt lat="43.62303" lon="5.64759">
<ele>357.1</ele>
<time>2012-03-24T14:33:13.000Z</time>
</trkpt>
<trkpt lat="43.62297" lon="5.64764">
<ele>356.8</ele>
<time>2012-03-24T14:33:14.000Z</time>
</trkpt>
<trkpt lat="43.6229" lon="5.64768">
<ele>356.2</ele>
<time>2012-03-24T14:33:15.000Z</time>
</trkpt>
<trkpt lat="43.62284" lon="5.64772">
<ele>356.1</ele>
<time>2012-03-24T14:33:16.000Z</time>
</trkpt>
<trkpt lat="43.62277" lon="5.64777">
<ele>356.1</ele>
<time>2012-03-24T14:33:17.000Z</time>
</trkpt>
<trkpt lat="43.62263" lon="5.64784">
<ele>355.9</ele>
<time>2012-03-24T14:33:19.000Z</time>
</trkpt>
<trkpt lat="43.62257" lon="5.6479">
<ele>356.4</ele>
<time>2012-03-24T14:33:20.000Z</time>
</trkpt>
<trkpt lat="43.62249" lon="5.64796">
<ele>357.2</ele>
<time>2012-03-24T14:33:21.000Z</time>
</trkpt>
<trkpt lat="43.62245" lon="5.64799">
<ele>357.8</ele>
<time>2012-03-24T14:33:22.000Z</time>
</trkpt>
<trkpt lat="43.62242" lon="5.64786">
<ele>358.4</ele>
<time>2012-03-24T14:33:24.000Z</time>
</trkpt>
<trkpt lat="43.62244" lon="5.64795">
<ele>358.9</ele>
<time>2012-03-24T14:33:25.000Z</time>
</trkpt>
<trkpt lat="43.62239" lon="5.64811">
<ele>358.6</ele>
<time>2012-03-24T14:33:26.000Z</time>
</trkpt>
<trkpt lat="43.62231" lon="5.64823">
<ele>358.8</ele>
<time>2012-03-24T14:33:27.000Z</time>
</trkpt>
<trkpt lat="43.62227" lon="5.64832">
<ele>358.4</ele>
<time>2012-03-24T14:33:28.000Z</time>
</trkpt>
<trkpt lat="43.6222" lon="5.6484">
<ele>357.9</ele>
<time>2012-03-24T14:33:29.000Z</time>
</trkpt>
<trkpt lat="43.62215" lon="5.64847">
<ele>358.2</ele>
<time>2012-03-24T14:33:30.000Z</time>
</trkpt>
<trkpt lat="43.62209" lon="5.64853">
<ele>357.6</ele>
<time>2012-03-24T14:33:31.000Z</time>
</trkpt>
<trkpt lat="43.62203" lon="5.64859">
<ele>358</ele>
<time>2012-03-24T14:33:32.000Z</time>
</trkpt>
<trkpt lat="43.62201" lon="5.64866">
<ele>357.9</ele>
<time>2012-03-24T14:33:33.000Z</time>
</trkpt>
<trkpt lat="43.62196" lon="5.64876">
<ele>358.2</ele>
<time>2012-03-24T14:33:34.000Z</time>
</trkpt>
<trkpt lat="43.62195" lon="5.64899">
<ele>358.6</ele>
<time>2012-03-24T14:33:35.000Z</time>
</trkpt>
<trkpt lat="43.6219" lon="5.64895">
<ele>358.5</ele>
<time>2012-03-24T14:33:37.000Z</time>
</trkpt>
<trkpt lat="43.62184" lon="5.64901">
<ele>358.5</ele>
<time>2012-03-24T14:33:38.000Z</time>
</trkpt>
<trkpt lat="43.62178" lon="5.64904">
<ele>358.6</ele>
<time>2012-03-24T14:33:39.000Z</time>
</trkpt>
<trkpt lat="43.62169" lon="5.64913">
<ele>358.6</ele>
<time>2012-03-24T14:33:40.000Z</time>
</trkpt>
<trkpt lat="43.62164" lon="5.64924">
<ele>358.6</ele>
<time>2012-03-24T14:33:41.000Z</time>
</trkpt>
<trkpt lat="43.62157" lon="5.64931">
<ele>358.7</ele>
<time>2012-03-24T14:33:43.000Z</time>
</trkpt>
<trkpt lat="43.6215" lon="5.64936">
<ele>359.2</ele>
<time>2012-03-24T14:33:45.000Z</time>
</trkpt>
<trkpt lat="43.62145" lon="5.64941">
<ele>359</ele>
<time>2012-03-24T14:33:46.000Z</time>
</trkpt>
<trkpt lat="43.6214" lon="5.64944">
<ele>359.1</ele>
<time>2012-03-24T14:33:47.000Z</time>
</trkpt>
<trkpt lat="43.62134" lon="5.64947">
<ele>358.6</ele>
<time>2012-03-24T14:33:48.000Z</time>
</trkpt>
<trkpt lat="43.6213" lon="5.6495">
<ele>358.8</ele>
<time>2012-03-24T14:33:49.000Z</time>
</trkpt>
<trkpt lat="43.6212" lon="5.64949">
<ele>358.5</ele>
<time>2012-03-24T14:33:50.000Z</time>
</trkpt>
<trkpt lat="43.62104" lon="5.64959">
<ele>358.2</ele>
<time>2012-03-24T14:33:51.000Z</time>
</trkpt>
<trkpt lat="43.62101" lon="5.6497">
<ele>357.9</ele>
<time>2012-03-24T14:33:52.000Z</time>
</trkpt>
<trkpt lat="43.62108" lon="5.64981">
<ele>357.8</ele>
<time>2012-03-24T14:33:54.000Z</time>
</trkpt>
<trkpt lat="43.62106" lon="5.64988">
<ele>357</ele>
<time>2012-03-24T14:33:55.000Z</time>
</trkpt>
<trkpt lat="43.62105" lon="5.64994">
<ele>356.9</ele>
<time>2012-03-24T14:33:56.000Z</time>
</trkpt>
<trkpt lat="43.62104" lon="5.65">
<ele>357.2</ele>
<time>2012-03-24T14:33:57.000Z</time>
</trkpt>
<trkpt lat="43.62103" lon="5.65006">
<ele>356.7</ele>
<time>2012-03-24T14:33:58.000Z</time>
</trkpt>
<trkpt lat="43.62101" lon="5.65013">
<ele>356</ele>
<time>2012-03-24T14:33:59.000Z</time>
</trkpt>
<trkpt lat="43.621" lon="5.65025">
<ele>356.8</ele>
<time>2012-03-24T14:34:01.000Z</time>
</trkpt>
<trkpt lat="43.62098" lon="5.65032">
<ele>357</ele>
<time>2012-03-24T14:34:02.000Z</time>
</trkpt>
<trkpt lat="43.62096" lon="5.65038">
<ele>356.9</ele>
<time>2012-03-24T14:34:03.000Z</time>
</trkpt>
<trkpt lat="43.62095" lon="5.65045">
<ele>356.9</ele>
<time>2012-03-24T14:34:04.000Z</time>
</trkpt>
<trkpt lat="43.62094" lon="5.65051">
<ele>357.2</ele>
<time>2012-03-24T14:34:05.000Z</time>
</trkpt>
<trkpt lat="43.62092" lon="5.65058">
<ele>357.2</ele>
<time>2012-03-24T14:34:06.000Z</time>
</trkpt>
<trkpt lat="43.6209" lon="5.65066">
<ele>357.4</ele>
<time>2012-03-24T14:34:07.000Z</time>
</trkpt>
<trkpt lat="43.62088" lon="5.65072">
<ele>357</ele>
<time>2012-03-24T14:34:08.000Z</time>
</trkpt>
<trkpt lat="43.62085" lon="5.6508">
<ele>356.6</ele>
<time>2012-03-24T14:34:09.000Z</time>
</trkpt>
<trkpt lat="43.62083" lon="5.65088">
<ele>356.6</ele>
<time>2012-03-24T14:34:10.000Z</time>
</trkpt>
<trkpt lat="43.62079" lon="5.65097">
<ele>356.4</ele>
<time>2012-03-24T14:34:11.000Z</time>
</trkpt>
<trkpt lat="43.62075" lon="5.65104">
<ele>355.8</ele>
<time>2012-03-24T14:34:12.000Z</time>
</trkpt>
<trkpt lat="43.62072" lon="5.65113">
<ele>356.6</ele>
<time>2012-03-24T14:34:13.000Z</time>
</trkpt>
<trkpt lat="43.62069" lon="5.6512">
<ele>356.5</ele>
<time>2012-03-24T14:34:14.000Z</time>
</trkpt>
<trkpt lat="43.62064" lon="5.65126">
<ele>356.6</ele>
<time>2012-03-24T14:34:15.000Z</time>
</trkpt>
<trkpt lat="43.62062" lon="5.65133">
<ele>357.1</ele>
<time>2012-03-24T14:34:16.000Z</time>
</trkpt>
<trkpt lat="43.62058" lon="5.65141">
<ele>357.4</ele>
<time>2012-03-24T14:34:17.000Z</time>
</trkpt>
<trkpt lat="43.62054" lon="5.65148">
<ele>358.3</ele>
<time>2012-03-24T14:34:18.000Z</time>
</trkpt>
<trkpt lat="43.62051" lon="5.65154">
<ele>358.5</ele>
<time>2012-03-24T14:34:19.000Z</time>
</trkpt>
<trkpt lat="43.6205" lon="5.65164">
<ele>359.8</ele>
<time>2012-03-24T14:34:20.000Z</time>
</trkpt>
<trkpt lat="43.62048" lon="5.65176">
<ele>360</ele>
<time>2012-03-24T14:34:21.000Z</time>
</trkpt>
<trkpt lat="43.62045" lon="5.65184">
<ele>360.9</ele>
<time>2012-03-24T14:34:22.000Z</time>
</trkpt>
<trkpt lat="43.62047" lon="5.65195">
<ele>361.2</ele>
<time>2012-03-24T14:34:23.000Z</time>
</trkpt>
<trkpt lat="43.62046" lon="5.65205">
<ele>362.1</ele>
<time>2012-03-24T14:34:24.000Z</time>
</trkpt>
<trkpt lat="43.62036" lon="5.65205">
<ele>366.4</ele>
<time>2012-03-24T14:34:25.000Z</time>
</trkpt>
<trkpt lat="43.6203" lon="5.65211">
<ele>367.1</ele>
<time>2012-03-24T14:34:26.000Z</time>
</trkpt>
<trkpt lat="43.62024" lon="5.65218">
<ele>367.3</ele>
<time>2012-03-24T14:34:27.000Z</time>
</trkpt>
<trkpt lat="43.62019" lon="5.65225">
<ele>366.6</ele>
<time>2012-03-24T14:34:28.000Z</time>
</trkpt>
<trkpt lat="43.62013" lon="5.65231">
<ele>364.8</ele>
<time>2012-03-24T14:34:29.000Z</time>
</trkpt>
<trkpt lat="43.62008" lon="5.65237">
<ele>364.4</ele>
<time>2012-03-24T14:34:30.000Z</time>
</trkpt>
<trkpt lat="43.62003" lon="5.65244">
<ele>364.6</ele>
<time>2012-03-24T14:34:31.000Z</time>
</trkpt>
<trkpt lat="43.61997" lon="5.65251">
<ele>364.6</ele>
<time>2012-03-24T14:34:32.000Z</time>
</trkpt>
<trkpt lat="43.61992" lon="5.65259">
<ele>364.9</ele>
<time>2012-03-24T14:34:33.000Z</time>
</trkpt>
<trkpt lat="43.61988" lon="5.65265">
<ele>364.7</ele>
<time>2012-03-24T14:34:34.000Z</time>
</trkpt>
<trkpt lat="43.61983" lon="5.65272">
<ele>364.9</ele>
<time>2012-03-24T14:34:35.000Z</time>
</trkpt>
<trkpt lat="43.61978" lon="5.6528">
<ele>364.9</ele>
<time>2012-03-24T14:34:36.000Z</time>
</trkpt>
<trkpt lat="43.61973" lon="5.65287">
<ele>365.1</ele>
<time>2012-03-24T14:34:37.000Z</time>
</trkpt>
<trkpt lat="43.61969" lon="5.65295">
<ele>364.9</ele>
<time>2012-03-24T14:34:38.000Z</time>
</trkpt>
<trkpt lat="43.61964" lon="5.65302">
<ele>365</ele>
<time>2012-03-24T14:34:39.000Z</time>
</trkpt>
<trkpt lat="43.61959" lon="5.65309">
<ele>364.1</ele>
<time>2012-03-24T14:34:40.000Z</time>
</trkpt>
<trkpt lat="43.61954" lon="5.65316">
<ele>364.5</ele>
<time>2012-03-24T14:34:41.000Z</time>
</trkpt>
<trkpt lat="43.61951" lon="5.65322">
<ele>365.6</ele>
<time>2012-03-24T14:34:42.000Z</time>
</trkpt>
<trkpt lat="43.61948" lon="5.65329">
<ele>366.5</ele>
<time>2012-03-24T14:34:43.000Z</time>
</trkpt>
<trkpt lat="43.61945" lon="5.65336">
<ele>366.8</ele>
<time>2012-03-24T14:34:44.000Z</time>
</trkpt>
<trkpt lat="43.61941" lon="5.65344">
<ele>367.1</ele>
<time>2012-03-24T14:34:45.000Z</time>
</trkpt>
<trkpt lat="43.61937" lon="5.6535">
<ele>367.5</ele>
<time>2012-03-24T14:34:46.000Z</time>
</trkpt>
<trkpt lat="43.61934" lon="5.65359">
<ele>368.4</ele>
<time>2012-03-24T14:34:47.000Z</time>
</trkpt>
<trkpt lat="43.6194" lon="5.65368">
<ele>369.6</ele>
<time>2012-03-24T14:34:48.000Z</time>
</trkpt>
<trkpt lat="43.61937" lon="5.65373">
<ele>370.5</ele>
<time>2012-03-24T14:34:49.000Z</time>
</trkpt>
<trkpt lat="43.61931" lon="5.6538">
<ele>371.1</ele>
<time>2012-03-24T14:34:50.000Z</time>
</trkpt>
<trkpt lat="43.61928" lon="5.65388">
<ele>371.4</ele>
<time>2012-03-24T14:34:51.000Z</time>
</trkpt>
<trkpt lat="43.61924" lon="5.65394">
<ele>371.6</ele>
<time>2012-03-24T14:34:52.000Z</time>
</trkpt>
<trkpt lat="43.61921" lon="5.65402">
<ele>372.2</ele>
<time>2012-03-24T14:34:53.000Z</time>
</trkpt>
<trkpt lat="43.61916" lon="5.65408">
<ele>372.1</ele>
<time>2012-03-24T14:34:54.000Z</time>
</trkpt>
<trkpt lat="43.61913" lon="5.65419">
<ele>371.7</ele>
<time>2012-03-24T14:34:55.000Z</time>
</trkpt>
<trkpt lat="43.6191" lon="5.65425">
<ele>371.1</ele>
<time>2012-03-24T14:34:56.000Z</time>
</trkpt>
<trkpt lat="43.61904" lon="5.65434">
<ele>372.6</ele>
<time>2012-03-24T14:34:58.000Z</time>
</trkpt>
<trkpt lat="43.61901" lon="5.65442">
<ele>373.2</ele>
<time>2012-03-24T14:34:59.000Z</time>
</trkpt>
<trkpt lat="43.61898" lon="5.6545">
<ele>373.2</ele>
<time>2012-03-24T14:35:00.000Z</time>
</trkpt>
<trkpt lat="43.61896" lon="5.65458">
<ele>373.4</ele>
<time>2012-03-24T14:35:01.000Z</time>
</trkpt>
<trkpt lat="43.61895" lon="5.65466">
<ele>372.8</ele>
<time>2012-03-24T14:35:02.000Z</time>
</trkpt>
<trkpt lat="43.61892" lon="5.65475">
<ele>372.5</ele>
<time>2012-03-24T14:35:03.000Z</time>
</trkpt>
<trkpt lat="43.6189" lon="5.65484">
<ele>372.2</ele>
<time>2012-03-24T14:35:04.000Z</time>
</trkpt>
<trkpt lat="43.61887" lon="5.65492">
<ele>372.2</ele>
<time>2012-03-24T14:35:05.000Z</time>
</trkpt>
<trkpt lat="43.61885" lon="5.655">
<ele>371.9</ele>
<time>2012-03-24T14:35:06.000Z</time>
</trkpt>
<trkpt lat="43.61882" lon="5.65508">
<ele>371.6</ele>
<time>2012-03-24T14:35:07.000Z</time>
</trkpt>
<trkpt lat="43.6188" lon="5.65515">
<ele>371.7</ele>
<time>2012-03-24T14:35:08.000Z</time>
</trkpt>
<trkpt lat="43.61878" lon="5.65523">
<ele>371.3</ele>
<time>2012-03-24T14:35:09.000Z</time>
</trkpt>
<trkpt lat="43.61876" lon="5.6553">
<ele>371.6</ele>
<time>2012-03-24T14:35:10.000Z</time>
</trkpt>
<trkpt lat="43.61874" lon="5.65537">
<ele>371.3</ele>
<time>2012-03-24T14:35:11.000Z</time>
</trkpt>
<trkpt lat="43.61871" lon="5.65545">
<ele>371.3</ele>
<time>2012-03-24T14:35:12.000Z</time>
</trkpt>
<trkpt lat="43.61869" lon="5.65552">
<ele>371.2</ele>
<time>2012-03-24T14:35:13.000Z</time>
</trkpt>
<trkpt lat="43.61867" lon="5.6556">
<ele>371.4</ele>
<time>2012-03-24T14:35:14.000Z</time>
</trkpt>
<trkpt lat="43.61864" lon="5.65568">
<ele>371.4</ele>
<time>2012-03-24T14:35:15.000Z</time>
</trkpt>
<trkpt lat="43.61862" lon="5.65575">
<ele>371.5</ele>
<time>2012-03-24T14:35:16.000Z</time>
</trkpt>
<trkpt lat="43.6186" lon="5.65582">
<ele>371.4</ele>
<time>2012-03-24T14:35:17.000Z</time>
</trkpt>
<trkpt lat="43.61858" lon="5.65589">
<ele>371.2</ele>
<time>2012-03-24T14:35:18.000Z</time>
</trkpt>
<trkpt lat="43.61852" lon="5.65596">
<ele>371</ele>
<time>2012-03-24T14:35:19.000Z</time>
</trkpt>
<trkpt lat="43.61848" lon="5.65602">
<ele>370.9</ele>
<time>2012-03-24T14:35:20.000Z</time>
</trkpt>
<trkpt lat="43.61844" lon="5.65608">
<ele>370.5</ele>
<time>2012-03-24T14:35:21.000Z</time>
</trkpt>
<trkpt lat="43.61841" lon="5.65614">
<ele>370.6</ele>
<time>2012-03-24T14:35:22.000Z</time>
</trkpt>
<trkpt lat="43.61836" lon="5.6562">
<ele>370.2</ele>
<time>2012-03-24T14:35:23.000Z</time>
</trkpt>
<trkpt lat="43.61834" lon="5.65626">
<ele>369.5</ele>
<time>2012-03-24T14:35:24.000Z</time>
</trkpt>
<trkpt lat="43.61828" lon="5.65633">
<ele>370</ele>
<time>2012-03-24T14:35:25.000Z</time>
</trkpt>
<trkpt lat="43.61824" lon="5.6564">
<ele>370.1</ele>
<time>2012-03-24T14:35:26.000Z</time>
</trkpt>
<trkpt lat="43.6182" lon="5.65645">
<ele>369.9</ele>
<time>2012-03-24T14:35:27.000Z</time>
</trkpt>
<trkpt lat="43.61816" lon="5.6565">
<ele>369.8</ele>
<time>2012-03-24T14:35:28.000Z</time>
</trkpt>
<trkpt lat="43.61812" lon="5.65656">
<ele>369.7</ele>
<time>2012-03-24T14:35:29.000Z</time>
</trkpt>
<trkpt lat="43.61808" lon="5.65663">
<ele>369.5</ele>
<time>2012-03-24T14:35:30.000Z</time>
</trkpt>
<trkpt lat="43.61803" lon="5.65669">
<ele>369.5</ele>
<time>2012-03-24T14:35:31.000Z</time>
</trkpt>
<trkpt lat="43.61799" lon="5.65675">
<ele>369.6</ele>
<time>2012-03-24T14:35:32.000Z</time>
</trkpt>
<trkpt lat="43.61795" lon="5.65681">
<ele>369.4</ele>
<time>2012-03-24T14:35:33.000Z</time>
</trkpt>
<trkpt lat="43.61791" lon="5.65687">
<ele>369.3</ele>
<time>2012-03-24T14:35:34.000Z</time>
</trkpt>
<trkpt lat="43.61788" lon="5.65692">
<ele>369.2</ele>
<time>2012-03-24T14:35:35.000Z</time>
</trkpt>
<trkpt lat="43.61784" lon="5.65698">
<ele>369.5</ele>
<time>2012-03-24T14:35:36.000Z</time>
</trkpt>
<trkpt lat="43.61778" lon="5.65705">
<ele>369.2</ele>
<time>2012-03-24T14:35:37.000Z</time>
</trkpt>
<trkpt lat="43.61773" lon="5.6571">
<ele>368.8</ele>
<time>2012-03-24T14:35:38.000Z</time>
</trkpt>
<trkpt lat="43.6177" lon="5.65715">
<ele>368.9</ele>
<time>2012-03-24T14:35:39.000Z</time>
</trkpt>
<trkpt lat="43.61764" lon="5.65721">
<ele>368.7</ele>
<time>2012-03-24T14:35:40.000Z</time>
</trkpt>
<trkpt lat="43.61759" lon="5.65725">
<ele>369.5</ele>
<time>2012-03-24T14:35:41.000Z</time>
</trkpt>
<trkpt lat="43.61753" lon="5.6573">
<ele>369.8</ele>
<time>2012-03-24T14:35:42.000Z</time>
</trkpt>
<trkpt lat="43.61748" lon="5.65733">
<ele>369.7</ele>
<time>2012-03-24T14:35:43.000Z</time>
</trkpt>
<trkpt lat="43.61743" lon="5.65737">
<ele>369.7</ele>
<time>2012-03-24T14:35:44.000Z</time>
</trkpt>
<trkpt lat="43.61738" lon="5.65741">
<ele>370.1</ele>
<time>2012-03-24T14:35:45.000Z</time>
</trkpt>
<trkpt lat="43.61732" lon="5.65743">
<ele>369.6</ele>
<time>2012-03-24T14:35:46.000Z</time>
</trkpt>
<trkpt lat="43.61727" lon="5.65746">
<ele>369.3</ele>
<time>2012-03-24T14:35:47.000Z</time>
</trkpt>
<trkpt lat="43.61722" lon="5.65748">
<ele>369.5</ele>
<time>2012-03-24T14:35:48.000Z</time>
</trkpt>
<trkpt lat="43.61716" lon="5.65751">
<ele>369.6</ele>
<time>2012-03-24T14:35:49.000Z</time>
</trkpt>
<trkpt lat="43.61711" lon="5.65753">
<ele>369.7</ele>
<time>2012-03-24T14:35:50.000Z</time>
</trkpt>
<trkpt lat="43.61705" lon="5.65756">
<ele>369.8</ele>
<time>2012-03-24T14:35:51.000Z</time>
</trkpt>
<trkpt lat="43.617" lon="5.65759">
<ele>370.1</ele>
<time>2012-03-24T14:35:52.000Z</time>
</trkpt>
<trkpt lat="43.61694" lon="5.65762">
<ele>370</ele>
<time>2012-03-24T14:35:53.000Z</time>
</trkpt>
<trkpt lat="43.61689" lon="5.65763">
<ele>370.1</ele>
<time>2012-03-24T14:35:54.000Z</time>
</trkpt>
<trkpt lat="43.61683" lon="5.65766">
<ele>370.4</ele>
<time>2012-03-24T14:35:55.000Z</time>
</trkpt>
<trkpt lat="43.61678" lon="5.65769">
<ele>370.6</ele>
<time>2012-03-24T14:35:56.000Z</time>
</trkpt>
<trkpt lat="43.61673" lon="5.65771">
<ele>371</ele>
<time>2012-03-24T14:35:57.000Z</time>
</trkpt>
<trkpt lat="43.61667" lon="5.65774">
<ele>371</ele>
<time>2012-03-24T14:35:58.000Z</time>
</trkpt>
<trkpt lat="43.6166" lon="5.65777">
<ele>375.8</ele>
<time>2012-03-24T14:35:59.000Z</time>
</trkpt>
<trkpt lat="43.61654" lon="5.65778">
<ele>375.3</ele>
<time>2012-03-24T14:36:00.000Z</time>
</trkpt>
<trkpt lat="43.61647" lon="5.6578">
<ele>375.8</ele>
<time>2012-03-24T14:36:01.000Z</time>
</trkpt>
<trkpt lat="43.61641" lon="5.65781">
<ele>375.6</ele>
<time>2012-03-24T14:36:02.000Z</time>
</trkpt>
<trkpt lat="43.61635" lon="5.65783">
<ele>375.8</ele>
<time>2012-03-24T14:36:03.000Z</time>
</trkpt>
<trkpt lat="43.61629" lon="5.65785">
<ele>376.2</ele>
<time>2012-03-24T14:36:04.000Z</time>
</trkpt>
<trkpt lat="43.61624" lon="5.65787">
<ele>376.3</ele>
<time>2012-03-24T14:36:05.000Z</time>
</trkpt>
<trkpt lat="43.61618" lon="5.6579">
<ele>376.4</ele>
<time>2012-03-24T14:36:06.000Z</time>
</trkpt>
<trkpt lat="43.61613" lon="5.65791">
<ele>376.4</ele>
<time>2012-03-24T14:36:07.000Z</time>
</trkpt>
<trkpt lat="43.61607" lon="5.65793">
<ele>376.3</ele>
<time>2012-03-24T14:36:08.000Z</time>
</trkpt>
<trkpt lat="43.61602" lon="5.65795">
<ele>375.9</ele>
<time>2012-03-24T14:36:09.000Z</time>
</trkpt>
<trkpt lat="43.61597" lon="5.65797">
<ele>375.7</ele>
<time>2012-03-24T14:36:10.000Z</time>
</trkpt>
<trkpt lat="43.61592" lon="5.658">
<ele>375.8</ele>
<time>2012-03-24T14:36:11.000Z</time>
</trkpt>
<trkpt lat="43.61586" lon="5.65803">
<ele>375.6</ele>
<time>2012-03-24T14:36:12.000Z</time>
</trkpt>
<trkpt lat="43.6158" lon="5.65804">
<ele>375.2</ele>
<time>2012-03-24T14:36:13.000Z</time>
</trkpt>
<trkpt lat="43.61575" lon="5.65807">
<ele>375.7</ele>
<time>2012-03-24T14:36:14.000Z</time>
</trkpt>
<trkpt lat="43.61569" lon="5.65809">
<ele>375.7</ele>
<time>2012-03-24T14:36:15.000Z</time>
</trkpt>
<trkpt lat="43.61564" lon="5.65812">
<ele>374.5</ele>
<time>2012-03-24T14:36:16.000Z</time>
</trkpt>
<trkpt lat="43.61558" lon="5.65814">
<ele>374.7</ele>
<time>2012-03-24T14:36:17.000Z</time>
</trkpt>
<trkpt lat="43.61553" lon="5.65816">
<ele>374.8</ele>
<time>2012-03-24T14:36:18.000Z</time>
</trkpt>
<trkpt lat="43.61547" lon="5.65818">
<ele>374.9</ele>
<time>2012-03-24T14:36:19.000Z</time>
</trkpt>
<trkpt lat="43.61542" lon="5.65821">
<ele>375.2</ele>
<time>2012-03-24T14:36:20.000Z</time>
</trkpt>
<trkpt lat="43.61536" lon="5.65823">
<ele>374.9</ele>
<time>2012-03-24T14:36:21.000Z</time>
</trkpt>
<trkpt lat="43.61531" lon="5.65824">
<ele>374.9</ele>
<time>2012-03-24T14:36:22.000Z</time>
</trkpt>
<trkpt lat="43.61526" lon="5.65825">
<ele>374.9</ele>
<time>2012-03-24T14:36:23.000Z</time>
</trkpt>
<trkpt lat="43.6152" lon="5.65826">
<ele>375.2</ele>
<time>2012-03-24T14:36:24.000Z</time>
</trkpt>
<trkpt lat="43.61514" lon="5.65826">
<ele>375</ele>
<time>2012-03-24T14:36:25.000Z</time>
</trkpt>
<trkpt lat="43.61509" lon="5.65826">
<ele>375.3</ele>
<time>2012-03-24T14:36:26.000Z</time>
</trkpt>
<trkpt lat="43.61503" lon="5.65825">
<ele>375.5</ele>
<time>2012-03-24T14:36:27.000Z</time>
</trkpt>
<trkpt lat="43.61498" lon="5.65824">
<ele>375.4</ele>
<time>2012-03-24T14:36:28.000Z</time>
</trkpt>
<trkpt lat="43.61492" lon="5.65823">
<ele>376</ele>
<time>2012-03-24T14:36:29.000Z</time>
</trkpt>
<trkpt lat="43.61486" lon="5.65822">
<ele>376.3</ele>
<time>2012-03-24T14:36:30.000Z</time>
</trkpt>
<trkpt lat="43.6148" lon="5.65821">
<ele>376.4</ele>
<time>2012-03-24T14:36:31.000Z</time>
</trkpt>
<trkpt lat="43.61474" lon="5.6582">
<ele>376.9</ele>
<time>2012-03-24T14:36:32.000Z</time>
</trkpt>
<trkpt lat="43.61468" lon="5.6582">
<ele>376.9</ele>
<time>2012-03-24T14:36:33.000Z</time>
</trkpt>
<trkpt lat="43.61462" lon="5.65818">
<ele>377.3</ele>
<time>2012-03-24T14:36:34.000Z</time>
</trkpt>
<trkpt lat="43.61455" lon="5.65816">
<ele>377.9</ele>
<time>2012-03-24T14:36:35.000Z</time>
</trkpt>
<trkpt lat="43.61449" lon="5.65815">
<ele>377.7</ele>
<time>2012-03-24T14:36:36.000Z</time>
</trkpt>
<trkpt lat="43.61443" lon="5.65814">
<ele>377.5</ele>
<time>2012-03-24T14:36:37.000Z</time>
</trkpt>
<trkpt lat="43.61436" lon="5.65814">
<ele>377.7</ele>
<time>2012-03-24T14:36:38.000Z</time>
</trkpt>
<trkpt lat="43.6143" lon="5.65812">
<ele>377.5</ele>
<time>2012-03-24T14:36:39.000Z</time>
</trkpt>
<trkpt lat="43.61424" lon="5.65811">
<ele>377.3</ele>
<time>2012-03-24T14:36:40.000Z</time>
</trkpt>
<trkpt lat="43.61418" lon="5.65811">
<ele>377.2</ele>
<time>2012-03-24T14:36:41.000Z</time>
</trkpt>
<trkpt lat="43.61411" lon="5.65811">
<ele>376.9</ele>
<time>2012-03-24T14:36:42.000Z</time>
</trkpt>
<trkpt lat="43.61405" lon="5.65811">
<ele>376.6</ele>
<time>2012-03-24T14:36:43.000Z</time>
</trkpt>
<trkpt lat="43.61399" lon="5.65812">
<ele>376.2</ele>
<time>2012-03-24T14:36:44.000Z</time>
</trkpt>
<trkpt lat="43.61392" lon="5.65814">
<ele>376.4</ele>
<time>2012-03-24T14:36:45.000Z</time>
</trkpt>
<trkpt lat="43.61387" lon="5.65817">
<ele>376.8</ele>
<time>2012-03-24T14:36:46.000Z</time>
</trkpt>
<trkpt lat="43.61381" lon="5.6582">
<ele>376.9</ele>
<time>2012-03-24T14:36:47.000Z</time>
</trkpt>
<trkpt lat="43.61375" lon="5.65824">
<ele>376.4</ele>
<time>2012-03-24T14:36:48.000Z</time>
</trkpt>
<trkpt lat="43.61369" lon="5.65827">
<ele>376.1</ele>
<time>2012-03-24T14:36:49.000Z</time>
</trkpt>
<trkpt lat="43.61365" lon="5.65832">
<ele>375.9</ele>
<time>2012-03-24T14:36:50.000Z</time>
</trkpt>
<trkpt lat="43.6136" lon="5.65837">
<ele>375.9</ele>
<time>2012-03-24T14:36:51.000Z</time>
</trkpt>
<trkpt lat="43.61356" lon="5.65842">
<ele>375.6</ele>
<time>2012-03-24T14:36:52.000Z</time>
</trkpt>
<trkpt lat="43.61351" lon="5.65847">
<ele>375.7</ele>
<time>2012-03-24T14:36:53.000Z</time>
</trkpt>
<trkpt lat="43.61348" lon="5.65852">
<ele>375.4</ele>
<time>2012-03-24T14:36:54.000Z</time>
</trkpt>
<trkpt lat="43.61342" lon="5.65858">
<ele>375.4</ele>
<time>2012-03-24T14:36:55.000Z</time>
</trkpt>
<trkpt lat="43.61337" lon="5.65864">
<ele>375.1</ele>
<time>2012-03-24T14:36:56.000Z</time>
</trkpt>
<trkpt lat="43.61331" lon="5.6587">
<ele>375.3</ele>
<time>2012-03-24T14:36:57.000Z</time>
</trkpt>
<trkpt lat="43.61325" lon="5.65875">
<ele>375.5</ele>
<time>2012-03-24T14:36:58.000Z</time>
</trkpt>
<trkpt lat="43.61321" lon="5.65879">
<ele>375.5</ele>
<time>2012-03-24T14:36:59.000Z</time>
</trkpt>
<trkpt lat="43.61316" lon="5.65884">
<ele>375.5</ele>
<time>2012-03-24T14:37:00.000Z</time>
</trkpt>
<trkpt lat="43.61311" lon="5.65889">
<ele>375.6</ele>
<time>2012-03-24T14:37:01.000Z</time>
</trkpt>
<trkpt lat="43.61306" lon="5.65895">
<ele>375.5</ele>
<time>2012-03-24T14:37:02.000Z</time>
</trkpt>
<trkpt lat="43.613" lon="5.65901">
<ele>375.4</ele>
<time>2012-03-24T14:37:03.000Z</time>
</trkpt>
<trkpt lat="43.61292" lon="5.65906">
<ele>375.5</ele>
<time>2012-03-24T14:37:04.000Z</time>
</trkpt>
<trkpt lat="43.61286" lon="5.65911">
<ele>375.7</ele>
<time>2012-03-24T14:37:05.000Z</time>
</trkpt>
<trkpt lat="43.61278" lon="5.65916">
<ele>375.8</ele>
<time>2012-03-24T14:37:06.000Z</time>
</trkpt>
<trkpt lat="43.6127" lon="5.65921">
<ele>376</ele>
<time>2012-03-24T14:37:07.000Z</time>
</trkpt>
<trkpt lat="43.61263" lon="5.65924">
<ele>375.7</ele>
<time>2012-03-24T14:37:08.000Z</time>
</trkpt>
<trkpt lat="43.61254" lon="5.65926">
<ele>374.1</ele>
<time>2012-03-24T14:37:09.000Z</time>
</trkpt>
<trkpt lat="43.61246" lon="5.65929">
<ele>373.7</ele>
<time>2012-03-24T14:37:10.000Z</time>
</trkpt>
<trkpt lat="43.61238" lon="5.65933">
<ele>373.6</ele>
<time>2012-03-24T14:37:11.000Z</time>
</trkpt>
<trkpt lat="43.61231" lon="5.65937">
<ele>373</ele>
<time>2012-03-24T14:37:12.000Z</time>
</trkpt>
<trkpt lat="43.61224" lon="5.6594">
<ele>372.6</ele>
<time>2012-03-24T14:37:13.000Z</time>
</trkpt>
<trkpt lat="43.61216" lon="5.65944">
<ele>372.7</ele>
<time>2012-03-24T14:37:14.000Z</time>
</trkpt>
<trkpt lat="43.61209" lon="5.65949">
<ele>373.1</ele>
<time>2012-03-24T14:37:15.000Z</time>
</trkpt>
<trkpt lat="43.612" lon="5.65953">
<ele>372.7</ele>
<time>2012-03-24T14:37:16.000Z</time>
</trkpt>
<trkpt lat="43.6119" lon="5.65957">
<ele>372.4</ele>
<time>2012-03-24T14:37:17.000Z</time>
</trkpt>
<trkpt lat="43.61182" lon="5.6596">
<ele>372.7</ele>
<time>2012-03-24T14:37:18.000Z</time>
</trkpt>
<trkpt lat="43.61175" lon="5.65964">
<ele>372.2</ele>
<time>2012-03-24T14:37:19.000Z</time>
</trkpt>
<trkpt lat="43.61166" lon="5.65969">
<ele>372.1</ele>
<time>2012-03-24T14:37:20.000Z</time>
</trkpt>
<trkpt lat="43.61158" lon="5.65971">
<ele>371.8</ele>
<time>2012-03-24T14:37:21.000Z</time>
</trkpt>
<trkpt lat="43.61148" lon="5.65975">
<ele>371.5</ele>
<time>2012-03-24T14:37:22.000Z</time>
</trkpt>
<trkpt lat="43.61141" lon="5.65979">
<ele>371</ele>
<time>2012-03-24T14:37:23.000Z</time>
</trkpt>
<trkpt lat="43.61133" lon="5.65984">
<ele>370.1</ele>
<time>2012-03-24T14:37:24.000Z</time>
</trkpt>
<trkpt lat="43.61122" lon="5.65987">
<ele>370.4</ele>
<time>2012-03-24T14:37:25.000Z</time>
</trkpt>
<trkpt lat="43.61113" lon="5.6599">
<ele>369.8</ele>
<time>2012-03-24T14:37:26.000Z</time>
</trkpt>
<trkpt lat="43.61104" lon="5.65993">
<ele>369.2</ele>
<time>2012-03-24T14:37:27.000Z</time>
</trkpt>
<trkpt lat="43.61094" lon="5.65993">
<ele>368.4</ele>
<time>2012-03-24T14:37:28.000Z</time>
</trkpt>
<trkpt lat="43.61086" lon="5.65994">
<ele>368.1</ele>
<time>2012-03-24T14:37:29.000Z</time>
</trkpt>
<trkpt lat="43.61077" lon="5.65995">
<ele>367.7</ele>
<time>2012-03-24T14:37:30.000Z</time>
</trkpt>
<trkpt lat="43.61069" lon="5.65995">
<ele>367.6</ele>
<time>2012-03-24T14:37:31.000Z</time>
</trkpt>
<trkpt lat="43.6106" lon="5.65994">
<ele>367.5</ele>
<time>2012-03-24T14:37:32.000Z</time>
</trkpt>
<trkpt lat="43.61052" lon="5.65993">
<ele>367.6</ele>
<time>2012-03-24T14:37:33.000Z</time>
</trkpt>
<trkpt lat="43.61044" lon="5.65993">
<ele>368</ele>
<time>2012-03-24T14:37:34.000Z</time>
</trkpt>
<trkpt lat="43.61036" lon="5.65992">
<ele>368</ele>
<time>2012-03-24T14:37:35.000Z</time>
</trkpt>
<trkpt lat="43.61028" lon="5.65991">
<ele>367.9</ele>
<time>2012-03-24T14:37:36.000Z</time>
</trkpt>
<trkpt lat="43.61021" lon="5.6599">
<ele>368.1</ele>
<time>2012-03-24T14:37:37.000Z</time>
</trkpt>
<trkpt lat="43.61013" lon="5.65989">
<ele>368</ele>
<time>2012-03-24T14:37:38.000Z</time>
</trkpt>
<trkpt lat="43.61005" lon="5.65989">
<ele>368.2</ele>
<time>2012-03-24T14:37:39.000Z</time>
</trkpt>
<trkpt lat="43.60998" lon="5.65989">
<ele>368.1</ele>
<time>2012-03-24T14:37:40.000Z</time>
</trkpt>
<trkpt lat="43.6099" lon="5.65989">
<ele>368.5</ele>
<time>2012-03-24T14:37:41.000Z</time>
</trkpt>
<trkpt lat="43.60982" lon="5.65989">
<ele>368.3</ele>
<time>2012-03-24T14:37:42.000Z</time>
</trkpt>
<trkpt lat="43.60974" lon="5.65989">
<ele>368.7</ele>
<time>2012-03-24T14:37:43.000Z</time>
</trkpt>
<trkpt lat="43.60966" lon="5.65989">
<ele>368.4</ele>
<time>2012-03-24T14:37:44.000Z</time>
</trkpt>
<trkpt lat="43.60958" lon="5.65992">
<ele>368.6</ele>
<time>2012-03-24T14:37:45.000Z</time>
</trkpt>
<trkpt lat="43.60951" lon="5.65994">
<ele>368.9</ele>
<time>2012-03-24T14:37:46.000Z</time>
</trkpt>
<trkpt lat="43.60943" lon="5.65997">
<ele>368.5</ele>
<time>2012-03-24T14:37:47.000Z</time>
</trkpt>
<trkpt lat="43.60936" lon="5.66001">
<ele>368.6</ele>
<time>2012-03-24T14:37:48.000Z</time>
</trkpt>
<trkpt lat="43.60928" lon="5.66005">
<ele>368.7</ele>
<time>2012-03-24T14:37:49.000Z</time>
</trkpt>
<trkpt lat="43.60919" lon="5.6601">
<ele>368.6</ele>
<time>2012-03-24T14:37:50.000Z</time>
</trkpt>
<trkpt lat="43.60913" lon="5.66013">
<ele>368.7</ele>
<time>2012-03-24T14:37:51.000Z</time>
</trkpt>
<trkpt lat="43.60905" lon="5.66016">
<ele>368.9</ele>
<time>2012-03-24T14:37:52.000Z</time>
</trkpt>
<trkpt lat="43.609" lon="5.66019">
<ele>369</ele>
<time>2012-03-24T14:37:53.000Z</time>
</trkpt>
<trkpt lat="43.60894" lon="5.66024">
<ele>369</ele>
<time>2012-03-24T14:37:54.000Z</time>
</trkpt>
<trkpt lat="43.60888" lon="5.66028">
<ele>369</ele>
<time>2012-03-24T14:37:55.000Z</time>
</trkpt>
<trkpt lat="43.60882" lon="5.66034">
<ele>368.8</ele>
<time>2012-03-24T14:37:56.000Z</time>
</trkpt>
<trkpt lat="43.60876" lon="5.6604">
<ele>368.9</ele>
<time>2012-03-24T14:37:57.000Z</time>
</trkpt>
<trkpt lat="43.60872" lon="5.66045">
<ele>368.8</ele>
<time>2012-03-24T14:37:58.000Z</time>
</trkpt>
<trkpt lat="43.60865" lon="5.6605">
<ele>368.6</ele>
<time>2012-03-24T14:37:59.000Z</time>
</trkpt>
<trkpt lat="43.6086" lon="5.66053">
<ele>368.5</ele>
<time>2012-03-24T14:38:00.000Z</time>
</trkpt>
<trkpt lat="43.60854" lon="5.66056">
<ele>368.1</ele>
<time>2012-03-24T14:38:01.000Z</time>
</trkpt>
<trkpt lat="43.60848" lon="5.6606">
<ele>368.3</ele>
<time>2012-03-24T14:38:02.000Z</time>
</trkpt>
<trkpt lat="43.60841" lon="5.66066">
<ele>368.3</ele>
<time>2012-03-24T14:38:03.000Z</time>
</trkpt>
<trkpt lat="43.60834" lon="5.6607">
<ele>368.2</ele>
<time>2012-03-24T14:38:04.000Z</time>
</trkpt>
<trkpt lat="43.60828" lon="5.66073">
<ele>368.5</ele>
<time>2012-03-24T14:38:05.000Z</time>
</trkpt>
<trkpt lat="43.60824" lon="5.66077">
<ele>368.8</ele>
<time>2012-03-24T14:38:06.000Z</time>
</trkpt>
<trkpt lat="43.60816" lon="5.6608">
<ele>368.3</ele>
<time>2012-03-24T14:38:07.000Z</time>
</trkpt>
<trkpt lat="43.6081" lon="5.66081">
<ele>368.8</ele>
<time>2012-03-24T14:38:08.000Z</time>
</trkpt>
<trkpt lat="43.60803" lon="5.6608">
<ele>369</ele>
<time>2012-03-24T14:38:09.000Z</time>
</trkpt>
<trkpt lat="43.60796" lon="5.66077">
<ele>369.7</ele>
<time>2012-03-24T14:38:10.000Z</time>
</trkpt>
<trkpt lat="43.60789" lon="5.66074">
<ele>370</ele>
<time>2012-03-24T14:38:11.000Z</time>
</trkpt>
<trkpt lat="43.60784" lon="5.6607">
<ele>370.9</ele>
<time>2012-03-24T14:38:12.000Z</time>
</trkpt>
<trkpt lat="43.6078" lon="5.66065">
<ele>372.9</ele>
<time>2012-03-24T14:38:13.000Z</time>
</trkpt>
<trkpt lat="43.60776" lon="5.66061">
<ele>373</ele>
<time>2012-03-24T14:38:14.000Z</time>
</trkpt>
<trkpt lat="43.60772" lon="5.66055">
<ele>373.4</ele>
<time>2012-03-24T14:38:15.000Z</time>
</trkpt>
<trkpt lat="43.60767" lon="5.66049">
<ele>372.8</ele>
<time>2012-03-24T14:38:16.000Z</time>
</trkpt>
<trkpt lat="43.60764" lon="5.66044">
<ele>372.7</ele>
<time>2012-03-24T14:38:17.000Z</time>
</trkpt>
<trkpt lat="43.60759" lon="5.66034">
<ele>373</ele>
<time>2012-03-24T14:38:19.000Z</time>
</trkpt>
<trkpt lat="43.60755" lon="5.66028">
<ele>372.8</ele>
<time>2012-03-24T14:38:20.000Z</time>
</trkpt>
<trkpt lat="43.60752" lon="5.66022">
<ele>372.6</ele>
<time>2012-03-24T14:38:21.000Z</time>
</trkpt>
<trkpt lat="43.60748" lon="5.6601">
<ele>372.6</ele>
<time>2012-03-24T14:38:23.000Z</time>
</trkpt>
<trkpt lat="43.60745" lon="5.66004">
<ele>372.7</ele>
<time>2012-03-24T14:38:24.000Z</time>
</trkpt>
<trkpt lat="43.60741" lon="5.66001">
<ele>373.4</ele>
<time>2012-03-24T14:38:25.000Z</time>
</trkpt>
<trkpt lat="43.60737" lon="5.65993">
<ele>373.9</ele>
<time>2012-03-24T14:38:26.000Z</time>
</trkpt>
<trkpt lat="43.60733" lon="5.65989">
<ele>374.9</ele>
<time>2012-03-24T14:38:27.000Z</time>
</trkpt>
<trkpt lat="43.60729" lon="5.65981">
<ele>375.1</ele>
<time>2012-03-24T14:38:28.000Z</time>
</trkpt>
<trkpt lat="43.60726" lon="5.65974">
<ele>375</ele>
<time>2012-03-24T14:38:29.000Z</time>
</trkpt>
<trkpt lat="43.60721" lon="5.65968">
<ele>375.4</ele>
<time>2012-03-24T14:38:30.000Z</time>
</trkpt>
<trkpt lat="43.60717" lon="5.65963">
<ele>375.4</ele>
<time>2012-03-24T14:38:31.000Z</time>
</trkpt>
<trkpt lat="43.60713" lon="5.6596">
<ele>376.4</ele>
<time>2012-03-24T14:38:32.000Z</time>
</trkpt>
<trkpt lat="43.6071" lon="5.65953">
<ele>376.6</ele>
<time>2012-03-24T14:38:33.000Z</time>
</trkpt>
<trkpt lat="43.60704" lon="5.65943">
<ele>377.7</ele>
<time>2012-03-24T14:38:35.000Z</time>
</trkpt>
<trkpt lat="43.607" lon="5.65936">
<ele>377.6</ele>
<time>2012-03-24T14:38:36.000Z</time>
</trkpt>
<trkpt lat="43.60696" lon="5.65932">
<ele>377.9</ele>
<time>2012-03-24T14:38:37.000Z</time>
</trkpt>
<trkpt lat="43.60693" lon="5.65925">
<ele>378.1</ele>
<time>2012-03-24T14:38:38.000Z</time>
</trkpt>
<trkpt lat="43.60686" lon="5.65913">
<ele>378.5</ele>
<time>2012-03-24T14:38:40.000Z</time>
</trkpt>
<trkpt lat="43.60684" lon="5.65908">
<ele>379.2</ele>
<time>2012-03-24T14:38:41.000Z</time>
</trkpt>
<trkpt lat="43.6068" lon="5.65901">
<ele>379.7</ele>
<time>2012-03-24T14:38:42.000Z</time>
</trkpt>
<trkpt lat="43.60676" lon="5.65894">
<ele>380.6</ele>
<time>2012-03-24T14:38:43.000Z</time>
</trkpt>
<trkpt lat="43.60674" lon="5.65888">
<ele>381.2</ele>
<time>2012-03-24T14:38:44.000Z</time>
</trkpt>
<trkpt lat="43.60668" lon="5.65877">
<ele>382.5</ele>
<time>2012-03-24T14:38:46.000Z</time>
</trkpt>
<trkpt lat="43.60665" lon="5.65869">
<ele>383.2</ele>
<time>2012-03-24T14:38:47.000Z</time>
</trkpt>
<trkpt lat="43.60661" lon="5.65857">
<ele>383.4</ele>
<time>2012-03-24T14:38:49.000Z</time>
</trkpt>
<trkpt lat="43.6066" lon="5.65846">
<ele>383.2</ele>
<time>2012-03-24T14:38:50.000Z</time>
</trkpt>
<trkpt lat="43.60655" lon="5.6583">
<ele>384.3</ele>
<time>2012-03-24T14:38:52.000Z</time>
</trkpt>
<trkpt lat="43.60651" lon="5.6584">
<ele>384.9</ele>
<time>2012-03-24T14:38:54.000Z</time>
</trkpt>
<trkpt lat="43.60639" lon="5.6583">
<ele>385.2</ele>
<time>2012-03-24T14:38:55.000Z</time>
</trkpt>
<trkpt lat="43.60636" lon="5.65814">
<ele>385.8</ele>
<time>2012-03-24T14:38:56.000Z</time>
</trkpt>
<trkpt lat="43.60631" lon="5.65804">
<ele>385.4</ele>
<time>2012-03-24T14:38:57.000Z</time>
</trkpt>
<trkpt lat="43.60628" lon="5.65795">
<ele>385.3</ele>
<time>2012-03-24T14:38:58.000Z</time>
</trkpt>
<trkpt lat="43.60625" lon="5.65787">
<ele>385.3</ele>
<time>2012-03-24T14:38:59.000Z</time>
</trkpt>
<trkpt lat="43.60622" lon="5.65779">
<ele>385.3</ele>
<time>2012-03-24T14:39:00.000Z</time>
</trkpt>
<trkpt lat="43.6062" lon="5.6577">
<ele>385.1</ele>
<time>2012-03-24T14:39:01.000Z</time>
</trkpt>
<trkpt lat="43.60617" lon="5.65762">
<ele>385.3</ele>
<time>2012-03-24T14:39:02.000Z</time>
</trkpt>
<trkpt lat="43.60613" lon="5.6575">
<ele>385.1</ele>
<time>2012-03-24T14:39:03.000Z</time>
</trkpt>
<trkpt lat="43.60613" lon="5.6574">
<ele>385.7</ele>
<time>2012-03-24T14:39:04.000Z</time>
</trkpt>
<trkpt lat="43.60617" lon="5.65711">
<ele>385.7</ele>
<time>2012-03-24T14:39:05.000Z</time>
</trkpt>
<trkpt lat="43.60624" lon="5.65685">
<ele>385.1</ele>
<time>2012-03-24T14:39:06.000Z</time>
</trkpt>
<trkpt lat="43.60617" lon="5.65686">
<ele>383.5</ele>
<time>2012-03-24T14:39:09.000Z</time>
</trkpt>
<trkpt lat="43.60611" lon="5.65686">
<ele>382.5</ele>
<time>2012-03-24T14:39:11.000Z</time>
</trkpt>
<trkpt lat="43.60608" lon="5.65677">
<ele>382.3</ele>
<time>2012-03-24T14:39:13.000Z</time>
</trkpt>
<trkpt lat="43.60606" lon="5.6567">
<ele>382.5</ele>
<time>2012-03-24T14:39:14.000Z</time>
</trkpt>
<trkpt lat="43.60603" lon="5.6566">
<ele>383.8</ele>
<time>2012-03-24T14:39:16.000Z</time>
</trkpt>
<trkpt lat="43.60601" lon="5.65652">
<ele>384</ele>
<time>2012-03-24T14:39:17.000Z</time>
</trkpt>
<trkpt lat="43.60596" lon="5.65642">
<ele>384.2</ele>
<time>2012-03-24T14:39:19.000Z</time>
</trkpt>
<trkpt lat="43.60596" lon="5.65634">
<ele>384.5</ele>
<time>2012-03-24T14:39:20.000Z</time>
</trkpt>
<trkpt lat="43.60591" lon="5.65624">
<ele>385.7</ele>
<time>2012-03-24T14:39:22.000Z</time>
</trkpt>
<trkpt lat="43.60589" lon="5.65618">
<ele>385.9</ele>
<time>2012-03-24T14:39:23.000Z</time>
</trkpt>
<trkpt lat="43.60586" lon="5.65612">
<ele>385.6</ele>
<time>2012-03-24T14:39:24.000Z</time>
</trkpt>
<trkpt lat="43.60581" lon="5.65605">
<ele>386</ele>
<time>2012-03-24T14:39:25.000Z</time>
</trkpt>
<trkpt lat="43.60578" lon="5.65598">
<ele>386.7</ele>
<time>2012-03-24T14:39:26.000Z</time>
</trkpt>
<trkpt lat="43.60573" lon="5.65593">
<ele>387</ele>
<time>2012-03-24T14:39:27.000Z</time>
</trkpt>
<trkpt lat="43.60569" lon="5.65589">
<ele>387.7</ele>
<time>2012-03-24T14:39:28.000Z</time>
</trkpt>
<trkpt lat="43.60565" lon="5.65586">
<ele>387.6</ele>
<time>2012-03-24T14:39:29.000Z</time>
</trkpt>
<trkpt lat="43.60559" lon="5.65583">
<ele>388.2</ele>
<time>2012-03-24T14:39:30.000Z</time>
</trkpt>
<trkpt lat="43.60554" lon="5.65576">
<ele>390.6</ele>
<time>2012-03-24T14:39:32.000Z</time>
</trkpt>
<trkpt lat="43.60548" lon="5.65582">
<ele>391</ele>
<time>2012-03-24T14:39:33.000Z</time>
</trkpt>
<trkpt lat="43.60543" lon="5.6558">
<ele>396.4</ele>
<time>2012-03-24T14:39:34.000Z</time>
</trkpt>
<trkpt lat="43.60538" lon="5.65569">
<ele>396.2</ele>
<time>2012-03-24T14:39:35.000Z</time>
</trkpt>
<trkpt lat="43.60533" lon="5.65566">
<ele>397.5</ele>
<time>2012-03-24T14:39:36.000Z</time>
</trkpt>
<trkpt lat="43.60529" lon="5.65558">
<ele>397.6</ele>
<time>2012-03-24T14:39:37.000Z</time>
</trkpt>
<trkpt lat="43.60526" lon="5.65553">
<ele>398.1</ele>
<time>2012-03-24T14:39:38.000Z</time>
</trkpt>
<trkpt lat="43.60522" lon="5.65547">
<ele>397.5</ele>
<time>2012-03-24T14:39:39.000Z</time>
</trkpt>
<trkpt lat="43.60518" lon="5.65542">
<ele>397</ele>
<time>2012-03-24T14:39:40.000Z</time>
</trkpt>
<trkpt lat="43.60512" lon="5.65533">
<ele>398.7</ele>
<time>2012-03-24T14:39:42.000Z</time>
</trkpt>
<trkpt lat="43.60508" lon="5.65528">
<ele>399.1</ele>
<time>2012-03-24T14:39:43.000Z</time>
</trkpt>
<trkpt lat="43.60502" lon="5.65518">
<ele>399.7</ele>
<time>2012-03-24T14:39:45.000Z</time>
</trkpt>
<trkpt lat="43.60495" lon="5.65511">
<ele>400.7</ele>
<time>2012-03-24T14:39:47.000Z</time>
</trkpt>
<trkpt lat="43.6049" lon="5.65504">
<ele>402.1</ele>
<time>2012-03-24T14:39:48.000Z</time>
</trkpt>
<trkpt lat="43.6048" lon="5.65518">
<ele>403.8</ele>
<time>2012-03-24T14:39:49.000Z</time>
</trkpt>
<trkpt lat="43.60481" lon="5.65494">
<ele>404.6</ele>
<time>2012-03-24T14:39:51.000Z</time>
</trkpt>
<trkpt lat="43.6048" lon="5.65487">
<ele>404.6</ele>
<time>2012-03-24T14:39:52.000Z</time>
</trkpt>
<trkpt lat="43.60474" lon="5.65482">
<ele>404.4</ele>
<time>2012-03-24T14:39:53.000Z</time>
</trkpt>
<trkpt lat="43.60472" lon="5.65475">
<ele>403.7</ele>
<time>2012-03-24T14:39:54.000Z</time>
</trkpt>
<trkpt lat="43.6047" lon="5.65469">
<ele>403.9</ele>
<time>2012-03-24T14:39:55.000Z</time>
</trkpt>
<trkpt lat="43.60466" lon="5.65462">
<ele>403.8</ele>
<time>2012-03-24T14:39:56.000Z</time>
</trkpt>
<trkpt lat="43.6046" lon="5.65457">
<ele>403</ele>
<time>2012-03-24T14:39:58.000Z</time>
</trkpt>
<trkpt lat="43.60455" lon="5.65445">
<ele>407.6</ele>
<time>2012-03-24T14:39:59.000Z</time>
</trkpt>
<trkpt lat="43.60454" lon="5.65436">
<ele>407.5</ele>
<time>2012-03-24T14:40:00.000Z</time>
</trkpt>
<trkpt lat="43.60452" lon="5.6543">
<ele>407.8</ele>
<time>2012-03-24T14:40:01.000Z</time>
</trkpt>
<trkpt lat="43.60451" lon="5.65423">
<ele>408</ele>
<time>2012-03-24T14:40:02.000Z</time>
</trkpt>
<trkpt lat="43.60449" lon="5.65416">
<ele>407.7</ele>
<time>2012-03-24T14:40:03.000Z</time>
</trkpt>
<trkpt lat="43.60447" lon="5.65409">
<ele>408</ele>
<time>2012-03-24T14:40:04.000Z</time>
</trkpt>
<trkpt lat="43.60446" lon="5.65402">
<ele>408.5</ele>
<time>2012-03-24T14:40:05.000Z</time>
</trkpt>
<trkpt lat="43.60445" lon="5.65388">
<ele>409.1</ele>
<time>2012-03-24T14:40:07.000Z</time>
</trkpt>
<trkpt lat="43.60444" lon="5.6538">
<ele>408.8</ele>
<time>2012-03-24T14:40:08.000Z</time>
</trkpt>
<trkpt lat="43.60444" lon="5.65372">
<ele>408.1</ele>
<time>2012-03-24T14:40:09.000Z</time>
</trkpt>
<trkpt lat="43.60443" lon="5.65365">
<ele>408.4</ele>
<time>2012-03-24T14:40:10.000Z</time>
</trkpt>
<trkpt lat="43.60442" lon="5.65358">
<ele>408.8</ele>
<time>2012-03-24T14:40:11.000Z</time>
</trkpt>
<trkpt lat="43.6044" lon="5.65352">
<ele>409.6</ele>
<time>2012-03-24T14:40:12.000Z</time>
</trkpt>
<trkpt lat="43.6044" lon="5.65344">
<ele>410</ele>
<time>2012-03-24T14:40:13.000Z</time>
</trkpt>
<trkpt lat="43.6044" lon="5.65335">
<ele>409.3</ele>
<time>2012-03-24T14:40:14.000Z</time>
</trkpt>
<trkpt lat="43.6044" lon="5.65325">
<ele>408.9</ele>
<time>2012-03-24T14:40:15.000Z</time>
</trkpt>
<trkpt lat="43.60439" lon="5.65316">
<ele>408.6</ele>
<time>2012-03-24T14:40:16.000Z</time>
</trkpt>
<trkpt lat="43.60439" lon="5.65309">
<ele>408.7</ele>
<time>2012-03-24T14:40:17.000Z</time>
</trkpt>
<trkpt lat="43.60438" lon="5.65303">
<ele>409</ele>
<time>2012-03-24T14:40:18.000Z</time>
</trkpt>
<trkpt lat="43.60438" lon="5.65295">
<ele>409.6</ele>
<time>2012-03-24T14:40:19.000Z</time>
</trkpt>
<trkpt lat="43.60437" lon="5.65281">
<ele>408.4</ele>
<time>2012-03-24T14:40:21.000Z</time>
</trkpt>
<trkpt lat="43.60436" lon="5.65274">
<ele>409</ele>
<time>2012-03-24T14:40:22.000Z</time>
</trkpt>
<trkpt lat="43.60436" lon="5.65267">
<ele>408.6</ele>
<time>2012-03-24T14:40:23.000Z</time>
</trkpt>
<trkpt lat="43.60436" lon="5.6526">
<ele>409</ele>
<time>2012-03-24T14:40:24.000Z</time>
</trkpt>
<trkpt lat="43.60436" lon="5.65252">
<ele>409.2</ele>
<time>2012-03-24T14:40:25.000Z</time>
</trkpt>
<trkpt lat="43.60435" lon="5.65246">
<ele>409.6</ele>
<time>2012-03-24T14:40:26.000Z</time>
</trkpt>
<trkpt lat="43.60435" lon="5.65239">
<ele>409.7</ele>
<time>2012-03-24T14:40:27.000Z</time>
</trkpt>
<trkpt lat="43.60434" lon="5.65232">
<ele>409.6</ele>
<time>2012-03-24T14:40:28.000Z</time>
</trkpt>
<trkpt lat="43.60433" lon="5.65225">
<ele>409.6</ele>
<time>2012-03-24T14:40:29.000Z</time>
</trkpt>
<trkpt lat="43.60432" lon="5.65217">
<ele>410</ele>
<time>2012-03-24T14:40:30.000Z</time>
</trkpt>
<trkpt lat="43.60432" lon="5.65211">
<ele>409.3</ele>
<time>2012-03-24T14:40:31.000Z</time>
</trkpt>
<trkpt lat="43.60431" lon="5.65204">
<ele>408.9</ele>
<time>2012-03-24T14:40:32.000Z</time>
</trkpt>
<trkpt lat="43.60431" lon="5.65197">
<ele>408.8</ele>
<time>2012-03-24T14:40:33.000Z</time>
</trkpt>
<trkpt lat="43.6043" lon="5.6519">
<ele>408.3</ele>
<time>2012-03-24T14:40:34.000Z</time>
</trkpt>
<trkpt lat="43.6043" lon="5.65183">
<ele>408.2</ele>
<time>2012-03-24T14:40:35.000Z</time>
</trkpt>
<trkpt lat="43.6043" lon="5.65175">
<ele>408.2</ele>
<time>2012-03-24T14:40:36.000Z</time>
</trkpt>
<trkpt lat="43.60429" lon="5.65168">
<ele>408.4</ele>
<time>2012-03-24T14:40:37.000Z</time>
</trkpt>
<trkpt lat="43.60428" lon="5.65162">
<ele>408.2</ele>
<time>2012-03-24T14:40:38.000Z</time>
</trkpt>
<trkpt lat="43.60428" lon="5.65156">
<ele>408.3</ele>
<time>2012-03-24T14:40:39.000Z</time>
</trkpt>
<trkpt lat="43.60427" lon="5.65149">
<ele>408.6</ele>
<time>2012-03-24T14:40:40.000Z</time>
</trkpt>
<trkpt lat="43.60426" lon="5.65142">
<ele>408.8</ele>
<time>2012-03-24T14:40:41.000Z</time>
</trkpt>
<trkpt lat="43.60423" lon="5.65132">
<ele>409.6</ele>
<time>2012-03-24T14:40:43.000Z</time>
</trkpt>
<trkpt lat="43.60421" lon="5.65119">
<ele>409.5</ele>
<time>2012-03-24T14:40:45.000Z</time>
</trkpt>
<trkpt lat="43.60419" lon="5.65112">
<ele>409.5</ele>
<time>2012-03-24T14:40:46.000Z</time>
</trkpt>
<trkpt lat="43.60418" lon="5.65105">
<ele>410.1</ele>
<time>2012-03-24T14:40:47.000Z</time>
</trkpt>
<trkpt lat="43.60418" lon="5.65099">
<ele>410.2</ele>
<time>2012-03-24T14:40:48.000Z</time>
</trkpt>
<trkpt lat="43.60416" lon="5.65086">
<ele>410.3</ele>
<time>2012-03-24T14:40:50.000Z</time>
</trkpt>
<trkpt lat="43.60415" lon="5.65077">
<ele>410.3</ele>
<time>2012-03-24T14:40:51.000Z</time>
</trkpt>
<trkpt lat="43.60413" lon="5.6507">
<ele>410.1</ele>
<time>2012-03-24T14:40:52.000Z</time>
</trkpt>
<trkpt lat="43.60411" lon="5.6506">
<ele>409.6</ele>
<time>2012-03-24T14:40:53.000Z</time>
</trkpt>
<trkpt lat="43.6041" lon="5.65051">
<ele>408.6</ele>
<time>2012-03-24T14:40:54.000Z</time>
</trkpt>
<trkpt lat="43.60409" lon="5.65043">
<ele>408.6</ele>
<time>2012-03-24T14:40:55.000Z</time>
</trkpt>
<trkpt lat="43.60407" lon="5.65036">
<ele>408.3</ele>
<time>2012-03-24T14:40:56.000Z</time>
</trkpt>
<trkpt lat="43.60402" lon="5.65022">
<ele>408.8</ele>
<time>2012-03-24T14:40:58.000Z</time>
</trkpt>
<trkpt lat="43.60402" lon="5.65015">
<ele>409.2</ele>
<time>2012-03-24T14:40:59.000Z</time>
</trkpt>
<trkpt lat="43.604" lon="5.65004">
<ele>409.7</ele>
<time>2012-03-24T14:41:01.000Z</time>
</trkpt>
<trkpt lat="43.60399" lon="5.64997">
<ele>410</ele>
<time>2012-03-24T14:41:02.000Z</time>
</trkpt>
<trkpt lat="43.60399" lon="5.64989">
<ele>410.2</ele>
<time>2012-03-24T14:41:03.000Z</time>
</trkpt>
<trkpt lat="43.60397" lon="5.64981">
<ele>410.4</ele>
<time>2012-03-24T14:41:04.000Z</time>
</trkpt>
<trkpt lat="43.60396" lon="5.64974">
<ele>410.7</ele>
<time>2012-03-24T14:41:05.000Z</time>
</trkpt>
<trkpt lat="43.60396" lon="5.64966">
<ele>410.8</ele>
<time>2012-03-24T14:41:06.000Z</time>
</trkpt>
<trkpt lat="43.60395" lon="5.64958">
<ele>411.4</ele>
<time>2012-03-24T14:41:07.000Z</time>
</trkpt>
<trkpt lat="43.60394" lon="5.64949">
<ele>412.1</ele>
<time>2012-03-24T14:41:08.000Z</time>
</trkpt>
<trkpt lat="43.60392" lon="5.64942">
<ele>412.4</ele>
<time>2012-03-24T14:41:09.000Z</time>
</trkpt>
<trkpt lat="43.60391" lon="5.64935">
<ele>412</ele>
<time>2012-03-24T14:41:10.000Z</time>
</trkpt>
<trkpt lat="43.60391" lon="5.64927">
<ele>412.2</ele>
<time>2012-03-24T14:41:11.000Z</time>
</trkpt>
<trkpt lat="43.6039" lon="5.64919">
<ele>412.1</ele>
<time>2012-03-24T14:41:12.000Z</time>
</trkpt>
<trkpt lat="43.60389" lon="5.64912">
<ele>411.6</ele>
<time>2012-03-24T14:41:13.000Z</time>
</trkpt>
<trkpt lat="43.60387" lon="5.64904">
<ele>411.3</ele>
<time>2012-03-24T14:41:14.000Z</time>
</trkpt>
<trkpt lat="43.60386" lon="5.64896">
<ele>412</ele>
<time>2012-03-24T14:41:15.000Z</time>
</trkpt>
<trkpt lat="43.60385" lon="5.64888">
<ele>412.1</ele>
<time>2012-03-24T14:41:16.000Z</time>
</trkpt>
<trkpt lat="43.60385" lon="5.64879">
<ele>412.2</ele>
<time>2012-03-24T14:41:17.000Z</time>
</trkpt>
<trkpt lat="43.60384" lon="5.64872">
<ele>412.2</ele>
<time>2012-03-24T14:41:18.000Z</time>
</trkpt>
<trkpt lat="43.60383" lon="5.64864">
<ele>412.1</ele>
<time>2012-03-24T14:41:19.000Z</time>
</trkpt>
<trkpt lat="43.60382" lon="5.64858">
<ele>412.9</ele>
<time>2012-03-24T14:41:20.000Z</time>
</trkpt>
<trkpt lat="43.60381" lon="5.6485">
<ele>413.4</ele>
<time>2012-03-24T14:41:21.000Z</time>
</trkpt>
<trkpt lat="43.6038" lon="5.64842">
<ele>413.7</ele>
<time>2012-03-24T14:41:22.000Z</time>
</trkpt>
<trkpt lat="43.60381" lon="5.64834">
<ele>413.8</ele>
<time>2012-03-24T14:41:23.000Z</time>
</trkpt>
<trkpt lat="43.60381" lon="5.64826">
<ele>414.4</ele>
<time>2012-03-24T14:41:24.000Z</time>
</trkpt>
<trkpt lat="43.6038" lon="5.64816">
<ele>414.8</ele>
<time>2012-03-24T14:41:25.000Z</time>
</trkpt>
<trkpt lat="43.60381" lon="5.6481">
<ele>415.3</ele>
<time>2012-03-24T14:41:26.000Z</time>
</trkpt>
<trkpt lat="43.60381" lon="5.64802">
<ele>415.5</ele>
<time>2012-03-24T14:41:27.000Z</time>
</trkpt>
<trkpt lat="43.60382" lon="5.64795">
<ele>415.8</ele>
<time>2012-03-24T14:41:28.000Z</time>
</trkpt>
<trkpt lat="43.60383" lon="5.64786">
<ele>416</ele>
<time>2012-03-24T14:41:29.000Z</time>
</trkpt>
<trkpt lat="43.60384" lon="5.6478">
<ele>416.3</ele>
<time>2012-03-24T14:41:30.000Z</time>
</trkpt>
<trkpt lat="43.60383" lon="5.64772">
<ele>416.1</ele>
<time>2012-03-24T14:41:31.000Z</time>
</trkpt>
<trkpt lat="43.60384" lon="5.64764">
<ele>416</ele>
<time>2012-03-24T14:41:32.000Z</time>
</trkpt>
<trkpt lat="43.60384" lon="5.64757">
<ele>415.7</ele>
<time>2012-03-24T14:41:33.000Z</time>
</trkpt>
<trkpt lat="43.60384" lon="5.6475">
<ele>416.2</ele>
<time>2012-03-24T14:41:34.000Z</time>
</trkpt>
<trkpt lat="43.60385" lon="5.64743">
<ele>416.5</ele>
<time>2012-03-24T14:41:35.000Z</time>
</trkpt>
<trkpt lat="43.60385" lon="5.64733">
<ele>416.9</ele>
<time>2012-03-24T14:41:36.000Z</time>
</trkpt>
<trkpt lat="43.60384" lon="5.64724">
<ele>417</ele>
<time>2012-03-24T14:41:37.000Z</time>
</trkpt>
<trkpt lat="43.60382" lon="5.64716">
<ele>417.6</ele>
<time>2012-03-24T14:41:38.000Z</time>
</trkpt>
<trkpt lat="43.60381" lon="5.64709">
<ele>418.2</ele>
<time>2012-03-24T14:41:39.000Z</time>
</trkpt>
<trkpt lat="43.60379" lon="5.64702">
<ele>418.4</ele>
<time>2012-03-24T14:41:40.000Z</time>
</trkpt>
<trkpt lat="43.60377" lon="5.64696">
<ele>418.1</ele>
<time>2012-03-24T14:41:41.000Z</time>
</trkpt>
<trkpt lat="43.60374" lon="5.64689">
<ele>418.3</ele>
<time>2012-03-24T14:41:42.000Z</time>
</trkpt>
<trkpt lat="43.6037" lon="5.64683">
<ele>418.1</ele>
<time>2012-03-24T14:41:43.000Z</time>
</trkpt>
<trkpt lat="43.60367" lon="5.64677">
<ele>417.7</ele>
<time>2012-03-24T14:41:44.000Z</time>
</trkpt>
<trkpt lat="43.60363" lon="5.64672">
<ele>418.2</ele>
<time>2012-03-24T14:41:45.000Z</time>
</trkpt>
<trkpt lat="43.60358" lon="5.64666">
<ele>419.4</ele>
<time>2012-03-24T14:41:46.000Z</time>
</trkpt>
<trkpt lat="43.60355" lon="5.64661">
<ele>419.3</ele>
<time>2012-03-24T14:41:47.000Z</time>
</trkpt>
<trkpt lat="43.6035" lon="5.64658">
<ele>419</ele>
<time>2012-03-24T14:41:48.000Z</time>
</trkpt>
<trkpt lat="43.60345" lon="5.64653">
<ele>417.8</ele>
<time>2012-03-24T14:41:49.000Z</time>
</trkpt>
<trkpt lat="43.6034" lon="5.6465">
<ele>418</ele>
<time>2012-03-24T14:41:50.000Z</time>
</trkpt>
<trkpt lat="43.60334" lon="5.64647">
<ele>418.3</ele>
<time>2012-03-24T14:41:51.000Z</time>
</trkpt>
<trkpt lat="43.6033" lon="5.64644">
<ele>418.2</ele>
<time>2012-03-24T14:41:52.000Z</time>
</trkpt>
<trkpt lat="43.60324" lon="5.64642">
<ele>418.1</ele>
<time>2012-03-24T14:41:53.000Z</time>
</trkpt>
<trkpt lat="43.6032" lon="5.6464">
<ele>418.2</ele>
<time>2012-03-24T14:41:54.000Z</time>
</trkpt>
<trkpt lat="43.60314" lon="5.64639">
<ele>417.4</ele>
<time>2012-03-24T14:41:55.000Z</time>
</trkpt>
<trkpt lat="43.60308" lon="5.64637">
<ele>417.3</ele>
<time>2012-03-24T14:41:56.000Z</time>
</trkpt>
<trkpt lat="43.60303" lon="5.64636">
<ele>417.1</ele>
<time>2012-03-24T14:41:57.000Z</time>
</trkpt>
<trkpt lat="43.60297" lon="5.64637">
<ele>417</ele>
<time>2012-03-24T14:41:58.000Z</time>
</trkpt>
<trkpt lat="43.60291" lon="5.64639">
<ele>417.2</ele>
<time>2012-03-24T14:41:59.000Z</time>
</trkpt>
<trkpt lat="43.60286" lon="5.6464">
<ele>416.6</ele>
<time>2012-03-24T14:42:00.000Z</time>
</trkpt>
<trkpt lat="43.6028" lon="5.64642">
<ele>416.7</ele>
<time>2012-03-24T14:42:01.000Z</time>
</trkpt>
<trkpt lat="43.60275" lon="5.64646">
<ele>417.1</ele>
<time>2012-03-24T14:42:02.000Z</time>
</trkpt>
<trkpt lat="43.6027" lon="5.64649">
<ele>417.7</ele>
<time>2012-03-24T14:42:03.000Z</time>
</trkpt>
<trkpt lat="43.60265" lon="5.64652">
<ele>418.1</ele>
<time>2012-03-24T14:42:04.000Z</time>
</trkpt>
<trkpt lat="43.6026" lon="5.64656">
<ele>418</ele>
<time>2012-03-24T14:42:05.000Z</time>
</trkpt>
<trkpt lat="43.60256" lon="5.64659">
<ele>418.2</ele>
<time>2012-03-24T14:42:06.000Z</time>
</trkpt>
<trkpt lat="43.60252" lon="5.64664">
<ele>418.1</ele>
<time>2012-03-24T14:42:07.000Z</time>
</trkpt>
<trkpt lat="43.60243" lon="5.64672">
<ele>418.2</ele>
<time>2012-03-24T14:42:09.000Z</time>
</trkpt>
<trkpt lat="43.60239" lon="5.64676">
<ele>418.1</ele>
<time>2012-03-24T14:42:10.000Z</time>
</trkpt>
<trkpt lat="43.60236" lon="5.64681">
<ele>418</ele>
<time>2012-03-24T14:42:11.000Z</time>
</trkpt>
<trkpt lat="43.60231" lon="5.64685">
<ele>418.1</ele>
<time>2012-03-24T14:42:12.000Z</time>
</trkpt>
<trkpt lat="43.60223" lon="5.64692">
<ele>418.1</ele>
<time>2012-03-24T14:42:14.000Z</time>
</trkpt>
<trkpt lat="43.6022" lon="5.64698">
<ele>417.8</ele>
<time>2012-03-24T14:42:15.000Z</time>
</trkpt>
<trkpt lat="43.60214" lon="5.64702">
<ele>417.7</ele>
<time>2012-03-24T14:42:16.000Z</time>
</trkpt>
<trkpt lat="43.60209" lon="5.64707">
<ele>418.1</ele>
<time>2012-03-24T14:42:17.000Z</time>
</trkpt>
<trkpt lat="43.60204" lon="5.6471">
<ele>418</ele>
<time>2012-03-24T14:42:18.000Z</time>
</trkpt>
<trkpt lat="43.60199" lon="5.64714">
<ele>418.5</ele>
<time>2012-03-24T14:42:19.000Z</time>
</trkpt>
<trkpt lat="43.60193" lon="5.64717">
<ele>418.6</ele>
<time>2012-03-24T14:42:20.000Z</time>
</trkpt>
<trkpt lat="43.60188" lon="5.64722">
<ele>418.5</ele>
<time>2012-03-24T14:42:21.000Z</time>
</trkpt>
<trkpt lat="43.60184" lon="5.64725">
<ele>419.1</ele>
<time>2012-03-24T14:42:22.000Z</time>
</trkpt>
<trkpt lat="43.60179" lon="5.6473">
<ele>419</ele>
<time>2012-03-24T14:42:23.000Z</time>
</trkpt>
<trkpt lat="43.60171" lon="5.64737">
<ele>420.1</ele>
<time>2012-03-24T14:42:25.000Z</time>
</trkpt>
<trkpt lat="43.60165" lon="5.64739">
<ele>420.8</ele>
<time>2012-03-24T14:42:26.000Z</time>
</trkpt>
<trkpt lat="43.6016" lon="5.64742">
<ele>420.8</ele>
<time>2012-03-24T14:42:27.000Z</time>
</trkpt>
<trkpt lat="43.60155" lon="5.64745">
<ele>421.2</ele>
<time>2012-03-24T14:42:28.000Z</time>
</trkpt>
<trkpt lat="43.60149" lon="5.64747">
<ele>421.7</ele>
<time>2012-03-24T14:42:29.000Z</time>
</trkpt>
<trkpt lat="43.60144" lon="5.6475">
<ele>419.6</ele>
<time>2012-03-24T14:42:30.000Z</time>
</trkpt>
<trkpt lat="43.60139" lon="5.64752">
<ele>419.2</ele>
<time>2012-03-24T14:42:31.000Z</time>
</trkpt>
<trkpt lat="43.60133" lon="5.64757">
<ele>419.1</ele>
<time>2012-03-24T14:42:32.000Z</time>
</trkpt>
<trkpt lat="43.60127" lon="5.6476">
<ele>419.5</ele>
<time>2012-03-24T14:42:33.000Z</time>
</trkpt>
<trkpt lat="43.60122" lon="5.64763">
<ele>419.9</ele>
<time>2012-03-24T14:42:34.000Z</time>
</trkpt>
<trkpt lat="43.60117" lon="5.64764">
<ele>420.8</ele>
<time>2012-03-24T14:42:35.000Z</time>
</trkpt>
<trkpt lat="43.60111" lon="5.64766">
<ele>421.2</ele>
<time>2012-03-24T14:42:36.000Z</time>
</trkpt>
<trkpt lat="43.60105" lon="5.64768">
<ele>421.5</ele>
<time>2012-03-24T14:42:37.000Z</time>
</trkpt>
<trkpt lat="43.60099" lon="5.64768">
<ele>422.3</ele>
<time>2012-03-24T14:42:38.000Z</time>
</trkpt>
<trkpt lat="43.60093" lon="5.64768">
<ele>423.8</ele>
<time>2012-03-24T14:42:39.000Z</time>
</trkpt>
<trkpt lat="43.60088" lon="5.64768">
<ele>423.1</ele>
<time>2012-03-24T14:42:40.000Z</time>
</trkpt>
<trkpt lat="43.60084" lon="5.64766">
<ele>423.5</ele>
<time>2012-03-24T14:42:41.000Z</time>
</trkpt>
<trkpt lat="43.6008" lon="5.64763">
<ele>423.6</ele>
<time>2012-03-24T14:42:42.000Z</time>
</trkpt>
<trkpt lat="43.60076" lon="5.64758">
<ele>424.2</ele>
<time>2012-03-24T14:42:43.000Z</time>
</trkpt>
<trkpt lat="43.60071" lon="5.64752">
<ele>425.4</ele>
<time>2012-03-24T14:42:44.000Z</time>
</trkpt>
<trkpt lat="43.60067" lon="5.64748">
<ele>426.3</ele>
<time>2012-03-24T14:42:45.000Z</time>
</trkpt>
<trkpt lat="43.60063" lon="5.64744">
<ele>426.6</ele>
<time>2012-03-24T14:42:46.000Z</time>
</trkpt>
<trkpt lat="43.60059" lon="5.64739">
<ele>427.4</ele>
<time>2012-03-24T14:42:47.000Z</time>
</trkpt>
<trkpt lat="43.60056" lon="5.64734">
<ele>427.3</ele>
<time>2012-03-24T14:42:48.000Z</time>
</trkpt>
<trkpt lat="43.60052" lon="5.64728">
<ele>427.4</ele>
<time>2012-03-24T14:42:49.000Z</time>
</trkpt>
<trkpt lat="43.60048" lon="5.64722">
<ele>427</ele>
<time>2012-03-24T14:42:50.000Z</time>
</trkpt>
<trkpt lat="43.60044" lon="5.64718">
<ele>427.3</ele>
<time>2012-03-24T14:42:51.000Z</time>
</trkpt>
<trkpt lat="43.6004" lon="5.64712">
<ele>427.6</ele>
<time>2012-03-24T14:42:52.000Z</time>
</trkpt>
<trkpt lat="43.60036" lon="5.64708">
<ele>427.5</ele>
<time>2012-03-24T14:42:53.000Z</time>
</trkpt>
<trkpt lat="43.60032" lon="5.64702">
<ele>427.6</ele>
<time>2012-03-24T14:42:54.000Z</time>
</trkpt>
<trkpt lat="43.60026" lon="5.64699">
<ele>427.9</ele>
<time>2012-03-24T14:42:55.000Z</time>
</trkpt>
<trkpt lat="43.60022" lon="5.64696">
<ele>428.2</ele>
<time>2012-03-24T14:42:56.000Z</time>
</trkpt>
<trkpt lat="43.60014" lon="5.64693">
<ele>428.9</ele>
<time>2012-03-24T14:42:58.000Z</time>
</trkpt>
<trkpt lat="43.60005" lon="5.64693">
<ele>429.1</ele>
<time>2012-03-24T14:43:00.000Z</time>
</trkpt>
<trkpt lat="43.59996" lon="5.64694">
<ele>429.6</ele>
<time>2012-03-24T14:43:02.000Z</time>
</trkpt>
<trkpt lat="43.59986" lon="5.64694">
<ele>430</ele>
<time>2012-03-24T14:43:04.000Z</time>
</trkpt>
<trkpt lat="43.5998" lon="5.64694">
<ele>430.6</ele>
<time>2012-03-24T14:43:05.000Z</time>
</trkpt>
<trkpt lat="43.59974" lon="5.64695">
<ele>430.2</ele>
<time>2012-03-24T14:43:06.000Z</time>
</trkpt>
<trkpt lat="43.59969" lon="5.64696">
<ele>430.3</ele>
<time>2012-03-24T14:43:07.000Z</time>
</trkpt>
<trkpt lat="43.59963" lon="5.64698">
<ele>430.5</ele>
<time>2012-03-24T14:43:08.000Z</time>
</trkpt>
<trkpt lat="43.59958" lon="5.64698">
<ele>431</ele>
<time>2012-03-24T14:43:09.000Z</time>
</trkpt>
<trkpt lat="43.59952" lon="5.64698">
<ele>431.4</ele>
<time>2012-03-24T14:43:10.000Z</time>
</trkpt>
<trkpt lat="43.59942" lon="5.647">
<ele>431.6</ele>
<time>2012-03-24T14:43:12.000Z</time>
</trkpt>
<trkpt lat="43.59932" lon="5.64701">
<ele>431.3</ele>
<time>2012-03-24T14:43:14.000Z</time>
</trkpt>
<trkpt lat="43.59927" lon="5.64701">
<ele>431.7</ele>
<time>2012-03-24T14:43:15.000Z</time>
</trkpt>
<trkpt lat="43.59922" lon="5.64701">
<ele>431.9</ele>
<time>2012-03-24T14:43:16.000Z</time>
</trkpt>
<trkpt lat="43.59915" lon="5.64701">
<ele>432.4</ele>
<time>2012-03-24T14:43:17.000Z</time>
</trkpt>
<trkpt lat="43.5991" lon="5.64701">
<ele>432.7</ele>
<time>2012-03-24T14:43:18.000Z</time>
</trkpt>
<trkpt lat="43.59905" lon="5.64701">
<ele>432.5</ele>
<time>2012-03-24T14:43:19.000Z</time>
</trkpt>
<trkpt lat="43.59898" lon="5.64703">
<ele>432.5</ele>
<time>2012-03-24T14:43:20.000Z</time>
</trkpt>
<trkpt lat="43.59892" lon="5.64701">
<ele>432.6</ele>
<time>2012-03-24T14:43:21.000Z</time>
</trkpt>
<trkpt lat="43.59886" lon="5.647">
<ele>433.3</ele>
<time>2012-03-24T14:43:22.000Z</time>
</trkpt>
<trkpt lat="43.59881" lon="5.64698">
<ele>433.7</ele>
<time>2012-03-24T14:43:23.000Z</time>
</trkpt>
<trkpt lat="43.59875" lon="5.64696">
<ele>433.4</ele>
<time>2012-03-24T14:43:24.000Z</time>
</trkpt>
<trkpt lat="43.5987" lon="5.6469">
<ele>434.4</ele>
<time>2012-03-24T14:43:25.000Z</time>
</trkpt>
<trkpt lat="43.59866" lon="5.64686">
<ele>434.7</ele>
<time>2012-03-24T14:43:26.000Z</time>
</trkpt>
<trkpt lat="43.59861" lon="5.64681">
<ele>435.2</ele>
<time>2012-03-24T14:43:27.000Z</time>
</trkpt>
<trkpt lat="43.59857" lon="5.64675">
<ele>435.2</ele>
<time>2012-03-24T14:43:28.000Z</time>
</trkpt>
<trkpt lat="43.59855" lon="5.64669">
<ele>435.7</ele>
<time>2012-03-24T14:43:29.000Z</time>
</trkpt>
<trkpt lat="43.59854" lon="5.6466">
<ele>436.2</ele>
<time>2012-03-24T14:43:30.000Z</time>
</trkpt>
<trkpt lat="43.59851" lon="5.64651">
<ele>436.8</ele>
<time>2012-03-24T14:43:31.000Z</time>
</trkpt>
<trkpt lat="43.59849" lon="5.64644">
<ele>436.8</ele>
<time>2012-03-24T14:43:32.000Z</time>
</trkpt>
<trkpt lat="43.5985" lon="5.64635">
<ele>437.1</ele>
<time>2012-03-24T14:43:33.000Z</time>
</trkpt>
<trkpt lat="43.5985" lon="5.64627">
<ele>437.2</ele>
<time>2012-03-24T14:43:34.000Z</time>
</trkpt>
<trkpt lat="43.59851" lon="5.6462">
<ele>437.4</ele>
<time>2012-03-24T14:43:35.000Z</time>
</trkpt>
<trkpt lat="43.59854" lon="5.64612">
<ele>437.8</ele>
<time>2012-03-24T14:43:36.000Z</time>
</trkpt>
<trkpt lat="43.59858" lon="5.64606">
<ele>437.9</ele>
<time>2012-03-24T14:43:37.000Z</time>
</trkpt>
<trkpt lat="43.59861" lon="5.64598">
<ele>438</ele>
<time>2012-03-24T14:43:38.000Z</time>
</trkpt>
<trkpt lat="43.59865" lon="5.64592">
<ele>438.9</ele>
<time>2012-03-24T14:43:39.000Z</time>
</trkpt>
<trkpt lat="43.59869" lon="5.64586">
<ele>438.7</ele>
<time>2012-03-24T14:43:40.000Z</time>
</trkpt>
<trkpt lat="43.59873" lon="5.64579">
<ele>438.6</ele>
<time>2012-03-24T14:43:41.000Z</time>
</trkpt>
<trkpt lat="43.59878" lon="5.64573">
<ele>438.6</ele>
<time>2012-03-24T14:43:42.000Z</time>
</trkpt>
<trkpt lat="43.59883" lon="5.64567">
<ele>439.1</ele>
<time>2012-03-24T14:43:43.000Z</time>
</trkpt>
<trkpt lat="43.59886" lon="5.64561">
<ele>439.7</ele>
<time>2012-03-24T14:43:44.000Z</time>
</trkpt>
<trkpt lat="43.59891" lon="5.64555">
<ele>439.9</ele>
<time>2012-03-24T14:43:45.000Z</time>
</trkpt>
<trkpt lat="43.59898" lon="5.64547">
<ele>440.4</ele>
<time>2012-03-24T14:43:46.000Z</time>
</trkpt>
<trkpt lat="43.59904" lon="5.6454">
<ele>440.1</ele>
<time>2012-03-24T14:43:47.000Z</time>
</trkpt>
<trkpt lat="43.59906" lon="5.6453">
<ele>440.2</ele>
<time>2012-03-24T14:43:48.000Z</time>
</trkpt>
<trkpt lat="43.5991" lon="5.6452">
<ele>440.4</ele>
<time>2012-03-24T14:43:49.000Z</time>
</trkpt>
<trkpt lat="43.59915" lon="5.64513">
<ele>440.9</ele>
<time>2012-03-24T14:43:50.000Z</time>
</trkpt>
<trkpt lat="43.59922" lon="5.64504">
<ele>441.6</ele>
<time>2012-03-24T14:43:51.000Z</time>
</trkpt>
<trkpt lat="43.59914" lon="5.64494">
<ele>442.2</ele>
<time>2012-03-24T14:43:53.000Z</time>
</trkpt>
<trkpt lat="43.59899" lon="5.64492">
<ele>441.3</ele>
<time>2012-03-24T14:43:54.000Z</time>
</trkpt>
<trkpt lat="43.59889" lon="5.64486">
<ele>441.3</ele>
<time>2012-03-24T14:43:55.000Z</time>
</trkpt>
<trkpt lat="43.5988" lon="5.64486">
<ele>441.3</ele>
<time>2012-03-24T14:43:56.000Z</time>
</trkpt>
<trkpt lat="43.59865" lon="5.64507">
<ele>443.2</ele>
<time>2012-03-24T14:43:57.000Z</time>
</trkpt>
<trkpt lat="43.59857" lon="5.64507">
<ele>443.4</ele>
<time>2012-03-24T14:43:58.000Z</time>
</trkpt>
<trkpt lat="43.59848" lon="5.64508">
<ele>443.2</ele>
<time>2012-03-24T14:43:59.000Z</time>
</trkpt>
<trkpt lat="43.59838" lon="5.64508">
<ele>443.3</ele>
<time>2012-03-24T14:44:00.000Z</time>
</trkpt>
<trkpt lat="43.59829" lon="5.6451">
<ele>443.2</ele>
<time>2012-03-24T14:44:01.000Z</time>
</trkpt>
<trkpt lat="43.59821" lon="5.64514">
<ele>443.8</ele>
<time>2012-03-24T14:44:02.000Z</time>
</trkpt>
<trkpt lat="43.59812" lon="5.6452">
<ele>444.6</ele>
<time>2012-03-24T14:44:03.000Z</time>
</trkpt>
<trkpt lat="43.598" lon="5.64529">
<ele>447</ele>
<time>2012-03-24T14:44:04.000Z</time>
</trkpt>
<trkpt lat="43.59792" lon="5.64541">
<ele>449.4</ele>
<time>2012-03-24T14:44:05.000Z</time>
</trkpt>
<trkpt lat="43.59788" lon="5.64526">
<ele>446.7</ele>
<time>2012-03-24T14:44:06.000Z</time>
</trkpt>
<trkpt lat="43.59782" lon="5.64524">
<ele>445.7</ele>
<time>2012-03-24T14:44:07.000Z</time>
</trkpt>
<trkpt lat="43.59774" lon="5.64526">
<ele>445.2</ele>
<time>2012-03-24T14:44:08.000Z</time>
</trkpt>
<trkpt lat="43.59766" lon="5.64528">
<ele>444.3</ele>
<time>2012-03-24T14:44:09.000Z</time>
</trkpt>
<trkpt lat="43.59758" lon="5.64529">
<ele>445.2</ele>
<time>2012-03-24T14:44:10.000Z</time>
</trkpt>
<trkpt lat="43.59749" lon="5.64532">
<ele>445.1</ele>
<time>2012-03-24T14:44:11.000Z</time>
</trkpt>
<trkpt lat="43.59742" lon="5.64533">
<ele>445.2</ele>
<time>2012-03-24T14:44:12.000Z</time>
</trkpt>
<trkpt lat="43.59735" lon="5.64532">
<ele>444.4</ele>
<time>2012-03-24T14:44:13.000Z</time>
</trkpt>
<trkpt lat="43.59729" lon="5.64525">
<ele>442.9</ele>
<time>2012-03-24T14:44:14.000Z</time>
</trkpt>
<trkpt lat="43.5972" lon="5.64531">
<ele>441.7</ele>
<time>2012-03-24T14:44:15.000Z</time>
</trkpt>
<trkpt lat="43.59711" lon="5.64532">
<ele>441.1</ele>
<time>2012-03-24T14:44:16.000Z</time>
</trkpt>
<trkpt lat="43.59704" lon="5.64536">
<ele>440.3</ele>
<time>2012-03-24T14:44:17.000Z</time>
</trkpt>
<trkpt lat="43.59695" lon="5.64539">
<ele>439.8</ele>
<time>2012-03-24T14:44:18.000Z</time>
</trkpt>
<trkpt lat="43.59688" lon="5.64543">
<ele>439.1</ele>
<time>2012-03-24T14:44:19.000Z</time>
</trkpt>
<trkpt lat="43.59683" lon="5.64537">
<ele>439</ele>
<time>2012-03-24T14:44:20.000Z</time>
</trkpt>
<trkpt lat="43.59676" lon="5.64541">
<ele>438.6</ele>
<time>2012-03-24T14:44:21.000Z</time>
</trkpt>
<trkpt lat="43.59666" lon="5.64541">
<ele>439</ele>
<time>2012-03-24T14:44:22.000Z</time>
</trkpt>
<trkpt lat="43.59659" lon="5.64522">
<ele>439.2</ele>
<time>2012-03-24T14:44:23.000Z</time>
</trkpt>
<trkpt lat="43.59652" lon="5.64516">
<ele>442.5</ele>
<time>2012-03-24T14:44:24.000Z</time>
</trkpt>
<trkpt lat="43.59645" lon="5.64508">
<ele>441.8</ele>
<time>2012-03-24T14:44:25.000Z</time>
</trkpt>
<trkpt lat="43.59637" lon="5.64499">
<ele>440.8</ele>
<time>2012-03-24T14:44:26.000Z</time>
</trkpt>
<trkpt lat="43.5963" lon="5.64493">
<ele>441.4</ele>
<time>2012-03-24T14:44:27.000Z</time>
</trkpt>
<trkpt lat="43.59623" lon="5.64486">
<ele>441.5</ele>
<time>2012-03-24T14:44:28.000Z</time>
</trkpt>
<trkpt lat="43.59616" lon="5.64482">
<ele>441.7</ele>
<time>2012-03-24T14:44:29.000Z</time>
</trkpt>
<trkpt lat="43.59609" lon="5.64477">
<ele>441.3</ele>
<time>2012-03-24T14:44:30.000Z</time>
</trkpt>
<trkpt lat="43.59602" lon="5.64476">
<ele>441.7</ele>
<time>2012-03-24T14:44:31.000Z</time>
</trkpt>
<trkpt lat="43.59595" lon="5.64478">
<ele>441.7</ele>
<time>2012-03-24T14:44:32.000Z</time>
</trkpt>
<trkpt lat="43.59589" lon="5.64483">
<ele>441.3</ele>
<time>2012-03-24T14:44:33.000Z</time>
</trkpt>
<trkpt lat="43.59582" lon="5.64486">
<ele>441.9</ele>
<time>2012-03-24T14:44:34.000Z</time>
</trkpt>
<trkpt lat="43.59575" lon="5.6449">
<ele>441.5</ele>
<time>2012-03-24T14:44:35.000Z</time>
</trkpt>
<trkpt lat="43.5957" lon="5.64496">
<ele>442.4</ele>
<time>2012-03-24T14:44:36.000Z</time>
</trkpt>
<trkpt lat="43.59562" lon="5.645">
<ele>442.6</ele>
<time>2012-03-24T14:44:37.000Z</time>
</trkpt>
<trkpt lat="43.59553" lon="5.64502">
<ele>441.7</ele>
<time>2012-03-24T14:44:38.000Z</time>
</trkpt>
<trkpt lat="43.59545" lon="5.64503">
<ele>444.7</ele>
<time>2012-03-24T14:44:39.000Z</time>
</trkpt>
<trkpt lat="43.59538" lon="5.64507">
<ele>445.3</ele>
<time>2012-03-24T14:44:40.000Z</time>
</trkpt>
<trkpt lat="43.59532" lon="5.64509">
<ele>444.9</ele>
<time>2012-03-24T14:44:41.000Z</time>
</trkpt>
<trkpt lat="43.59525" lon="5.64511">
<ele>445.3</ele>
<time>2012-03-24T14:44:42.000Z</time>
</trkpt>
<trkpt lat="43.59518" lon="5.64516">
<ele>445.2</ele>
<time>2012-03-24T14:44:43.000Z</time>
</trkpt>
<trkpt lat="43.59512" lon="5.64519">
<ele>445.2</ele>
<time>2012-03-24T14:44:44.000Z</time>
</trkpt>
<trkpt lat="43.59506" lon="5.64524">
<ele>445.4</ele>
<time>2012-03-24T14:44:45.000Z</time>
</trkpt>
<trkpt lat="43.595" lon="5.64528">
<ele>445.9</ele>
<time>2012-03-24T14:44:46.000Z</time>
</trkpt>
<trkpt lat="43.59494" lon="5.6453">
<ele>445.7</ele>
<time>2012-03-24T14:44:47.000Z</time>
</trkpt>
<trkpt lat="43.59487" lon="5.64533">
<ele>445.7</ele>
<time>2012-03-24T14:44:48.000Z</time>
</trkpt>
<trkpt lat="43.59479" lon="5.64536">
<ele>445.4</ele>
<time>2012-03-24T14:44:49.000Z</time>
</trkpt>
<trkpt lat="43.59472" lon="5.6454">
<ele>445.3</ele>
<time>2012-03-24T14:44:50.000Z</time>
</trkpt>
<trkpt lat="43.59464" lon="5.64544">
<ele>444.9</ele>
<time>2012-03-24T14:44:51.000Z</time>
</trkpt>
<trkpt lat="43.59456" lon="5.64547">
<ele>444.9</ele>
<time>2012-03-24T14:44:52.000Z</time>
</trkpt>
<trkpt lat="43.5945" lon="5.64549">
<ele>445.2</ele>
<time>2012-03-24T14:44:53.000Z</time>
</trkpt>
<trkpt lat="43.59443" lon="5.64552">
<ele>445.5</ele>
<time>2012-03-24T14:44:54.000Z</time>
</trkpt>
<trkpt lat="43.59436" lon="5.64554">
<ele>446.1</ele>
<time>2012-03-24T14:44:55.000Z</time>
</trkpt>
<trkpt lat="43.5943" lon="5.64557">
<ele>445.9</ele>
<time>2012-03-24T14:44:56.000Z</time>
</trkpt>
<trkpt lat="43.59424" lon="5.6456">
<ele>446.2</ele>
<time>2012-03-24T14:44:57.000Z</time>
</trkpt>
<trkpt lat="43.59418" lon="5.64562">
<ele>445.9</ele>
<time>2012-03-24T14:44:58.000Z</time>
</trkpt>
<trkpt lat="43.59412" lon="5.64565">
<ele>445.8</ele>
<time>2012-03-24T14:44:59.000Z</time>
</trkpt>
<trkpt lat="43.59406" lon="5.64566">
<ele>446.4</ele>
<time>2012-03-24T14:45:00.000Z</time>
</trkpt>
<trkpt lat="43.594" lon="5.6457">
<ele>446.6</ele>
<time>2012-03-24T14:45:01.000Z</time>
</trkpt>
<trkpt lat="43.59394" lon="5.64572">
<ele>446.6</ele>
<time>2012-03-24T14:45:02.000Z</time>
</trkpt>
<trkpt lat="43.59387" lon="5.64574">
<ele>446</ele>
<time>2012-03-24T14:45:03.000Z</time>
</trkpt>
<trkpt lat="43.59381" lon="5.64576">
<ele>445.5</ele>
<time>2012-03-24T14:45:04.000Z</time>
</trkpt>
<trkpt lat="43.59376" lon="5.64578">
<ele>445.5</ele>
<time>2012-03-24T14:45:05.000Z</time>
</trkpt>
<trkpt lat="43.5937" lon="5.64581">
<ele>445.5</ele>
<time>2012-03-24T14:45:06.000Z</time>
</trkpt>
<trkpt lat="43.59364" lon="5.64583">
<ele>445.9</ele>
<time>2012-03-24T14:45:07.000Z</time>
</trkpt>
<trkpt lat="43.59359" lon="5.64587">
<ele>445.7</ele>
<time>2012-03-24T14:45:08.000Z</time>
</trkpt>
<trkpt lat="43.59353" lon="5.64589">
<ele>445.8</ele>
<time>2012-03-24T14:45:09.000Z</time>
</trkpt>
<trkpt lat="43.59347" lon="5.6459">
<ele>445.6</ele>
<time>2012-03-24T14:45:10.000Z</time>
</trkpt>
<trkpt lat="43.59341" lon="5.64591">
<ele>445.6</ele>
<time>2012-03-24T14:45:11.000Z</time>
</trkpt>
<trkpt lat="43.59336" lon="5.6459">
<ele>445.7</ele>
<time>2012-03-24T14:45:12.000Z</time>
</trkpt>
<trkpt lat="43.5933" lon="5.64588">
<ele>444.9</ele>
<time>2012-03-24T14:45:13.000Z</time>
</trkpt>
<trkpt lat="43.59324" lon="5.64585">
<ele>445.1</ele>
<time>2012-03-24T14:45:14.000Z</time>
</trkpt>
<trkpt lat="43.59319" lon="5.64581">
<ele>444.7</ele>
<time>2012-03-24T14:45:15.000Z</time>
</trkpt>
<trkpt lat="43.59313" lon="5.64575">
<ele>445.1</ele>
<time>2012-03-24T14:45:16.000Z</time>
</trkpt>
<trkpt lat="43.5931" lon="5.64568">
<ele>445.7</ele>
<time>2012-03-24T14:45:17.000Z</time>
</trkpt>
<trkpt lat="43.59306" lon="5.6456">
<ele>445.5</ele>
<time>2012-03-24T14:45:18.000Z</time>
</trkpt>
<trkpt lat="43.59301" lon="5.64554">
<ele>445.4</ele>
<time>2012-03-24T14:45:19.000Z</time>
</trkpt>
<trkpt lat="43.59297" lon="5.64547">
<ele>445.7</ele>
<time>2012-03-24T14:45:20.000Z</time>
</trkpt>
<trkpt lat="43.59293" lon="5.6454">
<ele>445.8</ele>
<time>2012-03-24T14:45:21.000Z</time>
</trkpt>
<trkpt lat="43.59289" lon="5.64533">
<ele>446.2</ele>
<time>2012-03-24T14:45:22.000Z</time>
</trkpt>
<trkpt lat="43.59285" lon="5.64527">
<ele>445.9</ele>
<time>2012-03-24T14:45:23.000Z</time>
</trkpt>
<trkpt lat="43.5928" lon="5.64521">
<ele>445.5</ele>
<time>2012-03-24T14:45:24.000Z</time>
</trkpt>
<trkpt lat="43.59275" lon="5.64516">
<ele>445.5</ele>
<time>2012-03-24T14:45:25.000Z</time>
</trkpt>
<trkpt lat="43.59269" lon="5.64514">
<ele>445.4</ele>
<time>2012-03-24T14:45:26.000Z</time>
</trkpt>
<trkpt lat="43.59262" lon="5.64513">
<ele>445.3</ele>
<time>2012-03-24T14:45:27.000Z</time>
</trkpt>
<trkpt lat="43.59256" lon="5.64513">
<ele>445.4</ele>
<time>2012-03-24T14:45:28.000Z</time>
</trkpt>
<trkpt lat="43.59249" lon="5.64513">
<ele>445.2</ele>
<time>2012-03-24T14:45:29.000Z</time>
</trkpt>
<trkpt lat="43.59242" lon="5.64515">
<ele>445</ele>
<time>2012-03-24T14:45:30.000Z</time>
</trkpt>
<trkpt lat="43.59234" lon="5.64517">
<ele>445.3</ele>
<time>2012-03-24T14:45:31.000Z</time>
</trkpt>
<trkpt lat="43.59227" lon="5.64516">
<ele>445</ele>
<time>2012-03-24T14:45:32.000Z</time>
</trkpt>
<trkpt lat="43.59221" lon="5.64516">
<ele>444.9</ele>
<time>2012-03-24T14:45:33.000Z</time>
</trkpt>
<trkpt lat="43.59214" lon="5.64516">
<ele>444.7</ele>
<time>2012-03-24T14:45:34.000Z</time>
</trkpt>
<trkpt lat="43.59206" lon="5.64517">
<ele>444.9</ele>
<time>2012-03-24T14:45:35.000Z</time>
</trkpt>
<trkpt lat="43.592" lon="5.64516">
<ele>444.6</ele>
<time>2012-03-24T14:45:36.000Z</time>
</trkpt>
<trkpt lat="43.59192" lon="5.64514">
<ele>447</ele>
<time>2012-03-24T14:45:37.000Z</time>
</trkpt>
<trkpt lat="43.59186" lon="5.64511">
<ele>447.3</ele>
<time>2012-03-24T14:45:38.000Z</time>
</trkpt>
<trkpt lat="43.5918" lon="5.64509">
<ele>446.7</ele>
<time>2012-03-24T14:45:39.000Z</time>
</trkpt>
<trkpt lat="43.59175" lon="5.64504">
<ele>446</ele>
<time>2012-03-24T14:45:40.000Z</time>
</trkpt>
<trkpt lat="43.59171" lon="5.64497">
<ele>446</ele>
<time>2012-03-24T14:45:41.000Z</time>
</trkpt>
<trkpt lat="43.59168" lon="5.6449">
<ele>446.2</ele>
<time>2012-03-24T14:45:42.000Z</time>
</trkpt>
<trkpt lat="43.59162" lon="5.64481">
<ele>447</ele>
<time>2012-03-24T14:45:43.000Z</time>
</trkpt>
<trkpt lat="43.59172" lon="5.64475">
<ele>449.2</ele>
<time>2012-03-24T14:45:44.000Z</time>
</trkpt>
<trkpt lat="43.59175" lon="5.64467">
<ele>449</ele>
<time>2012-03-24T14:45:45.000Z</time>
</trkpt>
<trkpt lat="43.59178" lon="5.6446">
<ele>448.7</ele>
<time>2012-03-24T14:45:46.000Z</time>
</trkpt>
<trkpt lat="43.59177" lon="5.64449">
<ele>452.2</ele>
<time>2012-03-24T14:45:47.000Z</time>
</trkpt>
<trkpt lat="43.59178" lon="5.64441">
<ele>451.8</ele>
<time>2012-03-24T14:45:48.000Z</time>
</trkpt>
<trkpt lat="43.59176" lon="5.64432">
<ele>451.7</ele>
<time>2012-03-24T14:45:49.000Z</time>
</trkpt>
<trkpt lat="43.59165" lon="5.6443">
<ele>453</ele>
<time>2012-03-24T14:45:50.000Z</time>
</trkpt>
<trkpt lat="43.59159" lon="5.64428">
<ele>453.5</ele>
<time>2012-03-24T14:45:51.000Z</time>
</trkpt>
<trkpt lat="43.59153" lon="5.64427">
<ele>453.8</ele>
<time>2012-03-24T14:45:52.000Z</time>
</trkpt>
<trkpt lat="43.59145" lon="5.64428">
<ele>454.2</ele>
<time>2012-03-24T14:45:53.000Z</time>
</trkpt>
<trkpt lat="43.59138" lon="5.64428">
<ele>454.1</ele>
<time>2012-03-24T14:45:54.000Z</time>
</trkpt>
<trkpt lat="43.59132" lon="5.64424">
<ele>453.7</ele>
<time>2012-03-24T14:45:55.000Z</time>
</trkpt>
<trkpt lat="43.59126" lon="5.64421">
<ele>453.8</ele>
<time>2012-03-24T14:45:56.000Z</time>
</trkpt>
<trkpt lat="43.59121" lon="5.64416">
<ele>453.6</ele>
<time>2012-03-24T14:45:57.000Z</time>
</trkpt>
<trkpt lat="43.59115" lon="5.64412">
<ele>454</ele>
<time>2012-03-24T14:45:58.000Z</time>
</trkpt>
<trkpt lat="43.5911" lon="5.64408">
<ele>453.9</ele>
<time>2012-03-24T14:45:59.000Z</time>
</trkpt>
<trkpt lat="43.59104" lon="5.64404">
<ele>454.1</ele>
<time>2012-03-24T14:46:00.000Z</time>
</trkpt>
<trkpt lat="43.59098" lon="5.64399">
<ele>454.3</ele>
<time>2012-03-24T14:46:01.000Z</time>
</trkpt>
<trkpt lat="43.59092" lon="5.64395">
<ele>454.2</ele>
<time>2012-03-24T14:46:02.000Z</time>
</trkpt>
<trkpt lat="43.59088" lon="5.64388">
<ele>454.3</ele>
<time>2012-03-24T14:46:03.000Z</time>
</trkpt>
<trkpt lat="43.59083" lon="5.64382">
<ele>454.3</ele>
<time>2012-03-24T14:46:04.000Z</time>
</trkpt>
<trkpt lat="43.5908" lon="5.64374">
<ele>454.1</ele>
<time>2012-03-24T14:46:05.000Z</time>
</trkpt>
<trkpt lat="43.59077" lon="5.64366">
<ele>454</ele>
<time>2012-03-24T14:46:06.000Z</time>
</trkpt>
<trkpt lat="43.59076" lon="5.64356">
<ele>454.1</ele>
<time>2012-03-24T14:46:07.000Z</time>
</trkpt>
<trkpt lat="43.59074" lon="5.64348">
<ele>454.2</ele>
<time>2012-03-24T14:46:08.000Z</time>
</trkpt>
<trkpt lat="43.59072" lon="5.64341">
<ele>454.1</ele>
<time>2012-03-24T14:46:09.000Z</time>
</trkpt>
<trkpt lat="43.59073" lon="5.64334">
<ele>454.1</ele>
<time>2012-03-24T14:46:10.000Z</time>
</trkpt>
<trkpt lat="43.59073" lon="5.64326">
<ele>454</ele>
<time>2012-03-24T14:46:11.000Z</time>
</trkpt>
<trkpt lat="43.59072" lon="5.64317">
<ele>454.1</ele>
<time>2012-03-24T14:46:12.000Z</time>
</trkpt>
<trkpt lat="43.59072" lon="5.64307">
<ele>453.7</ele>
<time>2012-03-24T14:46:13.000Z</time>
</trkpt>
<trkpt lat="43.5907" lon="5.64298">
<ele>453.3</ele>
<time>2012-03-24T14:46:14.000Z</time>
</trkpt>
<trkpt lat="43.59068" lon="5.6429">
<ele>453.2</ele>
<time>2012-03-24T14:46:15.000Z</time>
</trkpt>
<trkpt lat="43.59068" lon="5.64282">
<ele>453.3</ele>
<time>2012-03-24T14:46:16.000Z</time>
</trkpt>
<trkpt lat="43.59066" lon="5.64274">
<ele>453.4</ele>
<time>2012-03-24T14:46:17.000Z</time>
</trkpt>
<trkpt lat="43.59064" lon="5.64266">
<ele>453.7</ele>
<time>2012-03-24T14:46:18.000Z</time>
</trkpt>
<trkpt lat="43.59061" lon="5.64261">
<ele>453.6</ele>
<time>2012-03-24T14:46:19.000Z</time>
</trkpt>
<trkpt lat="43.59059" lon="5.64253">
<ele>453.9</ele>
<time>2012-03-24T14:46:20.000Z</time>
</trkpt>
<trkpt lat="43.59056" lon="5.64247">
<ele>453.9</ele>
<time>2012-03-24T14:46:21.000Z</time>
</trkpt>
<trkpt lat="43.59052" lon="5.64241">
<ele>454</ele>
<time>2012-03-24T14:46:22.000Z</time>
</trkpt>
<trkpt lat="43.59046" lon="5.64237">
<ele>454.3</ele>
<time>2012-03-24T14:46:23.000Z</time>
</trkpt>
<trkpt lat="43.59042" lon="5.64231">
<ele>454.7</ele>
<time>2012-03-24T14:46:24.000Z</time>
</trkpt>
<trkpt lat="43.59038" lon="5.64225">
<ele>455</ele>
<time>2012-03-24T14:46:25.000Z</time>
</trkpt>
<trkpt lat="43.59033" lon="5.64221">
<ele>455.4</ele>
<time>2012-03-24T14:46:26.000Z</time>
</trkpt>
<trkpt lat="43.59029" lon="5.64215">
<ele>456</ele>
<time>2012-03-24T14:46:27.000Z</time>
</trkpt>
<trkpt lat="43.59025" lon="5.64209">
<ele>456.1</ele>
<time>2012-03-24T14:46:28.000Z</time>
</trkpt>
<trkpt lat="43.5902" lon="5.64203">
<ele>455.8</ele>
<time>2012-03-24T14:46:29.000Z</time>
</trkpt>
<trkpt lat="43.59017" lon="5.64197">
<ele>456</ele>
<time>2012-03-24T14:46:30.000Z</time>
</trkpt>
<trkpt lat="43.59013" lon="5.64192">
<ele>457.1</ele>
<time>2012-03-24T14:46:31.000Z</time>
</trkpt>
<trkpt lat="43.5901" lon="5.64187">
<ele>456.6</ele>
<time>2012-03-24T14:46:32.000Z</time>
</trkpt>
<trkpt lat="43.59006" lon="5.64183">
<ele>456.5</ele>
<time>2012-03-24T14:46:33.000Z</time>
</trkpt>
<trkpt lat="43.59001" lon="5.64181">
<ele>456.5</ele>
<time>2012-03-24T14:46:34.000Z</time>
</trkpt>
<trkpt lat="43.58993" lon="5.64184">
<ele>456.3</ele>
<time>2012-03-24T14:46:36.000Z</time>
</trkpt>
<trkpt lat="43.5899" lon="5.64189">
<ele>456.5</ele>
<time>2012-03-24T14:46:37.000Z</time>
</trkpt>
<trkpt lat="43.5899" lon="5.64198">
<ele>455.7</ele>
<time>2012-03-24T14:46:39.000Z</time>
</trkpt>
<trkpt lat="43.58988" lon="5.6421">
<ele>456.2</ele>
<time>2012-03-24T14:46:41.000Z</time>
</trkpt>
<trkpt lat="43.58987" lon="5.64216">
<ele>456.7</ele>
<time>2012-03-24T14:46:42.000Z</time>
</trkpt>
<trkpt lat="43.58982" lon="5.64228">
<ele>456.6</ele>
<time>2012-03-24T14:46:44.000Z</time>
</trkpt>
<trkpt lat="43.58978" lon="5.64234">
<ele>457.2</ele>
<time>2012-03-24T14:46:45.000Z</time>
</trkpt>
<trkpt lat="43.58973" lon="5.64238">
<ele>457.4</ele>
<time>2012-03-24T14:46:46.000Z</time>
</trkpt>
<trkpt lat="43.58968" lon="5.64242">
<ele>457.9</ele>
<time>2012-03-24T14:46:47.000Z</time>
</trkpt>
<trkpt lat="43.58964" lon="5.64244">
<ele>458</ele>
<time>2012-03-24T14:46:48.000Z</time>
</trkpt>
<trkpt lat="43.58959" lon="5.64245">
<ele>458.3</ele>
<time>2012-03-24T14:46:49.000Z</time>
</trkpt>
<trkpt lat="43.58954" lon="5.64245">
<ele>458.9</ele>
<time>2012-03-24T14:46:50.000Z</time>
</trkpt>
<trkpt lat="43.58949" lon="5.64243">
<ele>459.2</ele>
<time>2012-03-24T14:46:51.000Z</time>
</trkpt>
<trkpt lat="43.58944" lon="5.64242">
<ele>459</ele>
<time>2012-03-24T14:46:52.000Z</time>
</trkpt>
<trkpt lat="43.58939" lon="5.64241">
<ele>459.1</ele>
<time>2012-03-24T14:46:53.000Z</time>
</trkpt>
<trkpt lat="43.58934" lon="5.64241">
<ele>459.1</ele>
<time>2012-03-24T14:46:54.000Z</time>
</trkpt>
<trkpt lat="43.58929" lon="5.64241">
<ele>459.3</ele>
<time>2012-03-24T14:46:55.000Z</time>
</trkpt>
<trkpt lat="43.58924" lon="5.6424">
<ele>459.2</ele>
<time>2012-03-24T14:46:56.000Z</time>
</trkpt>
<trkpt lat="43.58919" lon="5.64239">
<ele>459.6</ele>
<time>2012-03-24T14:46:57.000Z</time>
</trkpt>
<trkpt lat="43.58914" lon="5.64238">
<ele>459.9</ele>
<time>2012-03-24T14:46:58.000Z</time>
</trkpt>
<trkpt lat="43.58905" lon="5.64236">
<ele>460.8</ele>
<time>2012-03-24T14:47:00.000Z</time>
</trkpt>
<trkpt lat="43.589" lon="5.64235">
<ele>461.1</ele>
<time>2012-03-24T14:47:01.000Z</time>
</trkpt>
<trkpt lat="43.58895" lon="5.64234">
<ele>461.4</ele>
<time>2012-03-24T14:47:02.000Z</time>
</trkpt>
<trkpt lat="43.5889" lon="5.6423">
<ele>461.7</ele>
<time>2012-03-24T14:47:03.000Z</time>
</trkpt>
<trkpt lat="43.58882" lon="5.64226">
<ele>463.2</ele>
<time>2012-03-24T14:47:05.000Z</time>
</trkpt>
<trkpt lat="43.58878" lon="5.64222">
<ele>463.3</ele>
<time>2012-03-24T14:47:06.000Z</time>
</trkpt>
<trkpt lat="43.58874" lon="5.64219">
<ele>464.4</ele>
<time>2012-03-24T14:47:07.000Z</time>
</trkpt>
<trkpt lat="43.5887" lon="5.64217">
<ele>464.4</ele>
<time>2012-03-24T14:47:08.000Z</time>
</trkpt>
<trkpt lat="43.58865" lon="5.64213">
<ele>465</ele>
<time>2012-03-24T14:47:09.000Z</time>
</trkpt>
<trkpt lat="43.58857" lon="5.64208">
<ele>465.8</ele>
<time>2012-03-24T14:47:11.000Z</time>
</trkpt>
<trkpt lat="43.58853" lon="5.64205">
<ele>465.8</ele>
<time>2012-03-24T14:47:12.000Z</time>
</trkpt>
<trkpt lat="43.58849" lon="5.64202">
<ele>466.2</ele>
<time>2012-03-24T14:47:13.000Z</time>
</trkpt>
<trkpt lat="43.58841" lon="5.64197">
<ele>466.5</ele>
<time>2012-03-24T14:47:15.000Z</time>
</trkpt>
<trkpt lat="43.58833" lon="5.64191">
<ele>466.8</ele>
<time>2012-03-24T14:47:17.000Z</time>
</trkpt>
<trkpt lat="43.58826" lon="5.64185">
<ele>467.4</ele>
<time>2012-03-24T14:47:19.000Z</time>
</trkpt>
<trkpt lat="43.58818" lon="5.64178">
<ele>467.9</ele>
<time>2012-03-24T14:47:21.000Z</time>
</trkpt>
<trkpt lat="43.58811" lon="5.6417">
<ele>468.7</ele>
<time>2012-03-24T14:47:23.000Z</time>
</trkpt>
<trkpt lat="43.58806" lon="5.6416">
<ele>470.2</ele>
<time>2012-03-24T14:47:25.000Z</time>
</trkpt>
<trkpt lat="43.58801" lon="5.6415">
<ele>470.6</ele>
<time>2012-03-24T14:47:27.000Z</time>
</trkpt>
<trkpt lat="43.58797" lon="5.64139">
<ele>472.1</ele>
<time>2012-03-24T14:47:29.000Z</time>
</trkpt>
<trkpt lat="43.58794" lon="5.64128">
<ele>472.4</ele>
<time>2012-03-24T14:47:31.000Z</time>
</trkpt>
<trkpt lat="43.58793" lon="5.64121">
<ele>472.4</ele>
<time>2012-03-24T14:47:32.000Z</time>
</trkpt>
<trkpt lat="43.58792" lon="5.64115">
<ele>472.7</ele>
<time>2012-03-24T14:47:33.000Z</time>
</trkpt>
<trkpt lat="43.58791" lon="5.64109">
<ele>472.8</ele>
<time>2012-03-24T14:47:34.000Z</time>
</trkpt>
<trkpt lat="43.58787" lon="5.64097">
<ele>473.2</ele>
<time>2012-03-24T14:47:36.000Z</time>
</trkpt>
<trkpt lat="43.58786" lon="5.64091">
<ele>472.8</ele>
<time>2012-03-24T14:47:37.000Z</time>
</trkpt>
<trkpt lat="43.58784" lon="5.64084">
<ele>472.4</ele>
<time>2012-03-24T14:47:38.000Z</time>
</trkpt>
<trkpt lat="43.58782" lon="5.64078">
<ele>472.4</ele>
<time>2012-03-24T14:47:39.000Z</time>
</trkpt>
<trkpt lat="43.58777" lon="5.64068">
<ele>473.2</ele>
<time>2012-03-24T14:47:41.000Z</time>
</trkpt>
<trkpt lat="43.58774" lon="5.64063">
<ele>473.4</ele>
<time>2012-03-24T14:47:42.000Z</time>
</trkpt>
<trkpt lat="43.58768" lon="5.64054">
<ele>474.5</ele>
<time>2012-03-24T14:47:44.000Z</time>
</trkpt>
<trkpt lat="43.58761" lon="5.64046">
<ele>475.5</ele>
<time>2012-03-24T14:47:46.000Z</time>
</trkpt>
<trkpt lat="43.58755" lon="5.64038">
<ele>476.5</ele>
<time>2012-03-24T14:47:48.000Z</time>
</trkpt>
<trkpt lat="43.58748" lon="5.6403">
<ele>477</ele>
<time>2012-03-24T14:47:50.000Z</time>
</trkpt>
<trkpt lat="43.58742" lon="5.64021">
<ele>477.4</ele>
<time>2012-03-24T14:47:52.000Z</time>
</trkpt>
<trkpt lat="43.58739" lon="5.64017">
<ele>477.7</ele>
<time>2012-03-24T14:47:53.000Z</time>
</trkpt>
<trkpt lat="43.58732" lon="5.64009">
<ele>478.1</ele>
<time>2012-03-24T14:47:55.000Z</time>
</trkpt>
<trkpt lat="43.58726" lon="5.64002">
<ele>478.7</ele>
<time>2012-03-24T14:47:57.000Z</time>
</trkpt>
<trkpt lat="43.5872" lon="5.63992">
<ele>479</ele>
<time>2012-03-24T14:47:59.000Z</time>
</trkpt>
<trkpt lat="43.58716" lon="5.63983">
<ele>479</ele>
<time>2012-03-24T14:48:01.000Z</time>
</trkpt>
<trkpt lat="43.58714" lon="5.63973">
<ele>478.8</ele>
<time>2012-03-24T14:48:03.000Z</time>
</trkpt>
<trkpt lat="43.58715" lon="5.63961">
<ele>478.9</ele>
<time>2012-03-24T14:48:05.000Z</time>
</trkpt>
<trkpt lat="43.58716" lon="5.63953">
<ele>479.2</ele>
<time>2012-03-24T14:48:06.000Z</time>
</trkpt>
<trkpt lat="43.58716" lon="5.63946">
<ele>479</ele>
<time>2012-03-24T14:48:07.000Z</time>
</trkpt>
<trkpt lat="43.58716" lon="5.6394">
<ele>479.1</ele>
<time>2012-03-24T14:48:08.000Z</time>
</trkpt>
<trkpt lat="43.58714" lon="5.63927">
<ele>479.5</ele>
<time>2012-03-24T14:48:10.000Z</time>
</trkpt>
<trkpt lat="43.58712" lon="5.63917">
<ele>480</ele>
<time>2012-03-24T14:48:12.000Z</time>
</trkpt>
<trkpt lat="43.5871" lon="5.63906">
<ele>480.7</ele>
<time>2012-03-24T14:48:14.000Z</time>
</trkpt>
<trkpt lat="43.58706" lon="5.63895">
<ele>480.9</ele>
<time>2012-03-24T14:48:16.000Z</time>
</trkpt>
<trkpt lat="43.58699" lon="5.63887">
<ele>481.5</ele>
<time>2012-03-24T14:48:18.000Z</time>
</trkpt>
<trkpt lat="43.58693" lon="5.6388">
<ele>482.8</ele>
<time>2012-03-24T14:48:20.000Z</time>
</trkpt>
<trkpt lat="43.58689" lon="5.63877">
<ele>483.6</ele>
<time>2012-03-24T14:48:21.000Z</time>
</trkpt>
<trkpt lat="43.58681" lon="5.63875">
<ele>484.1</ele>
<time>2012-03-24T14:48:23.000Z</time>
</trkpt>
<trkpt lat="43.58672" lon="5.63877">
<ele>483.7</ele>
<time>2012-03-24T14:48:25.000Z</time>
</trkpt>
<trkpt lat="43.58665" lon="5.63881">
<ele>483.5</ele>
<time>2012-03-24T14:48:27.000Z</time>
</trkpt>
<trkpt lat="43.5866" lon="5.63888">
<ele>483.2</ele>
<time>2012-03-24T14:48:29.000Z</time>
</trkpt>
<trkpt lat="43.58659" lon="5.63898">
<ele>483.4</ele>
<time>2012-03-24T14:48:31.000Z</time>
</trkpt>
<trkpt lat="43.58657" lon="5.63909">
<ele>483.4</ele>
<time>2012-03-24T14:48:33.000Z</time>
</trkpt>
<trkpt lat="43.58658" lon="5.6392">
<ele>483.9</ele>
<time>2012-03-24T14:48:35.000Z</time>
</trkpt>
<trkpt lat="43.58657" lon="5.63932">
<ele>484</ele>
<time>2012-03-24T14:48:37.000Z</time>
</trkpt>
<trkpt lat="43.58656" lon="5.63938">
<ele>483.9</ele>
<time>2012-03-24T14:48:38.000Z</time>
</trkpt>
<trkpt lat="43.58655" lon="5.63944">
<ele>484.6</ele>
<time>2012-03-24T14:48:39.000Z</time>
</trkpt>
<trkpt lat="43.58654" lon="5.63955">
<ele>484.6</ele>
<time>2012-03-24T14:48:41.000Z</time>
</trkpt>
<trkpt lat="43.58653" lon="5.63968">
<ele>484.8</ele>
<time>2012-03-24T14:48:43.000Z</time>
</trkpt>
<trkpt lat="43.58653" lon="5.63974">
<ele>484.7</ele>
<time>2012-03-24T14:48:44.000Z</time>
</trkpt>
<trkpt lat="43.58653" lon="5.63981">
<ele>484.3</ele>
<time>2012-03-24T14:48:45.000Z</time>
</trkpt>
<trkpt lat="43.58651" lon="5.63987">
<ele>485.2</ele>
<time>2012-03-24T14:48:46.000Z</time>
</trkpt>
<trkpt lat="43.58651" lon="5.63994">
<ele>485.9</ele>
<time>2012-03-24T14:48:47.000Z</time>
</trkpt>
<trkpt lat="43.58651" lon="5.64">
<ele>486.3</ele>
<time>2012-03-24T14:48:48.000Z</time>
</trkpt>
<trkpt lat="43.58651" lon="5.64007">
<ele>486.3</ele>
<time>2012-03-24T14:48:49.000Z</time>
</trkpt>
<trkpt lat="43.5865" lon="5.64014">
<ele>486.6</ele>
<time>2012-03-24T14:48:50.000Z</time>
</trkpt>
<trkpt lat="43.58649" lon="5.64021">
<ele>486.6</ele>
<time>2012-03-24T14:48:51.000Z</time>
</trkpt>
<trkpt lat="43.58645" lon="5.64032">
<ele>487.5</ele>
<time>2012-03-24T14:48:53.000Z</time>
</trkpt>
<trkpt lat="43.58645" lon="5.64043">
<ele>489.8</ele>
<time>2012-03-24T14:48:55.000Z</time>
</trkpt>
<trkpt lat="43.58646" lon="5.64049">
<ele>490.6</ele>
<time>2012-03-24T14:48:56.000Z</time>
</trkpt>
<trkpt lat="43.58644" lon="5.64061">
<ele>491.9</ele>
<time>2012-03-24T14:48:58.000Z</time>
</trkpt>
<trkpt lat="43.58642" lon="5.64068">
<ele>492.2</ele>
<time>2012-03-24T14:48:59.000Z</time>
</trkpt>
<trkpt lat="43.58636" lon="5.64077">
<ele>491.3</ele>
<time>2012-03-24T14:49:01.000Z</time>
</trkpt>
<trkpt lat="43.58624" lon="5.6408">
<ele>494.2</ele>
<time>2012-03-24T14:49:02.000Z</time>
</trkpt>
<trkpt lat="43.58618" lon="5.64085">
<ele>494.4</ele>
<time>2012-03-24T14:49:03.000Z</time>
</trkpt>
<trkpt lat="43.58614" lon="5.64087">
<ele>494.3</ele>
<time>2012-03-24T14:49:04.000Z</time>
</trkpt>
<trkpt lat="43.58609" lon="5.6409">
<ele>494.1</ele>
<time>2012-03-24T14:49:05.000Z</time>
</trkpt>
<trkpt lat="43.58604" lon="5.64092">
<ele>493.6</ele>
<time>2012-03-24T14:49:06.000Z</time>
</trkpt>
<trkpt lat="43.58599" lon="5.64094">
<ele>493.5</ele>
<time>2012-03-24T14:49:07.000Z</time>
</trkpt>
<trkpt lat="43.58594" lon="5.64095">
<ele>493.5</ele>
<time>2012-03-24T14:49:08.000Z</time>
</trkpt>
<trkpt lat="43.58589" lon="5.64093">
<ele>493.1</ele>
<time>2012-03-24T14:49:09.000Z</time>
</trkpt>
<trkpt lat="43.58584" lon="5.64094">
<ele>493.6</ele>
<time>2012-03-24T14:49:10.000Z</time>
</trkpt>
<trkpt lat="43.58578" lon="5.64092">
<ele>493.5</ele>
<time>2012-03-24T14:49:11.000Z</time>
</trkpt>
<trkpt lat="43.58574" lon="5.64089">
<ele>493.8</ele>
<time>2012-03-24T14:49:12.000Z</time>
</trkpt>
<trkpt lat="43.58566" lon="5.64082">
<ele>494.9</ele>
<time>2012-03-24T14:49:14.000Z</time>
</trkpt>
<trkpt lat="43.58562" lon="5.64078">
<ele>495.3</ele>
<time>2012-03-24T14:49:15.000Z</time>
</trkpt>
<trkpt lat="43.58558" lon="5.64074">
<ele>495.8</ele>
<time>2012-03-24T14:49:16.000Z</time>
</trkpt>
<trkpt lat="43.58555" lon="5.6407">
<ele>496.5</ele>
<time>2012-03-24T14:49:17.000Z</time>
</trkpt>
<trkpt lat="43.58548" lon="5.64062">
<ele>499.1</ele>
<time>2012-03-24T14:49:19.000Z</time>
</trkpt>
<trkpt lat="43.58545" lon="5.64057">
<ele>499.1</ele>
<time>2012-03-24T14:49:20.000Z</time>
</trkpt>
<trkpt lat="43.58542" lon="5.64052">
<ele>498.7</ele>
<time>2012-03-24T14:49:21.000Z</time>
</trkpt>
<trkpt lat="43.58539" lon="5.64046">
<ele>497.4</ele>
<time>2012-03-24T14:49:22.000Z</time>
</trkpt>
<trkpt lat="43.58536" lon="5.64037">
<ele>496.5</ele>
<time>2012-03-24T14:49:23.000Z</time>
</trkpt>
<trkpt lat="43.58532" lon="5.64038">
<ele>496.8</ele>
<time>2012-03-24T14:49:24.000Z</time>
</trkpt>
<trkpt lat="43.58528" lon="5.64033">
<ele>496.3</ele>
<time>2012-03-24T14:49:25.000Z</time>
</trkpt>
<trkpt lat="43.58521" lon="5.64023">
<ele>496.6</ele>
<time>2012-03-24T14:49:27.000Z</time>
</trkpt>
<trkpt lat="43.58518" lon="5.64019">
<ele>497</ele>
<time>2012-03-24T14:49:28.000Z</time>
</trkpt>
<trkpt lat="43.58514" lon="5.64014">
<ele>497.1</ele>
<time>2012-03-24T14:49:29.000Z</time>
</trkpt>
<trkpt lat="43.58511" lon="5.64009">
<ele>497.4</ele>
<time>2012-03-24T14:49:30.000Z</time>
</trkpt>
<trkpt lat="43.58508" lon="5.64004">
<ele>498</ele>
<time>2012-03-24T14:49:31.000Z</time>
</trkpt>
<trkpt lat="43.58505" lon="5.63998">
<ele>499</ele>
<time>2012-03-24T14:49:32.000Z</time>
</trkpt>
<trkpt lat="43.58503" lon="5.63992">
<ele>499.3</ele>
<time>2012-03-24T14:49:33.000Z</time>
</trkpt>
<trkpt lat="43.58501" lon="5.63981">
<ele>499.5</ele>
<time>2012-03-24T14:49:35.000Z</time>
</trkpt>
<trkpt lat="43.58499" lon="5.63974">
<ele>499.7</ele>
<time>2012-03-24T14:49:36.000Z</time>
</trkpt>
<trkpt lat="43.58497" lon="5.63968">
<ele>499.9</ele>
<time>2012-03-24T14:49:37.000Z</time>
</trkpt>
<trkpt lat="43.58494" lon="5.63956">
<ele>500.2</ele>
<time>2012-03-24T14:49:39.000Z</time>
</trkpt>
<trkpt lat="43.58493" lon="5.63948">
<ele>500.4</ele>
<time>2012-03-24T14:49:40.000Z</time>
</trkpt>
<trkpt lat="43.58491" lon="5.63941">
<ele>500.9</ele>
<time>2012-03-24T14:49:41.000Z</time>
</trkpt>
<trkpt lat="43.58488" lon="5.63935">
<ele>501.3</ele>
<time>2012-03-24T14:49:42.000Z</time>
</trkpt>
<trkpt lat="43.58487" lon="5.63929">
<ele>501.4</ele>
<time>2012-03-24T14:49:43.000Z</time>
</trkpt>
<trkpt lat="43.58486" lon="5.63922">
<ele>501.6</ele>
<time>2012-03-24T14:49:44.000Z</time>
</trkpt>
<trkpt lat="43.58485" lon="5.63916">
<ele>502.2</ele>
<time>2012-03-24T14:49:45.000Z</time>
</trkpt>
<trkpt lat="43.58484" lon="5.63909">
<ele>502.2</ele>
<time>2012-03-24T14:49:46.000Z</time>
</trkpt>
<trkpt lat="43.58482" lon="5.63901">
<ele>502.5</ele>
<time>2012-03-24T14:49:47.000Z</time>
</trkpt>
<trkpt lat="43.58481" lon="5.63895">
<ele>502.7</ele>
<time>2012-03-24T14:49:48.000Z</time>
</trkpt>
<trkpt lat="43.5848" lon="5.63888">
<ele>502.5</ele>
<time>2012-03-24T14:49:49.000Z</time>
</trkpt>
<trkpt lat="43.58478" lon="5.63883">
<ele>502.6</ele>
<time>2012-03-24T14:49:50.000Z</time>
</trkpt>
<trkpt lat="43.58476" lon="5.63877">
<ele>502.6</ele>
<time>2012-03-24T14:49:51.000Z</time>
</trkpt>
<trkpt lat="43.58474" lon="5.63871">
<ele>502.9</ele>
<time>2012-03-24T14:49:52.000Z</time>
</trkpt>
<trkpt lat="43.58471" lon="5.6386">
<ele>503.8</ele>
<time>2012-03-24T14:49:54.000Z</time>
</trkpt>
<trkpt lat="43.58472" lon="5.63851">
<ele>503.9</ele>
<time>2012-03-24T14:49:55.000Z</time>
</trkpt>
<trkpt lat="43.58472" lon="5.63845">
<ele>504.4</ele>
<time>2012-03-24T14:49:56.000Z</time>
</trkpt>
<trkpt lat="43.58474" lon="5.63838">
<ele>504.9</ele>
<time>2012-03-24T14:49:57.000Z</time>
</trkpt>
<trkpt lat="43.58476" lon="5.63831">
<ele>505.3</ele>
<time>2012-03-24T14:49:58.000Z</time>
</trkpt>
<trkpt lat="43.5848" lon="5.63821">
<ele>505.3</ele>
<time>2012-03-24T14:50:00.000Z</time>
</trkpt>
<trkpt lat="43.58483" lon="5.63815">
<ele>505.9</ele>
<time>2012-03-24T14:50:01.000Z</time>
</trkpt>
<trkpt lat="43.58486" lon="5.63809">
<ele>506.2</ele>
<time>2012-03-24T14:50:02.000Z</time>
</trkpt>
<trkpt lat="43.58488" lon="5.63804">
<ele>507.3</ele>
<time>2012-03-24T14:50:03.000Z</time>
</trkpt>
<trkpt lat="43.5849" lon="5.63798">
<ele>507.4</ele>
<time>2012-03-24T14:50:04.000Z</time>
</trkpt>
<trkpt lat="43.58492" lon="5.63792">
<ele>507.9</ele>
<time>2012-03-24T14:50:05.000Z</time>
</trkpt>
<trkpt lat="43.58492" lon="5.6378">
<ele>508</ele>
<time>2012-03-24T14:50:07.000Z</time>
</trkpt>
<trkpt lat="43.58492" lon="5.63773">
<ele>508.1</ele>
<time>2012-03-24T14:50:08.000Z</time>
</trkpt>
<trkpt lat="43.58489" lon="5.63761">
<ele>510.2</ele>
<time>2012-03-24T14:50:10.000Z</time>
</trkpt>
<trkpt lat="43.58488" lon="5.63748">
<ele>511.4</ele>
<time>2012-03-24T14:50:12.000Z</time>
</trkpt>
<trkpt lat="43.58488" lon="5.63741">
<ele>511.9</ele>
<time>2012-03-24T14:50:13.000Z</time>
</trkpt>
<trkpt lat="43.58486" lon="5.63731">
<ele>511.7</ele>
<time>2012-03-24T14:50:15.000Z</time>
</trkpt>
<trkpt lat="43.58483" lon="5.63725">
<ele>512.3</ele>
<time>2012-03-24T14:50:16.000Z</time>
</trkpt>
<trkpt lat="43.5848" lon="5.63714">
<ele>512.7</ele>
<time>2012-03-24T14:50:18.000Z</time>
</trkpt>
<trkpt lat="43.58474" lon="5.63705">
<ele>512.9</ele>
<time>2012-03-24T14:50:20.000Z</time>
</trkpt>
<trkpt lat="43.58469" lon="5.63695">
<ele>513.8</ele>
<time>2012-03-24T14:50:22.000Z</time>
</trkpt>
<trkpt lat="43.58463" lon="5.6369">
<ele>514.5</ele>
<time>2012-03-24T14:50:24.000Z</time>
</trkpt>
<trkpt lat="43.58458" lon="5.63688">
<ele>515.1</ele>
<time>2012-03-24T14:50:26.000Z</time>
</trkpt>
<trkpt lat="43.58448" lon="5.63693">
<ele>516</ele>
<time>2012-03-24T14:50:28.000Z</time>
</trkpt>
<trkpt lat="43.5844" lon="5.63698">
<ele>516.9</ele>
<time>2012-03-24T14:50:30.000Z</time>
</trkpt>
<trkpt lat="43.58435" lon="5.63707">
<ele>517.5</ele>
<time>2012-03-24T14:50:32.000Z</time>
</trkpt>
<trkpt lat="43.58432" lon="5.63715">
<ele>516.9</ele>
<time>2012-03-24T14:50:34.000Z</time>
</trkpt>
<trkpt lat="43.58429" lon="5.63725">
<ele>516.4</ele>
<time>2012-03-24T14:50:36.000Z</time>
</trkpt>
<trkpt lat="43.58425" lon="5.6373">
<ele>515.8</ele>
<time>2012-03-24T14:50:37.000Z</time>
</trkpt>
<trkpt lat="43.58422" lon="5.6374">
<ele>517.9</ele>
<time>2012-03-24T14:50:39.000Z</time>
</trkpt>
<trkpt lat="43.58419" lon="5.63748">
<ele>518.5</ele>
<time>2012-03-24T14:50:41.000Z</time>
</trkpt>
<trkpt lat="43.58416" lon="5.63756">
<ele>518.8</ele>
<time>2012-03-24T14:50:43.000Z</time>
</trkpt>
<trkpt lat="43.58414" lon="5.63765">
<ele>520.9</ele>
<time>2012-03-24T14:50:45.000Z</time>
</trkpt>
<trkpt lat="43.58409" lon="5.63772">
<ele>520.7</ele>
<time>2012-03-24T14:50:47.000Z</time>
</trkpt>
<trkpt lat="43.58406" lon="5.6378">
<ele>520.3</ele>
<time>2012-03-24T14:50:49.000Z</time>
</trkpt>
<trkpt lat="43.58404" lon="5.63789">
<ele>520.4</ele>
<time>2012-03-24T14:50:51.000Z</time>
</trkpt>
<trkpt lat="43.58402" lon="5.63799">
<ele>520.5</ele>
<time>2012-03-24T14:50:53.000Z</time>
</trkpt>
<trkpt lat="43.58402" lon="5.63806">
<ele>521.3</ele>
<time>2012-03-24T14:50:54.000Z</time>
</trkpt>
<trkpt lat="43.58402" lon="5.63817">
<ele>521.5</ele>
<time>2012-03-24T14:50:56.000Z</time>
</trkpt>
<trkpt lat="43.58401" lon="5.63827">
<ele>521.6</ele>
<time>2012-03-24T14:50:58.000Z</time>
</trkpt>
<trkpt lat="43.58401" lon="5.63836">
<ele>522</ele>
<time>2012-03-24T14:51:00.000Z</time>
</trkpt>
<trkpt lat="43.58398" lon="5.63846">
<ele>521.8</ele>
<time>2012-03-24T14:51:02.000Z</time>
</trkpt>
<trkpt lat="43.58393" lon="5.63849">
<ele>523.1</ele>
<time>2012-03-24T14:51:04.000Z</time>
</trkpt>
<trkpt lat="43.58384" lon="5.63845">
<ele>523.1</ele>
<time>2012-03-24T14:51:05.000Z</time>
</trkpt>
<trkpt lat="43.58378" lon="5.63845">
<ele>525.2</ele>
<time>2012-03-24T14:51:07.000Z</time>
</trkpt>
<trkpt lat="43.58372" lon="5.63841">
<ele>527.7</ele>
<time>2012-03-24T14:51:09.000Z</time>
</trkpt>
<trkpt lat="43.5837" lon="5.63832">
<ele>529.4</ele>
<time>2012-03-24T14:51:11.000Z</time>
</trkpt>
<trkpt lat="43.58367" lon="5.63822">
<ele>530.3</ele>
<time>2012-03-24T14:51:13.000Z</time>
</trkpt>
<trkpt lat="43.58368" lon="5.63812">
<ele>530.6</ele>
<time>2012-03-24T14:51:15.000Z</time>
</trkpt>
<trkpt lat="43.58369" lon="5.63804">
<ele>530.8</ele>
<time>2012-03-24T14:51:17.000Z</time>
</trkpt>
<trkpt lat="43.58371" lon="5.63797">
<ele>531</ele>
<time>2012-03-24T14:51:18.000Z</time>
</trkpt>
<trkpt lat="43.58374" lon="5.6379">
<ele>531.2</ele>
<time>2012-03-24T14:51:19.000Z</time>
</trkpt>
<trkpt lat="43.58376" lon="5.6378">
<ele>531.4</ele>
<time>2012-03-24T14:51:21.000Z</time>
</trkpt>
<trkpt lat="43.58378" lon="5.63772">
<ele>531.3</ele>
<time>2012-03-24T14:51:23.000Z</time>
</trkpt>
<trkpt lat="43.58379" lon="5.63762">
<ele>530.7</ele>
<time>2012-03-24T14:51:25.000Z</time>
</trkpt>
<trkpt lat="43.58379" lon="5.63756">
<ele>530.6</ele>
<time>2012-03-24T14:51:26.000Z</time>
</trkpt>
<trkpt lat="43.58379" lon="5.63749">
<ele>530.4</ele>
<time>2012-03-24T14:51:27.000Z</time>
</trkpt>
<trkpt lat="43.58382" lon="5.63739">
<ele>530.5</ele>
<time>2012-03-24T14:51:29.000Z</time>
</trkpt>
<trkpt lat="43.58383" lon="5.63731">
<ele>530.8</ele>
<time>2012-03-24T14:51:31.000Z</time>
</trkpt>
<trkpt lat="43.58382" lon="5.63722">
<ele>531.5</ele>
<time>2012-03-24T14:51:33.000Z</time>
</trkpt>
<trkpt lat="43.58382" lon="5.63712">
<ele>532.7</ele>
<time>2012-03-24T14:51:35.000Z</time>
</trkpt>
<trkpt lat="43.58383" lon="5.63701">
<ele>533.3</ele>
<time>2012-03-24T14:51:37.000Z</time>
</trkpt>
<trkpt lat="43.58385" lon="5.63694">
<ele>533.7</ele>
<time>2012-03-24T14:51:38.000Z</time>
</trkpt>
<trkpt lat="43.58386" lon="5.63684">
<ele>534.7</ele>
<time>2012-03-24T14:51:40.000Z</time>
</trkpt>
<trkpt lat="43.58385" lon="5.63677">
<ele>534.4</ele>
<time>2012-03-24T14:51:41.000Z</time>
</trkpt>
<trkpt lat="43.58385" lon="5.63664">
<ele>534.7</ele>
<time>2012-03-24T14:51:43.000Z</time>
</trkpt>
<trkpt lat="43.58387" lon="5.63652">
<ele>535.3</ele>
<time>2012-03-24T14:51:45.000Z</time>
</trkpt>
<trkpt lat="43.58386" lon="5.63646">
<ele>535.5</ele>
<time>2012-03-24T14:51:46.000Z</time>
</trkpt>
<trkpt lat="43.58386" lon="5.63638">
<ele>535.8</ele>
<time>2012-03-24T14:51:47.000Z</time>
</trkpt>
<trkpt lat="43.58385" lon="5.63627">
<ele>535.2</ele>
<time>2012-03-24T14:51:49.000Z</time>
</trkpt>
<trkpt lat="43.58383" lon="5.63619">
<ele>535</ele>
<time>2012-03-24T14:51:51.000Z</time>
</trkpt>
<trkpt lat="43.58381" lon="5.6361">
<ele>534.9</ele>
<time>2012-03-24T14:51:53.000Z</time>
</trkpt>
<trkpt lat="43.58381" lon="5.636">
<ele>535</ele>
<time>2012-03-24T14:51:55.000Z</time>
</trkpt>
<trkpt lat="43.58382" lon="5.63589">
<ele>534.4</ele>
<time>2012-03-24T14:51:57.000Z</time>
</trkpt>
<trkpt lat="43.5838" lon="5.6358">
<ele>535.1</ele>
<time>2012-03-24T14:51:59.000Z</time>
</trkpt>
<trkpt lat="43.58378" lon="5.63574">
<ele>535.8</ele>
<time>2012-03-24T14:52:01.000Z</time>
</trkpt>
<trkpt lat="43.58375" lon="5.63567">
<ele>536.6</ele>
<time>2012-03-24T14:52:03.000Z</time>
</trkpt>
<trkpt lat="43.5837" lon="5.63559">
<ele>537.8</ele>
<time>2012-03-24T14:52:05.000Z</time>
</trkpt>
<trkpt lat="43.58368" lon="5.63552">
<ele>538.1</ele>
<time>2012-03-24T14:52:07.000Z</time>
</trkpt>
<trkpt lat="43.58366" lon="5.63545">
<ele>540.3</ele>
<time>2012-03-24T14:52:09.000Z</time>
</trkpt>
<trkpt lat="43.58362" lon="5.63538">
<ele>541.4</ele>
<time>2012-03-24T14:52:11.000Z</time>
</trkpt>
<trkpt lat="43.58359" lon="5.6353">
<ele>542.7</ele>
<time>2012-03-24T14:52:13.000Z</time>
</trkpt>
<trkpt lat="43.58355" lon="5.63521">
<ele>541.4</ele>
<time>2012-03-24T14:52:15.000Z</time>
</trkpt>
<trkpt lat="43.58354" lon="5.63512">
<ele>542.6</ele>
<time>2012-03-24T14:52:17.000Z</time>
</trkpt>
<trkpt lat="43.58354" lon="5.63505">
<ele>543.8</ele>
<time>2012-03-24T14:52:19.000Z</time>
</trkpt>
<trkpt lat="43.58351" lon="5.63497">
<ele>545.1</ele>
<time>2012-03-24T14:52:21.000Z</time>
</trkpt>
<trkpt lat="43.58344" lon="5.63494">
<ele>541.5</ele>
<time>2012-03-24T14:52:22.000Z</time>
</trkpt>
<trkpt lat="43.58341" lon="5.63483">
<ele>541.8</ele>
<time>2012-03-24T14:52:24.000Z</time>
</trkpt>
<trkpt lat="43.58337" lon="5.63474">
<ele>543.5</ele>
<time>2012-03-24T14:52:26.000Z</time>
</trkpt>
<trkpt lat="43.58332" lon="5.63468">
<ele>544.8</ele>
<time>2012-03-24T14:52:28.000Z</time>
</trkpt>
<trkpt lat="43.58327" lon="5.63461">
<ele>544.7</ele>
<time>2012-03-24T14:52:30.000Z</time>
</trkpt>
<trkpt lat="43.58322" lon="5.63455">
<ele>545.6</ele>
<time>2012-03-24T14:52:32.000Z</time>
</trkpt>
<trkpt lat="43.58317" lon="5.63449">
<ele>545.8</ele>
<time>2012-03-24T14:52:34.000Z</time>
</trkpt>
<trkpt lat="43.58317" lon="5.63441">
<ele>545.2</ele>
<time>2012-03-24T14:52:36.000Z</time>
</trkpt>
<trkpt lat="43.58318" lon="5.63433">
<ele>544.9</ele>
<time>2012-03-24T14:52:38.000Z</time>
</trkpt>
<trkpt lat="43.58322" lon="5.63423">
<ele>545</ele>
<time>2012-03-24T14:52:40.000Z</time>
</trkpt>
<trkpt lat="43.58326" lon="5.63413">
<ele>545.9</ele>
<time>2012-03-24T14:52:42.000Z</time>
</trkpt>
<trkpt lat="43.5833" lon="5.63401">
<ele>545.9</ele>
<time>2012-03-24T14:52:44.000Z</time>
</trkpt>
<trkpt lat="43.58333" lon="5.63392">
<ele>545.6</ele>
<time>2012-03-24T14:52:46.000Z</time>
</trkpt>
<trkpt lat="43.58334" lon="5.63383">
<ele>546.1</ele>
<time>2012-03-24T14:52:47.000Z</time>
</trkpt>
<trkpt lat="43.58337" lon="5.63373">
<ele>547</ele>
<time>2012-03-24T14:52:49.000Z</time>
</trkpt>
<trkpt lat="43.58337" lon="5.63364">
<ele>547.2</ele>
<time>2012-03-24T14:52:51.000Z</time>
</trkpt>
<trkpt lat="43.58337" lon="5.63353">
<ele>548.7</ele>
<time>2012-03-24T14:52:53.000Z</time>
</trkpt>
<trkpt lat="43.58335" lon="5.63347">
<ele>549.6</ele>
<time>2012-03-24T14:52:55.000Z</time>
</trkpt>
<trkpt lat="43.58334" lon="5.63338">
<ele>550.8</ele>
<time>2012-03-24T14:52:57.000Z</time>
</trkpt>
<trkpt lat="43.58333" lon="5.63326">
<ele>550.9</ele>
<time>2012-03-24T14:52:59.000Z</time>
</trkpt>
<trkpt lat="43.58332" lon="5.63316">
<ele>549.7</ele>
<time>2012-03-24T14:53:01.000Z</time>
</trkpt>
<trkpt lat="43.5833" lon="5.63309">
<ele>549.8</ele>
<time>2012-03-24T14:53:03.000Z</time>
</trkpt>
<trkpt lat="43.58327" lon="5.63302">
<ele>550.3</ele>
<time>2012-03-24T14:53:05.000Z</time>
</trkpt>
<trkpt lat="43.58325" lon="5.63292">
<ele>551.3</ele>
<time>2012-03-24T14:53:07.000Z</time>
</trkpt>
<trkpt lat="43.58322" lon="5.63282">
<ele>552.5</ele>
<time>2012-03-24T14:53:09.000Z</time>
</trkpt>
<trkpt lat="43.5832" lon="5.63274">
<ele>553.4</ele>
<time>2012-03-24T14:53:11.000Z</time>
</trkpt>
<trkpt lat="43.58316" lon="5.63267">
<ele>553.5</ele>
<time>2012-03-24T14:53:13.000Z</time>
</trkpt>
<trkpt lat="43.58312" lon="5.63262">
<ele>553.4</ele>
<time>2012-03-24T14:53:15.000Z</time>
</trkpt>
<trkpt lat="43.58309" lon="5.63255">
<ele>554.1</ele>
<time>2012-03-24T14:53:17.000Z</time>
</trkpt>
<trkpt lat="43.58305" lon="5.63247">
<ele>553.9</ele>
<time>2012-03-24T14:53:19.000Z</time>
</trkpt>
<trkpt lat="43.58302" lon="5.63241">
<ele>554.4</ele>
<time>2012-03-24T14:53:21.000Z</time>
</trkpt>
<trkpt lat="43.583" lon="5.63236">
<ele>556.4</ele>
<time>2012-03-24T14:53:24.000Z</time>
</trkpt>
<trkpt lat="43.58299" lon="5.63225">
<ele>557.3</ele>
<time>2012-03-24T14:53:27.000Z</time>
</trkpt>
<trkpt lat="43.58299" lon="5.63212">
<ele>557</ele>
<time>2012-03-24T14:53:29.000Z</time>
</trkpt>
<trkpt lat="43.58301" lon="5.63202">
<ele>556.8</ele>
<time>2012-03-24T14:53:31.000Z</time>
</trkpt>
<trkpt lat="43.58305" lon="5.63194">
<ele>560.8</ele>
<time>2012-03-24T14:53:32.000Z</time>
</trkpt>
<trkpt lat="43.58305" lon="5.63186">
<ele>558.8</ele>
<time>2012-03-24T14:53:33.000Z</time>
</trkpt>
<trkpt lat="43.58305" lon="5.6318">
<ele>558.7</ele>
<time>2012-03-24T14:53:34.000Z</time>
</trkpt>
<trkpt lat="43.58307" lon="5.63168">
<ele>559</ele>
<time>2012-03-24T14:53:36.000Z</time>
</trkpt>
<trkpt lat="43.58306" lon="5.63158">
<ele>561.3</ele>
<time>2012-03-24T14:53:38.000Z</time>
</trkpt>
<trkpt lat="43.58304" lon="5.63152">
<ele>563.3</ele>
<time>2012-03-24T14:53:40.000Z</time>
</trkpt>
<trkpt lat="43.58303" lon="5.63144">
<ele>565.4</ele>
<time>2012-03-24T14:53:42.000Z</time>
</trkpt>
<trkpt lat="43.583" lon="5.63137">
<ele>565.3</ele>
<time>2012-03-24T14:53:44.000Z</time>
</trkpt>
<trkpt lat="43.58299" lon="5.6313">
<ele>565.8</ele>
<time>2012-03-24T14:53:46.000Z</time>
</trkpt>
<trkpt lat="43.58297" lon="5.63124">
<ele>566.5</ele>
<time>2012-03-24T14:53:48.000Z</time>
</trkpt>
<trkpt lat="43.58296" lon="5.63115">
<ele>567.6</ele>
<time>2012-03-24T14:53:50.000Z</time>
</trkpt>
<trkpt lat="43.58297" lon="5.63106">
<ele>568.3</ele>
<time>2012-03-24T14:53:52.000Z</time>
</trkpt>
<trkpt lat="43.58298" lon="5.63095">
<ele>568.9</ele>
<time>2012-03-24T14:53:54.000Z</time>
</trkpt>
<trkpt lat="43.58298" lon="5.63086">
<ele>568.7</ele>
<time>2012-03-24T14:53:56.000Z</time>
</trkpt>
<trkpt lat="43.58298" lon="5.63077">
<ele>568.3</ele>
<time>2012-03-24T14:53:58.000Z</time>
</trkpt>
<trkpt lat="43.58296" lon="5.63068">
<ele>568</ele>
<time>2012-03-24T14:54:00.000Z</time>
</trkpt>
<trkpt lat="43.58294" lon="5.6306">
<ele>568.1</ele>
<time>2012-03-24T14:54:02.000Z</time>
</trkpt>
<trkpt lat="43.58292" lon="5.63053">
<ele>570.4</ele>
<time>2012-03-24T14:54:04.000Z</time>
</trkpt>
<trkpt lat="43.5829" lon="5.63046">
<ele>573</ele>
<time>2012-03-24T14:54:06.000Z</time>
</trkpt>
<trkpt lat="43.58288" lon="5.6304">
<ele>573.6</ele>
<time>2012-03-24T14:54:08.000Z</time>
</trkpt>
<trkpt lat="43.58285" lon="5.63032">
<ele>572.5</ele>
<time>2012-03-24T14:54:10.000Z</time>
</trkpt>
<trkpt lat="43.58282" lon="5.63024">
<ele>572.5</ele>
<time>2012-03-24T14:54:12.000Z</time>
</trkpt>
<trkpt lat="43.5828" lon="5.63018">
<ele>573.7</ele>
<time>2012-03-24T14:54:14.000Z</time>
</trkpt>
<trkpt lat="43.58277" lon="5.63012">
<ele>574.6</ele>
<time>2012-03-24T14:54:16.000Z</time>
</trkpt>
<trkpt lat="43.58274" lon="5.63006">
<ele>575.7</ele>
<time>2012-03-24T14:54:18.000Z</time>
</trkpt>
<trkpt lat="43.58273" lon="5.62999">
<ele>576.6</ele>
<time>2012-03-24T14:54:20.000Z</time>
</trkpt>
<trkpt lat="43.58271" lon="5.62992">
<ele>575.7</ele>
<time>2012-03-24T14:54:22.000Z</time>
</trkpt>
<trkpt lat="43.58272" lon="5.62983">
<ele>575.3</ele>
<time>2012-03-24T14:54:24.000Z</time>
</trkpt>
<trkpt lat="43.58275" lon="5.62974">
<ele>575.6</ele>
<time>2012-03-24T14:54:25.000Z</time>
</trkpt>
<trkpt lat="43.58274" lon="5.62967">
<ele>573.8</ele>
<time>2012-03-24T14:54:26.000Z</time>
</trkpt>
<trkpt lat="43.58275" lon="5.62958">
<ele>574.2</ele>
<time>2012-03-24T14:54:28.000Z</time>
</trkpt>
<trkpt lat="43.58276" lon="5.6295">
<ele>574.1</ele>
<time>2012-03-24T14:54:30.000Z</time>
</trkpt>
<trkpt lat="43.58277" lon="5.62941">
<ele>573.4</ele>
<time>2012-03-24T14:54:32.000Z</time>
</trkpt>
<trkpt lat="43.58275" lon="5.62931">
<ele>575.3</ele>
<time>2012-03-24T14:54:34.000Z</time>
</trkpt>
<trkpt lat="43.58274" lon="5.62923">
<ele>576.3</ele>
<time>2012-03-24T14:54:36.000Z</time>
</trkpt>
<trkpt lat="43.58272" lon="5.62915">
<ele>576.6</ele>
<time>2012-03-24T14:54:38.000Z</time>
</trkpt>
<trkpt lat="43.5827" lon="5.62908">
<ele>576.7</ele>
<time>2012-03-24T14:54:40.000Z</time>
</trkpt>
<trkpt lat="43.58269" lon="5.629">
<ele>576.7</ele>
<time>2012-03-24T14:54:42.000Z</time>
</trkpt>
<trkpt lat="43.58266" lon="5.62893">
<ele>576.5</ele>
<time>2012-03-24T14:54:44.000Z</time>
</trkpt>
<trkpt lat="43.58265" lon="5.62886">
<ele>577</ele>
<time>2012-03-24T14:54:46.000Z</time>
</trkpt>
<trkpt lat="43.58263" lon="5.62876">
<ele>577.4</ele>
<time>2012-03-24T14:54:49.000Z</time>
</trkpt>
<trkpt lat="43.58261" lon="5.62871">
<ele>579</ele>
<time>2012-03-24T14:54:51.000Z</time>
</trkpt>
<trkpt lat="43.58259" lon="5.62862">
<ele>579.9</ele>
<time>2012-03-24T14:54:54.000Z</time>
</trkpt>
<trkpt lat="43.58259" lon="5.62856">
<ele>580.6</ele>
<time>2012-03-24T14:54:56.000Z</time>
</trkpt>
<trkpt lat="43.58259" lon="5.62848">
<ele>581.3</ele>
<time>2012-03-24T14:54:58.000Z</time>
</trkpt>
<trkpt lat="43.58258" lon="5.6284">
<ele>581.4</ele>
<time>2012-03-24T14:55:01.000Z</time>
</trkpt>
<trkpt lat="43.58254" lon="5.62831">
<ele>581.3</ele>
<time>2012-03-24T14:55:04.000Z</time>
</trkpt>
<trkpt lat="43.58255" lon="5.6282">
<ele>580.3</ele>
<time>2012-03-24T14:55:06.000Z</time>
</trkpt>
<trkpt lat="43.58256" lon="5.62811">
<ele>580.9</ele>
<time>2012-03-24T14:55:08.000Z</time>
</trkpt>
<trkpt lat="43.58256" lon="5.62804">
<ele>581.1</ele>
<time>2012-03-24T14:55:10.000Z</time>
</trkpt>
<trkpt lat="43.58257" lon="5.62797">
<ele>582.1</ele>
<time>2012-03-24T14:55:12.000Z</time>
</trkpt>
<trkpt lat="43.58256" lon="5.6279">
<ele>582.8</ele>
<time>2012-03-24T14:55:14.000Z</time>
</trkpt>
<trkpt lat="43.58257" lon="5.62782">
<ele>585.5</ele>
<time>2012-03-24T14:55:16.000Z</time>
</trkpt>
<trkpt lat="43.58258" lon="5.62773">
<ele>586</ele>
<time>2012-03-24T14:55:18.000Z</time>
</trkpt>
<trkpt lat="43.58262" lon="5.62766">
<ele>585.3</ele>
<time>2012-03-24T14:55:20.000Z</time>
</trkpt>
<trkpt lat="43.58263" lon="5.62758">
<ele>585.2</ele>
<time>2012-03-24T14:55:22.000Z</time>
</trkpt>
<trkpt lat="43.58268" lon="5.6275">
<ele>585.5</ele>
<time>2012-03-24T14:55:24.000Z</time>
</trkpt>
<trkpt lat="43.58272" lon="5.62742">
<ele>585.9</ele>
<time>2012-03-24T14:55:26.000Z</time>
</trkpt>
<trkpt lat="43.58276" lon="5.62736">
<ele>586.2</ele>
<time>2012-03-24T14:55:28.000Z</time>
</trkpt>
<trkpt lat="43.58278" lon="5.6273">
<ele>586.5</ele>
<time>2012-03-24T14:55:29.000Z</time>
</trkpt>
<trkpt lat="43.58282" lon="5.62722">
<ele>586</ele>
<time>2012-03-24T14:55:31.000Z</time>
</trkpt>
<trkpt lat="43.58286" lon="5.62714">
<ele>586.3</ele>
<time>2012-03-24T14:55:33.000Z</time>
</trkpt>
<trkpt lat="43.58288" lon="5.62706">
<ele>586.3</ele>
<time>2012-03-24T14:55:35.000Z</time>
</trkpt>
<trkpt lat="43.5829" lon="5.62697">
<ele>588.3</ele>
<time>2012-03-24T14:55:37.000Z</time>
</trkpt>
<trkpt lat="43.58292" lon="5.62688">
<ele>589.3</ele>
<time>2012-03-24T14:55:39.000Z</time>
</trkpt>
<trkpt lat="43.58293" lon="5.6268">
<ele>588.9</ele>
<time>2012-03-24T14:55:41.000Z</time>
</trkpt>
<trkpt lat="43.58293" lon="5.62672">
<ele>589.8</ele>
<time>2012-03-24T14:55:43.000Z</time>
</trkpt>
<trkpt lat="43.58291" lon="5.62663">
<ele>590.8</ele>
<time>2012-03-24T14:55:46.000Z</time>
</trkpt>
<trkpt lat="43.58287" lon="5.62658">
<ele>591.2</ele>
<time>2012-03-24T14:55:48.000Z</time>
</trkpt>
<trkpt lat="43.58284" lon="5.62651">
<ele>591.6</ele>
<time>2012-03-24T14:55:51.000Z</time>
</trkpt>
<trkpt lat="43.58282" lon="5.62642">
<ele>593.2</ele>
<time>2012-03-24T14:55:53.000Z</time>
</trkpt>
<trkpt lat="43.5828" lon="5.62635">
<ele>593.4</ele>
<time>2012-03-24T14:55:55.000Z</time>
</trkpt>
<trkpt lat="43.58277" lon="5.6263">
<ele>593.9</ele>
<time>2012-03-24T14:55:57.000Z</time>
</trkpt>
<trkpt lat="43.58274" lon="5.62624">
<ele>594.3</ele>
<time>2012-03-24T14:55:59.000Z</time>
</trkpt>
<trkpt lat="43.58271" lon="5.62619">
<ele>594.8</ele>
<time>2012-03-24T14:56:01.000Z</time>
</trkpt>
<trkpt lat="43.58266" lon="5.62613">
<ele>594.8</ele>
<time>2012-03-24T14:56:03.000Z</time>
</trkpt>
<trkpt lat="43.58264" lon="5.62604">
<ele>595.1</ele>
<time>2012-03-24T14:56:05.000Z</time>
</trkpt>
<trkpt lat="43.58261" lon="5.62596">
<ele>594.7</ele>
<time>2012-03-24T14:56:07.000Z</time>
</trkpt>
<trkpt lat="43.58258" lon="5.62584">
<ele>593.4</ele>
<time>2012-03-24T14:56:09.000Z</time>
</trkpt>
<trkpt lat="43.58257" lon="5.62576">
<ele>592.8</ele>
<time>2012-03-24T14:56:11.000Z</time>
</trkpt>
<trkpt lat="43.58256" lon="5.62566">
<ele>593.9</ele>
<time>2012-03-24T14:56:13.000Z</time>
</trkpt>
<trkpt lat="43.58254" lon="5.62558">
<ele>595.2</ele>
<time>2012-03-24T14:56:15.000Z</time>
</trkpt>
<trkpt lat="43.58253" lon="5.62549">
<ele>594.3</ele>
<time>2012-03-24T14:56:17.000Z</time>
</trkpt>
<trkpt lat="43.58249" lon="5.62538">
<ele>594.1</ele>
<time>2012-03-24T14:56:19.000Z</time>
</trkpt>
<trkpt lat="43.58246" lon="5.62529">
<ele>594</ele>
<time>2012-03-24T14:56:21.000Z</time>
</trkpt>
<trkpt lat="43.58245" lon="5.62522">
<ele>595.4</ele>
<time>2012-03-24T14:56:23.000Z</time>
</trkpt>
<trkpt lat="43.58245" lon="5.62512">
<ele>598</ele>
<time>2012-03-24T14:56:25.000Z</time>
</trkpt>
<trkpt lat="43.58243" lon="5.62503">
<ele>599.7</ele>
<time>2012-03-24T14:56:27.000Z</time>
</trkpt>
<trkpt lat="43.58242" lon="5.62496">
<ele>600.3</ele>
<time>2012-03-24T14:56:29.000Z</time>
</trkpt>
<trkpt lat="43.58241" lon="5.62487">
<ele>601.1</ele>
<time>2012-03-24T14:56:31.000Z</time>
</trkpt>
<trkpt lat="43.58239" lon="5.62478">
<ele>601</ele>
<time>2012-03-24T14:56:33.000Z</time>
</trkpt>
<trkpt lat="43.58239" lon="5.6247">
<ele>600.8</ele>
<time>2012-03-24T14:56:35.000Z</time>
</trkpt>
<trkpt lat="43.58237" lon="5.62462">
<ele>601.7</ele>
<time>2012-03-24T14:56:37.000Z</time>
</trkpt>
<trkpt lat="43.58236" lon="5.62453">
<ele>601.8</ele>
<time>2012-03-24T14:56:39.000Z</time>
</trkpt>
<trkpt lat="43.58234" lon="5.62447">
<ele>602.5</ele>
<time>2012-03-24T14:56:41.000Z</time>
</trkpt>
<trkpt lat="43.58231" lon="5.62442">
<ele>602.9</ele>
<time>2012-03-24T14:56:43.000Z</time>
</trkpt>
<trkpt lat="43.58227" lon="5.62436">
<ele>603.3</ele>
<time>2012-03-24T14:56:45.000Z</time>
</trkpt>
<trkpt lat="43.58225" lon="5.6243">
<ele>603.6</ele>
<time>2012-03-24T14:56:47.000Z</time>
</trkpt>
<trkpt lat="43.58222" lon="5.62424">
<ele>603.8</ele>
<time>2012-03-24T14:56:49.000Z</time>
</trkpt>
<trkpt lat="43.5822" lon="5.62414">
<ele>603.4</ele>
<time>2012-03-24T14:56:51.000Z</time>
</trkpt>
<trkpt lat="43.5822" lon="5.62406">
<ele>603.4</ele>
<time>2012-03-24T14:56:53.000Z</time>
</trkpt>
<trkpt lat="43.58218" lon="5.62399">
<ele>604.1</ele>
<time>2012-03-24T14:56:55.000Z</time>
</trkpt>
<trkpt lat="43.58216" lon="5.62391">
<ele>605.2</ele>
<time>2012-03-24T14:56:57.000Z</time>
</trkpt>
<trkpt lat="43.58214" lon="5.62383">
<ele>610.6</ele>
<time>2012-03-24T14:57:00.000Z</time>
</trkpt>
<trkpt lat="43.5821" lon="5.62375">
<ele>612.1</ele>
<time>2012-03-24T14:57:03.000Z</time>
</trkpt>
<trkpt lat="43.58206" lon="5.62368">
<ele>613</ele>
<time>2012-03-24T14:57:05.000Z</time>
</trkpt>
<trkpt lat="43.58206" lon="5.62359">
<ele>612.9</ele>
<time>2012-03-24T14:57:07.000Z</time>
</trkpt>
<trkpt lat="43.58206" lon="5.62352">
<ele>613.3</ele>
<time>2012-03-24T14:57:09.000Z</time>
</trkpt>
<trkpt lat="43.58206" lon="5.62345">
<ele>613.6</ele>
<time>2012-03-24T14:57:11.000Z</time>
</trkpt>
<trkpt lat="43.58207" lon="5.62335">
<ele>613.6</ele>
<time>2012-03-24T14:57:13.000Z</time>
</trkpt>
<trkpt lat="43.58209" lon="5.62329">
<ele>613.6</ele>
<time>2012-03-24T14:57:14.000Z</time>
</trkpt>
<trkpt lat="43.5821" lon="5.6232">
<ele>613.2</ele>
<time>2012-03-24T14:57:16.000Z</time>
</trkpt>
<trkpt lat="43.58211" lon="5.62312">
<ele>612.5</ele>
<time>2012-03-24T14:57:18.000Z</time>
</trkpt>
<trkpt lat="43.5821" lon="5.62303">
<ele>612.7</ele>
<time>2012-03-24T14:57:20.000Z</time>
</trkpt>
<trkpt lat="43.58212" lon="5.62294">
<ele>613.1</ele>
<time>2012-03-24T14:57:22.000Z</time>
</trkpt>
<trkpt lat="43.58211" lon="5.62284">
<ele>611.9</ele>
<time>2012-03-24T14:57:25.000Z</time>
</trkpt>
<trkpt lat="43.58211" lon="5.62276">
<ele>611.9</ele>
<time>2012-03-24T14:57:27.000Z</time>
</trkpt>
<trkpt lat="43.58209" lon="5.62267">
<ele>611.6</ele>
<time>2012-03-24T14:57:29.000Z</time>
</trkpt>
<trkpt lat="43.58208" lon="5.62258">
<ele>612.3</ele>
<time>2012-03-24T14:57:31.000Z</time>
</trkpt>
<trkpt lat="43.58208" lon="5.62248">
<ele>611.4</ele>
<time>2012-03-24T14:57:33.000Z</time>
</trkpt>
<trkpt lat="43.58208" lon="5.6224">
<ele>613</ele>
<time>2012-03-24T14:57:35.000Z</time>
</trkpt>
<trkpt lat="43.58209" lon="5.62233">
<ele>614.1</ele>
<time>2012-03-24T14:57:36.000Z</time>
</trkpt>
<trkpt lat="43.5821" lon="5.62222">
<ele>615.6</ele>
<time>2012-03-24T14:57:38.000Z</time>
</trkpt>
<trkpt lat="43.58208" lon="5.62214">
<ele>615.6</ele>
<time>2012-03-24T14:57:40.000Z</time>
</trkpt>
<trkpt lat="43.58207" lon="5.62206">
<ele>615</ele>
<time>2012-03-24T14:57:42.000Z</time>
</trkpt>
<trkpt lat="43.58206" lon="5.62198">
<ele>615</ele>
<time>2012-03-24T14:57:44.000Z</time>
</trkpt>
<trkpt lat="43.58205" lon="5.62188">
<ele>614.4</ele>
<time>2012-03-24T14:57:46.000Z</time>
</trkpt>
<trkpt lat="43.58205" lon="5.62182">
<ele>614.8</ele>
<time>2012-03-24T14:57:48.000Z</time>
</trkpt>
<trkpt lat="43.58202" lon="5.62176">
<ele>615.3</ele>
<time>2012-03-24T14:57:50.000Z</time>
</trkpt>
<trkpt lat="43.58199" lon="5.6217">
<ele>616</ele>
<time>2012-03-24T14:57:52.000Z</time>
</trkpt>
<trkpt lat="43.58196" lon="5.62163">
<ele>616.2</ele>
<time>2012-03-24T14:57:54.000Z</time>
</trkpt>
<trkpt lat="43.58192" lon="5.62156">
<ele>617.8</ele>
<time>2012-03-24T14:57:57.000Z</time>
</trkpt>
<trkpt lat="43.5819" lon="5.62149">
<ele>618.4</ele>
<time>2012-03-24T14:57:59.000Z</time>
</trkpt>
<trkpt lat="43.58186" lon="5.62142">
<ele>619.2</ele>
<time>2012-03-24T14:58:01.000Z</time>
</trkpt>
<trkpt lat="43.58182" lon="5.62134">
<ele>620.5</ele>
<time>2012-03-24T14:58:04.000Z</time>
</trkpt>
<trkpt lat="43.58178" lon="5.6213">
<ele>621.5</ele>
<time>2012-03-24T14:58:06.000Z</time>
</trkpt>
<trkpt lat="43.58173" lon="5.62126">
<ele>620.8</ele>
<time>2012-03-24T14:58:08.000Z</time>
</trkpt>
<trkpt lat="43.5817" lon="5.62121">
<ele>622.2</ele>
<time>2012-03-24T14:58:10.000Z</time>
</trkpt>
<trkpt lat="43.58165" lon="5.62116">
<ele>623</ele>
<time>2012-03-24T14:58:13.000Z</time>
</trkpt>
<trkpt lat="43.5816" lon="5.62113">
<ele>623</ele>
<time>2012-03-24T14:58:15.000Z</time>
</trkpt>
<trkpt lat="43.58156" lon="5.6211">
<ele>623.1</ele>
<time>2012-03-24T14:58:17.000Z</time>
</trkpt>
<trkpt lat="43.5815" lon="5.62107">
<ele>623.8</ele>
<time>2012-03-24T14:58:20.000Z</time>
</trkpt>
<trkpt lat="43.58145" lon="5.62103">
<ele>624.1</ele>
<time>2012-03-24T14:58:22.000Z</time>
</trkpt>
<trkpt lat="43.5814" lon="5.621">
<ele>624.5</ele>
<time>2012-03-24T14:58:24.000Z</time>
</trkpt>
<trkpt lat="43.58136" lon="5.62097">
<ele>624.9</ele>
<time>2012-03-24T14:58:26.000Z</time>
</trkpt>
<trkpt lat="43.58131" lon="5.62091">
<ele>625.4</ele>
<time>2012-03-24T14:58:29.000Z</time>
</trkpt>
<trkpt lat="43.58125" lon="5.62088">
<ele>625.4</ele>
<time>2012-03-24T14:58:32.000Z</time>
</trkpt>
<trkpt lat="43.58122" lon="5.62082">
<ele>625.9</ele>
<time>2012-03-24T14:58:34.000Z</time>
</trkpt>
<trkpt lat="43.58115" lon="5.62074">
<ele>623.6</ele>
<time>2012-03-24T14:58:37.000Z</time>
</trkpt>
<trkpt lat="43.58111" lon="5.62068">
<ele>623.3</ele>
<time>2012-03-24T14:58:39.000Z</time>
</trkpt>
<trkpt lat="43.58107" lon="5.62064">
<ele>623.7</ele>
<time>2012-03-24T14:58:41.000Z</time>
</trkpt>
<trkpt lat="43.58103" lon="5.62059">
<ele>624.5</ele>
<time>2012-03-24T14:58:43.000Z</time>
</trkpt>
<trkpt lat="43.58098" lon="5.62055">
<ele>624.7</ele>
<time>2012-03-24T14:58:46.000Z</time>
</trkpt>
<trkpt lat="43.58094" lon="5.62052">
<ele>625.3</ele>
<time>2012-03-24T14:58:48.000Z</time>
</trkpt>
<trkpt lat="43.58088" lon="5.62046">
<ele>626.1</ele>
<time>2012-03-24T14:58:51.000Z</time>
</trkpt>
<trkpt lat="43.58082" lon="5.6204">
<ele>627.5</ele>
<time>2012-03-24T14:58:53.000Z</time>
</trkpt>
<trkpt lat="43.58078" lon="5.62037">
<ele>628.1</ele>
<time>2012-03-24T14:58:55.000Z</time>
</trkpt>
<trkpt lat="43.58071" lon="5.62033">
<ele>628.2</ele>
<time>2012-03-24T14:58:57.000Z</time>
</trkpt>
<trkpt lat="43.58065" lon="5.62028">
<ele>628.7</ele>
<time>2012-03-24T14:59:00.000Z</time>
</trkpt>
<trkpt lat="43.58061" lon="5.62024">
<ele>628.9</ele>
<time>2012-03-24T14:59:03.000Z</time>
</trkpt>
<trkpt lat="43.58055" lon="5.62021">
<ele>628.1</ele>
<time>2012-03-24T14:59:06.000Z</time>
</trkpt>
<trkpt lat="43.5805" lon="5.62023">
<ele>628.7</ele>
<time>2012-03-24T14:59:08.000Z</time>
</trkpt>
<trkpt lat="43.58044" lon="5.62024">
<ele>628.8</ele>
<time>2012-03-24T14:59:10.000Z</time>
</trkpt>
<trkpt lat="43.58038" lon="5.62025">
<ele>628.5</ele>
<time>2012-03-24T14:59:12.000Z</time>
</trkpt>
<trkpt lat="43.58032" lon="5.62027">
<ele>628.5</ele>
<time>2012-03-24T14:59:14.000Z</time>
</trkpt>
<trkpt lat="43.58025" lon="5.62027">
<ele>628.3</ele>
<time>2012-03-24T14:59:16.000Z</time>
</trkpt>
<trkpt lat="43.58019" lon="5.62029">
<ele>628.5</ele>
<time>2012-03-24T14:59:18.000Z</time>
</trkpt>
<trkpt lat="43.58014" lon="5.62031">
<ele>629</ele>
<time>2012-03-24T14:59:20.000Z</time>
</trkpt>
<trkpt lat="43.58008" lon="5.62031">
<ele>628.6</ele>
<time>2012-03-24T14:59:23.000Z</time>
</trkpt>
<trkpt lat="43.58003" lon="5.62031">
<ele>628.9</ele>
<time>2012-03-24T14:59:25.000Z</time>
</trkpt>
<trkpt lat="43.57998" lon="5.62032">
<ele>629.5</ele>
<time>2012-03-24T14:59:27.000Z</time>
</trkpt>
<trkpt lat="43.5799" lon="5.62031">
<ele>629.8</ele>
<time>2012-03-24T14:59:29.000Z</time>
</trkpt>
<trkpt lat="43.57986" lon="5.62028">
<ele>629.6</ele>
<time>2012-03-24T14:59:31.000Z</time>
</trkpt>
<trkpt lat="43.5798" lon="5.62023">
<ele>630.6</ele>
<time>2012-03-24T14:59:33.000Z</time>
</trkpt>
<trkpt lat="43.57976" lon="5.62014">
<ele>633.7</ele>
<time>2012-03-24T14:59:36.000Z</time>
</trkpt>
<trkpt lat="43.57974" lon="5.62007">
<ele>633.1</ele>
<time>2012-03-24T14:59:37.000Z</time>
</trkpt>
<trkpt lat="43.57974" lon="5.62">
<ele>631.8</ele>
<time>2012-03-24T14:59:38.000Z</time>
</trkpt>
<trkpt lat="43.57972" lon="5.61989">
<ele>630.3</ele>
<time>2012-03-24T14:59:41.000Z</time>
</trkpt>
<trkpt lat="43.57973" lon="5.61978">
<ele>629.7</ele>
<time>2012-03-24T14:59:43.000Z</time>
</trkpt>
<trkpt lat="43.57973" lon="5.61971">
<ele>630.5</ele>
<time>2012-03-24T14:59:45.000Z</time>
</trkpt>
<trkpt lat="43.57976" lon="5.61962">
<ele>633.6</ele>
<time>2012-03-24T14:59:47.000Z</time>
</trkpt>
<trkpt lat="43.57977" lon="5.61955">
<ele>635.6</ele>
<time>2012-03-24T14:59:49.000Z</time>
</trkpt>
<trkpt lat="43.57978" lon="5.61948">
<ele>637.6</ele>
<time>2012-03-24T14:59:52.000Z</time>
</trkpt>
<trkpt lat="43.57979" lon="5.61939">
<ele>639</ele>
<time>2012-03-24T14:59:55.000Z</time>
</trkpt>
<trkpt lat="43.57981" lon="5.6193">
<ele>639.8</ele>
<time>2012-03-24T14:59:57.000Z</time>
</trkpt>
<trkpt lat="43.57983" lon="5.61924">
<ele>640.3</ele>
<time>2012-03-24T14:59:59.000Z</time>
</trkpt>
<trkpt lat="43.57986" lon="5.61915">
<ele>640.9</ele>
<time>2012-03-24T15:00:01.000Z</time>
</trkpt>
<trkpt lat="43.57988" lon="5.61904">
<ele>643.4</ele>
<time>2012-03-24T15:00:03.000Z</time>
</trkpt>
<trkpt lat="43.57987" lon="5.61893">
<ele>644</ele>
<time>2012-03-24T15:00:05.000Z</time>
</trkpt>
<trkpt lat="43.57983" lon="5.61888">
<ele>644.9</ele>
<time>2012-03-24T15:00:07.000Z</time>
</trkpt>
<trkpt lat="43.57982" lon="5.61882">
<ele>647.2</ele>
<time>2012-03-24T15:00:11.000Z</time>
</trkpt>
<trkpt lat="43.57976" lon="5.61884">
<ele>648.4</ele>
<time>2012-03-24T15:00:14.000Z</time>
</trkpt>
<trkpt lat="43.57972" lon="5.61888">
<ele>648.5</ele>
<time>2012-03-24T15:00:17.000Z</time>
</trkpt>
<trkpt lat="43.57968" lon="5.61894">
<ele>648.4</ele>
<time>2012-03-24T15:00:20.000Z</time>
</trkpt>
<trkpt lat="43.57966" lon="5.61903">
<ele>647.7</ele>
<time>2012-03-24T15:00:22.000Z</time>
</trkpt>
<trkpt lat="43.57964" lon="5.61909">
<ele>647.4</ele>
<time>2012-03-24T15:00:24.000Z</time>
</trkpt>
<trkpt lat="43.57961" lon="5.61916">
<ele>647.3</ele>
<time>2012-03-24T15:00:26.000Z</time>
</trkpt>
<trkpt lat="43.57956" lon="5.61923">
<ele>647.4</ele>
<time>2012-03-24T15:00:28.000Z</time>
</trkpt>
<trkpt lat="43.57953" lon="5.61929">
<ele>648.5</ele>
<time>2012-03-24T15:00:30.000Z</time>
</trkpt>
<trkpt lat="43.5795" lon="5.61938">
<ele>647.8</ele>
<time>2012-03-24T15:00:32.000Z</time>
</trkpt>
<trkpt lat="43.57947" lon="5.61947">
<ele>649.4</ele>
<time>2012-03-24T15:00:34.000Z</time>
</trkpt>
<trkpt lat="43.57946" lon="5.61954">
<ele>653.1</ele>
<time>2012-03-24T15:00:37.000Z</time>
</trkpt>
<trkpt lat="43.57942" lon="5.61961">
<ele>653.5</ele>
<time>2012-03-24T15:00:39.000Z</time>
</trkpt>
<trkpt lat="43.5794" lon="5.61968">
<ele>653.5</ele>
<time>2012-03-24T15:00:41.000Z</time>
</trkpt>
<trkpt lat="43.57937" lon="5.61976">
<ele>653.7</ele>
<time>2012-03-24T15:00:43.000Z</time>
</trkpt>
<trkpt lat="43.57937" lon="5.61986">
<ele>654.7</ele>
<time>2012-03-24T15:00:46.000Z</time>
</trkpt>
<trkpt lat="43.57936" lon="5.61993">
<ele>655.6</ele>
<time>2012-03-24T15:00:48.000Z</time>
</trkpt>
<trkpt lat="43.57936" lon="5.62002">
<ele>655.8</ele>
<time>2012-03-24T15:00:50.000Z</time>
</trkpt>
<trkpt lat="43.57932" lon="5.6201">
<ele>656.1</ele>
<time>2012-03-24T15:00:52.000Z</time>
</trkpt>
<trkpt lat="43.57932" lon="5.6202">
<ele>656.5</ele>
<time>2012-03-24T15:00:55.000Z</time>
</trkpt>
<trkpt lat="43.57932" lon="5.62029">
<ele>656.9</ele>
<time>2012-03-24T15:00:57.000Z</time>
</trkpt>
<trkpt lat="43.57934" lon="5.62036">
<ele>655.5</ele>
<time>2012-03-24T15:00:59.000Z</time>
</trkpt>
<trkpt lat="43.57941" lon="5.62047">
<ele>657.5</ele>
<time>2012-03-24T15:01:01.000Z</time>
</trkpt>
<trkpt lat="43.57943" lon="5.62053">
<ele>658.1</ele>
<time>2012-03-24T15:01:02.000Z</time>
</trkpt>
<trkpt lat="43.57949" lon="5.62065">
<ele>659.6</ele>
<time>2012-03-24T15:01:03.000Z</time>
</trkpt>
<trkpt lat="43.5794" lon="5.62069">
<ele>660.4</ele>
<time>2012-03-24T15:01:06.000Z</time>
</trkpt>
<trkpt lat="43.57938" lon="5.62079">
<ele>660.2</ele>
<time>2012-03-24T15:01:08.000Z</time>
</trkpt>
<trkpt lat="43.57936" lon="5.62086">
<ele>659.8</ele>
<time>2012-03-24T15:01:11.000Z</time>
</trkpt>
<trkpt lat="43.57935" lon="5.62094">
<ele>660.2</ele>
<time>2012-03-24T15:01:12.000Z</time>
</trkpt>
<trkpt lat="43.57932" lon="5.62102">
<ele>659.9</ele>
<time>2012-03-24T15:01:14.000Z</time>
</trkpt>
<trkpt lat="43.57923" lon="5.62092">
<ele>659.5</ele>
<time>2012-03-24T15:01:16.000Z</time>
</trkpt>
<trkpt lat="43.57919" lon="5.6208">
<ele>658.7</ele>
<time>2012-03-24T15:01:17.000Z</time>
</trkpt>
<trkpt lat="43.57915" lon="5.62067">
<ele>659.4</ele>
<time>2012-03-24T15:01:18.000Z</time>
</trkpt>
<trkpt lat="43.57912" lon="5.6206">
<ele>659.8</ele>
<time>2012-03-24T15:01:19.000Z</time>
</trkpt>
<trkpt lat="43.57913" lon="5.62053">
<ele>660.6</ele>
<time>2012-03-24T15:01:20.000Z</time>
</trkpt>
<trkpt lat="43.57911" lon="5.62044">
<ele>661.7</ele>
<time>2012-03-24T15:01:21.000Z</time>
</trkpt>
<trkpt lat="43.57909" lon="5.62038">
<ele>661.5</ele>
<time>2012-03-24T15:01:22.000Z</time>
</trkpt>
<trkpt lat="43.57909" lon="5.62027">
<ele>661.9</ele>
<time>2012-03-24T15:01:24.000Z</time>
</trkpt>
<trkpt lat="43.57906" lon="5.62019">
<ele>662</ele>
<time>2012-03-24T15:01:26.000Z</time>
</trkpt>
<trkpt lat="43.57906" lon="5.62007">
<ele>665.5</ele>
<time>2012-03-24T15:01:28.000Z</time>
</trkpt>
<trkpt lat="43.57904" lon="5.62001">
<ele>666.8</ele>
<time>2012-03-24T15:01:29.000Z</time>
</trkpt>
<trkpt lat="43.57903" lon="5.61995">
<ele>667.3</ele>
<time>2012-03-24T15:01:30.000Z</time>
</trkpt>
<trkpt lat="43.57899" lon="5.61986">
<ele>668.2</ele>
<time>2012-03-24T15:01:32.000Z</time>
</trkpt>
<trkpt lat="43.57896" lon="5.6198">
<ele>667.7</ele>
<time>2012-03-24T15:01:34.000Z</time>
</trkpt>
<trkpt lat="43.57892" lon="5.61976">
<ele>667.2</ele>
<time>2012-03-24T15:01:36.000Z</time>
</trkpt>
<trkpt lat="43.57887" lon="5.61973">
<ele>668.8</ele>
<time>2012-03-24T15:01:39.000Z</time>
</trkpt>
<trkpt lat="43.57883" lon="5.61969">
<ele>668.2</ele>
<time>2012-03-24T15:01:41.000Z</time>
</trkpt>
<trkpt lat="43.5788" lon="5.61963">
<ele>668.5</ele>
<time>2012-03-24T15:01:52.000Z</time>
</trkpt>
<trkpt lat="43.57876" lon="5.61961">
<ele>661.9</ele>
<time>2012-03-24T15:05:44.000Z</time>
</trkpt>
<trkpt lat="43.57869" lon="5.61959">
<ele>662.7</ele>
<time>2012-03-24T15:05:47.000Z</time>
</trkpt>
<trkpt lat="43.57864" lon="5.61957">
<ele>662.5</ele>
<time>2012-03-24T15:05:49.000Z</time>
</trkpt>
<trkpt lat="43.57858" lon="5.61954">
<ele>662.4</ele>
<time>2012-03-24T15:05:51.000Z</time>
</trkpt>
<trkpt lat="43.57851" lon="5.61952">
<ele>662.5</ele>
<time>2012-03-24T15:05:53.000Z</time>
</trkpt>
<trkpt lat="43.57843" lon="5.6195">
<ele>662.5</ele>
<time>2012-03-24T15:05:55.000Z</time>
</trkpt>
<trkpt lat="43.57834" lon="5.61947">
<ele>661.8</ele>
<time>2012-03-24T15:05:57.000Z</time>
</trkpt>
<trkpt lat="43.57826" lon="5.61945">
<ele>661.2</ele>
<time>2012-03-24T15:05:59.000Z</time>
</trkpt>
<trkpt lat="43.57817" lon="5.61944">
<ele>661.3</ele>
<time>2012-03-24T15:06:01.000Z</time>
</trkpt>
<trkpt lat="43.57811" lon="5.61944">
<ele>660.9</ele>
<time>2012-03-24T15:06:02.000Z</time>
</trkpt>
<trkpt lat="43.57806" lon="5.61944">
<ele>661.2</ele>
<time>2012-03-24T15:06:03.000Z</time>
</trkpt>
<trkpt lat="43.57799" lon="5.61945">
<ele>661.3</ele>
<time>2012-03-24T15:06:04.000Z</time>
</trkpt>
<trkpt lat="43.57793" lon="5.61945">
<ele>661.1</ele>
<time>2012-03-24T15:06:05.000Z</time>
</trkpt>
<trkpt lat="43.57785" lon="5.61947">
<ele>661.3</ele>
<time>2012-03-24T15:06:06.000Z</time>
</trkpt>
<trkpt lat="43.57778" lon="5.61948">
<ele>661.3</ele>
<time>2012-03-24T15:06:07.000Z</time>
</trkpt>
<trkpt lat="43.5777" lon="5.61951">
<ele>661.2</ele>
<time>2012-03-24T15:06:08.000Z</time>
</trkpt>
<trkpt lat="43.57761" lon="5.61952">
<ele>660.4</ele>
<time>2012-03-24T15:06:09.000Z</time>
</trkpt>
<trkpt lat="43.57753" lon="5.61953">
<ele>660.4</ele>
<time>2012-03-24T15:06:10.000Z</time>
</trkpt>
<trkpt lat="43.57744" lon="5.61956">
<ele>660.6</ele>
<time>2012-03-24T15:06:11.000Z</time>
</trkpt>
<trkpt lat="43.57736" lon="5.61958">
<ele>660.1</ele>
<time>2012-03-24T15:06:12.000Z</time>
</trkpt>
<trkpt lat="43.57728" lon="5.61962">
<ele>660.5</ele>
<time>2012-03-24T15:06:13.000Z</time>
</trkpt>
<trkpt lat="43.57721" lon="5.61969">
<ele>660.2</ele>
<time>2012-03-24T15:06:14.000Z</time>
</trkpt>
<trkpt lat="43.57713" lon="5.61978">
<ele>658.6</ele>
<time>2012-03-24T15:06:15.000Z</time>
</trkpt>
<trkpt lat="43.57705" lon="5.61987">
<ele>658</ele>
<time>2012-03-24T15:06:16.000Z</time>
</trkpt>
<trkpt lat="43.57698" lon="5.61996">
<ele>656.8</ele>
<time>2012-03-24T15:06:17.000Z</time>
</trkpt>
<trkpt lat="43.57691" lon="5.62006">
<ele>655.8</ele>
<time>2012-03-24T15:06:18.000Z</time>
</trkpt>
<trkpt lat="43.57684" lon="5.62015">
<ele>654.9</ele>
<time>2012-03-24T15:06:19.000Z</time>
</trkpt>
<trkpt lat="43.57676" lon="5.62024">
<ele>653.9</ele>
<time>2012-03-24T15:06:20.000Z</time>
</trkpt>
<trkpt lat="43.57669" lon="5.62034">
<ele>652.9</ele>
<time>2012-03-24T15:06:21.000Z</time>
</trkpt>
<trkpt lat="43.57662" lon="5.62043">
<ele>652</ele>
<time>2012-03-24T15:06:22.000Z</time>
</trkpt>
<trkpt lat="43.57655" lon="5.62053">
<ele>651</ele>
<time>2012-03-24T15:06:23.000Z</time>
</trkpt>
<trkpt lat="43.57648" lon="5.62062">
<ele>650.1</ele>
<time>2012-03-24T15:06:24.000Z</time>
</trkpt>
<trkpt lat="43.57641" lon="5.62072">
<ele>649.1</ele>
<time>2012-03-24T15:06:25.000Z</time>
</trkpt>
<trkpt lat="43.57634" lon="5.62081">
<ele>648.2</ele>
<time>2012-03-24T15:06:26.000Z</time>
</trkpt>
<trkpt lat="43.57626" lon="5.6209">
<ele>647.2</ele>
<time>2012-03-24T15:06:27.000Z</time>
</trkpt>
<trkpt lat="43.57619" lon="5.621">
<ele>646.2</ele>
<time>2012-03-24T15:06:28.000Z</time>
</trkpt>
<trkpt lat="43.57612" lon="5.62109">
<ele>645.3</ele>
<time>2012-03-24T15:06:29.000Z</time>
</trkpt>
<trkpt lat="43.57605" lon="5.62119">
<ele>644.3</ele>
<time>2012-03-24T15:06:30.000Z</time>
</trkpt>
<trkpt lat="43.57598" lon="5.62128">
<ele>643.4</ele>
<time>2012-03-24T15:06:31.000Z</time>
</trkpt>
<trkpt lat="43.57591" lon="5.62137">
<ele>642.4</ele>
<time>2012-03-24T15:06:32.000Z</time>
</trkpt>
<trkpt lat="43.57584" lon="5.62147">
<ele>641.5</ele>
<time>2012-03-24T15:06:33.000Z</time>
</trkpt>
<trkpt lat="43.57576" lon="5.62156">
<ele>640.5</ele>
<time>2012-03-24T15:06:34.000Z</time>
</trkpt>
<trkpt lat="43.57556" lon="5.62196">
<ele>645.7</ele>
<time>2012-03-24T15:06:37.000Z</time>
</trkpt>
<trkpt lat="43.57547" lon="5.62197">
<ele>643.7</ele>
<time>2012-03-24T15:06:38.000Z</time>
</trkpt>
<trkpt lat="43.57538" lon="5.622">
<ele>642.4</ele>
<time>2012-03-24T15:06:39.000Z</time>
</trkpt>
<trkpt lat="43.57531" lon="5.62203">
<ele>645</ele>
<time>2012-03-24T15:06:40.000Z</time>
</trkpt>
<trkpt lat="43.57522" lon="5.62198">
<ele>644.8</ele>
<time>2012-03-24T15:06:41.000Z</time>
</trkpt>
<trkpt lat="43.57513" lon="5.62192">
<ele>641.9</ele>
<time>2012-03-24T15:06:42.000Z</time>
</trkpt>
<trkpt lat="43.57505" lon="5.62184">
<ele>640.5</ele>
<time>2012-03-24T15:06:43.000Z</time>
</trkpt>
<trkpt lat="43.57499" lon="5.62173">
<ele>638.6</ele>
<time>2012-03-24T15:06:44.000Z</time>
</trkpt>
<trkpt lat="43.57495" lon="5.62162">
<ele>635.6</ele>
<time>2012-03-24T15:06:45.000Z</time>
</trkpt>
<trkpt lat="43.57493" lon="5.62147">
<ele>635.5</ele>
<time>2012-03-24T15:06:46.000Z</time>
</trkpt>
<trkpt lat="43.57491" lon="5.62133">
<ele>634</ele>
<time>2012-03-24T15:06:47.000Z</time>
</trkpt>
<trkpt lat="43.57492" lon="5.62112">
<ele>630.1</ele>
<time>2012-03-24T15:06:48.000Z</time>
</trkpt>
<trkpt lat="43.57491" lon="5.62096">
<ele>629.6</ele>
<time>2012-03-24T15:06:49.000Z</time>
</trkpt>
<trkpt lat="43.57493" lon="5.62078">
<ele>628.8</ele>
<time>2012-03-24T15:06:50.000Z</time>
</trkpt>
<trkpt lat="43.57494" lon="5.62059">
<ele>627.6</ele>
<time>2012-03-24T15:06:51.000Z</time>
</trkpt>
<trkpt lat="43.57496" lon="5.62043">
<ele>627.3</ele>
<time>2012-03-24T15:06:52.000Z</time>
</trkpt>
<trkpt lat="43.57497" lon="5.62026">
<ele>627.7</ele>
<time>2012-03-24T15:06:53.000Z</time>
</trkpt>
<trkpt lat="43.57498" lon="5.62007">
<ele>626.4</ele>
<time>2012-03-24T15:06:54.000Z</time>
</trkpt>
<trkpt lat="43.575" lon="5.61989">
<ele>626.2</ele>
<time>2012-03-24T15:06:55.000Z</time>
</trkpt>
<trkpt lat="43.575" lon="5.61972">
<ele>625.3</ele>
<time>2012-03-24T15:06:56.000Z</time>
</trkpt>
<trkpt lat="43.57499" lon="5.61954">
<ele>624.3</ele>
<time>2012-03-24T15:06:57.000Z</time>
</trkpt>
<trkpt lat="43.57497" lon="5.61935">
<ele>624</ele>
<time>2012-03-24T15:06:58.000Z</time>
</trkpt>
<trkpt lat="43.57496" lon="5.61918">
<ele>624.6</ele>
<time>2012-03-24T15:06:59.000Z</time>
</trkpt>
<trkpt lat="43.57495" lon="5.619">
<ele>624.6</ele>
<time>2012-03-24T15:07:00.000Z</time>
</trkpt>
<trkpt lat="43.57491" lon="5.61881">
<ele>624.3</ele>
<time>2012-03-24T15:07:01.000Z</time>
</trkpt>
<trkpt lat="43.57487" lon="5.61863">
<ele>624.1</ele>
<time>2012-03-24T15:07:02.000Z</time>
</trkpt>
<trkpt lat="43.57482" lon="5.61847">
<ele>623.4</ele>
<time>2012-03-24T15:07:03.000Z</time>
</trkpt>
<trkpt lat="43.57479" lon="5.61828">
<ele>623.5</ele>
<time>2012-03-24T15:07:04.000Z</time>
</trkpt>
<trkpt lat="43.57473" lon="5.61811">
<ele>624</ele>
<time>2012-03-24T15:07:05.000Z</time>
</trkpt>
<trkpt lat="43.57469" lon="5.61796">
<ele>622.1</ele>
<time>2012-03-24T15:07:06.000Z</time>
</trkpt>
<trkpt lat="43.57464" lon="5.61779">
<ele>621.6</ele>
<time>2012-03-24T15:07:07.000Z</time>
</trkpt>
<trkpt lat="43.57459" lon="5.61764">
<ele>620.3</ele>
<time>2012-03-24T15:07:08.000Z</time>
</trkpt>
<trkpt lat="43.57456" lon="5.61751">
<ele>619.2</ele>
<time>2012-03-24T15:07:09.000Z</time>
</trkpt>
<trkpt lat="43.57453" lon="5.61736">
<ele>618.6</ele>
<time>2012-03-24T15:07:10.000Z</time>
</trkpt>
<trkpt lat="43.57452" lon="5.61721">
<ele>619.1</ele>
<time>2012-03-24T15:07:11.000Z</time>
</trkpt>
<trkpt lat="43.5745" lon="5.61706">
<ele>619.1</ele>
<time>2012-03-24T15:07:12.000Z</time>
</trkpt>
<trkpt lat="43.57447" lon="5.61693">
<ele>619.5</ele>
<time>2012-03-24T15:07:13.000Z</time>
</trkpt>
<trkpt lat="43.57444" lon="5.61682">
<ele>619.4</ele>
<time>2012-03-24T15:07:14.000Z</time>
</trkpt>
<trkpt lat="43.57439" lon="5.6167">
<ele>619.2</ele>
<time>2012-03-24T15:07:15.000Z</time>
</trkpt>
<trkpt lat="43.57431" lon="5.61661">
<ele>618.7</ele>
<time>2012-03-24T15:07:16.000Z</time>
</trkpt>
<trkpt lat="43.57419" lon="5.61657">
<ele>618.4</ele>
<time>2012-03-24T15:07:17.000Z</time>
</trkpt>
<trkpt lat="43.5741" lon="5.61653">
<ele>618.6</ele>
<time>2012-03-24T15:07:18.000Z</time>
</trkpt>
<trkpt lat="43.57402" lon="5.6165">
<ele>617.6</ele>
<time>2012-03-24T15:07:19.000Z</time>
</trkpt>
<trkpt lat="43.57393" lon="5.61646">
<ele>616.7</ele>
<time>2012-03-24T15:07:20.000Z</time>
</trkpt>
<trkpt lat="43.57385" lon="5.61644">
<ele>617.1</ele>
<time>2012-03-24T15:07:21.000Z</time>
</trkpt>
<trkpt lat="43.57377" lon="5.61644">
<ele>615.9</ele>
<time>2012-03-24T15:07:22.000Z</time>
</trkpt>
<trkpt lat="43.57369" lon="5.61645">
<ele>615.3</ele>
<time>2012-03-24T15:07:23.000Z</time>
</trkpt>
<trkpt lat="43.57362" lon="5.61653">
<ele>615.2</ele>
<time>2012-03-24T15:07:24.000Z</time>
</trkpt>
<trkpt lat="43.57356" lon="5.6166">
<ele>615.2</ele>
<time>2012-03-24T15:07:25.000Z</time>
</trkpt>
<trkpt lat="43.57352" lon="5.61671">
<ele>613.8</ele>
<time>2012-03-24T15:07:26.000Z</time>
</trkpt>
<trkpt lat="43.57348" lon="5.6168">
<ele>612.5</ele>
<time>2012-03-24T15:07:27.000Z</time>
</trkpt>
<trkpt lat="43.57343" lon="5.61689">
<ele>611.8</ele>
<time>2012-03-24T15:07:28.000Z</time>
</trkpt>
<trkpt lat="43.57337" lon="5.61696">
<ele>610.7</ele>
<time>2012-03-24T15:07:29.000Z</time>
</trkpt>
<trkpt lat="43.57331" lon="5.61701">
<ele>610.2</ele>
<time>2012-03-24T15:07:30.000Z</time>
</trkpt>
<trkpt lat="43.57323" lon="5.61705">
<ele>610</ele>
<time>2012-03-24T15:07:31.000Z</time>
</trkpt>
<trkpt lat="43.57317" lon="5.61707">
<ele>610</ele>
<time>2012-03-24T15:07:32.000Z</time>
</trkpt>
<trkpt lat="43.5731" lon="5.61707">
<ele>609.7</ele>
<time>2012-03-24T15:07:33.000Z</time>
</trkpt>
<trkpt lat="43.57302" lon="5.61704">
<ele>609.9</ele>
<time>2012-03-24T15:07:34.000Z</time>
</trkpt>
<trkpt lat="43.57293" lon="5.61695">
<ele>609.4</ele>
<time>2012-03-24T15:07:35.000Z</time>
</trkpt>
<trkpt lat="43.57286" lon="5.61689">
<ele>609.2</ele>
<time>2012-03-24T15:07:36.000Z</time>
</trkpt>
<trkpt lat="43.57277" lon="5.61685">
<ele>609</ele>
<time>2012-03-24T15:07:37.000Z</time>
</trkpt>
<trkpt lat="43.5727" lon="5.61681">
<ele>608.8</ele>
<time>2012-03-24T15:07:38.000Z</time>
</trkpt>
<trkpt lat="43.57261" lon="5.61676">
<ele>608.6</ele>
<time>2012-03-24T15:07:39.000Z</time>
</trkpt>
<trkpt lat="43.57253" lon="5.61672">
<ele>608.8</ele>
<time>2012-03-24T15:07:40.000Z</time>
</trkpt>
<trkpt lat="43.57244" lon="5.61669">
<ele>608.8</ele>
<time>2012-03-24T15:07:41.000Z</time>
</trkpt>
<trkpt lat="43.57237" lon="5.61664">
<ele>608.6</ele>
<time>2012-03-24T15:07:42.000Z</time>
</trkpt>
<trkpt lat="43.57228" lon="5.6166">
<ele>608.4</ele>
<time>2012-03-24T15:07:43.000Z</time>
</trkpt>
<trkpt lat="43.57219" lon="5.61658">
<ele>607.7</ele>
<time>2012-03-24T15:07:44.000Z</time>
</trkpt>
<trkpt lat="43.57211" lon="5.61655">
<ele>607.4</ele>
<time>2012-03-24T15:07:45.000Z</time>
</trkpt>
<trkpt lat="43.57203" lon="5.61654">
<ele>607.2</ele>
<time>2012-03-24T15:07:46.000Z</time>
</trkpt>
<trkpt lat="43.57196" lon="5.61658">
<ele>607.3</ele>
<time>2012-03-24T15:07:47.000Z</time>
</trkpt>
<trkpt lat="43.57192" lon="5.61665">
<ele>606.9</ele>
<time>2012-03-24T15:07:48.000Z</time>
</trkpt>
<trkpt lat="43.57194" lon="5.61678">
<ele>605.1</ele>
<time>2012-03-24T15:07:49.000Z</time>
</trkpt>
<trkpt lat="43.57192" lon="5.61689">
<ele>604.7</ele>
<time>2012-03-24T15:07:50.000Z</time>
</trkpt>
<trkpt lat="43.57191" lon="5.61699">
<ele>604.4</ele>
<time>2012-03-24T15:07:51.000Z</time>
</trkpt>
<trkpt lat="43.57187" lon="5.61706">
<ele>604.6</ele>
<time>2012-03-24T15:07:52.000Z</time>
</trkpt>
<trkpt lat="43.57183" lon="5.61713">
<ele>603.9</ele>
<time>2012-03-24T15:07:53.000Z</time>
</trkpt>
<trkpt lat="43.57178" lon="5.61717">
<ele>603.8</ele>
<time>2012-03-24T15:07:54.000Z</time>
</trkpt>
<trkpt lat="43.57173" lon="5.61716">
<ele>603.7</ele>
<time>2012-03-24T15:07:55.000Z</time>
</trkpt>
<trkpt lat="43.57167" lon="5.61712">
<ele>603.4</ele>
<time>2012-03-24T15:07:56.000Z</time>
</trkpt>
<trkpt lat="43.57162" lon="5.61706">
<ele>603.6</ele>
<time>2012-03-24T15:07:57.000Z</time>
</trkpt>
<trkpt lat="43.57157" lon="5.61697">
<ele>603.7</ele>
<time>2012-03-24T15:07:58.000Z</time>
</trkpt>
<trkpt lat="43.57153" lon="5.61687">
<ele>603.3</ele>
<time>2012-03-24T15:07:59.000Z</time>
</trkpt>
<trkpt lat="43.5715" lon="5.61678">
<ele>603.3</ele>
<time>2012-03-24T15:08:00.000Z</time>
</trkpt>
<trkpt lat="43.57146" lon="5.6167">
<ele>603.2</ele>
<time>2012-03-24T15:08:01.000Z</time>
</trkpt>
<trkpt lat="43.57142" lon="5.61662">
<ele>602.9</ele>
<time>2012-03-24T15:08:02.000Z</time>
</trkpt>
<trkpt lat="43.57136" lon="5.61654">
<ele>603.1</ele>
<time>2012-03-24T15:08:03.000Z</time>
</trkpt>
<trkpt lat="43.57129" lon="5.61648">
<ele>602.8</ele>
<time>2012-03-24T15:08:04.000Z</time>
</trkpt>
<trkpt lat="43.57122" lon="5.61643">
<ele>602.3</ele>
<time>2012-03-24T15:08:05.000Z</time>
</trkpt>
<trkpt lat="43.57114" lon="5.61638">
<ele>602.2</ele>
<time>2012-03-24T15:08:06.000Z</time>
</trkpt>
<trkpt lat="43.57107" lon="5.61634">
<ele>601.5</ele>
<time>2012-03-24T15:08:07.000Z</time>
</trkpt>
<trkpt lat="43.571" lon="5.61633">
<ele>601.2</ele>
<time>2012-03-24T15:08:08.000Z</time>
</trkpt>
<trkpt lat="43.57093" lon="5.61632">
<ele>601.2</ele>
<time>2012-03-24T15:08:09.000Z</time>
</trkpt>
<trkpt lat="43.57086" lon="5.6163">
<ele>600.3</ele>
<time>2012-03-24T15:08:10.000Z</time>
</trkpt>
<trkpt lat="43.57078" lon="5.61626">
<ele>600</ele>
<time>2012-03-24T15:08:11.000Z</time>
</trkpt>
<trkpt lat="43.5707" lon="5.61625">
<ele>599.2</ele>
<time>2012-03-24T15:08:12.000Z</time>
</trkpt>
<trkpt lat="43.57061" lon="5.61623">
<ele>599.2</ele>
<time>2012-03-24T15:08:13.000Z</time>
</trkpt>
<trkpt lat="43.57054" lon="5.61624">
<ele>598.9</ele>
<time>2012-03-24T15:08:14.000Z</time>
</trkpt>
<trkpt lat="43.57043" lon="5.61622">
<ele>598.2</ele>
<time>2012-03-24T15:08:15.000Z</time>
</trkpt>
<trkpt lat="43.57033" lon="5.6162">
<ele>597.7</ele>
<time>2012-03-24T15:08:16.000Z</time>
</trkpt>
<trkpt lat="43.57023" lon="5.61618">
<ele>597.5</ele>
<time>2012-03-24T15:08:17.000Z</time>
</trkpt>
<trkpt lat="43.57015" lon="5.61614">
<ele>597.7</ele>
<time>2012-03-24T15:08:18.000Z</time>
</trkpt>
<trkpt lat="43.57009" lon="5.61615">
<ele>597.8</ele>
<time>2012-03-24T15:08:19.000Z</time>
</trkpt>
<trkpt lat="43.57002" lon="5.61614">
<ele>597</ele>
<time>2012-03-24T15:08:20.000Z</time>
</trkpt>
<trkpt lat="43.56995" lon="5.61618">
<ele>596.7</ele>
<time>2012-03-24T15:08:21.000Z</time>
</trkpt>
<trkpt lat="43.56991" lon="5.61624">
<ele>596.4</ele>
<time>2012-03-24T15:08:22.000Z</time>
</trkpt>
<trkpt lat="43.56987" lon="5.61631">
<ele>596.2</ele>
<time>2012-03-24T15:08:23.000Z</time>
</trkpt>
<trkpt lat="43.56987" lon="5.61648">
<ele>592.1</ele>
<time>2012-03-24T15:08:24.000Z</time>
</trkpt>
<trkpt lat="43.56984" lon="5.61657">
<ele>591.4</ele>
<time>2012-03-24T15:08:25.000Z</time>
</trkpt>
<trkpt lat="43.56982" lon="5.61668">
<ele>591.1</ele>
<time>2012-03-24T15:08:26.000Z</time>
</trkpt>
<trkpt lat="43.5698" lon="5.61678">
<ele>590.8</ele>
<time>2012-03-24T15:08:27.000Z</time>
</trkpt>
<trkpt lat="43.56977" lon="5.61687">
<ele>590.1</ele>
<time>2012-03-24T15:08:28.000Z</time>
</trkpt>
<trkpt lat="43.56974" lon="5.61696">
<ele>590</ele>
<time>2012-03-24T15:08:29.000Z</time>
</trkpt>
<trkpt lat="43.5697" lon="5.61701">
<ele>589.6</ele>
<time>2012-03-24T15:08:30.000Z</time>
</trkpt>
<trkpt lat="43.56963" lon="5.61702">
<ele>589.7</ele>
<time>2012-03-24T15:08:31.000Z</time>
</trkpt>
<trkpt lat="43.56959" lon="5.61702">
<ele>589.7</ele>
<time>2012-03-24T15:08:32.000Z</time>
</trkpt>
<trkpt lat="43.56952" lon="5.61702">
<ele>589.6</ele>
<time>2012-03-24T15:08:33.000Z</time>
</trkpt>
<trkpt lat="43.56946" lon="5.61697">
<ele>589.6</ele>
<time>2012-03-24T15:08:34.000Z</time>
</trkpt>
<trkpt lat="43.5694" lon="5.61692">
<ele>589.5</ele>
<time>2012-03-24T15:08:35.000Z</time>
</trkpt>
<trkpt lat="43.56934" lon="5.61685">
<ele>589.5</ele>
<time>2012-03-24T15:08:36.000Z</time>
</trkpt>
<trkpt lat="43.56928" lon="5.61678">
<ele>589.1</ele>
<time>2012-03-24T15:08:37.000Z</time>
</trkpt>
<trkpt lat="43.56922" lon="5.61668">
<ele>588.9</ele>
<time>2012-03-24T15:08:38.000Z</time>
</trkpt>
<trkpt lat="43.56914" lon="5.61661">
<ele>588.4</ele>
<time>2012-03-24T15:08:39.000Z</time>
</trkpt>
<trkpt lat="43.56906" lon="5.61657">
<ele>587.7</ele>
<time>2012-03-24T15:08:40.000Z</time>
</trkpt>
<trkpt lat="43.56897" lon="5.61654">
<ele>587.1</ele>
<time>2012-03-24T15:08:41.000Z</time>
</trkpt>
<trkpt lat="43.56887" lon="5.61653">
<ele>587.2</ele>
<time>2012-03-24T15:08:42.000Z</time>
</trkpt>
<trkpt lat="43.56878" lon="5.61655">
<ele>586.7</ele>
<time>2012-03-24T15:08:43.000Z</time>
</trkpt>
<trkpt lat="43.5687" lon="5.61658">
<ele>586.5</ele>
<time>2012-03-24T15:08:44.000Z</time>
</trkpt>
<trkpt lat="43.56861" lon="5.61661">
<ele>586.5</ele>
<time>2012-03-24T15:08:45.000Z</time>
</trkpt>
<trkpt lat="43.56851" lon="5.61668">
<ele>586.2</ele>
<time>2012-03-24T15:08:46.000Z</time>
</trkpt>
<trkpt lat="43.56842" lon="5.6167">
<ele>586.1</ele>
<time>2012-03-24T15:08:47.000Z</time>
</trkpt>
<trkpt lat="43.56834" lon="5.61675">
<ele>585.2</ele>
<time>2012-03-24T15:08:48.000Z</time>
</trkpt>
<trkpt lat="43.56824" lon="5.6168">
<ele>585.1</ele>
<time>2012-03-24T15:08:49.000Z</time>
</trkpt>
<trkpt lat="43.56815" lon="5.61688">
<ele>584.9</ele>
<time>2012-03-24T15:08:50.000Z</time>
</trkpt>
<trkpt lat="43.56805" lon="5.61691">
<ele>584.5</ele>
<time>2012-03-24T15:08:51.000Z</time>
</trkpt>
<trkpt lat="43.56796" lon="5.61698">
<ele>582.9</ele>
<time>2012-03-24T15:08:52.000Z</time>
</trkpt>
<trkpt lat="43.56786" lon="5.61704">
<ele>583.1</ele>
<time>2012-03-24T15:08:53.000Z</time>
</trkpt>
<trkpt lat="43.56775" lon="5.61706">
<ele>582.8</ele>
<time>2012-03-24T15:08:54.000Z</time>
</trkpt>
<trkpt lat="43.56766" lon="5.61712">
<ele>582.4</ele>
<time>2012-03-24T15:08:55.000Z</time>
</trkpt>
<trkpt lat="43.56757" lon="5.61716">
<ele>581.4</ele>
<time>2012-03-24T15:08:56.000Z</time>
</trkpt>
<trkpt lat="43.56747" lon="5.61721">
<ele>581.3</ele>
<time>2012-03-24T15:08:57.000Z</time>
</trkpt>
<trkpt lat="43.56738" lon="5.61726">
<ele>580.7</ele>
<time>2012-03-24T15:08:58.000Z</time>
</trkpt>
<trkpt lat="43.56732" lon="5.61734">
<ele>580.9</ele>
<time>2012-03-24T15:08:59.000Z</time>
</trkpt>
<trkpt lat="43.56725" lon="5.61742">
<ele>580.8</ele>
<time>2012-03-24T15:09:00.000Z</time>
</trkpt>
<trkpt lat="43.56719" lon="5.61751">
<ele>580.1</ele>
<time>2012-03-24T15:09:01.000Z</time>
</trkpt>
<trkpt lat="43.56712" lon="5.6176">
<ele>579.9</ele>
<time>2012-03-24T15:09:02.000Z</time>
</trkpt>
<trkpt lat="43.56705" lon="5.61769">
<ele>580.4</ele>
<time>2012-03-24T15:09:03.000Z</time>
</trkpt>
<trkpt lat="43.56698" lon="5.61775">
<ele>580.7</ele>
<time>2012-03-24T15:09:04.000Z</time>
</trkpt>
<trkpt lat="43.56688" lon="5.6178">
<ele>580.5</ele>
<time>2012-03-24T15:09:05.000Z</time>
</trkpt>
<trkpt lat="43.56679" lon="5.61783">
<ele>580.4</ele>
<time>2012-03-24T15:09:06.000Z</time>
</trkpt>
<trkpt lat="43.5667" lon="5.61784">
<ele>580</ele>
<time>2012-03-24T15:09:07.000Z</time>
</trkpt>
<trkpt lat="43.5666" lon="5.61785">
<ele>579.8</ele>
<time>2012-03-24T15:09:08.000Z</time>
</trkpt>
<trkpt lat="43.5665" lon="5.61786">
<ele>579.4</ele>
<time>2012-03-24T15:09:09.000Z</time>
</trkpt>
<trkpt lat="43.56641" lon="5.61788">
<ele>579.5</ele>
<time>2012-03-24T15:09:10.000Z</time>
</trkpt>
<trkpt lat="43.56633" lon="5.61794">
<ele>579.4</ele>
<time>2012-03-24T15:09:11.000Z</time>
</trkpt>
<trkpt lat="43.56624" lon="5.618">
<ele>579.1</ele>
<time>2012-03-24T15:09:12.000Z</time>
</trkpt>
<trkpt lat="43.56617" lon="5.61808">
<ele>578.3</ele>
<time>2012-03-24T15:09:13.000Z</time>
</trkpt>
<trkpt lat="43.56617" lon="5.61821">
<ele>578.2</ele>
<time>2012-03-24T15:09:14.000Z</time>
</trkpt>
<trkpt lat="43.56617" lon="5.61835">
<ele>576.8</ele>
<time>2012-03-24T15:09:15.000Z</time>
</trkpt>
<trkpt lat="43.56618" lon="5.61847">
<ele>576.5</ele>
<time>2012-03-24T15:09:16.000Z</time>
</trkpt>
<trkpt lat="43.56618" lon="5.61859">
<ele>576.5</ele>
<time>2012-03-24T15:09:17.000Z</time>
</trkpt>
<trkpt lat="43.56619" lon="5.6187">
<ele>576.2</ele>
<time>2012-03-24T15:09:18.000Z</time>
</trkpt>
<trkpt lat="43.56621" lon="5.61883">
<ele>575.6</ele>
<time>2012-03-24T15:09:19.000Z</time>
</trkpt>
<trkpt lat="43.56622" lon="5.61894">
<ele>575.7</ele>
<time>2012-03-24T15:09:20.000Z</time>
</trkpt>
<trkpt lat="43.56623" lon="5.61906">
<ele>576.9</ele>
<time>2012-03-24T15:09:21.000Z</time>
</trkpt>
<trkpt lat="43.56623" lon="5.61918">
<ele>576.5</ele>
<time>2012-03-24T15:09:22.000Z</time>
</trkpt>
<trkpt lat="43.56624" lon="5.61931">
<ele>576.3</ele>
<time>2012-03-24T15:09:23.000Z</time>
</trkpt>
<trkpt lat="43.56623" lon="5.61943">
<ele>575.8</ele>
<time>2012-03-24T15:09:24.000Z</time>
</trkpt>
<trkpt lat="43.56621" lon="5.61955">
<ele>574.9</ele>
<time>2012-03-24T15:09:25.000Z</time>
</trkpt>
<trkpt lat="43.56619" lon="5.61965">
<ele>574.8</ele>
<time>2012-03-24T15:09:26.000Z</time>
</trkpt>
<trkpt lat="43.56615" lon="5.61973">
<ele>574.7</ele>
<time>2012-03-24T15:09:27.000Z</time>
</trkpt>
<trkpt lat="43.56609" lon="5.61979">
<ele>574.8</ele>
<time>2012-03-24T15:09:28.000Z</time>
</trkpt>
<trkpt lat="43.56602" lon="5.61981">
<ele>574.7</ele>
<time>2012-03-24T15:09:29.000Z</time>
</trkpt>
<trkpt lat="43.56593" lon="5.61982">
<ele>574.8</ele>
<time>2012-03-24T15:09:30.000Z</time>
</trkpt>
<trkpt lat="43.56577" lon="5.61972">
<ele>574.6</ele>
<time>2012-03-24T15:09:32.000Z</time>
</trkpt>
<trkpt lat="43.5657" lon="5.61969">
<ele>573.3</ele>
<time>2012-03-24T15:09:33.000Z</time>
</trkpt>
<trkpt lat="43.56563" lon="5.61963">
<ele>572.4</ele>
<time>2012-03-24T15:09:34.000Z</time>
</trkpt>
<trkpt lat="43.56556" lon="5.61958">
<ele>571</ele>
<time>2012-03-24T15:09:35.000Z</time>
</trkpt>
<trkpt lat="43.56551" lon="5.61951">
<ele>571.2</ele>
<time>2012-03-24T15:09:36.000Z</time>
</trkpt>
<trkpt lat="43.56546" lon="5.61943">
<ele>571.2</ele>
<time>2012-03-24T15:09:37.000Z</time>
</trkpt>
<trkpt lat="43.56541" lon="5.61936">
<ele>571.6</ele>
<time>2012-03-24T15:09:38.000Z</time>
</trkpt>
<trkpt lat="43.56537" lon="5.61929">
<ele>571.1</ele>
<time>2012-03-24T15:09:39.000Z</time>
</trkpt>
<trkpt lat="43.56531" lon="5.6192">
<ele>570.8</ele>
<time>2012-03-24T15:09:40.000Z</time>
</trkpt>
<trkpt lat="43.56526" lon="5.61911">
<ele>569.9</ele>
<time>2012-03-24T15:09:41.000Z</time>
</trkpt>
<trkpt lat="43.5652" lon="5.61904">
<ele>569.1</ele>
<time>2012-03-24T15:09:42.000Z</time>
</trkpt>
<trkpt lat="43.56514" lon="5.61897">
<ele>568.1</ele>
<time>2012-03-24T15:09:43.000Z</time>
</trkpt>
<trkpt lat="43.56507" lon="5.61889">
<ele>567.3</ele>
<time>2012-03-24T15:09:44.000Z</time>
</trkpt>
<trkpt lat="43.56501" lon="5.61884">
<ele>566.1</ele>
<time>2012-03-24T15:09:45.000Z</time>
</trkpt>
<trkpt lat="43.56496" lon="5.61876">
<ele>565.9</ele>
<time>2012-03-24T15:09:46.000Z</time>
</trkpt>
<trkpt lat="43.56492" lon="5.61868">
<ele>566.3</ele>
<time>2012-03-24T15:09:47.000Z</time>
</trkpt>
<trkpt lat="43.56488" lon="5.61859">
<ele>565.5</ele>
<time>2012-03-24T15:09:48.000Z</time>
</trkpt>
<trkpt lat="43.56482" lon="5.61854">
<ele>564.7</ele>
<time>2012-03-24T15:09:49.000Z</time>
</trkpt>
<trkpt lat="43.56476" lon="5.61847">
<ele>564.8</ele>
<time>2012-03-24T15:09:50.000Z</time>
</trkpt>
<trkpt lat="43.56471" lon="5.61841">
<ele>564.5</ele>
<time>2012-03-24T15:09:51.000Z</time>
</trkpt>
<trkpt lat="43.56465" lon="5.61834">
<ele>564.3</ele>
<time>2012-03-24T15:09:52.000Z</time>
</trkpt>
<trkpt lat="43.56459" lon="5.6183">
<ele>564.1</ele>
<time>2012-03-24T15:09:53.000Z</time>
</trkpt>
<trkpt lat="43.56452" lon="5.61827">
<ele>563.8</ele>
<time>2012-03-24T15:09:54.000Z</time>
</trkpt>
<trkpt lat="43.56446" lon="5.61825">
<ele>563.7</ele>
<time>2012-03-24T15:09:55.000Z</time>
</trkpt>
<trkpt lat="43.56439" lon="5.61826">
<ele>563.6</ele>
<time>2012-03-24T15:09:56.000Z</time>
</trkpt>
<trkpt lat="43.56431" lon="5.61827">
<ele>563.4</ele>
<time>2012-03-24T15:09:57.000Z</time>
</trkpt>
<trkpt lat="43.56424" lon="5.61834">
<ele>563.3</ele>
<time>2012-03-24T15:09:58.000Z</time>
</trkpt>
<trkpt lat="43.56421" lon="5.61846">
<ele>561.4</ele>
<time>2012-03-24T15:09:59.000Z</time>
</trkpt>
<trkpt lat="43.56415" lon="5.61853">
<ele>560.8</ele>
<time>2012-03-24T15:10:00.000Z</time>
</trkpt>
<trkpt lat="43.56412" lon="5.61862">
<ele>560.9</ele>
<time>2012-03-24T15:10:01.000Z</time>
</trkpt>
<trkpt lat="43.5641" lon="5.61871">
<ele>559.6</ele>
<time>2012-03-24T15:10:02.000Z</time>
</trkpt>
<trkpt lat="43.56408" lon="5.6188">
<ele>557.9</ele>
<time>2012-03-24T15:10:03.000Z</time>
</trkpt>
<trkpt lat="43.56405" lon="5.6189">
<ele>557.2</ele>
<time>2012-03-24T15:10:04.000Z</time>
</trkpt>
<trkpt lat="43.56404" lon="5.61901">
<ele>556.7</ele>
<time>2012-03-24T15:10:05.000Z</time>
</trkpt>
<trkpt lat="43.56406" lon="5.61911">
<ele>556.3</ele>
<time>2012-03-24T15:10:06.000Z</time>
</trkpt>
<trkpt lat="43.56406" lon="5.61922">
<ele>555.2</ele>
<time>2012-03-24T15:10:07.000Z</time>
</trkpt>
<trkpt lat="43.56409" lon="5.61934">
<ele>554.3</ele>
<time>2012-03-24T15:10:08.000Z</time>
</trkpt>
<trkpt lat="43.56412" lon="5.61944">
<ele>553.6</ele>
<time>2012-03-24T15:10:09.000Z</time>
</trkpt>
<trkpt lat="43.56418" lon="5.61953">
<ele>553</ele>
<time>2012-03-24T15:10:10.000Z</time>
</trkpt>
<trkpt lat="43.56424" lon="5.61961">
<ele>552.9</ele>
<time>2012-03-24T15:10:11.000Z</time>
</trkpt>
<trkpt lat="43.56431" lon="5.61968">
<ele>552.5</ele>
<time>2012-03-24T15:10:12.000Z</time>
</trkpt>
<trkpt lat="43.56437" lon="5.61974">
<ele>552.3</ele>
<time>2012-03-24T15:10:13.000Z</time>
</trkpt>
<trkpt lat="43.56445" lon="5.6198">
<ele>552.8</ele>
<time>2012-03-24T15:10:14.000Z</time>
</trkpt>
<trkpt lat="43.56453" lon="5.61984">
<ele>553.8</ele>
<time>2012-03-24T15:10:15.000Z</time>
</trkpt>
<trkpt lat="43.5646" lon="5.6199">
<ele>554.3</ele>
<time>2012-03-24T15:10:16.000Z</time>
</trkpt>
<trkpt lat="43.56468" lon="5.61995">
<ele>554.2</ele>
<time>2012-03-24T15:10:17.000Z</time>
</trkpt>
<trkpt lat="43.56476" lon="5.62001">
<ele>554.3</ele>
<time>2012-03-24T15:10:18.000Z</time>
</trkpt>
<trkpt lat="43.56483" lon="5.62006">
<ele>554.1</ele>
<time>2012-03-24T15:10:19.000Z</time>
</trkpt>
<trkpt lat="43.56491" lon="5.62012">
<ele>554.1</ele>
<time>2012-03-24T15:10:20.000Z</time>
</trkpt>
<trkpt lat="43.56498" lon="5.62019">
<ele>554.1</ele>
<time>2012-03-24T15:10:21.000Z</time>
</trkpt>
<trkpt lat="43.56505" lon="5.62027">
<ele>553.9</ele>
<time>2012-03-24T15:10:22.000Z</time>
</trkpt>
<trkpt lat="43.56513" lon="5.62036">
<ele>554</ele>
<time>2012-03-24T15:10:23.000Z</time>
</trkpt>
<trkpt lat="43.56519" lon="5.62045">
<ele>553.9</ele>
<time>2012-03-24T15:10:24.000Z</time>
</trkpt>
<trkpt lat="43.56525" lon="5.62055">
<ele>553.3</ele>
<time>2012-03-24T15:10:25.000Z</time>
</trkpt>
<trkpt lat="43.56531" lon="5.62065">
<ele>552.5</ele>
<time>2012-03-24T15:10:26.000Z</time>
</trkpt>
<trkpt lat="43.56539" lon="5.62073">
<ele>552.3</ele>
<time>2012-03-24T15:10:27.000Z</time>
</trkpt>
<trkpt lat="43.56546" lon="5.62082">
<ele>552</ele>
<time>2012-03-24T15:10:28.000Z</time>
</trkpt>
<trkpt lat="43.56553" lon="5.6209">
<ele>551</ele>
<time>2012-03-24T15:10:29.000Z</time>
</trkpt>
<trkpt lat="43.56556" lon="5.62102">
<ele>550.8</ele>
<time>2012-03-24T15:10:30.000Z</time>
</trkpt>
<trkpt lat="43.5656" lon="5.62111">
<ele>551.3</ele>
<time>2012-03-24T15:10:31.000Z</time>
</trkpt>
<trkpt lat="43.5656" lon="5.62123">
<ele>549.8</ele>
<time>2012-03-24T15:10:32.000Z</time>
</trkpt>
<trkpt lat="43.5656" lon="5.62135">
<ele>549.9</ele>
<time>2012-03-24T15:10:33.000Z</time>
</trkpt>
<trkpt lat="43.56559" lon="5.62146">
<ele>549.1</ele>
<time>2012-03-24T15:10:34.000Z</time>
</trkpt>
<trkpt lat="43.56559" lon="5.62156">
<ele>547.8</ele>
<time>2012-03-24T15:10:35.000Z</time>
</trkpt>
<trkpt lat="43.56558" lon="5.62165">
<ele>547.8</ele>
<time>2012-03-24T15:10:36.000Z</time>
</trkpt>
<trkpt lat="43.56555" lon="5.62175">
<ele>547.3</ele>
<time>2012-03-24T15:10:37.000Z</time>
</trkpt>
<trkpt lat="43.56552" lon="5.62183">
<ele>547.1</ele>
<time>2012-03-24T15:10:38.000Z</time>
</trkpt>
<trkpt lat="43.56546" lon="5.62189">
<ele>546.7</ele>
<time>2012-03-24T15:10:39.000Z</time>
</trkpt>
<trkpt lat="43.56539" lon="5.62195">
<ele>546.4</ele>
<time>2012-03-24T15:10:40.000Z</time>
</trkpt>
<trkpt lat="43.56533" lon="5.622">
<ele>546.1</ele>
<time>2012-03-24T15:10:41.000Z</time>
</trkpt>
<trkpt lat="43.56526" lon="5.62206">
<ele>546</ele>
<time>2012-03-24T15:10:42.000Z</time>
</trkpt>
<trkpt lat="43.5652" lon="5.62211">
<ele>545.9</ele>
<time>2012-03-24T15:10:43.000Z</time>
</trkpt>
<trkpt lat="43.56513" lon="5.62217">
<ele>545.8</ele>
<time>2012-03-24T15:10:44.000Z</time>
</trkpt>
<trkpt lat="43.56505" lon="5.6222">
<ele>545.6</ele>
<time>2012-03-24T15:10:45.000Z</time>
</trkpt>
<trkpt lat="43.56496" lon="5.62223">
<ele>545.5</ele>
<time>2012-03-24T15:10:46.000Z</time>
</trkpt>
<trkpt lat="43.56486" lon="5.62221">
<ele>545.2</ele>
<time>2012-03-24T15:10:47.000Z</time>
</trkpt>
<trkpt lat="43.56479" lon="5.62219">
<ele>544.6</ele>
<time>2012-03-24T15:10:48.000Z</time>
</trkpt>
<trkpt lat="43.56471" lon="5.62215">
<ele>544.6</ele>
<time>2012-03-24T15:10:49.000Z</time>
</trkpt>
<trkpt lat="43.56462" lon="5.62211">
<ele>544.4</ele>
<time>2012-03-24T15:10:50.000Z</time>
</trkpt>
<trkpt lat="43.56454" lon="5.62206">
<ele>544.4</ele>
<time>2012-03-24T15:10:51.000Z</time>
</trkpt>
<trkpt lat="43.56447" lon="5.62201">
<ele>544.2</ele>
<time>2012-03-24T15:10:52.000Z</time>
</trkpt>
<trkpt lat="43.56438" lon="5.62196">
<ele>543.2</ele>
<time>2012-03-24T15:10:53.000Z</time>
</trkpt>
<trkpt lat="43.5643" lon="5.62194">
<ele>542.7</ele>
<time>2012-03-24T15:10:54.000Z</time>
</trkpt>
<trkpt lat="43.56419" lon="5.62192">
<ele>542.5</ele>
<time>2012-03-24T15:10:55.000Z</time>
</trkpt>
<trkpt lat="43.56411" lon="5.62192">
<ele>542.3</ele>
<time>2012-03-24T15:10:56.000Z</time>
</trkpt>
<trkpt lat="43.56402" lon="5.62191">
<ele>541.7</ele>
<time>2012-03-24T15:10:57.000Z</time>
</trkpt>
<trkpt lat="43.56392" lon="5.62188">
<ele>541.3</ele>
<time>2012-03-24T15:10:58.000Z</time>
</trkpt>
<trkpt lat="43.56384" lon="5.62187">
<ele>541.2</ele>
<time>2012-03-24T15:10:59.000Z</time>
</trkpt>
<trkpt lat="43.56376" lon="5.62186">
<ele>541.1</ele>
<time>2012-03-24T15:11:00.000Z</time>
</trkpt>
<trkpt lat="43.56366" lon="5.62185">
<ele>540.6</ele>
<time>2012-03-24T15:11:01.000Z</time>
</trkpt>
<trkpt lat="43.56358" lon="5.62184">
<ele>540.1</ele>
<time>2012-03-24T15:11:02.000Z</time>
</trkpt>
<trkpt lat="43.5635" lon="5.62184">
<ele>539.9</ele>
<time>2012-03-24T15:11:03.000Z</time>
</trkpt>
<trkpt lat="43.56342" lon="5.62181">
<ele>540.1</ele>
<time>2012-03-24T15:11:04.000Z</time>
</trkpt>
<trkpt lat="43.56334" lon="5.62179">
<ele>540.4</ele>
<time>2012-03-24T15:11:05.000Z</time>
</trkpt>
<trkpt lat="43.56326" lon="5.62179">
<ele>539.6</ele>
<time>2012-03-24T15:11:06.000Z</time>
</trkpt>
<trkpt lat="43.56318" lon="5.6218">
<ele>539.3</ele>
<time>2012-03-24T15:11:07.000Z</time>
</trkpt>
<trkpt lat="43.56311" lon="5.62185">
<ele>538.3</ele>
<time>2012-03-24T15:11:08.000Z</time>
</trkpt>
<trkpt lat="43.56304" lon="5.62192">
<ele>537.1</ele>
<time>2012-03-24T15:11:09.000Z</time>
</trkpt>
<trkpt lat="43.56307" lon="5.62206">
<ele>538.2</ele>
<time>2012-03-24T15:11:10.000Z</time>
</trkpt>
<trkpt lat="43.56306" lon="5.62217">
<ele>537.6</ele>
<time>2012-03-24T15:11:11.000Z</time>
</trkpt>
<trkpt lat="43.56305" lon="5.62227">
<ele>537.1</ele>
<time>2012-03-24T15:11:12.000Z</time>
</trkpt>
<trkpt lat="43.56304" lon="5.62238">
<ele>534.6</ele>
<time>2012-03-24T15:11:13.000Z</time>
</trkpt>
<trkpt lat="43.56303" lon="5.62249">
<ele>534.4</ele>
<time>2012-03-24T15:11:14.000Z</time>
</trkpt>
<trkpt lat="43.56301" lon="5.6226">
<ele>534.2</ele>
<time>2012-03-24T15:11:15.000Z</time>
</trkpt>
<trkpt lat="43.56299" lon="5.6227">
<ele>533.8</ele>
<time>2012-03-24T15:11:16.000Z</time>
</trkpt>
<trkpt lat="43.56293" lon="5.62278">
<ele>533.3</ele>
<time>2012-03-24T15:11:17.000Z</time>
</trkpt>
<trkpt lat="43.56289" lon="5.62287">
<ele>532.6</ele>
<time>2012-03-24T15:11:18.000Z</time>
</trkpt>
<trkpt lat="43.56285" lon="5.62296">
<ele>532.2</ele>
<time>2012-03-24T15:11:19.000Z</time>
</trkpt>
<trkpt lat="43.5628" lon="5.62304">
<ele>531.8</ele>
<time>2012-03-24T15:11:20.000Z</time>
</trkpt>
<trkpt lat="43.56275" lon="5.62314">
<ele>531.4</ele>
<time>2012-03-24T15:11:21.000Z</time>
</trkpt>
<trkpt lat="43.5627" lon="5.62324">
<ele>531.1</ele>
<time>2012-03-24T15:11:22.000Z</time>
</trkpt>
<trkpt lat="43.56266" lon="5.62333">
<ele>530.3</ele>
<time>2012-03-24T15:11:23.000Z</time>
</trkpt>
<trkpt lat="43.56261" lon="5.62343">
<ele>529.9</ele>
<time>2012-03-24T15:11:24.000Z</time>
</trkpt>
<trkpt lat="43.56256" lon="5.62352">
<ele>529.7</ele>
<time>2012-03-24T15:11:25.000Z</time>
</trkpt>
<trkpt lat="43.56252" lon="5.62361">
<ele>530.3</ele>
<time>2012-03-24T15:11:26.000Z</time>
</trkpt>
<trkpt lat="43.56247" lon="5.62371">
<ele>529.8</ele>
<time>2012-03-24T15:11:27.000Z</time>
</trkpt>
<trkpt lat="43.56243" lon="5.62379">
<ele>530.6</ele>
<time>2012-03-24T15:11:28.000Z</time>
</trkpt>
<trkpt lat="43.56238" lon="5.62388">
<ele>530.4</ele>
<time>2012-03-24T15:11:29.000Z</time>
</trkpt>
<trkpt lat="43.56233" lon="5.62395">
<ele>530.6</ele>
<time>2012-03-24T15:11:30.000Z</time>
</trkpt>
<trkpt lat="43.56227" lon="5.62401">
<ele>530.7</ele>
<time>2012-03-24T15:11:31.000Z</time>
</trkpt>
<trkpt lat="43.5622" lon="5.62405">
<ele>530.3</ele>
<time>2012-03-24T15:11:32.000Z</time>
</trkpt>
<trkpt lat="43.56213" lon="5.62409">
<ele>529.9</ele>
<time>2012-03-24T15:11:33.000Z</time>
</trkpt>
<trkpt lat="43.56205" lon="5.62408">
<ele>529.6</ele>
<time>2012-03-24T15:11:34.000Z</time>
</trkpt>
<trkpt lat="43.56198" lon="5.62405">
<ele>529.5</ele>
<time>2012-03-24T15:11:35.000Z</time>
</trkpt>
<trkpt lat="43.5619" lon="5.62401">
<ele>529.6</ele>
<time>2012-03-24T15:11:36.000Z</time>
</trkpt>
<trkpt lat="43.5618" lon="5.62398">
<ele>529.4</ele>
<time>2012-03-24T15:11:37.000Z</time>
</trkpt>
<trkpt lat="43.5617" lon="5.62397">
<ele>529.3</ele>
<time>2012-03-24T15:11:38.000Z</time>
</trkpt>
<trkpt lat="43.56162" lon="5.62393">
<ele>529.5</ele>
<time>2012-03-24T15:11:39.000Z</time>
</trkpt>
<trkpt lat="43.56152" lon="5.62393">
<ele>529.4</ele>
<time>2012-03-24T15:11:40.000Z</time>
</trkpt>
<trkpt lat="43.56143" lon="5.62392">
<ele>529.2</ele>
<time>2012-03-24T15:11:41.000Z</time>
</trkpt>
<trkpt lat="43.56135" lon="5.62387">
<ele>529.1</ele>
<time>2012-03-24T15:11:42.000Z</time>
</trkpt>
<trkpt lat="43.56127" lon="5.62384">
<ele>529</ele>
<time>2012-03-24T15:11:43.000Z</time>
</trkpt>
<trkpt lat="43.5612" lon="5.62382">
<ele>528.7</ele>
<time>2012-03-24T15:11:44.000Z</time>
</trkpt>
<trkpt lat="43.56113" lon="5.6238">
<ele>528.5</ele>
<time>2012-03-24T15:11:45.000Z</time>
</trkpt>
<trkpt lat="43.56106" lon="5.62376">
<ele>528.4</ele>
<time>2012-03-24T15:11:46.000Z</time>
</trkpt>
<trkpt lat="43.56101" lon="5.62367">
<ele>528.2</ele>
<time>2012-03-24T15:11:47.000Z</time>
</trkpt>
<trkpt lat="43.56095" lon="5.62359">
<ele>528.1</ele>
<time>2012-03-24T15:11:48.000Z</time>
</trkpt>
<trkpt lat="43.5609" lon="5.62349">
<ele>527.8</ele>
<time>2012-03-24T15:11:49.000Z</time>
</trkpt>
<trkpt lat="43.56085" lon="5.62341">
<ele>527.6</ele>
<time>2012-03-24T15:11:50.000Z</time>
</trkpt>
<trkpt lat="43.56078" lon="5.62332">
<ele>527.3</ele>
<time>2012-03-24T15:11:51.000Z</time>
</trkpt>
<trkpt lat="43.56073" lon="5.62325">
<ele>527</ele>
<time>2012-03-24T15:11:52.000Z</time>
</trkpt>
<trkpt lat="43.56066" lon="5.62316">
<ele>526.9</ele>
<time>2012-03-24T15:11:53.000Z</time>
</trkpt>
<trkpt lat="43.56061" lon="5.62307">
<ele>526</ele>
<time>2012-03-24T15:11:54.000Z</time>
</trkpt>
<trkpt lat="43.56058" lon="5.623">
<ele>526.4</ele>
<time>2012-03-24T15:11:55.000Z</time>
</trkpt>
<trkpt lat="43.56055" lon="5.6229">
<ele>526.2</ele>
<time>2012-03-24T15:11:56.000Z</time>
</trkpt>
<trkpt lat="43.56052" lon="5.62283">
<ele>526.1</ele>
<time>2012-03-24T15:11:57.000Z</time>
</trkpt>
<trkpt lat="43.5605" lon="5.62276">
<ele>526</ele>
<time>2012-03-24T15:11:58.000Z</time>
</trkpt>
<trkpt lat="43.56047" lon="5.62271">
<ele>525.9</ele>
<time>2012-03-24T15:11:59.000Z</time>
</trkpt>
<trkpt lat="43.56045" lon="5.62264">
<ele>526</ele>
<time>2012-03-24T15:12:00.000Z</time>
</trkpt>
<trkpt lat="43.56041" lon="5.62258">
<ele>526.1</ele>
<time>2012-03-24T15:12:01.000Z</time>
</trkpt>
<trkpt lat="43.56036" lon="5.62258">
<ele>526</ele>
<time>2012-03-24T15:12:02.000Z</time>
</trkpt>
<trkpt lat="43.56031" lon="5.62263">
<ele>525.8</ele>
<time>2012-03-24T15:12:03.000Z</time>
</trkpt>
<trkpt lat="43.56028" lon="5.6227">
<ele>525.8</ele>
<time>2012-03-24T15:12:04.000Z</time>
</trkpt>
<trkpt lat="43.56025" lon="5.62278">
<ele>525.6</ele>
<time>2012-03-24T15:12:05.000Z</time>
</trkpt>
<trkpt lat="43.56022" lon="5.62285">
<ele>525.6</ele>
<time>2012-03-24T15:12:06.000Z</time>
</trkpt>
<trkpt lat="43.56018" lon="5.6229">
<ele>525.3</ele>
<time>2012-03-24T15:12:07.000Z</time>
</trkpt>
<trkpt lat="43.56012" lon="5.62296">
<ele>525.2</ele>
<time>2012-03-24T15:12:08.000Z</time>
</trkpt>
<trkpt lat="43.55997" lon="5.62302">
<ele>525.5</ele>
<time>2012-03-24T15:12:10.000Z</time>
</trkpt>
<trkpt lat="43.55989" lon="5.62303">
<ele>524.9</ele>
<time>2012-03-24T15:12:11.000Z</time>
</trkpt>
<trkpt lat="43.5598" lon="5.62301">
<ele>524.6</ele>
<time>2012-03-24T15:12:12.000Z</time>
</trkpt>
<trkpt lat="43.55972" lon="5.62299">
<ele>524.2</ele>
<time>2012-03-24T15:12:13.000Z</time>
</trkpt>
<trkpt lat="43.55962" lon="5.62299">
<ele>524.2</ele>
<time>2012-03-24T15:12:14.000Z</time>
</trkpt>
<trkpt lat="43.55954" lon="5.62295">
<ele>524.1</ele>
<time>2012-03-24T15:12:15.000Z</time>
</trkpt>
<trkpt lat="43.55945" lon="5.62291">
<ele>524</ele>
<time>2012-03-24T15:12:16.000Z</time>
</trkpt>
<trkpt lat="43.55937" lon="5.62287">
<ele>524</ele>
<time>2012-03-24T15:12:17.000Z</time>
</trkpt>
<trkpt lat="43.55931" lon="5.62279">
<ele>524</ele>
<time>2012-03-24T15:12:18.000Z</time>
</trkpt>
<trkpt lat="43.55928" lon="5.62263">
<ele>523.4</ele>
<time>2012-03-24T15:12:19.000Z</time>
</trkpt>
<trkpt lat="43.55925" lon="5.62252">
<ele>522.9</ele>
<time>2012-03-24T15:12:20.000Z</time>
</trkpt>
<trkpt lat="43.55921" lon="5.6224">
<ele>522.4</ele>
<time>2012-03-24T15:12:21.000Z</time>
</trkpt>
<trkpt lat="43.55918" lon="5.6223">
<ele>522.3</ele>
<time>2012-03-24T15:12:22.000Z</time>
</trkpt>
<trkpt lat="43.55915" lon="5.62218">
<ele>521.6</ele>
<time>2012-03-24T15:12:23.000Z</time>
</trkpt>
<trkpt lat="43.55914" lon="5.62205">
<ele>521.2</ele>
<time>2012-03-24T15:12:24.000Z</time>
</trkpt>
<trkpt lat="43.55915" lon="5.62192">
<ele>520.7</ele>
<time>2012-03-24T15:12:25.000Z</time>
</trkpt>
<trkpt lat="43.55914" lon="5.62182">
<ele>520.7</ele>
<time>2012-03-24T15:12:26.000Z</time>
</trkpt>
<trkpt lat="43.55913" lon="5.62172">
<ele>520.5</ele>
<time>2012-03-24T15:12:27.000Z</time>
</trkpt>
<trkpt lat="43.5591" lon="5.62164">
<ele>520.4</ele>
<time>2012-03-24T15:12:28.000Z</time>
</trkpt>
<trkpt lat="43.55905" lon="5.62156">
<ele>520</ele>
<time>2012-03-24T15:12:29.000Z</time>
</trkpt>
<trkpt lat="43.559" lon="5.62147">
<ele>519.8</ele>
<time>2012-03-24T15:12:30.000Z</time>
</trkpt>
<trkpt lat="43.55894" lon="5.6214">
<ele>519.2</ele>
<time>2012-03-24T15:12:31.000Z</time>
</trkpt>
<trkpt lat="43.55888" lon="5.62131">
<ele>519.2</ele>
<time>2012-03-24T15:12:32.000Z</time>
</trkpt>
<trkpt lat="43.55884" lon="5.62121">
<ele>518.4</ele>
<time>2012-03-24T15:12:33.000Z</time>
</trkpt>
<trkpt lat="43.5588" lon="5.62113">
<ele>518.1</ele>
<time>2012-03-24T15:12:34.000Z</time>
</trkpt>
<trkpt lat="43.55875" lon="5.62111">
<ele>518</ele>
<time>2012-03-24T15:12:35.000Z</time>
</trkpt>
<trkpt lat="43.55869" lon="5.62109">
<ele>517.8</ele>
<time>2012-03-24T15:12:36.000Z</time>
</trkpt>
<trkpt lat="43.55862" lon="5.62109">
<ele>517.7</ele>
<time>2012-03-24T15:12:37.000Z</time>
</trkpt>
<trkpt lat="43.55855" lon="5.62111">
<ele>517.2</ele>
<time>2012-03-24T15:12:38.000Z</time>
</trkpt>
<trkpt lat="43.55841" lon="5.62117">
<ele>516.7</ele>
<time>2012-03-24T15:12:40.000Z</time>
</trkpt>
<trkpt lat="43.55832" lon="5.62119">
<ele>516.4</ele>
<time>2012-03-24T15:12:41.000Z</time>
</trkpt>
<trkpt lat="43.55824" lon="5.62121">
<ele>516.2</ele>
<time>2012-03-24T15:12:42.000Z</time>
</trkpt>
<trkpt lat="43.55815" lon="5.62123">
<ele>516</ele>
<time>2012-03-24T15:12:43.000Z</time>
</trkpt>
<trkpt lat="43.55807" lon="5.62124">
<ele>515.7</ele>
<time>2012-03-24T15:12:44.000Z</time>
</trkpt>
<trkpt lat="43.55798" lon="5.62126">
<ele>515.6</ele>
<time>2012-03-24T15:12:45.000Z</time>
</trkpt>
<trkpt lat="43.55792" lon="5.62125">
<ele>515.1</ele>
<time>2012-03-24T15:12:46.000Z</time>
</trkpt>
<trkpt lat="43.55784" lon="5.62122">
<ele>515.2</ele>
<time>2012-03-24T15:12:47.000Z</time>
</trkpt>
<trkpt lat="43.55777" lon="5.62119">
<ele>515.1</ele>
<time>2012-03-24T15:12:48.000Z</time>
</trkpt>
<trkpt lat="43.55772" lon="5.62105">
<ele>513.3</ele>
<time>2012-03-24T15:12:49.000Z</time>
</trkpt>
<trkpt lat="43.5576" lon="5.62092">
<ele>513</ele>
<time>2012-03-24T15:12:50.000Z</time>
</trkpt>
<trkpt lat="43.55754" lon="5.62082">
<ele>512.9</ele>
<time>2012-03-24T15:12:51.000Z</time>
</trkpt>
<trkpt lat="43.55748" lon="5.6207">
<ele>512.7</ele>
<time>2012-03-24T15:12:52.000Z</time>
</trkpt>
<trkpt lat="43.5574" lon="5.6206">
<ele>512.2</ele>
<time>2012-03-24T15:12:53.000Z</time>
</trkpt>
<trkpt lat="43.55735" lon="5.62047">
<ele>510.5</ele>
<time>2012-03-24T15:12:54.000Z</time>
</trkpt>
<trkpt lat="43.5573" lon="5.62035">
<ele>509.3</ele>
<time>2012-03-24T15:12:55.000Z</time>
</trkpt>
<trkpt lat="43.55724" lon="5.62021">
<ele>507.9</ele>
<time>2012-03-24T15:12:56.000Z</time>
</trkpt>
<trkpt lat="43.55718" lon="5.62008">
<ele>507.4</ele>
<time>2012-03-24T15:12:57.000Z</time>
</trkpt>
<trkpt lat="43.55712" lon="5.61997">
<ele>507.4</ele>
<time>2012-03-24T15:12:58.000Z</time>
</trkpt>
<trkpt lat="43.55706" lon="5.61986">
<ele>506.9</ele>
<time>2012-03-24T15:12:59.000Z</time>
</trkpt>
<trkpt lat="43.55699" lon="5.61974">
<ele>506</ele>
<time>2012-03-24T15:13:00.000Z</time>
</trkpt>
<trkpt lat="43.55696" lon="5.61963">
<ele>504.7</ele>
<time>2012-03-24T15:13:01.000Z</time>
</trkpt>
<trkpt lat="43.55691" lon="5.61951">
<ele>502.6</ele>
<time>2012-03-24T15:13:02.000Z</time>
</trkpt>
<trkpt lat="43.55685" lon="5.61939">
<ele>501.5</ele>
<time>2012-03-24T15:13:03.000Z</time>
</trkpt>
<trkpt lat="43.55678" lon="5.61928">
<ele>499.9</ele>
<time>2012-03-24T15:13:04.000Z</time>
</trkpt>
<trkpt lat="43.55671" lon="5.61918">
<ele>499.3</ele>
<time>2012-03-24T15:13:05.000Z</time>
</trkpt>
<trkpt lat="43.55666" lon="5.61908">
<ele>498.7</ele>
<time>2012-03-24T15:13:06.000Z</time>
</trkpt>
<trkpt lat="43.5566" lon="5.61898">
<ele>497.4</ele>
<time>2012-03-24T15:13:07.000Z</time>
</trkpt>
<trkpt lat="43.55655" lon="5.61889">
<ele>496.8</ele>
<time>2012-03-24T15:13:08.000Z</time>
</trkpt>
<trkpt lat="43.5565" lon="5.61878">
<ele>496.7</ele>
<time>2012-03-24T15:13:09.000Z</time>
</trkpt>
<trkpt lat="43.55646" lon="5.6187">
<ele>496.4</ele>
<time>2012-03-24T15:13:10.000Z</time>
</trkpt>
<trkpt lat="43.55641" lon="5.61861">
<ele>496.2</ele>
<time>2012-03-24T15:13:11.000Z</time>
</trkpt>
<trkpt lat="43.55639" lon="5.61855">
<ele>495.8</ele>
<time>2012-03-24T15:13:12.000Z</time>
</trkpt>
<trkpt lat="43.55632" lon="5.61846">
<ele>495</ele>
<time>2012-03-24T15:13:14.000Z</time>
</trkpt>
<trkpt lat="43.55628" lon="5.6184">
<ele>492.9</ele>
<time>2012-03-24T15:13:16.000Z</time>
</trkpt>
<trkpt lat="43.55624" lon="5.61838">
<ele>491.3</ele>
<time>2012-03-24T15:13:19.000Z</time>
</trkpt>
<trkpt lat="43.55625" lon="5.61831">
<ele>488.6</ele>
<time>2012-03-24T15:13:24.000Z</time>
</trkpt>
<trkpt lat="43.55622" lon="5.61825">
<ele>488.4</ele>
<time>2012-03-24T15:13:26.000Z</time>
</trkpt>
<trkpt lat="43.5562" lon="5.61817">
<ele>487.2</ele>
<time>2012-03-24T15:13:28.000Z</time>
</trkpt>
<trkpt lat="43.55616" lon="5.6181">
<ele>485.5</ele>
<time>2012-03-24T15:13:30.000Z</time>
</trkpt>
<trkpt lat="43.55615" lon="5.618">
<ele>484.7</ele>
<time>2012-03-24T15:13:32.000Z</time>
</trkpt>
<trkpt lat="43.55616" lon="5.61794">
<ele>484.8</ele>
<time>2012-03-24T15:13:33.000Z</time>
</trkpt>
<trkpt lat="43.55617" lon="5.61783">
<ele>484.9</ele>
<time>2012-03-24T15:13:35.000Z</time>
</trkpt>
<trkpt lat="43.55618" lon="5.61777">
<ele>484.6</ele>
<time>2012-03-24T15:13:36.000Z</time>
</trkpt>
<trkpt lat="43.55618" lon="5.6177">
<ele>484.7</ele>
<time>2012-03-24T15:13:37.000Z</time>
</trkpt>
<trkpt lat="43.55619" lon="5.61762">
<ele>484.4</ele>
<time>2012-03-24T15:13:38.000Z</time>
</trkpt>
<trkpt lat="43.55618" lon="5.61755">
<ele>485.1</ele>
<time>2012-03-24T15:13:39.000Z</time>
</trkpt>
<trkpt lat="43.55618" lon="5.61744">
<ele>484.8</ele>
<time>2012-03-24T15:13:41.000Z</time>
</trkpt>
<trkpt lat="43.55617" lon="5.61733">
<ele>484.6</ele>
<time>2012-03-24T15:13:43.000Z</time>
</trkpt>
<trkpt lat="43.55612" lon="5.61725">
<ele>484.6</ele>
<time>2012-03-24T15:13:45.000Z</time>
</trkpt>
<trkpt lat="43.55609" lon="5.61717">
<ele>484</ele>
<time>2012-03-24T15:13:46.000Z</time>
</trkpt>
<trkpt lat="43.55607" lon="5.6171">
<ele>483.7</ele>
<time>2012-03-24T15:13:47.000Z</time>
</trkpt>
<trkpt lat="43.55606" lon="5.61703">
<ele>483.9</ele>
<time>2012-03-24T15:13:48.000Z</time>
</trkpt>
<trkpt lat="43.55602" lon="5.61695">
<ele>484.1</ele>
<time>2012-03-24T15:13:49.000Z</time>
</trkpt>
<trkpt lat="43.55598" lon="5.6169">
<ele>484.1</ele>
<time>2012-03-24T15:13:50.000Z</time>
</trkpt>
<trkpt lat="43.55597" lon="5.61683">
<ele>484</ele>
<time>2012-03-24T15:13:51.000Z</time>
</trkpt>
<trkpt lat="43.55596" lon="5.61674">
<ele>484</ele>
<time>2012-03-24T15:13:52.000Z</time>
</trkpt>
<trkpt lat="43.55595" lon="5.61666">
<ele>483.8</ele>
<time>2012-03-24T15:13:53.000Z</time>
</trkpt>
<trkpt lat="43.55594" lon="5.61658">
<ele>483.8</ele>
<time>2012-03-24T15:13:54.000Z</time>
</trkpt>
<trkpt lat="43.55594" lon="5.61649">
<ele>483.5</ele>
<time>2012-03-24T15:13:55.000Z</time>
</trkpt>
<trkpt lat="43.55593" lon="5.61642">
<ele>483.4</ele>
<time>2012-03-24T15:13:56.000Z</time>
</trkpt>
<trkpt lat="43.55592" lon="5.61634">
<ele>483.3</ele>
<time>2012-03-24T15:13:57.000Z</time>
</trkpt>
<trkpt lat="43.55592" lon="5.61624">
<ele>482.9</ele>
<time>2012-03-24T15:13:58.000Z</time>
</trkpt>
<trkpt lat="43.55591" lon="5.61617">
<ele>483.1</ele>
<time>2012-03-24T15:13:59.000Z</time>
</trkpt>
<trkpt lat="43.5559" lon="5.61607">
<ele>483.1</ele>
<time>2012-03-24T15:14:00.000Z</time>
</trkpt>
<trkpt lat="43.55589" lon="5.61599">
<ele>482.7</ele>
<time>2012-03-24T15:14:01.000Z</time>
</trkpt>
<trkpt lat="43.5559" lon="5.61589">
<ele>482.6</ele>
<time>2012-03-24T15:14:02.000Z</time>
</trkpt>
<trkpt lat="43.55587" lon="5.6158">
<ele>482.3</ele>
<time>2012-03-24T15:14:03.000Z</time>
</trkpt>
<trkpt lat="43.55586" lon="5.61572">
<ele>482.5</ele>
<time>2012-03-24T15:14:04.000Z</time>
</trkpt>
<trkpt lat="43.55585" lon="5.61562">
<ele>482.5</ele>
<time>2012-03-24T15:14:05.000Z</time>
</trkpt>
<trkpt lat="43.55584" lon="5.61554">
<ele>482.7</ele>
<time>2012-03-24T15:14:06.000Z</time>
</trkpt>
<trkpt lat="43.55581" lon="5.61545">
<ele>482.4</ele>
<time>2012-03-24T15:14:07.000Z</time>
</trkpt>
<trkpt lat="43.55579" lon="5.61537">
<ele>482.4</ele>
<time>2012-03-24T15:14:08.000Z</time>
</trkpt>
<trkpt lat="43.55577" lon="5.61529">
<ele>482.5</ele>
<time>2012-03-24T15:14:09.000Z</time>
</trkpt>
<trkpt lat="43.55575" lon="5.61519">
<ele>482.4</ele>
<time>2012-03-24T15:14:10.000Z</time>
</trkpt>
<trkpt lat="43.55573" lon="5.61511">
<ele>482.4</ele>
<time>2012-03-24T15:14:11.000Z</time>
</trkpt>
<trkpt lat="43.55572" lon="5.61502">
<ele>482.6</ele>
<time>2012-03-24T15:14:12.000Z</time>
</trkpt>
<trkpt lat="43.55569" lon="5.61491">
<ele>482.3</ele>
<time>2012-03-24T15:14:13.000Z</time>
</trkpt>
<trkpt lat="43.55566" lon="5.61484">
<ele>482.5</ele>
<time>2012-03-24T15:14:14.000Z</time>
</trkpt>
<trkpt lat="43.55564" lon="5.61475">
<ele>482.4</ele>
<time>2012-03-24T15:14:15.000Z</time>
</trkpt>
<trkpt lat="43.5556" lon="5.61465">
<ele>482.6</ele>
<time>2012-03-24T15:14:16.000Z</time>
</trkpt>
<trkpt lat="43.55559" lon="5.61453">
<ele>482.8</ele>
<time>2012-03-24T15:14:17.000Z</time>
</trkpt>
<trkpt lat="43.55556" lon="5.61444">
<ele>482.6</ele>
<time>2012-03-24T15:14:18.000Z</time>
</trkpt>
<trkpt lat="43.55554" lon="5.61432">
<ele>482.6</ele>
<time>2012-03-24T15:14:19.000Z</time>
</trkpt>
<trkpt lat="43.5555" lon="5.61424">
<ele>482.6</ele>
<time>2012-03-24T15:14:20.000Z</time>
</trkpt>
<trkpt lat="43.55548" lon="5.61413">
<ele>482.4</ele>
<time>2012-03-24T15:14:21.000Z</time>
</trkpt>
<trkpt lat="43.55545" lon="5.61404">
<ele>482</ele>
<time>2012-03-24T15:14:22.000Z</time>
</trkpt>
<trkpt lat="43.55543" lon="5.61394">
<ele>481.7</ele>
<time>2012-03-24T15:14:23.000Z</time>
</trkpt>
<trkpt lat="43.55541" lon="5.61386">
<ele>481.1</ele>
<time>2012-03-24T15:14:24.000Z</time>
</trkpt>
<trkpt lat="43.55538" lon="5.61376">
<ele>480.8</ele>
<time>2012-03-24T15:14:25.000Z</time>
</trkpt>
<trkpt lat="43.55535" lon="5.61369">
<ele>481</ele>
<time>2012-03-24T15:14:26.000Z</time>
</trkpt>
<trkpt lat="43.55532" lon="5.6136">
<ele>480.7</ele>
<time>2012-03-24T15:14:27.000Z</time>
</trkpt>
<trkpt lat="43.5553" lon="5.61352">
<ele>480.3</ele>
<time>2012-03-24T15:14:28.000Z</time>
</trkpt>
<trkpt lat="43.55526" lon="5.61342">
<ele>480.4</ele>
<time>2012-03-24T15:14:29.000Z</time>
</trkpt>
<trkpt lat="43.55524" lon="5.61332">
<ele>480.5</ele>
<time>2012-03-24T15:14:30.000Z</time>
</trkpt>
<trkpt lat="43.55522" lon="5.61324">
<ele>480.3</ele>
<time>2012-03-24T15:14:31.000Z</time>
</trkpt>
<trkpt lat="43.55518" lon="5.61312">
<ele>479.2</ele>
<time>2012-03-24T15:14:33.000Z</time>
</trkpt>
<trkpt lat="43.55518" lon="5.61304">
<ele>479.1</ele>
<time>2012-03-24T15:14:34.000Z</time>
</trkpt>
<trkpt lat="43.5552" lon="5.61296">
<ele>478.7</ele>
<time>2012-03-24T15:14:35.000Z</time>
</trkpt>
<trkpt lat="43.55518" lon="5.61289">
<ele>478.7</ele>
<time>2012-03-24T15:14:36.000Z</time>
</trkpt>
<trkpt lat="43.5552" lon="5.61278">
<ele>478.2</ele>
<time>2012-03-24T15:14:37.000Z</time>
</trkpt>
<trkpt lat="43.55521" lon="5.61271">
<ele>478</ele>
<time>2012-03-24T15:14:38.000Z</time>
</trkpt>
<trkpt lat="43.5552" lon="5.61262">
<ele>478</ele>
<time>2012-03-24T15:14:39.000Z</time>
</trkpt>
<trkpt lat="43.5552" lon="5.61254">
<ele>478.7</ele>
<time>2012-03-24T15:14:40.000Z</time>
</trkpt>
<trkpt lat="43.55521" lon="5.61245">
<ele>479.1</ele>
<time>2012-03-24T15:14:41.000Z</time>
</trkpt>
<trkpt lat="43.55521" lon="5.61237">
<ele>479.2</ele>
<time>2012-03-24T15:14:42.000Z</time>
</trkpt>
<trkpt lat="43.5552" lon="5.6123">
<ele>479</ele>
<time>2012-03-24T15:14:43.000Z</time>
</trkpt>
<trkpt lat="43.55522" lon="5.61223">
<ele>479</ele>
<time>2012-03-24T15:14:44.000Z</time>
</trkpt>
<trkpt lat="43.55524" lon="5.6121">
<ele>478.7</ele>
<time>2012-03-24T15:14:46.000Z</time>
</trkpt>
<trkpt lat="43.55525" lon="5.61202">
<ele>479.7</ele>
<time>2012-03-24T15:14:47.000Z</time>
</trkpt>
<trkpt lat="43.55527" lon="5.61195">
<ele>479.9</ele>
<time>2012-03-24T15:14:48.000Z</time>
</trkpt>
<trkpt lat="43.55528" lon="5.61189">
<ele>480.7</ele>
<time>2012-03-24T15:14:49.000Z</time>
</trkpt>
<trkpt lat="43.5553" lon="5.61177">
<ele>480.7</ele>
<time>2012-03-24T15:14:51.000Z</time>
</trkpt>
<trkpt lat="43.55532" lon="5.6117">
<ele>481.1</ele>
<time>2012-03-24T15:14:52.000Z</time>
</trkpt>
<trkpt lat="43.55533" lon="5.61163">
<ele>481</ele>
<time>2012-03-24T15:14:53.000Z</time>
</trkpt>
<trkpt lat="43.55534" lon="5.61157">
<ele>481.4</ele>
<time>2012-03-24T15:14:54.000Z</time>
</trkpt>
<trkpt lat="43.55536" lon="5.61151">
<ele>481.4</ele>
<time>2012-03-24T15:14:55.000Z</time>
</trkpt>
<trkpt lat="43.55538" lon="5.6114">
<ele>481.4</ele>
<time>2012-03-24T15:14:57.000Z</time>
</trkpt>
<trkpt lat="43.55541" lon="5.61132">
<ele>481.6</ele>
<time>2012-03-24T15:14:58.000Z</time>
</trkpt>
<trkpt lat="43.55544" lon="5.61125">
<ele>481.4</ele>
<time>2012-03-24T15:14:59.000Z</time>
</trkpt>
<trkpt lat="43.55547" lon="5.61117">
<ele>481.3</ele>
<time>2012-03-24T15:15:00.000Z</time>
</trkpt>
<trkpt lat="43.5555" lon="5.61109">
<ele>481.3</ele>
<time>2012-03-24T15:15:01.000Z</time>
</trkpt>
<trkpt lat="43.55552" lon="5.61102">
<ele>481.5</ele>
<time>2012-03-24T15:15:02.000Z</time>
</trkpt>
<trkpt lat="43.55553" lon="5.61095">
<ele>481.2</ele>
<time>2012-03-24T15:15:03.000Z</time>
</trkpt>
<trkpt lat="43.55554" lon="5.61087">
<ele>481.4</ele>
<time>2012-03-24T15:15:04.000Z</time>
</trkpt>
<trkpt lat="43.55557" lon="5.61081">
<ele>481.5</ele>
<time>2012-03-24T15:15:05.000Z</time>
</trkpt>
<trkpt lat="43.55559" lon="5.61073">
<ele>480.9</ele>
<time>2012-03-24T15:15:06.000Z</time>
</trkpt>
<trkpt lat="43.55561" lon="5.61067">
<ele>481.3</ele>
<time>2012-03-24T15:15:07.000Z</time>
</trkpt>
<trkpt lat="43.55564" lon="5.6106">
<ele>481.7</ele>
<time>2012-03-24T15:15:08.000Z</time>
</trkpt>
<trkpt lat="43.55567" lon="5.61053">
<ele>481.4</ele>
<time>2012-03-24T15:15:09.000Z</time>
</trkpt>
<trkpt lat="43.55569" lon="5.61047">
<ele>481.3</ele>
<time>2012-03-24T15:15:10.000Z</time>
</trkpt>
<trkpt lat="43.55572" lon="5.6104">
<ele>481.3</ele>
<time>2012-03-24T15:15:11.000Z</time>
</trkpt>
<trkpt lat="43.55574" lon="5.61033">
<ele>481.5</ele>
<time>2012-03-24T15:15:12.000Z</time>
</trkpt>
<trkpt lat="43.55576" lon="5.61027">
<ele>481.9</ele>
<time>2012-03-24T15:15:13.000Z</time>
</trkpt>
<trkpt lat="43.55578" lon="5.6102">
<ele>481.6</ele>
<time>2012-03-24T15:15:14.000Z</time>
</trkpt>
<trkpt lat="43.5558" lon="5.61014">
<ele>481.8</ele>
<time>2012-03-24T15:15:15.000Z</time>
</trkpt>
<trkpt lat="43.55582" lon="5.61008">
<ele>481.4</ele>
<time>2012-03-24T15:15:16.000Z</time>
</trkpt>
<trkpt lat="43.55584" lon="5.61001">
<ele>481.6</ele>
<time>2012-03-24T15:15:17.000Z</time>
</trkpt>
<trkpt lat="43.55586" lon="5.60994">
<ele>482.3</ele>
<time>2012-03-24T15:15:18.000Z</time>
</trkpt>
<trkpt lat="43.55588" lon="5.60988">
<ele>482.9</ele>
<time>2012-03-24T15:15:19.000Z</time>
</trkpt>
<trkpt lat="43.5559" lon="5.60981">
<ele>482.8</ele>
<time>2012-03-24T15:15:20.000Z</time>
</trkpt>
<trkpt lat="43.55592" lon="5.60975">
<ele>483</ele>
<time>2012-03-24T15:15:21.000Z</time>
</trkpt>
<trkpt lat="43.55593" lon="5.60968">
<ele>483</ele>
<time>2012-03-24T15:15:22.000Z</time>
</trkpt>
<trkpt lat="43.55594" lon="5.60961">
<ele>483.2</ele>
<time>2012-03-24T15:15:23.000Z</time>
</trkpt>
<trkpt lat="43.55595" lon="5.60954">
<ele>482.9</ele>
<time>2012-03-24T15:15:24.000Z</time>
</trkpt>
<trkpt lat="43.55596" lon="5.60947">
<ele>482.8</ele>
<time>2012-03-24T15:15:25.000Z</time>
</trkpt>
<trkpt lat="43.55596" lon="5.60938">
<ele>483.5</ele>
<time>2012-03-24T15:15:26.000Z</time>
</trkpt>
<trkpt lat="43.55597" lon="5.6093">
<ele>483.7</ele>
<time>2012-03-24T15:15:27.000Z</time>
</trkpt>
<trkpt lat="43.55597" lon="5.60922">
<ele>483.9</ele>
<time>2012-03-24T15:15:28.000Z</time>
</trkpt>
<trkpt lat="43.55597" lon="5.60908">
<ele>484.4</ele>
<time>2012-03-24T15:15:30.000Z</time>
</trkpt>
<trkpt lat="43.55597" lon="5.609">
<ele>484.2</ele>
<time>2012-03-24T15:15:31.000Z</time>
</trkpt>
<trkpt lat="43.55597" lon="5.60892">
<ele>484.2</ele>
<time>2012-03-24T15:15:32.000Z</time>
</trkpt>
<trkpt lat="43.55597" lon="5.60884">
<ele>484.4</ele>
<time>2012-03-24T15:15:33.000Z</time>
</trkpt>
<trkpt lat="43.55596" lon="5.60876">
<ele>484.4</ele>
<time>2012-03-24T15:15:34.000Z</time>
</trkpt>
<trkpt lat="43.55595" lon="5.60869">
<ele>484</ele>
<time>2012-03-24T15:15:35.000Z</time>
</trkpt>
<trkpt lat="43.55594" lon="5.6086">
<ele>484.5</ele>
<time>2012-03-24T15:15:36.000Z</time>
</trkpt>
<trkpt lat="43.55594" lon="5.60852">
<ele>484.9</ele>
<time>2012-03-24T15:15:37.000Z</time>
</trkpt>
<trkpt lat="43.55593" lon="5.60844">
<ele>485.4</ele>
<time>2012-03-24T15:15:38.000Z</time>
</trkpt>
<trkpt lat="43.55593" lon="5.60835">
<ele>485.8</ele>
<time>2012-03-24T15:15:39.000Z</time>
</trkpt>
<trkpt lat="43.55592" lon="5.60827">
<ele>485.6</ele>
<time>2012-03-24T15:15:40.000Z</time>
</trkpt>
<trkpt lat="43.55592" lon="5.60819">
<ele>485.6</ele>
<time>2012-03-24T15:15:41.000Z</time>
</trkpt>
<trkpt lat="43.55591" lon="5.60811">
<ele>485.4</ele>
<time>2012-03-24T15:15:42.000Z</time>
</trkpt>
<trkpt lat="43.5559" lon="5.60802">
<ele>485.5</ele>
<time>2012-03-24T15:15:43.000Z</time>
</trkpt>
<trkpt lat="43.55591" lon="5.60794">
<ele>485.8</ele>
<time>2012-03-24T15:15:44.000Z</time>
</trkpt>
<trkpt lat="43.5559" lon="5.60785">
<ele>486</ele>
<time>2012-03-24T15:15:45.000Z</time>
</trkpt>
<trkpt lat="43.55589" lon="5.60777">
<ele>485.5</ele>
<time>2012-03-24T15:15:46.000Z</time>
</trkpt>
<trkpt lat="43.55589" lon="5.60769">
<ele>485.4</ele>
<time>2012-03-24T15:15:47.000Z</time>
</trkpt>
<trkpt lat="43.55589" lon="5.60761">
<ele>485.9</ele>
<time>2012-03-24T15:15:48.000Z</time>
</trkpt>
<trkpt lat="43.55589" lon="5.60753">
<ele>486</ele>
<time>2012-03-24T15:15:49.000Z</time>
</trkpt>
<trkpt lat="43.55589" lon="5.60744">
<ele>485.7</ele>
<time>2012-03-24T15:15:50.000Z</time>
</trkpt>
<trkpt lat="43.55589" lon="5.60736">
<ele>485.7</ele>
<time>2012-03-24T15:15:51.000Z</time>
</trkpt>
<trkpt lat="43.55589" lon="5.60727">
<ele>485.6</ele>
<time>2012-03-24T15:15:52.000Z</time>
</trkpt>
<trkpt lat="43.55589" lon="5.60718">
<ele>485.6</ele>
<time>2012-03-24T15:15:53.000Z</time>
</trkpt>
<trkpt lat="43.55589" lon="5.6071">
<ele>485.6</ele>
<time>2012-03-24T15:15:54.000Z</time>
</trkpt>
<trkpt lat="43.55588" lon="5.60701">
<ele>485.7</ele>
<time>2012-03-24T15:15:55.000Z</time>
</trkpt>
<trkpt lat="43.55589" lon="5.60692">
<ele>485.6</ele>
<time>2012-03-24T15:15:56.000Z</time>
</trkpt>
<trkpt lat="43.5559" lon="5.60683">
<ele>485.7</ele>
<time>2012-03-24T15:15:57.000Z</time>
</trkpt>
<trkpt lat="43.5559" lon="5.60674">
<ele>485.6</ele>
<time>2012-03-24T15:15:58.000Z</time>
</trkpt>
<trkpt lat="43.55591" lon="5.60665">
<ele>485.7</ele>
<time>2012-03-24T15:15:59.000Z</time>
</trkpt>
<trkpt lat="43.55591" lon="5.60655">
<ele>485.8</ele>
<time>2012-03-24T15:16:00.000Z</time>
</trkpt>
<trkpt lat="43.55592" lon="5.60646">
<ele>485.9</ele>
<time>2012-03-24T15:16:01.000Z</time>
</trkpt>
<trkpt lat="43.55592" lon="5.60636">
<ele>486.3</ele>
<time>2012-03-24T15:16:02.000Z</time>
</trkpt>
<trkpt lat="43.55593" lon="5.60627">
<ele>486.9</ele>
<time>2012-03-24T15:16:03.000Z</time>
</trkpt>
<trkpt lat="43.55594" lon="5.60618">
<ele>486.7</ele>
<time>2012-03-24T15:16:04.000Z</time>
</trkpt>
<trkpt lat="43.55594" lon="5.60609">
<ele>486.2</ele>
<time>2012-03-24T15:16:05.000Z</time>
</trkpt>
<trkpt lat="43.55594" lon="5.606">
<ele>485.8</ele>
<time>2012-03-24T15:16:06.000Z</time>
</trkpt>
<trkpt lat="43.55594" lon="5.6059">
<ele>486</ele>
<time>2012-03-24T15:16:07.000Z</time>
</trkpt>
<trkpt lat="43.55594" lon="5.60582">
<ele>485.5</ele>
<time>2012-03-24T15:16:08.000Z</time>
</trkpt>
<trkpt lat="43.55595" lon="5.60573">
<ele>485.5</ele>
<time>2012-03-24T15:16:09.000Z</time>
</trkpt>
<trkpt lat="43.55594" lon="5.60564">
<ele>485.2</ele>
<time>2012-03-24T15:16:10.000Z</time>
</trkpt>
<trkpt lat="43.55595" lon="5.60555">
<ele>485.3</ele>
<time>2012-03-24T15:16:11.000Z</time>
</trkpt>
<trkpt lat="43.55595" lon="5.60546">
<ele>484.9</ele>
<time>2012-03-24T15:16:12.000Z</time>
</trkpt>
<trkpt lat="43.55595" lon="5.60537">
<ele>485.3</ele>
<time>2012-03-24T15:16:13.000Z</time>
</trkpt>
<trkpt lat="43.55596" lon="5.60528">
<ele>485.2</ele>
<time>2012-03-24T15:16:14.000Z</time>
</trkpt>
<trkpt lat="43.55596" lon="5.60518">
<ele>485.4</ele>
<time>2012-03-24T15:16:15.000Z</time>
</trkpt>
<trkpt lat="43.55596" lon="5.60508">
<ele>485.4</ele>
<time>2012-03-24T15:16:16.000Z</time>
</trkpt>
<trkpt lat="43.55596" lon="5.60499">
<ele>485.2</ele>
<time>2012-03-24T15:16:17.000Z</time>
</trkpt>
<trkpt lat="43.55596" lon="5.6049">
<ele>485</ele>
<time>2012-03-24T15:16:18.000Z</time>
</trkpt>
<trkpt lat="43.55596" lon="5.60481">
<ele>485.4</ele>
<time>2012-03-24T15:16:19.000Z</time>
</trkpt>
<trkpt lat="43.55597" lon="5.60472">
<ele>485.3</ele>
<time>2012-03-24T15:16:20.000Z</time>
</trkpt>
<trkpt lat="43.55597" lon="5.60462">
<ele>485.4</ele>
<time>2012-03-24T15:16:21.000Z</time>
</trkpt>
<trkpt lat="43.55597" lon="5.60452">
<ele>485.8</ele>
<time>2012-03-24T15:16:22.000Z</time>
</trkpt>
<trkpt lat="43.55598" lon="5.60442">
<ele>485.7</ele>
<time>2012-03-24T15:16:23.000Z</time>
</trkpt>
<trkpt lat="43.55598" lon="5.60433">
<ele>485.9</ele>
<time>2012-03-24T15:16:24.000Z</time>
</trkpt>
<trkpt lat="43.55598" lon="5.60424">
<ele>486</ele>
<time>2012-03-24T15:16:25.000Z</time>
</trkpt>
<trkpt lat="43.55598" lon="5.60414">
<ele>485.9</ele>
<time>2012-03-24T15:16:26.000Z</time>
</trkpt>
<trkpt lat="43.55598" lon="5.60403">
<ele>485.8</ele>
<time>2012-03-24T15:16:27.000Z</time>
</trkpt>
<trkpt lat="43.55597" lon="5.60394">
<ele>485.8</ele>
<time>2012-03-24T15:16:28.000Z</time>
</trkpt>
<trkpt lat="43.55598" lon="5.60384">
<ele>485.9</ele>
<time>2012-03-24T15:16:29.000Z</time>
</trkpt>
<trkpt lat="43.55598" lon="5.60374">
<ele>485.8</ele>
<time>2012-03-24T15:16:30.000Z</time>
</trkpt>
<trkpt lat="43.55597" lon="5.60366">
<ele>486</ele>
<time>2012-03-24T15:16:31.000Z</time>
</trkpt>
<trkpt lat="43.55599" lon="5.60355">
<ele>485.6</ele>
<time>2012-03-24T15:16:32.000Z</time>
</trkpt>
<trkpt lat="43.55598" lon="5.60345">
<ele>485.4</ele>
<time>2012-03-24T15:16:33.000Z</time>
</trkpt>
<trkpt lat="43.55599" lon="5.60335">
<ele>485.1</ele>
<time>2012-03-24T15:16:34.000Z</time>
</trkpt>
<trkpt lat="43.55599" lon="5.60325">
<ele>484.7</ele>
<time>2012-03-24T15:16:35.000Z</time>
</trkpt>
<trkpt lat="43.55599" lon="5.60315">
<ele>484.7</ele>
<time>2012-03-24T15:16:36.000Z</time>
</trkpt>
<trkpt lat="43.556" lon="5.60305">
<ele>484.9</ele>
<time>2012-03-24T15:16:37.000Z</time>
</trkpt>
<trkpt lat="43.556" lon="5.60294">
<ele>484.5</ele>
<time>2012-03-24T15:16:38.000Z</time>
</trkpt>
<trkpt lat="43.556" lon="5.60284">
<ele>484.1</ele>
<time>2012-03-24T15:16:39.000Z</time>
</trkpt>
<trkpt lat="43.556" lon="5.60274">
<ele>484.1</ele>
<time>2012-03-24T15:16:40.000Z</time>
</trkpt>
<trkpt lat="43.556" lon="5.60264">
<ele>483.8</ele>
<time>2012-03-24T15:16:41.000Z</time>
</trkpt>
<trkpt lat="43.55601" lon="5.60254">
<ele>483.7</ele>
<time>2012-03-24T15:16:42.000Z</time>
</trkpt>
<trkpt lat="43.55601" lon="5.60244">
<ele>484.2</ele>
<time>2012-03-24T15:16:43.000Z</time>
</trkpt>
<trkpt lat="43.55601" lon="5.60233">
<ele>484.3</ele>
<time>2012-03-24T15:16:44.000Z</time>
</trkpt>
<trkpt lat="43.55601" lon="5.60223">
<ele>484.3</ele>
<time>2012-03-24T15:16:45.000Z</time>
</trkpt>
<trkpt lat="43.55601" lon="5.60213">
<ele>484.4</ele>
<time>2012-03-24T15:16:46.000Z</time>
</trkpt>
<trkpt lat="43.556" lon="5.60204">
<ele>484.5</ele>
<time>2012-03-24T15:16:47.000Z</time>
</trkpt>
<trkpt lat="43.556" lon="5.60194">
<ele>484.5</ele>
<time>2012-03-24T15:16:48.000Z</time>
</trkpt>
<trkpt lat="43.55599" lon="5.60186">
<ele>484.2</ele>
<time>2012-03-24T15:16:49.000Z</time>
</trkpt>
<trkpt lat="43.55599" lon="5.60176">
<ele>484.1</ele>
<time>2012-03-24T15:16:50.000Z</time>
</trkpt>
<trkpt lat="43.55598" lon="5.60165">
<ele>484.1</ele>
<time>2012-03-24T15:16:51.000Z</time>
</trkpt>
<trkpt lat="43.55598" lon="5.60154">
<ele>484.5</ele>
<time>2012-03-24T15:16:52.000Z</time>
</trkpt>
<trkpt lat="43.55598" lon="5.60144">
<ele>484.8</ele>
<time>2012-03-24T15:16:53.000Z</time>
</trkpt>
<trkpt lat="43.55598" lon="5.60134">
<ele>484.9</ele>
<time>2012-03-24T15:16:54.000Z</time>
</trkpt>
<trkpt lat="43.55598" lon="5.60122">
<ele>484.9</ele>
<time>2012-03-24T15:16:55.000Z</time>
</trkpt>
<trkpt lat="43.55596" lon="5.60111">
<ele>484.8</ele>
<time>2012-03-24T15:16:56.000Z</time>
</trkpt>
<trkpt lat="43.55597" lon="5.601">
<ele>484.9</ele>
<time>2012-03-24T15:16:57.000Z</time>
</trkpt>
<trkpt lat="43.55595" lon="5.60091">
<ele>484.9</ele>
<time>2012-03-24T15:16:58.000Z</time>
</trkpt>
<trkpt lat="43.55595" lon="5.60081">
<ele>484.9</ele>
<time>2012-03-24T15:16:59.000Z</time>
</trkpt>
<trkpt lat="43.55594" lon="5.60069">
<ele>484.9</ele>
<time>2012-03-24T15:17:00.000Z</time>
</trkpt>
<trkpt lat="43.55593" lon="5.6006">
<ele>485.2</ele>
<time>2012-03-24T15:17:01.000Z</time>
</trkpt>
<trkpt lat="43.5559" lon="5.6005">
<ele>485.2</ele>
<time>2012-03-24T15:17:02.000Z</time>
</trkpt>
<trkpt lat="43.55589" lon="5.60038">
<ele>484.9</ele>
<time>2012-03-24T15:17:03.000Z</time>
</trkpt>
<trkpt lat="43.55588" lon="5.60026">
<ele>485.1</ele>
<time>2012-03-24T15:17:04.000Z</time>
</trkpt>
<trkpt lat="43.55585" lon="5.60016">
<ele>484.9</ele>
<time>2012-03-24T15:17:05.000Z</time>
</trkpt>
<trkpt lat="43.55582" lon="5.60005">
<ele>484.7</ele>
<time>2012-03-24T15:17:06.000Z</time>
</trkpt>
<trkpt lat="43.5558" lon="5.59994">
<ele>484.8</ele>
<time>2012-03-24T15:17:07.000Z</time>
</trkpt>
<trkpt lat="43.55579" lon="5.59982">
<ele>484.7</ele>
<time>2012-03-24T15:17:08.000Z</time>
</trkpt>
<trkpt lat="43.55578" lon="5.5997">
<ele>485</ele>
<time>2012-03-24T15:17:09.000Z</time>
</trkpt>
<trkpt lat="43.55574" lon="5.59958">
<ele>485.2</ele>
<time>2012-03-24T15:17:10.000Z</time>
</trkpt>
<trkpt lat="43.5557" lon="5.59947">
<ele>485.2</ele>
<time>2012-03-24T15:17:11.000Z</time>
</trkpt>
<trkpt lat="43.55566" lon="5.59936">
<ele>485.5</ele>
<time>2012-03-24T15:17:12.000Z</time>
</trkpt>
<trkpt lat="43.55563" lon="5.59923">
<ele>485.5</ele>
<time>2012-03-24T15:17:13.000Z</time>
</trkpt>
<trkpt lat="43.5556" lon="5.59911">
<ele>485.2</ele>
<time>2012-03-24T15:17:14.000Z</time>
</trkpt>
<trkpt lat="43.55554" lon="5.59899">
<ele>485.3</ele>
<time>2012-03-24T15:17:15.000Z</time>
</trkpt>
<trkpt lat="43.5555" lon="5.59886">
<ele>485.2</ele>
<time>2012-03-24T15:17:16.000Z</time>
</trkpt>
<trkpt lat="43.55548" lon="5.59874">
<ele>485.3</ele>
<time>2012-03-24T15:17:17.000Z</time>
</trkpt>
<trkpt lat="43.55544" lon="5.59862">
<ele>486.1</ele>
<time>2012-03-24T15:17:18.000Z</time>
</trkpt>
<trkpt lat="43.5554" lon="5.59849">
<ele>486.3</ele>
<time>2012-03-24T15:17:19.000Z</time>
</trkpt>
<trkpt lat="43.55536" lon="5.59835">
<ele>486.3</ele>
<time>2012-03-24T15:17:20.000Z</time>
</trkpt>
<trkpt lat="43.55532" lon="5.59822">
<ele>486.1</ele>
<time>2012-03-24T15:17:21.000Z</time>
</trkpt>
<trkpt lat="43.55529" lon="5.59807">
<ele>485.7</ele>
<time>2012-03-24T15:17:22.000Z</time>
</trkpt>
<trkpt lat="43.55524" lon="5.59794">
<ele>486.3</ele>
<time>2012-03-24T15:17:23.000Z</time>
</trkpt>
<trkpt lat="43.55521" lon="5.59779">
<ele>486.1</ele>
<time>2012-03-24T15:17:24.000Z</time>
</trkpt>
<trkpt lat="43.55517" lon="5.59765">
<ele>485.9</ele>
<time>2012-03-24T15:17:25.000Z</time>
</trkpt>
<trkpt lat="43.55514" lon="5.59753">
<ele>486.2</ele>
<time>2012-03-24T15:17:26.000Z</time>
</trkpt>
<trkpt lat="43.55511" lon="5.59738">
<ele>485.6</ele>
<time>2012-03-24T15:17:27.000Z</time>
</trkpt>
<trkpt lat="43.55508" lon="5.59724">
<ele>485.9</ele>
<time>2012-03-24T15:17:28.000Z</time>
</trkpt>
<trkpt lat="43.55505" lon="5.5971">
<ele>485.9</ele>
<time>2012-03-24T15:17:29.000Z</time>
</trkpt>
<trkpt lat="43.55503" lon="5.59694">
<ele>485.4</ele>
<time>2012-03-24T15:17:30.000Z</time>
</trkpt>
<trkpt lat="43.555" lon="5.59677">
<ele>485.6</ele>
<time>2012-03-24T15:17:31.000Z</time>
</trkpt>
<trkpt lat="43.55498" lon="5.5966">
<ele>485.3</ele>
<time>2012-03-24T15:17:32.000Z</time>
</trkpt>
<trkpt lat="43.55498" lon="5.59642">
<ele>484.8</ele>
<time>2012-03-24T15:17:33.000Z</time>
</trkpt>
<trkpt lat="43.55497" lon="5.59627">
<ele>484</ele>
<time>2012-03-24T15:17:34.000Z</time>
</trkpt>
<trkpt lat="43.55497" lon="5.59611">
<ele>483.9</ele>
<time>2012-03-24T15:17:35.000Z</time>
</trkpt>
<trkpt lat="43.55497" lon="5.59596">
<ele>483.1</ele>
<time>2012-03-24T15:17:36.000Z</time>
</trkpt>
<trkpt lat="43.555" lon="5.5958">
<ele>481.1</ele>
<time>2012-03-24T15:17:37.000Z</time>
</trkpt>
<trkpt lat="43.55503" lon="5.59563">
<ele>479.2</ele>
<time>2012-03-24T15:17:38.000Z</time>
</trkpt>
<trkpt lat="43.55505" lon="5.59546">
<ele>478</ele>
<time>2012-03-24T15:17:39.000Z</time>
</trkpt>
<trkpt lat="43.55506" lon="5.59529">
<ele>477.6</ele>
<time>2012-03-24T15:17:40.000Z</time>
</trkpt>
<trkpt lat="43.55508" lon="5.59514">
<ele>477</ele>
<time>2012-03-24T15:17:41.000Z</time>
</trkpt>
<trkpt lat="43.55511" lon="5.59497">
<ele>476.8</ele>
<time>2012-03-24T15:17:42.000Z</time>
</trkpt>
<trkpt lat="43.55514" lon="5.5948">
<ele>476.5</ele>
<time>2012-03-24T15:17:43.000Z</time>
</trkpt>
<trkpt lat="43.55517" lon="5.59464">
<ele>475.9</ele>
<time>2012-03-24T15:17:44.000Z</time>
</trkpt>
<trkpt lat="43.55523" lon="5.59448">
<ele>474.5</ele>
<time>2012-03-24T15:17:45.000Z</time>
</trkpt>
<trkpt lat="43.55528" lon="5.59431">
<ele>474.3</ele>
<time>2012-03-24T15:17:46.000Z</time>
</trkpt>
<trkpt lat="43.55531" lon="5.59415">
<ele>474</ele>
<time>2012-03-24T15:17:47.000Z</time>
</trkpt>
<trkpt lat="43.55536" lon="5.59397">
<ele>474.1</ele>
<time>2012-03-24T15:17:48.000Z</time>
</trkpt>
<trkpt lat="43.55541" lon="5.59381">
<ele>474.3</ele>
<time>2012-03-24T15:17:49.000Z</time>
</trkpt>
<trkpt lat="43.55545" lon="5.59364">
<ele>474.5</ele>
<time>2012-03-24T15:17:50.000Z</time>
</trkpt>
<trkpt lat="43.55551" lon="5.59345">
<ele>473.8</ele>
<time>2012-03-24T15:17:51.000Z</time>
</trkpt>
<trkpt lat="43.55556" lon="5.59327">
<ele>473.3</ele>
<time>2012-03-24T15:17:52.000Z</time>
</trkpt>
<trkpt lat="43.5556" lon="5.59309">
<ele>473.7</ele>
<time>2012-03-24T15:17:53.000Z</time>
</trkpt>
<trkpt lat="43.55564" lon="5.59291">
<ele>473.1</ele>
<time>2012-03-24T15:17:54.000Z</time>
</trkpt>
<trkpt lat="43.55568" lon="5.59274">
<ele>473.2</ele>
<time>2012-03-24T15:17:55.000Z</time>
</trkpt>
<trkpt lat="43.55571" lon="5.59257">
<ele>473.1</ele>
<time>2012-03-24T15:17:56.000Z</time>
</trkpt>
<trkpt lat="43.55574" lon="5.59241">
<ele>472.7</ele>
<time>2012-03-24T15:17:57.000Z</time>
</trkpt>
<trkpt lat="43.55579" lon="5.59224">
<ele>472.4</ele>
<time>2012-03-24T15:17:58.000Z</time>
</trkpt>
<trkpt lat="43.55581" lon="5.59206">
<ele>472.1</ele>
<time>2012-03-24T15:17:59.000Z</time>
</trkpt>
<trkpt lat="43.55585" lon="5.59189">
<ele>471.9</ele>
<time>2012-03-24T15:18:00.000Z</time>
</trkpt>
<trkpt lat="43.55588" lon="5.59172">
<ele>470.8</ele>
<time>2012-03-24T15:18:01.000Z</time>
</trkpt>
<trkpt lat="43.55589" lon="5.59156">
<ele>469.5</ele>
<time>2012-03-24T15:18:02.000Z</time>
</trkpt>
<trkpt lat="43.55588" lon="5.59139">
<ele>468.5</ele>
<time>2012-03-24T15:18:03.000Z</time>
</trkpt>
<trkpt lat="43.55587" lon="5.59122">
<ele>467.1</ele>
<time>2012-03-24T15:18:04.000Z</time>
</trkpt>
<trkpt lat="43.55585" lon="5.59106">
<ele>467</ele>
<time>2012-03-24T15:18:05.000Z</time>
</trkpt>
<trkpt lat="43.55583" lon="5.59091">
<ele>466.8</ele>
<time>2012-03-24T15:18:06.000Z</time>
</trkpt>
<trkpt lat="43.55581" lon="5.59075">
<ele>466.9</ele>
<time>2012-03-24T15:18:07.000Z</time>
</trkpt>
<trkpt lat="43.55578" lon="5.5906">
<ele>466.8</ele>
<time>2012-03-24T15:18:08.000Z</time>
</trkpt>
<trkpt lat="43.55576" lon="5.59045">
<ele>466.2</ele>
<time>2012-03-24T15:18:09.000Z</time>
</trkpt>
<trkpt lat="43.55572" lon="5.59031">
<ele>465.9</ele>
<time>2012-03-24T15:18:10.000Z</time>
</trkpt>
<trkpt lat="43.55568" lon="5.59019">
<ele>465.9</ele>
<time>2012-03-24T15:18:11.000Z</time>
</trkpt>
<trkpt lat="43.55564" lon="5.59006">
<ele>465.9</ele>
<time>2012-03-24T15:18:12.000Z</time>
</trkpt>
<trkpt lat="43.5556" lon="5.58992">
<ele>465.9</ele>
<time>2012-03-24T15:18:13.000Z</time>
</trkpt>
<trkpt lat="43.55554" lon="5.5898">
<ele>466.1</ele>
<time>2012-03-24T15:18:14.000Z</time>
</trkpt>
<trkpt lat="43.55547" lon="5.58968">
<ele>466</ele>
<time>2012-03-24T15:18:15.000Z</time>
</trkpt>
<trkpt lat="43.55542" lon="5.58956">
<ele>465.8</ele>
<time>2012-03-24T15:18:16.000Z</time>
</trkpt>
<trkpt lat="43.55534" lon="5.58944">
<ele>465.7</ele>
<time>2012-03-24T15:18:17.000Z</time>
</trkpt>
<trkpt lat="43.55528" lon="5.58932">
<ele>465.6</ele>
<time>2012-03-24T15:18:18.000Z</time>
</trkpt>
<trkpt lat="43.55522" lon="5.58921">
<ele>466</ele>
<time>2012-03-24T15:18:19.000Z</time>
</trkpt>
<trkpt lat="43.55516" lon="5.5891">
<ele>465.9</ele>
<time>2012-03-24T15:18:20.000Z</time>
</trkpt>
<trkpt lat="43.5551" lon="5.58897">
<ele>465.9</ele>
<time>2012-03-24T15:18:21.000Z</time>
</trkpt>
<trkpt lat="43.55506" lon="5.58886">
<ele>465.6</ele>
<time>2012-03-24T15:18:22.000Z</time>
</trkpt>
<trkpt lat="43.55502" lon="5.58875">
<ele>465.3</ele>
<time>2012-03-24T15:18:23.000Z</time>
</trkpt>
<trkpt lat="43.55496" lon="5.58863">
<ele>464.8</ele>
<time>2012-03-24T15:18:24.000Z</time>
</trkpt>
<trkpt lat="43.55491" lon="5.58849">
<ele>464.5</ele>
<time>2012-03-24T15:18:25.000Z</time>
</trkpt>
<trkpt lat="43.55487" lon="5.58838">
<ele>464.2</ele>
<time>2012-03-24T15:18:26.000Z</time>
</trkpt>
<trkpt lat="43.55483" lon="5.58826">
<ele>464.4</ele>
<time>2012-03-24T15:18:27.000Z</time>
</trkpt>
<trkpt lat="43.5548" lon="5.58814">
<ele>464.4</ele>
<time>2012-03-24T15:18:28.000Z</time>
</trkpt>
<trkpt lat="43.55476" lon="5.588">
<ele>464.4</ele>
<time>2012-03-24T15:18:29.000Z</time>
</trkpt>
<trkpt lat="43.55471" lon="5.58786">
<ele>464.3</ele>
<time>2012-03-24T15:18:30.000Z</time>
</trkpt>
<trkpt lat="43.55469" lon="5.5877">
<ele>464.1</ele>
<time>2012-03-24T15:18:31.000Z</time>
</trkpt>
<trkpt lat="43.55467" lon="5.58752">
<ele>463.2</ele>
<time>2012-03-24T15:18:32.000Z</time>
</trkpt>
<trkpt lat="43.55465" lon="5.58735">
<ele>463</ele>
<time>2012-03-24T15:18:33.000Z</time>
</trkpt>
<trkpt lat="43.55463" lon="5.58718">
<ele>462.9</ele>
<time>2012-03-24T15:18:34.000Z</time>
</trkpt>
<trkpt lat="43.5546" lon="5.587">
<ele>463</ele>
<time>2012-03-24T15:18:35.000Z</time>
</trkpt>
<trkpt lat="43.55458" lon="5.58682">
<ele>462.7</ele>
<time>2012-03-24T15:18:36.000Z</time>
</trkpt>
<trkpt lat="43.55457" lon="5.58663">
<ele>462.3</ele>
<time>2012-03-24T15:18:37.000Z</time>
</trkpt>
<trkpt lat="43.55455" lon="5.58646">
<ele>462.5</ele>
<time>2012-03-24T15:18:38.000Z</time>
</trkpt>
<trkpt lat="43.55455" lon="5.58627">
<ele>461.2</ele>
<time>2012-03-24T15:18:39.000Z</time>
</trkpt>
<trkpt lat="43.55453" lon="5.58608">
<ele>460.1</ele>
<time>2012-03-24T15:18:40.000Z</time>
</trkpt>
<trkpt lat="43.55452" lon="5.58591">
<ele>459.1</ele>
<time>2012-03-24T15:18:41.000Z</time>
</trkpt>
<trkpt lat="43.5545" lon="5.58571">
<ele>458</ele>
<time>2012-03-24T15:18:42.000Z</time>
</trkpt>
<trkpt lat="43.55448" lon="5.58554">
<ele>456.9</ele>
<time>2012-03-24T15:18:43.000Z</time>
</trkpt>
<trkpt lat="43.55444" lon="5.58538">
<ele>456</ele>
<time>2012-03-24T15:18:44.000Z</time>
</trkpt>
<trkpt lat="43.5544" lon="5.58522">
<ele>455.7</ele>
<time>2012-03-24T15:18:45.000Z</time>
</trkpt>
<trkpt lat="43.55437" lon="5.58504">
<ele>455.3</ele>
<time>2012-03-24T15:18:46.000Z</time>
</trkpt>
<trkpt lat="43.55433" lon="5.58487">
<ele>454.5</ele>
<time>2012-03-24T15:18:47.000Z</time>
</trkpt>
<trkpt lat="43.5543" lon="5.58469">
<ele>453.9</ele>
<time>2012-03-24T15:18:48.000Z</time>
</trkpt>
<trkpt lat="43.55426" lon="5.5845">
<ele>453.8</ele>
<time>2012-03-24T15:18:49.000Z</time>
</trkpt>
<trkpt lat="43.55422" lon="5.58432">
<ele>453.4</ele>
<time>2012-03-24T15:18:50.000Z</time>
</trkpt>
<trkpt lat="43.55419" lon="5.58413">
<ele>451</ele>
<time>2012-03-24T15:18:51.000Z</time>
</trkpt>
<trkpt lat="43.55415" lon="5.58395">
<ele>450</ele>
<time>2012-03-24T15:18:52.000Z</time>
</trkpt>
<trkpt lat="43.55409" lon="5.58376">
<ele>448.2</ele>
<time>2012-03-24T15:18:53.000Z</time>
</trkpt>
<trkpt lat="43.55404" lon="5.58357">
<ele>447.2</ele>
<time>2012-03-24T15:18:54.000Z</time>
</trkpt>
<trkpt lat="43.554" lon="5.5834">
<ele>446</ele>
<time>2012-03-24T15:18:55.000Z</time>
</trkpt>
<trkpt lat="43.55397" lon="5.58322">
<ele>445.2</ele>
<time>2012-03-24T15:18:56.000Z</time>
</trkpt>
<trkpt lat="43.5539" lon="5.58305">
<ele>444.9</ele>
<time>2012-03-24T15:18:57.000Z</time>
</trkpt>
<trkpt lat="43.55385" lon="5.5829">
<ele>444.3</ele>
<time>2012-03-24T15:18:58.000Z</time>
</trkpt>
<trkpt lat="43.55378" lon="5.58276">
<ele>443.6</ele>
<time>2012-03-24T15:18:59.000Z</time>
</trkpt>
<trkpt lat="43.5537" lon="5.58264">
<ele>443.2</ele>
<time>2012-03-24T15:19:00.000Z</time>
</trkpt>
<trkpt lat="43.55363" lon="5.58254">
<ele>442.1</ele>
<time>2012-03-24T15:19:01.000Z</time>
</trkpt>
<trkpt lat="43.55354" lon="5.58242">
<ele>441.2</ele>
<time>2012-03-24T15:19:02.000Z</time>
</trkpt>
<trkpt lat="43.55347" lon="5.5823">
<ele>440.7</ele>
<time>2012-03-24T15:19:03.000Z</time>
</trkpt>
<trkpt lat="43.55339" lon="5.58216">
<ele>440.3</ele>
<time>2012-03-24T15:19:04.000Z</time>
</trkpt>
<trkpt lat="43.55335" lon="5.58204">
<ele>439.9</ele>
<time>2012-03-24T15:19:05.000Z</time>
</trkpt>
<trkpt lat="43.5533" lon="5.5819">
<ele>439.4</ele>
<time>2012-03-24T15:19:06.000Z</time>
</trkpt>
<trkpt lat="43.55327" lon="5.58176">
<ele>439.3</ele>
<time>2012-03-24T15:19:07.000Z</time>
</trkpt>
<trkpt lat="43.55328" lon="5.5816">
<ele>439</ele>
<time>2012-03-24T15:19:08.000Z</time>
</trkpt>
<trkpt lat="43.55332" lon="5.58143">
<ele>437.3</ele>
<time>2012-03-24T15:19:09.000Z</time>
</trkpt>
<trkpt lat="43.55337" lon="5.58129">
<ele>436.3</ele>
<time>2012-03-24T15:19:10.000Z</time>
</trkpt>
<trkpt lat="43.55343" lon="5.58115">
<ele>435</ele>
<time>2012-03-24T15:19:11.000Z</time>
</trkpt>
<trkpt lat="43.55347" lon="5.58101">
<ele>434.5</ele>
<time>2012-03-24T15:19:12.000Z</time>
</trkpt>
<trkpt lat="43.55354" lon="5.58087">
<ele>434.2</ele>
<time>2012-03-24T15:19:13.000Z</time>
</trkpt>
<trkpt lat="43.55357" lon="5.58075">
<ele>434.1</ele>
<time>2012-03-24T15:19:14.000Z</time>
</trkpt>
<trkpt lat="43.55361" lon="5.58062">
<ele>433.3</ele>
<time>2012-03-24T15:19:15.000Z</time>
</trkpt>
<trkpt lat="43.55366" lon="5.58049">
<ele>433</ele>
<time>2012-03-24T15:19:16.000Z</time>
</trkpt>
<trkpt lat="43.55371" lon="5.58035">
<ele>431.4</ele>
<time>2012-03-24T15:19:17.000Z</time>
</trkpt>
<trkpt lat="43.55375" lon="5.58024">
<ele>430.7</ele>
<time>2012-03-24T15:19:18.000Z</time>
</trkpt>
<trkpt lat="43.55381" lon="5.58014">
<ele>429.9</ele>
<time>2012-03-24T15:19:19.000Z</time>
</trkpt>
<trkpt lat="43.55387" lon="5.58002">
<ele>428.7</ele>
<time>2012-03-24T15:19:20.000Z</time>
</trkpt>
<trkpt lat="43.55391" lon="5.5799">
<ele>428.6</ele>
<time>2012-03-24T15:19:21.000Z</time>
</trkpt>
<trkpt lat="43.55395" lon="5.57979">
<ele>427.7</ele>
<time>2012-03-24T15:19:22.000Z</time>
</trkpt>
<trkpt lat="43.55399" lon="5.57969">
<ele>427</ele>
<time>2012-03-24T15:19:23.000Z</time>
</trkpt>
<trkpt lat="43.55401" lon="5.57959">
<ele>426.8</ele>
<time>2012-03-24T15:19:24.000Z</time>
</trkpt>
<trkpt lat="43.55402" lon="5.57951">
<ele>427.1</ele>
<time>2012-03-24T15:19:25.000Z</time>
</trkpt>
<trkpt lat="43.55405" lon="5.57941">
<ele>427.4</ele>
<time>2012-03-24T15:19:26.000Z</time>
</trkpt>
<trkpt lat="43.55407" lon="5.57932">
<ele>427.1</ele>
<time>2012-03-24T15:19:27.000Z</time>
</trkpt>
<trkpt lat="43.55408" lon="5.57923">
<ele>427.2</ele>
<time>2012-03-24T15:19:28.000Z</time>
</trkpt>
<trkpt lat="43.5541" lon="5.57913">
<ele>427.4</ele>
<time>2012-03-24T15:19:29.000Z</time>
</trkpt>
<trkpt lat="43.5541" lon="5.57904">
<ele>427.4</ele>
<time>2012-03-24T15:19:30.000Z</time>
</trkpt>
<trkpt lat="43.55411" lon="5.57895">
<ele>427</ele>
<time>2012-03-24T15:19:31.000Z</time>
</trkpt>
<trkpt lat="43.55412" lon="5.57886">
<ele>427.2</ele>
<time>2012-03-24T15:19:32.000Z</time>
</trkpt>
<trkpt lat="43.55412" lon="5.57877">
<ele>427.7</ele>
<time>2012-03-24T15:19:33.000Z</time>
</trkpt>
<trkpt lat="43.55414" lon="5.57865">
<ele>427.6</ele>
<time>2012-03-24T15:19:34.000Z</time>
</trkpt>
<trkpt lat="43.55416" lon="5.57856">
<ele>427.8</ele>
<time>2012-03-24T15:19:35.000Z</time>
</trkpt>
<trkpt lat="43.55415" lon="5.57848">
<ele>427.8</ele>
<time>2012-03-24T15:19:36.000Z</time>
</trkpt>
<trkpt lat="43.55417" lon="5.57839">
<ele>428.1</ele>
<time>2012-03-24T15:19:37.000Z</time>
</trkpt>
<trkpt lat="43.55417" lon="5.57831">
<ele>428.1</ele>
<time>2012-03-24T15:19:38.000Z</time>
</trkpt>
<trkpt lat="43.55418" lon="5.57824">
<ele>428.1</ele>
<time>2012-03-24T15:19:39.000Z</time>
</trkpt>
<trkpt lat="43.5542" lon="5.57816">
<ele>428.2</ele>
<time>2012-03-24T15:19:40.000Z</time>
</trkpt>
<trkpt lat="43.55421" lon="5.57809">
<ele>428.4</ele>
<time>2012-03-24T15:19:41.000Z</time>
</trkpt>
<trkpt lat="43.55423" lon="5.57795">
<ele>428.4</ele>
<time>2012-03-24T15:19:43.000Z</time>
</trkpt>
<trkpt lat="43.55424" lon="5.57787">
<ele>428.4</ele>
<time>2012-03-24T15:19:44.000Z</time>
</trkpt>
<trkpt lat="43.55426" lon="5.57779">
<ele>428.8</ele>
<time>2012-03-24T15:19:45.000Z</time>
</trkpt>
<trkpt lat="43.55428" lon="5.57772">
<ele>428.8</ele>
<time>2012-03-24T15:19:46.000Z</time>
</trkpt>
<trkpt lat="43.5543" lon="5.57764">
<ele>428.8</ele>
<time>2012-03-24T15:19:47.000Z</time>
</trkpt>
<trkpt lat="43.55432" lon="5.57757">
<ele>429</ele>
<time>2012-03-24T15:19:48.000Z</time>
</trkpt>
<trkpt lat="43.55434" lon="5.57751">
<ele>429</ele>
<time>2012-03-24T15:19:49.000Z</time>
</trkpt>
<trkpt lat="43.55437" lon="5.57744">
<ele>428.3</ele>
<time>2012-03-24T15:19:50.000Z</time>
</trkpt>
<trkpt lat="43.5544" lon="5.57736">
<ele>428.4</ele>
<time>2012-03-24T15:19:51.000Z</time>
</trkpt>
<trkpt lat="43.55443" lon="5.57728">
<ele>428.5</ele>
<time>2012-03-24T15:19:52.000Z</time>
</trkpt>
<trkpt lat="43.55447" lon="5.57721">
<ele>428.7</ele>
<time>2012-03-24T15:19:53.000Z</time>
</trkpt>
<trkpt lat="43.55451" lon="5.57713">
<ele>428.1</ele>
<time>2012-03-24T15:19:54.000Z</time>
</trkpt>
<trkpt lat="43.55455" lon="5.57705">
<ele>428.1</ele>
<time>2012-03-24T15:19:55.000Z</time>
</trkpt>
<trkpt lat="43.55458" lon="5.57695">
<ele>428.5</ele>
<time>2012-03-24T15:19:56.000Z</time>
</trkpt>
<trkpt lat="43.55464" lon="5.57685">
<ele>428.6</ele>
<time>2012-03-24T15:19:57.000Z</time>
</trkpt>
<trkpt lat="43.55468" lon="5.57674">
<ele>429.3</ele>
<time>2012-03-24T15:19:58.000Z</time>
</trkpt>
<trkpt lat="43.55472" lon="5.57665">
<ele>429.1</ele>
<time>2012-03-24T15:19:59.000Z</time>
</trkpt>
<trkpt lat="43.55476" lon="5.57655">
<ele>429</ele>
<time>2012-03-24T15:20:00.000Z</time>
</trkpt>
<trkpt lat="43.55481" lon="5.57644">
<ele>429.1</ele>
<time>2012-03-24T15:20:01.000Z</time>
</trkpt>
<trkpt lat="43.55484" lon="5.57634">
<ele>428.7</ele>
<time>2012-03-24T15:20:02.000Z</time>
</trkpt>
<trkpt lat="43.55489" lon="5.57624">
<ele>427.9</ele>
<time>2012-03-24T15:20:03.000Z</time>
</trkpt>
<trkpt lat="43.55493" lon="5.57613">
<ele>427.6</ele>
<time>2012-03-24T15:20:04.000Z</time>
</trkpt>
<trkpt lat="43.55498" lon="5.57604">
<ele>427.5</ele>
<time>2012-03-24T15:20:05.000Z</time>
</trkpt>
<trkpt lat="43.55502" lon="5.57593">
<ele>427</ele>
<time>2012-03-24T15:20:06.000Z</time>
</trkpt>
<trkpt lat="43.55505" lon="5.57582">
<ele>427.4</ele>
<time>2012-03-24T15:20:07.000Z</time>
</trkpt>
<trkpt lat="43.55508" lon="5.57571">
<ele>426.7</ele>
<time>2012-03-24T15:20:08.000Z</time>
</trkpt>
<trkpt lat="43.55511" lon="5.5756">
<ele>426</ele>
<time>2012-03-24T15:20:09.000Z</time>
</trkpt>
<trkpt lat="43.55514" lon="5.57548">
<ele>426.1</ele>
<time>2012-03-24T15:20:10.000Z</time>
</trkpt>
<trkpt lat="43.55516" lon="5.57536">
<ele>425.4</ele>
<time>2012-03-24T15:20:11.000Z</time>
</trkpt>
<trkpt lat="43.55519" lon="5.57524">
<ele>424.7</ele>
<time>2012-03-24T15:20:12.000Z</time>
</trkpt>
<trkpt lat="43.55521" lon="5.57511">
<ele>424.6</ele>
<time>2012-03-24T15:20:13.000Z</time>
</trkpt>
<trkpt lat="43.55523" lon="5.57499">
<ele>424.4</ele>
<time>2012-03-24T15:20:14.000Z</time>
</trkpt>
<trkpt lat="43.55524" lon="5.57488">
<ele>424.6</ele>
<time>2012-03-24T15:20:15.000Z</time>
</trkpt>
<trkpt lat="43.55524" lon="5.57477">
<ele>424.1</ele>
<time>2012-03-24T15:20:16.000Z</time>
</trkpt>
<trkpt lat="43.55524" lon="5.57465">
<ele>423.9</ele>
<time>2012-03-24T15:20:17.000Z</time>
</trkpt>
<trkpt lat="43.55524" lon="5.57454">
<ele>424.1</ele>
<time>2012-03-24T15:20:18.000Z</time>
</trkpt>
<trkpt lat="43.55522" lon="5.57444">
<ele>424.2</ele>
<time>2012-03-24T15:20:19.000Z</time>
</trkpt>
<trkpt lat="43.55521" lon="5.57433">
<ele>424.2</ele>
<time>2012-03-24T15:20:20.000Z</time>
</trkpt>
<trkpt lat="43.55519" lon="5.57422">
<ele>424.1</ele>
<time>2012-03-24T15:20:21.000Z</time>
</trkpt>
<trkpt lat="43.55516" lon="5.57413">
<ele>423.8</ele>
<time>2012-03-24T15:20:22.000Z</time>
</trkpt>
<trkpt lat="43.55514" lon="5.57403">
<ele>423.8</ele>
<time>2012-03-24T15:20:23.000Z</time>
</trkpt>
<trkpt lat="43.55512" lon="5.57393">
<ele>423.6</ele>
<time>2012-03-24T15:20:24.000Z</time>
</trkpt>
<trkpt lat="43.55511" lon="5.57381">
<ele>423.9</ele>
<time>2012-03-24T15:20:25.000Z</time>
</trkpt>
<trkpt lat="43.55511" lon="5.5737">
<ele>423.7</ele>
<time>2012-03-24T15:20:26.000Z</time>
</trkpt>
<trkpt lat="43.55511" lon="5.57358">
<ele>423.7</ele>
<time>2012-03-24T15:20:27.000Z</time>
</trkpt>
<trkpt lat="43.55514" lon="5.57345">
<ele>423.3</ele>
<time>2012-03-24T15:20:28.000Z</time>
</trkpt>
<trkpt lat="43.55514" lon="5.57335">
<ele>423.3</ele>
<time>2012-03-24T15:20:29.000Z</time>
</trkpt>
<trkpt lat="43.55515" lon="5.57323">
<ele>423.5</ele>
<time>2012-03-24T15:20:30.000Z</time>
</trkpt>
<trkpt lat="43.55517" lon="5.57311">
<ele>422.8</ele>
<time>2012-03-24T15:20:31.000Z</time>
</trkpt>
<trkpt lat="43.55519" lon="5.57301">
<ele>423</ele>
<time>2012-03-24T15:20:32.000Z</time>
</trkpt>
<trkpt lat="43.55522" lon="5.57289">
<ele>422.8</ele>
<time>2012-03-24T15:20:33.000Z</time>
</trkpt>
<trkpt lat="43.55523" lon="5.57276">
<ele>422.9</ele>
<time>2012-03-24T15:20:34.000Z</time>
</trkpt>
<trkpt lat="43.55524" lon="5.57265">
<ele>422.7</ele>
<time>2012-03-24T15:20:35.000Z</time>
</trkpt>
<trkpt lat="43.55526" lon="5.57253">
<ele>422.5</ele>
<time>2012-03-24T15:20:36.000Z</time>
</trkpt>
<trkpt lat="43.55529" lon="5.57241">
<ele>422</ele>
<time>2012-03-24T15:20:37.000Z</time>
</trkpt>
<trkpt lat="43.55532" lon="5.5723">
<ele>421.3</ele>
<time>2012-03-24T15:20:38.000Z</time>
</trkpt>
<trkpt lat="43.55535" lon="5.57217">
<ele>421.2</ele>
<time>2012-03-24T15:20:39.000Z</time>
</trkpt>
<trkpt lat="43.55538" lon="5.57205">
<ele>420.9</ele>
<time>2012-03-24T15:20:40.000Z</time>
</trkpt>
<trkpt lat="43.55542" lon="5.57192">
<ele>420.5</ele>
<time>2012-03-24T15:20:41.000Z</time>
</trkpt>
<trkpt lat="43.55544" lon="5.5718">
<ele>420.2</ele>
<time>2012-03-24T15:20:42.000Z</time>
</trkpt>
<trkpt lat="43.55548" lon="5.57168">
<ele>419.5</ele>
<time>2012-03-24T15:20:43.000Z</time>
</trkpt>
<trkpt lat="43.55551" lon="5.57156">
<ele>418.8</ele>
<time>2012-03-24T15:20:44.000Z</time>
</trkpt>
<trkpt lat="43.55555" lon="5.57143">
<ele>418.4</ele>
<time>2012-03-24T15:20:45.000Z</time>
</trkpt>
<trkpt lat="43.55558" lon="5.5713">
<ele>418</ele>
<time>2012-03-24T15:20:46.000Z</time>
</trkpt>
<trkpt lat="43.55561" lon="5.57118">
<ele>417.6</ele>
<time>2012-03-24T15:20:47.000Z</time>
</trkpt>
<trkpt lat="43.55564" lon="5.57105">
<ele>417.5</ele>
<time>2012-03-24T15:20:48.000Z</time>
</trkpt>
<trkpt lat="43.55567" lon="5.57092">
<ele>417.2</ele>
<time>2012-03-24T15:20:49.000Z</time>
</trkpt>
<trkpt lat="43.5557" lon="5.57079">
<ele>417.6</ele>
<time>2012-03-24T15:20:50.000Z</time>
</trkpt>
<trkpt lat="43.55573" lon="5.57067">
<ele>417.3</ele>
<time>2012-03-24T15:20:51.000Z</time>
</trkpt>
<trkpt lat="43.55575" lon="5.57054">
<ele>417.3</ele>
<time>2012-03-24T15:20:52.000Z</time>
</trkpt>
<trkpt lat="43.55578" lon="5.57041">
<ele>417.3</ele>
<time>2012-03-24T15:20:53.000Z</time>
</trkpt>
<trkpt lat="43.55582" lon="5.57028">
<ele>416.5</ele>
<time>2012-03-24T15:20:54.000Z</time>
</trkpt>
<trkpt lat="43.55584" lon="5.57016">
<ele>416.2</ele>
<time>2012-03-24T15:20:55.000Z</time>
</trkpt>
<trkpt lat="43.55586" lon="5.57003">
<ele>415.7</ele>
<time>2012-03-24T15:20:56.000Z</time>
</trkpt>
<trkpt lat="43.55589" lon="5.5699">
<ele>415.8</ele>
<time>2012-03-24T15:20:57.000Z</time>
</trkpt>
<trkpt lat="43.55591" lon="5.56977">
<ele>416</ele>
<time>2012-03-24T15:20:58.000Z</time>
</trkpt>
<trkpt lat="43.55594" lon="5.56964">
<ele>415.6</ele>
<time>2012-03-24T15:20:59.000Z</time>
</trkpt>
<trkpt lat="43.55597" lon="5.56951">
<ele>415.7</ele>
<time>2012-03-24T15:21:00.000Z</time>
</trkpt>
<trkpt lat="43.556" lon="5.56938">
<ele>415.7</ele>
<time>2012-03-24T15:21:01.000Z</time>
</trkpt>
<trkpt lat="43.55602" lon="5.56926">
<ele>415.8</ele>
<time>2012-03-24T15:21:02.000Z</time>
</trkpt>
<trkpt lat="43.55604" lon="5.56913">
<ele>415.5</ele>
<time>2012-03-24T15:21:03.000Z</time>
</trkpt>
<trkpt lat="43.55605" lon="5.569">
<ele>415.4</ele>
<time>2012-03-24T15:21:04.000Z</time>
</trkpt>
<trkpt lat="43.55606" lon="5.56887">
<ele>415.4</ele>
<time>2012-03-24T15:21:05.000Z</time>
</trkpt>
<trkpt lat="43.55606" lon="5.56874">
<ele>415.1</ele>
<time>2012-03-24T15:21:06.000Z</time>
</trkpt>
<trkpt lat="43.55604" lon="5.5686">
<ele>415</ele>
<time>2012-03-24T15:21:07.000Z</time>
</trkpt>
<trkpt lat="43.55603" lon="5.56847">
<ele>414.6</ele>
<time>2012-03-24T15:21:08.000Z</time>
</trkpt>
<trkpt lat="43.556" lon="5.56835">
<ele>414.4</ele>
<time>2012-03-24T15:21:09.000Z</time>
</trkpt>
<trkpt lat="43.55596" lon="5.56823">
<ele>414.3</ele>
<time>2012-03-24T15:21:10.000Z</time>
</trkpt>
<trkpt lat="43.55593" lon="5.5681">
<ele>414.1</ele>
<time>2012-03-24T15:21:11.000Z</time>
</trkpt>
<trkpt lat="43.55592" lon="5.56797">
<ele>414.4</ele>
<time>2012-03-24T15:21:12.000Z</time>
</trkpt>
<trkpt lat="43.5559" lon="5.56783">
<ele>414</ele>
<time>2012-03-24T15:21:13.000Z</time>
</trkpt>
<trkpt lat="43.55589" lon="5.5677">
<ele>414</ele>
<time>2012-03-24T15:21:14.000Z</time>
</trkpt>
<trkpt lat="43.55589" lon="5.56756">
<ele>414.1</ele>
<time>2012-03-24T15:21:15.000Z</time>
</trkpt>
<trkpt lat="43.5559" lon="5.56741">
<ele>414</ele>
<time>2012-03-24T15:21:16.000Z</time>
</trkpt>
<trkpt lat="43.55588" lon="5.56726">
<ele>413.9</ele>
<time>2012-03-24T15:21:17.000Z</time>
</trkpt>
<trkpt lat="43.55588" lon="5.56712">
<ele>413.6</ele>
<time>2012-03-24T15:21:18.000Z</time>
</trkpt>
<trkpt lat="43.55589" lon="5.56699">
<ele>413.5</ele>
<time>2012-03-24T15:21:19.000Z</time>
</trkpt>
<trkpt lat="43.5559" lon="5.56684">
<ele>413.9</ele>
<time>2012-03-24T15:21:20.000Z</time>
</trkpt>
<trkpt lat="43.55591" lon="5.56667">
<ele>413.1</ele>
<time>2012-03-24T15:21:21.000Z</time>
</trkpt>
<trkpt lat="43.55592" lon="5.5665">
<ele>413</ele>
<time>2012-03-24T15:21:22.000Z</time>
</trkpt>
<trkpt lat="43.55593" lon="5.56635">
<ele>412.9</ele>
<time>2012-03-24T15:21:23.000Z</time>
</trkpt>
<trkpt lat="43.55594" lon="5.5662">
<ele>412.8</ele>
<time>2012-03-24T15:21:24.000Z</time>
</trkpt>
<trkpt lat="43.55595" lon="5.56603">
<ele>412.8</ele>
<time>2012-03-24T15:21:25.000Z</time>
</trkpt>
<trkpt lat="43.55594" lon="5.56588">
<ele>412.4</ele>
<time>2012-03-24T15:21:26.000Z</time>
</trkpt>
<trkpt lat="43.55594" lon="5.56571">
<ele>411.8</ele>
<time>2012-03-24T15:21:27.000Z</time>
</trkpt>
<trkpt lat="43.55597" lon="5.56555">
<ele>411.5</ele>
<time>2012-03-24T15:21:28.000Z</time>
</trkpt>
<trkpt lat="43.55598" lon="5.5654">
<ele>411.7</ele>
<time>2012-03-24T15:21:29.000Z</time>
</trkpt>
<trkpt lat="43.55602" lon="5.56524">
<ele>411.5</ele>
<time>2012-03-24T15:21:30.000Z</time>
</trkpt>
<trkpt lat="43.55604" lon="5.56511">
<ele>411.3</ele>
<time>2012-03-24T15:21:31.000Z</time>
</trkpt>
<trkpt lat="43.55608" lon="5.56498">
<ele>411.1</ele>
<time>2012-03-24T15:21:32.000Z</time>
</trkpt>
<trkpt lat="43.5561" lon="5.56482">
<ele>411.2</ele>
<time>2012-03-24T15:21:33.000Z</time>
</trkpt>
<trkpt lat="43.55611" lon="5.5647">
<ele>411.5</ele>
<time>2012-03-24T15:21:34.000Z</time>
</trkpt>
<trkpt lat="43.55615" lon="5.56455">
<ele>411.1</ele>
<time>2012-03-24T15:21:35.000Z</time>
</trkpt>
<trkpt lat="43.55615" lon="5.56441">
<ele>410.2</ele>
<time>2012-03-24T15:21:36.000Z</time>
</trkpt>
<trkpt lat="43.55617" lon="5.56426">
<ele>409.5</ele>
<time>2012-03-24T15:21:37.000Z</time>
</trkpt>
<trkpt lat="43.55617" lon="5.56411">
<ele>408.8</ele>
<time>2012-03-24T15:21:38.000Z</time>
</trkpt>
<trkpt lat="43.55618" lon="5.56397">
<ele>408.9</ele>
<time>2012-03-24T15:21:39.000Z</time>
</trkpt>
<trkpt lat="43.55619" lon="5.56382">
<ele>408.9</ele>
<time>2012-03-24T15:21:40.000Z</time>
</trkpt>
<trkpt lat="43.5562" lon="5.56367">
<ele>408.3</ele>
<time>2012-03-24T15:21:41.000Z</time>
</trkpt>
<trkpt lat="43.55621" lon="5.56353">
<ele>407.9</ele>
<time>2012-03-24T15:21:42.000Z</time>
</trkpt>
<trkpt lat="43.55624" lon="5.56338">
<ele>407.3</ele>
<time>2012-03-24T15:21:43.000Z</time>
</trkpt>
<trkpt lat="43.55629" lon="5.56322">
<ele>406.3</ele>
<time>2012-03-24T15:21:44.000Z</time>
</trkpt>
<trkpt lat="43.55634" lon="5.56309">
<ele>405.7</ele>
<time>2012-03-24T15:21:45.000Z</time>
</trkpt>
<trkpt lat="43.55641" lon="5.56298">
<ele>404.8</ele>
<time>2012-03-24T15:21:46.000Z</time>
</trkpt>
<trkpt lat="43.55647" lon="5.56284">
<ele>404.6</ele>
<time>2012-03-24T15:21:47.000Z</time>
</trkpt>
<trkpt lat="43.55651" lon="5.56271">
<ele>404.9</ele>
<time>2012-03-24T15:21:48.000Z</time>
</trkpt>
<trkpt lat="43.55655" lon="5.56258">
<ele>404.4</ele>
<time>2012-03-24T15:21:49.000Z</time>
</trkpt>
<trkpt lat="43.55658" lon="5.56247">
<ele>403.8</ele>
<time>2012-03-24T15:21:50.000Z</time>
</trkpt>
<trkpt lat="43.55661" lon="5.56234">
<ele>403.3</ele>
<time>2012-03-24T15:21:51.000Z</time>
</trkpt>
<trkpt lat="43.55663" lon="5.56221">
<ele>403</ele>
<time>2012-03-24T15:21:52.000Z</time>
</trkpt>
<trkpt lat="43.55665" lon="5.56207">
<ele>403.2</ele>
<time>2012-03-24T15:21:53.000Z</time>
</trkpt>
<trkpt lat="43.55665" lon="5.56194">
<ele>402.6</ele>
<time>2012-03-24T15:21:54.000Z</time>
</trkpt>
<trkpt lat="43.55665" lon="5.56181">
<ele>402.5</ele>
<time>2012-03-24T15:21:55.000Z</time>
</trkpt>
<trkpt lat="43.55665" lon="5.56168">
<ele>401.7</ele>
<time>2012-03-24T15:21:56.000Z</time>
</trkpt>
<trkpt lat="43.55664" lon="5.56154">
<ele>401.6</ele>
<time>2012-03-24T15:21:57.000Z</time>
</trkpt>
<trkpt lat="43.55664" lon="5.56141">
<ele>401.7</ele>
<time>2012-03-24T15:21:58.000Z</time>
</trkpt>
<trkpt lat="43.55664" lon="5.56128">
<ele>401.2</ele>
<time>2012-03-24T15:21:59.000Z</time>
</trkpt>
<trkpt lat="43.55664" lon="5.56115">
<ele>401.1</ele>
<time>2012-03-24T15:22:00.000Z</time>
</trkpt>
<trkpt lat="43.55664" lon="5.56102">
<ele>400.5</ele>
<time>2012-03-24T15:22:01.000Z</time>
</trkpt>
<trkpt lat="43.55664" lon="5.56089">
<ele>400.2</ele>
<time>2012-03-24T15:22:02.000Z</time>
</trkpt>
<trkpt lat="43.55663" lon="5.56077">
<ele>399.8</ele>
<time>2012-03-24T15:22:03.000Z</time>
</trkpt>
<trkpt lat="43.55663" lon="5.56064">
<ele>399.4</ele>
<time>2012-03-24T15:22:04.000Z</time>
</trkpt>
<trkpt lat="43.55662" lon="5.56051">
<ele>399.6</ele>
<time>2012-03-24T15:22:05.000Z</time>
</trkpt>
<trkpt lat="43.55662" lon="5.5604">
<ele>399.1</ele>
<time>2012-03-24T15:22:06.000Z</time>
</trkpt>
<trkpt lat="43.55662" lon="5.56028">
<ele>398.9</ele>
<time>2012-03-24T15:22:07.000Z</time>
</trkpt>
<trkpt lat="43.5566" lon="5.56015">
<ele>399.2</ele>
<time>2012-03-24T15:22:08.000Z</time>
</trkpt>
<trkpt lat="43.5566" lon="5.56004">
<ele>399</ele>
<time>2012-03-24T15:22:09.000Z</time>
</trkpt>
<trkpt lat="43.55659" lon="5.55993">
<ele>398.9</ele>
<time>2012-03-24T15:22:10.000Z</time>
</trkpt>
<trkpt lat="43.55657" lon="5.55982">
<ele>398.7</ele>
<time>2012-03-24T15:22:11.000Z</time>
</trkpt>
<trkpt lat="43.55657" lon="5.5597">
<ele>398.8</ele>
<time>2012-03-24T15:22:12.000Z</time>
</trkpt>
<trkpt lat="43.55656" lon="5.55958">
<ele>399.1</ele>
<time>2012-03-24T15:22:13.000Z</time>
</trkpt>
<trkpt lat="43.55655" lon="5.55948">
<ele>399.1</ele>
<time>2012-03-24T15:22:14.000Z</time>
</trkpt>
<trkpt lat="43.55655" lon="5.55937">
<ele>399.3</ele>
<time>2012-03-24T15:22:15.000Z</time>
</trkpt>
<trkpt lat="43.55654" lon="5.55927">
<ele>399.4</ele>
<time>2012-03-24T15:22:16.000Z</time>
</trkpt>
<trkpt lat="43.55652" lon="5.55917">
<ele>399.7</ele>
<time>2012-03-24T15:22:17.000Z</time>
</trkpt>
<trkpt lat="43.55651" lon="5.55907">
<ele>399.8</ele>
<time>2012-03-24T15:22:18.000Z</time>
</trkpt>
<trkpt lat="43.55648" lon="5.55898">
<ele>399.8</ele>
<time>2012-03-24T15:22:19.000Z</time>
</trkpt>
<trkpt lat="43.55646" lon="5.55889">
<ele>399.8</ele>
<time>2012-03-24T15:22:20.000Z</time>
</trkpt>
<trkpt lat="43.55644" lon="5.5588">
<ele>399.9</ele>
<time>2012-03-24T15:22:21.000Z</time>
</trkpt>
<trkpt lat="43.55643" lon="5.55871">
<ele>400.2</ele>
<time>2012-03-24T15:22:22.000Z</time>
</trkpt>
<trkpt lat="43.55642" lon="5.55862">
<ele>400.1</ele>
<time>2012-03-24T15:22:23.000Z</time>
</trkpt>
<trkpt lat="43.55641" lon="5.55852">
<ele>400</ele>
<time>2012-03-24T15:22:24.000Z</time>
</trkpt>
<trkpt lat="43.55641" lon="5.55843">
<ele>400</ele>
<time>2012-03-24T15:22:25.000Z</time>
</trkpt>
<trkpt lat="43.5564" lon="5.55833">
<ele>400.3</ele>
<time>2012-03-24T15:22:26.000Z</time>
</trkpt>
<trkpt lat="43.55639" lon="5.55824">
<ele>400.2</ele>
<time>2012-03-24T15:22:27.000Z</time>
</trkpt>
<trkpt lat="43.55638" lon="5.55815">
<ele>400.3</ele>
<time>2012-03-24T15:22:28.000Z</time>
</trkpt>
<trkpt lat="43.55636" lon="5.55806">
<ele>400.5</ele>
<time>2012-03-24T15:22:29.000Z</time>
</trkpt>
<trkpt lat="43.55636" lon="5.55797">
<ele>400.4</ele>
<time>2012-03-24T15:22:30.000Z</time>
</trkpt>
<trkpt lat="43.55634" lon="5.55789">
<ele>400.5</ele>
<time>2012-03-24T15:22:31.000Z</time>
</trkpt>
<trkpt lat="43.55633" lon="5.5578">
<ele>400.8</ele>
<time>2012-03-24T15:22:32.000Z</time>
</trkpt>
<trkpt lat="43.55633" lon="5.55771">
<ele>401.1</ele>
<time>2012-03-24T15:22:33.000Z</time>
</trkpt>
<trkpt lat="43.55632" lon="5.55762">
<ele>401.4</ele>
<time>2012-03-24T15:22:34.000Z</time>
</trkpt>
<trkpt lat="43.55631" lon="5.55754">
<ele>401.6</ele>
<time>2012-03-24T15:22:35.000Z</time>
</trkpt>
<trkpt lat="43.5563" lon="5.55745">
<ele>401.7</ele>
<time>2012-03-24T15:22:36.000Z</time>
</trkpt>
<trkpt lat="43.5563" lon="5.55735">
<ele>401.6</ele>
<time>2012-03-24T15:22:37.000Z</time>
</trkpt>
<trkpt lat="43.55629" lon="5.55726">
<ele>401.4</ele>
<time>2012-03-24T15:22:38.000Z</time>
</trkpt>
<trkpt lat="43.55629" lon="5.55718">
<ele>401.3</ele>
<time>2012-03-24T15:22:39.000Z</time>
</trkpt>
<trkpt lat="43.55629" lon="5.55707">
<ele>401.1</ele>
<time>2012-03-24T15:22:40.000Z</time>
</trkpt>
<trkpt lat="43.5563" lon="5.55698">
<ele>401</ele>
<time>2012-03-24T15:22:41.000Z</time>
</trkpt>
<trkpt lat="43.5563" lon="5.5569">
<ele>401</ele>
<time>2012-03-24T15:22:42.000Z</time>
</trkpt>
<trkpt lat="43.55631" lon="5.55681">
<ele>401.1</ele>
<time>2012-03-24T15:22:43.000Z</time>
</trkpt>
<trkpt lat="43.55629" lon="5.55672">
<ele>400.9</ele>
<time>2012-03-24T15:22:44.000Z</time>
</trkpt>
<trkpt lat="43.55629" lon="5.5566">
<ele>401.1</ele>
<time>2012-03-24T15:22:45.000Z</time>
</trkpt>
<trkpt lat="43.55629" lon="5.55651">
<ele>401.3</ele>
<time>2012-03-24T15:22:46.000Z</time>
</trkpt>
<trkpt lat="43.55628" lon="5.55641">
<ele>401.6</ele>
<time>2012-03-24T15:22:47.000Z</time>
</trkpt>
<trkpt lat="43.55627" lon="5.55631">
<ele>401.5</ele>
<time>2012-03-24T15:22:48.000Z</time>
</trkpt>
<trkpt lat="43.55626" lon="5.55622">
<ele>401.5</ele>
<time>2012-03-24T15:22:49.000Z</time>
</trkpt>
<trkpt lat="43.55627" lon="5.55611">
<ele>401.5</ele>
<time>2012-03-24T15:22:50.000Z</time>
</trkpt>
<trkpt lat="43.55628" lon="5.55602">
<ele>401.5</ele>
<time>2012-03-24T15:22:51.000Z</time>
</trkpt>
<trkpt lat="43.55629" lon="5.55592">
<ele>401.7</ele>
<time>2012-03-24T15:22:52.000Z</time>
</trkpt>
<trkpt lat="43.55631" lon="5.55582">
<ele>401.5</ele>
<time>2012-03-24T15:22:53.000Z</time>
</trkpt>
<trkpt lat="43.55633" lon="5.5557">
<ele>401.7</ele>
<time>2012-03-24T15:22:54.000Z</time>
</trkpt>
<trkpt lat="43.55635" lon="5.55559">
<ele>402.3</ele>
<time>2012-03-24T15:22:55.000Z</time>
</trkpt>
<trkpt lat="43.55633" lon="5.55549">
<ele>402</ele>
<time>2012-03-24T15:22:56.000Z</time>
</trkpt>
<trkpt lat="43.55634" lon="5.5554">
<ele>402.7</ele>
<time>2012-03-24T15:22:57.000Z</time>
</trkpt>
<trkpt lat="43.55634" lon="5.55529">
<ele>402.6</ele>
<time>2012-03-24T15:22:58.000Z</time>
</trkpt>
<trkpt lat="43.55636" lon="5.55519">
<ele>402.6</ele>
<time>2012-03-24T15:22:59.000Z</time>
</trkpt>
<trkpt lat="43.55637" lon="5.55508">
<ele>402.5</ele>
<time>2012-03-24T15:23:00.000Z</time>
</trkpt>
<trkpt lat="43.55637" lon="5.55497">
<ele>402.6</ele>
<time>2012-03-24T15:23:01.000Z</time>
</trkpt>
<trkpt lat="43.55638" lon="5.55488">
<ele>403.5</ele>
<time>2012-03-24T15:23:02.000Z</time>
</trkpt>
<trkpt lat="43.5564" lon="5.55477">
<ele>403.5</ele>
<time>2012-03-24T15:23:03.000Z</time>
</trkpt>
<trkpt lat="43.55642" lon="5.55466">
<ele>402.9</ele>
<time>2012-03-24T15:23:04.000Z</time>
</trkpt>
<trkpt lat="43.55642" lon="5.55455">
<ele>403.1</ele>
<time>2012-03-24T15:23:05.000Z</time>
</trkpt>
<trkpt lat="43.55644" lon="5.55444">
<ele>403.1</ele>
<time>2012-03-24T15:23:06.000Z</time>
</trkpt>
<trkpt lat="43.55644" lon="5.55432">
<ele>403.6</ele>
<time>2012-03-24T15:23:07.000Z</time>
</trkpt>
<trkpt lat="43.55645" lon="5.55421">
<ele>404.1</ele>
<time>2012-03-24T15:23:08.000Z</time>
</trkpt>
<trkpt lat="43.55648" lon="5.55409">
<ele>404.7</ele>
<time>2012-03-24T15:23:09.000Z</time>
</trkpt>
<trkpt lat="43.5565" lon="5.55397">
<ele>404.7</ele>
<time>2012-03-24T15:23:10.000Z</time>
</trkpt>
<trkpt lat="43.5565" lon="5.55388">
<ele>404.4</ele>
<time>2012-03-24T15:23:11.000Z</time>
</trkpt>
<trkpt lat="43.55652" lon="5.55377">
<ele>403.1</ele>
<time>2012-03-24T15:23:12.000Z</time>
</trkpt>
<trkpt lat="43.55652" lon="5.55367">
<ele>403.8</ele>
<time>2012-03-24T15:23:13.000Z</time>
</trkpt>
<trkpt lat="43.55652" lon="5.55355">
<ele>404.1</ele>
<time>2012-03-24T15:23:14.000Z</time>
</trkpt>
<trkpt lat="43.55653" lon="5.55344">
<ele>404.1</ele>
<time>2012-03-24T15:23:15.000Z</time>
</trkpt>
<trkpt lat="43.55654" lon="5.55333">
<ele>404.1</ele>
<time>2012-03-24T15:23:16.000Z</time>
</trkpt>
<trkpt lat="43.55655" lon="5.55322">
<ele>403.6</ele>
<time>2012-03-24T15:23:17.000Z</time>
</trkpt>
<trkpt lat="43.55656" lon="5.55311">
<ele>402.5</ele>
<time>2012-03-24T15:23:18.000Z</time>
</trkpt>
<trkpt lat="43.55658" lon="5.55301">
<ele>402.2</ele>
<time>2012-03-24T15:23:19.000Z</time>
</trkpt>
<trkpt lat="43.55658" lon="5.55291">
<ele>402.3</ele>
<time>2012-03-24T15:23:20.000Z</time>
</trkpt>
<trkpt lat="43.5566" lon="5.5528">
<ele>403.7</ele>
<time>2012-03-24T15:23:21.000Z</time>
</trkpt>
<trkpt lat="43.55661" lon="5.55269">
<ele>403.5</ele>
<time>2012-03-24T15:23:22.000Z</time>
</trkpt>
<trkpt lat="43.55661" lon="5.5526">
<ele>402.9</ele>
<time>2012-03-24T15:23:23.000Z</time>
</trkpt>
<trkpt lat="43.55662" lon="5.5525">
<ele>402.7</ele>
<time>2012-03-24T15:23:24.000Z</time>
</trkpt>
<trkpt lat="43.55663" lon="5.5524">
<ele>402.8</ele>
<time>2012-03-24T15:23:25.000Z</time>
</trkpt>
<trkpt lat="43.55664" lon="5.55228">
<ele>402.5</ele>
<time>2012-03-24T15:23:26.000Z</time>
</trkpt>
<trkpt lat="43.55666" lon="5.55217">
<ele>402.4</ele>
<time>2012-03-24T15:23:27.000Z</time>
</trkpt>
<trkpt lat="43.55667" lon="5.55207">
<ele>402.8</ele>
<time>2012-03-24T15:23:28.000Z</time>
</trkpt>
<trkpt lat="43.55669" lon="5.55195">
<ele>403</ele>
<time>2012-03-24T15:23:29.000Z</time>
</trkpt>
<trkpt lat="43.55671" lon="5.55184">
<ele>403.1</ele>
<time>2012-03-24T15:23:30.000Z</time>
</trkpt>
<trkpt lat="43.55672" lon="5.55174">
<ele>403.3</ele>
<time>2012-03-24T15:23:31.000Z</time>
</trkpt>
<trkpt lat="43.55672" lon="5.55164">
<ele>402.7</ele>
<time>2012-03-24T15:23:32.000Z</time>
</trkpt>
<trkpt lat="43.55672" lon="5.55153">
<ele>402.5</ele>
<time>2012-03-24T15:23:33.000Z</time>
</trkpt>
<trkpt lat="43.55673" lon="5.55142">
<ele>401.8</ele>
<time>2012-03-24T15:23:34.000Z</time>
</trkpt>
<trkpt lat="43.55674" lon="5.55132">
<ele>401.1</ele>
<time>2012-03-24T15:23:35.000Z</time>
</trkpt>
<trkpt lat="43.55675" lon="5.55121">
<ele>401.9</ele>
<time>2012-03-24T15:23:36.000Z</time>
</trkpt>
<trkpt lat="43.55676" lon="5.55109">
<ele>401.7</ele>
<time>2012-03-24T15:23:37.000Z</time>
</trkpt>
<trkpt lat="43.55678" lon="5.55096">
<ele>402</ele>
<time>2012-03-24T15:23:38.000Z</time>
</trkpt>
<trkpt lat="43.55679" lon="5.55085">
<ele>402.1</ele>
<time>2012-03-24T15:23:39.000Z</time>
</trkpt>
<trkpt lat="43.55679" lon="5.55075">
<ele>402.1</ele>
<time>2012-03-24T15:23:40.000Z</time>
</trkpt>
<trkpt lat="43.5568" lon="5.55064">
<ele>402.5</ele>
<time>2012-03-24T15:23:41.000Z</time>
</trkpt>
<trkpt lat="43.55682" lon="5.55053">
<ele>402.6</ele>
<time>2012-03-24T15:23:42.000Z</time>
</trkpt>
<trkpt lat="43.55683" lon="5.55042">
<ele>402.9</ele>
<time>2012-03-24T15:23:43.000Z</time>
</trkpt>
<trkpt lat="43.55684" lon="5.55031">
<ele>402.8</ele>
<time>2012-03-24T15:23:44.000Z</time>
</trkpt>
<trkpt lat="43.55684" lon="5.5502">
<ele>402.7</ele>
<time>2012-03-24T15:23:45.000Z</time>
</trkpt>
<trkpt lat="43.55685" lon="5.55008">
<ele>402.2</ele>
<time>2012-03-24T15:23:46.000Z</time>
</trkpt>
<trkpt lat="43.55686" lon="5.54999">
<ele>402.2</ele>
<time>2012-03-24T15:23:47.000Z</time>
</trkpt>
<trkpt lat="43.55687" lon="5.54988">
<ele>401.4</ele>
<time>2012-03-24T15:23:48.000Z</time>
</trkpt>
<trkpt lat="43.55688" lon="5.54978">
<ele>401</ele>
<time>2012-03-24T15:23:49.000Z</time>
</trkpt>
<trkpt lat="43.5569" lon="5.54966">
<ele>400.7</ele>
<time>2012-03-24T15:23:50.000Z</time>
</trkpt>
<trkpt lat="43.55693" lon="5.54954">
<ele>401</ele>
<time>2012-03-24T15:23:51.000Z</time>
</trkpt>
<trkpt lat="43.55694" lon="5.54941">
<ele>400.7</ele>
<time>2012-03-24T15:23:52.000Z</time>
</trkpt>
<trkpt lat="43.55696" lon="5.54931">
<ele>400.8</ele>
<time>2012-03-24T15:23:53.000Z</time>
</trkpt>
<trkpt lat="43.55696" lon="5.5492">
<ele>400</ele>
<time>2012-03-24T15:23:54.000Z</time>
</trkpt>
<trkpt lat="43.55697" lon="5.54908">
<ele>400.2</ele>
<time>2012-03-24T15:23:55.000Z</time>
</trkpt>
<trkpt lat="43.55699" lon="5.54898">
<ele>399.2</ele>
<time>2012-03-24T15:23:56.000Z</time>
</trkpt>
<trkpt lat="43.55699" lon="5.54888">
<ele>399.1</ele>
<time>2012-03-24T15:23:57.000Z</time>
</trkpt>
<trkpt lat="43.55699" lon="5.54876">
<ele>399.2</ele>
<time>2012-03-24T15:23:58.000Z</time>
</trkpt>
<trkpt lat="43.55698" lon="5.54866">
<ele>399.1</ele>
<time>2012-03-24T15:23:59.000Z</time>
</trkpt>
<trkpt lat="43.55698" lon="5.54855">
<ele>398.9</ele>
<time>2012-03-24T15:24:00.000Z</time>
</trkpt>
<trkpt lat="43.55698" lon="5.54843">
<ele>399.3</ele>
<time>2012-03-24T15:24:01.000Z</time>
</trkpt>
<trkpt lat="43.55698" lon="5.54833">
<ele>398.9</ele>
<time>2012-03-24T15:24:02.000Z</time>
</trkpt>
<trkpt lat="43.55698" lon="5.54823">
<ele>399</ele>
<time>2012-03-24T15:24:03.000Z</time>
</trkpt>
<trkpt lat="43.55697" lon="5.54811">
<ele>398.2</ele>
<time>2012-03-24T15:24:04.000Z</time>
</trkpt>
<trkpt lat="43.55696" lon="5.548">
<ele>398.4</ele>
<time>2012-03-24T15:24:05.000Z</time>
</trkpt>
<trkpt lat="43.55695" lon="5.54789">
<ele>398.9</ele>
<time>2012-03-24T15:24:06.000Z</time>
</trkpt>
<trkpt lat="43.55692" lon="5.54778">
<ele>398.8</ele>
<time>2012-03-24T15:24:07.000Z</time>
</trkpt>
<trkpt lat="43.55691" lon="5.54767">
<ele>398.7</ele>
<time>2012-03-24T15:24:08.000Z</time>
</trkpt>
<trkpt lat="43.5569" lon="5.54756">
<ele>398.5</ele>
<time>2012-03-24T15:24:09.000Z</time>
</trkpt>
<trkpt lat="43.55688" lon="5.54744">
<ele>397.9</ele>
<time>2012-03-24T15:24:10.000Z</time>
</trkpt>
<trkpt lat="43.55686" lon="5.54734">
<ele>397.7</ele>
<time>2012-03-24T15:24:11.000Z</time>
</trkpt>
<trkpt lat="43.55683" lon="5.54724">
<ele>397.9</ele>
<time>2012-03-24T15:24:12.000Z</time>
</trkpt>
<trkpt lat="43.55679" lon="5.54715">
<ele>397.8</ele>
<time>2012-03-24T15:24:13.000Z</time>
</trkpt>
<trkpt lat="43.55677" lon="5.54704">
<ele>397.5</ele>
<time>2012-03-24T15:24:14.000Z</time>
</trkpt>
<trkpt lat="43.55674" lon="5.54695">
<ele>397.2</ele>
<time>2012-03-24T15:24:15.000Z</time>
</trkpt>
<trkpt lat="43.55669" lon="5.54685">
<ele>397.2</ele>
<time>2012-03-24T15:24:16.000Z</time>
</trkpt>
<trkpt lat="43.55666" lon="5.54675">
<ele>397.2</ele>
<time>2012-03-24T15:24:17.000Z</time>
</trkpt>
<trkpt lat="43.55661" lon="5.54665">
<ele>397.7</ele>
<time>2012-03-24T15:24:18.000Z</time>
</trkpt>
<trkpt lat="43.55658" lon="5.54656">
<ele>398.1</ele>
<time>2012-03-24T15:24:19.000Z</time>
</trkpt>
<trkpt lat="43.55654" lon="5.54647">
<ele>398.1</ele>
<time>2012-03-24T15:24:20.000Z</time>
</trkpt>
<trkpt lat="43.55649" lon="5.54638">
<ele>398.4</ele>
<time>2012-03-24T15:24:21.000Z</time>
</trkpt>
<trkpt lat="43.55645" lon="5.54629">
<ele>398.2</ele>
<time>2012-03-24T15:24:22.000Z</time>
</trkpt>
<trkpt lat="43.5564" lon="5.54619">
<ele>398.4</ele>
<time>2012-03-24T15:24:23.000Z</time>
</trkpt>
<trkpt lat="43.55632" lon="5.54612">
<ele>398.8</ele>
<time>2012-03-24T15:24:24.000Z</time>
</trkpt>
<trkpt lat="43.55627" lon="5.54604">
<ele>398.8</ele>
<time>2012-03-24T15:24:25.000Z</time>
</trkpt>
<trkpt lat="43.55623" lon="5.54595">
<ele>399</ele>
<time>2012-03-24T15:24:26.000Z</time>
</trkpt>
<trkpt lat="43.55617" lon="5.54588">
<ele>398.9</ele>
<time>2012-03-24T15:24:27.000Z</time>
</trkpt>
<trkpt lat="43.55611" lon="5.54581">
<ele>398.8</ele>
<time>2012-03-24T15:24:28.000Z</time>
</trkpt>
<trkpt lat="43.55605" lon="5.54572">
<ele>398.8</ele>
<time>2012-03-24T15:24:29.000Z</time>
</trkpt>
<trkpt lat="43.556" lon="5.54564">
<ele>398.6</ele>
<time>2012-03-24T15:24:30.000Z</time>
</trkpt>
<trkpt lat="43.55593" lon="5.54558">
<ele>398.5</ele>
<time>2012-03-24T15:24:31.000Z</time>
</trkpt>
<trkpt lat="43.55588" lon="5.54552">
<ele>398.4</ele>
<time>2012-03-24T15:24:32.000Z</time>
</trkpt>
<trkpt lat="43.55583" lon="5.54546">
<ele>398.3</ele>
<time>2012-03-24T15:24:33.000Z</time>
</trkpt>
<trkpt lat="43.55576" lon="5.5454">
<ele>398.2</ele>
<time>2012-03-24T15:24:34.000Z</time>
</trkpt>
<trkpt lat="43.5557" lon="5.54533">
<ele>399.3</ele>
<time>2012-03-24T15:24:35.000Z</time>
</trkpt>
<trkpt lat="43.55563" lon="5.54529">
<ele>399.3</ele>
<time>2012-03-24T15:24:36.000Z</time>
</trkpt>
<trkpt lat="43.55557" lon="5.54524">
<ele>399.9</ele>
<time>2012-03-24T15:24:37.000Z</time>
</trkpt>
<trkpt lat="43.55549" lon="5.5452">
<ele>399.8</ele>
<time>2012-03-24T15:24:38.000Z</time>
</trkpt>
<trkpt lat="43.55542" lon="5.54514">
<ele>399.7</ele>
<time>2012-03-24T15:24:39.000Z</time>
</trkpt>
<trkpt lat="43.55535" lon="5.54511">
<ele>399.2</ele>
<time>2012-03-24T15:24:40.000Z</time>
</trkpt>
<trkpt lat="43.55529" lon="5.54507">
<ele>399.2</ele>
<time>2012-03-24T15:24:41.000Z</time>
</trkpt>
<trkpt lat="43.55523" lon="5.54503">
<ele>399.2</ele>
<time>2012-03-24T15:24:42.000Z</time>
</trkpt>
<trkpt lat="43.55516" lon="5.54498">
<ele>399.1</ele>
<time>2012-03-24T15:24:43.000Z</time>
</trkpt>
<trkpt lat="43.55509" lon="5.54494">
<ele>399</ele>
<time>2012-03-24T15:24:44.000Z</time>
</trkpt>
<trkpt lat="43.55503" lon="5.54488">
<ele>399.2</ele>
<time>2012-03-24T15:24:45.000Z</time>
</trkpt>
<trkpt lat="43.55497" lon="5.54484">
<ele>399.8</ele>
<time>2012-03-24T15:24:46.000Z</time>
</trkpt>
<trkpt lat="43.55489" lon="5.54483">
<ele>396.2</ele>
<time>2012-03-24T15:24:47.000Z</time>
</trkpt>
<trkpt lat="43.55481" lon="5.5448">
<ele>395.7</ele>
<time>2012-03-24T15:24:48.000Z</time>
</trkpt>
<trkpt lat="43.55475" lon="5.54476">
<ele>395.2</ele>
<time>2012-03-24T15:24:49.000Z</time>
</trkpt>
<trkpt lat="43.55469" lon="5.54472">
<ele>394.8</ele>
<time>2012-03-24T15:24:50.000Z</time>
</trkpt>
<trkpt lat="43.55464" lon="5.54469">
<ele>395.7</ele>
<time>2012-03-24T15:24:51.000Z</time>
</trkpt>
<trkpt lat="43.5546" lon="5.54465">
<ele>395.9</ele>
<time>2012-03-24T15:24:52.000Z</time>
</trkpt>
<trkpt lat="43.55455" lon="5.54462">
<ele>396.6</ele>
<time>2012-03-24T15:24:53.000Z</time>
</trkpt>
<trkpt lat="43.5545" lon="5.5446">
<ele>396.2</ele>
<time>2012-03-24T15:24:54.000Z</time>
</trkpt>
<trkpt lat="43.55444" lon="5.54459">
<ele>395.1</ele>
<time>2012-03-24T15:24:55.000Z</time>
</trkpt>
<trkpt lat="43.5544" lon="5.54454">
<ele>398.1</ele>
<time>2012-03-24T15:24:56.000Z</time>
</trkpt>
<trkpt lat="43.55431" lon="5.54448">
<ele>398.1</ele>
<time>2012-03-24T15:24:58.000Z</time>
</trkpt>
<trkpt lat="43.55426" lon="5.54445">
<ele>398.3</ele>
<time>2012-03-24T15:24:59.000Z</time>
</trkpt>
<trkpt lat="43.55422" lon="5.54443">
<ele>398.5</ele>
<time>2012-03-24T15:25:00.000Z</time>
</trkpt>
<trkpt lat="43.55417" lon="5.5444">
<ele>398.7</ele>
<time>2012-03-24T15:25:01.000Z</time>
</trkpt>
<trkpt lat="43.55413" lon="5.54437">
<ele>398.9</ele>
<time>2012-03-24T15:25:02.000Z</time>
</trkpt>
<trkpt lat="43.55408" lon="5.54434">
<ele>399.4</ele>
<time>2012-03-24T15:25:03.000Z</time>
</trkpt>
<trkpt lat="43.55404" lon="5.5443">
<ele>399.3</ele>
<time>2012-03-24T15:25:04.000Z</time>
</trkpt>
<trkpt lat="43.554" lon="5.54428">
<ele>399.1</ele>
<time>2012-03-24T15:25:05.000Z</time>
</trkpt>
<trkpt lat="43.55395" lon="5.54425">
<ele>399.3</ele>
<time>2012-03-24T15:25:06.000Z</time>
</trkpt>
<trkpt lat="43.5539" lon="5.54423">
<ele>399.7</ele>
<time>2012-03-24T15:25:07.000Z</time>
</trkpt>
<trkpt lat="43.55386" lon="5.5442">
<ele>399.5</ele>
<time>2012-03-24T15:25:08.000Z</time>
</trkpt>
<trkpt lat="43.55381" lon="5.54417">
<ele>399.3</ele>
<time>2012-03-24T15:25:09.000Z</time>
</trkpt>
<trkpt lat="43.55376" lon="5.54414">
<ele>399.4</ele>
<time>2012-03-24T15:25:10.000Z</time>
</trkpt>
<trkpt lat="43.55372" lon="5.54412">
<ele>399.6</ele>
<time>2012-03-24T15:25:11.000Z</time>
</trkpt>
<trkpt lat="43.55368" lon="5.54409">
<ele>399.9</ele>
<time>2012-03-24T15:25:12.000Z</time>
</trkpt>
<trkpt lat="43.55363" lon="5.54407">
<ele>400</ele>
<time>2012-03-24T15:25:13.000Z</time>
</trkpt>
<trkpt lat="43.55359" lon="5.54404">
<ele>400.7</ele>
<time>2012-03-24T15:25:14.000Z</time>
</trkpt>
<trkpt lat="43.55354" lon="5.54401">
<ele>402.1</ele>
<time>2012-03-24T15:25:15.000Z</time>
</trkpt>
<trkpt lat="43.5535" lon="5.54397">
<ele>403.5</ele>
<time>2012-03-24T15:25:16.000Z</time>
</trkpt>
<trkpt lat="43.55346" lon="5.54394">
<ele>404</ele>
<time>2012-03-24T15:25:17.000Z</time>
</trkpt>
<trkpt lat="43.55341" lon="5.5439">
<ele>404.9</ele>
<time>2012-03-24T15:25:18.000Z</time>
</trkpt>
<trkpt lat="43.55337" lon="5.54388">
<ele>405.3</ele>
<time>2012-03-24T15:25:19.000Z</time>
</trkpt>
<trkpt lat="43.55332" lon="5.54385">
<ele>405.5</ele>
<time>2012-03-24T15:25:20.000Z</time>
</trkpt>
<trkpt lat="43.55328" lon="5.54382">
<ele>405.8</ele>
<time>2012-03-24T15:25:21.000Z</time>
</trkpt>
<trkpt lat="43.55323" lon="5.54379">
<ele>405.8</ele>
<time>2012-03-24T15:25:22.000Z</time>
</trkpt>
<trkpt lat="43.55319" lon="5.54377">
<ele>406</ele>
<time>2012-03-24T15:25:23.000Z</time>
</trkpt>
<trkpt lat="43.55314" lon="5.54374">
<ele>406.9</ele>
<time>2012-03-24T15:25:24.000Z</time>
</trkpt>
<trkpt lat="43.5531" lon="5.54372">
<ele>407</ele>
<time>2012-03-24T15:25:25.000Z</time>
</trkpt>
<trkpt lat="43.55302" lon="5.54367">
<ele>407.2</ele>
<time>2012-03-24T15:25:27.000Z</time>
</trkpt>
<trkpt lat="43.55298" lon="5.54364">
<ele>407.4</ele>
<time>2012-03-24T15:25:28.000Z</time>
</trkpt>
<trkpt lat="43.5529" lon="5.54358">
<ele>407.9</ele>
<time>2012-03-24T15:25:30.000Z</time>
</trkpt>
<trkpt lat="43.55286" lon="5.54355">
<ele>408.5</ele>
<time>2012-03-24T15:25:31.000Z</time>
</trkpt>
<trkpt lat="43.55278" lon="5.54349">
<ele>408.8</ele>
<time>2012-03-24T15:25:33.000Z</time>
</trkpt>
<trkpt lat="43.55271" lon="5.54344">
<ele>409.1</ele>
<time>2012-03-24T15:25:35.000Z</time>
</trkpt>
<trkpt lat="43.55263" lon="5.54337">
<ele>409.4</ele>
<time>2012-03-24T15:25:37.000Z</time>
</trkpt>
<trkpt lat="43.55257" lon="5.54331">
<ele>409.2</ele>
<time>2012-03-24T15:25:39.000Z</time>
</trkpt>
<trkpt lat="43.55253" lon="5.54327">
<ele>409.7</ele>
<time>2012-03-24T15:25:40.000Z</time>
</trkpt>
<trkpt lat="43.55247" lon="5.54321">
<ele>410.6</ele>
<time>2012-03-24T15:25:42.000Z</time>
</trkpt>
<trkpt lat="43.55242" lon="5.54318">
<ele>410.4</ele>
<time>2012-03-24T15:25:43.000Z</time>
</trkpt>
<trkpt lat="43.55235" lon="5.54312">
<ele>411.6</ele>
<time>2012-03-24T15:25:45.000Z</time>
</trkpt>
<trkpt lat="43.55228" lon="5.54306">
<ele>412.2</ele>
<time>2012-03-24T15:25:47.000Z</time>
</trkpt>
<trkpt lat="43.55221" lon="5.543">
<ele>413</ele>
<time>2012-03-24T15:25:49.000Z</time>
</trkpt>
<trkpt lat="43.55213" lon="5.54296">
<ele>413.2</ele>
<time>2012-03-24T15:25:51.000Z</time>
</trkpt>
<trkpt lat="43.55207" lon="5.54288">
<ele>411.5</ele>
<time>2012-03-24T15:25:53.000Z</time>
</trkpt>
<trkpt lat="43.55201" lon="5.54282">
<ele>411.7</ele>
<time>2012-03-24T15:25:55.000Z</time>
</trkpt>
<trkpt lat="43.55195" lon="5.54276">
<ele>412.4</ele>
<time>2012-03-24T15:25:57.000Z</time>
</trkpt>
<trkpt lat="43.55189" lon="5.5427">
<ele>412.6</ele>
<time>2012-03-24T15:25:59.000Z</time>
</trkpt>
<trkpt lat="43.55183" lon="5.54266">
<ele>412.7</ele>
<time>2012-03-24T15:26:01.000Z</time>
</trkpt>
<trkpt lat="43.55179" lon="5.54262">
<ele>412.7</ele>
<time>2012-03-24T15:26:02.000Z</time>
</trkpt>
<trkpt lat="43.55172" lon="5.54258">
<ele>413</ele>
<time>2012-03-24T15:26:04.000Z</time>
</trkpt>
<trkpt lat="43.55165" lon="5.54253">
<ele>414.2</ele>
<time>2012-03-24T15:26:06.000Z</time>
</trkpt>
<trkpt lat="43.55161" lon="5.54249">
<ele>414.6</ele>
<time>2012-03-24T15:26:07.000Z</time>
</trkpt>
<trkpt lat="43.55157" lon="5.54245">
<ele>414.8</ele>
<time>2012-03-24T15:26:08.000Z</time>
</trkpt>
<trkpt lat="43.55153" lon="5.54241">
<ele>415.2</ele>
<time>2012-03-24T15:26:09.000Z</time>
</trkpt>
<trkpt lat="43.55149" lon="5.54236">
<ele>415.3</ele>
<time>2012-03-24T15:26:10.000Z</time>
</trkpt>
<trkpt lat="43.55143" lon="5.5423">
<ele>415.8</ele>
<time>2012-03-24T15:26:12.000Z</time>
</trkpt>
<trkpt lat="43.5514" lon="5.54224">
<ele>415.9</ele>
<time>2012-03-24T15:26:13.000Z</time>
</trkpt>
<trkpt lat="43.55135" lon="5.54215">
<ele>416.7</ele>
<time>2012-03-24T15:26:15.000Z</time>
</trkpt>
<trkpt lat="43.5513" lon="5.54206">
<ele>417.6</ele>
<time>2012-03-24T15:26:17.000Z</time>
</trkpt>
<trkpt lat="43.55127" lon="5.54201">
<ele>417.3</ele>
<time>2012-03-24T15:26:18.000Z</time>
</trkpt>
<trkpt lat="43.55122" lon="5.54193">
<ele>418</ele>
<time>2012-03-24T15:26:20.000Z</time>
</trkpt>
<trkpt lat="43.55119" lon="5.54187">
<ele>418</ele>
<time>2012-03-24T15:26:21.000Z</time>
</trkpt>
<trkpt lat="43.5511" lon="5.54178">
<ele>419.1</ele>
<time>2012-03-24T15:26:23.000Z</time>
</trkpt>
<trkpt lat="43.55107" lon="5.54174">
<ele>419.2</ele>
<time>2012-03-24T15:26:24.000Z</time>
</trkpt>
<trkpt lat="43.551" lon="5.54167">
<ele>420.1</ele>
<time>2012-03-24T15:26:26.000Z</time>
</trkpt>
<trkpt lat="43.55096" lon="5.54163">
<ele>420.3</ele>
<time>2012-03-24T15:26:27.000Z</time>
</trkpt>
<trkpt lat="43.55091" lon="5.54158">
<ele>420.9</ele>
<time>2012-03-24T15:26:28.000Z</time>
</trkpt>
<trkpt lat="43.55087" lon="5.54153">
<ele>421.8</ele>
<time>2012-03-24T15:26:29.000Z</time>
</trkpt>
<trkpt lat="43.55081" lon="5.54144">
<ele>423.3</ele>
<time>2012-03-24T15:26:31.000Z</time>
</trkpt>
<trkpt lat="43.55077" lon="5.54139">
<ele>423.9</ele>
<time>2012-03-24T15:26:32.000Z</time>
</trkpt>
<trkpt lat="43.55072" lon="5.54133">
<ele>424.1</ele>
<time>2012-03-24T15:26:33.000Z</time>
</trkpt>
<trkpt lat="43.55069" lon="5.54126">
<ele>424.1</ele>
<time>2012-03-24T15:26:34.000Z</time>
</trkpt>
<trkpt lat="43.55064" lon="5.54117">
<ele>425.2</ele>
<time>2012-03-24T15:26:36.000Z</time>
</trkpt>
<trkpt lat="43.5506" lon="5.54111">
<ele>425.3</ele>
<time>2012-03-24T15:26:37.000Z</time>
</trkpt>
<trkpt lat="43.55058" lon="5.54106">
<ele>425.4</ele>
<time>2012-03-24T15:26:38.000Z</time>
</trkpt>
<trkpt lat="43.55055" lon="5.54097">
<ele>425.1</ele>
<time>2012-03-24T15:26:39.000Z</time>
</trkpt>
<trkpt lat="43.55054" lon="5.54087">
<ele>424.8</ele>
<time>2012-03-24T15:26:40.000Z</time>
</trkpt>
<trkpt lat="43.55053" lon="5.54079">
<ele>424.8</ele>
<time>2012-03-24T15:26:41.000Z</time>
</trkpt>
<trkpt lat="43.55052" lon="5.5407">
<ele>424.5</ele>
<time>2012-03-24T15:26:42.000Z</time>
</trkpt>
<trkpt lat="43.5505" lon="5.5406">
<ele>424.4</ele>
<time>2012-03-24T15:26:43.000Z</time>
</trkpt>
<trkpt lat="43.55052" lon="5.5405">
<ele>424.3</ele>
<time>2012-03-24T15:26:44.000Z</time>
</trkpt>
<trkpt lat="43.55054" lon="5.54041">
<ele>425.4</ele>
<time>2012-03-24T15:26:45.000Z</time>
</trkpt>
<trkpt lat="43.55051" lon="5.54033">
<ele>425.9</ele>
<time>2012-03-24T15:26:46.000Z</time>
</trkpt>
<trkpt lat="43.55051" lon="5.54022">
<ele>425.5</ele>
<time>2012-03-24T15:26:47.000Z</time>
</trkpt>
<trkpt lat="43.55052" lon="5.54014">
<ele>424.9</ele>
<time>2012-03-24T15:26:48.000Z</time>
</trkpt>
<trkpt lat="43.55052" lon="5.54006">
<ele>425.7</ele>
<time>2012-03-24T15:26:49.000Z</time>
</trkpt>
</trkseg>
<trkseg>
<trkpt lat="43.55006" lon="5.53532">
<ele>410</ele>
<time>2012-03-24T15:27:24.000Z</time>
</trkpt>
<trkpt lat="43.55008" lon="5.53514">
<ele>410.7</ele>
<time>2012-03-24T15:27:25.000Z</time>
</trkpt>
<trkpt lat="43.55004" lon="5.53497">
<ele>411.1</ele>
<time>2012-03-24T15:27:26.000Z</time>
</trkpt>
<trkpt lat="43.55004" lon="5.53475">
<ele>410.1</ele>
<time>2012-03-24T15:27:27.000Z</time>
</trkpt>
<trkpt lat="43.55005" lon="5.5346">
<ele>412.7</ele>
<time>2012-03-24T15:27:28.000Z</time>
</trkpt>
<trkpt lat="43.55006" lon="5.53449">
<ele>413.4</ele>
<time>2012-03-24T15:27:29.000Z</time>
</trkpt>
<trkpt lat="43.5501" lon="5.53437">
<ele>410.9</ele>
<time>2012-03-24T15:27:30.000Z</time>
</trkpt>
<trkpt lat="43.55012" lon="5.53424">
<ele>413.3</ele>
<time>2012-03-24T15:27:31.000Z</time>
</trkpt>
<trkpt lat="43.55013" lon="5.5341">
<ele>414.3</ele>
<time>2012-03-24T15:27:32.000Z</time>
</trkpt>
<trkpt lat="43.55014" lon="5.53399">
<ele>415.7</ele>
<time>2012-03-24T15:27:33.000Z</time>
</trkpt>
<trkpt lat="43.55015" lon="5.53384">
<ele>417.4</ele>
<time>2012-03-24T15:27:34.000Z</time>
</trkpt>
<trkpt lat="43.55017" lon="5.53372">
<ele>415.6</ele>
<time>2012-03-24T15:27:35.000Z</time>
</trkpt>
<trkpt lat="43.55018" lon="5.53361">
<ele>413.3</ele>
<time>2012-03-24T15:27:36.000Z</time>
</trkpt>
<trkpt lat="43.55018" lon="5.5335">
<ele>413.1</ele>
<time>2012-03-24T15:27:37.000Z</time>
</trkpt>
<trkpt lat="43.55017" lon="5.53338">
<ele>410.5</ele>
<time>2012-03-24T15:27:38.000Z</time>
</trkpt>
<trkpt lat="43.55016" lon="5.53325">
<ele>408.8</ele>
<time>2012-03-24T15:27:39.000Z</time>
</trkpt>
<trkpt lat="43.55015" lon="5.53314">
<ele>408.9</ele>
<time>2012-03-24T15:27:40.000Z</time>
</trkpt>
<trkpt lat="43.55015" lon="5.53302">
<ele>408.7</ele>
<time>2012-03-24T15:27:41.000Z</time>
</trkpt>
<trkpt lat="43.55015" lon="5.53291">
<ele>409.1</ele>
<time>2012-03-24T15:27:42.000Z</time>
</trkpt>
<trkpt lat="43.55015" lon="5.53279">
<ele>410.4</ele>
<time>2012-03-24T15:27:43.000Z</time>
</trkpt>
<trkpt lat="43.55014" lon="5.53268">
<ele>410.9</ele>
<time>2012-03-24T15:27:44.000Z</time>
</trkpt>
<trkpt lat="43.55012" lon="5.53256">
<ele>412.3</ele>
<time>2012-03-24T15:27:45.000Z</time>
</trkpt>
<trkpt lat="43.5501" lon="5.53246">
<ele>412.5</ele>
<time>2012-03-24T15:27:46.000Z</time>
</trkpt>
<trkpt lat="43.5501" lon="5.53235">
<ele>412.6</ele>
<time>2012-03-24T15:27:47.000Z</time>
</trkpt>
<trkpt lat="43.55007" lon="5.53226">
<ele>411.7</ele>
<time>2012-03-24T15:27:48.000Z</time>
</trkpt>
<trkpt lat="43.55005" lon="5.53216">
<ele>411.4</ele>
<time>2012-03-24T15:27:49.000Z</time>
</trkpt>
<trkpt lat="43.55" lon="5.53208">
<ele>412.3</ele>
<time>2012-03-24T15:27:50.000Z</time>
</trkpt>
<trkpt lat="43.54996" lon="5.53198">
<ele>412.5</ele>
<time>2012-03-24T15:27:51.000Z</time>
</trkpt>
<trkpt lat="43.54994" lon="5.53189">
<ele>411.9</ele>
<time>2012-03-24T15:27:52.000Z</time>
</trkpt>
<trkpt lat="43.54989" lon="5.5318">
<ele>411.8</ele>
<time>2012-03-24T15:27:53.000Z</time>
</trkpt>
<trkpt lat="43.54984" lon="5.53172">
<ele>412.2</ele>
<time>2012-03-24T15:27:54.000Z</time>
</trkpt>
<trkpt lat="43.54981" lon="5.53162">
<ele>412.8</ele>
<time>2012-03-24T15:27:55.000Z</time>
</trkpt>
<trkpt lat="43.54978" lon="5.53152">
<ele>413.7</ele>
<time>2012-03-24T15:27:56.000Z</time>
</trkpt>
<trkpt lat="43.54975" lon="5.5314">
<ele>413.4</ele>
<time>2012-03-24T15:27:57.000Z</time>
</trkpt>
<trkpt lat="43.54973" lon="5.53129">
<ele>414.1</ele>
<time>2012-03-24T15:27:58.000Z</time>
</trkpt>
<trkpt lat="43.54971" lon="5.53119">
<ele>413.9</ele>
<time>2012-03-24T15:27:59.000Z</time>
</trkpt>
<trkpt lat="43.5497" lon="5.53108">
<ele>414.1</ele>
<time>2012-03-24T15:28:00.000Z</time>
</trkpt>
<trkpt lat="43.54967" lon="5.53099">
<ele>414</ele>
<time>2012-03-24T15:28:01.000Z</time>
</trkpt>
<trkpt lat="43.54966" lon="5.53089">
<ele>413.9</ele>
<time>2012-03-24T15:28:02.000Z</time>
</trkpt>
<trkpt lat="43.54962" lon="5.53079">
<ele>414</ele>
<time>2012-03-24T15:28:03.000Z</time>
</trkpt>
<trkpt lat="43.5496" lon="5.5307">
<ele>414</ele>
<time>2012-03-24T15:28:04.000Z</time>
</trkpt>
<trkpt lat="43.54957" lon="5.53061">
<ele>414.9</ele>
<time>2012-03-24T15:28:05.000Z</time>
</trkpt>
<trkpt lat="43.54956" lon="5.5305">
<ele>415.7</ele>
<time>2012-03-24T15:28:06.000Z</time>
</trkpt>
<trkpt lat="43.54954" lon="5.5304">
<ele>415.5</ele>
<time>2012-03-24T15:28:07.000Z</time>
</trkpt>
<trkpt lat="43.54953" lon="5.5303">
<ele>415.6</ele>
<time>2012-03-24T15:28:08.000Z</time>
</trkpt>
<trkpt lat="43.54951" lon="5.53019">
<ele>414.8</ele>
<time>2012-03-24T15:28:09.000Z</time>
</trkpt>
<trkpt lat="43.54949" lon="5.53009">
<ele>414.7</ele>
<time>2012-03-24T15:28:10.000Z</time>
</trkpt>
<trkpt lat="43.54948" lon="5.52999">
<ele>415.2</ele>
<time>2012-03-24T15:28:11.000Z</time>
</trkpt>
<trkpt lat="43.54945" lon="5.52992">
<ele>415.2</ele>
<time>2012-03-24T15:28:12.000Z</time>
</trkpt>
<trkpt lat="43.54943" lon="5.52984">
<ele>415.2</ele>
<time>2012-03-24T15:28:13.000Z</time>
</trkpt>
<trkpt lat="43.54942" lon="5.52977">
<ele>415.8</ele>
<time>2012-03-24T15:28:14.000Z</time>
</trkpt>
<trkpt lat="43.54941" lon="5.52968">
<ele>415.4</ele>
<time>2012-03-24T15:28:15.000Z</time>
</trkpt>
<trkpt lat="43.54942" lon="5.52959">
<ele>415.5</ele>
<time>2012-03-24T15:28:16.000Z</time>
</trkpt>
<trkpt lat="43.5494" lon="5.52949">
<ele>415.3</ele>
<time>2012-03-24T15:28:17.000Z</time>
</trkpt>
<trkpt lat="43.54939" lon="5.52941">
<ele>415.2</ele>
<time>2012-03-24T15:28:18.000Z</time>
</trkpt>
<trkpt lat="43.54938" lon="5.52932">
<ele>415.4</ele>
<time>2012-03-24T15:28:19.000Z</time>
</trkpt>
<trkpt lat="43.54936" lon="5.52924">
<ele>415.4</ele>
<time>2012-03-24T15:28:20.000Z</time>
</trkpt>
<trkpt lat="43.54934" lon="5.52915">
<ele>414.8</ele>
<time>2012-03-24T15:28:21.000Z</time>
</trkpt>
<trkpt lat="43.54931" lon="5.52907">
<ele>415.8</ele>
<time>2012-03-24T15:28:22.000Z</time>
</trkpt>
<trkpt lat="43.54929" lon="5.52899">
<ele>416.2</ele>
<time>2012-03-24T15:28:23.000Z</time>
</trkpt>
<trkpt lat="43.54926" lon="5.52892">
<ele>416.7</ele>
<time>2012-03-24T15:28:24.000Z</time>
</trkpt>
<trkpt lat="43.54925" lon="5.52884">
<ele>417.2</ele>
<time>2012-03-24T15:28:25.000Z</time>
</trkpt>
<trkpt lat="43.54924" lon="5.52877">
<ele>417.8</ele>
<time>2012-03-24T15:28:26.000Z</time>
</trkpt>
<trkpt lat="43.54924" lon="5.52868">
<ele>417.9</ele>
<time>2012-03-24T15:28:27.000Z</time>
</trkpt>
<trkpt lat="43.54923" lon="5.5286">
<ele>418.3</ele>
<time>2012-03-24T15:28:28.000Z</time>
</trkpt>
<trkpt lat="43.5492" lon="5.52853">
<ele>418.5</ele>
<time>2012-03-24T15:28:29.000Z</time>
</trkpt>
<trkpt lat="43.54918" lon="5.52846">
<ele>418.6</ele>
<time>2012-03-24T15:28:30.000Z</time>
</trkpt>
<trkpt lat="43.54918" lon="5.52839">
<ele>418.3</ele>
<time>2012-03-24T15:28:31.000Z</time>
</trkpt>
<trkpt lat="43.54918" lon="5.52833">
<ele>418.2</ele>
<time>2012-03-24T15:28:32.000Z</time>
</trkpt>
<trkpt lat="43.54915" lon="5.52827">
<ele>417.9</ele>
<time>2012-03-24T15:28:33.000Z</time>
</trkpt>
<trkpt lat="43.54913" lon="5.52819">
<ele>417.7</ele>
<time>2012-03-24T15:28:34.000Z</time>
</trkpt>
<trkpt lat="43.54911" lon="5.52812">
<ele>417.4</ele>
<time>2012-03-24T15:28:35.000Z</time>
</trkpt>
<trkpt lat="43.54909" lon="5.52804">
<ele>417.3</ele>
<time>2012-03-24T15:28:36.000Z</time>
</trkpt>
<trkpt lat="43.54907" lon="5.52797">
<ele>417.1</ele>
<time>2012-03-24T15:28:37.000Z</time>
</trkpt>
<trkpt lat="43.54907" lon="5.52789">
<ele>416.9</ele>
<time>2012-03-24T15:28:38.000Z</time>
</trkpt>
<trkpt lat="43.54903" lon="5.52776">
<ele>417.3</ele>
<time>2012-03-24T15:28:40.000Z</time>
</trkpt>
<trkpt lat="43.54901" lon="5.52769">
<ele>417.3</ele>
<time>2012-03-24T15:28:41.000Z</time>
</trkpt>
<trkpt lat="43.54898" lon="5.52761">
<ele>417.1</ele>
<time>2012-03-24T15:28:42.000Z</time>
</trkpt>
<trkpt lat="43.54898" lon="5.52753">
<ele>417.1</ele>
<time>2012-03-24T15:28:43.000Z</time>
</trkpt>
<trkpt lat="43.54898" lon="5.52745">
<ele>417.1</ele>
<time>2012-03-24T15:28:44.000Z</time>
</trkpt>
<trkpt lat="43.54896" lon="5.52736">
<ele>417.2</ele>
<time>2012-03-24T15:28:45.000Z</time>
</trkpt>
<trkpt lat="43.54894" lon="5.52728">
<ele>417</ele>
<time>2012-03-24T15:28:46.000Z</time>
</trkpt>
<trkpt lat="43.54893" lon="5.5272">
<ele>417</ele>
<time>2012-03-24T15:28:47.000Z</time>
</trkpt>
<trkpt lat="43.5489" lon="5.52713">
<ele>416.8</ele>
<time>2012-03-24T15:28:48.000Z</time>
</trkpt>
<trkpt lat="43.54888" lon="5.52706">
<ele>416.8</ele>
<time>2012-03-24T15:28:49.000Z</time>
</trkpt>
<trkpt lat="43.54886" lon="5.527">
<ele>417.1</ele>
<time>2012-03-24T15:28:50.000Z</time>
</trkpt>
<trkpt lat="43.54884" lon="5.52692">
<ele>417</ele>
<time>2012-03-24T15:28:51.000Z</time>
</trkpt>
<trkpt lat="43.54884" lon="5.52683">
<ele>416.9</ele>
<time>2012-03-24T15:28:52.000Z</time>
</trkpt>
<trkpt lat="43.54883" lon="5.52674">
<ele>416.7</ele>
<time>2012-03-24T15:28:53.000Z</time>
</trkpt>
<trkpt lat="43.54882" lon="5.52667">
<ele>416.6</ele>
<time>2012-03-24T15:28:54.000Z</time>
</trkpt>
<trkpt lat="43.54881" lon="5.52659">
<ele>416</ele>
<time>2012-03-24T15:28:55.000Z</time>
</trkpt>
<trkpt lat="43.5488" lon="5.52651">
<ele>416.2</ele>
<time>2012-03-24T15:28:56.000Z</time>
</trkpt>
<trkpt lat="43.54878" lon="5.52643">
<ele>416.2</ele>
<time>2012-03-24T15:28:57.000Z</time>
</trkpt>
<trkpt lat="43.54875" lon="5.52636">
<ele>416.5</ele>
<time>2012-03-24T15:28:58.000Z</time>
</trkpt>
<trkpt lat="43.54874" lon="5.52629">
<ele>416.8</ele>
<time>2012-03-24T15:28:59.000Z</time>
</trkpt>
<trkpt lat="43.54874" lon="5.5262">
<ele>416.8</ele>
<time>2012-03-24T15:29:00.000Z</time>
</trkpt>
<trkpt lat="43.54872" lon="5.52606">
<ele>417.6</ele>
<time>2012-03-24T15:29:02.000Z</time>
</trkpt>
<trkpt lat="43.5487" lon="5.52597">
<ele>417.9</ele>
<time>2012-03-24T15:29:03.000Z</time>
</trkpt>
<trkpt lat="43.54868" lon="5.52589">
<ele>418.1</ele>
<time>2012-03-24T15:29:04.000Z</time>
</trkpt>
<trkpt lat="43.54866" lon="5.52581">
<ele>418.8</ele>
<time>2012-03-24T15:29:05.000Z</time>
</trkpt>
<trkpt lat="43.54866" lon="5.52574">
<ele>419.2</ele>
<time>2012-03-24T15:29:06.000Z</time>
</trkpt>
<trkpt lat="43.54865" lon="5.52566">
<ele>419.3</ele>
<time>2012-03-24T15:29:07.000Z</time>
</trkpt>
<trkpt lat="43.54862" lon="5.5256">
<ele>419.3</ele>
<time>2012-03-24T15:29:08.000Z</time>
</trkpt>
<trkpt lat="43.54862" lon="5.52553">
<ele>419.4</ele>
<time>2012-03-24T15:29:09.000Z</time>
</trkpt>
<trkpt lat="43.54859" lon="5.52547">
<ele>419.5</ele>
<time>2012-03-24T15:29:10.000Z</time>
</trkpt>
<trkpt lat="43.54858" lon="5.5254">
<ele>419.7</ele>
<time>2012-03-24T15:29:11.000Z</time>
</trkpt>
<trkpt lat="43.54856" lon="5.52535">
<ele>419.8</ele>
<time>2012-03-24T15:29:12.000Z</time>
</trkpt>
<trkpt lat="43.54854" lon="5.52529">
<ele>420</ele>
<time>2012-03-24T15:29:13.000Z</time>
</trkpt>
<trkpt lat="43.54854" lon="5.52519">
<ele>420.1</ele>
<time>2012-03-24T15:29:14.000Z</time>
</trkpt>
<trkpt lat="43.54854" lon="5.52512">
<ele>420.4</ele>
<time>2012-03-24T15:29:15.000Z</time>
</trkpt>
<trkpt lat="43.54853" lon="5.52504">
<ele>421</ele>
<time>2012-03-24T15:29:16.000Z</time>
</trkpt>
<trkpt lat="43.54852" lon="5.52496">
<ele>421.7</ele>
<time>2012-03-24T15:29:17.000Z</time>
</trkpt>
<trkpt lat="43.5485" lon="5.52488">
<ele>422.2</ele>
<time>2012-03-24T15:29:18.000Z</time>
</trkpt>
<trkpt lat="43.54846" lon="5.52479">
<ele>422</ele>
<time>2012-03-24T15:29:20.000Z</time>
</trkpt>
<trkpt lat="43.54845" lon="5.52471">
<ele>422.5</ele>
<time>2012-03-24T15:29:21.000Z</time>
</trkpt>
<trkpt lat="43.54843" lon="5.52464">
<ele>422.9</ele>
<time>2012-03-24T15:29:22.000Z</time>
</trkpt>
<trkpt lat="43.54842" lon="5.52456">
<ele>423.1</ele>
<time>2012-03-24T15:29:23.000Z</time>
</trkpt>
<trkpt lat="43.54838" lon="5.52445">
<ele>423.5</ele>
<time>2012-03-24T15:29:25.000Z</time>
</trkpt>
<trkpt lat="43.54837" lon="5.52436">
<ele>423.2</ele>
<time>2012-03-24T15:29:26.000Z</time>
</trkpt>
<trkpt lat="43.54838" lon="5.52427">
<ele>423.1</ele>
<time>2012-03-24T15:29:27.000Z</time>
</trkpt>
<trkpt lat="43.54838" lon="5.5242">
<ele>423.2</ele>
<time>2012-03-24T15:29:28.000Z</time>
</trkpt>
<trkpt lat="43.54836" lon="5.52414">
<ele>423.4</ele>
<time>2012-03-24T15:29:29.000Z</time>
</trkpt>
<trkpt lat="43.54836" lon="5.52406">
<ele>423.7</ele>
<time>2012-03-24T15:29:30.000Z</time>
</trkpt>
<trkpt lat="43.54836" lon="5.52398">
<ele>424.3</ele>
<time>2012-03-24T15:29:31.000Z</time>
</trkpt>
<trkpt lat="43.54834" lon="5.5239">
<ele>424.3</ele>
<time>2012-03-24T15:29:32.000Z</time>
</trkpt>
<trkpt lat="43.54834" lon="5.52383">
<ele>424.1</ele>
<time>2012-03-24T15:29:33.000Z</time>
</trkpt>
<trkpt lat="43.54832" lon="5.52377">
<ele>424.1</ele>
<time>2012-03-24T15:29:34.000Z</time>
</trkpt>
<trkpt lat="43.54832" lon="5.5237">
<ele>424.9</ele>
<time>2012-03-24T15:29:35.000Z</time>
</trkpt>
<trkpt lat="43.5483" lon="5.52363">
<ele>424.8</ele>
<time>2012-03-24T15:29:36.000Z</time>
</trkpt>
<trkpt lat="43.5483" lon="5.52355">
<ele>425</ele>
<time>2012-03-24T15:29:37.000Z</time>
</trkpt>
<trkpt lat="43.54829" lon="5.52343">
<ele>424.7</ele>
<time>2012-03-24T15:29:39.000Z</time>
</trkpt>
<trkpt lat="43.54829" lon="5.52331">
<ele>425.2</ele>
<time>2012-03-24T15:29:41.000Z</time>
</trkpt>
<trkpt lat="43.54828" lon="5.52325">
<ele>425.8</ele>
<time>2012-03-24T15:29:42.000Z</time>
</trkpt>
<trkpt lat="43.54825" lon="5.52314">
<ele>425.8</ele>
<time>2012-03-24T15:29:44.000Z</time>
</trkpt>
<trkpt lat="43.54823" lon="5.523">
<ele>426.6</ele>
<time>2012-03-24T15:29:46.000Z</time>
</trkpt>
<trkpt lat="43.54821" lon="5.52293">
<ele>427.1</ele>
<time>2012-03-24T15:29:47.000Z</time>
</trkpt>
<trkpt lat="43.54818" lon="5.52287">
<ele>427.7</ele>
<time>2012-03-24T15:29:48.000Z</time>
</trkpt>
<trkpt lat="43.54817" lon="5.5228">
<ele>428.2</ele>
<time>2012-03-24T15:29:49.000Z</time>
</trkpt>
<trkpt lat="43.54816" lon="5.52273">
<ele>428.3</ele>
<time>2012-03-24T15:29:50.000Z</time>
</trkpt>
<trkpt lat="43.54814" lon="5.52266">
<ele>428.4</ele>
<time>2012-03-24T15:29:51.000Z</time>
</trkpt>
<trkpt lat="43.54813" lon="5.52259">
<ele>428.5</ele>
<time>2012-03-24T15:29:52.000Z</time>
</trkpt>
<trkpt lat="43.54812" lon="5.5225">
<ele>428.9</ele>
<time>2012-03-24T15:29:53.000Z</time>
</trkpt>
<trkpt lat="43.54809" lon="5.52238">
<ele>429.4</ele>
<time>2012-03-24T15:29:55.000Z</time>
</trkpt>
<trkpt lat="43.54809" lon="5.5223">
<ele>429.1</ele>
<time>2012-03-24T15:29:56.000Z</time>
</trkpt>
<trkpt lat="43.54806" lon="5.52223">
<ele>429</ele>
<time>2012-03-24T15:29:57.000Z</time>
</trkpt>
<trkpt lat="43.54803" lon="5.52218">
<ele>428.5</ele>
<time>2012-03-24T15:29:58.000Z</time>
</trkpt>
<trkpt lat="43.548" lon="5.5221">
<ele>428.7</ele>
<time>2012-03-24T15:29:59.000Z</time>
</trkpt>
<trkpt lat="43.54798" lon="5.52203">
<ele>428.8</ele>
<time>2012-03-24T15:30:00.000Z</time>
</trkpt>
<trkpt lat="43.54796" lon="5.52195">
<ele>429.2</ele>
<time>2012-03-24T15:30:01.000Z</time>
</trkpt>
<trkpt lat="43.54797" lon="5.52186">
<ele>429.7</ele>
<time>2012-03-24T15:30:02.000Z</time>
</trkpt>
<trkpt lat="43.54796" lon="5.52178">
<ele>430</ele>
<time>2012-03-24T15:30:03.000Z</time>
</trkpt>
<trkpt lat="43.54796" lon="5.52168">
<ele>430.2</ele>
<time>2012-03-24T15:30:04.000Z</time>
</trkpt>
<trkpt lat="43.54796" lon="5.52159">
<ele>430.4</ele>
<time>2012-03-24T15:30:05.000Z</time>
</trkpt>
<trkpt lat="43.54795" lon="5.52151">
<ele>430.6</ele>
<time>2012-03-24T15:30:06.000Z</time>
</trkpt>
<trkpt lat="43.54794" lon="5.52143">
<ele>430.7</ele>
<time>2012-03-24T15:30:07.000Z</time>
</trkpt>
<trkpt lat="43.54792" lon="5.52136">
<ele>430.5</ele>
<time>2012-03-24T15:30:08.000Z</time>
</trkpt>
<trkpt lat="43.54789" lon="5.52128">
<ele>430.6</ele>
<time>2012-03-24T15:30:09.000Z</time>
</trkpt>
<trkpt lat="43.54785" lon="5.5212">
<ele>430.8</ele>
<time>2012-03-24T15:30:10.000Z</time>
</trkpt>
<trkpt lat="43.54783" lon="5.52113">
<ele>431</ele>
<time>2012-03-24T15:30:11.000Z</time>
</trkpt>
<trkpt lat="43.5478" lon="5.52105">
<ele>431.2</ele>
<time>2012-03-24T15:30:12.000Z</time>
</trkpt>
<trkpt lat="43.54776" lon="5.52098">
<ele>431.3</ele>
<time>2012-03-24T15:30:13.000Z</time>
</trkpt>
<trkpt lat="43.54772" lon="5.52091">
<ele>431.4</ele>
<time>2012-03-24T15:30:14.000Z</time>
</trkpt>
<trkpt lat="43.54771" lon="5.52083">
<ele>431.6</ele>
<time>2012-03-24T15:30:15.000Z</time>
</trkpt>
<trkpt lat="43.54769" lon="5.52074">
<ele>431.7</ele>
<time>2012-03-24T15:30:16.000Z</time>
</trkpt>
<trkpt lat="43.54765" lon="5.52067">
<ele>431.5</ele>
<time>2012-03-24T15:30:17.000Z</time>
</trkpt>
<trkpt lat="43.54762" lon="5.5206">
<ele>431.5</ele>
<time>2012-03-24T15:30:18.000Z</time>
</trkpt>
<trkpt lat="43.54754" lon="5.52052">
<ele>431.4</ele>
<time>2012-03-24T15:30:19.000Z</time>
</trkpt>
<trkpt lat="43.54748" lon="5.52044">
<ele>431.4</ele>
<time>2012-03-24T15:30:20.000Z</time>
</trkpt>
<trkpt lat="43.54743" lon="5.52034">
<ele>431.4</ele>
<time>2012-03-24T15:30:21.000Z</time>
</trkpt>
<trkpt lat="43.54739" lon="5.52024">
<ele>431.2</ele>
<time>2012-03-24T15:30:22.000Z</time>
</trkpt>
<trkpt lat="43.54733" lon="5.52016">
<ele>431.5</ele>
<time>2012-03-24T15:30:23.000Z</time>
</trkpt>
<trkpt lat="43.54729" lon="5.52004">
<ele>431.3</ele>
<time>2012-03-24T15:30:24.000Z</time>
</trkpt>
<trkpt lat="43.54724" lon="5.51994">
<ele>430.7</ele>
<time>2012-03-24T15:30:25.000Z</time>
</trkpt>
<trkpt lat="43.54718" lon="5.51984">
<ele>430.4</ele>
<time>2012-03-24T15:30:26.000Z</time>
</trkpt>
<trkpt lat="43.54713" lon="5.51974">
<ele>430.8</ele>
<time>2012-03-24T15:30:27.000Z</time>
</trkpt>
<trkpt lat="43.54707" lon="5.5196">
<ele>430.6</ele>
<time>2012-03-24T15:30:28.000Z</time>
</trkpt>
<trkpt lat="43.54699" lon="5.5195">
<ele>429.8</ele>
<time>2012-03-24T15:30:29.000Z</time>
</trkpt>
<trkpt lat="43.54694" lon="5.51941">
<ele>430.3</ele>
<time>2012-03-24T15:30:30.000Z</time>
</trkpt>
<trkpt lat="43.54688" lon="5.51931">
<ele>430.7</ele>
<time>2012-03-24T15:30:31.000Z</time>
</trkpt>
<trkpt lat="43.54681" lon="5.51925">
<ele>430.5</ele>
<time>2012-03-24T15:30:32.000Z</time>
</trkpt>
<trkpt lat="43.54672" lon="5.51919">
<ele>430.7</ele>
<time>2012-03-24T15:30:33.000Z</time>
</trkpt>
<trkpt lat="43.54665" lon="5.5191">
<ele>430.3</ele>
<time>2012-03-24T15:30:34.000Z</time>
</trkpt>
<trkpt lat="43.54657" lon="5.519">
<ele>430.5</ele>
<time>2012-03-24T15:30:35.000Z</time>
</trkpt>
<trkpt lat="43.54651" lon="5.51891">
<ele>429.6</ele>
<time>2012-03-24T15:30:36.000Z</time>
</trkpt>
<trkpt lat="43.54646" lon="5.51882">
<ele>429.6</ele>
<time>2012-03-24T15:30:37.000Z</time>
</trkpt>
<trkpt lat="43.54642" lon="5.51872">
<ele>429.6</ele>
<time>2012-03-24T15:30:38.000Z</time>
</trkpt>
<trkpt lat="43.54637" lon="5.51862">
<ele>429.7</ele>
<time>2012-03-24T15:30:39.000Z</time>
</trkpt>
<trkpt lat="43.54633" lon="5.51848">
<ele>430.6</ele>
<time>2012-03-24T15:30:40.000Z</time>
</trkpt>
<trkpt lat="43.54632" lon="5.51833">
<ele>430.6</ele>
<time>2012-03-24T15:30:41.000Z</time>
</trkpt>
<trkpt lat="43.5463" lon="5.51818">
<ele>430.4</ele>
<time>2012-03-24T15:30:42.000Z</time>
</trkpt>
<trkpt lat="43.5463" lon="5.51806">
<ele>430</ele>
<time>2012-03-24T15:30:43.000Z</time>
</trkpt>
<trkpt lat="43.5463" lon="5.51793">
<ele>429.9</ele>
<time>2012-03-24T15:30:44.000Z</time>
</trkpt>
<trkpt lat="43.54631" lon="5.51778">
<ele>430.1</ele>
<time>2012-03-24T15:30:45.000Z</time>
</trkpt>
<trkpt lat="43.54632" lon="5.51765">
<ele>429.6</ele>
<time>2012-03-24T15:30:46.000Z</time>
</trkpt>
<trkpt lat="43.54635" lon="5.51751">
<ele>429.8</ele>
<time>2012-03-24T15:30:47.000Z</time>
</trkpt>
<trkpt lat="43.54636" lon="5.51739">
<ele>429.9</ele>
<time>2012-03-24T15:30:48.000Z</time>
</trkpt>
<trkpt lat="43.5464" lon="5.51726">
<ele>430</ele>
<time>2012-03-24T15:30:49.000Z</time>
</trkpt>
<trkpt lat="43.54643" lon="5.51712">
<ele>430.1</ele>
<time>2012-03-24T15:30:50.000Z</time>
</trkpt>
<trkpt lat="43.54645" lon="5.51701">
<ele>429.9</ele>
<time>2012-03-24T15:30:51.000Z</time>
</trkpt>
<trkpt lat="43.54647" lon="5.51689">
<ele>429.9</ele>
<time>2012-03-24T15:30:52.000Z</time>
</trkpt>
<trkpt lat="43.5465" lon="5.51677">
<ele>429.6</ele>
<time>2012-03-24T15:30:53.000Z</time>
</trkpt>
<trkpt lat="43.5465" lon="5.51665">
<ele>430</ele>
<time>2012-03-24T15:30:54.000Z</time>
</trkpt>
<trkpt lat="43.5465" lon="5.51652">
<ele>429.6</ele>
<time>2012-03-24T15:30:55.000Z</time>
</trkpt>
<trkpt lat="43.54651" lon="5.51639">
<ele>429.9</ele>
<time>2012-03-24T15:30:56.000Z</time>
</trkpt>
<trkpt lat="43.54649" lon="5.51626">
<ele>429.6</ele>
<time>2012-03-24T15:30:57.000Z</time>
</trkpt>
<trkpt lat="43.54645" lon="5.51616">
<ele>429.7</ele>
<time>2012-03-24T15:30:58.000Z</time>
</trkpt>
<trkpt lat="43.54641" lon="5.51605">
<ele>429.1</ele>
<time>2012-03-24T15:30:59.000Z</time>
</trkpt>
<trkpt lat="43.54638" lon="5.51593">
<ele>428.7</ele>
<time>2012-03-24T15:31:00.000Z</time>
</trkpt>
<trkpt lat="43.54632" lon="5.51583">
<ele>428.4</ele>
<time>2012-03-24T15:31:01.000Z</time>
</trkpt>
<trkpt lat="43.54625" lon="5.51574">
<ele>427.9</ele>
<time>2012-03-24T15:31:02.000Z</time>
</trkpt>
<trkpt lat="43.54621" lon="5.51563">
<ele>427.3</ele>
<time>2012-03-24T15:31:03.000Z</time>
</trkpt>
<trkpt lat="43.54616" lon="5.51554">
<ele>427.2</ele>
<time>2012-03-24T15:31:04.000Z</time>
</trkpt>
<trkpt lat="43.54611" lon="5.51544">
<ele>426.9</ele>
<time>2012-03-24T15:31:05.000Z</time>
</trkpt>
<trkpt lat="43.54605" lon="5.51534">
<ele>426.9</ele>
<time>2012-03-24T15:31:06.000Z</time>
</trkpt>
<trkpt lat="43.54599" lon="5.51524">
<ele>427</ele>
<time>2012-03-24T15:31:07.000Z</time>
</trkpt>
<trkpt lat="43.54593" lon="5.51513">
<ele>427</ele>
<time>2012-03-24T15:31:08.000Z</time>
</trkpt>
<trkpt lat="43.54588" lon="5.51504">
<ele>426.9</ele>
<time>2012-03-24T15:31:09.000Z</time>
</trkpt>
<trkpt lat="43.54582" lon="5.51493">
<ele>427.3</ele>
<time>2012-03-24T15:31:10.000Z</time>
</trkpt>
<trkpt lat="43.54576" lon="5.51483">
<ele>427.4</ele>
<time>2012-03-24T15:31:11.000Z</time>
</trkpt>
<trkpt lat="43.54572" lon="5.51474">
<ele>427.2</ele>
<time>2012-03-24T15:31:12.000Z</time>
</trkpt>
<trkpt lat="43.54566" lon="5.51466">
<ele>427.3</ele>
<time>2012-03-24T15:31:13.000Z</time>
</trkpt>
<trkpt lat="43.5456" lon="5.51456">
<ele>427.5</ele>
<time>2012-03-24T15:31:14.000Z</time>
</trkpt>
<trkpt lat="43.54557" lon="5.51446">
<ele>427.6</ele>
<time>2012-03-24T15:31:15.000Z</time>
</trkpt>
<trkpt lat="43.54553" lon="5.51439">
<ele>427.2</ele>
<time>2012-03-24T15:31:16.000Z</time>
</trkpt>
<trkpt lat="43.5455" lon="5.51433">
<ele>426.9</ele>
<time>2012-03-24T15:31:17.000Z</time>
</trkpt>
<trkpt lat="43.54545" lon="5.5142">
<ele>427.1</ele>
<time>2012-03-24T15:31:19.000Z</time>
</trkpt>
<trkpt lat="43.54544" lon="5.51414">
<ele>426.9</ele>
<time>2012-03-24T15:31:20.000Z</time>
</trkpt>
<trkpt lat="43.54544" lon="5.51408">
<ele>426.3</ele>
<time>2012-03-24T15:31:21.000Z</time>
</trkpt>
<trkpt lat="43.54544" lon="5.51401">
<ele>426.1</ele>
<time>2012-03-24T15:31:22.000Z</time>
</trkpt>
<trkpt lat="43.54545" lon="5.51391">
<ele>426</ele>
<time>2012-03-24T15:31:24.000Z</time>
</trkpt>
<trkpt lat="43.54547" lon="5.51382">
<ele>425.7</ele>
<time>2012-03-24T15:31:26.000Z</time>
</trkpt>
<trkpt lat="43.54548" lon="5.51373">
<ele>425.6</ele>
<time>2012-03-24T15:31:29.000Z</time>
</trkpt>
<trkpt lat="43.54549" lon="5.51362">
<ele>425.5</ele>
<time>2012-03-24T15:31:31.000Z</time>
</trkpt>
<trkpt lat="43.54548" lon="5.51355">
<ele>426.1</ele>
<time>2012-03-24T15:31:33.000Z</time>
</trkpt>
<trkpt lat="43.54547" lon="5.51346">
<ele>426.4</ele>
<time>2012-03-24T15:31:35.000Z</time>
</trkpt>
<trkpt lat="43.54547" lon="5.51338">
<ele>426.4</ele>
<time>2012-03-24T15:31:37.000Z</time>
</trkpt>
<trkpt lat="43.54546" lon="5.51329">
<ele>426.4</ele>
<time>2012-03-24T15:31:39.000Z</time>
</trkpt>
<trkpt lat="43.54547" lon="5.51321">
<ele>426.5</ele>
<time>2012-03-24T15:31:41.000Z</time>
</trkpt>
<trkpt lat="43.54544" lon="5.51315">
<ele>426.6</ele>
<time>2012-03-24T15:31:44.000Z</time>
</trkpt>
<trkpt lat="43.54544" lon="5.51309">
<ele>426.5</ele>
<time>2012-03-24T15:31:45.000Z</time>
</trkpt>
<trkpt lat="43.54546" lon="5.51295">
<ele>426.8</ele>
<time>2012-03-24T15:31:47.000Z</time>
</trkpt>
<trkpt lat="43.54548" lon="5.51288">
<ele>426.8</ele>
<time>2012-03-24T15:31:49.000Z</time>
</trkpt>
<trkpt lat="43.5466" lon="5.51209">
<ele>364</ele>
<time>2012-03-24T15:32:23.000Z</time>
</trkpt>
<trkpt lat="43.54661" lon="5.51199">
<ele>366.9</ele>
<time>2012-03-24T15:32:24.000Z</time>
</trkpt>
<trkpt lat="43.54665" lon="5.51194">
<ele>371.3</ele>
<time>2012-03-24T15:32:26.000Z</time>
</trkpt>
<trkpt lat="43.54661" lon="5.51187">
<ele>410</ele>
<time>2012-03-24T15:34:38.000Z</time>
</trkpt>
<trkpt lat="43.54665" lon="5.51182">
<ele>411.2</ele>
<time>2012-03-24T15:34:50.000Z</time>
</trkpt>
<trkpt lat="43.54666" lon="5.51176">
<ele>411</ele>
<time>2012-03-24T15:34:54.000Z</time>
</trkpt>
<trkpt lat="43.54666" lon="5.51163">
<ele>413.6</ele>
<time>2012-03-24T15:34:59.000Z</time>
</trkpt>
<trkpt lat="43.54664" lon="5.51157">
<ele>414.3</ele>
<time>2012-03-24T15:35:00.000Z</time>
</trkpt>
<trkpt lat="43.5466" lon="5.51151">
<ele>417.3</ele>
<time>2012-03-24T15:35:01.000Z</time>
</trkpt>
<trkpt lat="43.54659" lon="5.51141">
<ele>418.9</ele>
<time>2012-03-24T15:35:02.000Z</time>
</trkpt>
<trkpt lat="43.54658" lon="5.51132">
<ele>419.2</ele>
<time>2012-03-24T15:35:03.000Z</time>
</trkpt>
<trkpt lat="43.54655" lon="5.51126">
<ele>420.4</ele>
<time>2012-03-24T15:35:04.000Z</time>
</trkpt>
<trkpt lat="43.54651" lon="5.51115">
<ele>423.5</ele>
<time>2012-03-24T15:35:06.000Z</time>
</trkpt>
<trkpt lat="43.54644" lon="5.51105">
<ele>423.3</ele>
<time>2012-03-24T15:35:08.000Z</time>
</trkpt>
<trkpt lat="43.5464" lon="5.511">
<ele>422.8</ele>
<time>2012-03-24T15:35:09.000Z</time>
</trkpt>
<trkpt lat="43.54638" lon="5.51094">
<ele>423.8</ele>
<time>2012-03-24T15:35:10.000Z</time>
</trkpt>
<trkpt lat="43.54634" lon="5.51089">
<ele>423.9</ele>
<time>2012-03-24T15:35:11.000Z</time>
</trkpt>
<trkpt lat="43.54632" lon="5.51083">
<ele>422.7</ele>
<time>2012-03-24T15:35:12.000Z</time>
</trkpt>
<trkpt lat="43.54629" lon="5.51075">
<ele>421.7</ele>
<time>2012-03-24T15:35:13.000Z</time>
</trkpt>
<trkpt lat="43.54624" lon="5.51072">
<ele>422.4</ele>
<time>2012-03-24T15:35:14.000Z</time>
</trkpt>
<trkpt lat="43.5462" lon="5.51068">
<ele>424.2</ele>
<time>2012-03-24T15:35:15.000Z</time>
</trkpt>
<trkpt lat="43.54615" lon="5.51063">
<ele>424.6</ele>
<time>2012-03-24T15:35:16.000Z</time>
</trkpt>
<trkpt lat="43.54612" lon="5.51059">
<ele>424.3</ele>
<time>2012-03-24T15:35:17.000Z</time>
</trkpt>
<trkpt lat="43.54603" lon="5.51051">
<ele>426.3</ele>
<time>2012-03-24T15:35:19.000Z</time>
</trkpt>
<trkpt lat="43.54597" lon="5.51047">
<ele>428.4</ele>
<time>2012-03-24T15:35:20.000Z</time>
</trkpt>
<trkpt lat="43.54592" lon="5.51041">
<ele>429.4</ele>
<time>2012-03-24T15:35:21.000Z</time>
</trkpt>
<trkpt lat="43.54589" lon="5.51032">
<ele>428.4</ele>
<time>2012-03-24T15:35:22.000Z</time>
</trkpt>
<trkpt lat="43.54584" lon="5.51026">
<ele>427.8</ele>
<time>2012-03-24T15:35:23.000Z</time>
</trkpt>
<trkpt lat="43.5458" lon="5.51019">
<ele>428</ele>
<time>2012-03-24T15:35:24.000Z</time>
</trkpt>
<trkpt lat="43.54575" lon="5.51014">
<ele>427.8</ele>
<time>2012-03-24T15:35:25.000Z</time>
</trkpt>
<trkpt lat="43.5457" lon="5.5101">
<ele>429.2</ele>
<time>2012-03-24T15:35:26.000Z</time>
</trkpt>
<trkpt lat="43.54565" lon="5.51004">
<ele>430.2</ele>
<time>2012-03-24T15:35:27.000Z</time>
</trkpt>
<trkpt lat="43.5456" lon="5.51">
<ele>431</ele>
<time>2012-03-24T15:35:28.000Z</time>
</trkpt>
<trkpt lat="43.54558" lon="5.50987">
<ele>431.6</ele>
<time>2012-03-24T15:35:30.000Z</time>
</trkpt>
<trkpt lat="43.54552" lon="5.50982">
<ele>432.5</ele>
<time>2012-03-24T15:35:32.000Z</time>
</trkpt>
<trkpt lat="43.54552" lon="5.50971">
<ele>431.7</ele>
<time>2012-03-24T15:35:33.000Z</time>
</trkpt>
<trkpt lat="43.54554" lon="5.50961">
<ele>429.9</ele>
<time>2012-03-24T15:35:34.000Z</time>
</trkpt>
<trkpt lat="43.54554" lon="5.50953">
<ele>428.2</ele>
<time>2012-03-24T15:35:35.000Z</time>
</trkpt>
<trkpt lat="43.54555" lon="5.50943">
<ele>428.8</ele>
<time>2012-03-24T15:35:36.000Z</time>
</trkpt>
<trkpt lat="43.54554" lon="5.50931">
<ele>428.9</ele>
<time>2012-03-24T15:35:38.000Z</time>
</trkpt>
<trkpt lat="43.54553" lon="5.50923">
<ele>428.6</ele>
<time>2012-03-24T15:35:39.000Z</time>
</trkpt>
<trkpt lat="43.54552" lon="5.50915">
<ele>428.3</ele>
<time>2012-03-24T15:35:40.000Z</time>
</trkpt>
<trkpt lat="43.5455" lon="5.50908">
<ele>427.6</ele>
<time>2012-03-24T15:35:41.000Z</time>
</trkpt>
<trkpt lat="43.54548" lon="5.50901">
<ele>427.5</ele>
<time>2012-03-24T15:35:42.000Z</time>
</trkpt>
<trkpt lat="43.54545" lon="5.50894">
<ele>428</ele>
<time>2012-03-24T15:35:43.000Z</time>
</trkpt>
<trkpt lat="43.54542" lon="5.50884">
<ele>427.5</ele>
<time>2012-03-24T15:35:45.000Z</time>
</trkpt>
<trkpt lat="43.54545" lon="5.5087">
<ele>428.1</ele>
<time>2012-03-24T15:35:47.000Z</time>
</trkpt>
<trkpt lat="43.54548" lon="5.50861">
<ele>427.4</ele>
<time>2012-03-24T15:35:48.000Z</time>
</trkpt>
<trkpt lat="43.54552" lon="5.50854">
<ele>427</ele>
<time>2012-03-24T15:35:49.000Z</time>
</trkpt>
<trkpt lat="43.54556" lon="5.50846">
<ele>425.8</ele>
<time>2012-03-24T15:35:50.000Z</time>
</trkpt>
<trkpt lat="43.54558" lon="5.50841">
<ele>425.5</ele>
<time>2012-03-24T15:35:51.000Z</time>
</trkpt>
<trkpt lat="43.5456" lon="5.50833">
<ele>426.2</ele>
<time>2012-03-24T15:35:52.000Z</time>
</trkpt>
<trkpt lat="43.54563" lon="5.50826">
<ele>426.3</ele>
<time>2012-03-24T15:35:53.000Z</time>
</trkpt>
<trkpt lat="43.54562" lon="5.50815">
<ele>426.7</ele>
<time>2012-03-24T15:35:54.000Z</time>
</trkpt>
<trkpt lat="43.54564" lon="5.50804">
<ele>427.2</ele>
<time>2012-03-24T15:35:55.000Z</time>
</trkpt>
<trkpt lat="43.54572" lon="5.50794">
<ele>428.9</ele>
<time>2012-03-24T15:35:56.000Z</time>
</trkpt>
<trkpt lat="43.54582" lon="5.50797">
<ele>428.7</ele>
<time>2012-03-24T15:35:57.000Z</time>
</trkpt>
<trkpt lat="43.54588" lon="5.50796">
<ele>428.2</ele>
<time>2012-03-24T15:35:58.000Z</time>
</trkpt>
<trkpt lat="43.54592" lon="5.50789">
<ele>429.5</ele>
<time>2012-03-24T15:36:00.000Z</time>
</trkpt>
<trkpt lat="43.54594" lon="5.50783">
<ele>429.9</ele>
<time>2012-03-24T15:36:01.000Z</time>
</trkpt>
<trkpt lat="43.546" lon="5.50773">
<ele>430.1</ele>
<time>2012-03-24T15:36:03.000Z</time>
</trkpt>
<trkpt lat="43.54606" lon="5.50768">
<ele>429.8</ele>
<time>2012-03-24T15:36:04.000Z</time>
</trkpt>
<trkpt lat="43.54611" lon="5.50763">
<ele>430.4</ele>
<time>2012-03-24T15:36:05.000Z</time>
</trkpt>
<trkpt lat="43.54607" lon="5.50758">
<ele>430.9</ele>
<time>2012-03-24T15:36:06.000Z</time>
</trkpt>
<trkpt lat="43.54599" lon="5.50769">
<ele>430.5</ele>
<time>2012-03-24T15:36:07.000Z</time>
</trkpt>
<trkpt lat="43.54592" lon="5.5076">
<ele>429.8</ele>
<time>2012-03-24T15:36:08.000Z</time>
</trkpt>
<trkpt lat="43.54597" lon="5.50753">
<ele>429.2</ele>
<time>2012-03-24T15:36:10.000Z</time>
</trkpt>
<trkpt lat="43.54605" lon="5.50746">
<ele>428.9</ele>
<time>2012-03-24T15:36:12.000Z</time>
</trkpt>
<trkpt lat="43.54614" lon="5.50741">
<ele>428.7</ele>
<time>2012-03-24T15:36:14.000Z</time>
</trkpt>
<trkpt lat="43.5462" lon="5.50736">
<ele>429.3</ele>
<time>2012-03-24T15:36:16.000Z</time>
</trkpt>
<trkpt lat="43.54629" lon="5.50731">
<ele>429.9</ele>
<time>2012-03-24T15:36:18.000Z</time>
</trkpt>
<trkpt lat="43.54633" lon="5.50726">
<ele>429.9</ele>
<time>2012-03-24T15:36:19.000Z</time>
</trkpt>
<trkpt lat="43.54636" lon="5.50722">
<ele>430.7</ele>
<time>2012-03-24T15:36:20.000Z</time>
</trkpt>
<trkpt lat="43.54641" lon="5.5071">
<ele>430</ele>
<time>2012-03-24T15:36:22.000Z</time>
</trkpt>
<trkpt lat="43.54645" lon="5.50702">
<ele>430.4</ele>
<time>2012-03-24T15:36:23.000Z</time>
</trkpt>
<trkpt lat="43.54647" lon="5.50695">
<ele>430.6</ele>
<time>2012-03-24T15:36:24.000Z</time>
</trkpt>
<trkpt lat="43.54648" lon="5.50687">
<ele>431.2</ele>
<time>2012-03-24T15:36:25.000Z</time>
</trkpt>
<trkpt lat="43.54649" lon="5.50679">
<ele>431.3</ele>
<time>2012-03-24T15:36:26.000Z</time>
</trkpt>
<trkpt lat="43.54649" lon="5.50673">
<ele>431.3</ele>
<time>2012-03-24T15:36:27.000Z</time>
</trkpt>
<trkpt lat="43.54647" lon="5.50665">
<ele>430.7</ele>
<time>2012-03-24T15:36:28.000Z</time>
</trkpt>
<trkpt lat="43.54644" lon="5.50658">
<ele>430.9</ele>
<time>2012-03-24T15:36:29.000Z</time>
</trkpt>
<trkpt lat="43.54643" lon="5.50649">
<ele>431.2</ele>
<time>2012-03-24T15:36:30.000Z</time>
</trkpt>
<trkpt lat="43.54643" lon="5.50642">
<ele>431.5</ele>
<time>2012-03-24T15:36:31.000Z</time>
</trkpt>
<trkpt lat="43.54643" lon="5.50635">
<ele>431.7</ele>
<time>2012-03-24T15:36:32.000Z</time>
</trkpt>
<trkpt lat="43.54639" lon="5.50622">
<ele>431.4</ele>
<time>2012-03-24T15:36:34.000Z</time>
</trkpt>
<trkpt lat="43.54637" lon="5.50616">
<ele>431.5</ele>
<time>2012-03-24T15:36:35.000Z</time>
</trkpt>
<trkpt lat="43.54636" lon="5.50608">
<ele>431.7</ele>
<time>2012-03-24T15:36:36.000Z</time>
</trkpt>
<trkpt lat="43.54634" lon="5.50599">
<ele>431.5</ele>
<time>2012-03-24T15:36:37.000Z</time>
</trkpt>
<trkpt lat="43.54631" lon="5.50591">
<ele>431.7</ele>
<time>2012-03-24T15:36:38.000Z</time>
</trkpt>
<trkpt lat="43.54629" lon="5.50584">
<ele>431.3</ele>
<time>2012-03-24T15:36:39.000Z</time>
</trkpt>
<trkpt lat="43.54627" lon="5.50578">
<ele>430.7</ele>
<time>2012-03-24T15:36:40.000Z</time>
</trkpt>
<trkpt lat="43.54627" lon="5.5057">
<ele>430</ele>
<time>2012-03-24T15:36:42.000Z</time>
</trkpt>
<trkpt lat="43.54628" lon="5.50559">
<ele>429.3</ele>
<time>2012-03-24T15:36:44.000Z</time>
</trkpt>
<trkpt lat="43.54626" lon="5.50548">
<ele>429.2</ele>
<time>2012-03-24T15:36:46.000Z</time>
</trkpt>
<trkpt lat="43.54626" lon="5.50541">
<ele>429.7</ele>
<time>2012-03-24T15:36:47.000Z</time>
</trkpt>
<trkpt lat="43.54626" lon="5.5053">
<ele>429.7</ele>
<time>2012-03-24T15:36:49.000Z</time>
</trkpt>
<trkpt lat="43.54631" lon="5.50426">
<ele>447.2</ele>
<time>2012-03-24T15:37:08.000Z</time>
</trkpt>
<trkpt lat="43.54627" lon="5.5041">
<ele>446.3</ele>
<time>2012-03-24T15:37:09.000Z</time>
</trkpt>
<trkpt lat="43.54626" lon="5.50401">
<ele>448.2</ele>
<time>2012-03-24T15:37:10.000Z</time>
</trkpt>
<trkpt lat="43.54631" lon="5.50396">
<ele>450.4</ele>
<time>2012-03-24T15:37:11.000Z</time>
</trkpt>
<trkpt lat="43.54638" lon="5.5038">
<ele>444.9</ele>
<time>2012-03-24T15:37:12.000Z</time>
</trkpt>
<trkpt lat="43.5464" lon="5.50374">
<ele>443.2</ele>
<time>2012-03-24T15:37:13.000Z</time>
</trkpt>
<trkpt lat="43.54642" lon="5.50364">
<ele>439</ele>
<time>2012-03-24T15:37:15.000Z</time>
</trkpt>
<trkpt lat="43.54642" lon="5.50358">
<ele>438.6</ele>
<time>2012-03-24T15:37:16.000Z</time>
</trkpt>
<trkpt lat="43.54646" lon="5.50351">
<ele>438.5</ele>
<time>2012-03-24T15:37:17.000Z</time>
</trkpt>
<trkpt lat="43.54654" lon="5.50353">
<ele>436.2</ele>
<time>2012-03-24T15:37:20.000Z</time>
</trkpt>
<trkpt lat="43.54643" lon="5.50342">
<ele>435.6</ele>
<time>2012-03-24T15:37:22.000Z</time>
</trkpt>
<trkpt lat="43.54636" lon="5.50331">
<ele>435.9</ele>
<time>2012-03-24T15:37:23.000Z</time>
</trkpt>
<trkpt lat="43.54632" lon="5.50323">
<ele>436.7</ele>
<time>2012-03-24T15:37:24.000Z</time>
</trkpt>
<trkpt lat="43.54627" lon="5.50316">
<ele>436.9</ele>
<time>2012-03-24T15:37:25.000Z</time>
</trkpt>
<trkpt lat="43.54623" lon="5.50307">
<ele>436.4</ele>
<time>2012-03-24T15:37:26.000Z</time>
</trkpt>
<trkpt lat="43.54618" lon="5.50302">
<ele>435.9</ele>
<time>2012-03-24T15:37:27.000Z</time>
</trkpt>
<trkpt lat="43.54614" lon="5.50293">
<ele>435.7</ele>
<time>2012-03-24T15:37:28.000Z</time>
</trkpt>
<trkpt lat="43.54611" lon="5.50282">
<ele>435.2</ele>
<time>2012-03-24T15:37:29.000Z</time>
</trkpt>
<trkpt lat="43.54608" lon="5.50274">
<ele>434.5</ele>
<time>2012-03-24T15:37:30.000Z</time>
</trkpt>
<trkpt lat="43.54607" lon="5.50264">
<ele>433.4</ele>
<time>2012-03-24T15:37:31.000Z</time>
</trkpt>
<trkpt lat="43.54604" lon="5.50253">
<ele>433.2</ele>
<time>2012-03-24T15:37:32.000Z</time>
</trkpt>
<trkpt lat="43.54602" lon="5.50242">
<ele>433.1</ele>
<time>2012-03-24T15:37:33.000Z</time>
</trkpt>
<trkpt lat="43.54601" lon="5.50231">
<ele>433.1</ele>
<time>2012-03-24T15:37:34.000Z</time>
</trkpt>
<trkpt lat="43.54598" lon="5.50222">
<ele>433</ele>
<time>2012-03-24T15:37:35.000Z</time>
</trkpt>
<trkpt lat="43.54597" lon="5.50211">
<ele>432.3</ele>
<time>2012-03-24T15:37:36.000Z</time>
</trkpt>
<trkpt lat="43.54596" lon="5.502">
<ele>431.3</ele>
<time>2012-03-24T15:37:37.000Z</time>
</trkpt>
<trkpt lat="43.54593" lon="5.50192">
<ele>430.7</ele>
<time>2012-03-24T15:37:38.000Z</time>
</trkpt>
<trkpt lat="43.5459" lon="5.50182">
<ele>430</ele>
<time>2012-03-24T15:37:39.000Z</time>
</trkpt>
<trkpt lat="43.54588" lon="5.50171">
<ele>429.6</ele>
<time>2012-03-24T15:37:40.000Z</time>
</trkpt>
<trkpt lat="43.54586" lon="5.50163">
<ele>429.6</ele>
<time>2012-03-24T15:37:41.000Z</time>
</trkpt>
<trkpt lat="43.54584" lon="5.50154">
<ele>429.1</ele>
<time>2012-03-24T15:37:42.000Z</time>
</trkpt>
<trkpt lat="43.54582" lon="5.50144">
<ele>428.5</ele>
<time>2012-03-24T15:37:43.000Z</time>
</trkpt>
<trkpt lat="43.5458" lon="5.50134">
<ele>427.8</ele>
<time>2012-03-24T15:37:44.000Z</time>
</trkpt>
<trkpt lat="43.54578" lon="5.50125">
<ele>427.9</ele>
<time>2012-03-24T15:37:45.000Z</time>
</trkpt>
<trkpt lat="43.54576" lon="5.50114">
<ele>427.8</ele>
<time>2012-03-24T15:37:46.000Z</time>
</trkpt>
<trkpt lat="43.54574" lon="5.50104">
<ele>427.8</ele>
<time>2012-03-24T15:37:47.000Z</time>
</trkpt>
<trkpt lat="43.54569" lon="5.50094">
<ele>427.7</ele>
<time>2012-03-24T15:37:48.000Z</time>
</trkpt>
<trkpt lat="43.54568" lon="5.50083">
<ele>426.9</ele>
<time>2012-03-24T15:37:49.000Z</time>
</trkpt>
<trkpt lat="43.54566" lon="5.50072">
<ele>425.9</ele>
<time>2012-03-24T15:37:50.000Z</time>
</trkpt>
<trkpt lat="43.54564" lon="5.5006">
<ele>425.6</ele>
<time>2012-03-24T15:37:51.000Z</time>
</trkpt>
<trkpt lat="43.54562" lon="5.5005">
<ele>425.7</ele>
<time>2012-03-24T15:37:52.000Z</time>
</trkpt>
<trkpt lat="43.5456" lon="5.50039">
<ele>426</ele>
<time>2012-03-24T15:37:53.000Z</time>
</trkpt>
<trkpt lat="43.54556" lon="5.50028">
<ele>425.7</ele>
<time>2012-03-24T15:37:54.000Z</time>
</trkpt>
<trkpt lat="43.54552" lon="5.5002">
<ele>425.6</ele>
<time>2012-03-24T15:37:55.000Z</time>
</trkpt>
<trkpt lat="43.54548" lon="5.50012">
<ele>425.7</ele>
<time>2012-03-24T15:37:56.000Z</time>
</trkpt>
<trkpt lat="43.54546" lon="5.50003">
<ele>426.5</ele>
<time>2012-03-24T15:37:57.000Z</time>
</trkpt>
<trkpt lat="43.54538" lon="5.49995">
<ele>426.9</ele>
<time>2012-03-24T15:37:58.000Z</time>
</trkpt>
<trkpt lat="43.54528" lon="5.4999">
<ele>428.1</ele>
<time>2012-03-24T15:37:59.000Z</time>
</trkpt>
<trkpt lat="43.54526" lon="5.4998">
<ele>429.5</ele>
<time>2012-03-24T15:38:00.000Z</time>
</trkpt>
<trkpt lat="43.54524" lon="5.49969">
<ele>429.9</ele>
<time>2012-03-24T15:38:01.000Z</time>
</trkpt>
<trkpt lat="43.54526" lon="5.49952">
<ele>430</ele>
<time>2012-03-24T15:38:02.000Z</time>
</trkpt>
<trkpt lat="43.54525" lon="5.49939">
<ele>429.8</ele>
<time>2012-03-24T15:38:03.000Z</time>
</trkpt>
<trkpt lat="43.54519" lon="5.49937">
<ele>428.1</ele>
<time>2012-03-24T15:38:04.000Z</time>
</trkpt>
<trkpt lat="43.54514" lon="5.4992">
<ele>428</ele>
<time>2012-03-24T15:38:05.000Z</time>
</trkpt>
<trkpt lat="43.54511" lon="5.49905">
<ele>428.4</ele>
<time>2012-03-24T15:38:06.000Z</time>
</trkpt>
<trkpt lat="43.54505" lon="5.49898">
<ele>427.4</ele>
<time>2012-03-24T15:38:08.000Z</time>
</trkpt>
<trkpt lat="43.54499" lon="5.499">
<ele>427.5</ele>
<time>2012-03-24T15:38:09.000Z</time>
</trkpt>
<trkpt lat="43.54496" lon="5.49894">
<ele>427.7</ele>
<time>2012-03-24T15:38:10.000Z</time>
</trkpt>
<trkpt lat="43.54492" lon="5.49886">
<ele>428</ele>
<time>2012-03-24T15:38:12.000Z</time>
</trkpt>
<trkpt lat="43.54491" lon="5.49873">
<ele>428.1</ele>
<time>2012-03-24T15:38:14.000Z</time>
</trkpt>
<trkpt lat="43.5449" lon="5.49862">
<ele>427.7</ele>
<time>2012-03-24T15:38:16.000Z</time>
</trkpt>
<trkpt lat="43.54488" lon="5.49852">
<ele>427.7</ele>
<time>2012-03-24T15:38:18.000Z</time>
</trkpt>
<trkpt lat="43.5449" lon="5.49846">
<ele>427.4</ele>
<time>2012-03-24T15:38:20.000Z</time>
</trkpt>
<trkpt lat="43.54492" lon="5.49837">
<ele>426.5</ele>
<time>2012-03-24T15:38:22.000Z</time>
</trkpt>
<trkpt lat="43.54496" lon="5.49829">
<ele>426.5</ele>
<time>2012-03-24T15:38:24.000Z</time>
</trkpt>
<trkpt lat="43.54498" lon="5.4982">
<ele>426.5</ele>
<time>2012-03-24T15:38:26.000Z</time>
</trkpt>
<trkpt lat="43.545" lon="5.49812">
<ele>427.5</ele>
<time>2012-03-24T15:38:28.000Z</time>
</trkpt>
<trkpt lat="43.54503" lon="5.49804">
<ele>427.6</ele>
<time>2012-03-24T15:38:30.000Z</time>
</trkpt>
<trkpt lat="43.54507" lon="5.49797">
<ele>427.6</ele>
<time>2012-03-24T15:38:32.000Z</time>
</trkpt>
<trkpt lat="43.54511" lon="5.49792">
<ele>427.6</ele>
<time>2012-03-24T15:38:33.000Z</time>
</trkpt>
<trkpt lat="43.54514" lon="5.49785">
<ele>427.9</ele>
<time>2012-03-24T15:38:35.000Z</time>
</trkpt>
<trkpt lat="43.54518" lon="5.4978">
<ele>427.9</ele>
<time>2012-03-24T15:38:36.000Z</time>
</trkpt>
<trkpt lat="43.54521" lon="5.49774">
<ele>428.3</ele>
<time>2012-03-24T15:38:38.000Z</time>
</trkpt>
<trkpt lat="43.54525" lon="5.49766">
<ele>429.1</ele>
<time>2012-03-24T15:38:40.000Z</time>
</trkpt>
<trkpt lat="43.54528" lon="5.4976">
<ele>428.9</ele>
<time>2012-03-24T15:38:42.000Z</time>
</trkpt>
<trkpt lat="43.54532" lon="5.49755">
<ele>428.8</ele>
<time>2012-03-24T15:38:43.000Z</time>
</trkpt>
<trkpt lat="43.54538" lon="5.49748">
<ele>429</ele>
<time>2012-03-24T15:38:45.000Z</time>
</trkpt>
<trkpt lat="43.54542" lon="5.49744">
<ele>429.1</ele>
<time>2012-03-24T15:38:46.000Z</time>
</trkpt>
<trkpt lat="43.54547" lon="5.49738">
<ele>429</ele>
<time>2012-03-24T15:38:48.000Z</time>
</trkpt>
<trkpt lat="43.54552" lon="5.49735">
<ele>428.9</ele>
<time>2012-03-24T15:38:49.000Z</time>
</trkpt>
<trkpt lat="43.54556" lon="5.49728">
<ele>429.4</ele>
<time>2012-03-24T15:38:51.000Z</time>
</trkpt>
<trkpt lat="43.54562" lon="5.4972">
<ele>429.3</ele>
<time>2012-03-24T15:38:53.000Z</time>
</trkpt>
<trkpt lat="43.54567" lon="5.49713">
<ele>429.2</ele>
<time>2012-03-24T15:38:55.000Z</time>
</trkpt>
<trkpt lat="43.54571" lon="5.49707">
<ele>429.3</ele>
<time>2012-03-24T15:38:57.000Z</time>
</trkpt>
<trkpt lat="43.54577" lon="5.497">
<ele>428.2</ele>
<time>2012-03-24T15:38:59.000Z</time>
</trkpt>
<trkpt lat="43.54582" lon="5.49692">
<ele>427.9</ele>
<time>2012-03-24T15:39:01.000Z</time>
</trkpt>
<trkpt lat="43.54587" lon="5.49684">
<ele>428.3</ele>
<time>2012-03-24T15:39:03.000Z</time>
</trkpt>
<trkpt lat="43.54592" lon="5.49677">
<ele>428.6</ele>
<time>2012-03-24T15:39:05.000Z</time>
</trkpt>
<trkpt lat="43.54596" lon="5.49673">
<ele>428.9</ele>
<time>2012-03-24T15:39:06.000Z</time>
</trkpt>
<trkpt lat="43.546" lon="5.49664">
<ele>429.3</ele>
<time>2012-03-24T15:39:08.000Z</time>
</trkpt>
<trkpt lat="43.54601" lon="5.49657">
<ele>430.5</ele>
<time>2012-03-24T15:39:10.000Z</time>
</trkpt>
<trkpt lat="43.54605" lon="5.49654">
<ele>430.2</ele>
<time>2012-03-24T15:39:11.000Z</time>
</trkpt>
<trkpt lat="43.5461" lon="5.49646">
<ele>429.7</ele>
<time>2012-03-24T15:39:13.000Z</time>
</trkpt>
<trkpt lat="43.54611" lon="5.49639">
<ele>430.3</ele>
<time>2012-03-24T15:39:15.000Z</time>
</trkpt>
<trkpt lat="43.54616" lon="5.49631">
<ele>429.6</ele>
<time>2012-03-24T15:39:17.000Z</time>
</trkpt>
<trkpt lat="43.54619" lon="5.49622">
<ele>430.4</ele>
<time>2012-03-24T15:39:19.000Z</time>
</trkpt>
<trkpt lat="43.54625" lon="5.49611">
<ele>431.2</ele>
<time>2012-03-24T15:39:21.000Z</time>
</trkpt>
<trkpt lat="43.54628" lon="5.49603">
<ele>431.7</ele>
<time>2012-03-24T15:39:23.000Z</time>
</trkpt>
<trkpt lat="43.54634" lon="5.49595">
<ele>431.4</ele>
<time>2012-03-24T15:39:25.000Z</time>
</trkpt>
<trkpt lat="43.54638" lon="5.49586">
<ele>432.6</ele>
<time>2012-03-24T15:39:27.000Z</time>
</trkpt>
<trkpt lat="43.54642" lon="5.49579">
<ele>433.2</ele>
<time>2012-03-24T15:39:29.000Z</time>
</trkpt>
<trkpt lat="43.54647" lon="5.4957">
<ele>433.3</ele>
<time>2012-03-24T15:39:31.000Z</time>
</trkpt>
<trkpt lat="43.54651" lon="5.49563">
<ele>433.3</ele>
<time>2012-03-24T15:39:33.000Z</time>
</trkpt>
<trkpt lat="43.54654" lon="5.49558">
<ele>433.6</ele>
<time>2012-03-24T15:39:34.000Z</time>
</trkpt>
<trkpt lat="43.54659" lon="5.49548">
<ele>434.1</ele>
<time>2012-03-24T15:39:36.000Z</time>
</trkpt>
<trkpt lat="43.54662" lon="5.49544">
<ele>434</ele>
<time>2012-03-24T15:39:37.000Z</time>
</trkpt>
<trkpt lat="43.54666" lon="5.49535">
<ele>434.6</ele>
<time>2012-03-24T15:39:39.000Z</time>
</trkpt>
<trkpt lat="43.5467" lon="5.4953">
<ele>434.8</ele>
<time>2012-03-24T15:39:40.000Z</time>
</trkpt>
<trkpt lat="43.54674" lon="5.4952">
<ele>435.1</ele>
<time>2012-03-24T15:39:42.000Z</time>
</trkpt>
<trkpt lat="43.54678" lon="5.49514">
<ele>435.6</ele>
<time>2012-03-24T15:39:43.000Z</time>
</trkpt>
<trkpt lat="43.54684" lon="5.49504">
<ele>435.7</ele>
<time>2012-03-24T15:39:45.000Z</time>
</trkpt>
<trkpt lat="43.54689" lon="5.49495">
<ele>435.5</ele>
<time>2012-03-24T15:39:47.000Z</time>
</trkpt>
<trkpt lat="43.54693" lon="5.4949">
<ele>435.2</ele>
<time>2012-03-24T15:39:48.000Z</time>
</trkpt>
<trkpt lat="43.54698" lon="5.49482">
<ele>435.6</ele>
<time>2012-03-24T15:39:50.000Z</time>
</trkpt>
<trkpt lat="43.54701" lon="5.49474">
<ele>435.4</ele>
<time>2012-03-24T15:39:52.000Z</time>
</trkpt>
<trkpt lat="43.54704" lon="5.49468">
<ele>436.6</ele>
<time>2012-03-24T15:39:54.000Z</time>
</trkpt>
<trkpt lat="43.54707" lon="5.49461">
<ele>436.4</ele>
<time>2012-03-24T15:39:56.000Z</time>
</trkpt>
<trkpt lat="43.5471" lon="5.49457">
<ele>436.9</ele>
<time>2012-03-24T15:39:57.000Z</time>
</trkpt>
<trkpt lat="43.54713" lon="5.49449">
<ele>437.8</ele>
<time>2012-03-24T15:39:59.000Z</time>
</trkpt>
<trkpt lat="43.54717" lon="5.49442">
<ele>438.5</ele>
<time>2012-03-24T15:40:01.000Z</time>
</trkpt>
<trkpt lat="43.54719" lon="5.49433">
<ele>438.4</ele>
<time>2012-03-24T15:40:03.000Z</time>
</trkpt>
<trkpt lat="43.54721" lon="5.49423">
<ele>439.5</ele>
<time>2012-03-24T15:40:05.000Z</time>
</trkpt>
<trkpt lat="43.54721" lon="5.49416">
<ele>440.2</ele>
<time>2012-03-24T15:40:07.000Z</time>
</trkpt>
<trkpt lat="43.54722" lon="5.49409">
<ele>440.9</ele>
<time>2012-03-24T15:40:09.000Z</time>
</trkpt>
<trkpt lat="43.54725" lon="5.49403">
<ele>441.8</ele>
<time>2012-03-24T15:40:11.000Z</time>
</trkpt>
<trkpt lat="43.54726" lon="5.49396">
<ele>441.7</ele>
<time>2012-03-24T15:40:13.000Z</time>
</trkpt>
<trkpt lat="43.5473" lon="5.49386">
<ele>442.6</ele>
<time>2012-03-24T15:40:15.000Z</time>
</trkpt>
<trkpt lat="43.5473" lon="5.49376">
<ele>443.8</ele>
<time>2012-03-24T15:40:17.000Z</time>
</trkpt>
<trkpt lat="43.54733" lon="5.4937">
<ele>444.4</ele>
<time>2012-03-24T15:40:18.000Z</time>
</trkpt>
<trkpt lat="43.54735" lon="5.49364">
<ele>444.7</ele>
<time>2012-03-24T15:40:19.000Z</time>
</trkpt>
<trkpt lat="43.54734" lon="5.49352">
<ele>445.4</ele>
<time>2012-03-24T15:40:21.000Z</time>
</trkpt>
<trkpt lat="43.54733" lon="5.49346">
<ele>445.6</ele>
<time>2012-03-24T15:40:22.000Z</time>
</trkpt>
<trkpt lat="43.54732" lon="5.49338">
<ele>445.7</ele>
<time>2012-03-24T15:40:23.000Z</time>
</trkpt>
<trkpt lat="43.54732" lon="5.49331">
<ele>446</ele>
<time>2012-03-24T15:40:24.000Z</time>
</trkpt>
<trkpt lat="43.54731" lon="5.49322">
<ele>446.1</ele>
<time>2012-03-24T15:40:25.000Z</time>
</trkpt>
<trkpt lat="43.5473" lon="5.49313">
<ele>445.7</ele>
<time>2012-03-24T15:40:26.000Z</time>
</trkpt>
<trkpt lat="43.54728" lon="5.49304">
<ele>445.7</ele>
<time>2012-03-24T15:40:27.000Z</time>
</trkpt>
<trkpt lat="43.54728" lon="5.49294">
<ele>445.6</ele>
<time>2012-03-24T15:40:28.000Z</time>
</trkpt>
<trkpt lat="43.54727" lon="5.49284">
<ele>445.3</ele>
<time>2012-03-24T15:40:29.000Z</time>
</trkpt>
<trkpt lat="43.54725" lon="5.49276">
<ele>445.9</ele>
<time>2012-03-24T15:40:30.000Z</time>
</trkpt>
<trkpt lat="43.54722" lon="5.49271">
<ele>446</ele>
<time>2012-03-24T15:40:31.000Z</time>
</trkpt>
<trkpt lat="43.54713" lon="5.4926">
<ele>445.2</ele>
<time>2012-03-24T15:40:32.000Z</time>
</trkpt>
<trkpt lat="43.54712" lon="5.49252">
<ele>445.7</ele>
<time>2012-03-24T15:40:33.000Z</time>
</trkpt>
<trkpt lat="43.54706" lon="5.49247">
<ele>445.7</ele>
<time>2012-03-24T15:40:34.000Z</time>
</trkpt>
<trkpt lat="43.54699" lon="5.4924">
<ele>446.5</ele>
<time>2012-03-24T15:40:35.000Z</time>
</trkpt>
<trkpt lat="43.54688" lon="5.4923">
<ele>446.8</ele>
<time>2012-03-24T15:40:36.000Z</time>
</trkpt>
<trkpt lat="43.54675" lon="5.49212">
<ele>446.9</ele>
<time>2012-03-24T15:40:37.000Z</time>
</trkpt>
<trkpt lat="43.54675" lon="5.4919">
<ele>447.9</ele>
<time>2012-03-24T15:40:38.000Z</time>
</trkpt>
<trkpt lat="43.54672" lon="5.492">
<ele>447.5</ele>
<time>2012-03-24T15:40:39.000Z</time>
</trkpt>
<trkpt lat="43.54674" lon="5.49188">
<ele>447.2</ele>
<time>2012-03-24T15:40:40.000Z</time>
</trkpt>
<trkpt lat="43.54679" lon="5.49177">
<ele>446.4</ele>
<time>2012-03-24T15:40:42.000Z</time>
</trkpt>
<trkpt lat="43.5468" lon="5.4917">
<ele>446.6</ele>
<time>2012-03-24T15:40:43.000Z</time>
</trkpt>
<trkpt lat="43.5468" lon="5.49161">
<ele>447.3</ele>
<time>2012-03-24T15:40:44.000Z</time>
</trkpt>
<trkpt lat="43.54675" lon="5.49159">
<ele>447.5</ele>
<time>2012-03-24T15:40:45.000Z</time>
</trkpt>
<trkpt lat="43.5467" lon="5.49154">
<ele>448.5</ele>
<time>2012-03-24T15:40:46.000Z</time>
</trkpt>
<trkpt lat="43.54666" lon="5.49146">
<ele>449</ele>
<time>2012-03-24T15:40:48.000Z</time>
</trkpt>
<trkpt lat="43.54662" lon="5.49141">
<ele>448.5</ele>
<time>2012-03-24T15:40:49.000Z</time>
</trkpt>
<trkpt lat="43.54655" lon="5.49133">
<ele>449.3</ele>
<time>2012-03-24T15:40:51.000Z</time>
</trkpt>
<trkpt lat="43.54656" lon="5.49118">
<ele>450.5</ele>
<time>2012-03-24T15:40:54.000Z</time>
</trkpt>
<trkpt lat="43.54658" lon="5.49085">
<ele>450.2</ele>
<time>2012-03-24T15:40:55.000Z</time>
</trkpt>
<trkpt lat="43.54652" lon="5.49071">
<ele>449.3</ele>
<time>2012-03-24T15:40:56.000Z</time>
</trkpt>
<trkpt lat="43.54641" lon="5.49079">
<ele>449.2</ele>
<time>2012-03-24T15:40:57.000Z</time>
</trkpt>
<trkpt lat="43.54635" lon="5.49075">
<ele>449.2</ele>
<time>2012-03-24T15:40:58.000Z</time>
</trkpt>
<trkpt lat="43.5463" lon="5.49072">
<ele>449.8</ele>
<time>2012-03-24T15:40:59.000Z</time>
</trkpt>
<trkpt lat="43.54624" lon="5.4907">
<ele>449.2</ele>
<time>2012-03-24T15:41:00.000Z</time>
</trkpt>
<trkpt lat="43.5462" lon="5.49064">
<ele>448.8</ele>
<time>2012-03-24T15:41:01.000Z</time>
</trkpt>
<trkpt lat="43.54612" lon="5.49061">
<ele>448.4</ele>
<time>2012-03-24T15:41:02.000Z</time>
</trkpt>
<trkpt lat="43.54607" lon="5.49056">
<ele>448.4</ele>
<time>2012-03-24T15:41:03.000Z</time>
</trkpt>
<trkpt lat="43.54603" lon="5.49052">
<ele>447.5</ele>
<time>2012-03-24T15:41:04.000Z</time>
</trkpt>
<trkpt lat="43.54599" lon="5.49048">
<ele>446.6</ele>
<time>2012-03-24T15:41:05.000Z</time>
</trkpt>
<trkpt lat="43.54594" lon="5.49042">
<ele>446.5</ele>
<time>2012-03-24T15:41:06.000Z</time>
</trkpt>
<trkpt lat="43.54588" lon="5.49038">
<ele>446</ele>
<time>2012-03-24T15:41:07.000Z</time>
</trkpt>
<trkpt lat="43.54583" lon="5.49034">
<ele>445.7</ele>
<time>2012-03-24T15:41:08.000Z</time>
</trkpt>
<trkpt lat="43.54578" lon="5.4903">
<ele>445.5</ele>
<time>2012-03-24T15:41:09.000Z</time>
</trkpt>
<trkpt lat="43.54573" lon="5.49026">
<ele>445.1</ele>
<time>2012-03-24T15:41:10.000Z</time>
</trkpt>
<trkpt lat="43.54565" lon="5.49022">
<ele>444.9</ele>
<time>2012-03-24T15:41:11.000Z</time>
</trkpt>
<trkpt lat="43.5456" lon="5.49019">
<ele>444.4</ele>
<time>2012-03-24T15:41:12.000Z</time>
</trkpt>
<trkpt lat="43.54553" lon="5.49015">
<ele>444.3</ele>
<time>2012-03-24T15:41:13.000Z</time>
</trkpt>
<trkpt lat="43.54547" lon="5.49012">
<ele>443.5</ele>
<time>2012-03-24T15:41:14.000Z</time>
</trkpt>
<trkpt lat="43.54541" lon="5.49011">
<ele>443.3</ele>
<time>2012-03-24T15:41:15.000Z</time>
</trkpt>
<trkpt lat="43.54539" lon="5.49005">
<ele>443.7</ele>
<time>2012-03-24T15:41:16.000Z</time>
</trkpt>
<trkpt lat="43.54535" lon="5.49001">
<ele>442.8</ele>
<time>2012-03-24T15:41:17.000Z</time>
</trkpt>
<trkpt lat="43.54534" lon="5.48995">
<ele>442.4</ele>
<time>2012-03-24T15:41:18.000Z</time>
</trkpt>
<trkpt lat="43.54532" lon="5.48986">
<ele>441.1</ele>
<time>2012-03-24T15:41:20.000Z</time>
</trkpt>
<trkpt lat="43.54531" lon="5.48979">
<ele>440.4</ele>
<time>2012-03-24T15:41:21.000Z</time>
</trkpt>
<trkpt lat="43.54532" lon="5.48964">
<ele>439.1</ele>
<time>2012-03-24T15:41:23.000Z</time>
</trkpt>
<trkpt lat="43.54534" lon="5.48955">
<ele>438.8</ele>
<time>2012-03-24T15:41:24.000Z</time>
</trkpt>
<trkpt lat="43.54534" lon="5.48944">
<ele>438.7</ele>
<time>2012-03-24T15:41:25.000Z</time>
</trkpt>
<trkpt lat="43.54537" lon="5.48937">
<ele>438.3</ele>
<time>2012-03-24T15:41:26.000Z</time>
</trkpt>
<trkpt lat="43.5454" lon="5.48928">
<ele>438.2</ele>
<time>2012-03-24T15:41:27.000Z</time>
</trkpt>
<trkpt lat="43.5454" lon="5.4892">
<ele>437.8</ele>
<time>2012-03-24T15:41:28.000Z</time>
</trkpt>
<trkpt lat="43.5454" lon="5.48912">
<ele>437.5</ele>
<time>2012-03-24T15:41:29.000Z</time>
</trkpt>
<trkpt lat="43.5454" lon="5.48903">
<ele>437.3</ele>
<time>2012-03-24T15:41:30.000Z</time>
</trkpt>
<trkpt lat="43.54541" lon="5.48894">
<ele>437.1</ele>
<time>2012-03-24T15:41:31.000Z</time>
</trkpt>
<trkpt lat="43.54541" lon="5.48886">
<ele>436.7</ele>
<time>2012-03-24T15:41:32.000Z</time>
</trkpt>
<trkpt lat="43.54542" lon="5.48877">
<ele>436.9</ele>
<time>2012-03-24T15:41:33.000Z</time>
</trkpt>
<trkpt lat="43.54543" lon="5.4887">
<ele>436.9</ele>
<time>2012-03-24T15:41:34.000Z</time>
</trkpt>
<trkpt lat="43.54544" lon="5.48863">
<ele>437</ele>
<time>2012-03-24T15:41:35.000Z</time>
</trkpt>
<trkpt lat="43.54549" lon="5.48852">
<ele>436.8</ele>
<time>2012-03-24T15:41:37.000Z</time>
</trkpt>
<trkpt lat="43.5454" lon="5.48853">
<ele>434.1</ele>
<time>2012-03-24T15:41:39.000Z</time>
</trkpt>
<trkpt lat="43.54542" lon="5.48846">
<ele>433.8</ele>
<time>2012-03-24T15:41:40.000Z</time>
</trkpt>
<trkpt lat="43.54542" lon="5.48836">
<ele>433.9</ele>
<time>2012-03-24T15:41:41.000Z</time>
</trkpt>
<trkpt lat="43.54542" lon="5.48824">
<ele>433.2</ele>
<time>2012-03-24T15:41:42.000Z</time>
</trkpt>
<trkpt lat="43.54536" lon="5.48809">
<ele>432.3</ele>
<time>2012-03-24T15:41:43.000Z</time>
</trkpt>
<trkpt lat="43.54535" lon="5.488">
<ele>432</ele>
<time>2012-03-24T15:41:44.000Z</time>
</trkpt>
<trkpt lat="43.54534" lon="5.48794">
<ele>432.3</ele>
<time>2012-03-24T15:41:45.000Z</time>
</trkpt>
<trkpt lat="43.54531" lon="5.48788">
<ele>431.5</ele>
<time>2012-03-24T15:41:47.000Z</time>
</trkpt>
<trkpt lat="43.54529" lon="5.48781">
<ele>431.4</ele>
<time>2012-03-24T15:41:48.000Z</time>
</trkpt>
<trkpt lat="43.54525" lon="5.48775">
<ele>431.5</ele>
<time>2012-03-24T15:41:49.000Z</time>
</trkpt>
<trkpt lat="43.54522" lon="5.4877">
<ele>431.6</ele>
<time>2012-03-24T15:41:50.000Z</time>
</trkpt>
<trkpt lat="43.54517" lon="5.48759">
<ele>432.4</ele>
<time>2012-03-24T15:41:52.000Z</time>
</trkpt>
<trkpt lat="43.54509" lon="5.48752">
<ele>432.3</ele>
<time>2012-03-24T15:41:53.000Z</time>
</trkpt>
<trkpt lat="43.54505" lon="5.48747">
<ele>432.8</ele>
<time>2012-03-24T15:41:54.000Z</time>
</trkpt>
<trkpt lat="43.545" lon="5.4874">
<ele>433</ele>
<time>2012-03-24T15:41:55.000Z</time>
</trkpt>
<trkpt lat="43.545" lon="5.48732">
<ele>432.7</ele>
<time>2012-03-24T15:41:56.000Z</time>
</trkpt>
<trkpt lat="43.545" lon="5.48723">
<ele>432.6</ele>
<time>2012-03-24T15:41:57.000Z</time>
</trkpt>
<trkpt lat="43.54492" lon="5.48719">
<ele>431.7</ele>
<time>2012-03-24T15:41:58.000Z</time>
</trkpt>
<trkpt lat="43.54492" lon="5.48712">
<ele>430.2</ele>
<time>2012-03-24T15:41:59.000Z</time>
</trkpt>
<trkpt lat="43.5449" lon="5.48704">
<ele>430.1</ele>
<time>2012-03-24T15:42:00.000Z</time>
</trkpt>
<trkpt lat="43.54484" lon="5.48695">
<ele>429</ele>
<time>2012-03-24T15:42:02.000Z</time>
</trkpt>
<trkpt lat="43.54475" lon="5.48689">
<ele>428.8</ele>
<time>2012-03-24T15:42:04.000Z</time>
</trkpt>
<trkpt lat="43.5447" lon="5.48691">
<ele>429</ele>
<time>2012-03-24T15:42:05.000Z</time>
</trkpt>
<trkpt lat="43.54464" lon="5.48693">
<ele>428.8</ele>
<time>2012-03-24T15:42:06.000Z</time>
</trkpt>
<trkpt lat="43.54458" lon="5.48697">
<ele>428.9</ele>
<time>2012-03-24T15:42:08.000Z</time>
</trkpt>
<trkpt lat="43.54454" lon="5.48701">
<ele>429</ele>
<time>2012-03-24T15:42:09.000Z</time>
</trkpt>
<trkpt lat="43.54446" lon="5.48705">
<ele>428.8</ele>
<time>2012-03-24T15:42:11.000Z</time>
</trkpt>
<trkpt lat="43.54439" lon="5.48708">
<ele>428.3</ele>
<time>2012-03-24T15:42:14.000Z</time>
</trkpt>
<trkpt lat="43.54435" lon="5.48707">
<ele>427.9</ele>
<time>2012-03-24T15:42:15.000Z</time>
</trkpt>
<trkpt lat="43.54426" lon="5.48705">
<ele>426.8</ele>
<time>2012-03-24T15:42:16.000Z</time>
</trkpt>
<trkpt lat="43.5442" lon="5.48699">
<ele>426</ele>
<time>2012-03-24T15:42:17.000Z</time>
</trkpt>
<trkpt lat="43.54416" lon="5.48691">
<ele>425</ele>
<time>2012-03-24T15:42:18.000Z</time>
</trkpt>
<trkpt lat="43.54411" lon="5.48682">
<ele>424.5</ele>
<time>2012-03-24T15:42:19.000Z</time>
</trkpt>
<trkpt lat="43.54407" lon="5.48673">
<ele>423.8</ele>
<time>2012-03-24T15:42:20.000Z</time>
</trkpt>
<trkpt lat="43.54403" lon="5.48666">
<ele>423.4</ele>
<time>2012-03-24T15:42:21.000Z</time>
</trkpt>
<trkpt lat="43.54398" lon="5.48662">
<ele>422.9</ele>
<time>2012-03-24T15:42:22.000Z</time>
</trkpt>
<trkpt lat="43.54394" lon="5.48656">
<ele>422.3</ele>
<time>2012-03-24T15:42:23.000Z</time>
</trkpt>
<trkpt lat="43.54389" lon="5.48651">
<ele>422.4</ele>
<time>2012-03-24T15:42:24.000Z</time>
</trkpt>
<trkpt lat="43.54386" lon="5.48643">
<ele>421.8</ele>
<time>2012-03-24T15:42:25.000Z</time>
</trkpt>
<trkpt lat="43.54386" lon="5.48633">
<ele>421</ele>
<time>2012-03-24T15:42:26.000Z</time>
</trkpt>
<trkpt lat="43.54386" lon="5.48624">
<ele>420.5</ele>
<time>2012-03-24T15:42:27.000Z</time>
</trkpt>
<trkpt lat="43.54387" lon="5.48613">
<ele>418.9</ele>
<time>2012-03-24T15:42:28.000Z</time>
</trkpt>
<trkpt lat="43.54389" lon="5.48606">
<ele>418.8</ele>
<time>2012-03-24T15:42:29.000Z</time>
</trkpt>
<trkpt lat="43.54397" lon="5.48596">
<ele>418.4</ele>
<time>2012-03-24T15:42:30.000Z</time>
</trkpt>
<trkpt lat="43.54402" lon="5.4859">
<ele>418</ele>
<time>2012-03-24T15:42:31.000Z</time>
</trkpt>
<trkpt lat="43.54409" lon="5.48584">
<ele>417.9</ele>
<time>2012-03-24T15:42:32.000Z</time>
</trkpt>
<trkpt lat="43.54414" lon="5.48579">
<ele>417.3</ele>
<time>2012-03-24T15:42:33.000Z</time>
</trkpt>
<trkpt lat="43.54421" lon="5.48575">
<ele>417.4</ele>
<time>2012-03-24T15:42:34.000Z</time>
</trkpt>
<trkpt lat="43.54429" lon="5.48568">
<ele>416.9</ele>
<time>2012-03-24T15:42:35.000Z</time>
</trkpt>
<trkpt lat="43.54437" lon="5.48562">
<ele>416.5</ele>
<time>2012-03-24T15:42:36.000Z</time>
</trkpt>
<trkpt lat="43.54444" lon="5.48559">
<ele>416.5</ele>
<time>2012-03-24T15:42:37.000Z</time>
</trkpt>
<trkpt lat="43.54451" lon="5.48553">
<ele>416.2</ele>
<time>2012-03-24T15:42:38.000Z</time>
</trkpt>
<trkpt lat="43.54458" lon="5.48549">
<ele>416.2</ele>
<time>2012-03-24T15:42:39.000Z</time>
</trkpt>
<trkpt lat="43.54466" lon="5.48547">
<ele>416.5</ele>
<time>2012-03-24T15:42:40.000Z</time>
</trkpt>
<trkpt lat="43.54472" lon="5.48541">
<ele>415.9</ele>
<time>2012-03-24T15:42:41.000Z</time>
</trkpt>
<trkpt lat="43.54478" lon="5.48536">
<ele>415.3</ele>
<time>2012-03-24T15:42:42.000Z</time>
</trkpt>
<trkpt lat="43.54484" lon="5.48528">
<ele>414.1</ele>
<time>2012-03-24T15:42:43.000Z</time>
</trkpt>
<trkpt lat="43.54487" lon="5.48522">
<ele>413.8</ele>
<time>2012-03-24T15:42:44.000Z</time>
</trkpt>
<trkpt lat="43.54486" lon="5.4851">
<ele>413.4</ele>
<time>2012-03-24T15:42:46.000Z</time>
</trkpt>
<trkpt lat="43.54484" lon="5.48503">
<ele>413.2</ele>
<time>2012-03-24T15:42:47.000Z</time>
</trkpt>
<trkpt lat="43.54479" lon="5.48496">
<ele>412.9</ele>
<time>2012-03-24T15:42:48.000Z</time>
</trkpt>
<trkpt lat="43.54473" lon="5.48492">
<ele>412.3</ele>
<time>2012-03-24T15:42:49.000Z</time>
</trkpt>
<trkpt lat="43.5447" lon="5.48486">
<ele>411.6</ele>
<time>2012-03-24T15:42:51.000Z</time>
</trkpt>
<trkpt lat="43.5446" lon="5.4848">
<ele>410.9</ele>
<time>2012-03-24T15:42:52.000Z</time>
</trkpt>
<trkpt lat="43.5445" lon="5.48473">
<ele>410.4</ele>
<time>2012-03-24T15:42:53.000Z</time>
</trkpt>
<trkpt lat="43.54446" lon="5.48464">
<ele>410.1</ele>
<time>2012-03-24T15:42:54.000Z</time>
</trkpt>
<trkpt lat="43.54443" lon="5.48455">
<ele>409.8</ele>
<time>2012-03-24T15:42:55.000Z</time>
</trkpt>
<trkpt lat="43.54439" lon="5.48444">
<ele>409.3</ele>
<time>2012-03-24T15:42:56.000Z</time>
</trkpt>
<trkpt lat="43.54435" lon="5.48431">
<ele>409</ele>
<time>2012-03-24T15:42:57.000Z</time>
</trkpt>
<trkpt lat="43.54434" lon="5.48418">
<ele>409</ele>
<time>2012-03-24T15:42:58.000Z</time>
</trkpt>
<trkpt lat="43.54431" lon="5.48406">
<ele>408.4</ele>
<time>2012-03-24T15:42:59.000Z</time>
</trkpt>
<trkpt lat="43.54428" lon="5.48394">
<ele>407.5</ele>
<time>2012-03-24T15:43:00.000Z</time>
</trkpt>
<trkpt lat="43.54423" lon="5.48385">
<ele>406.6</ele>
<time>2012-03-24T15:43:01.000Z</time>
</trkpt>
<trkpt lat="43.54421" lon="5.48374">
<ele>406.2</ele>
<time>2012-03-24T15:43:02.000Z</time>
</trkpt>
<trkpt lat="43.54418" lon="5.48361">
<ele>406</ele>
<time>2012-03-24T15:43:03.000Z</time>
</trkpt>
<trkpt lat="43.54419" lon="5.48347">
<ele>405.5</ele>
<time>2012-03-24T15:43:04.000Z</time>
</trkpt>
<trkpt lat="43.54417" lon="5.48336">
<ele>404.5</ele>
<time>2012-03-24T15:43:05.000Z</time>
</trkpt>
<trkpt lat="43.54412" lon="5.48326">
<ele>404.1</ele>
<time>2012-03-24T15:43:06.000Z</time>
</trkpt>
<trkpt lat="43.54408" lon="5.48316">
<ele>402.8</ele>
<time>2012-03-24T15:43:07.000Z</time>
</trkpt>
<trkpt lat="43.54405" lon="5.48304">
<ele>401.8</ele>
<time>2012-03-24T15:43:08.000Z</time>
</trkpt>
<trkpt lat="43.54404" lon="5.48293">
<ele>400.1</ele>
<time>2012-03-24T15:43:09.000Z</time>
</trkpt>
<trkpt lat="43.544" lon="5.48284">
<ele>399.3</ele>
<time>2012-03-24T15:43:10.000Z</time>
</trkpt>
<trkpt lat="43.54396" lon="5.48275">
<ele>398.2</ele>
<time>2012-03-24T15:43:11.000Z</time>
</trkpt>
<trkpt lat="43.54393" lon="5.48265">
<ele>397.5</ele>
<time>2012-03-24T15:43:12.000Z</time>
</trkpt>
<trkpt lat="43.54392" lon="5.48254">
<ele>396.3</ele>
<time>2012-03-24T15:43:13.000Z</time>
</trkpt>
<trkpt lat="43.5439" lon="5.48244">
<ele>396.1</ele>
<time>2012-03-24T15:43:14.000Z</time>
</trkpt>
<trkpt lat="43.5439" lon="5.48234">
<ele>395.7</ele>
<time>2012-03-24T15:43:15.000Z</time>
</trkpt>
<trkpt lat="43.54386" lon="5.48226">
<ele>395.1</ele>
<time>2012-03-24T15:43:16.000Z</time>
</trkpt>
<trkpt lat="43.54384" lon="5.4822">
<ele>394.8</ele>
<time>2012-03-24T15:43:17.000Z</time>
</trkpt>
<trkpt lat="43.54381" lon="5.48215">
<ele>394.3</ele>
<time>2012-03-24T15:43:18.000Z</time>
</trkpt>
<trkpt lat="43.54374" lon="5.4821">
<ele>392.7</ele>
<time>2012-03-24T15:43:20.000Z</time>
</trkpt>
<trkpt lat="43.54367" lon="5.48207">
<ele>392.2</ele>
<time>2012-03-24T15:43:21.000Z</time>
</trkpt>
<trkpt lat="43.54359" lon="5.48205">
<ele>391.9</ele>
<time>2012-03-24T15:43:22.000Z</time>
</trkpt>
<trkpt lat="43.54351" lon="5.48202">
<ele>391.2</ele>
<time>2012-03-24T15:43:23.000Z</time>
</trkpt>
<trkpt lat="43.54342" lon="5.48201">
<ele>390.7</ele>
<time>2012-03-24T15:43:24.000Z</time>
</trkpt>
<trkpt lat="43.54332" lon="5.482">
<ele>390.5</ele>
<time>2012-03-24T15:43:25.000Z</time>
</trkpt>
<trkpt lat="43.54323" lon="5.48198">
<ele>390.3</ele>
<time>2012-03-24T15:43:26.000Z</time>
</trkpt>
<trkpt lat="43.54313" lon="5.48194">
<ele>390.1</ele>
<time>2012-03-24T15:43:27.000Z</time>
</trkpt>
<trkpt lat="43.54303" lon="5.48192">
<ele>389.4</ele>
<time>2012-03-24T15:43:28.000Z</time>
</trkpt>
<trkpt lat="43.54296" lon="5.48187">
<ele>388.9</ele>
<time>2012-03-24T15:43:29.000Z</time>
</trkpt>
<trkpt lat="43.54289" lon="5.48182">
<ele>388.2</ele>
<time>2012-03-24T15:43:30.000Z</time>
</trkpt>
<trkpt lat="43.5428" lon="5.48177">
<ele>387.9</ele>
<time>2012-03-24T15:43:31.000Z</time>
</trkpt>
<trkpt lat="43.54272" lon="5.48173">
<ele>387.9</ele>
<time>2012-03-24T15:43:32.000Z</time>
</trkpt>
<trkpt lat="43.54265" lon="5.48168">
<ele>387.3</ele>
<time>2012-03-24T15:43:33.000Z</time>
</trkpt>
<trkpt lat="43.54259" lon="5.48162">
<ele>387.1</ele>
<time>2012-03-24T15:43:34.000Z</time>
</trkpt>
<trkpt lat="43.54256" lon="5.48154">
<ele>386.7</ele>
<time>2012-03-24T15:43:35.000Z</time>
</trkpt>
<trkpt lat="43.54253" lon="5.48146">
<ele>386.4</ele>
<time>2012-03-24T15:43:36.000Z</time>
</trkpt>
<trkpt lat="43.54255" lon="5.48138">
<ele>386.2</ele>
<time>2012-03-24T15:43:37.000Z</time>
</trkpt>
<trkpt lat="43.54254" lon="5.48129">
<ele>384.8</ele>
<time>2012-03-24T15:43:38.000Z</time>
</trkpt>
<trkpt lat="43.54246" lon="5.48123">
<ele>383.1</ele>
<time>2012-03-24T15:43:40.000Z</time>
</trkpt>
<trkpt lat="43.5424" lon="5.48119">
<ele>382.5</ele>
<time>2012-03-24T15:43:41.000Z</time>
</trkpt>
<trkpt lat="43.54236" lon="5.48113">
<ele>381.9</ele>
<time>2012-03-24T15:43:42.000Z</time>
</trkpt>
<trkpt lat="43.54231" lon="5.48106">
<ele>380.8</ele>
<time>2012-03-24T15:43:43.000Z</time>
</trkpt>
<trkpt lat="43.54225" lon="5.48102">
<ele>380.3</ele>
<time>2012-03-24T15:43:44.000Z</time>
</trkpt>
<trkpt lat="43.54218" lon="5.48096">
<ele>379.7</ele>
<time>2012-03-24T15:43:45.000Z</time>
</trkpt>
<trkpt lat="43.54211" lon="5.48091">
<ele>379.3</ele>
<time>2012-03-24T15:43:46.000Z</time>
</trkpt>
<trkpt lat="43.54203" lon="5.48088">
<ele>378.8</ele>
<time>2012-03-24T15:43:47.000Z</time>
</trkpt>
<trkpt lat="43.54197" lon="5.48083">
<ele>378.5</ele>
<time>2012-03-24T15:43:48.000Z</time>
</trkpt>
<trkpt lat="43.5419" lon="5.48078">
<ele>378</ele>
<time>2012-03-24T15:43:49.000Z</time>
</trkpt>
<trkpt lat="43.54184" lon="5.48072">
<ele>377.9</ele>
<time>2012-03-24T15:43:50.000Z</time>
</trkpt>
<trkpt lat="43.54179" lon="5.48066">
<ele>377.7</ele>
<time>2012-03-24T15:43:51.000Z</time>
</trkpt>
<trkpt lat="43.54173" lon="5.48059">
<ele>377.2</ele>
<time>2012-03-24T15:43:52.000Z</time>
</trkpt>
<trkpt lat="43.54169" lon="5.48051">
<ele>377</ele>
<time>2012-03-24T15:43:53.000Z</time>
</trkpt>
<trkpt lat="43.54164" lon="5.48043">
<ele>376.5</ele>
<time>2012-03-24T15:43:54.000Z</time>
</trkpt>
<trkpt lat="43.5416" lon="5.48035">
<ele>375.1</ele>
<time>2012-03-24T15:43:55.000Z</time>
</trkpt>
<trkpt lat="43.54154" lon="5.48028">
<ele>374.4</ele>
<time>2012-03-24T15:43:56.000Z</time>
</trkpt>
<trkpt lat="43.54148" lon="5.48021">
<ele>374.3</ele>
<time>2012-03-24T15:43:57.000Z</time>
</trkpt>
<trkpt lat="43.54143" lon="5.48012">
<ele>373.6</ele>
<time>2012-03-24T15:43:58.000Z</time>
</trkpt>
<trkpt lat="43.54138" lon="5.48005">
<ele>373.4</ele>
<time>2012-03-24T15:43:59.000Z</time>
</trkpt>
<trkpt lat="43.54133" lon="5.47998">
<ele>372.6</ele>
<time>2012-03-24T15:44:00.000Z</time>
</trkpt>
<trkpt lat="43.54128" lon="5.47991">
<ele>372.5</ele>
<time>2012-03-24T15:44:01.000Z</time>
</trkpt>
<trkpt lat="43.54122" lon="5.47984">
<ele>371.6</ele>
<time>2012-03-24T15:44:02.000Z</time>
</trkpt>
<trkpt lat="43.54115" lon="5.47976">
<ele>370.6</ele>
<time>2012-03-24T15:44:03.000Z</time>
</trkpt>
<trkpt lat="43.54109" lon="5.47967">
<ele>370.3</ele>
<time>2012-03-24T15:44:04.000Z</time>
</trkpt>
<trkpt lat="43.54103" lon="5.47959">
<ele>370</ele>
<time>2012-03-24T15:44:05.000Z</time>
</trkpt>
<trkpt lat="43.54096" lon="5.4795">
<ele>369.6</ele>
<time>2012-03-24T15:44:06.000Z</time>
</trkpt>
<trkpt lat="43.54089" lon="5.47941">
<ele>369.5</ele>
<time>2012-03-24T15:44:07.000Z</time>
</trkpt>
<trkpt lat="43.54081" lon="5.47936">
<ele>369</ele>
<time>2012-03-24T15:44:08.000Z</time>
</trkpt>
<trkpt lat="43.54076" lon="5.47928">
<ele>368.7</ele>
<time>2012-03-24T15:44:09.000Z</time>
</trkpt>
<trkpt lat="43.54068" lon="5.47922">
<ele>368</ele>
<time>2012-03-24T15:44:10.000Z</time>
</trkpt>
<trkpt lat="43.5406" lon="5.47916">
<ele>367.8</ele>
<time>2012-03-24T15:44:11.000Z</time>
</trkpt>
<trkpt lat="43.54053" lon="5.4791">
<ele>367.3</ele>
<time>2012-03-24T15:44:12.000Z</time>
</trkpt>
<trkpt lat="43.54048" lon="5.47903">
<ele>366.4</ele>
<time>2012-03-24T15:44:13.000Z</time>
</trkpt>
<trkpt lat="43.54043" lon="5.47894">
<ele>366.1</ele>
<time>2012-03-24T15:44:14.000Z</time>
</trkpt>
<trkpt lat="43.54039" lon="5.47885">
<ele>366.3</ele>
<time>2012-03-24T15:44:15.000Z</time>
</trkpt>
<trkpt lat="43.54036" lon="5.47877">
<ele>365.5</ele>
<time>2012-03-24T15:44:16.000Z</time>
</trkpt>
<trkpt lat="43.54032" lon="5.4787">
<ele>364.7</ele>
<time>2012-03-24T15:44:17.000Z</time>
</trkpt>
<trkpt lat="43.54031" lon="5.47862">
<ele>364.3</ele>
<time>2012-03-24T15:44:18.000Z</time>
</trkpt>
<trkpt lat="43.5403" lon="5.47855">
<ele>363.3</ele>
<time>2012-03-24T15:44:19.000Z</time>
</trkpt>
<trkpt lat="43.54031" lon="5.47848">
<ele>362.2</ele>
<time>2012-03-24T15:44:20.000Z</time>
</trkpt>
<trkpt lat="43.54037" lon="5.47839">
<ele>361.4</ele>
<time>2012-03-24T15:44:21.000Z</time>
</trkpt>
<trkpt lat="43.5404" lon="5.47833">
<ele>360.6</ele>
<time>2012-03-24T15:44:22.000Z</time>
</trkpt>
<trkpt lat="43.54046" lon="5.47827">
<ele>359.8</ele>
<time>2012-03-24T15:44:23.000Z</time>
</trkpt>
<trkpt lat="43.5405" lon="5.47822">
<ele>359.2</ele>
<time>2012-03-24T15:44:24.000Z</time>
</trkpt>
<trkpt lat="43.54054" lon="5.47813">
<ele>356.7</ele>
<time>2012-03-24T15:44:26.000Z</time>
</trkpt>
<trkpt lat="43.54057" lon="5.47806">
<ele>355.1</ele>
<time>2012-03-24T15:44:28.000Z</time>
</trkpt>
<trkpt lat="43.54054" lon="5.478">
<ele>354.9</ele>
<time>2012-03-24T15:44:30.000Z</time>
</trkpt>
<trkpt lat="43.54052" lon="5.47792">
<ele>353.1</ele>
<time>2012-03-24T15:44:34.000Z</time>
</trkpt>
<trkpt lat="43.5405" lon="5.47783">
<ele>351.8</ele>
<time>2012-03-24T15:44:36.000Z</time>
</trkpt>
<trkpt lat="43.54057" lon="5.47781">
<ele>350.2</ele>
<time>2012-03-24T15:44:41.000Z</time>
</trkpt>
<trkpt lat="43.54062" lon="5.47783">
<ele>349.4</ele>
<time>2012-03-24T15:44:43.000Z</time>
</trkpt>
<trkpt lat="43.54059" lon="5.47778">
<ele>348.1</ele>
<time>2012-03-24T15:44:46.000Z</time>
</trkpt>
<trkpt lat="43.54055" lon="5.47772">
<ele>345.7</ele>
<time>2012-03-24T15:44:51.000Z</time>
</trkpt>
<trkpt lat="43.54048" lon="5.47769">
<ele>344.5</ele>
<time>2012-03-24T15:44:53.000Z</time>
</trkpt>
<trkpt lat="43.5404" lon="5.47766">
<ele>343.5</ele>
<time>2012-03-24T15:44:55.000Z</time>
</trkpt>
<trkpt lat="43.54034" lon="5.47762">
<ele>343.7</ele>
<time>2012-03-24T15:44:57.000Z</time>
</trkpt>
<trkpt lat="43.54027" lon="5.47756">
<ele>343.2</ele>
<time>2012-03-24T15:44:59.000Z</time>
</trkpt>
<trkpt lat="43.54019" lon="5.47748">
<ele>342.3</ele>
<time>2012-03-24T15:45:01.000Z</time>
</trkpt>
<trkpt lat="43.54012" lon="5.4774">
<ele>341.2</ele>
<time>2012-03-24T15:45:03.000Z</time>
</trkpt>
<trkpt lat="43.54007" lon="5.47729">
<ele>340.7</ele>
<time>2012-03-24T15:45:05.000Z</time>
</trkpt>
<trkpt lat="43.54002" lon="5.47724">
<ele>340.8</ele>
<time>2012-03-24T15:45:06.000Z</time>
</trkpt>
<trkpt lat="43.53997" lon="5.47718">
<ele>341</ele>
<time>2012-03-24T15:45:07.000Z</time>
</trkpt>
<trkpt lat="43.53992" lon="5.47714">
<ele>341.6</ele>
<time>2012-03-24T15:45:08.000Z</time>
</trkpt>
<trkpt lat="43.53988" lon="5.47708">
<ele>341.3</ele>
<time>2012-03-24T15:45:09.000Z</time>
</trkpt>
<trkpt lat="43.53983" lon="5.47698">
<ele>340.8</ele>
<time>2012-03-24T15:45:10.000Z</time>
</trkpt>
<trkpt lat="43.53983" lon="5.47689">
<ele>340.3</ele>
<time>2012-03-24T15:45:11.000Z</time>
</trkpt>
<trkpt lat="43.53981" lon="5.47678">
<ele>339.7</ele>
<time>2012-03-24T15:45:12.000Z</time>
</trkpt>
<trkpt lat="43.53975" lon="5.4767">
<ele>339.4</ele>
<time>2012-03-24T15:45:13.000Z</time>
</trkpt>
<trkpt lat="43.53967" lon="5.47663">
<ele>339.2</ele>
<time>2012-03-24T15:45:14.000Z</time>
</trkpt>
<trkpt lat="43.53961" lon="5.47656">
<ele>338.5</ele>
<time>2012-03-24T15:45:15.000Z</time>
</trkpt>
<trkpt lat="43.53953" lon="5.47651">
<ele>338.6</ele>
<time>2012-03-24T15:45:16.000Z</time>
</trkpt>
<trkpt lat="43.53946" lon="5.47641">
<ele>338.5</ele>
<time>2012-03-24T15:45:17.000Z</time>
</trkpt>
<trkpt lat="43.53941" lon="5.47632">
<ele>338</ele>
<time>2012-03-24T15:45:18.000Z</time>
</trkpt>
<trkpt lat="43.53934" lon="5.47622">
<ele>337.9</ele>
<time>2012-03-24T15:45:19.000Z</time>
</trkpt>
<trkpt lat="43.53926" lon="5.47619">
<ele>336.9</ele>
<time>2012-03-24T15:45:20.000Z</time>
</trkpt>
<trkpt lat="43.5392" lon="5.4761">
<ele>336.5</ele>
<time>2012-03-24T15:45:21.000Z</time>
</trkpt>
<trkpt lat="43.53912" lon="5.476">
<ele>336.5</ele>
<time>2012-03-24T15:45:22.000Z</time>
</trkpt>
<trkpt lat="43.53906" lon="5.47588">
<ele>335.3</ele>
<time>2012-03-24T15:45:23.000Z</time>
</trkpt>
<trkpt lat="43.539" lon="5.4758">
<ele>334.1</ele>
<time>2012-03-24T15:45:24.000Z</time>
</trkpt>
<trkpt lat="43.53894" lon="5.47571">
<ele>333.1</ele>
<time>2012-03-24T15:45:25.000Z</time>
</trkpt>
<trkpt lat="43.53889" lon="5.4756">
<ele>332.8</ele>
<time>2012-03-24T15:45:26.000Z</time>
</trkpt>
<trkpt lat="43.53883" lon="5.47549">
<ele>332.8</ele>
<time>2012-03-24T15:45:27.000Z</time>
</trkpt>
<trkpt lat="43.53879" lon="5.47538">
<ele>332.1</ele>
<time>2012-03-24T15:45:28.000Z</time>
</trkpt>
<trkpt lat="43.53878" lon="5.47522">
<ele>331.9</ele>
<time>2012-03-24T15:45:29.000Z</time>
</trkpt>
<trkpt lat="43.53874" lon="5.4751">
<ele>331.6</ele>
<time>2012-03-24T15:45:30.000Z</time>
</trkpt>
<trkpt lat="43.53873" lon="5.47495">
<ele>330.4</ele>
<time>2012-03-24T15:45:31.000Z</time>
</trkpt>
<trkpt lat="43.53872" lon="5.47483">
<ele>329.4</ele>
<time>2012-03-24T15:45:32.000Z</time>
</trkpt>
<trkpt lat="43.53868" lon="5.47472">
<ele>328.5</ele>
<time>2012-03-24T15:45:33.000Z</time>
</trkpt>
<trkpt lat="43.53865" lon="5.47462">
<ele>328.2</ele>
<time>2012-03-24T15:45:34.000Z</time>
</trkpt>
<trkpt lat="43.53862" lon="5.47453">
<ele>327</ele>
<time>2012-03-24T15:45:35.000Z</time>
</trkpt>
<trkpt lat="43.5386" lon="5.47442">
<ele>325.7</ele>
<time>2012-03-24T15:45:36.000Z</time>
</trkpt>
<trkpt lat="43.53858" lon="5.47432">
<ele>323.8</ele>
<time>2012-03-24T15:45:37.000Z</time>
</trkpt>
<trkpt lat="43.53854" lon="5.47424">
<ele>323.2</ele>
<time>2012-03-24T15:45:38.000Z</time>
</trkpt>
<trkpt lat="43.53851" lon="5.47415">
<ele>322.9</ele>
<time>2012-03-24T15:45:39.000Z</time>
</trkpt>
<trkpt lat="43.53847" lon="5.47407">
<ele>322.1</ele>
<time>2012-03-24T15:45:40.000Z</time>
</trkpt>
<trkpt lat="43.53844" lon="5.47398">
<ele>321.2</ele>
<time>2012-03-24T15:45:41.000Z</time>
</trkpt>
<trkpt lat="43.53839" lon="5.47392">
<ele>320.7</ele>
<time>2012-03-24T15:45:42.000Z</time>
</trkpt>
<trkpt lat="43.53834" lon="5.47386">
<ele>320.2</ele>
<time>2012-03-24T15:45:43.000Z</time>
</trkpt>
<trkpt lat="43.53829" lon="5.47382">
<ele>319.1</ele>
<time>2012-03-24T15:45:44.000Z</time>
</trkpt>
<trkpt lat="43.53824" lon="5.47378">
<ele>318.6</ele>
<time>2012-03-24T15:45:45.000Z</time>
</trkpt>
<trkpt lat="43.53821" lon="5.47373">
<ele>318.2</ele>
<time>2012-03-24T15:45:46.000Z</time>
</trkpt>
<trkpt lat="43.53817" lon="5.4737">
<ele>317.8</ele>
<time>2012-03-24T15:45:47.000Z</time>
</trkpt>
<trkpt lat="43.5381" lon="5.47364">
<ele>316.8</ele>
<time>2012-03-24T15:45:49.000Z</time>
</trkpt>
<trkpt lat="43.53801" lon="5.47358">
<ele>315.4</ele>
<time>2012-03-24T15:45:51.000Z</time>
</trkpt>
<trkpt lat="43.53795" lon="5.47355">
<ele>315.2</ele>
<time>2012-03-24T15:45:52.000Z</time>
</trkpt>
<trkpt lat="43.53789" lon="5.47351">
<ele>314.8</ele>
<time>2012-03-24T15:45:53.000Z</time>
</trkpt>
<trkpt lat="43.53783" lon="5.47348">
<ele>313.3</ele>
<time>2012-03-24T15:45:54.000Z</time>
</trkpt>
<trkpt lat="43.53779" lon="5.47343">
<ele>312.7</ele>
<time>2012-03-24T15:45:55.000Z</time>
</trkpt>
<trkpt lat="43.53774" lon="5.47333">
<ele>312.6</ele>
<time>2012-03-24T15:45:57.000Z</time>
</trkpt>
<trkpt lat="43.53771" lon="5.47326">
<ele>312.2</ele>
<time>2012-03-24T15:45:58.000Z</time>
</trkpt>
<trkpt lat="43.5377" lon="5.4732">
<ele>311.6</ele>
<time>2012-03-24T15:45:59.000Z</time>
</trkpt>
<trkpt lat="43.53771" lon="5.4731">
<ele>310.8</ele>
<time>2012-03-24T15:46:00.000Z</time>
</trkpt>
<trkpt lat="43.53771" lon="5.47303">
<ele>309.4</ele>
<time>2012-03-24T15:46:01.000Z</time>
</trkpt>
<trkpt lat="43.53769" lon="5.47296">
<ele>308.8</ele>
<time>2012-03-24T15:46:02.000Z</time>
</trkpt>
<trkpt lat="43.53769" lon="5.47287">
<ele>308.2</ele>
<time>2012-03-24T15:46:03.000Z</time>
</trkpt>
<trkpt lat="43.53769" lon="5.47279">
<ele>307.7</ele>
<time>2012-03-24T15:46:04.000Z</time>
</trkpt>
<trkpt lat="43.5377" lon="5.47269">
<ele>307.6</ele>
<time>2012-03-24T15:46:05.000Z</time>
</trkpt>
<trkpt lat="43.53769" lon="5.47261">
<ele>307.5</ele>
<time>2012-03-24T15:46:06.000Z</time>
</trkpt>
<trkpt lat="43.53768" lon="5.47254">
<ele>307.3</ele>
<time>2012-03-24T15:46:07.000Z</time>
</trkpt>
<trkpt lat="43.53767" lon="5.47246">
<ele>307</ele>
<time>2012-03-24T15:46:08.000Z</time>
</trkpt>
<trkpt lat="43.53766" lon="5.47233">
<ele>306.4</ele>
<time>2012-03-24T15:46:10.000Z</time>
</trkpt>
<trkpt lat="43.53764" lon="5.47226">
<ele>306.2</ele>
<time>2012-03-24T15:46:11.000Z</time>
</trkpt>
<trkpt lat="43.53761" lon="5.47212">
<ele>306.1</ele>
<time>2012-03-24T15:46:13.000Z</time>
</trkpt>
<trkpt lat="43.53761" lon="5.47206">
<ele>306.3</ele>
<time>2012-03-24T15:46:14.000Z</time>
</trkpt>
<trkpt lat="43.53761" lon="5.47198">
<ele>305.8</ele>
<time>2012-03-24T15:46:15.000Z</time>
</trkpt>
<trkpt lat="43.53761" lon="5.47188">
<ele>305.2</ele>
<time>2012-03-24T15:46:16.000Z</time>
</trkpt>
<trkpt lat="43.53762" lon="5.47181">
<ele>304.3</ele>
<time>2012-03-24T15:46:17.000Z</time>
</trkpt>
<trkpt lat="43.53762" lon="5.47168">
<ele>303.6</ele>
<time>2012-03-24T15:46:19.000Z</time>
</trkpt>
<trkpt lat="43.53762" lon="5.47155">
<ele>304.6</ele>
<time>2012-03-24T15:46:21.000Z</time>
</trkpt>
<trkpt lat="43.53762" lon="5.47148">
<ele>304.2</ele>
<time>2012-03-24T15:46:22.000Z</time>
</trkpt>
<trkpt lat="43.5376" lon="5.47142">
<ele>304.2</ele>
<time>2012-03-24T15:46:23.000Z</time>
</trkpt>
<trkpt lat="43.53762" lon="5.47135">
<ele>303.6</ele>
<time>2012-03-24T15:46:24.000Z</time>
</trkpt>
<trkpt lat="43.53763" lon="5.47127">
<ele>303</ele>
<time>2012-03-24T15:46:25.000Z</time>
</trkpt>
<trkpt lat="43.53764" lon="5.47118">
<ele>302.4</ele>
<time>2012-03-24T15:46:26.000Z</time>
</trkpt>
<trkpt lat="43.5376" lon="5.47107">
<ele>302.1</ele>
<time>2012-03-24T15:46:28.000Z</time>
</trkpt>
<trkpt lat="43.53759" lon="5.47101">
<ele>301.9</ele>
<time>2012-03-24T15:46:29.000Z</time>
</trkpt>
<trkpt lat="43.53757" lon="5.47088">
<ele>301.6</ele>
<time>2012-03-24T15:46:31.000Z</time>
</trkpt>
<trkpt lat="43.53757" lon="5.47079">
<ele>301.4</ele>
<time>2012-03-24T15:46:32.000Z</time>
</trkpt>
<trkpt lat="43.53757" lon="5.47071">
<ele>301.3</ele>
<time>2012-03-24T15:46:33.000Z</time>
</trkpt>
<trkpt lat="43.53758" lon="5.47061">
<ele>300.4</ele>
<time>2012-03-24T15:46:34.000Z</time>
</trkpt>
<trkpt lat="43.53758" lon="5.47052">
<ele>300.2</ele>
<time>2012-03-24T15:46:35.000Z</time>
</trkpt>
<trkpt lat="43.53757" lon="5.47044">
<ele>300</ele>
<time>2012-03-24T15:46:36.000Z</time>
</trkpt>
<trkpt lat="43.53756" lon="5.47036">
<ele>299.9</ele>
<time>2012-03-24T15:46:37.000Z</time>
</trkpt>
<trkpt lat="43.53756" lon="5.47028">
<ele>299.6</ele>
<time>2012-03-24T15:46:38.000Z</time>
</trkpt>
<trkpt lat="43.53755" lon="5.4702">
<ele>299</ele>
<time>2012-03-24T15:46:39.000Z</time>
</trkpt>
<trkpt lat="43.53755" lon="5.47012">
<ele>298.9</ele>
<time>2012-03-24T15:46:40.000Z</time>
</trkpt>
<trkpt lat="43.53754" lon="5.47005">
<ele>299</ele>
<time>2012-03-24T15:46:41.000Z</time>
</trkpt>
<trkpt lat="43.53754" lon="5.46998">
<ele>299.2</ele>
<time>2012-03-24T15:46:42.000Z</time>
</trkpt>
<trkpt lat="43.53755" lon="5.4699">
<ele>298.9</ele>
<time>2012-03-24T15:46:43.000Z</time>
</trkpt>
<trkpt lat="43.53756" lon="5.46983">
<ele>299.1</ele>
<time>2012-03-24T15:46:44.000Z</time>
</trkpt>
<trkpt lat="43.5376" lon="5.46973">
<ele>299.6</ele>
<time>2012-03-24T15:46:46.000Z</time>
</trkpt>
<trkpt lat="43.53764" lon="5.46968">
<ele>299.2</ele>
<time>2012-03-24T15:46:47.000Z</time>
</trkpt>
<trkpt lat="43.5377" lon="5.46966">
<ele>299.3</ele>
<time>2012-03-24T15:46:48.000Z</time>
</trkpt>
<trkpt lat="43.53777" lon="5.46962">
<ele>299.5</ele>
<time>2012-03-24T15:46:50.000Z</time>
</trkpt>
<trkpt lat="43.53783" lon="5.4696">
<ele>299.6</ele>
<time>2012-03-24T15:46:51.000Z</time>
</trkpt>
<trkpt lat="43.53787" lon="5.46962">
<ele>300</ele>
<time>2012-03-24T15:46:52.000Z</time>
</trkpt>
<trkpt lat="43.53795" lon="5.46963">
<ele>300.3</ele>
<time>2012-03-24T15:46:54.000Z</time>
</trkpt>
<trkpt lat="43.53801" lon="5.46962">
<ele>301.6</ele>
<time>2012-03-24T15:46:56.000Z</time>
</trkpt>
<trkpt lat="43.53804" lon="5.46956">
<ele>302.4</ele>
<time>2012-03-24T15:46:57.000Z</time>
</trkpt>
<trkpt lat="43.53807" lon="5.46947">
<ele>302.3</ele>
<time>2012-03-24T15:46:59.000Z</time>
</trkpt>
<trkpt lat="43.5381" lon="5.46938">
<ele>301.4</ele>
<time>2012-03-24T15:47:01.000Z</time>
</trkpt>
<trkpt lat="43.53813" lon="5.4693">
<ele>301.6</ele>
<time>2012-03-24T15:47:03.000Z</time>
</trkpt>
<trkpt lat="43.53817" lon="5.46924">
<ele>301.6</ele>
<time>2012-03-24T15:47:04.000Z</time>
</trkpt>
<trkpt lat="43.5382" lon="5.46919">
<ele>301.4</ele>
<time>2012-03-24T15:47:05.000Z</time>
</trkpt>
<trkpt lat="43.53823" lon="5.46909">
<ele>301.3</ele>
<time>2012-03-24T15:47:07.000Z</time>
</trkpt>
<trkpt lat="43.53826" lon="5.46902">
<ele>302.4</ele>
<time>2012-03-24T15:47:08.000Z</time>
</trkpt>
<trkpt lat="43.53829" lon="5.46895">
<ele>302.4</ele>
<time>2012-03-24T15:47:09.000Z</time>
</trkpt>
<trkpt lat="43.53833" lon="5.4689">
<ele>301.9</ele>
<time>2012-03-24T15:47:10.000Z</time>
</trkpt>
<trkpt lat="43.53836" lon="5.46883">
<ele>301.9</ele>
<time>2012-03-24T15:47:11.000Z</time>
</trkpt>
<trkpt lat="43.53842" lon="5.46876">
<ele>300.5</ele>
<time>2012-03-24T15:47:13.000Z</time>
</trkpt>
<trkpt lat="43.53848" lon="5.46872">
<ele>301.4</ele>
<time>2012-03-24T15:47:15.000Z</time>
</trkpt>
<trkpt lat="43.53853" lon="5.46872">
<ele>301.9</ele>
<time>2012-03-24T15:47:17.000Z</time>
</trkpt>
<trkpt lat="43.53858" lon="5.46874">
<ele>302.2</ele>
<time>2012-03-24T15:47:19.000Z</time>
</trkpt>
<trkpt lat="43.53864" lon="5.46876">
<ele>301.9</ele>
<time>2012-03-24T15:47:21.000Z</time>
</trkpt>
<trkpt lat="43.5387" lon="5.46877">
<ele>301.8</ele>
<time>2012-03-24T15:47:23.000Z</time>
</trkpt>
<trkpt lat="43.53875" lon="5.46881">
<ele>302.2</ele>
<time>2012-03-24T15:47:25.000Z</time>
</trkpt>
<trkpt lat="43.5388" lon="5.46886">
<ele>302.3</ele>
<time>2012-03-24T15:47:27.000Z</time>
</trkpt>
<trkpt lat="43.53884" lon="5.46891">
<ele>302.2</ele>
<time>2012-03-24T15:47:29.000Z</time>
</trkpt>
<trkpt lat="43.5389" lon="5.46894">
<ele>302.4</ele>
<time>2012-03-24T15:47:31.000Z</time>
</trkpt>
<trkpt lat="43.53898" lon="5.46892">
<ele>302.3</ele>
<time>2012-03-24T15:47:33.000Z</time>
</trkpt>
<trkpt lat="43.53904" lon="5.46891">
<ele>302.5</ele>
<time>2012-03-24T15:47:35.000Z</time>
</trkpt>
<trkpt lat="43.53909" lon="5.46886">
<ele>301.5</ele>
<time>2012-03-24T15:47:37.000Z</time>
</trkpt>
<trkpt lat="43.53915" lon="5.46884">
<ele>301.7</ele>
<time>2012-03-24T15:47:39.000Z</time>
</trkpt>
<trkpt lat="43.53919" lon="5.46879">
<ele>302.9</ele>
<time>2012-03-24T15:47:41.000Z</time>
</trkpt>
<trkpt lat="43.53926" lon="5.46872">
<ele>303.2</ele>
<time>2012-03-24T15:47:43.000Z</time>
</trkpt>
<trkpt lat="43.5393" lon="5.46865">
<ele>302.7</ele>
<time>2012-03-24T15:47:46.000Z</time>
</trkpt>
<trkpt lat="43.53936" lon="5.46862">
<ele>302.6</ele>
<time>2012-03-24T15:47:48.000Z</time>
</trkpt>
<trkpt lat="43.5394" lon="5.46859">
<ele>302</ele>
<time>2012-03-24T15:47:50.000Z</time>
</trkpt>
<trkpt lat="43.53946" lon="5.46856">
<ele>301.6</ele>
<time>2012-03-24T15:47:52.000Z</time>
</trkpt>
<trkpt lat="43.53951" lon="5.46856">
<ele>302.1</ele>
<time>2012-03-24T15:47:54.000Z</time>
</trkpt>
<trkpt lat="43.53958" lon="5.46857">
<ele>303.4</ele>
<time>2012-03-24T15:47:56.000Z</time>
</trkpt>
<trkpt lat="43.53964" lon="5.46862">
<ele>303.5</ele>
<time>2012-03-24T15:47:58.000Z</time>
</trkpt>
<trkpt lat="43.53968" lon="5.46866">
<ele>303.7</ele>
<time>2012-03-24T15:48:00.000Z</time>
</trkpt>
<trkpt lat="43.53971" lon="5.46874">
<ele>304.9</ele>
<time>2012-03-24T15:48:03.000Z</time>
</trkpt>
<trkpt lat="43.53972" lon="5.46883">
<ele>304.7</ele>
<time>2012-03-24T15:48:05.000Z</time>
</trkpt>
<trkpt lat="43.53971" lon="5.46893">
<ele>305.2</ele>
<time>2012-03-24T15:48:07.000Z</time>
</trkpt>
<trkpt lat="43.53971" lon="5.469">
<ele>305.2</ele>
<time>2012-03-24T15:48:09.000Z</time>
</trkpt>
<trkpt lat="43.53971" lon="5.46907">
<ele>305.4</ele>
<time>2012-03-24T15:48:11.000Z</time>
</trkpt>
<trkpt lat="43.53971" lon="5.46915">
<ele>305.7</ele>
<time>2012-03-24T15:48:13.000Z</time>
</trkpt>
<trkpt lat="43.53971" lon="5.46924">
<ele>306.3</ele>
<time>2012-03-24T15:48:15.000Z</time>
</trkpt>
<trkpt lat="43.53971" lon="5.46933">
<ele>306.6</ele>
<time>2012-03-24T15:48:17.000Z</time>
</trkpt>
<trkpt lat="43.53974" lon="5.4694">
<ele>306.9</ele>
<time>2012-03-24T15:48:19.000Z</time>
</trkpt>
<trkpt lat="43.53976" lon="5.46947">
<ele>307.1</ele>
<time>2012-03-24T15:48:21.000Z</time>
</trkpt>
<trkpt lat="43.53979" lon="5.46956">
<ele>307.5</ele>
<time>2012-03-24T15:48:23.000Z</time>
</trkpt>
<trkpt lat="43.53981" lon="5.46962">
<ele>307.4</ele>
<time>2012-03-24T15:48:25.000Z</time>
</trkpt>
<trkpt lat="43.53983" lon="5.46969">
<ele>307.8</ele>
<time>2012-03-24T15:48:27.000Z</time>
</trkpt>
<trkpt lat="43.53986" lon="5.46977">
<ele>308.8</ele>
<time>2012-03-24T15:48:30.000Z</time>
</trkpt>
<trkpt lat="43.53987" lon="5.46984">
<ele>309.1</ele>
<time>2012-03-24T15:48:32.000Z</time>
</trkpt>
<trkpt lat="43.5399" lon="5.46992">
<ele>308.9</ele>
<time>2012-03-24T15:48:34.000Z</time>
</trkpt>
<trkpt lat="43.53994" lon="5.47">
<ele>309.3</ele>
<time>2012-03-24T15:48:36.000Z</time>
</trkpt>
<trkpt lat="43.53996" lon="5.47005">
<ele>309.3</ele>
<time>2012-03-24T15:48:37.000Z</time>
</trkpt>
<trkpt lat="43.53998" lon="5.47014">
<ele>310.3</ele>
<time>2012-03-24T15:48:38.000Z</time>
</trkpt>
<trkpt lat="43.54001" lon="5.4702">
<ele>310.4</ele>
<time>2012-03-24T15:48:39.000Z</time>
</trkpt>
<trkpt lat="43.54002" lon="5.47027">
<ele>310.5</ele>
<time>2012-03-24T15:48:40.000Z</time>
</trkpt>
<trkpt lat="43.54006" lon="5.47036">
<ele>310.2</ele>
<time>2012-03-24T15:48:41.000Z</time>
</trkpt>
<trkpt lat="43.54009" lon="5.47044">
<ele>310</ele>
<time>2012-03-24T15:48:42.000Z</time>
</trkpt>
<trkpt lat="43.54012" lon="5.47051">
<ele>310</ele>
<time>2012-03-24T15:48:43.000Z</time>
</trkpt>
<trkpt lat="43.54017" lon="5.47056">
<ele>309.5</ele>
<time>2012-03-24T15:48:44.000Z</time>
</trkpt>
<trkpt lat="43.54022" lon="5.4706">
<ele>309.5</ele>
<time>2012-03-24T15:48:45.000Z</time>
</trkpt>
<trkpt lat="43.54028" lon="5.47063">
<ele>309.6</ele>
<time>2012-03-24T15:48:46.000Z</time>
</trkpt>
<trkpt lat="43.54033" lon="5.47062">
<ele>309.6</ele>
<time>2012-03-24T15:48:47.000Z</time>
</trkpt>
<trkpt lat="43.54039" lon="5.47055">
<ele>310.5</ele>
<time>2012-03-24T15:48:49.000Z</time>
</trkpt>
<trkpt lat="43.54044" lon="5.4705">
<ele>310.8</ele>
<time>2012-03-24T15:48:51.000Z</time>
</trkpt>
<trkpt lat="43.54047" lon="5.47046">
<ele>312</ele>
<time>2012-03-24T15:48:53.000Z</time>
</trkpt>
<trkpt lat="43.54053" lon="5.47042">
<ele>312.1</ele>
<time>2012-03-24T15:48:55.000Z</time>
</trkpt>
<trkpt lat="43.5406" lon="5.47042">
<ele>312.8</ele>
<time>2012-03-24T15:48:57.000Z</time>
</trkpt>
<trkpt lat="43.54066" lon="5.47042">
<ele>313.2</ele>
<time>2012-03-24T15:48:59.000Z</time>
</trkpt>
<trkpt lat="43.54072" lon="5.47041">
<ele>313.1</ele>
<time>2012-03-24T15:49:01.000Z</time>
</trkpt>
<trkpt lat="43.54079" lon="5.47041">
<ele>313.2</ele>
<time>2012-03-24T15:49:03.000Z</time>
</trkpt>
<trkpt lat="43.54084" lon="5.47043">
<ele>312.8</ele>
<time>2012-03-24T15:49:05.000Z</time>
</trkpt>
<trkpt lat="43.54091" lon="5.47044">
<ele>312.4</ele>
<time>2012-03-24T15:49:07.000Z</time>
</trkpt>
<trkpt lat="43.54098" lon="5.47046">
<ele>312.2</ele>
<time>2012-03-24T15:49:09.000Z</time>
</trkpt>
<trkpt lat="43.54105" lon="5.47051">
<ele>312.6</ele>
<time>2012-03-24T15:49:11.000Z</time>
</trkpt>
<trkpt lat="43.54107" lon="5.4706">
<ele>313.6</ele>
<time>2012-03-24T15:49:13.000Z</time>
</trkpt>
<trkpt lat="43.54111" lon="5.47065">
<ele>314.8</ele>
<time>2012-03-24T15:49:15.000Z</time>
</trkpt>
<trkpt lat="43.54116" lon="5.47067">
<ele>316.7</ele>
<time>2012-03-24T15:49:17.000Z</time>
</trkpt>
<trkpt lat="43.54115" lon="5.47077">
<ele>317.4</ele>
<time>2012-03-24T15:49:19.000Z</time>
</trkpt>
<trkpt lat="43.54115" lon="5.47086">
<ele>318</ele>
<time>2012-03-24T15:49:21.000Z</time>
</trkpt>
<trkpt lat="43.54116" lon="5.47097">
<ele>318.2</ele>
<time>2012-03-24T15:49:23.000Z</time>
</trkpt>
<trkpt lat="43.54116" lon="5.47103">
<ele>319.1</ele>
<time>2012-03-24T15:49:24.000Z</time>
</trkpt>
<trkpt lat="43.54118" lon="5.47111">
<ele>319.5</ele>
<time>2012-03-24T15:49:26.000Z</time>
</trkpt>
<trkpt lat="43.5412" lon="5.47116">
<ele>320.3</ele>
<time>2012-03-24T15:49:28.000Z</time>
</trkpt>
<trkpt lat="43.54126" lon="5.47121">
<ele>320.9</ele>
<time>2012-03-24T15:49:30.000Z</time>
</trkpt>
<trkpt lat="43.54132" lon="5.47125">
<ele>320.6</ele>
<time>2012-03-24T15:49:32.000Z</time>
</trkpt>
<trkpt lat="43.54139" lon="5.47128">
<ele>321.6</ele>
<time>2012-03-24T15:49:34.000Z</time>
</trkpt>
<trkpt lat="43.54145" lon="5.47132">
<ele>321.6</ele>
<time>2012-03-24T15:49:36.000Z</time>
</trkpt>
<trkpt lat="43.54151" lon="5.47136">
<ele>322</ele>
<time>2012-03-24T15:49:39.000Z</time>
</trkpt>
<trkpt lat="43.54155" lon="5.47142">
<ele>322.2</ele>
<time>2012-03-24T15:49:41.000Z</time>
</trkpt>
<trkpt lat="43.54161" lon="5.47144">
<ele>323.2</ele>
<time>2012-03-24T15:49:43.000Z</time>
</trkpt>
<trkpt lat="43.54166" lon="5.47147">
<ele>323.5</ele>
<time>2012-03-24T15:49:45.000Z</time>
</trkpt>
<trkpt lat="43.54173" lon="5.47153">
<ele>323.4</ele>
<time>2012-03-24T15:49:47.000Z</time>
</trkpt>
<trkpt lat="43.54178" lon="5.47157">
<ele>323.6</ele>
<time>2012-03-24T15:49:49.000Z</time>
</trkpt>
<trkpt lat="43.54183" lon="5.47161">
<ele>323.9</ele>
<time>2012-03-24T15:49:51.000Z</time>
</trkpt>
<trkpt lat="43.54188" lon="5.47168">
<ele>323.8</ele>
<time>2012-03-24T15:49:54.000Z</time>
</trkpt>
<trkpt lat="43.54192" lon="5.47173">
<ele>323.6</ele>
<time>2012-03-24T15:49:56.000Z</time>
</trkpt>
<trkpt lat="43.54194" lon="5.47181">
<ele>324.4</ele>
<time>2012-03-24T15:49:58.000Z</time>
</trkpt>
<trkpt lat="43.54199" lon="5.47187">
<ele>325.7</ele>
<time>2012-03-24T15:50:00.000Z</time>
</trkpt>
<trkpt lat="43.54206" lon="5.47191">
<ele>326.3</ele>
<time>2012-03-24T15:50:02.000Z</time>
</trkpt>
<trkpt lat="43.5421" lon="5.47193">
<ele>326.1</ele>
<time>2012-03-24T15:50:03.000Z</time>
</trkpt>
<trkpt lat="43.54217" lon="5.47199">
<ele>326.6</ele>
<time>2012-03-24T15:50:05.000Z</time>
</trkpt>
<trkpt lat="43.54221" lon="5.47203">
<ele>327</ele>
<time>2012-03-24T15:50:06.000Z</time>
</trkpt>
<trkpt lat="43.54227" lon="5.47209">
<ele>328.3</ele>
<time>2012-03-24T15:50:08.000Z</time>
</trkpt>
<trkpt lat="43.54232" lon="5.47211">
<ele>330</ele>
<time>2012-03-24T15:50:09.000Z</time>
</trkpt>
<trkpt lat="43.54236" lon="5.47216">
<ele>331.2</ele>
<time>2012-03-24T15:50:11.000Z</time>
</trkpt>
<trkpt lat="43.5424" lon="5.47221">
<ele>332.3</ele>
<time>2012-03-24T15:50:13.000Z</time>
</trkpt>
<trkpt lat="43.54244" lon="5.47226">
<ele>333.5</ele>
<time>2012-03-24T15:50:16.000Z</time>
</trkpt>
<trkpt lat="43.54248" lon="5.47232">
<ele>334.6</ele>
<time>2012-03-24T15:50:19.000Z</time>
</trkpt>
<trkpt lat="43.54252" lon="5.47236">
<ele>335.9</ele>
<time>2012-03-24T15:50:22.000Z</time>
</trkpt>
<trkpt lat="43.54258" lon="5.47241">
<ele>337.1</ele>
<time>2012-03-24T15:50:25.000Z</time>
</trkpt>
<trkpt lat="43.54266" lon="5.47243">
<ele>338.7</ele>
<time>2012-03-24T15:50:28.000Z</time>
</trkpt>
<trkpt lat="43.5427" lon="5.47245">
<ele>338.1</ele>
<time>2012-03-24T15:50:30.000Z</time>
</trkpt>
<trkpt lat="43.54274" lon="5.47248">
<ele>340.2</ele>
<time>2012-03-24T15:50:33.000Z</time>
</trkpt>
<trkpt lat="43.54281" lon="5.47252">
<ele>339.8</ele>
<time>2012-03-24T15:50:36.000Z</time>
</trkpt>
<trkpt lat="43.54286" lon="5.47254">
<ele>341</ele>
<time>2012-03-24T15:50:38.000Z</time>
</trkpt>
<trkpt lat="43.54291" lon="5.47257">
<ele>340.7</ele>
<time>2012-03-24T15:50:40.000Z</time>
</trkpt>
<trkpt lat="43.54294" lon="5.47262">
<ele>339.5</ele>
<time>2012-03-24T15:50:42.000Z</time>
</trkpt>
<trkpt lat="43.54298" lon="5.47266">
<ele>337.4</ele>
<time>2012-03-24T15:50:45.000Z</time>
</trkpt>
<trkpt lat="43.54305" lon="5.47266">
<ele>339</ele>
<time>2012-03-24T15:50:48.000Z</time>
</trkpt>
<trkpt lat="43.5431" lon="5.4727">
<ele>340.8</ele>
<time>2012-03-24T15:50:51.000Z</time>
</trkpt>
<trkpt lat="43.54317" lon="5.47269">
<ele>340.4</ele>
<time>2012-03-24T15:50:53.000Z</time>
</trkpt>
<trkpt lat="43.54322" lon="5.47271">
<ele>341.2</ele>
<time>2012-03-24T15:50:55.000Z</time>
</trkpt>
<trkpt lat="43.54327" lon="5.47273">
<ele>341.5</ele>
<time>2012-03-24T15:50:57.000Z</time>
</trkpt>
<trkpt lat="43.54333" lon="5.47274">
<ele>342.2</ele>
<time>2012-03-24T15:50:59.000Z</time>
</trkpt>
<trkpt lat="43.54339" lon="5.47275">
<ele>342.1</ele>
<time>2012-03-24T15:51:01.000Z</time>
</trkpt>
<trkpt lat="43.54345" lon="5.47274">
<ele>342.4</ele>
<time>2012-03-24T15:51:03.000Z</time>
</trkpt>
<trkpt lat="43.54351" lon="5.47274">
<ele>342.2</ele>
<time>2012-03-24T15:51:05.000Z</time>
</trkpt>
<trkpt lat="43.54357" lon="5.47274">
<ele>342.8</ele>
<time>2012-03-24T15:51:08.000Z</time>
</trkpt>
<trkpt lat="43.54362" lon="5.47274">
<ele>342.8</ele>
<time>2012-03-24T15:51:10.000Z</time>
</trkpt>
<trkpt lat="43.54368" lon="5.47273">
<ele>343.1</ele>
<time>2012-03-24T15:51:13.000Z</time>
</trkpt>
<trkpt lat="43.54374" lon="5.47275">
<ele>343.7</ele>
<time>2012-03-24T15:51:15.000Z</time>
</trkpt>
<trkpt lat="43.54379" lon="5.47276">
<ele>344.3</ele>
<time>2012-03-24T15:51:18.000Z</time>
</trkpt>
<trkpt lat="43.54384" lon="5.47278">
<ele>345.9</ele>
<time>2012-03-24T15:51:21.000Z</time>
</trkpt>
<trkpt lat="43.54388" lon="5.47276">
<ele>345.9</ele>
<time>2012-03-24T15:51:23.000Z</time>
</trkpt>
<trkpt lat="43.54393" lon="5.47274">
<ele>346.9</ele>
<time>2012-03-24T15:51:26.000Z</time>
</trkpt>
<trkpt lat="43.54399" lon="5.47276">
<ele>346.9</ele>
<time>2012-03-24T15:51:29.000Z</time>
</trkpt>
<trkpt lat="43.54404" lon="5.47277">
<ele>348</ele>
<time>2012-03-24T15:51:32.000Z</time>
</trkpt>
<trkpt lat="43.5441" lon="5.47277">
<ele>348.8</ele>
<time>2012-03-24T15:51:34.000Z</time>
</trkpt>
<trkpt lat="43.54416" lon="5.47275">
<ele>349.6</ele>
<time>2012-03-24T15:51:36.000Z</time>
</trkpt>
<trkpt lat="43.54423" lon="5.47276">
<ele>350.2</ele>
<time>2012-03-24T15:51:38.000Z</time>
</trkpt>
<trkpt lat="43.54429" lon="5.47277">
<ele>350.6</ele>
<time>2012-03-24T15:51:40.000Z</time>
</trkpt>
<trkpt lat="43.54433" lon="5.47277">
<ele>351.1</ele>
<time>2012-03-24T15:51:42.000Z</time>
</trkpt>
<trkpt lat="43.5444" lon="5.47277">
<ele>352.2</ele>
<time>2012-03-24T15:51:45.000Z</time>
</trkpt>
<trkpt lat="43.54445" lon="5.47275">
<ele>351.8</ele>
<time>2012-03-24T15:51:48.000Z</time>
</trkpt>
<trkpt lat="43.54452" lon="5.47275">
<ele>352.1</ele>
<time>2012-03-24T15:51:52.000Z</time>
</trkpt>
<trkpt lat="43.54456" lon="5.47272">
<ele>352.8</ele>
<time>2012-03-24T15:51:54.000Z</time>
</trkpt>
<trkpt lat="43.54463" lon="5.47271">
<ele>354.2</ele>
<time>2012-03-24T15:51:58.000Z</time>
</trkpt>
<trkpt lat="43.54469" lon="5.47267">
<ele>355.1</ele>
<time>2012-03-24T15:52:00.000Z</time>
</trkpt>
<trkpt lat="43.54475" lon="5.47266">
<ele>356.4</ele>
<time>2012-03-24T15:52:03.000Z</time>
</trkpt>
<trkpt lat="43.5448" lon="5.47265">
<ele>356.7</ele>
<time>2012-03-24T15:52:05.000Z</time>
</trkpt>
<trkpt lat="43.54486" lon="5.47268">
<ele>358.2</ele>
<time>2012-03-24T15:52:09.000Z</time>
</trkpt>
<trkpt lat="43.5449" lon="5.47266">
<ele>357.8</ele>
<time>2012-03-24T15:52:11.000Z</time>
</trkpt>
<trkpt lat="43.54496" lon="5.4727">
<ele>358.5</ele>
<time>2012-03-24T15:52:15.000Z</time>
</trkpt>
<trkpt lat="43.54498" lon="5.47278">
<ele>359.3</ele>
<time>2012-03-24T15:52:17.000Z</time>
</trkpt>
<trkpt lat="43.54499" lon="5.47286">
<ele>359.1</ele>
<time>2012-03-24T15:52:19.000Z</time>
</trkpt>
<trkpt lat="43.54499" lon="5.47293">
<ele>359.2</ele>
<time>2012-03-24T15:52:21.000Z</time>
</trkpt>
<trkpt lat="43.54496" lon="5.47302">
<ele>359</ele>
<time>2012-03-24T15:52:24.000Z</time>
</trkpt>
<trkpt lat="43.54494" lon="5.47312">
<ele>358.6</ele>
<time>2012-03-24T15:52:26.000Z</time>
</trkpt>
<trkpt lat="43.54494" lon="5.47321">
<ele>359.5</ele>
<time>2012-03-24T15:52:29.000Z</time>
</trkpt>
<trkpt lat="43.54493" lon="5.47327">
<ele>360.6</ele>
<time>2012-03-24T15:52:32.000Z</time>
</trkpt>
<trkpt lat="43.545" lon="5.47329">
<ele>363.9</ele>
<time>2012-03-24T15:52:36.000Z</time>
</trkpt>
<trkpt lat="43.54506" lon="5.47325">
<ele>364.6</ele>
<time>2012-03-24T15:52:39.000Z</time>
</trkpt>
<trkpt lat="43.54511" lon="5.47322">
<ele>365.7</ele>
<time>2012-03-24T15:52:41.000Z</time>
</trkpt>
<trkpt lat="43.54516" lon="5.47319">
<ele>366.3</ele>
<time>2012-03-24T15:52:43.000Z</time>
</trkpt>
<trkpt lat="43.54522" lon="5.47317">
<ele>366.8</ele>
<time>2012-03-24T15:52:45.000Z</time>
</trkpt>
<trkpt lat="43.54528" lon="5.47314">
<ele>367.1</ele>
<time>2012-03-24T15:52:48.000Z</time>
</trkpt>
<trkpt lat="43.54533" lon="5.47313">
<ele>367.8</ele>
<time>2012-03-24T15:52:50.000Z</time>
</trkpt>
<trkpt lat="43.54539" lon="5.47312">
<ele>370.1</ele>
<time>2012-03-24T15:52:53.000Z</time>
</trkpt>
<trkpt lat="43.54545" lon="5.47311">
<ele>373.9</ele>
<time>2012-03-24T15:52:56.000Z</time>
</trkpt>
<trkpt lat="43.5455" lon="5.47311">
<ele>375.7</ele>
<time>2012-03-24T15:52:58.000Z</time>
</trkpt>
<trkpt lat="43.54557" lon="5.47309">
<ele>377.7</ele>
<time>2012-03-24T15:53:01.000Z</time>
</trkpt>
<trkpt lat="43.54562" lon="5.47308">
<ele>378</ele>
<time>2012-03-24T15:53:03.000Z</time>
</trkpt>
<trkpt lat="43.54568" lon="5.47308">
<ele>379</ele>
<time>2012-03-24T15:53:05.000Z</time>
</trkpt>
<trkpt lat="43.54574" lon="5.47308">
<ele>379</ele>
<time>2012-03-24T15:53:08.000Z</time>
</trkpt>
<trkpt lat="43.5458" lon="5.47308">
<ele>379.3</ele>
<time>2012-03-24T15:53:11.000Z</time>
</trkpt>
<trkpt lat="43.54585" lon="5.47309">
<ele>379.5</ele>
<time>2012-03-24T15:53:13.000Z</time>
</trkpt>
<trkpt lat="43.5459" lon="5.47313">
<ele>380.3</ele>
<time>2012-03-24T15:53:16.000Z</time>
</trkpt>
<trkpt lat="43.54597" lon="5.4731">
<ele>380.7</ele>
<time>2012-03-24T15:53:18.000Z</time>
</trkpt>
<trkpt lat="43.54606" lon="5.47308">
<ele>381.9</ele>
<time>2012-03-24T15:53:20.000Z</time>
</trkpt>
<trkpt lat="43.54612" lon="5.47311">
<ele>381.6</ele>
<time>2012-03-24T15:53:22.000Z</time>
</trkpt>
<trkpt lat="43.54616" lon="5.47315">
<ele>381.7</ele>
<time>2012-03-24T15:53:23.000Z</time>
</trkpt>
<trkpt lat="43.54622" lon="5.47321">
<ele>382.5</ele>
<time>2012-03-24T15:53:25.000Z</time>
</trkpt>
<trkpt lat="43.54626" lon="5.47326">
<ele>383.5</ele>
<time>2012-03-24T15:53:27.000Z</time>
</trkpt>
<trkpt lat="43.54632" lon="5.47329">
<ele>385</ele>
<time>2012-03-24T15:53:29.000Z</time>
</trkpt>
<trkpt lat="43.54633" lon="5.47338">
<ele>384.8</ele>
<time>2012-03-24T15:53:31.000Z</time>
</trkpt>
<trkpt lat="43.54635" lon="5.47345">
<ele>384.8</ele>
<time>2012-03-24T15:53:33.000Z</time>
</trkpt>
<trkpt lat="43.54638" lon="5.4735">
<ele>385.4</ele>
<time>2012-03-24T15:53:35.000Z</time>
</trkpt>
<trkpt lat="43.54642" lon="5.47355">
<ele>386</ele>
<time>2012-03-24T15:53:37.000Z</time>
</trkpt>
<trkpt lat="43.54643" lon="5.47362">
<ele>386.4</ele>
<time>2012-03-24T15:53:40.000Z</time>
</trkpt>
<trkpt lat="43.54646" lon="5.47367">
<ele>387</ele>
<time>2012-03-24T15:53:42.000Z</time>
</trkpt>
<trkpt lat="43.5465" lon="5.47374">
<ele>387.8</ele>
<time>2012-03-24T15:53:45.000Z</time>
</trkpt>
<trkpt lat="43.54654" lon="5.47381">
<ele>389</ele>
<time>2012-03-24T15:53:47.000Z</time>
</trkpt>
<trkpt lat="43.54657" lon="5.47389">
<ele>390.2</ele>
<time>2012-03-24T15:53:50.000Z</time>
</trkpt>
<trkpt lat="43.54662" lon="5.47391">
<ele>392.1</ele>
<time>2012-03-24T15:53:52.000Z</time>
</trkpt>
<trkpt lat="43.54666" lon="5.47394">
<ele>392.4</ele>
<time>2012-03-24T15:53:54.000Z</time>
</trkpt>
<trkpt lat="43.5467" lon="5.47398">
<ele>394.1</ele>
<time>2012-03-24T15:53:57.000Z</time>
</trkpt>
<trkpt lat="43.54675" lon="5.47402">
<ele>394.3</ele>
<time>2012-03-24T15:53:59.000Z</time>
</trkpt>
<trkpt lat="43.54681" lon="5.47408">
<ele>395.1</ele>
<time>2012-03-24T15:54:02.000Z</time>
</trkpt>
<trkpt lat="43.54684" lon="5.47412">
<ele>397.2</ele>
<time>2012-03-24T15:54:05.000Z</time>
</trkpt>
<trkpt lat="43.54689" lon="5.4742">
<ele>396.9</ele>
<time>2012-03-24T15:54:08.000Z</time>
</trkpt>
<trkpt lat="43.54695" lon="5.47422">
<ele>398.2</ele>
<time>2012-03-24T15:54:11.000Z</time>
</trkpt>
<trkpt lat="43.547" lon="5.47425">
<ele>399.2</ele>
<time>2012-03-24T15:54:13.000Z</time>
</trkpt>
<trkpt lat="43.54706" lon="5.4742">
<ele>399.1</ele>
<time>2012-03-24T15:54:15.000Z</time>
</trkpt>
<trkpt lat="43.54712" lon="5.47418">
<ele>398.9</ele>
<time>2012-03-24T15:54:17.000Z</time>
</trkpt>
<trkpt lat="43.54717" lon="5.47412">
<ele>399.1</ele>
<time>2012-03-24T15:54:20.000Z</time>
</trkpt>
<trkpt lat="43.54719" lon="5.47404">
<ele>398.6</ele>
<time>2012-03-24T15:54:23.000Z</time>
</trkpt>
<trkpt lat="43.54716" lon="5.47398">
<ele>398.4</ele>
<time>2012-03-24T15:54:26.000Z</time>
</trkpt>
<trkpt lat="43.54712" lon="5.47397">
<ele>399.1</ele>
<time>2012-03-24T15:54:28.000Z</time>
</trkpt>
<trkpt lat="43.54706" lon="5.47392">
<ele>399.7</ele>
<time>2012-03-24T15:54:30.000Z</time>
</trkpt>
<trkpt lat="43.54701" lon="5.47389">
<ele>399.2</ele>
<time>2012-03-24T15:54:32.000Z</time>
</trkpt>
<trkpt lat="43.54699" lon="5.47383">
<ele>400</ele>
<time>2012-03-24T15:54:34.000Z</time>
</trkpt>
<trkpt lat="43.54695" lon="5.47376">
<ele>399.5</ele>
<time>2012-03-24T15:54:36.000Z</time>
</trkpt>
<trkpt lat="43.54698" lon="5.47364">
<ele>400.2</ele>
<time>2012-03-24T15:54:39.000Z</time>
</trkpt>
<trkpt lat="43.54704" lon="5.47364">
<ele>400.2</ele>
<time>2012-03-24T15:54:41.000Z</time>
</trkpt>
<trkpt lat="43.5471" lon="5.47365">
<ele>400.1</ele>
<time>2012-03-24T15:54:43.000Z</time>
</trkpt>
<trkpt lat="43.54715" lon="5.47368">
<ele>399.9</ele>
<time>2012-03-24T15:54:45.000Z</time>
</trkpt>
<trkpt lat="43.5472" lon="5.4737">
<ele>400.1</ele>
<time>2012-03-24T15:54:47.000Z</time>
</trkpt>
<trkpt lat="43.54724" lon="5.47366">
<ele>402.9</ele>
<time>2012-03-24T15:54:51.000Z</time>
</trkpt>
<trkpt lat="43.5473" lon="5.47366">
<ele>404.7</ele>
<time>2012-03-24T15:54:53.000Z</time>
</trkpt>
<trkpt lat="43.54735" lon="5.47368">
<ele>404.8</ele>
<time>2012-03-24T15:54:55.000Z</time>
</trkpt>
<trkpt lat="43.54741" lon="5.4737">
<ele>405.3</ele>
<time>2012-03-24T15:54:58.000Z</time>
</trkpt>
<trkpt lat="43.54746" lon="5.47372">
<ele>405.4</ele>
<time>2012-03-24T15:55:00.000Z</time>
</trkpt>
<trkpt lat="43.54754" lon="5.47375">
<ele>405.4</ele>
<time>2012-03-24T15:55:03.000Z</time>
</trkpt>
<trkpt lat="43.54761" lon="5.47377">
<ele>404.6</ele>
<time>2012-03-24T15:55:05.000Z</time>
</trkpt>
<trkpt lat="43.54765" lon="5.47379">
<ele>404.9</ele>
<time>2012-03-24T15:55:06.000Z</time>
</trkpt>
<trkpt lat="43.54771" lon="5.47384">
<ele>405.3</ele>
<time>2012-03-24T15:55:09.000Z</time>
</trkpt>
<trkpt lat="43.54777" lon="5.47389">
<ele>406</ele>
<time>2012-03-24T15:55:11.000Z</time>
</trkpt>
<trkpt lat="43.54782" lon="5.47393">
<ele>406.9</ele>
<time>2012-03-24T15:55:13.000Z</time>
</trkpt>
<trkpt lat="43.54786" lon="5.47396">
<ele>406.9</ele>
<time>2012-03-24T15:55:15.000Z</time>
</trkpt>
<trkpt lat="43.54791" lon="5.47397">
<ele>408.9</ele>
<time>2012-03-24T15:55:18.000Z</time>
</trkpt>
<trkpt lat="43.5479" lon="5.47389">
<ele>409.6</ele>
<time>2012-03-24T15:55:24.000Z</time>
</trkpt>
<trkpt lat="43.54788" lon="5.47382">
<ele>410.5</ele>
<time>2012-03-24T15:55:28.000Z</time>
</trkpt>
<trkpt lat="43.54786" lon="5.47374">
<ele>410.6</ele>
<time>2012-03-24T15:55:32.000Z</time>
</trkpt>
<trkpt lat="43.54784" lon="5.47367">
<ele>412.1</ele>
<time>2012-03-24T15:55:35.000Z</time>
</trkpt>
<trkpt lat="43.5478" lon="5.47363">
<ele>413</ele>
<time>2012-03-24T15:55:37.000Z</time>
</trkpt>
<trkpt lat="43.54777" lon="5.47357">
<ele>414.2</ele>
<time>2012-03-24T15:55:39.000Z</time>
</trkpt>
<trkpt lat="43.54771" lon="5.4735">
<ele>414.3</ele>
<time>2012-03-24T15:55:41.000Z</time>
</trkpt>
<trkpt lat="43.54771" lon="5.47341">
<ele>414.7</ele>
<time>2012-03-24T15:55:43.000Z</time>
</trkpt>
<trkpt lat="43.54773" lon="5.47331">
<ele>414.2</ele>
<time>2012-03-24T15:55:45.000Z</time>
</trkpt>
<trkpt lat="43.54776" lon="5.47323">
<ele>413.1</ele>
<time>2012-03-24T15:55:46.000Z</time>
</trkpt>
<trkpt lat="43.54779" lon="5.47318">
<ele>413.2</ele>
<time>2012-03-24T15:55:47.000Z</time>
</trkpt>
<trkpt lat="43.54783" lon="5.47314">
<ele>413.7</ele>
<time>2012-03-24T15:55:49.000Z</time>
</trkpt>
<trkpt lat="43.54788" lon="5.47308">
<ele>413.7</ele>
<time>2012-03-24T15:55:51.000Z</time>
</trkpt>
<trkpt lat="43.54792" lon="5.47303">
<ele>414.6</ele>
<time>2012-03-24T15:55:53.000Z</time>
</trkpt>
<trkpt lat="43.54796" lon="5.47298">
<ele>416.8</ele>
<time>2012-03-24T15:55:55.000Z</time>
</trkpt>
<trkpt lat="43.54801" lon="5.47292">
<ele>416.8</ele>
<time>2012-03-24T15:55:57.000Z</time>
</trkpt>
<trkpt lat="43.54806" lon="5.47286">
<ele>415.7</ele>
<time>2012-03-24T15:55:59.000Z</time>
</trkpt>
<trkpt lat="43.5481" lon="5.47283">
<ele>416.4</ele>
<time>2012-03-24T15:56:01.000Z</time>
</trkpt>
<trkpt lat="43.54816" lon="5.47278">
<ele>416.6</ele>
<time>2012-03-24T15:56:03.000Z</time>
</trkpt>
<trkpt lat="43.5482" lon="5.47276">
<ele>417.1</ele>
<time>2012-03-24T15:56:04.000Z</time>
</trkpt>
<trkpt lat="43.54826" lon="5.4727">
<ele>417.6</ele>
<time>2012-03-24T15:56:06.000Z</time>
</trkpt>
<trkpt lat="43.54832" lon="5.47264">
<ele>417.8</ele>
<time>2012-03-24T15:56:08.000Z</time>
</trkpt>
<trkpt lat="43.54836" lon="5.47258">
<ele>418.1</ele>
<time>2012-03-24T15:56:10.000Z</time>
</trkpt>
<trkpt lat="43.54842" lon="5.47252">
<ele>417.3</ele>
<time>2012-03-24T15:56:12.000Z</time>
</trkpt>
<trkpt lat="43.54847" lon="5.47247">
<ele>417.5</ele>
<time>2012-03-24T15:56:14.000Z</time>
</trkpt>
<trkpt lat="43.5485" lon="5.47243">
<ele>417.6</ele>
<time>2012-03-24T15:56:15.000Z</time>
</trkpt>
<trkpt lat="43.54853" lon="5.47238">
<ele>417.8</ele>
<time>2012-03-24T15:56:17.000Z</time>
</trkpt>
<trkpt lat="43.54857" lon="5.47232">
<ele>418.8</ele>
<time>2012-03-24T15:56:19.000Z</time>
</trkpt>
<trkpt lat="43.54862" lon="5.47227">
<ele>419</ele>
<time>2012-03-24T15:56:21.000Z</time>
</trkpt>
<trkpt lat="43.54866" lon="5.47222">
<ele>419.5</ele>
<time>2012-03-24T15:56:23.000Z</time>
</trkpt>
<trkpt lat="43.54872" lon="5.47218">
<ele>418.8</ele>
<time>2012-03-24T15:56:25.000Z</time>
</trkpt>
<trkpt lat="43.54879" lon="5.47211">
<ele>419</ele>
<time>2012-03-24T15:56:27.000Z</time>
</trkpt>
<trkpt lat="43.54882" lon="5.47206">
<ele>418.8</ele>
<time>2012-03-24T15:56:28.000Z</time>
</trkpt>
<trkpt lat="43.54886" lon="5.47201">
<ele>419.4</ele>
<time>2012-03-24T15:56:29.000Z</time>
</trkpt>
<trkpt lat="43.54891" lon="5.47197">
<ele>418.9</ele>
<time>2012-03-24T15:56:30.000Z</time>
</trkpt>
<trkpt lat="43.54898" lon="5.47187">
<ele>418.5</ele>
<time>2012-03-24T15:56:32.000Z</time>
</trkpt>
<trkpt lat="43.54902" lon="5.47181">
<ele>418.7</ele>
<time>2012-03-24T15:56:33.000Z</time>
</trkpt>
<trkpt lat="43.54905" lon="5.47174">
<ele>418.4</ele>
<time>2012-03-24T15:56:34.000Z</time>
</trkpt>
<trkpt lat="43.54911" lon="5.47167">
<ele>418.2</ele>
<time>2012-03-24T15:56:35.000Z</time>
</trkpt>
<trkpt lat="43.54916" lon="5.47162">
<ele>418.1</ele>
<time>2012-03-24T15:56:36.000Z</time>
</trkpt>
<trkpt lat="43.54924" lon="5.47157">
<ele>417</ele>
<time>2012-03-24T15:56:37.000Z</time>
</trkpt>
<trkpt lat="43.54928" lon="5.47151">
<ele>417.1</ele>
<time>2012-03-24T15:56:38.000Z</time>
</trkpt>
<trkpt lat="43.54933" lon="5.47147">
<ele>417.9</ele>
<time>2012-03-24T15:56:39.000Z</time>
</trkpt>
<trkpt lat="43.54938" lon="5.47142">
<ele>418.3</ele>
<time>2012-03-24T15:56:40.000Z</time>
</trkpt>
<trkpt lat="43.54942" lon="5.47138">
<ele>418.6</ele>
<time>2012-03-24T15:56:41.000Z</time>
</trkpt>
<trkpt lat="43.54946" lon="5.47134">
<ele>418.2</ele>
<time>2012-03-24T15:56:42.000Z</time>
</trkpt>
<trkpt lat="43.54949" lon="5.47126">
<ele>418.2</ele>
<time>2012-03-24T15:56:43.000Z</time>
</trkpt>
<trkpt lat="43.5495" lon="5.4712">
<ele>418.1</ele>
<time>2012-03-24T15:56:44.000Z</time>
</trkpt>
<trkpt lat="43.54955" lon="5.47118">
<ele>417.9</ele>
<time>2012-03-24T15:56:45.000Z</time>
</trkpt>
<trkpt lat="43.54963" lon="5.47108">
<ele>416.9</ele>
<time>2012-03-24T15:56:47.000Z</time>
</trkpt>
<trkpt lat="43.54967" lon="5.47103">
<ele>416.7</ele>
<time>2012-03-24T15:56:48.000Z</time>
</trkpt>
<trkpt lat="43.54975" lon="5.47098">
<ele>416.7</ele>
<time>2012-03-24T15:56:49.000Z</time>
</trkpt>
<trkpt lat="43.54979" lon="5.47093">
<ele>416.4</ele>
<time>2012-03-24T15:56:50.000Z</time>
</trkpt>
<trkpt lat="43.54985" lon="5.4709">
<ele>416.3</ele>
<time>2012-03-24T15:56:51.000Z</time>
</trkpt>
<trkpt lat="43.54991" lon="5.47088">
<ele>416.8</ele>
<time>2012-03-24T15:56:52.000Z</time>
</trkpt>
<trkpt lat="43.54999" lon="5.47085">
<ele>416.9</ele>
<time>2012-03-24T15:56:53.000Z</time>
</trkpt>
<trkpt lat="43.55007" lon="5.4708">
<ele>417</ele>
<time>2012-03-24T15:56:54.000Z</time>
</trkpt>
<trkpt lat="43.55018" lon="5.47072">
<ele>416.9</ele>
<time>2012-03-24T15:56:55.000Z</time>
</trkpt>
<trkpt lat="43.55023" lon="5.47067">
<ele>416.4</ele>
<time>2012-03-24T15:56:56.000Z</time>
</trkpt>
<trkpt lat="43.55028" lon="5.47064">
<ele>416.3</ele>
<time>2012-03-24T15:56:57.000Z</time>
</trkpt>
<trkpt lat="43.55035" lon="5.4706">
<ele>416.3</ele>
<time>2012-03-24T15:56:58.000Z</time>
</trkpt>
<trkpt lat="43.55044" lon="5.47052">
<ele>416</ele>
<time>2012-03-24T15:56:59.000Z</time>
</trkpt>
<trkpt lat="43.5505" lon="5.47046">
<ele>415.7</ele>
<time>2012-03-24T15:57:00.000Z</time>
</trkpt>
<trkpt lat="43.55055" lon="5.47041">
<ele>415.9</ele>
<time>2012-03-24T15:57:01.000Z</time>
</trkpt>
<trkpt lat="43.5506" lon="5.47034">
<ele>415.9</ele>
<time>2012-03-24T15:57:02.000Z</time>
</trkpt>
<trkpt lat="43.55067" lon="5.4703">
<ele>415.7</ele>
<time>2012-03-24T15:57:03.000Z</time>
</trkpt>
<trkpt lat="43.55073" lon="5.47024">
<ele>415.8</ele>
<time>2012-03-24T15:57:04.000Z</time>
</trkpt>
<trkpt lat="43.55077" lon="5.47017">
<ele>416.2</ele>
<time>2012-03-24T15:57:05.000Z</time>
</trkpt>
<trkpt lat="43.55086" lon="5.47012">
<ele>416.2</ele>
<time>2012-03-24T15:57:06.000Z</time>
</trkpt>
<trkpt lat="43.55092" lon="5.47007">
<ele>415.9</ele>
<time>2012-03-24T15:57:07.000Z</time>
</trkpt>
<trkpt lat="43.55098" lon="5.47002">
<ele>415.8</ele>
<time>2012-03-24T15:57:08.000Z</time>
</trkpt>
<trkpt lat="43.55104" lon="5.46996">
<ele>415.8</ele>
<time>2012-03-24T15:57:09.000Z</time>
</trkpt>
<trkpt lat="43.55111" lon="5.4699">
<ele>415.8</ele>
<time>2012-03-24T15:57:10.000Z</time>
</trkpt>
<trkpt lat="43.55119" lon="5.46983">
<ele>415.8</ele>
<time>2012-03-24T15:57:11.000Z</time>
</trkpt>
<trkpt lat="43.55126" lon="5.46979">
<ele>415.5</ele>
<time>2012-03-24T15:57:12.000Z</time>
</trkpt>
<trkpt lat="43.55136" lon="5.46974">
<ele>414.9</ele>
<time>2012-03-24T15:57:13.000Z</time>
</trkpt>
<trkpt lat="43.55146" lon="5.46965">
<ele>414.6</ele>
<time>2012-03-24T15:57:14.000Z</time>
</trkpt>
<trkpt lat="43.55154" lon="5.46958">
<ele>414.1</ele>
<time>2012-03-24T15:57:15.000Z</time>
</trkpt>
<trkpt lat="43.55163" lon="5.46952">
<ele>413.7</ele>
<time>2012-03-24T15:57:16.000Z</time>
</trkpt>
<trkpt lat="43.5517" lon="5.46946">
<ele>412.6</ele>
<time>2012-03-24T15:57:17.000Z</time>
</trkpt>
<trkpt lat="43.55177" lon="5.4694">
<ele>412.1</ele>
<time>2012-03-24T15:57:18.000Z</time>
</trkpt>
<trkpt lat="43.55185" lon="5.46932">
<ele>412.1</ele>
<time>2012-03-24T15:57:19.000Z</time>
</trkpt>
<trkpt lat="43.55194" lon="5.46924">
<ele>411.7</ele>
<time>2012-03-24T15:57:20.000Z</time>
</trkpt>
<trkpt lat="43.55201" lon="5.46915">
<ele>410.6</ele>
<time>2012-03-24T15:57:21.000Z</time>
</trkpt>
<trkpt lat="43.55209" lon="5.46907">
<ele>409.6</ele>
<time>2012-03-24T15:57:22.000Z</time>
</trkpt>
<trkpt lat="43.55218" lon="5.469">
<ele>409.4</ele>
<time>2012-03-24T15:57:23.000Z</time>
</trkpt>
<trkpt lat="43.55224" lon="5.46895">
<ele>409.3</ele>
<time>2012-03-24T15:57:24.000Z</time>
</trkpt>
<trkpt lat="43.55231" lon="5.46889">
<ele>409.2</ele>
<time>2012-03-24T15:57:25.000Z</time>
</trkpt>
<trkpt lat="43.55236" lon="5.46884">
<ele>408.7</ele>
<time>2012-03-24T15:57:26.000Z</time>
</trkpt>
<trkpt lat="43.55242" lon="5.46877">
<ele>408.3</ele>
<time>2012-03-24T15:57:27.000Z</time>
</trkpt>
<trkpt lat="43.55249" lon="5.46873">
<ele>407.5</ele>
<time>2012-03-24T15:57:28.000Z</time>
</trkpt>
<trkpt lat="43.55257" lon="5.46869">
<ele>406.1</ele>
<time>2012-03-24T15:57:29.000Z</time>
</trkpt>
<trkpt lat="43.55266" lon="5.46869">
<ele>405.3</ele>
<time>2012-03-24T15:57:30.000Z</time>
</trkpt>
<trkpt lat="43.55276" lon="5.46867">
<ele>403.8</ele>
<time>2012-03-24T15:57:31.000Z</time>
</trkpt>
<trkpt lat="43.55287" lon="5.46864">
<ele>403.6</ele>
<time>2012-03-24T15:57:32.000Z</time>
</trkpt>
<trkpt lat="43.55297" lon="5.4686">
<ele>403.3</ele>
<time>2012-03-24T15:57:33.000Z</time>
</trkpt>
<trkpt lat="43.55305" lon="5.46855">
<ele>403</ele>
<time>2012-03-24T15:57:34.000Z</time>
</trkpt>
<trkpt lat="43.55313" lon="5.46852">
<ele>402.7</ele>
<time>2012-03-24T15:57:35.000Z</time>
</trkpt>
<trkpt lat="43.55321" lon="5.46849">
<ele>402.1</ele>
<time>2012-03-24T15:57:36.000Z</time>
</trkpt>
<trkpt lat="43.5533" lon="5.46846">
<ele>401.8</ele>
<time>2012-03-24T15:57:37.000Z</time>
</trkpt>
<trkpt lat="43.55338" lon="5.46842">
<ele>401.8</ele>
<time>2012-03-24T15:57:38.000Z</time>
</trkpt>
<trkpt lat="43.55346" lon="5.46836">
<ele>401.7</ele>
<time>2012-03-24T15:57:39.000Z</time>
</trkpt>
<trkpt lat="43.55354" lon="5.46828">
<ele>401.3</ele>
<time>2012-03-24T15:57:40.000Z</time>
</trkpt>
<trkpt lat="43.55363" lon="5.46823">
<ele>401.6</ele>
<time>2012-03-24T15:57:41.000Z</time>
</trkpt>
<trkpt lat="43.55369" lon="5.46815">
<ele>401.5</ele>
<time>2012-03-24T15:57:42.000Z</time>
</trkpt>
<trkpt lat="43.55375" lon="5.46806">
<ele>401.3</ele>
<time>2012-03-24T15:57:43.000Z</time>
</trkpt>
<trkpt lat="43.5538" lon="5.46798">
<ele>400.9</ele>
<time>2012-03-24T15:57:44.000Z</time>
</trkpt>
<trkpt lat="43.55385" lon="5.4679">
<ele>400.9</ele>
<time>2012-03-24T15:57:45.000Z</time>
</trkpt>
<trkpt lat="43.5539" lon="5.4678">
<ele>400.2</ele>
<time>2012-03-24T15:57:46.000Z</time>
</trkpt>
<trkpt lat="43.55395" lon="5.46774">
<ele>400.1</ele>
<time>2012-03-24T15:57:47.000Z</time>
</trkpt>
<trkpt lat="43.55401" lon="5.46774">
<ele>398.1</ele>
<time>2012-03-24T15:57:48.000Z</time>
</trkpt>
<trkpt lat="43.55408" lon="5.46774">
<ele>396.1</ele>
<time>2012-03-24T15:57:51.000Z</time>
</trkpt>
<trkpt lat="43.55413" lon="5.46777">
<ele>394.8</ele>
<time>2012-03-24T15:57:53.000Z</time>
</trkpt>
<trkpt lat="43.55417" lon="5.46782">
<ele>394.7</ele>
<time>2012-03-24T15:57:55.000Z</time>
</trkpt>
<trkpt lat="43.55422" lon="5.46786">
<ele>393.8</ele>
<time>2012-03-24T15:57:57.000Z</time>
</trkpt>
<trkpt lat="43.55427" lon="5.46793">
<ele>391.8</ele>
<time>2012-03-24T15:57:59.000Z</time>
</trkpt>
<trkpt lat="43.55433" lon="5.46802">
<ele>391.4</ele>
<time>2012-03-24T15:58:01.000Z</time>
</trkpt>
<trkpt lat="43.55438" lon="5.46806">
<ele>390.2</ele>
<time>2012-03-24T15:58:03.000Z</time>
</trkpt>
<trkpt lat="43.55443" lon="5.4681">
<ele>390</ele>
<time>2012-03-24T15:58:05.000Z</time>
</trkpt>
<trkpt lat="43.55446" lon="5.46815">
<ele>389.8</ele>
<time>2012-03-24T15:58:06.000Z</time>
</trkpt>
<trkpt lat="43.55449" lon="5.46822">
<ele>389.2</ele>
<time>2012-03-24T15:58:08.000Z</time>
</trkpt>
<trkpt lat="43.55453" lon="5.4683">
<ele>389.4</ele>
<time>2012-03-24T15:58:10.000Z</time>
</trkpt>
<trkpt lat="43.55455" lon="5.46839">
<ele>389.1</ele>
<time>2012-03-24T15:58:12.000Z</time>
</trkpt>
<trkpt lat="43.55461" lon="5.46846">
<ele>388.5</ele>
<time>2012-03-24T15:58:14.000Z</time>
</trkpt>
<trkpt lat="43.55464" lon="5.46852">
<ele>387.9</ele>
<time>2012-03-24T15:58:15.000Z</time>
</trkpt>
<trkpt lat="43.55469" lon="5.4686">
<ele>387.8</ele>
<time>2012-03-24T15:58:17.000Z</time>
</trkpt>
<trkpt lat="43.55473" lon="5.46864">
<ele>387</ele>
<time>2012-03-24T15:58:18.000Z</time>
</trkpt>
<trkpt lat="43.55478" lon="5.46868">
<ele>386.4</ele>
<time>2012-03-24T15:58:19.000Z</time>
</trkpt>
<trkpt lat="43.55483" lon="5.46873">
<ele>385</ele>
<time>2012-03-24T15:58:20.000Z</time>
</trkpt>
<trkpt lat="43.55486" lon="5.46878">
<ele>384.3</ele>
<time>2012-03-24T15:58:21.000Z</time>
</trkpt>
<trkpt lat="43.5549" lon="5.46884">
<ele>383.9</ele>
<time>2012-03-24T15:58:23.000Z</time>
</trkpt>
<trkpt lat="43.55496" lon="5.46888">
<ele>383.6</ele>
<time>2012-03-24T15:58:25.000Z</time>
</trkpt>
<trkpt lat="43.55501" lon="5.46893">
<ele>381</ele>
<time>2012-03-24T15:58:29.000Z</time>
</trkpt>
<trkpt lat="43.55507" lon="5.46899">
<ele>379.2</ele>
<time>2012-03-24T15:58:32.000Z</time>
</trkpt>
<trkpt lat="43.55511" lon="5.46901">
<ele>379.1</ele>
<time>2012-03-24T15:58:34.000Z</time>
</trkpt>
<trkpt lat="43.55516" lon="5.46905">
<ele>378.9</ele>
<time>2012-03-24T15:58:36.000Z</time>
</trkpt>
<trkpt lat="43.55522" lon="5.46906">
<ele>379.1</ele>
<time>2012-03-24T15:58:38.000Z</time>
</trkpt>
<trkpt lat="43.55528" lon="5.4691">
<ele>379.3</ele>
<time>2012-03-24T15:58:40.000Z</time>
</trkpt>
<trkpt lat="43.55534" lon="5.46914">
<ele>379.3</ele>
<time>2012-03-24T15:58:42.000Z</time>
</trkpt>
<trkpt lat="43.55541" lon="5.46922">
<ele>379.2</ele>
<time>2012-03-24T15:58:44.000Z</time>
</trkpt>
<trkpt lat="43.55546" lon="5.46929">
<ele>378.4</ele>
<time>2012-03-24T15:58:46.000Z</time>
</trkpt>
<trkpt lat="43.55551" lon="5.46933">
<ele>378.5</ele>
<time>2012-03-24T15:58:47.000Z</time>
</trkpt>
<trkpt lat="43.55554" lon="5.46939">
<ele>378</ele>
<time>2012-03-24T15:58:48.000Z</time>
</trkpt>
<trkpt lat="43.55558" lon="5.46945">
<ele>377.4</ele>
<time>2012-03-24T15:58:49.000Z</time>
</trkpt>
<trkpt lat="43.55561" lon="5.4695">
<ele>377.2</ele>
<time>2012-03-24T15:58:50.000Z</time>
</trkpt>
<trkpt lat="43.55565" lon="5.46956">
<ele>377.3</ele>
<time>2012-03-24T15:58:51.000Z</time>
</trkpt>
<trkpt lat="43.55568" lon="5.46962">
<ele>377</ele>
<time>2012-03-24T15:58:52.000Z</time>
</trkpt>
<trkpt lat="43.55576" lon="5.46972">
<ele>377.4</ele>
<time>2012-03-24T15:58:54.000Z</time>
</trkpt>
<trkpt lat="43.55581" lon="5.46982">
<ele>377.9</ele>
<time>2012-03-24T15:58:56.000Z</time>
</trkpt>
<trkpt lat="43.55584" lon="5.46987">
<ele>377.9</ele>
<time>2012-03-24T15:58:57.000Z</time>
</trkpt>
<trkpt lat="43.55589" lon="5.46992">
<ele>377.9</ele>
<time>2012-03-24T15:58:58.000Z</time>
</trkpt>
<trkpt lat="43.55594" lon="5.46997">
<ele>377.9</ele>
<time>2012-03-24T15:58:59.000Z</time>
</trkpt>
<trkpt lat="43.55597" lon="5.47002">
<ele>377.7</ele>
<time>2012-03-24T15:59:00.000Z</time>
</trkpt>
<trkpt lat="43.55602" lon="5.47005">
<ele>377.4</ele>
<time>2012-03-24T15:59:01.000Z</time>
</trkpt>
<trkpt lat="43.5561" lon="5.47011">
<ele>376.8</ele>
<time>2012-03-24T15:59:02.000Z</time>
</trkpt>
<trkpt lat="43.55614" lon="5.47013">
<ele>376.7</ele>
<time>2012-03-24T15:59:03.000Z</time>
</trkpt>
<trkpt lat="43.55622" lon="5.47013">
<ele>376.7</ele>
<time>2012-03-24T15:59:04.000Z</time>
</trkpt>
<trkpt lat="43.55628" lon="5.47015">
<ele>376.7</ele>
<time>2012-03-24T15:59:05.000Z</time>
</trkpt>
<trkpt lat="43.55634" lon="5.47018">
<ele>376.4</ele>
<time>2012-03-24T15:59:06.000Z</time>
</trkpt>
<trkpt lat="43.5564" lon="5.4702">
<ele>376.2</ele>
<time>2012-03-24T15:59:07.000Z</time>
</trkpt>
<trkpt lat="43.55646" lon="5.47022">
<ele>376.2</ele>
<time>2012-03-24T15:59:08.000Z</time>
</trkpt>
<trkpt lat="43.55652" lon="5.47024">
<ele>376.2</ele>
<time>2012-03-24T15:59:09.000Z</time>
</trkpt>
<trkpt lat="43.55658" lon="5.47026">
<ele>376.4</ele>
<time>2012-03-24T15:59:10.000Z</time>
</trkpt>
<trkpt lat="43.55665" lon="5.47028">
<ele>376.7</ele>
<time>2012-03-24T15:59:11.000Z</time>
</trkpt>
<trkpt lat="43.55672" lon="5.47027">
<ele>376.1</ele>
<time>2012-03-24T15:59:12.000Z</time>
</trkpt>
<trkpt lat="43.55679" lon="5.47029">
<ele>375.8</ele>
<time>2012-03-24T15:59:13.000Z</time>
</trkpt>
<trkpt lat="43.55686" lon="5.4703">
<ele>376.1</ele>
<time>2012-03-24T15:59:14.000Z</time>
</trkpt>
<trkpt lat="43.55691" lon="5.4703">
<ele>376.1</ele>
<time>2012-03-24T15:59:15.000Z</time>
</trkpt>
<trkpt lat="43.55697" lon="5.47032">
<ele>376.3</ele>
<time>2012-03-24T15:59:16.000Z</time>
</trkpt>
<trkpt lat="43.55706" lon="5.4703">
<ele>376.5</ele>
<time>2012-03-24T15:59:17.000Z</time>
</trkpt>
<trkpt lat="43.55712" lon="5.47025">
<ele>376.7</ele>
<time>2012-03-24T15:59:18.000Z</time>
</trkpt>
<trkpt lat="43.5572" lon="5.47025">
<ele>376</ele>
<time>2012-03-24T15:59:19.000Z</time>
</trkpt>
<trkpt lat="43.55728" lon="5.47029">
<ele>376</ele>
<time>2012-03-24T15:59:20.000Z</time>
</trkpt>
<trkpt lat="43.55728" lon="5.47036">
<ele>376.3</ele>
<time>2012-03-24T15:59:21.000Z</time>
</trkpt>
<trkpt lat="43.55733" lon="5.47044">
<ele>376.8</ele>
<time>2012-03-24T15:59:22.000Z</time>
</trkpt>
<trkpt lat="43.5574" lon="5.47051">
<ele>376.7</ele>
<time>2012-03-24T15:59:23.000Z</time>
</trkpt>
<trkpt lat="43.55745" lon="5.47057">
<ele>376.7</ele>
<time>2012-03-24T15:59:24.000Z</time>
</trkpt>
<trkpt lat="43.5575" lon="5.47064">
<ele>376.8</ele>
<time>2012-03-24T15:59:25.000Z</time>
</trkpt>
<trkpt lat="43.55755" lon="5.47068">
<ele>376.6</ele>
<time>2012-03-24T15:59:26.000Z</time>
</trkpt>
<trkpt lat="43.5576" lon="5.47072">
<ele>376.7</ele>
<time>2012-03-24T15:59:27.000Z</time>
</trkpt>
<trkpt lat="43.55764" lon="5.47077">
<ele>376.2</ele>
<time>2012-03-24T15:59:28.000Z</time>
</trkpt>
<trkpt lat="43.55769" lon="5.47084">
<ele>376.3</ele>
<time>2012-03-24T15:59:29.000Z</time>
</trkpt>
<trkpt lat="43.55775" lon="5.47091">
<ele>376.7</ele>
<time>2012-03-24T15:59:30.000Z</time>
</trkpt>
<trkpt lat="43.55778" lon="5.47099">
<ele>376.5</ele>
<time>2012-03-24T15:59:31.000Z</time>
</trkpt>
<trkpt lat="43.55783" lon="5.47111">
<ele>376.1</ele>
<time>2012-03-24T15:59:33.000Z</time>
</trkpt>
<trkpt lat="43.55787" lon="5.47117">
<ele>375.9</ele>
<time>2012-03-24T15:59:34.000Z</time>
</trkpt>
<trkpt lat="43.55791" lon="5.47124">
<ele>375.1</ele>
<time>2012-03-24T15:59:35.000Z</time>
</trkpt>
<trkpt lat="43.55798" lon="5.47129">
<ele>375.2</ele>
<time>2012-03-24T15:59:36.000Z</time>
</trkpt>
<trkpt lat="43.55802" lon="5.47133">
<ele>375.1</ele>
<time>2012-03-24T15:59:37.000Z</time>
</trkpt>
<trkpt lat="43.5581" lon="5.47136">
<ele>374.8</ele>
<time>2012-03-24T15:59:38.000Z</time>
</trkpt>
<trkpt lat="43.55814" lon="5.47138">
<ele>374.9</ele>
<time>2012-03-24T15:59:39.000Z</time>
</trkpt>
<trkpt lat="43.55818" lon="5.47142">
<ele>374.4</ele>
<time>2012-03-24T15:59:40.000Z</time>
</trkpt>
<trkpt lat="43.55824" lon="5.47149">
<ele>373.8</ele>
<time>2012-03-24T15:59:42.000Z</time>
</trkpt>
<trkpt lat="43.5583" lon="5.47152">
<ele>373.6</ele>
<time>2012-03-24T15:59:43.000Z</time>
</trkpt>
<trkpt lat="43.55835" lon="5.47153">
<ele>373.6</ele>
<time>2012-03-24T15:59:44.000Z</time>
</trkpt>
<trkpt lat="43.55846" lon="5.47156">
<ele>373.3</ele>
<time>2012-03-24T15:59:45.000Z</time>
</trkpt>
<trkpt lat="43.55853" lon="5.4716">
<ele>373.2</ele>
<time>2012-03-24T15:59:46.000Z</time>
</trkpt>
<trkpt lat="43.55859" lon="5.47162">
<ele>372.8</ele>
<time>2012-03-24T15:59:47.000Z</time>
</trkpt>
<trkpt lat="43.55866" lon="5.47165">
<ele>372.8</ele>
<time>2012-03-24T15:59:48.000Z</time>
</trkpt>
<trkpt lat="43.55871" lon="5.47165">
<ele>373</ele>
<time>2012-03-24T15:59:49.000Z</time>
</trkpt>
<trkpt lat="43.55878" lon="5.4717">
<ele>370.2</ele>
<time>2012-03-24T15:59:50.000Z</time>
</trkpt>
<trkpt lat="43.55882" lon="5.47172">
<ele>369.2</ele>
<time>2012-03-24T15:59:51.000Z</time>
</trkpt>
<trkpt lat="43.55888" lon="5.47175">
<ele>368.3</ele>
<time>2012-03-24T15:59:52.000Z</time>
</trkpt>
<trkpt lat="43.55893" lon="5.47178">
<ele>366.9</ele>
<time>2012-03-24T15:59:53.000Z</time>
</trkpt>
<trkpt lat="43.55899" lon="5.4718">
<ele>365.2</ele>
<time>2012-03-24T15:59:54.000Z</time>
</trkpt>
<trkpt lat="43.55905" lon="5.47182">
<ele>365.1</ele>
<time>2012-03-24T15:59:55.000Z</time>
</trkpt>
<trkpt lat="43.55911" lon="5.47183">
<ele>364.9</ele>
<time>2012-03-24T15:59:56.000Z</time>
</trkpt>
<trkpt lat="43.55916" lon="5.47184">
<ele>364.8</ele>
<time>2012-03-24T15:59:57.000Z</time>
</trkpt>
<trkpt lat="43.55923" lon="5.47185">
<ele>364.6</ele>
<time>2012-03-24T15:59:58.000Z</time>
</trkpt>
<trkpt lat="43.55929" lon="5.47187">
<ele>364.5</ele>
<time>2012-03-24T15:59:59.000Z</time>
</trkpt>
<trkpt lat="43.55935" lon="5.47188">
<ele>364.6</ele>
<time>2012-03-24T16:00:00.000Z</time>
</trkpt>
<trkpt lat="43.5594" lon="5.47191">
<ele>364.5</ele>
<time>2012-03-24T16:00:01.000Z</time>
</trkpt>
<trkpt lat="43.55946" lon="5.47194">
<ele>364.1</ele>
<time>2012-03-24T16:00:02.000Z</time>
</trkpt>
<trkpt lat="43.55949" lon="5.47198">
<ele>364</ele>
<time>2012-03-24T16:00:03.000Z</time>
</trkpt>
<trkpt lat="43.55956" lon="5.47202">
<ele>364.1</ele>
<time>2012-03-24T16:00:04.000Z</time>
</trkpt>
<trkpt lat="43.55962" lon="5.47206">
<ele>364.1</ele>
<time>2012-03-24T16:00:05.000Z</time>
</trkpt>
<trkpt lat="43.55966" lon="5.4721">
<ele>364</ele>
<time>2012-03-24T16:00:06.000Z</time>
</trkpt>
<trkpt lat="43.55972" lon="5.47214">
<ele>363.9</ele>
<time>2012-03-24T16:00:07.000Z</time>
</trkpt>
<trkpt lat="43.55977" lon="5.47217">
<ele>364.2</ele>
<time>2012-03-24T16:00:08.000Z</time>
</trkpt>
<trkpt lat="43.55987" lon="5.47222">
<ele>363.9</ele>
<time>2012-03-24T16:00:10.000Z</time>
</trkpt>
<trkpt lat="43.55992" lon="5.47227">
<ele>363.8</ele>
<time>2012-03-24T16:00:11.000Z</time>
</trkpt>
<trkpt lat="43.55998" lon="5.47229">
<ele>364</ele>
<time>2012-03-24T16:00:12.000Z</time>
</trkpt>
<trkpt lat="43.56002" lon="5.47233">
<ele>364.3</ele>
<time>2012-03-24T16:00:13.000Z</time>
</trkpt>
<trkpt lat="43.56009" lon="5.47237">
<ele>364.1</ele>
<time>2012-03-24T16:00:14.000Z</time>
</trkpt>
<trkpt lat="43.56014" lon="5.4724">
<ele>364.5</ele>
<time>2012-03-24T16:00:15.000Z</time>
</trkpt>
<trkpt lat="43.56019" lon="5.47244">
<ele>364.2</ele>
<time>2012-03-24T16:00:16.000Z</time>
</trkpt>
<trkpt lat="43.56028" lon="5.47248">
<ele>364.2</ele>
<time>2012-03-24T16:00:17.000Z</time>
</trkpt>
<trkpt lat="43.56034" lon="5.47252">
<ele>364</ele>
<time>2012-03-24T16:00:18.000Z</time>
</trkpt>
<trkpt lat="43.56038" lon="5.47255">
<ele>364</ele>
<time>2012-03-24T16:00:19.000Z</time>
</trkpt>
<trkpt lat="43.56044" lon="5.47258">
<ele>364.1</ele>
<time>2012-03-24T16:00:20.000Z</time>
</trkpt>
<trkpt lat="43.56049" lon="5.47261">
<ele>364.1</ele>
<time>2012-03-24T16:00:21.000Z</time>
</trkpt>
<trkpt lat="43.56053" lon="5.47265">
<ele>363.9</ele>
<time>2012-03-24T16:00:22.000Z</time>
</trkpt>
<trkpt lat="43.56059" lon="5.47269">
<ele>363.4</ele>
<time>2012-03-24T16:00:23.000Z</time>
</trkpt>
<trkpt lat="43.56064" lon="5.47272">
<ele>363.1</ele>
<time>2012-03-24T16:00:24.000Z</time>
</trkpt>
<trkpt lat="43.56069" lon="5.47275">
<ele>362.7</ele>
<time>2012-03-24T16:00:25.000Z</time>
</trkpt>
<trkpt lat="43.56074" lon="5.47277">
<ele>362.9</ele>
<time>2012-03-24T16:00:26.000Z</time>
</trkpt>
<trkpt lat="43.56078" lon="5.47279">
<ele>362.9</ele>
<time>2012-03-24T16:00:27.000Z</time>
</trkpt>
<trkpt lat="43.56084" lon="5.47281">
<ele>363</ele>
<time>2012-03-24T16:00:28.000Z</time>
</trkpt>
<trkpt lat="43.5609" lon="5.47283">
<ele>363.2</ele>
<time>2012-03-24T16:00:29.000Z</time>
</trkpt>
<trkpt lat="43.56097" lon="5.47285">
<ele>363.5</ele>
<time>2012-03-24T16:00:30.000Z</time>
</trkpt>
<trkpt lat="43.56103" lon="5.47288">
<ele>363.4</ele>
<time>2012-03-24T16:00:31.000Z</time>
</trkpt>
<trkpt lat="43.56107" lon="5.4729">
<ele>363.2</ele>
<time>2012-03-24T16:00:32.000Z</time>
</trkpt>
<trkpt lat="43.56113" lon="5.47292">
<ele>363.2</ele>
<time>2012-03-24T16:00:33.000Z</time>
</trkpt>
<trkpt lat="43.56118" lon="5.47295">
<ele>363.3</ele>
<time>2012-03-24T16:00:34.000Z</time>
</trkpt>
<trkpt lat="43.56121" lon="5.47301">
<ele>363.1</ele>
<time>2012-03-24T16:00:35.000Z</time>
</trkpt>
<trkpt lat="43.56125" lon="5.47305">
<ele>363.2</ele>
<time>2012-03-24T16:00:36.000Z</time>
</trkpt>
<trkpt lat="43.56131" lon="5.4731">
<ele>362.7</ele>
<time>2012-03-24T16:00:37.000Z</time>
</trkpt>
<trkpt lat="43.56134" lon="5.47314">
<ele>362.9</ele>
<time>2012-03-24T16:00:38.000Z</time>
</trkpt>
<trkpt lat="43.56139" lon="5.4732">
<ele>363</ele>
<time>2012-03-24T16:00:39.000Z</time>
</trkpt>
<trkpt lat="43.56143" lon="5.47325">
<ele>363</ele>
<time>2012-03-24T16:00:40.000Z</time>
</trkpt>
<trkpt lat="43.56148" lon="5.4733">
<ele>362.9</ele>
<time>2012-03-24T16:00:41.000Z</time>
</trkpt>
<trkpt lat="43.56152" lon="5.47332">
<ele>363</ele>
<time>2012-03-24T16:00:42.000Z</time>
</trkpt>
<trkpt lat="43.56157" lon="5.47336">
<ele>362.6</ele>
<time>2012-03-24T16:00:43.000Z</time>
</trkpt>
<trkpt lat="43.5616" lon="5.47341">
<ele>362.6</ele>
<time>2012-03-24T16:00:44.000Z</time>
</trkpt>
<trkpt lat="43.56163" lon="5.47347">
<ele>362.5</ele>
<time>2012-03-24T16:00:45.000Z</time>
</trkpt>
<trkpt lat="43.5617" lon="5.47354">
<ele>362.1</ele>
<time>2012-03-24T16:00:47.000Z</time>
</trkpt>
<trkpt lat="43.56176" lon="5.47357">
<ele>362.3</ele>
<time>2012-03-24T16:00:48.000Z</time>
</trkpt>
<trkpt lat="43.56179" lon="5.47362">
<ele>362</ele>
<time>2012-03-24T16:00:49.000Z</time>
</trkpt>
<trkpt lat="43.56184" lon="5.47368">
<ele>362.1</ele>
<time>2012-03-24T16:00:50.000Z</time>
</trkpt>
<trkpt lat="43.56189" lon="5.47374">
<ele>361.9</ele>
<time>2012-03-24T16:00:51.000Z</time>
</trkpt>
<trkpt lat="43.56194" lon="5.47377">
<ele>361.7</ele>
<time>2012-03-24T16:00:52.000Z</time>
</trkpt>
<trkpt lat="43.56197" lon="5.47381">
<ele>361.9</ele>
<time>2012-03-24T16:00:53.000Z</time>
</trkpt>
<trkpt lat="43.56202" lon="5.47386">
<ele>361.5</ele>
<time>2012-03-24T16:00:54.000Z</time>
</trkpt>
<trkpt lat="43.56206" lon="5.4739">
<ele>361.7</ele>
<time>2012-03-24T16:00:55.000Z</time>
</trkpt>
<trkpt lat="43.56211" lon="5.47394">
<ele>362</ele>
<time>2012-03-24T16:00:56.000Z</time>
</trkpt>
<trkpt lat="43.56214" lon="5.47399">
<ele>362.2</ele>
<time>2012-03-24T16:00:57.000Z</time>
</trkpt>
<trkpt lat="43.56219" lon="5.47403">
<ele>362.1</ele>
<time>2012-03-24T16:00:58.000Z</time>
</trkpt>
<trkpt lat="43.56223" lon="5.47406">
<ele>362.2</ele>
<time>2012-03-24T16:00:59.000Z</time>
</trkpt>
<trkpt lat="43.5623" lon="5.47415">
<ele>362.8</ele>
<time>2012-03-24T16:01:01.000Z</time>
</trkpt>
<trkpt lat="43.56233" lon="5.4742">
<ele>363.1</ele>
<time>2012-03-24T16:01:02.000Z</time>
</trkpt>
<trkpt lat="43.56237" lon="5.47428">
<ele>363.1</ele>
<time>2012-03-24T16:01:04.000Z</time>
</trkpt>
<trkpt lat="43.56244" lon="5.47435">
<ele>362.6</ele>
<time>2012-03-24T16:01:06.000Z</time>
</trkpt>
<trkpt lat="43.56247" lon="5.47442">
<ele>363</ele>
<time>2012-03-24T16:01:08.000Z</time>
</trkpt>
<trkpt lat="43.56252" lon="5.47445">
<ele>362.8</ele>
<time>2012-03-24T16:01:09.000Z</time>
</trkpt>
<trkpt lat="43.56258" lon="5.47446">
<ele>363.3</ele>
<time>2012-03-24T16:01:11.000Z</time>
</trkpt>
<trkpt lat="43.56263" lon="5.47437">
<ele>363.9</ele>
<time>2012-03-24T16:01:13.000Z</time>
</trkpt>
<trkpt lat="43.56264" lon="5.4743">
<ele>364.1</ele>
<time>2012-03-24T16:01:15.000Z</time>
</trkpt>
<trkpt lat="43.56267" lon="5.4742">
<ele>365.1</ele>
<time>2012-03-24T16:01:17.000Z</time>
</trkpt>
<trkpt lat="43.56269" lon="5.4741">
<ele>364.6</ele>
<time>2012-03-24T16:01:19.000Z</time>
</trkpt>
<trkpt lat="43.56271" lon="5.474">
<ele>364.6</ele>
<time>2012-03-24T16:01:21.000Z</time>
</trkpt>
<trkpt lat="43.56272" lon="5.47393">
<ele>364.3</ele>
<time>2012-03-24T16:01:22.000Z</time>
</trkpt>
<trkpt lat="43.56273" lon="5.47386">
<ele>364.1</ele>
<time>2012-03-24T16:01:23.000Z</time>
</trkpt>
<trkpt lat="43.56277" lon="5.4738">
<ele>365</ele>
<time>2012-03-24T16:01:24.000Z</time>
</trkpt>
<trkpt lat="43.5628" lon="5.47369">
<ele>364.5</ele>
<time>2012-03-24T16:01:26.000Z</time>
</trkpt>
<trkpt lat="43.56282" lon="5.47362">
<ele>363.5</ele>
<time>2012-03-24T16:01:27.000Z</time>
</trkpt>
<trkpt lat="43.56284" lon="5.47354">
<ele>362.8</ele>
<time>2012-03-24T16:01:28.000Z</time>
</trkpt>
<trkpt lat="43.56285" lon="5.47347">
<ele>362.3</ele>
<time>2012-03-24T16:01:29.000Z</time>
</trkpt>
<trkpt lat="43.56287" lon="5.4734">
<ele>361.8</ele>
<time>2012-03-24T16:01:30.000Z</time>
</trkpt>
<trkpt lat="43.56289" lon="5.47332">
<ele>361.4</ele>
<time>2012-03-24T16:01:31.000Z</time>
</trkpt>
<trkpt lat="43.5629" lon="5.47324">
<ele>361.4</ele>
<time>2012-03-24T16:01:32.000Z</time>
</trkpt>
<trkpt lat="43.5629" lon="5.47317">
<ele>360.9</ele>
<time>2012-03-24T16:01:33.000Z</time>
</trkpt>
<trkpt lat="43.56291" lon="5.4731">
<ele>360.7</ele>
<time>2012-03-24T16:01:34.000Z</time>
</trkpt>
<trkpt lat="43.56292" lon="5.47303">
<ele>360.3</ele>
<time>2012-03-24T16:01:35.000Z</time>
</trkpt>
<trkpt lat="43.56291" lon="5.47295">
<ele>361.2</ele>
<time>2012-03-24T16:01:36.000Z</time>
</trkpt>
<trkpt lat="43.56291" lon="5.47287">
<ele>361.4</ele>
<time>2012-03-24T16:01:37.000Z</time>
</trkpt>
<trkpt lat="43.56293" lon="5.47279">
<ele>361.3</ele>
<time>2012-03-24T16:01:38.000Z</time>
</trkpt>
<trkpt lat="43.56294" lon="5.47272">
<ele>360.9</ele>
<time>2012-03-24T16:01:39.000Z</time>
</trkpt>
<trkpt lat="43.56296" lon="5.47264">
<ele>360.4</ele>
<time>2012-03-24T16:01:40.000Z</time>
</trkpt>
<trkpt lat="43.56295" lon="5.47256">
<ele>360.8</ele>
<time>2012-03-24T16:01:41.000Z</time>
</trkpt>
<trkpt lat="43.56297" lon="5.47249">
<ele>360.3</ele>
<time>2012-03-24T16:01:42.000Z</time>
</trkpt>
<trkpt lat="43.56298" lon="5.4724">
<ele>360.8</ele>
<time>2012-03-24T16:01:43.000Z</time>
</trkpt>
<trkpt lat="43.56299" lon="5.47233">
<ele>361</ele>
<time>2012-03-24T16:01:44.000Z</time>
</trkpt>
<trkpt lat="43.563" lon="5.47226">
<ele>361.4</ele>
<time>2012-03-24T16:01:45.000Z</time>
</trkpt>
<trkpt lat="43.56301" lon="5.47218">
<ele>361.6</ele>
<time>2012-03-24T16:01:46.000Z</time>
</trkpt>
<trkpt lat="43.56303" lon="5.47209">
<ele>361.9</ele>
<time>2012-03-24T16:01:47.000Z</time>
</trkpt>
<trkpt lat="43.56303" lon="5.47201">
<ele>362.2</ele>
<time>2012-03-24T16:01:48.000Z</time>
</trkpt>
<trkpt lat="43.56304" lon="5.47192">
<ele>362.6</ele>
<time>2012-03-24T16:01:49.000Z</time>
</trkpt>
<trkpt lat="43.56304" lon="5.47185">
<ele>363</ele>
<time>2012-03-24T16:01:50.000Z</time>
</trkpt>
<trkpt lat="43.56305" lon="5.47177">
<ele>363</ele>
<time>2012-03-24T16:01:51.000Z</time>
</trkpt>
<trkpt lat="43.56307" lon="5.47169">
<ele>363.3</ele>
<time>2012-03-24T16:01:52.000Z</time>
</trkpt>
<trkpt lat="43.56308" lon="5.47161">
<ele>362.9</ele>
<time>2012-03-24T16:01:53.000Z</time>
</trkpt>
<trkpt lat="43.56309" lon="5.47154">
<ele>362.9</ele>
<time>2012-03-24T16:01:54.000Z</time>
</trkpt>
<trkpt lat="43.5631" lon="5.47146">
<ele>362.7</ele>
<time>2012-03-24T16:01:55.000Z</time>
</trkpt>
<trkpt lat="43.56311" lon="5.47139">
<ele>362.6</ele>
<time>2012-03-24T16:01:56.000Z</time>
</trkpt>
<trkpt lat="43.56313" lon="5.47131">
<ele>362.9</ele>
<time>2012-03-24T16:01:57.000Z</time>
</trkpt>
<trkpt lat="43.56313" lon="5.47123">
<ele>362.7</ele>
<time>2012-03-24T16:01:58.000Z</time>
</trkpt>
<trkpt lat="43.56314" lon="5.47114">
<ele>362.3</ele>
<time>2012-03-24T16:01:59.000Z</time>
</trkpt>
<trkpt lat="43.56315" lon="5.47106">
<ele>362.2</ele>
<time>2012-03-24T16:02:00.000Z</time>
</trkpt>
<trkpt lat="43.56314" lon="5.47097">
<ele>362.5</ele>
<time>2012-03-24T16:02:01.000Z</time>
</trkpt>
<trkpt lat="43.56314" lon="5.47091">
<ele>362.5</ele>
<time>2012-03-24T16:02:02.000Z</time>
</trkpt>
<trkpt lat="43.56314" lon="5.47083">
<ele>362</ele>
<time>2012-03-24T16:02:03.000Z</time>
</trkpt>
<trkpt lat="43.56314" lon="5.47075">
<ele>361.7</ele>
<time>2012-03-24T16:02:04.000Z</time>
</trkpt>
<trkpt lat="43.56316" lon="5.47068">
<ele>361.3</ele>
<time>2012-03-24T16:02:05.000Z</time>
</trkpt>
<trkpt lat="43.56317" lon="5.4706">
<ele>361.1</ele>
<time>2012-03-24T16:02:06.000Z</time>
</trkpt>
<trkpt lat="43.56317" lon="5.47051">
<ele>361.3</ele>
<time>2012-03-24T16:02:07.000Z</time>
</trkpt>
<trkpt lat="43.56318" lon="5.47044">
<ele>361</ele>
<time>2012-03-24T16:02:08.000Z</time>
</trkpt>
<trkpt lat="43.56319" lon="5.47036">
<ele>360.9</ele>
<time>2012-03-24T16:02:09.000Z</time>
</trkpt>
<trkpt lat="43.56319" lon="5.47027">
<ele>361.1</ele>
<time>2012-03-24T16:02:10.000Z</time>
</trkpt>
<trkpt lat="43.56319" lon="5.47019">
<ele>360.6</ele>
<time>2012-03-24T16:02:11.000Z</time>
</trkpt>
<trkpt lat="43.56317" lon="5.47011">
<ele>361</ele>
<time>2012-03-24T16:02:12.000Z</time>
</trkpt>
<trkpt lat="43.56316" lon="5.47003">
<ele>361</ele>
<time>2012-03-24T16:02:13.000Z</time>
</trkpt>
<trkpt lat="43.56313" lon="5.46996">
<ele>360.6</ele>
<time>2012-03-24T16:02:14.000Z</time>
</trkpt>
<trkpt lat="43.5631" lon="5.46988">
<ele>360</ele>
<time>2012-03-24T16:02:15.000Z</time>
</trkpt>
<trkpt lat="43.56308" lon="5.46982">
<ele>360.2</ele>
<time>2012-03-24T16:02:16.000Z</time>
</trkpt>
<trkpt lat="43.56304" lon="5.46975">
<ele>360.1</ele>
<time>2012-03-24T16:02:17.000Z</time>
</trkpt>
<trkpt lat="43.56301" lon="5.46968">
<ele>360.3</ele>
<time>2012-03-24T16:02:18.000Z</time>
</trkpt>
<trkpt lat="43.56298" lon="5.46961">
<ele>360.2</ele>
<time>2012-03-24T16:02:19.000Z</time>
</trkpt>
<trkpt lat="43.56296" lon="5.46953">
<ele>360.5</ele>
<time>2012-03-24T16:02:20.000Z</time>
</trkpt>
<trkpt lat="43.56292" lon="5.46948">
<ele>360.7</ele>
<time>2012-03-24T16:02:21.000Z</time>
</trkpt>
<trkpt lat="43.5629" lon="5.46941">
<ele>360.8</ele>
<time>2012-03-24T16:02:22.000Z</time>
</trkpt>
<trkpt lat="43.56286" lon="5.46934">
<ele>361.4</ele>
<time>2012-03-24T16:02:23.000Z</time>
</trkpt>
<trkpt lat="43.56284" lon="5.46928">
<ele>361.3</ele>
<time>2012-03-24T16:02:24.000Z</time>
</trkpt>
<trkpt lat="43.56282" lon="5.46921">
<ele>361.6</ele>
<time>2012-03-24T16:02:25.000Z</time>
</trkpt>
<trkpt lat="43.56279" lon="5.46915">
<ele>361.2</ele>
<time>2012-03-24T16:02:26.000Z</time>
</trkpt>
<trkpt lat="43.56277" lon="5.46909">
<ele>361.1</ele>
<time>2012-03-24T16:02:27.000Z</time>
</trkpt>
<trkpt lat="43.56273" lon="5.46902">
<ele>361.4</ele>
<time>2012-03-24T16:02:28.000Z</time>
</trkpt>
<trkpt lat="43.56271" lon="5.46895">
<ele>361.2</ele>
<time>2012-03-24T16:02:29.000Z</time>
</trkpt>
<trkpt lat="43.56269" lon="5.46888">
<ele>360.9</ele>
<time>2012-03-24T16:02:30.000Z</time>
</trkpt>
<trkpt lat="43.56267" lon="5.46881">
<ele>360.7</ele>
<time>2012-03-24T16:02:31.000Z</time>
</trkpt>
<trkpt lat="43.56264" lon="5.46875">
<ele>360.2</ele>
<time>2012-03-24T16:02:32.000Z</time>
</trkpt>
<trkpt lat="43.5626" lon="5.46868">
<ele>360.5</ele>
<time>2012-03-24T16:02:33.000Z</time>
</trkpt>
<trkpt lat="43.56257" lon="5.4686">
<ele>360.3</ele>
<time>2012-03-24T16:02:34.000Z</time>
</trkpt>
<trkpt lat="43.56255" lon="5.46854">
<ele>360.4</ele>
<time>2012-03-24T16:02:35.000Z</time>
</trkpt>
<trkpt lat="43.56254" lon="5.46846">
<ele>360.5</ele>
<time>2012-03-24T16:02:36.000Z</time>
</trkpt>
<trkpt lat="43.56251" lon="5.46838">
<ele>360.2</ele>
<time>2012-03-24T16:02:37.000Z</time>
</trkpt>
<trkpt lat="43.56248" lon="5.46832">
<ele>360.2</ele>
<time>2012-03-24T16:02:38.000Z</time>
</trkpt>
<trkpt lat="43.56246" lon="5.46824">
<ele>359.9</ele>
<time>2012-03-24T16:02:39.000Z</time>
</trkpt>
<trkpt lat="43.56246" lon="5.46815">
<ele>360</ele>
<time>2012-03-24T16:02:40.000Z</time>
</trkpt>
<trkpt lat="43.56244" lon="5.46808">
<ele>360</ele>
<time>2012-03-24T16:02:41.000Z</time>
</trkpt>
<trkpt lat="43.56242" lon="5.46801">
<ele>360.1</ele>
<time>2012-03-24T16:02:42.000Z</time>
</trkpt>
<trkpt lat="43.5624" lon="5.46794">
<ele>360.3</ele>
<time>2012-03-24T16:02:43.000Z</time>
</trkpt>
<trkpt lat="43.56238" lon="5.46786">
<ele>360.2</ele>
<time>2012-03-24T16:02:44.000Z</time>
</trkpt>
<trkpt lat="43.56237" lon="5.46778">
<ele>360.1</ele>
<time>2012-03-24T16:02:45.000Z</time>
</trkpt>
<trkpt lat="43.56236" lon="5.4677">
<ele>359.7</ele>
<time>2012-03-24T16:02:46.000Z</time>
</trkpt>
<trkpt lat="43.56234" lon="5.46762">
<ele>359.5</ele>
<time>2012-03-24T16:02:47.000Z</time>
</trkpt>
<trkpt lat="43.56231" lon="5.46755">
<ele>359.6</ele>
<time>2012-03-24T16:02:48.000Z</time>
</trkpt>
<trkpt lat="43.56228" lon="5.4675">
<ele>359.7</ele>
<time>2012-03-24T16:02:49.000Z</time>
</trkpt>
<trkpt lat="43.56225" lon="5.46742">
<ele>360</ele>
<time>2012-03-24T16:02:50.000Z</time>
</trkpt>
<trkpt lat="43.56222" lon="5.46736">
<ele>360.3</ele>
<time>2012-03-24T16:02:51.000Z</time>
</trkpt>
<trkpt lat="43.56219" lon="5.4673">
<ele>360.4</ele>
<time>2012-03-24T16:02:52.000Z</time>
</trkpt>
<trkpt lat="43.56217" lon="5.46722">
<ele>360.5</ele>
<time>2012-03-24T16:02:53.000Z</time>
</trkpt>
<trkpt lat="43.56213" lon="5.46716">
<ele>360.4</ele>
<time>2012-03-24T16:02:54.000Z</time>
</trkpt>
<trkpt lat="43.56212" lon="5.46709">
<ele>360.2</ele>
<time>2012-03-24T16:02:55.000Z</time>
</trkpt>
<trkpt lat="43.56209" lon="5.46701">
<ele>360</ele>
<time>2012-03-24T16:02:56.000Z</time>
</trkpt>
<trkpt lat="43.56205" lon="5.46693">
<ele>360.1</ele>
<time>2012-03-24T16:02:57.000Z</time>
</trkpt>
<trkpt lat="43.56202" lon="5.46686">
<ele>359.9</ele>
<time>2012-03-24T16:02:58.000Z</time>
</trkpt>
<trkpt lat="43.56199" lon="5.4668">
<ele>359.9</ele>
<time>2012-03-24T16:02:59.000Z</time>
</trkpt>
<trkpt lat="43.56195" lon="5.46672">
<ele>360.4</ele>
<time>2012-03-24T16:03:00.000Z</time>
</trkpt>
<trkpt lat="43.56192" lon="5.46665">
<ele>361</ele>
<time>2012-03-24T16:03:01.000Z</time>
</trkpt>
<trkpt lat="43.56189" lon="5.46657">
<ele>361.4</ele>
<time>2012-03-24T16:03:02.000Z</time>
</trkpt>
<trkpt lat="43.56186" lon="5.4665">
<ele>361.8</ele>
<time>2012-03-24T16:03:03.000Z</time>
</trkpt>
<trkpt lat="43.56181" lon="5.46643">
<ele>361.8</ele>
<time>2012-03-24T16:03:04.000Z</time>
</trkpt>
<trkpt lat="43.56178" lon="5.46636">
<ele>361.7</ele>
<time>2012-03-24T16:03:05.000Z</time>
</trkpt>
<trkpt lat="43.56173" lon="5.46628">
<ele>361.8</ele>
<time>2012-03-24T16:03:06.000Z</time>
</trkpt>
<trkpt lat="43.5617" lon="5.4662">
<ele>361.4</ele>
<time>2012-03-24T16:03:07.000Z</time>
</trkpt>
<trkpt lat="43.56169" lon="5.46611">
<ele>360.7</ele>
<time>2012-03-24T16:03:08.000Z</time>
</trkpt>
<trkpt lat="43.56166" lon="5.46603">
<ele>360.7</ele>
<time>2012-03-24T16:03:09.000Z</time>
</trkpt>
<trkpt lat="43.56162" lon="5.46596">
<ele>360.7</ele>
<time>2012-03-24T16:03:10.000Z</time>
</trkpt>
<trkpt lat="43.56159" lon="5.46588">
<ele>360.9</ele>
<time>2012-03-24T16:03:11.000Z</time>
</trkpt>
<trkpt lat="43.56154" lon="5.46581">
<ele>360.5</ele>
<time>2012-03-24T16:03:12.000Z</time>
</trkpt>
<trkpt lat="43.5615" lon="5.46574">
<ele>360.4</ele>
<time>2012-03-24T16:03:13.000Z</time>
</trkpt>
<trkpt lat="43.56147" lon="5.46566">
<ele>360.7</ele>
<time>2012-03-24T16:03:14.000Z</time>
</trkpt>
<trkpt lat="43.56144" lon="5.46556">
<ele>360.4</ele>
<time>2012-03-24T16:03:15.000Z</time>
</trkpt>
<trkpt lat="43.56142" lon="5.46548">
<ele>360.6</ele>
<time>2012-03-24T16:03:16.000Z</time>
</trkpt>
<trkpt lat="43.5614" lon="5.4654">
<ele>361</ele>
<time>2012-03-24T16:03:17.000Z</time>
</trkpt>
<trkpt lat="43.56137" lon="5.46531">
<ele>361.1</ele>
<time>2012-03-24T16:03:18.000Z</time>
</trkpt>
<trkpt lat="43.56135" lon="5.46523">
<ele>361.2</ele>
<time>2012-03-24T16:03:19.000Z</time>
</trkpt>
<trkpt lat="43.56134" lon="5.46513">
<ele>361.3</ele>
<time>2012-03-24T16:03:20.000Z</time>
</trkpt>
<trkpt lat="43.56133" lon="5.46504">
<ele>361.9</ele>
<time>2012-03-24T16:03:21.000Z</time>
</trkpt>
<trkpt lat="43.56133" lon="5.46495">
<ele>362.3</ele>
<time>2012-03-24T16:03:22.000Z</time>
</trkpt>
<trkpt lat="43.5613" lon="5.46486">
<ele>362.6</ele>
<time>2012-03-24T16:03:23.000Z</time>
</trkpt>
<trkpt lat="43.5613" lon="5.46478">
<ele>362.7</ele>
<time>2012-03-24T16:03:24.000Z</time>
</trkpt>
<trkpt lat="43.5613" lon="5.46468">
<ele>362.6</ele>
<time>2012-03-24T16:03:25.000Z</time>
</trkpt>
<trkpt lat="43.5613" lon="5.46458">
<ele>362.6</ele>
<time>2012-03-24T16:03:26.000Z</time>
</trkpt>
<trkpt lat="43.56132" lon="5.4645">
<ele>362.8</ele>
<time>2012-03-24T16:03:27.000Z</time>
</trkpt>
<trkpt lat="43.56133" lon="5.4644">
<ele>362.9</ele>
<time>2012-03-24T16:03:28.000Z</time>
</trkpt>
<trkpt lat="43.56134" lon="5.46431">
<ele>362.6</ele>
<time>2012-03-24T16:03:29.000Z</time>
</trkpt>
<trkpt lat="43.56136" lon="5.46421">
<ele>362.6</ele>
<time>2012-03-24T16:03:30.000Z</time>
</trkpt>
<trkpt lat="43.56138" lon="5.46413">
<ele>363</ele>
<time>2012-03-24T16:03:31.000Z</time>
</trkpt>
<trkpt lat="43.56141" lon="5.46404">
<ele>362.6</ele>
<time>2012-03-24T16:03:32.000Z</time>
</trkpt>
<trkpt lat="43.56143" lon="5.46396">
<ele>361.9</ele>
<time>2012-03-24T16:03:33.000Z</time>
</trkpt>
<trkpt lat="43.56146" lon="5.46388">
<ele>361.5</ele>
<time>2012-03-24T16:03:34.000Z</time>
</trkpt>
<trkpt lat="43.56149" lon="5.46381">
<ele>361.3</ele>
<time>2012-03-24T16:03:35.000Z</time>
</trkpt>
<trkpt lat="43.56153" lon="5.46374">
<ele>360.6</ele>
<time>2012-03-24T16:03:36.000Z</time>
</trkpt>
<trkpt lat="43.56155" lon="5.46367">
<ele>360.7</ele>
<time>2012-03-24T16:03:37.000Z</time>
</trkpt>
<trkpt lat="43.56157" lon="5.46359">
<ele>360.6</ele>
<time>2012-03-24T16:03:38.000Z</time>
</trkpt>
<trkpt lat="43.56159" lon="5.46352">
<ele>361.1</ele>
<time>2012-03-24T16:03:39.000Z</time>
</trkpt>
<trkpt lat="43.56161" lon="5.46344">
<ele>361</ele>
<time>2012-03-24T16:03:40.000Z</time>
</trkpt>
<trkpt lat="43.56164" lon="5.46337">
<ele>361.6</ele>
<time>2012-03-24T16:03:41.000Z</time>
</trkpt>
<trkpt lat="43.56167" lon="5.4633">
<ele>362</ele>
<time>2012-03-24T16:03:42.000Z</time>
</trkpt>
<trkpt lat="43.5617" lon="5.46323">
<ele>362.2</ele>
<time>2012-03-24T16:03:43.000Z</time>
</trkpt>
<trkpt lat="43.56172" lon="5.46317">
<ele>361.4</ele>
<time>2012-03-24T16:03:44.000Z</time>
</trkpt>
<trkpt lat="43.56174" lon="5.46308">
<ele>361.6</ele>
<time>2012-03-24T16:03:46.000Z</time>
</trkpt>
<trkpt lat="43.56177" lon="5.46302">
<ele>361.6</ele>
<time>2012-03-24T16:03:48.000Z</time>
</trkpt>
<trkpt lat="43.56177" lon="5.46295">
<ele>362</ele>
<time>2012-03-24T16:03:55.000Z</time>
</trkpt>
<trkpt lat="43.56178" lon="5.46287">
<ele>361.2</ele>
<time>2012-03-24T16:04:29.000Z</time>
</trkpt>
<trkpt lat="43.56178" lon="5.4628">
<ele>361.2</ele>
<time>2012-03-24T16:04:30.000Z</time>
</trkpt>
<trkpt lat="43.56178" lon="5.46273">
<ele>361.8</ele>
<time>2012-03-24T16:04:31.000Z</time>
</trkpt>
<trkpt lat="43.56178" lon="5.46266">
<ele>362</ele>
<time>2012-03-24T16:04:32.000Z</time>
</trkpt>
<trkpt lat="43.56177" lon="5.46256">
<ele>363.4</ele>
<time>2012-03-24T16:04:34.000Z</time>
</trkpt>
<trkpt lat="43.56177" lon="5.46246">
<ele>362.7</ele>
<time>2012-03-24T16:04:36.000Z</time>
</trkpt>
<trkpt lat="43.56176" lon="5.46234">
<ele>363.6</ele>
<time>2012-03-24T16:04:38.000Z</time>
</trkpt>
<trkpt lat="43.56174" lon="5.46226">
<ele>363.9</ele>
<time>2012-03-24T16:04:40.000Z</time>
</trkpt>
<trkpt lat="43.56172" lon="5.46218">
<ele>363.1</ele>
<time>2012-03-24T16:04:42.000Z</time>
</trkpt>
<trkpt lat="43.56166" lon="5.46209">
<ele>363.7</ele>
<time>2012-03-24T16:04:44.000Z</time>
</trkpt>
<trkpt lat="43.56163" lon="5.46196">
<ele>364.3</ele>
<time>2012-03-24T16:04:46.000Z</time>
</trkpt>
<trkpt lat="43.56163" lon="5.46189">
<ele>365.1</ele>
<time>2012-03-24T16:04:47.000Z</time>
</trkpt>
<trkpt lat="43.56162" lon="5.46182">
<ele>365.4</ele>
<time>2012-03-24T16:04:48.000Z</time>
</trkpt>
<trkpt lat="43.56158" lon="5.46171">
<ele>365.3</ele>
<time>2012-03-24T16:04:50.000Z</time>
</trkpt>
<trkpt lat="43.56157" lon="5.46164">
<ele>365.3</ele>
<time>2012-03-24T16:04:51.000Z</time>
</trkpt>
<trkpt lat="43.56155" lon="5.46158">
<ele>365.5</ele>
<time>2012-03-24T16:04:52.000Z</time>
</trkpt>
<trkpt lat="43.56153" lon="5.46152">
<ele>365.4</ele>
<time>2012-03-24T16:04:53.000Z</time>
</trkpt>
<trkpt lat="43.56151" lon="5.46145">
<ele>365.8</ele>
<time>2012-03-24T16:04:54.000Z</time>
</trkpt>
<trkpt lat="43.56146" lon="5.46134">
<ele>366.5</ele>
<time>2012-03-24T16:04:56.000Z</time>
</trkpt>
<trkpt lat="43.56144" lon="5.46128">
<ele>367</ele>
<time>2012-03-24T16:04:57.000Z</time>
</trkpt>
<trkpt lat="43.5614" lon="5.46116">
<ele>367</ele>
<time>2012-03-24T16:04:59.000Z</time>
</trkpt>
<trkpt lat="43.56137" lon="5.46109">
<ele>366.9</ele>
<time>2012-03-24T16:05:00.000Z</time>
</trkpt>
<trkpt lat="43.56135" lon="5.461">
<ele>366.7</ele>
<time>2012-03-24T16:05:01.000Z</time>
</trkpt>
<trkpt lat="43.56131" lon="5.46088">
<ele>367.1</ele>
<time>2012-03-24T16:05:03.000Z</time>
</trkpt>
<trkpt lat="43.5613" lon="5.4608">
<ele>367.4</ele>
<time>2012-03-24T16:05:04.000Z</time>
</trkpt>
<trkpt lat="43.56129" lon="5.46073">
<ele>367.1</ele>
<time>2012-03-24T16:05:05.000Z</time>
</trkpt>
<trkpt lat="43.56127" lon="5.46065">
<ele>367.2</ele>
<time>2012-03-24T16:05:06.000Z</time>
</trkpt>
<trkpt lat="43.56125" lon="5.46057">
<ele>367.1</ele>
<time>2012-03-24T16:05:07.000Z</time>
</trkpt>
<trkpt lat="43.56124" lon="5.46049">
<ele>367.5</ele>
<time>2012-03-24T16:05:08.000Z</time>
</trkpt>
<trkpt lat="43.5612" lon="5.46037">
<ele>367</ele>
<time>2012-03-24T16:05:10.000Z</time>
</trkpt>
<trkpt lat="43.56118" lon="5.4603">
<ele>366.9</ele>
<time>2012-03-24T16:05:11.000Z</time>
</trkpt>
<trkpt lat="43.56116" lon="5.46022">
<ele>367.1</ele>
<time>2012-03-24T16:05:12.000Z</time>
</trkpt>
<trkpt lat="43.56114" lon="5.46013">
<ele>366.7</ele>
<time>2012-03-24T16:05:14.000Z</time>
</trkpt>
<trkpt lat="43.56112" lon="5.46004">
<ele>366.8</ele>
<time>2012-03-24T16:05:16.000Z</time>
</trkpt>
<trkpt lat="43.56108" lon="5.45994">
<ele>367</ele>
<time>2012-03-24T16:05:18.000Z</time>
</trkpt>
<trkpt lat="43.56104" lon="5.45984">
<ele>366.5</ele>
<time>2012-03-24T16:05:20.000Z</time>
</trkpt>
<trkpt lat="43.56101" lon="5.45978">
<ele>366.4</ele>
<time>2012-03-24T16:05:21.000Z</time>
</trkpt>
<trkpt lat="43.56097" lon="5.45969">
<ele>365.5</ele>
<time>2012-03-24T16:05:23.000Z</time>
</trkpt>
<trkpt lat="43.56094" lon="5.45958">
<ele>365.7</ele>
<time>2012-03-24T16:05:25.000Z</time>
</trkpt>
<trkpt lat="43.56092" lon="5.45952">
<ele>365.7</ele>
<time>2012-03-24T16:05:26.000Z</time>
</trkpt>
<trkpt lat="43.56091" lon="5.45946">
<ele>365.9</ele>
<time>2012-03-24T16:05:27.000Z</time>
</trkpt>
<trkpt lat="43.56087" lon="5.45938">
<ele>365.1</ele>
<time>2012-03-24T16:05:29.000Z</time>
</trkpt>
<trkpt lat="43.56086" lon="5.45932">
<ele>364.7</ele>
<time>2012-03-24T16:05:30.000Z</time>
</trkpt>
<trkpt lat="43.56084" lon="5.45926">
<ele>365</ele>
<time>2012-03-24T16:05:31.000Z</time>
</trkpt>
<trkpt lat="43.56081" lon="5.45915">
<ele>364.6</ele>
<time>2012-03-24T16:05:33.000Z</time>
</trkpt>
<trkpt lat="43.56079" lon="5.45909">
<ele>364.7</ele>
<time>2012-03-24T16:05:34.000Z</time>
</trkpt>
<trkpt lat="43.56076" lon="5.45899">
<ele>364.7</ele>
<time>2012-03-24T16:05:36.000Z</time>
</trkpt>
<trkpt lat="43.56072" lon="5.4589">
<ele>365.2</ele>
<time>2012-03-24T16:05:38.000Z</time>
</trkpt>
<trkpt lat="43.56071" lon="5.45882">
<ele>365.5</ele>
<time>2012-03-24T16:05:39.000Z</time>
</trkpt>
<trkpt lat="43.56068" lon="5.45876">
<ele>365.2</ele>
<time>2012-03-24T16:05:40.000Z</time>
</trkpt>
<trkpt lat="43.56063" lon="5.45865">
<ele>365</ele>
<time>2012-03-24T16:05:42.000Z</time>
</trkpt>
<trkpt lat="43.56061" lon="5.4586">
<ele>364.9</ele>
<time>2012-03-24T16:05:43.000Z</time>
</trkpt>
<trkpt lat="43.56058" lon="5.45855">
<ele>365.2</ele>
<time>2012-03-24T16:05:44.000Z</time>
</trkpt>
<trkpt lat="43.56053" lon="5.45849">
<ele>365.2</ele>
<time>2012-03-24T16:05:45.000Z</time>
</trkpt>
<trkpt lat="43.56052" lon="5.45842">
<ele>364.7</ele>
<time>2012-03-24T16:05:46.000Z</time>
</trkpt>
<trkpt lat="43.56048" lon="5.45837">
<ele>364.1</ele>
<time>2012-03-24T16:05:47.000Z</time>
</trkpt>
<trkpt lat="43.56046" lon="5.45829">
<ele>364</ele>
<time>2012-03-24T16:05:48.000Z</time>
</trkpt>
<trkpt lat="43.56039" lon="5.45821">
<ele>364.1</ele>
<time>2012-03-24T16:05:50.000Z</time>
</trkpt>
<trkpt lat="43.56035" lon="5.45817">
<ele>363.9</ele>
<time>2012-03-24T16:05:51.000Z</time>
</trkpt>
<trkpt lat="43.56032" lon="5.45812">
<ele>363.9</ele>
<time>2012-03-24T16:05:52.000Z</time>
</trkpt>
<trkpt lat="43.56027" lon="5.45808">
<ele>363.9</ele>
<time>2012-03-24T16:05:53.000Z</time>
</trkpt>
<trkpt lat="43.56023" lon="5.45803">
<ele>364.6</ele>
<time>2012-03-24T16:05:54.000Z</time>
</trkpt>
<trkpt lat="43.56019" lon="5.45798">
<ele>364.8</ele>
<time>2012-03-24T16:05:55.000Z</time>
</trkpt>
<trkpt lat="43.56014" lon="5.45794">
<ele>365.5</ele>
<time>2012-03-24T16:05:56.000Z</time>
</trkpt>
<trkpt lat="43.5601" lon="5.45788">
<ele>365.4</ele>
<time>2012-03-24T16:05:57.000Z</time>
</trkpt>
<trkpt lat="43.56006" lon="5.45782">
<ele>365.6</ele>
<time>2012-03-24T16:05:58.000Z</time>
</trkpt>
<trkpt lat="43.56002" lon="5.45778">
<ele>365.8</ele>
<time>2012-03-24T16:05:59.000Z</time>
</trkpt>
<trkpt lat="43.55998" lon="5.45771">
<ele>366.3</ele>
<time>2012-03-24T16:06:00.000Z</time>
</trkpt>
<trkpt lat="43.55993" lon="5.45765">
<ele>365.7</ele>
<time>2012-03-24T16:06:01.000Z</time>
</trkpt>
<trkpt lat="43.55989" lon="5.45757">
<ele>365.5</ele>
<time>2012-03-24T16:06:02.000Z</time>
</trkpt>
<trkpt lat="43.5598" lon="5.45752">
<ele>365.8</ele>
<time>2012-03-24T16:06:04.000Z</time>
</trkpt>
<trkpt lat="43.55976" lon="5.45748">
<ele>366.2</ele>
<time>2012-03-24T16:06:05.000Z</time>
</trkpt>
<trkpt lat="43.55973" lon="5.45743">
<ele>365.7</ele>
<time>2012-03-24T16:06:06.000Z</time>
</trkpt>
<trkpt lat="43.55968" lon="5.45741">
<ele>365.9</ele>
<time>2012-03-24T16:06:07.000Z</time>
</trkpt>
<trkpt lat="43.55963" lon="5.45736">
<ele>365.6</ele>
<time>2012-03-24T16:06:08.000Z</time>
</trkpt>
<trkpt lat="43.55959" lon="5.45732">
<ele>365.5</ele>
<time>2012-03-24T16:06:09.000Z</time>
</trkpt>
<trkpt lat="43.55954" lon="5.45729">
<ele>365.4</ele>
<time>2012-03-24T16:06:10.000Z</time>
</trkpt>
<trkpt lat="43.5595" lon="5.45725">
<ele>365.7</ele>
<time>2012-03-24T16:06:11.000Z</time>
</trkpt>
<trkpt lat="43.55945" lon="5.45721">
<ele>364.9</ele>
<time>2012-03-24T16:06:12.000Z</time>
</trkpt>
<trkpt lat="43.55941" lon="5.45716">
<ele>365</ele>
<time>2012-03-24T16:06:13.000Z</time>
</trkpt>
<trkpt lat="43.55936" lon="5.45712">
<ele>364.8</ele>
<time>2012-03-24T16:06:14.000Z</time>
</trkpt>
<trkpt lat="43.55932" lon="5.45708">
<ele>364.6</ele>
<time>2012-03-24T16:06:15.000Z</time>
</trkpt>
<trkpt lat="43.55929" lon="5.457">
<ele>364.2</ele>
<time>2012-03-24T16:06:16.000Z</time>
</trkpt>
<trkpt lat="43.55928" lon="5.45694">
<ele>363.9</ele>
<time>2012-03-24T16:06:17.000Z</time>
</trkpt>
<trkpt lat="43.55925" lon="5.45688">
<ele>363.7</ele>
<time>2012-03-24T16:06:18.000Z</time>
</trkpt>
<trkpt lat="43.55919" lon="5.45682">
<ele>364.3</ele>
<time>2012-03-24T16:06:20.000Z</time>
</trkpt>
<trkpt lat="43.55916" lon="5.45677">
<ele>364.7</ele>
<time>2012-03-24T16:06:21.000Z</time>
</trkpt>
<trkpt lat="43.55912" lon="5.45672">
<ele>364.4</ele>
<time>2012-03-24T16:06:22.000Z</time>
</trkpt>
<trkpt lat="43.55909" lon="5.45665">
<ele>363.9</ele>
<time>2012-03-24T16:06:23.000Z</time>
</trkpt>
<trkpt lat="43.55908" lon="5.45655">
<ele>363.9</ele>
<time>2012-03-24T16:06:25.000Z</time>
</trkpt>
<trkpt lat="43.5591" lon="5.45648">
<ele>363.9</ele>
<time>2012-03-24T16:06:26.000Z</time>
</trkpt>
<trkpt lat="43.55912" lon="5.45642">
<ele>363.1</ele>
<time>2012-03-24T16:06:27.000Z</time>
</trkpt>
<trkpt lat="43.55916" lon="5.45637">
<ele>362.8</ele>
<time>2012-03-24T16:06:28.000Z</time>
</trkpt>
<trkpt lat="43.55919" lon="5.4563">
<ele>362.6</ele>
<time>2012-03-24T16:06:29.000Z</time>
</trkpt>
<trkpt lat="43.55922" lon="5.45625">
<ele>362.5</ele>
<time>2012-03-24T16:06:30.000Z</time>
</trkpt>
<trkpt lat="43.55926" lon="5.45619">
<ele>362.4</ele>
<time>2012-03-24T16:06:31.000Z</time>
</trkpt>
<trkpt lat="43.55929" lon="5.45612">
<ele>361.8</ele>
<time>2012-03-24T16:06:32.000Z</time>
</trkpt>
<trkpt lat="43.55932" lon="5.45604">
<ele>361.9</ele>
<time>2012-03-24T16:06:33.000Z</time>
</trkpt>
<trkpt lat="43.55933" lon="5.45597">
<ele>361.8</ele>
<time>2012-03-24T16:06:34.000Z</time>
</trkpt>
<trkpt lat="43.55933" lon="5.45589">
<ele>362</ele>
<time>2012-03-24T16:06:35.000Z</time>
</trkpt>
<trkpt lat="43.55932" lon="5.45583">
<ele>362.2</ele>
<time>2012-03-24T16:06:36.000Z</time>
</trkpt>
<trkpt lat="43.55932" lon="5.45574">
<ele>362.4</ele>
<time>2012-03-24T16:06:37.000Z</time>
</trkpt>
<trkpt lat="43.55931" lon="5.45566">
<ele>362.3</ele>
<time>2012-03-24T16:06:38.000Z</time>
</trkpt>
<trkpt lat="43.55929" lon="5.45559">
<ele>362.8</ele>
<time>2012-03-24T16:06:39.000Z</time>
</trkpt>
<trkpt lat="43.55927" lon="5.45551">
<ele>362.6</ele>
<time>2012-03-24T16:06:40.000Z</time>
</trkpt>
<trkpt lat="43.55926" lon="5.45542">
<ele>363.2</ele>
<time>2012-03-24T16:06:41.000Z</time>
</trkpt>
<trkpt lat="43.55925" lon="5.45534">
<ele>363.1</ele>
<time>2012-03-24T16:06:42.000Z</time>
</trkpt>
<trkpt lat="43.55924" lon="5.45526">
<ele>362.8</ele>
<time>2012-03-24T16:06:43.000Z</time>
</trkpt>
<trkpt lat="43.55922" lon="5.45518">
<ele>362.7</ele>
<time>2012-03-24T16:06:44.000Z</time>
</trkpt>
<trkpt lat="43.5592" lon="5.45509">
<ele>362.9</ele>
<time>2012-03-24T16:06:45.000Z</time>
</trkpt>
<trkpt lat="43.55918" lon="5.45502">
<ele>362.7</ele>
<time>2012-03-24T16:06:46.000Z</time>
</trkpt>
<trkpt lat="43.55915" lon="5.45494">
<ele>362.5</ele>
<time>2012-03-24T16:06:47.000Z</time>
</trkpt>
<trkpt lat="43.55913" lon="5.45486">
<ele>362.4</ele>
<time>2012-03-24T16:06:48.000Z</time>
</trkpt>
<trkpt lat="43.55911" lon="5.45476">
<ele>362.2</ele>
<time>2012-03-24T16:06:49.000Z</time>
</trkpt>
<trkpt lat="43.55909" lon="5.45467">
<ele>362.6</ele>
<time>2012-03-24T16:06:50.000Z</time>
</trkpt>
<trkpt lat="43.55906" lon="5.45459">
<ele>362.7</ele>
<time>2012-03-24T16:06:51.000Z</time>
</trkpt>
<trkpt lat="43.55901" lon="5.45451">
<ele>362.9</ele>
<time>2012-03-24T16:06:52.000Z</time>
</trkpt>
<trkpt lat="43.55898" lon="5.45444">
<ele>363</ele>
<time>2012-03-24T16:06:53.000Z</time>
</trkpt>
<trkpt lat="43.55896" lon="5.45436">
<ele>363.2</ele>
<time>2012-03-24T16:06:54.000Z</time>
</trkpt>
<trkpt lat="43.55893" lon="5.45426">
<ele>363</ele>
<time>2012-03-24T16:06:55.000Z</time>
</trkpt>
<trkpt lat="43.5589" lon="5.45418">
<ele>362.8</ele>
<time>2012-03-24T16:06:56.000Z</time>
</trkpt>
<trkpt lat="43.55886" lon="5.45411">
<ele>362.9</ele>
<time>2012-03-24T16:06:57.000Z</time>
</trkpt>
<trkpt lat="43.55884" lon="5.45406">
<ele>363</ele>
<time>2012-03-24T16:06:58.000Z</time>
</trkpt>
<trkpt lat="43.5588" lon="5.45399">
<ele>363.2</ele>
<time>2012-03-24T16:06:59.000Z</time>
</trkpt>
<trkpt lat="43.55877" lon="5.45392">
<ele>363.6</ele>
<time>2012-03-24T16:07:00.000Z</time>
</trkpt>
<trkpt lat="43.55874" lon="5.45387">
<ele>364</ele>
<time>2012-03-24T16:07:01.000Z</time>
</trkpt>
<trkpt lat="43.55871" lon="5.45379">
<ele>364.2</ele>
<time>2012-03-24T16:07:02.000Z</time>
</trkpt>
<trkpt lat="43.55867" lon="5.45375">
<ele>364.7</ele>
<time>2012-03-24T16:07:03.000Z</time>
</trkpt>
<trkpt lat="43.55865" lon="5.45367">
<ele>364.3</ele>
<time>2012-03-24T16:07:04.000Z</time>
</trkpt>
<trkpt lat="43.55865" lon="5.4536">
<ele>364.3</ele>
<time>2012-03-24T16:07:05.000Z</time>
</trkpt>
<trkpt lat="43.55862" lon="5.45352">
<ele>365.1</ele>
<time>2012-03-24T16:07:06.000Z</time>
</trkpt>
<trkpt lat="43.55861" lon="5.45345">
<ele>365.2</ele>
<time>2012-03-24T16:07:07.000Z</time>
</trkpt>
<trkpt lat="43.55858" lon="5.45337">
<ele>365.5</ele>
<time>2012-03-24T16:07:08.000Z</time>
</trkpt>
<trkpt lat="43.55856" lon="5.45329">
<ele>365.4</ele>
<time>2012-03-24T16:07:09.000Z</time>
</trkpt>
<trkpt lat="43.55855" lon="5.4532">
<ele>365.5</ele>
<time>2012-03-24T16:07:10.000Z</time>
</trkpt>
<trkpt lat="43.55853" lon="5.45313">
<ele>365.7</ele>
<time>2012-03-24T16:07:11.000Z</time>
</trkpt>
<trkpt lat="43.55852" lon="5.45306">
<ele>365.7</ele>
<time>2012-03-24T16:07:12.000Z</time>
</trkpt>
<trkpt lat="43.55852" lon="5.45299">
<ele>365.9</ele>
<time>2012-03-24T16:07:13.000Z</time>
</trkpt>
<trkpt lat="43.55851" lon="5.45292">
<ele>365.5</ele>
<time>2012-03-24T16:07:14.000Z</time>
</trkpt>
<trkpt lat="43.5585" lon="5.45284">
<ele>365.4</ele>
<time>2012-03-24T16:07:15.000Z</time>
</trkpt>
<trkpt lat="43.55849" lon="5.45277">
<ele>365.3</ele>
<time>2012-03-24T16:07:16.000Z</time>
</trkpt>
<trkpt lat="43.55847" lon="5.4527">
<ele>365.2</ele>
<time>2012-03-24T16:07:17.000Z</time>
</trkpt>
<trkpt lat="43.55846" lon="5.45262">
<ele>364.9</ele>
<time>2012-03-24T16:07:18.000Z</time>
</trkpt>
<trkpt lat="43.55845" lon="5.45254">
<ele>365.1</ele>
<time>2012-03-24T16:07:19.000Z</time>
</trkpt>
<trkpt lat="43.55843" lon="5.45247">
<ele>365.1</ele>
<time>2012-03-24T16:07:20.000Z</time>
</trkpt>
<trkpt lat="43.55842" lon="5.4524">
<ele>365.2</ele>
<time>2012-03-24T16:07:21.000Z</time>
</trkpt>
<trkpt lat="43.5584" lon="5.45233">
<ele>365.2</ele>
<time>2012-03-24T16:07:22.000Z</time>
</trkpt>
<trkpt lat="43.55838" lon="5.45227">
<ele>365.1</ele>
<time>2012-03-24T16:07:23.000Z</time>
</trkpt>
<trkpt lat="43.55838" lon="5.4522">
<ele>365.2</ele>
<time>2012-03-24T16:07:24.000Z</time>
</trkpt>
<trkpt lat="43.55837" lon="5.45213">
<ele>364.8</ele>
<time>2012-03-24T16:07:26.000Z</time>
</trkpt>
<trkpt lat="43.55838" lon="5.45202">
<ele>365.8</ele>
<time>2012-03-24T16:07:28.000Z</time>
</trkpt>
<trkpt lat="43.55838" lon="5.45191">
<ele>366</ele>
<time>2012-03-24T16:07:30.000Z</time>
</trkpt>
<trkpt lat="43.55838" lon="5.45179">
<ele>365.7</ele>
<time>2012-03-24T16:07:32.000Z</time>
</trkpt>
<trkpt lat="43.55838" lon="5.45171">
<ele>365.7</ele>
<time>2012-03-24T16:07:33.000Z</time>
</trkpt>
<trkpt lat="43.55839" lon="5.45164">
<ele>365.9</ele>
<time>2012-03-24T16:07:34.000Z</time>
</trkpt>
<trkpt lat="43.55839" lon="5.45157">
<ele>365.9</ele>
<time>2012-03-24T16:07:35.000Z</time>
</trkpt>
<trkpt lat="43.5584" lon="5.4515">
<ele>366.3</ele>
<time>2012-03-24T16:07:36.000Z</time>
</trkpt>
<trkpt lat="43.55839" lon="5.45144">
<ele>366.6</ele>
<time>2012-03-24T16:07:37.000Z</time>
</trkpt>
<trkpt lat="43.55839" lon="5.45136">
<ele>366.3</ele>
<time>2012-03-24T16:07:38.000Z</time>
</trkpt>
<trkpt lat="43.55838" lon="5.45123">
<ele>366.2</ele>
<time>2012-03-24T16:07:40.000Z</time>
</trkpt>
<trkpt lat="43.55837" lon="5.45116">
<ele>366.5</ele>
<time>2012-03-24T16:07:41.000Z</time>
</trkpt>
<trkpt lat="43.55839" lon="5.45108">
<ele>366.6</ele>
<time>2012-03-24T16:07:42.000Z</time>
</trkpt>
<trkpt lat="43.55838" lon="5.45102">
<ele>366.7</ele>
<time>2012-03-24T16:07:43.000Z</time>
</trkpt>
<trkpt lat="43.55839" lon="5.45094">
<ele>366.4</ele>
<time>2012-03-24T16:07:44.000Z</time>
</trkpt>
<trkpt lat="43.55838" lon="5.45086">
<ele>366.7</ele>
<time>2012-03-24T16:07:45.000Z</time>
</trkpt>
<trkpt lat="43.55839" lon="5.45078">
<ele>366.3</ele>
<time>2012-03-24T16:07:46.000Z</time>
</trkpt>
<trkpt lat="43.55839" lon="5.45069">
<ele>366.3</ele>
<time>2012-03-24T16:07:47.000Z</time>
</trkpt>
<trkpt lat="43.55839" lon="5.45062">
<ele>366.1</ele>
<time>2012-03-24T16:07:48.000Z</time>
</trkpt>
<trkpt lat="43.55839" lon="5.45053">
<ele>366.1</ele>
<time>2012-03-24T16:07:49.000Z</time>
</trkpt>
<trkpt lat="43.55839" lon="5.45045">
<ele>366.2</ele>
<time>2012-03-24T16:07:50.000Z</time>
</trkpt>
<trkpt lat="43.55839" lon="5.45037">
<ele>366.1</ele>
<time>2012-03-24T16:07:51.000Z</time>
</trkpt>
<trkpt lat="43.5584" lon="5.45029">
<ele>365.7</ele>
<time>2012-03-24T16:07:52.000Z</time>
</trkpt>
<trkpt lat="43.55842" lon="5.45019">
<ele>366</ele>
<time>2012-03-24T16:07:53.000Z</time>
</trkpt>
<trkpt lat="43.55846" lon="5.4501">
<ele>365.7</ele>
<time>2012-03-24T16:07:54.000Z</time>
</trkpt>
<trkpt lat="43.55848" lon="5.45001">
<ele>365.9</ele>
<time>2012-03-24T16:07:55.000Z</time>
</trkpt>
<trkpt lat="43.55853" lon="5.44993">
<ele>366.3</ele>
<time>2012-03-24T16:07:56.000Z</time>
</trkpt>
<trkpt lat="43.55856" lon="5.44986">
<ele>365.8</ele>
<time>2012-03-24T16:07:57.000Z</time>
</trkpt>
<trkpt lat="43.55859" lon="5.44978">
<ele>365.7</ele>
<time>2012-03-24T16:07:58.000Z</time>
</trkpt>
<trkpt lat="43.55863" lon="5.4497">
<ele>365.8</ele>
<time>2012-03-24T16:07:59.000Z</time>
</trkpt>
<trkpt lat="43.55866" lon="5.44962">
<ele>365.8</ele>
<time>2012-03-24T16:08:00.000Z</time>
</trkpt>
<trkpt lat="43.5587" lon="5.44954">
<ele>365.8</ele>
<time>2012-03-24T16:08:01.000Z</time>
</trkpt>
<trkpt lat="43.55874" lon="5.44947">
<ele>365.4</ele>
<time>2012-03-24T16:08:02.000Z</time>
</trkpt>
<trkpt lat="43.55877" lon="5.44939">
<ele>365.1</ele>
<time>2012-03-24T16:08:03.000Z</time>
</trkpt>
<trkpt lat="43.55878" lon="5.44933">
<ele>365.3</ele>
<time>2012-03-24T16:08:04.000Z</time>
</trkpt>
<trkpt lat="43.55881" lon="5.44926">
<ele>365.4</ele>
<time>2012-03-24T16:08:05.000Z</time>
</trkpt>
<trkpt lat="43.55883" lon="5.4492">
<ele>366.3</ele>
<time>2012-03-24T16:08:06.000Z</time>
</trkpt>
<trkpt lat="43.55886" lon="5.44915">
<ele>366.5</ele>
<time>2012-03-24T16:08:07.000Z</time>
</trkpt>
<trkpt lat="43.55888" lon="5.44909">
<ele>366.8</ele>
<time>2012-03-24T16:08:08.000Z</time>
</trkpt>
<trkpt lat="43.55892" lon="5.44899">
<ele>366.5</ele>
<time>2012-03-24T16:08:10.000Z</time>
</trkpt>
<trkpt lat="43.55894" lon="5.44894">
<ele>366</ele>
<time>2012-03-24T16:08:11.000Z</time>
</trkpt>
<trkpt lat="43.55896" lon="5.44883">
<ele>366.2</ele>
<time>2012-03-24T16:08:13.000Z</time>
</trkpt>
<trkpt lat="43.55899" lon="5.44873">
<ele>366.2</ele>
<time>2012-03-24T16:08:15.000Z</time>
</trkpt>
<trkpt lat="43.55899" lon="5.44867">
<ele>366.2</ele>
<time>2012-03-24T16:08:16.000Z</time>
</trkpt>
<trkpt lat="43.55898" lon="5.44856">
<ele>366.5</ele>
<time>2012-03-24T16:08:18.000Z</time>
</trkpt>
<trkpt lat="43.55897" lon="5.44849">
<ele>366.6</ele>
<time>2012-03-24T16:08:19.000Z</time>
</trkpt>
<trkpt lat="43.55897" lon="5.44842">
<ele>366.2</ele>
<time>2012-03-24T16:08:20.000Z</time>
</trkpt>
<trkpt lat="43.55897" lon="5.44834">
<ele>366.3</ele>
<time>2012-03-24T16:08:21.000Z</time>
</trkpt>
<trkpt lat="43.55897" lon="5.44827">
<ele>366.2</ele>
<time>2012-03-24T16:08:22.000Z</time>
</trkpt>
<trkpt lat="43.55898" lon="5.4482">
<ele>366.3</ele>
<time>2012-03-24T16:08:23.000Z</time>
</trkpt>
<trkpt lat="43.55898" lon="5.44812">
<ele>366.7</ele>
<time>2012-03-24T16:08:24.000Z</time>
</trkpt>
<trkpt lat="43.55898" lon="5.44805">
<ele>366.7</ele>
<time>2012-03-24T16:08:25.000Z</time>
</trkpt>
<trkpt lat="43.55898" lon="5.44799">
<ele>366.3</ele>
<time>2012-03-24T16:08:26.000Z</time>
</trkpt>
<trkpt lat="43.55898" lon="5.44792">
<ele>365.6</ele>
<time>2012-03-24T16:08:27.000Z</time>
</trkpt>
<trkpt lat="43.55898" lon="5.44786">
<ele>365.6</ele>
<time>2012-03-24T16:08:28.000Z</time>
</trkpt>
<trkpt lat="43.55898" lon="5.44778">
<ele>365.7</ele>
<time>2012-03-24T16:08:29.000Z</time>
</trkpt>
<trkpt lat="43.55899" lon="5.44771">
<ele>366</ele>
<time>2012-03-24T16:08:30.000Z</time>
</trkpt>
<trkpt lat="43.55899" lon="5.44764">
<ele>365.6</ele>
<time>2012-03-24T16:08:31.000Z</time>
</trkpt>
<trkpt lat="43.55899" lon="5.44757">
<ele>365.7</ele>
<time>2012-03-24T16:08:32.000Z</time>
</trkpt>
<trkpt lat="43.55898" lon="5.4475">
<ele>366.1</ele>
<time>2012-03-24T16:08:33.000Z</time>
</trkpt>
<trkpt lat="43.55898" lon="5.44742">
<ele>366.7</ele>
<time>2012-03-24T16:08:34.000Z</time>
</trkpt>
<trkpt lat="43.55899" lon="5.44735">
<ele>367.2</ele>
<time>2012-03-24T16:08:35.000Z</time>
</trkpt>
<trkpt lat="43.559" lon="5.44727">
<ele>367.3</ele>
<time>2012-03-24T16:08:36.000Z</time>
</trkpt>
<trkpt lat="43.55901" lon="5.44719">
<ele>366.8</ele>
<time>2012-03-24T16:08:37.000Z</time>
</trkpt>
<trkpt lat="43.55901" lon="5.44712">
<ele>366.9</ele>
<time>2012-03-24T16:08:38.000Z</time>
</trkpt>
<trkpt lat="43.559" lon="5.44705">
<ele>367</ele>
<time>2012-03-24T16:08:39.000Z</time>
</trkpt>
<trkpt lat="43.559" lon="5.44697">
<ele>366.8</ele>
<time>2012-03-24T16:08:40.000Z</time>
</trkpt>
<trkpt lat="43.55899" lon="5.4469">
<ele>367</ele>
<time>2012-03-24T16:08:41.000Z</time>
</trkpt>
<trkpt lat="43.55899" lon="5.44683">
<ele>367</ele>
<time>2012-03-24T16:08:42.000Z</time>
</trkpt>
<trkpt lat="43.55899" lon="5.44675">
<ele>366.9</ele>
<time>2012-03-24T16:08:43.000Z</time>
</trkpt>
<trkpt lat="43.55898" lon="5.44667">
<ele>367.4</ele>
<time>2012-03-24T16:08:44.000Z</time>
</trkpt>
<trkpt lat="43.55899" lon="5.44661">
<ele>367.3</ele>
<time>2012-03-24T16:08:45.000Z</time>
</trkpt>
<trkpt lat="43.55899" lon="5.44654">
<ele>367.6</ele>
<time>2012-03-24T16:08:46.000Z</time>
</trkpt>
<trkpt lat="43.55899" lon="5.44646">
<ele>368</ele>
<time>2012-03-24T16:08:47.000Z</time>
</trkpt>
<trkpt lat="43.55898" lon="5.4464">
<ele>368</ele>
<time>2012-03-24T16:08:48.000Z</time>
</trkpt>
<trkpt lat="43.55899" lon="5.44634">
<ele>367.9</ele>
<time>2012-03-24T16:08:49.000Z</time>
</trkpt>
<trkpt lat="43.55899" lon="5.44625">
<ele>367.7</ele>
<time>2012-03-24T16:08:50.000Z</time>
</trkpt>
<trkpt lat="43.559" lon="5.44618">
<ele>367.9</ele>
<time>2012-03-24T16:08:51.000Z</time>
</trkpt>
<trkpt lat="43.55901" lon="5.44611">
<ele>367.5</ele>
<time>2012-03-24T16:08:52.000Z</time>
</trkpt>
<trkpt lat="43.559" lon="5.44605">
<ele>367.8</ele>
<time>2012-03-24T16:08:53.000Z</time>
</trkpt>
<trkpt lat="43.55902" lon="5.44597">
<ele>367.5</ele>
<time>2012-03-24T16:08:54.000Z</time>
</trkpt>
<trkpt lat="43.55902" lon="5.4459">
<ele>367.6</ele>
<time>2012-03-24T16:08:55.000Z</time>
</trkpt>
<trkpt lat="43.55903" lon="5.44582">
<ele>367.8</ele>
<time>2012-03-24T16:08:56.000Z</time>
</trkpt>
<trkpt lat="43.55903" lon="5.44574">
<ele>368</ele>
<time>2012-03-24T16:08:57.000Z</time>
</trkpt>
<trkpt lat="43.55903" lon="5.44562">
<ele>367.7</ele>
<time>2012-03-24T16:08:59.000Z</time>
</trkpt>
<trkpt lat="43.55904" lon="5.44556">
<ele>367.7</ele>
<time>2012-03-24T16:09:00.000Z</time>
</trkpt>
<trkpt lat="43.55903" lon="5.44544">
<ele>368.2</ele>
<time>2012-03-24T16:09:02.000Z</time>
</trkpt>
<trkpt lat="43.55902" lon="5.44531">
<ele>368.1</ele>
<time>2012-03-24T16:09:04.000Z</time>
</trkpt>
<trkpt lat="43.55901" lon="5.44524">
<ele>368.2</ele>
<time>2012-03-24T16:09:05.000Z</time>
</trkpt>
<trkpt lat="43.55902" lon="5.4451">
<ele>368.2</ele>
<time>2012-03-24T16:09:07.000Z</time>
</trkpt>
<trkpt lat="43.55902" lon="5.44503">
<ele>368.3</ele>
<time>2012-03-24T16:09:08.000Z</time>
</trkpt>
<trkpt lat="43.55901" lon="5.44496">
<ele>368.2</ele>
<time>2012-03-24T16:09:09.000Z</time>
</trkpt>
<trkpt lat="43.55898" lon="5.44491">
<ele>368.2</ele>
<time>2012-03-24T16:09:10.000Z</time>
</trkpt>
<trkpt lat="43.55899" lon="5.44482">
<ele>368.1</ele>
<time>2012-03-24T16:09:11.000Z</time>
</trkpt>
<trkpt lat="43.55898" lon="5.44474">
<ele>368.1</ele>
<time>2012-03-24T16:09:12.000Z</time>
</trkpt>
<trkpt lat="43.55899" lon="5.44466">
<ele>368.3</ele>
<time>2012-03-24T16:09:13.000Z</time>
</trkpt>
<trkpt lat="43.55898" lon="5.44459">
<ele>368.3</ele>
<time>2012-03-24T16:09:14.000Z</time>
</trkpt>
<trkpt lat="43.55898" lon="5.44452">
<ele>368.6</ele>
<time>2012-03-24T16:09:15.000Z</time>
</trkpt>
<trkpt lat="43.55898" lon="5.44446">
<ele>368.6</ele>
<time>2012-03-24T16:09:16.000Z</time>
</trkpt>
<trkpt lat="43.559" lon="5.44438">
<ele>368.5</ele>
<time>2012-03-24T16:09:17.000Z</time>
</trkpt>
<trkpt lat="43.559" lon="5.44425">
<ele>368.3</ele>
<time>2012-03-24T16:09:19.000Z</time>
</trkpt>
<trkpt lat="43.55899" lon="5.44417">
<ele>368.4</ele>
<time>2012-03-24T16:09:20.000Z</time>
</trkpt>
<trkpt lat="43.55899" lon="5.4441">
<ele>368.4</ele>
<time>2012-03-24T16:09:21.000Z</time>
</trkpt>
<trkpt lat="43.55899" lon="5.44401">
<ele>367.9</ele>
<time>2012-03-24T16:09:22.000Z</time>
</trkpt>
<trkpt lat="43.559" lon="5.44394">
<ele>367.7</ele>
<time>2012-03-24T16:09:23.000Z</time>
</trkpt>
<trkpt lat="43.55901" lon="5.44386">
<ele>367.8</ele>
<time>2012-03-24T16:09:24.000Z</time>
</trkpt>
<trkpt lat="43.559" lon="5.44377">
<ele>368.1</ele>
<time>2012-03-24T16:09:25.000Z</time>
</trkpt>
<trkpt lat="43.55901" lon="5.4437">
<ele>367.1</ele>
<time>2012-03-24T16:09:26.000Z</time>
</trkpt>
<trkpt lat="43.55902" lon="5.44362">
<ele>367.2</ele>
<time>2012-03-24T16:09:27.000Z</time>
</trkpt>
<trkpt lat="43.55903" lon="5.44354">
<ele>366.9</ele>
<time>2012-03-24T16:09:28.000Z</time>
</trkpt>
<trkpt lat="43.55902" lon="5.44346">
<ele>367.4</ele>
<time>2012-03-24T16:09:29.000Z</time>
</trkpt>
<trkpt lat="43.55902" lon="5.44339">
<ele>367.5</ele>
<time>2012-03-24T16:09:30.000Z</time>
</trkpt>
<trkpt lat="43.55902" lon="5.44332">
<ele>367.8</ele>
<time>2012-03-24T16:09:31.000Z</time>
</trkpt>
<trkpt lat="43.55903" lon="5.44324">
<ele>367.8</ele>
<time>2012-03-24T16:09:32.000Z</time>
</trkpt>
<trkpt lat="43.55903" lon="5.44318">
<ele>368.3</ele>
<time>2012-03-24T16:09:33.000Z</time>
</trkpt>
<trkpt lat="43.55904" lon="5.44312">
<ele>368.4</ele>
<time>2012-03-24T16:09:34.000Z</time>
</trkpt>
<trkpt lat="43.55904" lon="5.443">
<ele>369</ele>
<time>2012-03-24T16:09:36.000Z</time>
</trkpt>
<trkpt lat="43.55904" lon="5.44289">
<ele>370</ele>
<time>2012-03-24T16:09:38.000Z</time>
</trkpt>
<trkpt lat="43.55903" lon="5.4428">
<ele>371.1</ele>
<time>2012-03-24T16:09:41.000Z</time>
</trkpt>
<trkpt lat="43.55901" lon="5.44272">
<ele>372</ele>
<time>2012-03-24T16:09:43.000Z</time>
</trkpt>
<trkpt lat="43.55899" lon="5.4426">
<ele>373</ele>
<time>2012-03-24T16:09:45.000Z</time>
</trkpt>
<trkpt lat="43.55898" lon="5.44249">
<ele>373</ele>
<time>2012-03-24T16:09:47.000Z</time>
</trkpt>
<trkpt lat="43.55898" lon="5.44242">
<ele>373</ele>
<time>2012-03-24T16:09:48.000Z</time>
</trkpt>
<trkpt lat="43.55898" lon="5.44234">
<ele>372.8</ele>
<time>2012-03-24T16:09:49.000Z</time>
</trkpt>
<trkpt lat="43.55897" lon="5.44227">
<ele>372.5</ele>
<time>2012-03-24T16:09:50.000Z</time>
</trkpt>
<trkpt lat="43.55897" lon="5.4422">
<ele>372.9</ele>
<time>2012-03-24T16:09:51.000Z</time>
</trkpt>
<trkpt lat="43.55896" lon="5.44213">
<ele>372.9</ele>
<time>2012-03-24T16:09:52.000Z</time>
</trkpt>
<trkpt lat="43.55896" lon="5.44202">
<ele>373.3</ele>
<time>2012-03-24T16:09:54.000Z</time>
</trkpt>
<trkpt lat="43.55895" lon="5.44191">
<ele>373.7</ele>
<time>2012-03-24T16:09:56.000Z</time>
</trkpt>
<trkpt lat="43.55895" lon="5.44182">
<ele>373.7</ele>
<time>2012-03-24T16:09:58.000Z</time>
</trkpt>
<trkpt lat="43.55895" lon="5.44175">
<ele>374.3</ele>
<time>2012-03-24T16:09:59.000Z</time>
</trkpt>
<trkpt lat="43.55894" lon="5.44165">
<ele>375.4</ele>
<time>2012-03-24T16:10:01.000Z</time>
</trkpt>
<trkpt lat="43.55894" lon="5.44158">
<ele>376.3</ele>
<time>2012-03-24T16:10:02.000Z</time>
</trkpt>
<trkpt lat="43.55893" lon="5.44147">
<ele>376.2</ele>
<time>2012-03-24T16:10:04.000Z</time>
</trkpt>
<trkpt lat="43.55894" lon="5.44137">
<ele>375.9</ele>
<time>2012-03-24T16:10:06.000Z</time>
</trkpt>
<trkpt lat="43.55896" lon="5.44127">
<ele>375.9</ele>
<time>2012-03-24T16:10:08.000Z</time>
</trkpt>
<trkpt lat="43.55896" lon="5.44117">
<ele>375.7</ele>
<time>2012-03-24T16:10:10.000Z</time>
</trkpt>
<trkpt lat="43.55896" lon="5.4411">
<ele>376.7</ele>
<time>2012-03-24T16:10:11.000Z</time>
</trkpt>
<trkpt lat="43.55898" lon="5.441">
<ele>376.5</ele>
<time>2012-03-24T16:10:13.000Z</time>
</trkpt>
<trkpt lat="43.559" lon="5.44094">
<ele>376.3</ele>
<time>2012-03-24T16:10:14.000Z</time>
</trkpt>
<trkpt lat="43.55901" lon="5.44088">
<ele>376.2</ele>
<time>2012-03-24T16:10:15.000Z</time>
</trkpt>
<trkpt lat="43.55902" lon="5.44082">
<ele>376.8</ele>
<time>2012-03-24T16:10:16.000Z</time>
</trkpt>
<trkpt lat="43.55905" lon="5.44069">
<ele>376.4</ele>
<time>2012-03-24T16:10:18.000Z</time>
</trkpt>
<trkpt lat="43.55907" lon="5.44063">
<ele>376.5</ele>
<time>2012-03-24T16:10:19.000Z</time>
</trkpt>
<trkpt lat="43.55908" lon="5.44056">
<ele>376.5</ele>
<time>2012-03-24T16:10:20.000Z</time>
</trkpt>
<trkpt lat="43.5591" lon="5.44049">
<ele>376.5</ele>
<time>2012-03-24T16:10:21.000Z</time>
</trkpt>
<trkpt lat="43.5591" lon="5.44041">
<ele>376.7</ele>
<time>2012-03-24T16:10:22.000Z</time>
</trkpt>
<trkpt lat="43.55913" lon="5.44034">
<ele>376.6</ele>
<time>2012-03-24T16:10:23.000Z</time>
</trkpt>
<trkpt lat="43.55916" lon="5.44028">
<ele>376.6</ele>
<time>2012-03-24T16:10:24.000Z</time>
</trkpt>
<trkpt lat="43.55917" lon="5.4402">
<ele>376.5</ele>
<time>2012-03-24T16:10:25.000Z</time>
</trkpt>
<trkpt lat="43.55918" lon="5.44013">
<ele>376.8</ele>
<time>2012-03-24T16:10:26.000Z</time>
</trkpt>
<trkpt lat="43.5592" lon="5.44007">
<ele>377.1</ele>
<time>2012-03-24T16:10:27.000Z</time>
</trkpt>
<trkpt lat="43.55924" lon="5.43995">
<ele>377.6</ele>
<time>2012-03-24T16:10:29.000Z</time>
</trkpt>
<trkpt lat="43.55925" lon="5.43988">
<ele>378.2</ele>
<time>2012-03-24T16:10:30.000Z</time>
</trkpt>
<trkpt lat="43.55931" lon="5.43977">
<ele>378.7</ele>
<time>2012-03-24T16:10:32.000Z</time>
</trkpt>
<trkpt lat="43.55933" lon="5.43971">
<ele>379.2</ele>
<time>2012-03-24T16:10:33.000Z</time>
</trkpt>
<trkpt lat="43.55936" lon="5.43966">
<ele>379.3</ele>
<time>2012-03-24T16:10:34.000Z</time>
</trkpt>
<trkpt lat="43.5594" lon="5.43961">
<ele>379.3</ele>
<time>2012-03-24T16:10:35.000Z</time>
</trkpt>
<trkpt lat="43.55945" lon="5.43956">
<ele>379.5</ele>
<time>2012-03-24T16:10:36.000Z</time>
</trkpt>
<trkpt lat="43.55949" lon="5.43952">
<ele>379.8</ele>
<time>2012-03-24T16:10:37.000Z</time>
</trkpt>
<trkpt lat="43.55954" lon="5.43947">
<ele>380.1</ele>
<time>2012-03-24T16:10:38.000Z</time>
</trkpt>
<trkpt lat="43.55958" lon="5.4394">
<ele>379.8</ele>
<time>2012-03-24T16:10:39.000Z</time>
</trkpt>
<trkpt lat="43.5596" lon="5.43933">
<ele>379.9</ele>
<time>2012-03-24T16:10:40.000Z</time>
</trkpt>
<trkpt lat="43.55962" lon="5.43926">
<ele>379.8</ele>
<time>2012-03-24T16:10:41.000Z</time>
</trkpt>
<trkpt lat="43.55964" lon="5.43918">
<ele>380.1</ele>
<time>2012-03-24T16:10:42.000Z</time>
</trkpt>
<trkpt lat="43.55965" lon="5.4391">
<ele>379.9</ele>
<time>2012-03-24T16:10:43.000Z</time>
</trkpt>
<trkpt lat="43.55967" lon="5.43904">
<ele>380</ele>
<time>2012-03-24T16:10:44.000Z</time>
</trkpt>
<trkpt lat="43.55969" lon="5.43896">
<ele>380.4</ele>
<time>2012-03-24T16:10:45.000Z</time>
</trkpt>
<trkpt lat="43.55971" lon="5.43889">
<ele>381</ele>
<time>2012-03-24T16:10:46.000Z</time>
</trkpt>
<trkpt lat="43.55972" lon="5.43881">
<ele>380.7</ele>
<time>2012-03-24T16:10:47.000Z</time>
</trkpt>
<trkpt lat="43.55974" lon="5.43873">
<ele>380.6</ele>
<time>2012-03-24T16:10:48.000Z</time>
</trkpt>
<trkpt lat="43.55974" lon="5.43865">
<ele>380.6</ele>
<time>2012-03-24T16:10:49.000Z</time>
</trkpt>
<trkpt lat="43.55974" lon="5.43858">
<ele>380.3</ele>
<time>2012-03-24T16:10:50.000Z</time>
</trkpt>
<trkpt lat="43.55975" lon="5.43851">
<ele>380.2</ele>
<time>2012-03-24T16:10:51.000Z</time>
</trkpt>
<trkpt lat="43.55975" lon="5.43842">
<ele>380</ele>
<time>2012-03-24T16:10:52.000Z</time>
</trkpt>
<trkpt lat="43.55976" lon="5.43833">
<ele>379.4</ele>
<time>2012-03-24T16:10:53.000Z</time>
</trkpt>
<trkpt lat="43.55977" lon="5.43822">
<ele>379.3</ele>
<time>2012-03-24T16:10:54.000Z</time>
</trkpt>
<trkpt lat="43.55977" lon="5.43813">
<ele>379.3</ele>
<time>2012-03-24T16:10:55.000Z</time>
</trkpt>
<trkpt lat="43.55978" lon="5.43803">
<ele>379.4</ele>
<time>2012-03-24T16:10:56.000Z</time>
</trkpt>
<trkpt lat="43.55976" lon="5.43796">
<ele>379.9</ele>
<time>2012-03-24T16:10:57.000Z</time>
</trkpt>
<trkpt lat="43.55977" lon="5.43785">
<ele>379.8</ele>
<time>2012-03-24T16:10:58.000Z</time>
</trkpt>
<trkpt lat="43.5598" lon="5.43775">
<ele>380</ele>
<time>2012-03-24T16:10:59.000Z</time>
</trkpt>
<trkpt lat="43.55981" lon="5.43767">
<ele>380</ele>
<time>2012-03-24T16:11:00.000Z</time>
</trkpt>
<trkpt lat="43.55984" lon="5.43759">
<ele>380.1</ele>
<time>2012-03-24T16:11:01.000Z</time>
</trkpt>
<trkpt lat="43.55987" lon="5.43752">
<ele>380.3</ele>
<time>2012-03-24T16:11:02.000Z</time>
</trkpt>
<trkpt lat="43.5599" lon="5.43745">
<ele>380.4</ele>
<time>2012-03-24T16:11:03.000Z</time>
</trkpt>
<trkpt lat="43.55994" lon="5.43736">
<ele>380.2</ele>
<time>2012-03-24T16:11:04.000Z</time>
</trkpt>
<trkpt lat="43.55997" lon="5.43728">
<ele>380.2</ele>
<time>2012-03-24T16:11:05.000Z</time>
</trkpt>
<trkpt lat="43.56" lon="5.43722">
<ele>380.3</ele>
<time>2012-03-24T16:11:06.000Z</time>
</trkpt>
<trkpt lat="43.56006" lon="5.43716">
<ele>380</ele>
<time>2012-03-24T16:11:07.000Z</time>
</trkpt>
<trkpt lat="43.5601" lon="5.4371">
<ele>379.8</ele>
<time>2012-03-24T16:11:08.000Z</time>
</trkpt>
<trkpt lat="43.56013" lon="5.43702">
<ele>379.7</ele>
<time>2012-03-24T16:11:09.000Z</time>
</trkpt>
<trkpt lat="43.56018" lon="5.43695">
<ele>379.7</ele>
<time>2012-03-24T16:11:10.000Z</time>
</trkpt>
<trkpt lat="43.56022" lon="5.43687">
<ele>379.8</ele>
<time>2012-03-24T16:11:11.000Z</time>
</trkpt>
<trkpt lat="43.56026" lon="5.43678">
<ele>379.8</ele>
<time>2012-03-24T16:11:12.000Z</time>
</trkpt>
<trkpt lat="43.5603" lon="5.43671">
<ele>379.5</ele>
<time>2012-03-24T16:11:13.000Z</time>
</trkpt>
<trkpt lat="43.56032" lon="5.43664">
<ele>379.3</ele>
<time>2012-03-24T16:11:14.000Z</time>
</trkpt>
<trkpt lat="43.56034" lon="5.43657">
<ele>379.5</ele>
<time>2012-03-24T16:11:15.000Z</time>
</trkpt>
<trkpt lat="43.56037" lon="5.4365">
<ele>379.1</ele>
<time>2012-03-24T16:11:16.000Z</time>
</trkpt>
<trkpt lat="43.56039" lon="5.43642">
<ele>379.1</ele>
<time>2012-03-24T16:11:17.000Z</time>
</trkpt>
<trkpt lat="43.5604" lon="5.43634">
<ele>378.8</ele>
<time>2012-03-24T16:11:18.000Z</time>
</trkpt>
<trkpt lat="43.56042" lon="5.43626">
<ele>378.7</ele>
<time>2012-03-24T16:11:19.000Z</time>
</trkpt>
<trkpt lat="43.56044" lon="5.43618">
<ele>378.8</ele>
<time>2012-03-24T16:11:20.000Z</time>
</trkpt>
<trkpt lat="43.56045" lon="5.4361">
<ele>379.2</ele>
<time>2012-03-24T16:11:21.000Z</time>
</trkpt>
<trkpt lat="43.56047" lon="5.43602">
<ele>379.6</ele>
<time>2012-03-24T16:11:22.000Z</time>
</trkpt>
<trkpt lat="43.56048" lon="5.43592">
<ele>379.4</ele>
<time>2012-03-24T16:11:23.000Z</time>
</trkpt>
<trkpt lat="43.5605" lon="5.43584">
<ele>379.4</ele>
<time>2012-03-24T16:11:24.000Z</time>
</trkpt>
<trkpt lat="43.56051" lon="5.43574">
<ele>379.3</ele>
<time>2012-03-24T16:11:25.000Z</time>
</trkpt>
<trkpt lat="43.56051" lon="5.43567">
<ele>379.1</ele>
<time>2012-03-24T16:11:26.000Z</time>
</trkpt>
<trkpt lat="43.56051" lon="5.43559">
<ele>378.6</ele>
<time>2012-03-24T16:11:27.000Z</time>
</trkpt>
<trkpt lat="43.56051" lon="5.4355">
<ele>378.6</ele>
<time>2012-03-24T16:11:28.000Z</time>
</trkpt>
<trkpt lat="43.56052" lon="5.43543">
<ele>378.4</ele>
<time>2012-03-24T16:11:29.000Z</time>
</trkpt>
<trkpt lat="43.56053" lon="5.43535">
<ele>378.1</ele>
<time>2012-03-24T16:11:30.000Z</time>
</trkpt>
<trkpt lat="43.56053" lon="5.43527">
<ele>377.8</ele>
<time>2012-03-24T16:11:31.000Z</time>
</trkpt>
<trkpt lat="43.56055" lon="5.4352">
<ele>377.8</ele>
<time>2012-03-24T16:11:32.000Z</time>
</trkpt>
<trkpt lat="43.56057" lon="5.43511">
<ele>377.5</ele>
<time>2012-03-24T16:11:33.000Z</time>
</trkpt>
<trkpt lat="43.5606" lon="5.43504">
<ele>377.3</ele>
<time>2012-03-24T16:11:34.000Z</time>
</trkpt>
<trkpt lat="43.56061" lon="5.43496">
<ele>377.6</ele>
<time>2012-03-24T16:11:35.000Z</time>
</trkpt>
<trkpt lat="43.5606" lon="5.43487">
<ele>378.3</ele>
<time>2012-03-24T16:11:36.000Z</time>
</trkpt>
<trkpt lat="43.56061" lon="5.43479">
<ele>378.6</ele>
<time>2012-03-24T16:11:37.000Z</time>
</trkpt>
<trkpt lat="43.56062" lon="5.43472">
<ele>378.3</ele>
<time>2012-03-24T16:11:38.000Z</time>
</trkpt>
<trkpt lat="43.56063" lon="5.43465">
<ele>378</ele>
<time>2012-03-24T16:11:39.000Z</time>
</trkpt>
<trkpt lat="43.56066" lon="5.43459">
<ele>378.2</ele>
<time>2012-03-24T16:11:40.000Z</time>
</trkpt>
<trkpt lat="43.56066" lon="5.43452">
<ele>378.6</ele>
<time>2012-03-24T16:11:41.000Z</time>
</trkpt>
<trkpt lat="43.56069" lon="5.43445">
<ele>378.2</ele>
<time>2012-03-24T16:11:42.000Z</time>
</trkpt>
<trkpt lat="43.56071" lon="5.43438">
<ele>378.2</ele>
<time>2012-03-24T16:11:43.000Z</time>
</trkpt>
<trkpt lat="43.56071" lon="5.43431">
<ele>378.2</ele>
<time>2012-03-24T16:11:44.000Z</time>
</trkpt>
<trkpt lat="43.56071" lon="5.43424">
<ele>378.1</ele>
<time>2012-03-24T16:11:45.000Z</time>
</trkpt>
<trkpt lat="43.56072" lon="5.43416">
<ele>377.6</ele>
<time>2012-03-24T16:11:46.000Z</time>
</trkpt>
<trkpt lat="43.56073" lon="5.4341">
<ele>377.1</ele>
<time>2012-03-24T16:11:47.000Z</time>
</trkpt>
<trkpt lat="43.56074" lon="5.43404">
<ele>376.3</ele>
<time>2012-03-24T16:11:48.000Z</time>
</trkpt>
<trkpt lat="43.56075" lon="5.43394">
<ele>376.9</ele>
<time>2012-03-24T16:11:50.000Z</time>
</trkpt>
<trkpt lat="43.56072" lon="5.43386">
<ele>376.5</ele>
<time>2012-03-24T16:11:53.000Z</time>
</trkpt>
<trkpt lat="43.56068" lon="5.43379">
<ele>376.1</ele>
<time>2012-03-24T16:11:57.000Z</time>
</trkpt>
<trkpt lat="43.56063" lon="5.43373">
<ele>375.8</ele>
<time>2012-03-24T16:12:01.000Z</time>
</trkpt>
<trkpt lat="43.56057" lon="5.43373">
<ele>376.1</ele>
<time>2012-03-24T16:12:04.000Z</time>
</trkpt>
<trkpt lat="43.56051" lon="5.43374">
<ele>376.6</ele>
<time>2012-03-24T16:12:07.000Z</time>
</trkpt>
<trkpt lat="43.56046" lon="5.43376">
<ele>377.6</ele>
<time>2012-03-24T16:12:09.000Z</time>
</trkpt>
<trkpt lat="43.56039" lon="5.43381">
<ele>377.6</ele>
<time>2012-03-24T16:12:11.000Z</time>
</trkpt>
<trkpt lat="43.56033" lon="5.43382">
<ele>376.6</ele>
<time>2012-03-24T16:12:12.000Z</time>
</trkpt>
<trkpt lat="43.56026" lon="5.43382">
<ele>376.1</ele>
<time>2012-03-24T16:12:13.000Z</time>
</trkpt>
<trkpt lat="43.5602" lon="5.43384">
<ele>376.5</ele>
<time>2012-03-24T16:12:14.000Z</time>
</trkpt>
<trkpt lat="43.56014" lon="5.43385">
<ele>376.2</ele>
<time>2012-03-24T16:12:15.000Z</time>
</trkpt>
<trkpt lat="43.56008" lon="5.43388">
<ele>375.9</ele>
<time>2012-03-24T16:12:16.000Z</time>
</trkpt>
<trkpt lat="43.56001" lon="5.43388">
<ele>375.9</ele>
<time>2012-03-24T16:12:17.000Z</time>
</trkpt>
<trkpt lat="43.55992" lon="5.43389">
<ele>375.5</ele>
<time>2012-03-24T16:12:18.000Z</time>
</trkpt>
<trkpt lat="43.55986" lon="5.43391">
<ele>376.1</ele>
<time>2012-03-24T16:12:19.000Z</time>
</trkpt>
<trkpt lat="43.5598" lon="5.43391">
<ele>376</ele>
<time>2012-03-24T16:12:20.000Z</time>
</trkpt>
<trkpt lat="43.55974" lon="5.43395">
<ele>376</ele>
<time>2012-03-24T16:12:21.000Z</time>
</trkpt>
<trkpt lat="43.55966" lon="5.43396">
<ele>376.1</ele>
<time>2012-03-24T16:12:22.000Z</time>
</trkpt>
<trkpt lat="43.55959" lon="5.43397">
<ele>376.2</ele>
<time>2012-03-24T16:12:23.000Z</time>
</trkpt>
<trkpt lat="43.55952" lon="5.43399">
<ele>375.9</ele>
<time>2012-03-24T16:12:24.000Z</time>
</trkpt>
<trkpt lat="43.55944" lon="5.434">
<ele>375.4</ele>
<time>2012-03-24T16:12:25.000Z</time>
</trkpt>
<trkpt lat="43.55938" lon="5.43401">
<ele>375.4</ele>
<time>2012-03-24T16:12:26.000Z</time>
</trkpt>
<trkpt lat="43.5593" lon="5.43402">
<ele>375.9</ele>
<time>2012-03-24T16:12:27.000Z</time>
</trkpt>
<trkpt lat="43.55924" lon="5.43404">
<ele>375.8</ele>
<time>2012-03-24T16:12:28.000Z</time>
</trkpt>
<trkpt lat="43.55919" lon="5.43404">
<ele>375.7</ele>
<time>2012-03-24T16:12:29.000Z</time>
</trkpt>
<trkpt lat="43.55914" lon="5.43406">
<ele>375.8</ele>
<time>2012-03-24T16:12:30.000Z</time>
</trkpt>
<trkpt lat="43.55909" lon="5.43408">
<ele>375.7</ele>
<time>2012-03-24T16:12:31.000Z</time>
</trkpt>
<trkpt lat="43.55903" lon="5.43411">
<ele>376</ele>
<time>2012-03-24T16:12:33.000Z</time>
</trkpt>
<trkpt lat="43.55893" lon="5.43416">
<ele>376.6</ele>
<time>2012-03-24T16:12:35.000Z</time>
</trkpt>
<trkpt lat="43.55886" lon="5.43418">
<ele>377.1</ele>
<time>2012-03-24T16:12:36.000Z</time>
</trkpt>
<trkpt lat="43.55873" lon="5.43418">
<ele>376.6</ele>
<time>2012-03-24T16:12:38.000Z</time>
</trkpt>
<trkpt lat="43.55866" lon="5.43418">
<ele>376</ele>
<time>2012-03-24T16:12:39.000Z</time>
</trkpt>
<trkpt lat="43.55859" lon="5.43418">
<ele>376.3</ele>
<time>2012-03-24T16:12:40.000Z</time>
</trkpt>
<trkpt lat="43.55851" lon="5.43418">
<ele>376.3</ele>
<time>2012-03-24T16:12:41.000Z</time>
</trkpt>
<trkpt lat="43.55846" lon="5.43416">
<ele>376.3</ele>
<time>2012-03-24T16:12:42.000Z</time>
</trkpt>
<trkpt lat="43.55841" lon="5.43415">
<ele>376.2</ele>
<time>2012-03-24T16:12:43.000Z</time>
</trkpt>
<trkpt lat="43.55834" lon="5.43413">
<ele>376</ele>
<time>2012-03-24T16:12:44.000Z</time>
</trkpt>
<trkpt lat="43.55827" lon="5.43411">
<ele>376.4</ele>
<time>2012-03-24T16:12:45.000Z</time>
</trkpt>
<trkpt lat="43.55822" lon="5.43409">
<ele>376.3</ele>
<time>2012-03-24T16:12:46.000Z</time>
</trkpt>
<trkpt lat="43.55816" lon="5.43407">
<ele>376.3</ele>
<time>2012-03-24T16:12:47.000Z</time>
</trkpt>
<trkpt lat="43.5581" lon="5.43406">
<ele>375.7</ele>
<time>2012-03-24T16:12:48.000Z</time>
</trkpt>
<trkpt lat="43.55806" lon="5.43404">
<ele>375.3</ele>
<time>2012-03-24T16:12:49.000Z</time>
</trkpt>
<trkpt lat="43.55798" lon="5.43401">
<ele>375.5</ele>
<time>2012-03-24T16:12:50.000Z</time>
</trkpt>
<trkpt lat="43.55794" lon="5.43394">
<ele>375.6</ele>
<time>2012-03-24T16:12:51.000Z</time>
</trkpt>
<trkpt lat="43.55792" lon="5.43388">
<ele>375.7</ele>
<time>2012-03-24T16:12:52.000Z</time>
</trkpt>
<trkpt lat="43.5579" lon="5.4338">
<ele>375.3</ele>
<time>2012-03-24T16:12:53.000Z</time>
</trkpt>
<trkpt lat="43.5579" lon="5.43372">
<ele>375.4</ele>
<time>2012-03-24T16:12:54.000Z</time>
</trkpt>
<trkpt lat="43.55792" lon="5.43364">
<ele>375.3</ele>
<time>2012-03-24T16:12:55.000Z</time>
</trkpt>
<trkpt lat="43.55795" lon="5.43359">
<ele>375.5</ele>
<time>2012-03-24T16:12:56.000Z</time>
</trkpt>
<trkpt lat="43.558" lon="5.43353">
<ele>375.4</ele>
<time>2012-03-24T16:12:57.000Z</time>
</trkpt>
<trkpt lat="43.55808" lon="5.43347">
<ele>374.4</ele>
<time>2012-03-24T16:12:58.000Z</time>
</trkpt>
<trkpt lat="43.55814" lon="5.43342">
<ele>374.1</ele>
<time>2012-03-24T16:12:59.000Z</time>
</trkpt>
<trkpt lat="43.55821" lon="5.43338">
<ele>374.3</ele>
<time>2012-03-24T16:13:00.000Z</time>
</trkpt>
<trkpt lat="43.55827" lon="5.43332">
<ele>373.9</ele>
<time>2012-03-24T16:13:01.000Z</time>
</trkpt>
<trkpt lat="43.55833" lon="5.43328">
<ele>374</ele>
<time>2012-03-24T16:13:02.000Z</time>
</trkpt>
<trkpt lat="43.55839" lon="5.43322">
<ele>374.2</ele>
<time>2012-03-24T16:13:03.000Z</time>
</trkpt>
<trkpt lat="43.55846" lon="5.43315">
<ele>373.6</ele>
<time>2012-03-24T16:13:04.000Z</time>
</trkpt>
<trkpt lat="43.55852" lon="5.4331">
<ele>373.9</ele>
<time>2012-03-24T16:13:05.000Z</time>
</trkpt>
<trkpt lat="43.55859" lon="5.43303">
<ele>373.6</ele>
<time>2012-03-24T16:13:06.000Z</time>
</trkpt>
<trkpt lat="43.55866" lon="5.43297">
<ele>373.7</ele>
<time>2012-03-24T16:13:07.000Z</time>
</trkpt>
<trkpt lat="43.55874" lon="5.43292">
<ele>373.7</ele>
<time>2012-03-24T16:13:08.000Z</time>
</trkpt>
<trkpt lat="43.55882" lon="5.43287">
<ele>373.7</ele>
<time>2012-03-24T16:13:09.000Z</time>
</trkpt>
<trkpt lat="43.5589" lon="5.43281">
<ele>373.6</ele>
<time>2012-03-24T16:13:10.000Z</time>
</trkpt>
<trkpt lat="43.55897" lon="5.43276">
<ele>373.5</ele>
<time>2012-03-24T16:13:11.000Z</time>
</trkpt>
<trkpt lat="43.55904" lon="5.43269">
<ele>373.9</ele>
<time>2012-03-24T16:13:12.000Z</time>
</trkpt>
<trkpt lat="43.55911" lon="5.43264">
<ele>373.9</ele>
<time>2012-03-24T16:13:13.000Z</time>
</trkpt>
<trkpt lat="43.55921" lon="5.43257">
<ele>374.1</ele>
<time>2012-03-24T16:13:14.000Z</time>
</trkpt>
<trkpt lat="43.5593" lon="5.43251">
<ele>374.1</ele>
<time>2012-03-24T16:13:15.000Z</time>
</trkpt>
<trkpt lat="43.55938" lon="5.43246">
<ele>373.7</ele>
<time>2012-03-24T16:13:16.000Z</time>
</trkpt>
<trkpt lat="43.55946" lon="5.43241">
<ele>373.9</ele>
<time>2012-03-24T16:13:17.000Z</time>
</trkpt>
<trkpt lat="43.55954" lon="5.43234">
<ele>373.5</ele>
<time>2012-03-24T16:13:18.000Z</time>
</trkpt>
<trkpt lat="43.55962" lon="5.43228">
<ele>373.9</ele>
<time>2012-03-24T16:13:19.000Z</time>
</trkpt>
<trkpt lat="43.5597" lon="5.43221">
<ele>373.9</ele>
<time>2012-03-24T16:13:20.000Z</time>
</trkpt>
<trkpt lat="43.55978" lon="5.43214">
<ele>374.3</ele>
<time>2012-03-24T16:13:21.000Z</time>
</trkpt>
<trkpt lat="43.55986" lon="5.43208">
<ele>374.5</ele>
<time>2012-03-24T16:13:22.000Z</time>
</trkpt>
<trkpt lat="43.55996" lon="5.43202">
<ele>374.3</ele>
<time>2012-03-24T16:13:23.000Z</time>
</trkpt>
<trkpt lat="43.56002" lon="5.43194">
<ele>374.8</ele>
<time>2012-03-24T16:13:24.000Z</time>
</trkpt>
<trkpt lat="43.56009" lon="5.43188">
<ele>374.6</ele>
<time>2012-03-24T16:13:25.000Z</time>
</trkpt>
<trkpt lat="43.56015" lon="5.4318">
<ele>374.7</ele>
<time>2012-03-24T16:13:26.000Z</time>
</trkpt>
<trkpt lat="43.56023" lon="5.43173">
<ele>374.8</ele>
<time>2012-03-24T16:13:27.000Z</time>
</trkpt>
<trkpt lat="43.56031" lon="5.43167">
<ele>374.2</ele>
<time>2012-03-24T16:13:28.000Z</time>
</trkpt>
<trkpt lat="43.56038" lon="5.43162">
<ele>374.1</ele>
<time>2012-03-24T16:13:29.000Z</time>
</trkpt>
<trkpt lat="43.56047" lon="5.43157">
<ele>374.4</ele>
<time>2012-03-24T16:13:30.000Z</time>
</trkpt>
<trkpt lat="43.56058" lon="5.43153">
<ele>374.6</ele>
<time>2012-03-24T16:13:31.000Z</time>
</trkpt>
<trkpt lat="43.56069" lon="5.43152">
<ele>375.5</ele>
<time>2012-03-24T16:13:32.000Z</time>
</trkpt>
<trkpt lat="43.56079" lon="5.4315">
<ele>374.9</ele>
<time>2012-03-24T16:13:33.000Z</time>
</trkpt>
<trkpt lat="43.5609" lon="5.43151">
<ele>374.6</ele>
<time>2012-03-24T16:13:34.000Z</time>
</trkpt>
<trkpt lat="43.56099" lon="5.43149">
<ele>374.4</ele>
<time>2012-03-24T16:13:35.000Z</time>
</trkpt>
<trkpt lat="43.5611" lon="5.43148">
<ele>374.3</ele>
<time>2012-03-24T16:13:36.000Z</time>
</trkpt>
<trkpt lat="43.5612" lon="5.43146">
<ele>374.3</ele>
<time>2012-03-24T16:13:37.000Z</time>
</trkpt>
<trkpt lat="43.56128" lon="5.43144">
<ele>374.7</ele>
<time>2012-03-24T16:13:38.000Z</time>
</trkpt>
<trkpt lat="43.56139" lon="5.4314">
<ele>374.8</ele>
<time>2012-03-24T16:13:39.000Z</time>
</trkpt>
<trkpt lat="43.56148" lon="5.43133">
<ele>374.2</ele>
<time>2012-03-24T16:13:40.000Z</time>
</trkpt>
<trkpt lat="43.56157" lon="5.43126">
<ele>373.9</ele>
<time>2012-03-24T16:13:41.000Z</time>
</trkpt>
<trkpt lat="43.56165" lon="5.43119">
<ele>373.7</ele>
<time>2012-03-24T16:13:42.000Z</time>
</trkpt>
<trkpt lat="43.56172" lon="5.43112">
<ele>373.6</ele>
<time>2012-03-24T16:13:43.000Z</time>
</trkpt>
<trkpt lat="43.5618" lon="5.43104">
<ele>373.2</ele>
<time>2012-03-24T16:13:44.000Z</time>
</trkpt>
<trkpt lat="43.56187" lon="5.43097">
<ele>373.5</ele>
<time>2012-03-24T16:13:45.000Z</time>
</trkpt>
<trkpt lat="43.56194" lon="5.4309">
<ele>373.4</ele>
<time>2012-03-24T16:13:46.000Z</time>
</trkpt>
<trkpt lat="43.56202" lon="5.43083">
<ele>373.2</ele>
<time>2012-03-24T16:13:47.000Z</time>
</trkpt>
<trkpt lat="43.5621" lon="5.43077">
<ele>372.5</ele>
<time>2012-03-24T16:13:48.000Z</time>
</trkpt>
<trkpt lat="43.56217" lon="5.43071">
<ele>372.3</ele>
<time>2012-03-24T16:13:49.000Z</time>
</trkpt>
<trkpt lat="43.56224" lon="5.43065">
<ele>372.1</ele>
<time>2012-03-24T16:13:50.000Z</time>
</trkpt>
<trkpt lat="43.56232" lon="5.43058">
<ele>371.3</ele>
<time>2012-03-24T16:13:51.000Z</time>
</trkpt>
<trkpt lat="43.5624" lon="5.43051">
<ele>370.6</ele>
<time>2012-03-24T16:13:52.000Z</time>
</trkpt>
<trkpt lat="43.56247" lon="5.43044">
<ele>369.8</ele>
<time>2012-03-24T16:13:53.000Z</time>
</trkpt>
<trkpt lat="43.56254" lon="5.43036">
<ele>369.8</ele>
<time>2012-03-24T16:13:54.000Z</time>
</trkpt>
<trkpt lat="43.56261" lon="5.4303">
<ele>369.4</ele>
<time>2012-03-24T16:13:55.000Z</time>
</trkpt>
<trkpt lat="43.56268" lon="5.43025">
<ele>368.7</ele>
<time>2012-03-24T16:13:56.000Z</time>
</trkpt>
<trkpt lat="43.56276" lon="5.43021">
<ele>368</ele>
<time>2012-03-24T16:13:57.000Z</time>
</trkpt>
<trkpt lat="43.56284" lon="5.43014">
<ele>367.8</ele>
<time>2012-03-24T16:13:58.000Z</time>
</trkpt>
<trkpt lat="43.56288" lon="5.4301">
<ele>367.1</ele>
<time>2012-03-24T16:13:59.000Z</time>
</trkpt>
<trkpt lat="43.56294" lon="5.43005">
<ele>366.9</ele>
<time>2012-03-24T16:14:00.000Z</time>
</trkpt>
<trkpt lat="43.56299" lon="5.43002">
<ele>365.9</ele>
<time>2012-03-24T16:14:01.000Z</time>
</trkpt>
<trkpt lat="43.56304" lon="5.42999">
<ele>365.9</ele>
<time>2012-03-24T16:14:02.000Z</time>
</trkpt>
<trkpt lat="43.56312" lon="5.42994">
<ele>365.3</ele>
<time>2012-03-24T16:14:04.000Z</time>
</trkpt>
<trkpt lat="43.56318" lon="5.42986">
<ele>364.4</ele>
<time>2012-03-24T16:14:06.000Z</time>
</trkpt>
<trkpt lat="43.56318" lon="5.42976">
<ele>364.2</ele>
<time>2012-03-24T16:14:08.000Z</time>
</trkpt>
<trkpt lat="43.56314" lon="5.42964">
<ele>363.9</ele>
<time>2012-03-24T16:14:10.000Z</time>
</trkpt>
<trkpt lat="43.56313" lon="5.42953">
<ele>364</ele>
<time>2012-03-24T16:14:12.000Z</time>
</trkpt>
<trkpt lat="43.56317" lon="5.42945">
<ele>363.6</ele>
<time>2012-03-24T16:14:14.000Z</time>
</trkpt>
<trkpt lat="43.56321" lon="5.42941">
<ele>363.5</ele>
<time>2012-03-24T16:14:15.000Z</time>
</trkpt>
<trkpt lat="43.56325" lon="5.42936">
<ele>363.1</ele>
<time>2012-03-24T16:14:16.000Z</time>
</trkpt>
<trkpt lat="43.56329" lon="5.42932">
<ele>362.9</ele>
<time>2012-03-24T16:14:17.000Z</time>
</trkpt>
<trkpt lat="43.56333" lon="5.42927">
<ele>362.4</ele>
<time>2012-03-24T16:14:18.000Z</time>
</trkpt>
<trkpt lat="43.56338" lon="5.42922">
<ele>362.6</ele>
<time>2012-03-24T16:14:19.000Z</time>
</trkpt>
<trkpt lat="43.56343" lon="5.42916">
<ele>362.2</ele>
<time>2012-03-24T16:14:20.000Z</time>
</trkpt>
<trkpt lat="43.56348" lon="5.42911">
<ele>362.2</ele>
<time>2012-03-24T16:14:21.000Z</time>
</trkpt>
<trkpt lat="43.56354" lon="5.42903">
<ele>361.7</ele>
<time>2012-03-24T16:14:22.000Z</time>
</trkpt>
<trkpt lat="43.56357" lon="5.42896">
<ele>361.6</ele>
<time>2012-03-24T16:14:23.000Z</time>
</trkpt>
<trkpt lat="43.56362" lon="5.42888">
<ele>361.4</ele>
<time>2012-03-24T16:14:24.000Z</time>
</trkpt>
<trkpt lat="43.56367" lon="5.42881">
<ele>361.2</ele>
<time>2012-03-24T16:14:25.000Z</time>
</trkpt>
<trkpt lat="43.56371" lon="5.42873">
<ele>361.3</ele>
<time>2012-03-24T16:14:26.000Z</time>
</trkpt>
<trkpt lat="43.56375" lon="5.42865">
<ele>361.6</ele>
<time>2012-03-24T16:14:27.000Z</time>
</trkpt>
<trkpt lat="43.56379" lon="5.42858">
<ele>361.6</ele>
<time>2012-03-24T16:14:28.000Z</time>
</trkpt>
<trkpt lat="43.56383" lon="5.42849">
<ele>361.4</ele>
<time>2012-03-24T16:14:29.000Z</time>
</trkpt>
<trkpt lat="43.56388" lon="5.42843">
<ele>361.3</ele>
<time>2012-03-24T16:14:30.000Z</time>
</trkpt>
<trkpt lat="43.56393" lon="5.42835">
<ele>360.9</ele>
<time>2012-03-24T16:14:31.000Z</time>
</trkpt>
<trkpt lat="43.56398" lon="5.42826">
<ele>361.1</ele>
<time>2012-03-24T16:14:32.000Z</time>
</trkpt>
<trkpt lat="43.56402" lon="5.42819">
<ele>361</ele>
<time>2012-03-24T16:14:33.000Z</time>
</trkpt>
<trkpt lat="43.56408" lon="5.4281">
<ele>360.6</ele>
<time>2012-03-24T16:14:34.000Z</time>
</trkpt>
<trkpt lat="43.56413" lon="5.42804">
<ele>360.3</ele>
<time>2012-03-24T16:14:35.000Z</time>
</trkpt>
<trkpt lat="43.56419" lon="5.42796">
<ele>360.1</ele>
<time>2012-03-24T16:14:36.000Z</time>
</trkpt>
<trkpt lat="43.56423" lon="5.42791">
<ele>360.1</ele>
<time>2012-03-24T16:14:37.000Z</time>
</trkpt>
<trkpt lat="43.56428" lon="5.42784">
<ele>360.3</ele>
<time>2012-03-24T16:14:38.000Z</time>
</trkpt>
<trkpt lat="43.56432" lon="5.42778">
<ele>360.6</ele>
<time>2012-03-24T16:14:39.000Z</time>
</trkpt>
<trkpt lat="43.56434" lon="5.42767">
<ele>360.9</ele>
<time>2012-03-24T16:14:41.000Z</time>
</trkpt>
<trkpt lat="43.56443" lon="5.42752">
<ele>361.4</ele>
<time>2012-03-24T16:14:43.000Z</time>
</trkpt>
<trkpt lat="43.56448" lon="5.42742">
<ele>360.7</ele>
<time>2012-03-24T16:14:44.000Z</time>
</trkpt>
<trkpt lat="43.56453" lon="5.42731">
<ele>361.3</ele>
<time>2012-03-24T16:14:45.000Z</time>
</trkpt>
<trkpt lat="43.56456" lon="5.42725">
<ele>361</ele>
<time>2012-03-24T16:14:46.000Z</time>
</trkpt>
<trkpt lat="43.5646" lon="5.42712">
<ele>360.9</ele>
<time>2012-03-24T16:14:47.000Z</time>
</trkpt>
<trkpt lat="43.56463" lon="5.42703">
<ele>360.4</ele>
<time>2012-03-24T16:14:48.000Z</time>
</trkpt>
<trkpt lat="43.56468" lon="5.42692">
<ele>359.8</ele>
<time>2012-03-24T16:14:49.000Z</time>
</trkpt>
<trkpt lat="43.56471" lon="5.42683">
<ele>359.6</ele>
<time>2012-03-24T16:14:50.000Z</time>
</trkpt>
<trkpt lat="43.56475" lon="5.42674">
<ele>359.4</ele>
<time>2012-03-24T16:14:51.000Z</time>
</trkpt>
<trkpt lat="43.5648" lon="5.42666">
<ele>358.9</ele>
<time>2012-03-24T16:14:52.000Z</time>
</trkpt>
<trkpt lat="43.56484" lon="5.42658">
<ele>359.3</ele>
<time>2012-03-24T16:14:53.000Z</time>
</trkpt>
<trkpt lat="43.56487" lon="5.42651">
<ele>359.6</ele>
<time>2012-03-24T16:14:54.000Z</time>
</trkpt>
<trkpt lat="43.5649" lon="5.42642">
<ele>359.2</ele>
<time>2012-03-24T16:14:55.000Z</time>
</trkpt>
<trkpt lat="43.56494" lon="5.42634">
<ele>358.9</ele>
<time>2012-03-24T16:14:56.000Z</time>
</trkpt>
<trkpt lat="43.56498" lon="5.42625">
<ele>358.5</ele>
<time>2012-03-24T16:14:57.000Z</time>
</trkpt>
<trkpt lat="43.56504" lon="5.42615">
<ele>357.8</ele>
<time>2012-03-24T16:14:58.000Z</time>
</trkpt>
<trkpt lat="43.56508" lon="5.42605">
<ele>356.8</ele>
<time>2012-03-24T16:14:59.000Z</time>
</trkpt>
<trkpt lat="43.56513" lon="5.42597">
<ele>356.4</ele>
<time>2012-03-24T16:15:00.000Z</time>
</trkpt>
<trkpt lat="43.56517" lon="5.42589">
<ele>356.3</ele>
<time>2012-03-24T16:15:01.000Z</time>
</trkpt>
<trkpt lat="43.56521" lon="5.42581">
<ele>356</ele>
<time>2012-03-24T16:15:02.000Z</time>
</trkpt>
<trkpt lat="43.56525" lon="5.42573">
<ele>355.7</ele>
<time>2012-03-24T16:15:03.000Z</time>
</trkpt>
<trkpt lat="43.5653" lon="5.42564">
<ele>355.3</ele>
<time>2012-03-24T16:15:04.000Z</time>
</trkpt>
<trkpt lat="43.56534" lon="5.42556">
<ele>354.8</ele>
<time>2012-03-24T16:15:05.000Z</time>
</trkpt>
<trkpt lat="43.56536" lon="5.42548">
<ele>354.2</ele>
<time>2012-03-24T16:15:06.000Z</time>
</trkpt>
<trkpt lat="43.5654" lon="5.42538">
<ele>354.7</ele>
<time>2012-03-24T16:15:07.000Z</time>
</trkpt>
<trkpt lat="43.56542" lon="5.42531">
<ele>354.3</ele>
<time>2012-03-24T16:15:08.000Z</time>
</trkpt>
<trkpt lat="43.56545" lon="5.42522">
<ele>354.2</ele>
<time>2012-03-24T16:15:09.000Z</time>
</trkpt>
<trkpt lat="43.56547" lon="5.42514">
<ele>354.1</ele>
<time>2012-03-24T16:15:10.000Z</time>
</trkpt>
<trkpt lat="43.56548" lon="5.42505">
<ele>354.2</ele>
<time>2012-03-24T16:15:11.000Z</time>
</trkpt>
<trkpt lat="43.56551" lon="5.42494">
<ele>354.2</ele>
<time>2012-03-24T16:15:12.000Z</time>
</trkpt>
<trkpt lat="43.56553" lon="5.42486">
<ele>354.3</ele>
<time>2012-03-24T16:15:13.000Z</time>
</trkpt>
<trkpt lat="43.56552" lon="5.42477">
<ele>354.4</ele>
<time>2012-03-24T16:15:14.000Z</time>
</trkpt>
<trkpt lat="43.56553" lon="5.42468">
<ele>354.2</ele>
<time>2012-03-24T16:15:15.000Z</time>
</trkpt>
<trkpt lat="43.56554" lon="5.4246">
<ele>354</ele>
<time>2012-03-24T16:15:16.000Z</time>
</trkpt>
<trkpt lat="43.56556" lon="5.4245">
<ele>354</ele>
<time>2012-03-24T16:15:17.000Z</time>
</trkpt>
<trkpt lat="43.5656" lon="5.42442">
<ele>353.6</ele>
<time>2012-03-24T16:15:18.000Z</time>
</trkpt>
<trkpt lat="43.56563" lon="5.42434">
<ele>353.3</ele>
<time>2012-03-24T16:15:19.000Z</time>
</trkpt>
<trkpt lat="43.56567" lon="5.42427">
<ele>352.9</ele>
<time>2012-03-24T16:15:20.000Z</time>
</trkpt>
<trkpt lat="43.56571" lon="5.4242">
<ele>352.5</ele>
<time>2012-03-24T16:15:21.000Z</time>
</trkpt>
<trkpt lat="43.56575" lon="5.42415">
<ele>352.3</ele>
<time>2012-03-24T16:15:22.000Z</time>
</trkpt>
<trkpt lat="43.56579" lon="5.42407">
<ele>352.3</ele>
<time>2012-03-24T16:15:24.000Z</time>
</trkpt>
<trkpt lat="43.56582" lon="5.42402">
<ele>352.3</ele>
<time>2012-03-24T16:15:25.000Z</time>
</trkpt>
<trkpt lat="43.56584" lon="5.42396">
<ele>352.6</ele>
<time>2012-03-24T16:15:26.000Z</time>
</trkpt>
<trkpt lat="43.56588" lon="5.42392">
<ele>352.4</ele>
<time>2012-03-24T16:15:27.000Z</time>
</trkpt>
<trkpt lat="43.5659" lon="5.42386">
<ele>352.4</ele>
<time>2012-03-24T16:15:28.000Z</time>
</trkpt>
<trkpt lat="43.56594" lon="5.42378">
<ele>351.8</ele>
<time>2012-03-24T16:15:29.000Z</time>
</trkpt>
<trkpt lat="43.56597" lon="5.42372">
<ele>351.9</ele>
<time>2012-03-24T16:15:30.000Z</time>
</trkpt>
<trkpt lat="43.56601" lon="5.42366">
<ele>352.2</ele>
<time>2012-03-24T16:15:31.000Z</time>
</trkpt>
<trkpt lat="43.56604" lon="5.4236">
<ele>352.3</ele>
<time>2012-03-24T16:15:32.000Z</time>
</trkpt>
<trkpt lat="43.56607" lon="5.42354">
<ele>352</ele>
<time>2012-03-24T16:15:33.000Z</time>
</trkpt>
<trkpt lat="43.56611" lon="5.42347">
<ele>351.8</ele>
<time>2012-03-24T16:15:34.000Z</time>
</trkpt>
<trkpt lat="43.56614" lon="5.42341">
<ele>351.7</ele>
<time>2012-03-24T16:15:35.000Z</time>
</trkpt>
<trkpt lat="43.56618" lon="5.42335">
<ele>351.8</ele>
<time>2012-03-24T16:15:36.000Z</time>
</trkpt>
<trkpt lat="43.5662" lon="5.42329">
<ele>351.8</ele>
<time>2012-03-24T16:15:37.000Z</time>
</trkpt>
<trkpt lat="43.56623" lon="5.42321">
<ele>352</ele>
<time>2012-03-24T16:15:38.000Z</time>
</trkpt>
<trkpt lat="43.56627" lon="5.42314">
<ele>352.1</ele>
<time>2012-03-24T16:15:39.000Z</time>
</trkpt>
<trkpt lat="43.56629" lon="5.42308">
<ele>352.2</ele>
<time>2012-03-24T16:15:40.000Z</time>
</trkpt>
<trkpt lat="43.56632" lon="5.42302">
<ele>352.2</ele>
<time>2012-03-24T16:15:41.000Z</time>
</trkpt>
<trkpt lat="43.56636" lon="5.42296">
<ele>352.1</ele>
<time>2012-03-24T16:15:42.000Z</time>
</trkpt>
<trkpt lat="43.5664" lon="5.4229">
<ele>351.9</ele>
<time>2012-03-24T16:15:43.000Z</time>
</trkpt>
<trkpt lat="43.56644" lon="5.42283">
<ele>351.2</ele>
<time>2012-03-24T16:15:44.000Z</time>
</trkpt>
<trkpt lat="43.5665" lon="5.42277">
<ele>350.9</ele>
<time>2012-03-24T16:15:45.000Z</time>
</trkpt>
<trkpt lat="43.56654" lon="5.4227">
<ele>351</ele>
<time>2012-03-24T16:15:46.000Z</time>
</trkpt>
<trkpt lat="43.5666" lon="5.42256">
<ele>351</ele>
<time>2012-03-24T16:15:48.000Z</time>
</trkpt>
<trkpt lat="43.56663" lon="5.42249">
<ele>351.2</ele>
<time>2012-03-24T16:15:49.000Z</time>
</trkpt>
<trkpt lat="43.56667" lon="5.42242">
<ele>350.6</ele>
<time>2012-03-24T16:15:50.000Z</time>
</trkpt>
<trkpt lat="43.56671" lon="5.42234">
<ele>350.6</ele>
<time>2012-03-24T16:15:51.000Z</time>
</trkpt>
<trkpt lat="43.56675" lon="5.42225">
<ele>350.1</ele>
<time>2012-03-24T16:15:52.000Z</time>
</trkpt>
<trkpt lat="43.56679" lon="5.42217">
<ele>350.1</ele>
<time>2012-03-24T16:15:53.000Z</time>
</trkpt>
<trkpt lat="43.56682" lon="5.42209">
<ele>350.1</ele>
<time>2012-03-24T16:15:54.000Z</time>
</trkpt>
<trkpt lat="43.56686" lon="5.42199">
<ele>349.8</ele>
<time>2012-03-24T16:15:55.000Z</time>
</trkpt>
<trkpt lat="43.5669" lon="5.42191">
<ele>349.9</ele>
<time>2012-03-24T16:15:56.000Z</time>
</trkpt>
<trkpt lat="43.56695" lon="5.42183">
<ele>350</ele>
<time>2012-03-24T16:15:57.000Z</time>
</trkpt>
<trkpt lat="43.56699" lon="5.42175">
<ele>350</ele>
<time>2012-03-24T16:15:58.000Z</time>
</trkpt>
<trkpt lat="43.56704" lon="5.42166">
<ele>350.1</ele>
<time>2012-03-24T16:15:59.000Z</time>
</trkpt>
<trkpt lat="43.56709" lon="5.42156">
<ele>350.6</ele>
<time>2012-03-24T16:16:00.000Z</time>
</trkpt>
<trkpt lat="43.56715" lon="5.42144">
<ele>350.8</ele>
<time>2012-03-24T16:16:01.000Z</time>
</trkpt>
<trkpt lat="43.56718" lon="5.42136">
<ele>351.4</ele>
<time>2012-03-24T16:16:02.000Z</time>
</trkpt>
<trkpt lat="43.56723" lon="5.42127">
<ele>350.4</ele>
<time>2012-03-24T16:16:03.000Z</time>
</trkpt>
<trkpt lat="43.56725" lon="5.42121">
<ele>350.1</ele>
<time>2012-03-24T16:16:04.000Z</time>
</trkpt>
<trkpt lat="43.56726" lon="5.42111">
<ele>349.4</ele>
<time>2012-03-24T16:16:06.000Z</time>
</trkpt>
<trkpt lat="43.56724" lon="5.42102">
<ele>349.1</ele>
<time>2012-03-24T16:16:08.000Z</time>
</trkpt>
<trkpt lat="43.5672" lon="5.42099">
<ele>349.3</ele>
<time>2012-03-24T16:16:09.000Z</time>
</trkpt>
<trkpt lat="43.56715" lon="5.42095">
<ele>348.9</ele>
<time>2012-03-24T16:16:11.000Z</time>
</trkpt>
<trkpt lat="43.56708" lon="5.42091">
<ele>348.2</ele>
<time>2012-03-24T16:16:14.000Z</time>
</trkpt>
<trkpt lat="43.56703" lon="5.4209">
<ele>348.1</ele>
<time>2012-03-24T16:16:16.000Z</time>
</trkpt>
<trkpt lat="43.56696" lon="5.42092">
<ele>347.9</ele>
<time>2012-03-24T16:16:19.000Z</time>
</trkpt>
<trkpt lat="43.56691" lon="5.42089">
<ele>347.8</ele>
<time>2012-03-24T16:16:21.000Z</time>
</trkpt>
<trkpt lat="43.56683" lon="5.42088">
<ele>347.4</ele>
<time>2012-03-24T16:16:23.000Z</time>
</trkpt>
<trkpt lat="43.56676" lon="5.42086">
<ele>347.8</ele>
<time>2012-03-24T16:16:25.000Z</time>
</trkpt>
<trkpt lat="43.56666" lon="5.42082">
<ele>347.6</ele>
<time>2012-03-24T16:16:27.000Z</time>
</trkpt>
<trkpt lat="43.56658" lon="5.42078">
<ele>347.5</ele>
<time>2012-03-24T16:16:29.000Z</time>
</trkpt>
<trkpt lat="43.56651" lon="5.42074">
<ele>347.2</ele>
<time>2012-03-24T16:16:31.000Z</time>
</trkpt>
<trkpt lat="43.56646" lon="5.42073">
<ele>347.6</ele>
<time>2012-03-24T16:16:32.000Z</time>
</trkpt>
<trkpt lat="43.56639" lon="5.4207">
<ele>347.3</ele>
<time>2012-03-24T16:16:34.000Z</time>
</trkpt>
<trkpt lat="43.56634" lon="5.42068">
<ele>347.7</ele>
<time>2012-03-24T16:16:35.000Z</time>
</trkpt>
<trkpt lat="43.56629" lon="5.42066">
<ele>347.7</ele>
<time>2012-03-24T16:16:36.000Z</time>
</trkpt>
<trkpt lat="43.56625" lon="5.42064">
<ele>347.5</ele>
<time>2012-03-24T16:16:37.000Z</time>
</trkpt>
<trkpt lat="43.56618" lon="5.42063">
<ele>347.3</ele>
<time>2012-03-24T16:16:38.000Z</time>
</trkpt>
<trkpt lat="43.56614" lon="5.42059">
<ele>347</ele>
<time>2012-03-24T16:16:39.000Z</time>
</trkpt>
<trkpt lat="43.56607" lon="5.42058">
<ele>347.2</ele>
<time>2012-03-24T16:16:41.000Z</time>
</trkpt>
<trkpt lat="43.56601" lon="5.42055">
<ele>347.2</ele>
<time>2012-03-24T16:16:43.000Z</time>
</trkpt>
<trkpt lat="43.56592" lon="5.42053">
<ele>348.1</ele>
<time>2012-03-24T16:16:45.000Z</time>
</trkpt>
<trkpt lat="43.56585" lon="5.42052">
<ele>348.6</ele>
<time>2012-03-24T16:16:47.000Z</time>
</trkpt>
<trkpt lat="43.56574" lon="5.42051">
<ele>349.3</ele>
<time>2012-03-24T16:16:49.000Z</time>
</trkpt>
<trkpt lat="43.56566" lon="5.42049">
<ele>349</ele>
<time>2012-03-24T16:16:50.000Z</time>
</trkpt>
<trkpt lat="43.5656" lon="5.42048">
<ele>349.3</ele>
<time>2012-03-24T16:16:51.000Z</time>
</trkpt>
<trkpt lat="43.56551" lon="5.42047">
<ele>349.3</ele>
<time>2012-03-24T16:16:53.000Z</time>
</trkpt>
<trkpt lat="43.56546" lon="5.42046">
<ele>349.4</ele>
<time>2012-03-24T16:16:54.000Z</time>
</trkpt>
<trkpt lat="43.56538" lon="5.42048">
<ele>349</ele>
<time>2012-03-24T16:16:55.000Z</time>
</trkpt>
<trkpt lat="43.56531" lon="5.42047">
<ele>349.2</ele>
<time>2012-03-24T16:16:56.000Z</time>
</trkpt>
<trkpt lat="43.56523" lon="5.42047">
<ele>349.7</ele>
<time>2012-03-24T16:16:58.000Z</time>
</trkpt>
<trkpt lat="43.56516" lon="5.42046">
<ele>351.1</ele>
<time>2012-03-24T16:17:00.000Z</time>
</trkpt>
<trkpt lat="43.56511" lon="5.42044">
<ele>351.8</ele>
<time>2012-03-24T16:17:01.000Z</time>
</trkpt>
<trkpt lat="43.56506" lon="5.42043">
<ele>352.3</ele>
<time>2012-03-24T16:17:02.000Z</time>
</trkpt>
<trkpt lat="43.56501" lon="5.42043">
<ele>352.9</ele>
<time>2012-03-24T16:17:03.000Z</time>
</trkpt>
<trkpt lat="43.56496" lon="5.42042">
<ele>353.5</ele>
<time>2012-03-24T16:17:04.000Z</time>
</trkpt>
<trkpt lat="43.56488" lon="5.42042">
<ele>353.6</ele>
<time>2012-03-24T16:17:06.000Z</time>
</trkpt>
<trkpt lat="43.56481" lon="5.4204">
<ele>353.6</ele>
<time>2012-03-24T16:17:08.000Z</time>
</trkpt>
<trkpt lat="43.56473" lon="5.4204">
<ele>354.3</ele>
<time>2012-03-24T16:17:10.000Z</time>
</trkpt>
<trkpt lat="43.56468" lon="5.4204">
<ele>354</ele>
<time>2012-03-24T16:17:11.000Z</time>
</trkpt>
<trkpt lat="43.56463" lon="5.4204">
<ele>354.4</ele>
<time>2012-03-24T16:17:12.000Z</time>
</trkpt>
<trkpt lat="43.56458" lon="5.4204">
<ele>354.3</ele>
<time>2012-03-24T16:17:13.000Z</time>
</trkpt>
<trkpt lat="43.56452" lon="5.42041">
<ele>354.5</ele>
<time>2012-03-24T16:17:14.000Z</time>
</trkpt>
<trkpt lat="43.56446" lon="5.4204">
<ele>354.4</ele>
<time>2012-03-24T16:17:15.000Z</time>
</trkpt>
<trkpt lat="43.56438" lon="5.42041">
<ele>353.8</ele>
<time>2012-03-24T16:17:17.000Z</time>
</trkpt>
<trkpt lat="43.56428" lon="5.42042">
<ele>354.5</ele>
<time>2012-03-24T16:17:19.000Z</time>
</trkpt>
<trkpt lat="43.5642" lon="5.42043">
<ele>356</ele>
<time>2012-03-24T16:17:21.000Z</time>
</trkpt>
<trkpt lat="43.56411" lon="5.42044">
<ele>356</ele>
<time>2012-03-24T16:17:23.000Z</time>
</trkpt>
<trkpt lat="43.56402" lon="5.42045">
<ele>356.4</ele>
<time>2012-03-24T16:17:25.000Z</time>
</trkpt>
<trkpt lat="43.56394" lon="5.42046">
<ele>357.2</ele>
<time>2012-03-24T16:17:27.000Z</time>
</trkpt>
<trkpt lat="43.56389" lon="5.42046">
<ele>357.4</ele>
<time>2012-03-24T16:17:28.000Z</time>
</trkpt>
<trkpt lat="43.5638" lon="5.42047">
<ele>359.1</ele>
<time>2012-03-24T16:17:30.000Z</time>
</trkpt>
<trkpt lat="43.56371" lon="5.42048">
<ele>359.9</ele>
<time>2012-03-24T16:17:32.000Z</time>
</trkpt>
<trkpt lat="43.56363" lon="5.42052">
<ele>360.4</ele>
<time>2012-03-24T16:17:34.000Z</time>
</trkpt>
<trkpt lat="43.56355" lon="5.42054">
<ele>360.4</ele>
<time>2012-03-24T16:17:36.000Z</time>
</trkpt>
<trkpt lat="43.56346" lon="5.42056">
<ele>360.6</ele>
<time>2012-03-24T16:17:38.000Z</time>
</trkpt>
<trkpt lat="43.56338" lon="5.42057">
<ele>362.4</ele>
<time>2012-03-24T16:17:40.000Z</time>
</trkpt>
<trkpt lat="43.56334" lon="5.42058">
<ele>362.7</ele>
<time>2012-03-24T16:17:41.000Z</time>
</trkpt>
<trkpt lat="43.56326" lon="5.42058">
<ele>362.4</ele>
<time>2012-03-24T16:17:43.000Z</time>
</trkpt>
<trkpt lat="43.56318" lon="5.42058">
<ele>362.6</ele>
<time>2012-03-24T16:17:45.000Z</time>
</trkpt>
<trkpt lat="43.5631" lon="5.42058">
<ele>362.8</ele>
<time>2012-03-24T16:17:47.000Z</time>
</trkpt>
<trkpt lat="43.563" lon="5.42059">
<ele>361.4</ele>
<time>2012-03-24T16:17:49.000Z</time>
</trkpt>
<trkpt lat="43.56295" lon="5.42058">
<ele>361.3</ele>
<time>2012-03-24T16:17:50.000Z</time>
</trkpt>
<trkpt lat="43.5629" lon="5.42058">
<ele>361.1</ele>
<time>2012-03-24T16:17:51.000Z</time>
</trkpt>
<trkpt lat="43.56282" lon="5.42056">
<ele>360.5</ele>
<time>2012-03-24T16:17:53.000Z</time>
</trkpt>
<trkpt lat="43.56273" lon="5.42055">
<ele>361</ele>
<time>2012-03-24T16:17:55.000Z</time>
</trkpt>
<trkpt lat="43.56266" lon="5.42056">
<ele>361.3</ele>
<time>2012-03-24T16:17:57.000Z</time>
</trkpt>
<trkpt lat="43.56258" lon="5.42056">
<ele>361.9</ele>
<time>2012-03-24T16:17:59.000Z</time>
</trkpt>
<trkpt lat="43.5625" lon="5.42054">
<ele>361.1</ele>
<time>2012-03-24T16:18:01.000Z</time>
</trkpt>
<trkpt lat="43.56244" lon="5.42054">
<ele>360.4</ele>
<time>2012-03-24T16:18:03.000Z</time>
</trkpt>
<trkpt lat="43.56237" lon="5.42054">
<ele>360.3</ele>
<time>2012-03-24T16:18:05.000Z</time>
</trkpt>
<trkpt lat="43.56229" lon="5.42053">
<ele>361</ele>
<time>2012-03-24T16:18:07.000Z</time>
</trkpt>
<trkpt lat="43.56224" lon="5.42053">
<ele>361.1</ele>
<time>2012-03-24T16:18:08.000Z</time>
</trkpt>
<trkpt lat="43.56217" lon="5.42052">
<ele>360.5</ele>
<time>2012-03-24T16:18:10.000Z</time>
</trkpt>
<trkpt lat="43.5621" lon="5.42053">
<ele>360.9</ele>
<time>2012-03-24T16:18:12.000Z</time>
</trkpt>
<trkpt lat="43.56206" lon="5.42054">
<ele>361.2</ele>
<time>2012-03-24T16:18:13.000Z</time>
</trkpt>
<trkpt lat="43.56196" lon="5.42053">
<ele>361.6</ele>
<time>2012-03-24T16:18:15.000Z</time>
</trkpt>
<trkpt lat="43.56189" lon="5.42054">
<ele>361.5</ele>
<time>2012-03-24T16:18:17.000Z</time>
</trkpt>
<trkpt lat="43.5618" lon="5.42053">
<ele>361.3</ele>
<time>2012-03-24T16:18:19.000Z</time>
</trkpt>
<trkpt lat="43.56173" lon="5.42054">
<ele>361.7</ele>
<time>2012-03-24T16:18:21.000Z</time>
</trkpt>
<trkpt lat="43.56165" lon="5.42056">
<ele>361.5</ele>
<time>2012-03-24T16:18:23.000Z</time>
</trkpt>
<trkpt lat="43.56158" lon="5.42057">
<ele>362.5</ele>
<time>2012-03-24T16:18:25.000Z</time>
</trkpt>
<trkpt lat="43.56151" lon="5.42059">
<ele>363.4</ele>
<time>2012-03-24T16:18:27.000Z</time>
</trkpt>
<trkpt lat="43.56144" lon="5.42059">
<ele>363.3</ele>
<time>2012-03-24T16:18:28.000Z</time>
</trkpt>
<trkpt lat="43.56139" lon="5.42057">
<ele>363.5</ele>
<time>2012-03-24T16:18:29.000Z</time>
</trkpt>
<trkpt lat="43.5613" lon="5.42057">
<ele>364</ele>
<time>2012-03-24T16:18:31.000Z</time>
</trkpt>
<trkpt lat="43.56124" lon="5.42056">
<ele>364.7</ele>
<time>2012-03-24T16:18:33.000Z</time>
</trkpt>
<trkpt lat="43.56116" lon="5.42056">
<ele>365.1</ele>
<time>2012-03-24T16:18:35.000Z</time>
</trkpt>
<trkpt lat="43.56108" lon="5.42058">
<ele>365.4</ele>
<time>2012-03-24T16:18:37.000Z</time>
</trkpt>
<trkpt lat="43.56103" lon="5.42059">
<ele>365.6</ele>
<time>2012-03-24T16:18:38.000Z</time>
</trkpt>
<trkpt lat="43.56098" lon="5.42058">
<ele>365.6</ele>
<time>2012-03-24T16:18:39.000Z</time>
</trkpt>
<trkpt lat="43.56091" lon="5.42058">
<ele>366.2</ele>
<time>2012-03-24T16:18:41.000Z</time>
</trkpt>
<trkpt lat="43.56086" lon="5.42057">
<ele>366.4</ele>
<time>2012-03-24T16:18:42.000Z</time>
</trkpt>
<trkpt lat="43.56081" lon="5.42057">
<ele>366.9</ele>
<time>2012-03-24T16:18:43.000Z</time>
</trkpt>
<trkpt lat="43.56075" lon="5.42058">
<ele>367.2</ele>
<time>2012-03-24T16:18:44.000Z</time>
</trkpt>
<trkpt lat="43.56069" lon="5.42056">
<ele>368.6</ele>
<time>2012-03-24T16:18:46.000Z</time>
</trkpt>
<trkpt lat="43.56064" lon="5.42057">
<ele>369.5</ele>
<time>2012-03-24T16:18:47.000Z</time>
</trkpt>
<trkpt lat="43.56059" lon="5.42057">
<ele>369.5</ele>
<time>2012-03-24T16:18:48.000Z</time>
</trkpt>
<trkpt lat="43.56054" lon="5.42058">
<ele>369.2</ele>
<time>2012-03-24T16:18:49.000Z</time>
</trkpt>
<trkpt lat="43.56046" lon="5.42062">
<ele>370.8</ele>
<time>2012-03-24T16:18:51.000Z</time>
</trkpt>
<trkpt lat="43.56042" lon="5.42065">
<ele>371.2</ele>
<time>2012-03-24T16:18:52.000Z</time>
</trkpt>
<trkpt lat="43.56037" lon="5.42066">
<ele>372.6</ele>
<time>2012-03-24T16:18:53.000Z</time>
</trkpt>
<trkpt lat="43.56032" lon="5.42067">
<ele>372.8</ele>
<time>2012-03-24T16:18:54.000Z</time>
</trkpt>
<trkpt lat="43.56025" lon="5.42069">
<ele>373.4</ele>
<time>2012-03-24T16:18:56.000Z</time>
</trkpt>
<trkpt lat="43.56018" lon="5.42071">
<ele>374.9</ele>
<time>2012-03-24T16:18:58.000Z</time>
</trkpt>
<trkpt lat="43.56011" lon="5.42068">
<ele>376.2</ele>
<time>2012-03-24T16:19:00.000Z</time>
</trkpt>
<trkpt lat="43.56005" lon="5.42065">
<ele>376.1</ele>
<time>2012-03-24T16:19:01.000Z</time>
</trkpt>
<trkpt lat="43.55997" lon="5.42062">
<ele>375.8</ele>
<time>2012-03-24T16:19:02.000Z</time>
</trkpt>
<trkpt lat="43.5599" lon="5.4206">
<ele>375.4</ele>
<time>2012-03-24T16:19:03.000Z</time>
</trkpt>
<trkpt lat="43.55983" lon="5.42059">
<ele>375.4</ele>
<time>2012-03-24T16:19:04.000Z</time>
</trkpt>
<trkpt lat="43.55976" lon="5.42058">
<ele>375.8</ele>
<time>2012-03-24T16:19:05.000Z</time>
</trkpt>
<trkpt lat="43.55968" lon="5.42056">
<ele>375.6</ele>
<time>2012-03-24T16:19:06.000Z</time>
</trkpt>
<trkpt lat="43.55961" lon="5.42055">
<ele>375.8</ele>
<time>2012-03-24T16:19:07.000Z</time>
</trkpt>
<trkpt lat="43.55953" lon="5.42053">
<ele>376.2</ele>
<time>2012-03-24T16:19:08.000Z</time>
</trkpt>
<trkpt lat="43.55944" lon="5.4205">
<ele>375.2</ele>
<time>2012-03-24T16:19:09.000Z</time>
</trkpt>
<trkpt lat="43.55934" lon="5.42046">
<ele>376.8</ele>
<time>2012-03-24T16:19:10.000Z</time>
</trkpt>
<trkpt lat="43.55926" lon="5.42042">
<ele>376.2</ele>
<time>2012-03-24T16:19:11.000Z</time>
</trkpt>
<trkpt lat="43.55917" lon="5.42036">
<ele>375.8</ele>
<time>2012-03-24T16:19:12.000Z</time>
</trkpt>
<trkpt lat="43.55906" lon="5.42031">
<ele>375.3</ele>
<time>2012-03-24T16:19:13.000Z</time>
</trkpt>
<trkpt lat="43.55896" lon="5.42026">
<ele>375.2</ele>
<time>2012-03-24T16:19:14.000Z</time>
</trkpt>
<trkpt lat="43.55887" lon="5.42021">
<ele>374.8</ele>
<time>2012-03-24T16:19:15.000Z</time>
</trkpt>
<trkpt lat="43.55879" lon="5.42017">
<ele>374.8</ele>
<time>2012-03-24T16:19:16.000Z</time>
</trkpt>
<trkpt lat="43.55869" lon="5.42011">
<ele>374.5</ele>
<time>2012-03-24T16:19:17.000Z</time>
</trkpt>
<trkpt lat="43.5586" lon="5.42007">
<ele>374.1</ele>
<time>2012-03-24T16:19:18.000Z</time>
</trkpt>
<trkpt lat="43.55853" lon="5.42003">
<ele>373.9</ele>
<time>2012-03-24T16:19:19.000Z</time>
</trkpt>
<trkpt lat="43.55845" lon="5.41999">
<ele>374</ele>
<time>2012-03-24T16:19:20.000Z</time>
</trkpt>
<trkpt lat="43.55836" lon="5.41995">
<ele>373.6</ele>
<time>2012-03-24T16:19:21.000Z</time>
</trkpt>
<trkpt lat="43.55828" lon="5.41991">
<ele>373.9</ele>
<time>2012-03-24T16:19:22.000Z</time>
</trkpt>
<trkpt lat="43.5582" lon="5.41988">
<ele>374.3</ele>
<time>2012-03-24T16:19:23.000Z</time>
</trkpt>
<trkpt lat="43.55812" lon="5.41982">
<ele>373.5</ele>
<time>2012-03-24T16:19:24.000Z</time>
</trkpt>
<trkpt lat="43.55804" lon="5.41979">
<ele>373.1</ele>
<time>2012-03-24T16:19:25.000Z</time>
</trkpt>
<trkpt lat="43.55799" lon="5.41974">
<ele>372.1</ele>
<time>2012-03-24T16:19:26.000Z</time>
</trkpt>
<trkpt lat="43.55791" lon="5.41971">
<ele>372.6</ele>
<time>2012-03-24T16:19:27.000Z</time>
</trkpt>
<trkpt lat="43.55785" lon="5.41969">
<ele>372.4</ele>
<time>2012-03-24T16:19:28.000Z</time>
</trkpt>
<trkpt lat="43.55779" lon="5.4197">
<ele>372.4</ele>
<time>2012-03-24T16:19:29.000Z</time>
</trkpt>
<trkpt lat="43.55773" lon="5.4197">
<ele>372.1</ele>
<time>2012-03-24T16:19:30.000Z</time>
</trkpt>
<trkpt lat="43.55767" lon="5.41972">
<ele>371.7</ele>
<time>2012-03-24T16:19:31.000Z</time>
</trkpt>
<trkpt lat="43.5576" lon="5.41976">
<ele>371.6</ele>
<time>2012-03-24T16:19:32.000Z</time>
</trkpt>
<trkpt lat="43.55754" lon="5.4198">
<ele>371.4</ele>
<time>2012-03-24T16:19:33.000Z</time>
</trkpt>
<trkpt lat="43.55749" lon="5.41983">
<ele>371.1</ele>
<time>2012-03-24T16:19:34.000Z</time>
</trkpt>
<trkpt lat="43.55744" lon="5.41986">
<ele>370.2</ele>
<time>2012-03-24T16:19:35.000Z</time>
</trkpt>
<trkpt lat="43.55738" lon="5.41986">
<ele>370.4</ele>
<time>2012-03-24T16:19:36.000Z</time>
</trkpt>
<trkpt lat="43.55732" lon="5.41986">
<ele>370.3</ele>
<time>2012-03-24T16:19:37.000Z</time>
</trkpt>
<trkpt lat="43.55727" lon="5.41984">
<ele>370</ele>
<time>2012-03-24T16:19:38.000Z</time>
</trkpt>
<trkpt lat="43.55723" lon="5.4198">
<ele>369.9</ele>
<time>2012-03-24T16:19:39.000Z</time>
</trkpt>
<trkpt lat="43.55718" lon="5.41976">
<ele>370</ele>
<time>2012-03-24T16:19:40.000Z</time>
</trkpt>
<trkpt lat="43.5571" lon="5.41969">
<ele>370</ele>
<time>2012-03-24T16:19:42.000Z</time>
</trkpt>
<trkpt lat="43.55706" lon="5.41965">
<ele>369.9</ele>
<time>2012-03-24T16:19:43.000Z</time>
</trkpt>
<trkpt lat="43.55697" lon="5.41958">
<ele>370</ele>
<time>2012-03-24T16:19:45.000Z</time>
</trkpt>
<trkpt lat="43.55693" lon="5.41954">
<ele>369.9</ele>
<time>2012-03-24T16:19:46.000Z</time>
</trkpt>
<trkpt lat="43.55686" lon="5.41949">
<ele>370.1</ele>
<time>2012-03-24T16:19:48.000Z</time>
</trkpt>
<trkpt lat="43.55678" lon="5.41945">
<ele>369.7</ele>
<time>2012-03-24T16:19:50.000Z</time>
</trkpt>
<trkpt lat="43.55673" lon="5.41943">
<ele>370.1</ele>
<time>2012-03-24T16:19:51.000Z</time>
</trkpt>
<trkpt lat="43.55666" lon="5.41943">
<ele>370.1</ele>
<time>2012-03-24T16:19:53.000Z</time>
</trkpt>
<trkpt lat="43.55658" lon="5.41948">
<ele>370.5</ele>
<time>2012-03-24T16:19:55.000Z</time>
</trkpt>
<trkpt lat="43.55654" lon="5.4195">
<ele>370.3</ele>
<time>2012-03-24T16:19:56.000Z</time>
</trkpt>
<trkpt lat="43.55649" lon="5.41956">
<ele>371</ele>
<time>2012-03-24T16:19:58.000Z</time>
</trkpt>
<trkpt lat="43.55644" lon="5.4196">
<ele>370.9</ele>
<time>2012-03-24T16:19:59.000Z</time>
</trkpt>
<trkpt lat="43.55637" lon="5.41965">
<ele>371.1</ele>
<time>2012-03-24T16:20:01.000Z</time>
</trkpt>
<trkpt lat="43.55628" lon="5.41971">
<ele>370.9</ele>
<time>2012-03-24T16:20:03.000Z</time>
</trkpt>
<trkpt lat="43.55623" lon="5.41973">
<ele>370.3</ele>
<time>2012-03-24T16:20:04.000Z</time>
</trkpt>
<trkpt lat="43.55616" lon="5.41976">
<ele>370.2</ele>
<time>2012-03-24T16:20:06.000Z</time>
</trkpt>
<trkpt lat="43.5561" lon="5.41978">
<ele>370.3</ele>
<time>2012-03-24T16:20:08.000Z</time>
</trkpt>
<trkpt lat="43.55604" lon="5.4198">
<ele>370.5</ele>
<time>2012-03-24T16:20:10.000Z</time>
</trkpt>
<trkpt lat="43.55599" lon="5.41981">
<ele>370.9</ele>
<time>2012-03-24T16:20:12.000Z</time>
</trkpt>
<trkpt lat="43.55593" lon="5.41981">
<ele>370.9</ele>
<time>2012-03-24T16:20:15.000Z</time>
</trkpt>
<trkpt lat="43.55589" lon="5.41977">
<ele>369.8</ele>
<time>2012-03-24T16:21:04.000Z</time>
</trkpt>
<trkpt lat="43.55586" lon="5.41972">
<ele>370</ele>
<time>2012-03-24T16:21:05.000Z</time>
</trkpt>
<trkpt lat="43.55588" lon="5.41962">
<ele>369.3</ele>
<time>2012-03-24T16:21:08.000Z</time>
</trkpt>
<trkpt lat="43.5559" lon="5.41954">
<ele>369.1</ele>
<time>2012-03-24T16:21:10.000Z</time>
</trkpt>
<trkpt lat="43.55593" lon="5.41947">
<ele>369.4</ele>
<time>2012-03-24T16:21:11.000Z</time>
</trkpt>
<trkpt lat="43.55596" lon="5.41943">
<ele>369.5</ele>
<time>2012-03-24T16:21:12.000Z</time>
</trkpt>
<trkpt lat="43.55601" lon="5.41936">
<ele>369.7</ele>
<time>2012-03-24T16:21:14.000Z</time>
</trkpt>
<trkpt lat="43.55604" lon="5.41927">
<ele>370</ele>
<time>2012-03-24T16:21:16.000Z</time>
</trkpt>
<trkpt lat="43.55603" lon="5.41919">
<ele>370.6</ele>
<time>2012-03-24T16:21:18.000Z</time>
</trkpt>
<trkpt lat="43.55597" lon="5.41916">
<ele>371.4</ele>
<time>2012-03-24T16:21:20.000Z</time>
</trkpt>
<trkpt lat="43.55591" lon="5.41917">
<ele>372.3</ele>
<time>2012-03-24T16:21:22.000Z</time>
</trkpt>
<trkpt lat="43.55585" lon="5.41921">
<ele>373.4</ele>
<time>2012-03-24T16:21:24.000Z</time>
</trkpt>
<trkpt lat="43.55578" lon="5.41924">
<ele>373.5</ele>
<time>2012-03-24T16:21:26.000Z</time>
</trkpt>
<trkpt lat="43.55572" lon="5.41926">
<ele>373.9</ele>
<time>2012-03-24T16:21:28.000Z</time>
</trkpt>
<trkpt lat="43.55567" lon="5.4192">
<ele>375.1</ele>
<time>2012-03-24T16:21:30.000Z</time>
</trkpt>
<trkpt lat="43.55561" lon="5.41915">
<ele>374.9</ele>
<time>2012-03-24T16:21:32.000Z</time>
</trkpt>
<trkpt lat="43.55556" lon="5.4191">
<ele>375.1</ele>
<time>2012-03-24T16:21:33.000Z</time>
</trkpt>
<trkpt lat="43.55551" lon="5.41902">
<ele>374.8</ele>
<time>2012-03-24T16:21:35.000Z</time>
</trkpt>
<trkpt lat="43.55546" lon="5.41893">
<ele>375.4</ele>
<time>2012-03-24T16:21:37.000Z</time>
</trkpt>
<trkpt lat="43.55542" lon="5.41882">
<ele>376.4</ele>
<time>2012-03-24T16:21:39.000Z</time>
</trkpt>
<trkpt lat="43.5554" lon="5.41876">
<ele>376.5</ele>
<time>2012-03-24T16:21:40.000Z</time>
</trkpt>
<trkpt lat="43.55537" lon="5.41865">
<ele>377.4</ele>
<time>2012-03-24T16:21:42.000Z</time>
</trkpt>
<trkpt lat="43.55537" lon="5.41854">
<ele>377.8</ele>
<time>2012-03-24T16:21:44.000Z</time>
</trkpt>
<trkpt lat="43.55538" lon="5.41847">
<ele>377.8</ele>
<time>2012-03-24T16:21:45.000Z</time>
</trkpt>
<trkpt lat="43.55538" lon="5.41841">
<ele>377.9</ele>
<time>2012-03-24T16:21:46.000Z</time>
</trkpt>
<trkpt lat="43.55539" lon="5.41834">
<ele>377.7</ele>
<time>2012-03-24T16:21:47.000Z</time>
</trkpt>
<trkpt lat="43.5554" lon="5.41827">
<ele>377.2</ele>
<time>2012-03-24T16:21:48.000Z</time>
</trkpt>
<trkpt lat="43.55541" lon="5.4182">
<ele>377.7</ele>
<time>2012-03-24T16:21:49.000Z</time>
</trkpt>
<trkpt lat="43.55542" lon="5.41813">
<ele>378.1</ele>
<time>2012-03-24T16:21:50.000Z</time>
</trkpt>
<trkpt lat="43.55547" lon="5.41802">
<ele>378</ele>
<time>2012-03-24T16:21:52.000Z</time>
</trkpt>
<trkpt lat="43.55549" lon="5.41796">
<ele>377.7</ele>
<time>2012-03-24T16:21:53.000Z</time>
</trkpt>
<trkpt lat="43.55551" lon="5.41789">
<ele>377.9</ele>
<time>2012-03-24T16:21:54.000Z</time>
</trkpt>
<trkpt lat="43.55553" lon="5.41782">
<ele>378</ele>
<time>2012-03-24T16:21:55.000Z</time>
</trkpt>
<trkpt lat="43.55557" lon="5.41773">
<ele>378</ele>
<time>2012-03-24T16:21:57.000Z</time>
</trkpt>
<trkpt lat="43.55558" lon="5.41766">
<ele>378.1</ele>
<time>2012-03-24T16:21:58.000Z</time>
</trkpt>
<trkpt lat="43.55563" lon="5.41756">
<ele>378.3</ele>
<time>2012-03-24T16:22:00.000Z</time>
</trkpt>
<trkpt lat="43.55563" lon="5.41745">
<ele>379.2</ele>
<time>2012-03-24T16:22:02.000Z</time>
</trkpt>
<trkpt lat="43.55566" lon="5.4174">
<ele>379</ele>
<time>2012-03-24T16:22:03.000Z</time>
</trkpt>
<trkpt lat="43.55567" lon="5.41728">
<ele>379.2</ele>
<time>2012-03-24T16:22:05.000Z</time>
</trkpt>
<trkpt lat="43.55568" lon="5.41721">
<ele>379.1</ele>
<time>2012-03-24T16:22:06.000Z</time>
</trkpt>
<trkpt lat="43.5557" lon="5.41709">
<ele>379.2</ele>
<time>2012-03-24T16:22:08.000Z</time>
</trkpt>
<trkpt lat="43.55571" lon="5.41702">
<ele>379.7</ele>
<time>2012-03-24T16:22:09.000Z</time>
</trkpt>
<trkpt lat="43.55571" lon="5.41694">
<ele>379.5</ele>
<time>2012-03-24T16:22:10.000Z</time>
</trkpt>
<trkpt lat="43.55572" lon="5.41688">
<ele>379.3</ele>
<time>2012-03-24T16:22:11.000Z</time>
</trkpt>
<trkpt lat="43.55573" lon="5.41676">
<ele>379.2</ele>
<time>2012-03-24T16:22:13.000Z</time>
</trkpt>
<trkpt lat="43.55573" lon="5.41663">
<ele>379.9</ele>
<time>2012-03-24T16:22:15.000Z</time>
</trkpt>
<trkpt lat="43.55572" lon="5.41656">
<ele>379.8</ele>
<time>2012-03-24T16:22:16.000Z</time>
</trkpt>
<trkpt lat="43.5557" lon="5.4165">
<ele>380.1</ele>
<time>2012-03-24T16:22:17.000Z</time>
</trkpt>
<trkpt lat="43.5557" lon="5.41636">
<ele>380.5</ele>
<time>2012-03-24T16:22:19.000Z</time>
</trkpt>
<trkpt lat="43.55569" lon="5.4163">
<ele>380.9</ele>
<time>2012-03-24T16:22:20.000Z</time>
</trkpt>
<trkpt lat="43.55568" lon="5.41623">
<ele>380.8</ele>
<time>2012-03-24T16:22:21.000Z</time>
</trkpt>
<trkpt lat="43.55567" lon="5.41609">
<ele>381.1</ele>
<time>2012-03-24T16:22:23.000Z</time>
</trkpt>
<trkpt lat="43.55566" lon="5.41601">
<ele>381.4</ele>
<time>2012-03-24T16:22:24.000Z</time>
</trkpt>
<trkpt lat="43.55564" lon="5.41593">
<ele>381.5</ele>
<time>2012-03-24T16:22:25.000Z</time>
</trkpt>
<trkpt lat="43.55562" lon="5.41587">
<ele>381.5</ele>
<time>2012-03-24T16:22:26.000Z</time>
</trkpt>
<trkpt lat="43.55562" lon="5.41578">
<ele>381.7</ele>
<time>2012-03-24T16:22:27.000Z</time>
</trkpt>
<trkpt lat="43.55561" lon="5.41568">
<ele>381.7</ele>
<time>2012-03-24T16:22:28.000Z</time>
</trkpt>
<trkpt lat="43.5556" lon="5.41559">
<ele>382.3</ele>
<time>2012-03-24T16:22:29.000Z</time>
</trkpt>
<trkpt lat="43.55559" lon="5.41549">
<ele>382.1</ele>
<time>2012-03-24T16:22:30.000Z</time>
</trkpt>
<trkpt lat="43.55558" lon="5.41539">
<ele>382.4</ele>
<time>2012-03-24T16:22:31.000Z</time>
</trkpt>
<trkpt lat="43.55558" lon="5.41528">
<ele>381.9</ele>
<time>2012-03-24T16:22:32.000Z</time>
</trkpt>
<trkpt lat="43.55558" lon="5.41516">
<ele>381.6</ele>
<time>2012-03-24T16:22:33.000Z</time>
</trkpt>
<trkpt lat="43.55559" lon="5.41503">
<ele>381.5</ele>
<time>2012-03-24T16:22:34.000Z</time>
</trkpt>
<trkpt lat="43.55559" lon="5.41491">
<ele>381.6</ele>
<time>2012-03-24T16:22:35.000Z</time>
</trkpt>
<trkpt lat="43.55556" lon="5.41481">
<ele>381.2</ele>
<time>2012-03-24T16:22:36.000Z</time>
</trkpt>
<trkpt lat="43.55554" lon="5.4147">
<ele>381.1</ele>
<time>2012-03-24T16:22:37.000Z</time>
</trkpt>
<trkpt lat="43.55552" lon="5.41462">
<ele>380.8</ele>
<time>2012-03-24T16:22:38.000Z</time>
</trkpt>
<trkpt lat="43.55551" lon="5.41451">
<ele>380.8</ele>
<time>2012-03-24T16:22:39.000Z</time>
</trkpt>
<trkpt lat="43.5555" lon="5.4144">
<ele>380.6</ele>
<time>2012-03-24T16:22:40.000Z</time>
</trkpt>
<trkpt lat="43.5555" lon="5.4143">
<ele>381.1</ele>
<time>2012-03-24T16:22:41.000Z</time>
</trkpt>
<trkpt lat="43.5555" lon="5.4142">
<ele>381</ele>
<time>2012-03-24T16:22:42.000Z</time>
</trkpt>
<trkpt lat="43.5555" lon="5.41408">
<ele>381</ele>
<time>2012-03-24T16:22:43.000Z</time>
</trkpt>
<trkpt lat="43.5555" lon="5.41397">
<ele>380.4</ele>
<time>2012-03-24T16:22:44.000Z</time>
</trkpt>
<trkpt lat="43.5555" lon="5.41385">
<ele>380.7</ele>
<time>2012-03-24T16:22:45.000Z</time>
</trkpt>
<trkpt lat="43.5555" lon="5.41373">
<ele>380.7</ele>
<time>2012-03-24T16:22:46.000Z</time>
</trkpt>
<trkpt lat="43.55545" lon="5.41362">
<ele>380</ele>
<time>2012-03-24T16:22:47.000Z</time>
</trkpt>
<trkpt lat="43.55542" lon="5.41348">
<ele>379.4</ele>
<time>2012-03-24T16:22:48.000Z</time>
</trkpt>
<trkpt lat="43.5554" lon="5.41336">
<ele>378.8</ele>
<time>2012-03-24T16:22:49.000Z</time>
</trkpt>
<trkpt lat="43.55539" lon="5.41323">
<ele>378.3</ele>
<time>2012-03-24T16:22:50.000Z</time>
</trkpt>
<trkpt lat="43.55537" lon="5.41311">
<ele>378.4</ele>
<time>2012-03-24T16:22:51.000Z</time>
</trkpt>
<trkpt lat="43.55535" lon="5.413">
<ele>378.5</ele>
<time>2012-03-24T16:22:52.000Z</time>
</trkpt>
<trkpt lat="43.55532" lon="5.41289">
<ele>377.7</ele>
<time>2012-03-24T16:22:53.000Z</time>
</trkpt>
<trkpt lat="43.55528" lon="5.41277">
<ele>377.2</ele>
<time>2012-03-24T16:22:54.000Z</time>
</trkpt>
<trkpt lat="43.55524" lon="5.41265">
<ele>376.3</ele>
<time>2012-03-24T16:22:55.000Z</time>
</trkpt>
<trkpt lat="43.55522" lon="5.41253">
<ele>375.5</ele>
<time>2012-03-24T16:22:56.000Z</time>
</trkpt>
<trkpt lat="43.5552" lon="5.41243">
<ele>375.6</ele>
<time>2012-03-24T16:22:57.000Z</time>
</trkpt>
<trkpt lat="43.55517" lon="5.41232">
<ele>375.6</ele>
<time>2012-03-24T16:22:58.000Z</time>
</trkpt>
<trkpt lat="43.55514" lon="5.41222">
<ele>375.1</ele>
<time>2012-03-24T16:22:59.000Z</time>
</trkpt>
<trkpt lat="43.55511" lon="5.41211">
<ele>374.9</ele>
<time>2012-03-24T16:23:00.000Z</time>
</trkpt>
<trkpt lat="43.55509" lon="5.412">
<ele>374.9</ele>
<time>2012-03-24T16:23:01.000Z</time>
</trkpt>
<trkpt lat="43.55506" lon="5.41187">
<ele>375</ele>
<time>2012-03-24T16:23:02.000Z</time>
</trkpt>
<trkpt lat="43.55504" lon="5.41175">
<ele>374.3</ele>
<time>2012-03-24T16:23:03.000Z</time>
</trkpt>
<trkpt lat="43.55502" lon="5.41164">
<ele>373.6</ele>
<time>2012-03-24T16:23:04.000Z</time>
</trkpt>
<trkpt lat="43.555" lon="5.41152">
<ele>373.4</ele>
<time>2012-03-24T16:23:05.000Z</time>
</trkpt>
<trkpt lat="43.55499" lon="5.41141">
<ele>373.6</ele>
<time>2012-03-24T16:23:06.000Z</time>
</trkpt>
<trkpt lat="43.55498" lon="5.41128">
<ele>373.4</ele>
<time>2012-03-24T16:23:07.000Z</time>
</trkpt>
<trkpt lat="43.55496" lon="5.41117">
<ele>372.8</ele>
<time>2012-03-24T16:23:08.000Z</time>
</trkpt>
<trkpt lat="43.55495" lon="5.41105">
<ele>372.2</ele>
<time>2012-03-24T16:23:09.000Z</time>
</trkpt>
<trkpt lat="43.55494" lon="5.41093">
<ele>371.7</ele>
<time>2012-03-24T16:23:10.000Z</time>
</trkpt>
<trkpt lat="43.55492" lon="5.41081">
<ele>371.3</ele>
<time>2012-03-24T16:23:11.000Z</time>
</trkpt>
<trkpt lat="43.5549" lon="5.41071">
<ele>370.8</ele>
<time>2012-03-24T16:23:12.000Z</time>
</trkpt>
<trkpt lat="43.55489" lon="5.41058">
<ele>370.3</ele>
<time>2012-03-24T16:23:13.000Z</time>
</trkpt>
<trkpt lat="43.5549" lon="5.41048">
<ele>370.8</ele>
<time>2012-03-24T16:23:14.000Z</time>
</trkpt>
<trkpt lat="43.5549" lon="5.41037">
<ele>371.5</ele>
<time>2012-03-24T16:23:15.000Z</time>
</trkpt>
<trkpt lat="43.55489" lon="5.41026">
<ele>372.2</ele>
<time>2012-03-24T16:23:16.000Z</time>
</trkpt>
<trkpt lat="43.55489" lon="5.41014">
<ele>372.3</ele>
<time>2012-03-24T16:23:17.000Z</time>
</trkpt>
<trkpt lat="43.55489" lon="5.41004">
<ele>372.7</ele>
<time>2012-03-24T16:23:18.000Z</time>
</trkpt>
<trkpt lat="43.5549" lon="5.40993">
<ele>373</ele>
<time>2012-03-24T16:23:19.000Z</time>
</trkpt>
<trkpt lat="43.55491" lon="5.40984">
<ele>373.5</ele>
<time>2012-03-24T16:23:20.000Z</time>
</trkpt>
<trkpt lat="43.55491" lon="5.40972">
<ele>373</ele>
<time>2012-03-24T16:23:21.000Z</time>
</trkpt>
<trkpt lat="43.55492" lon="5.40961">
<ele>372.4</ele>
<time>2012-03-24T16:23:22.000Z</time>
</trkpt>
<trkpt lat="43.55494" lon="5.40952">
<ele>372.9</ele>
<time>2012-03-24T16:23:23.000Z</time>
</trkpt>
<trkpt lat="43.55496" lon="5.40943">
<ele>372.7</ele>
<time>2012-03-24T16:23:24.000Z</time>
</trkpt>
<trkpt lat="43.55498" lon="5.40933">
<ele>372.7</ele>
<time>2012-03-24T16:23:25.000Z</time>
</trkpt>
<trkpt lat="43.555" lon="5.40922">
<ele>372.8</ele>
<time>2012-03-24T16:23:26.000Z</time>
</trkpt>
<trkpt lat="43.555" lon="5.40911">
<ele>371.9</ele>
<time>2012-03-24T16:23:27.000Z</time>
</trkpt>
<trkpt lat="43.555" lon="5.40901">
<ele>371.9</ele>
<time>2012-03-24T16:23:28.000Z</time>
</trkpt>
<trkpt lat="43.555" lon="5.4089">
<ele>372.2</ele>
<time>2012-03-24T16:23:29.000Z</time>
</trkpt>
<trkpt lat="43.55499" lon="5.40878">
<ele>371.9</ele>
<time>2012-03-24T16:23:30.000Z</time>
</trkpt>
<trkpt lat="43.55498" lon="5.40868">
<ele>372.3</ele>
<time>2012-03-24T16:23:31.000Z</time>
</trkpt>
<trkpt lat="43.55497" lon="5.40858">
<ele>371.9</ele>
<time>2012-03-24T16:23:32.000Z</time>
</trkpt>
<trkpt lat="43.55495" lon="5.40848">
<ele>371.9</ele>
<time>2012-03-24T16:23:33.000Z</time>
</trkpt>
<trkpt lat="43.55494" lon="5.40837">
<ele>371.6</ele>
<time>2012-03-24T16:23:34.000Z</time>
</trkpt>
<trkpt lat="43.5549" lon="5.40826">
<ele>371.5</ele>
<time>2012-03-24T16:23:35.000Z</time>
</trkpt>
<trkpt lat="43.55487" lon="5.40816">
<ele>371.8</ele>
<time>2012-03-24T16:23:36.000Z</time>
</trkpt>
<trkpt lat="43.55485" lon="5.40805">
<ele>372.1</ele>
<time>2012-03-24T16:23:37.000Z</time>
</trkpt>
<trkpt lat="43.55484" lon="5.40794">
<ele>372.2</ele>
<time>2012-03-24T16:23:38.000Z</time>
</trkpt>
<trkpt lat="43.55483" lon="5.40784">
<ele>372.3</ele>
<time>2012-03-24T16:23:39.000Z</time>
</trkpt>
<trkpt lat="43.55481" lon="5.40775">
<ele>372.9</ele>
<time>2012-03-24T16:23:40.000Z</time>
</trkpt>
<trkpt lat="43.55479" lon="5.40766">
<ele>372.9</ele>
<time>2012-03-24T16:23:41.000Z</time>
</trkpt>
<trkpt lat="43.5548" lon="5.40757">
<ele>372.8</ele>
<time>2012-03-24T16:23:42.000Z</time>
</trkpt>
<trkpt lat="43.5548" lon="5.40749">
<ele>373</ele>
<time>2012-03-24T16:23:43.000Z</time>
</trkpt>
<trkpt lat="43.55481" lon="5.40741">
<ele>372.7</ele>
<time>2012-03-24T16:23:44.000Z</time>
</trkpt>
<trkpt lat="43.55481" lon="5.40733">
<ele>372.6</ele>
<time>2012-03-24T16:23:45.000Z</time>
</trkpt>
<trkpt lat="43.55481" lon="5.40725">
<ele>372.6</ele>
<time>2012-03-24T16:23:46.000Z</time>
</trkpt>
<trkpt lat="43.5548" lon="5.40716">
<ele>372.3</ele>
<time>2012-03-24T16:23:47.000Z</time>
</trkpt>
<trkpt lat="43.5548" lon="5.40706">
<ele>372.2</ele>
<time>2012-03-24T16:23:48.000Z</time>
</trkpt>
<trkpt lat="43.55481" lon="5.40696">
<ele>372.1</ele>
<time>2012-03-24T16:23:49.000Z</time>
</trkpt>
<trkpt lat="43.55482" lon="5.40686">
<ele>372.1</ele>
<time>2012-03-24T16:23:50.000Z</time>
</trkpt>
<trkpt lat="43.55483" lon="5.40675">
<ele>371.8</ele>
<time>2012-03-24T16:23:51.000Z</time>
</trkpt>
<trkpt lat="43.55485" lon="5.40664">
<ele>372</ele>
<time>2012-03-24T16:23:52.000Z</time>
</trkpt>
<trkpt lat="43.55488" lon="5.40654">
<ele>372.1</ele>
<time>2012-03-24T16:23:53.000Z</time>
</trkpt>
<trkpt lat="43.55493" lon="5.40644">
<ele>372</ele>
<time>2012-03-24T16:23:54.000Z</time>
</trkpt>
<trkpt lat="43.55496" lon="5.40631">
<ele>371.6</ele>
<time>2012-03-24T16:23:55.000Z</time>
</trkpt>
<trkpt lat="43.55501" lon="5.4062">
<ele>372.2</ele>
<time>2012-03-24T16:23:56.000Z</time>
</trkpt>
<trkpt lat="43.55504" lon="5.40609">
<ele>371.7</ele>
<time>2012-03-24T16:23:57.000Z</time>
</trkpt>
<trkpt lat="43.55508" lon="5.40597">
<ele>372.1</ele>
<time>2012-03-24T16:23:58.000Z</time>
</trkpt>
<trkpt lat="43.55513" lon="5.40587">
<ele>372.1</ele>
<time>2012-03-24T16:23:59.000Z</time>
</trkpt>
<trkpt lat="43.55515" lon="5.40578">
<ele>372.1</ele>
<time>2012-03-24T16:24:00.000Z</time>
</trkpt>
<trkpt lat="43.55519" lon="5.40567">
<ele>371.9</ele>
<time>2012-03-24T16:24:01.000Z</time>
</trkpt>
<trkpt lat="43.55523" lon="5.40556">
<ele>372.1</ele>
<time>2012-03-24T16:24:02.000Z</time>
</trkpt>
<trkpt lat="43.55529" lon="5.40545">
<ele>371.7</ele>
<time>2012-03-24T16:24:03.000Z</time>
</trkpt>
<trkpt lat="43.55535" lon="5.40534">
<ele>371.9</ele>
<time>2012-03-24T16:24:04.000Z</time>
</trkpt>
<trkpt lat="43.5554" lon="5.40524">
<ele>371</ele>
<time>2012-03-24T16:24:05.000Z</time>
</trkpt>
<trkpt lat="43.55543" lon="5.40512">
<ele>371.1</ele>
<time>2012-03-24T16:24:06.000Z</time>
</trkpt>
<trkpt lat="43.55548" lon="5.40502">
<ele>370.8</ele>
<time>2012-03-24T16:24:07.000Z</time>
</trkpt>
<trkpt lat="43.55552" lon="5.40492">
<ele>370.2</ele>
<time>2012-03-24T16:24:08.000Z</time>
</trkpt>
<trkpt lat="43.55554" lon="5.40482">
<ele>369.7</ele>
<time>2012-03-24T16:24:09.000Z</time>
</trkpt>
<trkpt lat="43.55556" lon="5.40472">
<ele>369</ele>
<time>2012-03-24T16:24:10.000Z</time>
</trkpt>
<trkpt lat="43.55557" lon="5.40463">
<ele>368.9</ele>
<time>2012-03-24T16:24:11.000Z</time>
</trkpt>
<trkpt lat="43.55554" lon="5.4045">
<ele>368.6</ele>
<time>2012-03-24T16:24:12.000Z</time>
</trkpt>
<trkpt lat="43.55548" lon="5.4044">
<ele>368.4</ele>
<time>2012-03-24T16:24:13.000Z</time>
</trkpt>
<trkpt lat="43.55544" lon="5.40433">
<ele>368.2</ele>
<time>2012-03-24T16:24:14.000Z</time>
</trkpt>
<trkpt lat="43.55538" lon="5.40426">
<ele>368.6</ele>
<time>2012-03-24T16:24:15.000Z</time>
</trkpt>
<trkpt lat="43.55533" lon="5.40418">
<ele>368.2</ele>
<time>2012-03-24T16:24:16.000Z</time>
</trkpt>
<trkpt lat="43.55529" lon="5.40412">
<ele>368.4</ele>
<time>2012-03-24T16:24:17.000Z</time>
</trkpt>
<trkpt lat="43.55524" lon="5.40405">
<ele>368.7</ele>
<time>2012-03-24T16:24:18.000Z</time>
</trkpt>
<trkpt lat="43.55519" lon="5.40397">
<ele>368.9</ele>
<time>2012-03-24T16:24:19.000Z</time>
</trkpt>
<trkpt lat="43.55512" lon="5.40391">
<ele>369</ele>
<time>2012-03-24T16:24:20.000Z</time>
</trkpt>
<trkpt lat="43.55505" lon="5.40384">
<ele>368.7</ele>
<time>2012-03-24T16:24:21.000Z</time>
</trkpt>
<trkpt lat="43.55502" lon="5.40376">
<ele>368.6</ele>
<time>2012-03-24T16:24:22.000Z</time>
</trkpt>
<trkpt lat="43.55498" lon="5.40368">
<ele>368.3</ele>
<time>2012-03-24T16:24:23.000Z</time>
</trkpt>
<trkpt lat="43.55494" lon="5.40359">
<ele>368.2</ele>
<time>2012-03-24T16:24:24.000Z</time>
</trkpt>
<trkpt lat="43.55487" lon="5.4035">
<ele>367.7</ele>
<time>2012-03-24T16:24:25.000Z</time>
</trkpt>
<trkpt lat="43.5548" lon="5.40345">
<ele>367.6</ele>
<time>2012-03-24T16:24:26.000Z</time>
</trkpt>
<trkpt lat="43.55485" lon="5.40333">
<ele>367</ele>
<time>2012-03-24T16:24:27.000Z</time>
</trkpt>
<trkpt lat="43.55487" lon="5.40323">
<ele>366.7</ele>
<time>2012-03-24T16:24:28.000Z</time>
</trkpt>
<trkpt lat="43.55493" lon="5.40314">
<ele>366.9</ele>
<time>2012-03-24T16:24:29.000Z</time>
</trkpt>
<trkpt lat="43.55496" lon="5.40304">
<ele>366.7</ele>
<time>2012-03-24T16:24:30.000Z</time>
</trkpt>
<trkpt lat="43.55501" lon="5.40294">
<ele>366.7</ele>
<time>2012-03-24T16:24:31.000Z</time>
</trkpt>
<trkpt lat="43.55504" lon="5.40285">
<ele>366.9</ele>
<time>2012-03-24T16:24:32.000Z</time>
</trkpt>
<trkpt lat="43.55506" lon="5.40274">
<ele>366.8</ele>
<time>2012-03-24T16:24:33.000Z</time>
</trkpt>
<trkpt lat="43.55511" lon="5.40266">
<ele>366.8</ele>
<time>2012-03-24T16:24:34.000Z</time>
</trkpt>
<trkpt lat="43.55513" lon="5.40256">
<ele>366.8</ele>
<time>2012-03-24T16:24:35.000Z</time>
</trkpt>
<trkpt lat="43.55516" lon="5.40246">
<ele>367.1</ele>
<time>2012-03-24T16:24:36.000Z</time>
</trkpt>
<trkpt lat="43.5552" lon="5.40237">
<ele>367.1</ele>
<time>2012-03-24T16:24:37.000Z</time>
</trkpt>
<trkpt lat="43.55524" lon="5.40226">
<ele>366.6</ele>
<time>2012-03-24T16:24:38.000Z</time>
</trkpt>
<trkpt lat="43.55529" lon="5.40217">
<ele>367.1</ele>
<time>2012-03-24T16:24:39.000Z</time>
</trkpt>
<trkpt lat="43.55533" lon="5.40205">
<ele>366.8</ele>
<time>2012-03-24T16:24:40.000Z</time>
</trkpt>
<trkpt lat="43.55536" lon="5.40194">
<ele>366.6</ele>
<time>2012-03-24T16:24:41.000Z</time>
</trkpt>
<trkpt lat="43.55544" lon="5.40184">
<ele>367.3</ele>
<time>2012-03-24T16:24:42.000Z</time>
</trkpt>
<trkpt lat="43.55548" lon="5.40175">
<ele>367.7</ele>
<time>2012-03-24T16:24:43.000Z</time>
</trkpt>
<trkpt lat="43.55553" lon="5.40163">
<ele>367.6</ele>
<time>2012-03-24T16:24:44.000Z</time>
</trkpt>
<trkpt lat="43.55556" lon="5.40154">
<ele>367.9</ele>
<time>2012-03-24T16:24:45.000Z</time>
</trkpt>
<trkpt lat="43.5556" lon="5.40144">
<ele>367.1</ele>
<time>2012-03-24T16:24:46.000Z</time>
</trkpt>
<trkpt lat="43.55564" lon="5.40136">
<ele>367</ele>
<time>2012-03-24T16:24:47.000Z</time>
</trkpt>
<trkpt lat="43.55568" lon="5.40126">
<ele>367</ele>
<time>2012-03-24T16:24:48.000Z</time>
</trkpt>
<trkpt lat="43.55572" lon="5.40116">
<ele>366.8</ele>
<time>2012-03-24T16:24:49.000Z</time>
</trkpt>
<trkpt lat="43.55575" lon="5.40108">
<ele>367.8</ele>
<time>2012-03-24T16:24:50.000Z</time>
</trkpt>
<trkpt lat="43.55579" lon="5.40098">
<ele>367.9</ele>
<time>2012-03-24T16:24:51.000Z</time>
</trkpt>
<trkpt lat="43.55584" lon="5.40089">
<ele>368</ele>
<time>2012-03-24T16:24:52.000Z</time>
</trkpt>
<trkpt lat="43.55589" lon="5.4008">
<ele>367</ele>
<time>2012-03-24T16:24:53.000Z</time>
</trkpt>
<trkpt lat="43.55596" lon="5.4007">
<ele>367</ele>
<time>2012-03-24T16:24:54.000Z</time>
</trkpt>
<trkpt lat="43.55603" lon="5.40062">
<ele>367.1</ele>
<time>2012-03-24T16:24:55.000Z</time>
</trkpt>
<trkpt lat="43.55606" lon="5.40056">
<ele>366.9</ele>
<time>2012-03-24T16:24:56.000Z</time>
</trkpt>
<trkpt lat="43.55612" lon="5.40048">
<ele>366.9</ele>
<time>2012-03-24T16:24:57.000Z</time>
</trkpt>
<trkpt lat="43.55617" lon="5.40039">
<ele>366.5</ele>
<time>2012-03-24T16:24:58.000Z</time>
</trkpt>
<trkpt lat="43.55619" lon="5.4003">
<ele>366</ele>
<time>2012-03-24T16:24:59.000Z</time>
</trkpt>
<trkpt lat="43.55624" lon="5.4002">
<ele>365.3</ele>
<time>2012-03-24T16:25:00.000Z</time>
</trkpt>
<trkpt lat="43.55627" lon="5.40011">
<ele>365.1</ele>
<time>2012-03-24T16:25:01.000Z</time>
</trkpt>
<trkpt lat="43.55634" lon="5.40004">
<ele>365.5</ele>
<time>2012-03-24T16:25:02.000Z</time>
</trkpt>
<trkpt lat="43.55638" lon="5.39996">
<ele>365.5</ele>
<time>2012-03-24T16:25:03.000Z</time>
</trkpt>
<trkpt lat="43.55643" lon="5.39986">
<ele>365.5</ele>
<time>2012-03-24T16:25:04.000Z</time>
</trkpt>
<trkpt lat="43.55647" lon="5.39979">
<ele>365.6</ele>
<time>2012-03-24T16:25:05.000Z</time>
</trkpt>
<trkpt lat="43.5565" lon="5.39971">
<ele>365.4</ele>
<time>2012-03-24T16:25:06.000Z</time>
</trkpt>
<trkpt lat="43.55654" lon="5.39961">
<ele>365.2</ele>
<time>2012-03-24T16:25:07.000Z</time>
</trkpt>
<trkpt lat="43.55658" lon="5.39951">
<ele>364.5</ele>
<time>2012-03-24T16:25:08.000Z</time>
</trkpt>
<trkpt lat="43.55663" lon="5.39942">
<ele>364.4</ele>
<time>2012-03-24T16:25:09.000Z</time>
</trkpt>
<trkpt lat="43.55667" lon="5.39934">
<ele>364.6</ele>
<time>2012-03-24T16:25:10.000Z</time>
</trkpt>
<trkpt lat="43.5567" lon="5.39926">
<ele>364.6</ele>
<time>2012-03-24T16:25:11.000Z</time>
</trkpt>
<trkpt lat="43.55676" lon="5.39918">
<ele>364.9</ele>
<time>2012-03-24T16:25:12.000Z</time>
</trkpt>
<trkpt lat="43.55682" lon="5.3991">
<ele>364.3</ele>
<time>2012-03-24T16:25:13.000Z</time>
</trkpt>
<trkpt lat="43.55688" lon="5.39902">
<ele>364.7</ele>
<time>2012-03-24T16:25:14.000Z</time>
</trkpt>
<trkpt lat="43.55694" lon="5.39895">
<ele>364.8</ele>
<time>2012-03-24T16:25:15.000Z</time>
</trkpt>
<trkpt lat="43.55701" lon="5.39888">
<ele>364</ele>
<time>2012-03-24T16:25:16.000Z</time>
</trkpt>
<trkpt lat="43.55708" lon="5.39882">
<ele>363.5</ele>
<time>2012-03-24T16:25:17.000Z</time>
</trkpt>
<trkpt lat="43.55715" lon="5.39874">
<ele>362.3</ele>
<time>2012-03-24T16:25:18.000Z</time>
</trkpt>
<trkpt lat="43.55722" lon="5.39867">
<ele>362.5</ele>
<time>2012-03-24T16:25:19.000Z</time>
</trkpt>
<trkpt lat="43.55728" lon="5.39861">
<ele>362.6</ele>
<time>2012-03-24T16:25:20.000Z</time>
</trkpt>
<trkpt lat="43.55734" lon="5.39854">
<ele>363.7</ele>
<time>2012-03-24T16:25:21.000Z</time>
</trkpt>
<trkpt lat="43.5574" lon="5.39848">
<ele>364.3</ele>
<time>2012-03-24T16:25:22.000Z</time>
</trkpt>
<trkpt lat="43.55744" lon="5.39838">
<ele>364.5</ele>
<time>2012-03-24T16:25:23.000Z</time>
</trkpt>
<trkpt lat="43.55748" lon="5.3983">
<ele>365.2</ele>
<time>2012-03-24T16:25:24.000Z</time>
</trkpt>
<trkpt lat="43.55754" lon="5.3982">
<ele>365.4</ele>
<time>2012-03-24T16:25:25.000Z</time>
</trkpt>
<trkpt lat="43.55762" lon="5.39812">
<ele>365.2</ele>
<time>2012-03-24T16:25:26.000Z</time>
</trkpt>
<trkpt lat="43.55769" lon="5.39801">
<ele>365</ele>
<time>2012-03-24T16:25:27.000Z</time>
</trkpt>
<trkpt lat="43.55776" lon="5.39792">
<ele>364.7</ele>
<time>2012-03-24T16:25:28.000Z</time>
</trkpt>
<trkpt lat="43.55785" lon="5.39781">
<ele>364.7</ele>
<time>2012-03-24T16:25:29.000Z</time>
</trkpt>
<trkpt lat="43.55792" lon="5.39763">
<ele>364.4</ele>
<time>2012-03-24T16:25:30.000Z</time>
</trkpt>
<trkpt lat="43.55797" lon="5.39755">
<ele>363.8</ele>
<time>2012-03-24T16:25:31.000Z</time>
</trkpt>
<trkpt lat="43.55802" lon="5.39748">
<ele>363.2</ele>
<time>2012-03-24T16:25:32.000Z</time>
</trkpt>
<trkpt lat="43.55806" lon="5.3974">
<ele>363.2</ele>
<time>2012-03-24T16:25:33.000Z</time>
</trkpt>
<trkpt lat="43.55811" lon="5.39729">
<ele>363.5</ele>
<time>2012-03-24T16:25:34.000Z</time>
</trkpt>
<trkpt lat="43.55817" lon="5.39719">
<ele>363.4</ele>
<time>2012-03-24T16:25:35.000Z</time>
</trkpt>
<trkpt lat="43.55823" lon="5.39708">
<ele>363</ele>
<time>2012-03-24T16:25:36.000Z</time>
</trkpt>
<trkpt lat="43.55829" lon="5.39699">
<ele>362.6</ele>
<time>2012-03-24T16:25:37.000Z</time>
</trkpt>
<trkpt lat="43.55835" lon="5.3969">
<ele>362.6</ele>
<time>2012-03-24T16:25:38.000Z</time>
</trkpt>
<trkpt lat="43.55841" lon="5.39681">
<ele>362.6</ele>
<time>2012-03-24T16:25:39.000Z</time>
</trkpt>
<trkpt lat="43.55846" lon="5.3967">
<ele>362.2</ele>
<time>2012-03-24T16:25:40.000Z</time>
</trkpt>
<trkpt lat="43.55851" lon="5.39663">
<ele>362.5</ele>
<time>2012-03-24T16:25:41.000Z</time>
</trkpt>
<trkpt lat="43.55857" lon="5.39655">
<ele>362.2</ele>
<time>2012-03-24T16:25:42.000Z</time>
</trkpt>
<trkpt lat="43.55863" lon="5.39646">
<ele>362.2</ele>
<time>2012-03-24T16:25:43.000Z</time>
</trkpt>
<trkpt lat="43.5587" lon="5.39636">
<ele>361.4</ele>
<time>2012-03-24T16:25:44.000Z</time>
</trkpt>
<trkpt lat="43.55875" lon="5.39628">
<ele>360.7</ele>
<time>2012-03-24T16:25:45.000Z</time>
</trkpt>
<trkpt lat="43.55883" lon="5.3962">
<ele>360.5</ele>
<time>2012-03-24T16:25:46.000Z</time>
</trkpt>
<trkpt lat="43.5589" lon="5.39613">
<ele>360.4</ele>
<time>2012-03-24T16:25:47.000Z</time>
</trkpt>
<trkpt lat="43.55896" lon="5.39604">
<ele>359.8</ele>
<time>2012-03-24T16:25:48.000Z</time>
</trkpt>
<trkpt lat="43.55899" lon="5.39589">
<ele>359.1</ele>
<time>2012-03-24T16:25:50.000Z</time>
</trkpt>
<trkpt lat="43.55902" lon="5.39579">
<ele>359.2</ele>
<time>2012-03-24T16:25:51.000Z</time>
</trkpt>
<trkpt lat="43.55905" lon="5.39569">
<ele>359.6</ele>
<time>2012-03-24T16:25:52.000Z</time>
</trkpt>
<trkpt lat="43.55911" lon="5.39558">
<ele>359.5</ele>
<time>2012-03-24T16:25:53.000Z</time>
</trkpt>
<trkpt lat="43.55918" lon="5.39547">
<ele>359.1</ele>
<time>2012-03-24T16:25:54.000Z</time>
</trkpt>
<trkpt lat="43.55924" lon="5.39536">
<ele>359</ele>
<time>2012-03-24T16:25:55.000Z</time>
</trkpt>
<trkpt lat="43.5593" lon="5.39526">
<ele>358.4</ele>
<time>2012-03-24T16:25:56.000Z</time>
</trkpt>
<trkpt lat="43.55936" lon="5.39514">
<ele>357.4</ele>
<time>2012-03-24T16:25:57.000Z</time>
</trkpt>
<trkpt lat="43.55941" lon="5.39504">
<ele>357.1</ele>
<time>2012-03-24T16:25:58.000Z</time>
</trkpt>
<trkpt lat="43.55945" lon="5.39495">
<ele>357.5</ele>
<time>2012-03-24T16:25:59.000Z</time>
</trkpt>
<trkpt lat="43.55951" lon="5.39486">
<ele>357.1</ele>
<time>2012-03-24T16:26:00.000Z</time>
</trkpt>
<trkpt lat="43.55956" lon="5.39478">
<ele>357.4</ele>
<time>2012-03-24T16:26:01.000Z</time>
</trkpt>
<trkpt lat="43.55961" lon="5.39468">
<ele>357.1</ele>
<time>2012-03-24T16:26:02.000Z</time>
</trkpt>
<trkpt lat="43.55968" lon="5.39461">
<ele>357.5</ele>
<time>2012-03-24T16:26:03.000Z</time>
</trkpt>
<trkpt lat="43.55974" lon="5.39452">
<ele>357.4</ele>
<time>2012-03-24T16:26:04.000Z</time>
</trkpt>
<trkpt lat="43.55979" lon="5.39444">
<ele>357.3</ele>
<time>2012-03-24T16:26:05.000Z</time>
</trkpt>
<trkpt lat="43.55983" lon="5.39436">
<ele>357.5</ele>
<time>2012-03-24T16:26:06.000Z</time>
</trkpt>
<trkpt lat="43.55987" lon="5.39428">
<ele>357.7</ele>
<time>2012-03-24T16:26:07.000Z</time>
</trkpt>
<trkpt lat="43.55991" lon="5.3942">
<ele>357.7</ele>
<time>2012-03-24T16:26:08.000Z</time>
</trkpt>
<trkpt lat="43.55995" lon="5.39411">
<ele>357.4</ele>
<time>2012-03-24T16:26:09.000Z</time>
</trkpt>
<trkpt lat="43.55998" lon="5.39403">
<ele>357.3</ele>
<time>2012-03-24T16:26:10.000Z</time>
</trkpt>
<trkpt lat="43.56002" lon="5.39392">
<ele>357.6</ele>
<time>2012-03-24T16:26:11.000Z</time>
</trkpt>
<trkpt lat="43.56004" lon="5.39381">
<ele>357.8</ele>
<time>2012-03-24T16:26:12.000Z</time>
</trkpt>
<trkpt lat="43.56006" lon="5.3937">
<ele>357.6</ele>
<time>2012-03-24T16:26:13.000Z</time>
</trkpt>
<trkpt lat="43.5601" lon="5.3936">
<ele>357.5</ele>
<time>2012-03-24T16:26:14.000Z</time>
</trkpt>
<trkpt lat="43.56012" lon="5.39347">
<ele>357.8</ele>
<time>2012-03-24T16:26:15.000Z</time>
</trkpt>
<trkpt lat="43.56017" lon="5.39337">
<ele>358.2</ele>
<time>2012-03-24T16:26:16.000Z</time>
</trkpt>
<trkpt lat="43.5602" lon="5.39328">
<ele>358.3</ele>
<time>2012-03-24T16:26:17.000Z</time>
</trkpt>
<trkpt lat="43.56022" lon="5.39318">
<ele>358.1</ele>
<time>2012-03-24T16:26:18.000Z</time>
</trkpt>
<trkpt lat="43.56026" lon="5.39308">
<ele>358</ele>
<time>2012-03-24T16:26:19.000Z</time>
</trkpt>
<trkpt lat="43.56027" lon="5.39298">
<ele>357.6</ele>
<time>2012-03-24T16:26:20.000Z</time>
</trkpt>
<trkpt lat="43.56029" lon="5.39287">
<ele>357.2</ele>
<time>2012-03-24T16:26:21.000Z</time>
</trkpt>
<trkpt lat="43.56031" lon="5.39277">
<ele>358</ele>
<time>2012-03-24T16:26:22.000Z</time>
</trkpt>
<trkpt lat="43.56034" lon="5.39267">
<ele>357.7</ele>
<time>2012-03-24T16:26:23.000Z</time>
</trkpt>
<trkpt lat="43.56036" lon="5.39258">
<ele>357.4</ele>
<time>2012-03-24T16:26:24.000Z</time>
</trkpt>
<trkpt lat="43.56039" lon="5.39247">
<ele>356.6</ele>
<time>2012-03-24T16:26:25.000Z</time>
</trkpt>
<trkpt lat="43.56042" lon="5.39237">
<ele>356.5</ele>
<time>2012-03-24T16:26:26.000Z</time>
</trkpt>
<trkpt lat="43.56044" lon="5.39228">
<ele>356.3</ele>
<time>2012-03-24T16:26:27.000Z</time>
</trkpt>
<trkpt lat="43.56046" lon="5.39216">
<ele>356.4</ele>
<time>2012-03-24T16:26:28.000Z</time>
</trkpt>
<trkpt lat="43.56048" lon="5.39206">
<ele>356.5</ele>
<time>2012-03-24T16:26:29.000Z</time>
</trkpt>
<trkpt lat="43.56048" lon="5.39194">
<ele>356.6</ele>
<time>2012-03-24T16:26:30.000Z</time>
</trkpt>
<trkpt lat="43.56048" lon="5.39183">
<ele>356.7</ele>
<time>2012-03-24T16:26:31.000Z</time>
</trkpt>
<trkpt lat="43.56049" lon="5.39174">
<ele>356.9</ele>
<time>2012-03-24T16:26:32.000Z</time>
</trkpt>
<trkpt lat="43.56052" lon="5.39165">
<ele>356.6</ele>
<time>2012-03-24T16:26:33.000Z</time>
</trkpt>
<trkpt lat="43.56054" lon="5.39157">
<ele>356.4</ele>
<time>2012-03-24T16:26:34.000Z</time>
</trkpt>
<trkpt lat="43.56056" lon="5.39148">
<ele>356.6</ele>
<time>2012-03-24T16:26:35.000Z</time>
</trkpt>
<trkpt lat="43.56058" lon="5.39135">
<ele>356.5</ele>
<time>2012-03-24T16:26:36.000Z</time>
</trkpt>
<trkpt lat="43.56062" lon="5.39124">
<ele>356.4</ele>
<time>2012-03-24T16:26:37.000Z</time>
</trkpt>
<trkpt lat="43.56063" lon="5.39115">
<ele>356</ele>
<time>2012-03-24T16:26:38.000Z</time>
</trkpt>
<trkpt lat="43.56067" lon="5.39104">
<ele>355.7</ele>
<time>2012-03-24T16:26:39.000Z</time>
</trkpt>
<trkpt lat="43.56069" lon="5.39094">
<ele>354.7</ele>
<time>2012-03-24T16:26:40.000Z</time>
</trkpt>
<trkpt lat="43.56071" lon="5.39082">
<ele>355.2</ele>
<time>2012-03-24T16:26:41.000Z</time>
</trkpt>
<trkpt lat="43.56074" lon="5.39069">
<ele>355.5</ele>
<time>2012-03-24T16:26:42.000Z</time>
</trkpt>
<trkpt lat="43.56077" lon="5.39058">
<ele>354.5</ele>
<time>2012-03-24T16:26:43.000Z</time>
</trkpt>
<trkpt lat="43.5608" lon="5.39047">
<ele>353.9</ele>
<time>2012-03-24T16:26:44.000Z</time>
</trkpt>
<trkpt lat="43.56081" lon="5.39035">
<ele>352.8</ele>
<time>2012-03-24T16:26:45.000Z</time>
</trkpt>
<trkpt lat="43.56083" lon="5.39024">
<ele>353.1</ele>
<time>2012-03-24T16:26:46.000Z</time>
</trkpt>
<trkpt lat="43.56085" lon="5.39013">
<ele>352.8</ele>
<time>2012-03-24T16:26:47.000Z</time>
</trkpt>
<trkpt lat="43.56088" lon="5.39001">
<ele>353</ele>
<time>2012-03-24T16:26:48.000Z</time>
</trkpt>
<trkpt lat="43.56087" lon="5.38992">
<ele>353</ele>
<time>2012-03-24T16:26:49.000Z</time>
</trkpt>
<trkpt lat="43.5609" lon="5.3898">
<ele>353</ele>
<time>2012-03-24T16:26:50.000Z</time>
</trkpt>
<trkpt lat="43.56091" lon="5.38969">
<ele>353.8</ele>
<time>2012-03-24T16:26:51.000Z</time>
</trkpt>
<trkpt lat="43.56093" lon="5.38959">
<ele>354.1</ele>
<time>2012-03-24T16:26:52.000Z</time>
</trkpt>
<trkpt lat="43.56095" lon="5.38948">
<ele>353.8</ele>
<time>2012-03-24T16:26:53.000Z</time>
</trkpt>
<trkpt lat="43.56098" lon="5.38939">
<ele>354.6</ele>
<time>2012-03-24T16:26:54.000Z</time>
</trkpt>
<trkpt lat="43.56099" lon="5.38929">
<ele>354.8</ele>
<time>2012-03-24T16:26:55.000Z</time>
</trkpt>
<trkpt lat="43.561" lon="5.38917">
<ele>354.1</ele>
<time>2012-03-24T16:26:56.000Z</time>
</trkpt>
<trkpt lat="43.561" lon="5.38906">
<ele>354.1</ele>
<time>2012-03-24T16:26:57.000Z</time>
</trkpt>
<trkpt lat="43.56102" lon="5.38897">
<ele>354.3</ele>
<time>2012-03-24T16:26:58.000Z</time>
</trkpt>
<trkpt lat="43.56103" lon="5.38888">
<ele>353.9</ele>
<time>2012-03-24T16:26:59.000Z</time>
</trkpt>
<trkpt lat="43.56104" lon="5.38877">
<ele>353.9</ele>
<time>2012-03-24T16:27:00.000Z</time>
</trkpt>
<trkpt lat="43.56104" lon="5.38869">
<ele>354.4</ele>
<time>2012-03-24T16:27:01.000Z</time>
</trkpt>
<trkpt lat="43.56106" lon="5.38857">
<ele>353.8</ele>
<time>2012-03-24T16:27:02.000Z</time>
</trkpt>
<trkpt lat="43.56107" lon="5.38849">
<ele>353.7</ele>
<time>2012-03-24T16:27:03.000Z</time>
</trkpt>
<trkpt lat="43.56108" lon="5.38839">
<ele>353.9</ele>
<time>2012-03-24T16:27:04.000Z</time>
</trkpt>
<trkpt lat="43.56111" lon="5.38828">
<ele>353.5</ele>
<time>2012-03-24T16:27:05.000Z</time>
</trkpt>
<trkpt lat="43.56112" lon="5.38818">
<ele>353.4</ele>
<time>2012-03-24T16:27:06.000Z</time>
</trkpt>
<trkpt lat="43.56114" lon="5.38807">
<ele>353.5</ele>
<time>2012-03-24T16:27:07.000Z</time>
</trkpt>
<trkpt lat="43.56118" lon="5.38796">
<ele>353.7</ele>
<time>2012-03-24T16:27:08.000Z</time>
</trkpt>
<trkpt lat="43.5612" lon="5.38785">
<ele>354</ele>
<time>2012-03-24T16:27:09.000Z</time>
</trkpt>
<trkpt lat="43.56122" lon="5.38775">
<ele>354.1</ele>
<time>2012-03-24T16:27:10.000Z</time>
</trkpt>
<trkpt lat="43.56123" lon="5.38764">
<ele>353.8</ele>
<time>2012-03-24T16:27:11.000Z</time>
</trkpt>
<trkpt lat="43.56126" lon="5.38755">
<ele>353.9</ele>
<time>2012-03-24T16:27:12.000Z</time>
</trkpt>
<trkpt lat="43.56129" lon="5.38745">
<ele>353.9</ele>
<time>2012-03-24T16:27:13.000Z</time>
</trkpt>
<trkpt lat="43.56131" lon="5.38735">
<ele>353.3</ele>
<time>2012-03-24T16:27:14.000Z</time>
</trkpt>
<trkpt lat="43.56134" lon="5.38725">
<ele>353</ele>
<time>2012-03-24T16:27:15.000Z</time>
</trkpt>
<trkpt lat="43.56138" lon="5.38717">
<ele>353.3</ele>
<time>2012-03-24T16:27:16.000Z</time>
</trkpt>
<trkpt lat="43.5614" lon="5.38707">
<ele>353.4</ele>
<time>2012-03-24T16:27:17.000Z</time>
</trkpt>
<trkpt lat="43.56143" lon="5.38698">
<ele>353.5</ele>
<time>2012-03-24T16:27:18.000Z</time>
</trkpt>
<trkpt lat="43.56145" lon="5.38688">
<ele>353.2</ele>
<time>2012-03-24T16:27:19.000Z</time>
</trkpt>
<trkpt lat="43.56147" lon="5.38678">
<ele>352.5</ele>
<time>2012-03-24T16:27:20.000Z</time>
</trkpt>
<trkpt lat="43.56149" lon="5.38669">
<ele>353</ele>
<time>2012-03-24T16:27:21.000Z</time>
</trkpt>
<trkpt lat="43.56151" lon="5.38659">
<ele>353.3</ele>
<time>2012-03-24T16:27:22.000Z</time>
</trkpt>
<trkpt lat="43.56153" lon="5.38649">
<ele>354.1</ele>
<time>2012-03-24T16:27:23.000Z</time>
</trkpt>
<trkpt lat="43.56156" lon="5.3864">
<ele>354</ele>
<time>2012-03-24T16:27:24.000Z</time>
</trkpt>
<trkpt lat="43.56157" lon="5.3863">
<ele>354</ele>
<time>2012-03-24T16:27:25.000Z</time>
</trkpt>
<trkpt lat="43.56159" lon="5.3862">
<ele>353.8</ele>
<time>2012-03-24T16:27:26.000Z</time>
</trkpt>
<trkpt lat="43.56161" lon="5.3861">
<ele>354.1</ele>
<time>2012-03-24T16:27:27.000Z</time>
</trkpt>
<trkpt lat="43.56164" lon="5.38602">
<ele>355.3</ele>
<time>2012-03-24T16:27:28.000Z</time>
</trkpt>
<trkpt lat="43.56166" lon="5.38593">
<ele>354.6</ele>
<time>2012-03-24T16:27:29.000Z</time>
</trkpt>
<trkpt lat="43.5617" lon="5.38584">
<ele>354.8</ele>
<time>2012-03-24T16:27:30.000Z</time>
</trkpt>
<trkpt lat="43.56171" lon="5.38574">
<ele>355.1</ele>
<time>2012-03-24T16:27:31.000Z</time>
</trkpt>
<trkpt lat="43.56178" lon="5.38558">
<ele>355.9</ele>
<time>2012-03-24T16:27:33.000Z</time>
</trkpt>
<trkpt lat="43.56182" lon="5.38547">
<ele>356.3</ele>
<time>2012-03-24T16:27:34.000Z</time>
</trkpt>
<trkpt lat="43.56186" lon="5.38538">
<ele>355.6</ele>
<time>2012-03-24T16:27:35.000Z</time>
</trkpt>
<trkpt lat="43.5619" lon="5.38527">
<ele>355.7</ele>
<time>2012-03-24T16:27:36.000Z</time>
</trkpt>
<trkpt lat="43.56193" lon="5.38517">
<ele>355.3</ele>
<time>2012-03-24T16:27:37.000Z</time>
</trkpt>
<trkpt lat="43.56198" lon="5.38506">
<ele>354.7</ele>
<time>2012-03-24T16:27:38.000Z</time>
</trkpt>
<trkpt lat="43.56203" lon="5.38492">
<ele>354</ele>
<time>2012-03-24T16:27:39.000Z</time>
</trkpt>
<trkpt lat="43.56206" lon="5.38482">
<ele>353.5</ele>
<time>2012-03-24T16:27:40.000Z</time>
</trkpt>
<trkpt lat="43.5621" lon="5.3847">
<ele>352.5</ele>
<time>2012-03-24T16:27:41.000Z</time>
</trkpt>
<trkpt lat="43.56215" lon="5.38459">
<ele>352.7</ele>
<time>2012-03-24T16:27:42.000Z</time>
</trkpt>
<trkpt lat="43.5622" lon="5.38448">
<ele>352</ele>
<time>2012-03-24T16:27:43.000Z</time>
</trkpt>
<trkpt lat="43.56224" lon="5.38437">
<ele>351.8</ele>
<time>2012-03-24T16:27:44.000Z</time>
</trkpt>
<trkpt lat="43.56229" lon="5.38427">
<ele>352</ele>
<time>2012-03-24T16:27:45.000Z</time>
</trkpt>
<trkpt lat="43.56233" lon="5.38416">
<ele>351.8</ele>
<time>2012-03-24T16:27:46.000Z</time>
</trkpt>
<trkpt lat="43.56239" lon="5.38406">
<ele>351.3</ele>
<time>2012-03-24T16:27:47.000Z</time>
</trkpt>
<trkpt lat="43.56243" lon="5.38396">
<ele>351.3</ele>
<time>2012-03-24T16:27:48.000Z</time>
</trkpt>
<trkpt lat="43.56247" lon="5.38386">
<ele>351.2</ele>
<time>2012-03-24T16:27:49.000Z</time>
</trkpt>
<trkpt lat="43.56252" lon="5.38376">
<ele>351.6</ele>
<time>2012-03-24T16:27:50.000Z</time>
</trkpt>
<trkpt lat="43.56257" lon="5.38365">
<ele>351.8</ele>
<time>2012-03-24T16:27:51.000Z</time>
</trkpt>
<trkpt lat="43.5626" lon="5.38353">
<ele>351.8</ele>
<time>2012-03-24T16:27:52.000Z</time>
</trkpt>
<trkpt lat="43.56263" lon="5.38341">
<ele>351.3</ele>
<time>2012-03-24T16:27:53.000Z</time>
</trkpt>
<trkpt lat="43.56266" lon="5.38329">
<ele>351.4</ele>
<time>2012-03-24T16:27:54.000Z</time>
</trkpt>
<trkpt lat="43.56268" lon="5.38316">
<ele>350.9</ele>
<time>2012-03-24T16:27:55.000Z</time>
</trkpt>
<trkpt lat="43.56273" lon="5.38304">
<ele>350.9</ele>
<time>2012-03-24T16:27:56.000Z</time>
</trkpt>
<trkpt lat="43.56278" lon="5.38293">
<ele>350.6</ele>
<time>2012-03-24T16:27:57.000Z</time>
</trkpt>
<trkpt lat="43.56283" lon="5.38281">
<ele>350.2</ele>
<time>2012-03-24T16:27:58.000Z</time>
</trkpt>
<trkpt lat="43.56288" lon="5.3827">
<ele>350.2</ele>
<time>2012-03-24T16:27:59.000Z</time>
</trkpt>
<trkpt lat="43.56293" lon="5.38259">
<ele>349.6</ele>
<time>2012-03-24T16:28:00.000Z</time>
</trkpt>
<trkpt lat="43.56298" lon="5.38248">
<ele>349.4</ele>
<time>2012-03-24T16:28:01.000Z</time>
</trkpt>
<trkpt lat="43.56303" lon="5.38236">
<ele>349.1</ele>
<time>2012-03-24T16:28:02.000Z</time>
</trkpt>
<trkpt lat="43.56307" lon="5.38224">
<ele>349.1</ele>
<time>2012-03-24T16:28:03.000Z</time>
</trkpt>
<trkpt lat="43.56312" lon="5.38213">
<ele>348.7</ele>
<time>2012-03-24T16:28:04.000Z</time>
</trkpt>
<trkpt lat="43.56316" lon="5.38202">
<ele>348.9</ele>
<time>2012-03-24T16:28:05.000Z</time>
</trkpt>
<trkpt lat="43.56322" lon="5.38191">
<ele>348.7</ele>
<time>2012-03-24T16:28:06.000Z</time>
</trkpt>
<trkpt lat="43.56326" lon="5.3818">
<ele>348.4</ele>
<time>2012-03-24T16:28:07.000Z</time>
</trkpt>
<trkpt lat="43.56332" lon="5.38168">
<ele>348.4</ele>
<time>2012-03-24T16:28:08.000Z</time>
</trkpt>
<trkpt lat="43.56336" lon="5.38158">
<ele>348.3</ele>
<time>2012-03-24T16:28:09.000Z</time>
</trkpt>
<trkpt lat="43.56342" lon="5.38147">
<ele>347.8</ele>
<time>2012-03-24T16:28:10.000Z</time>
</trkpt>
<trkpt lat="43.56348" lon="5.38136">
<ele>347.5</ele>
<time>2012-03-24T16:28:11.000Z</time>
</trkpt>
<trkpt lat="43.56352" lon="5.38126">
<ele>347.7</ele>
<time>2012-03-24T16:28:12.000Z</time>
</trkpt>
<trkpt lat="43.56358" lon="5.38116">
<ele>348.5</ele>
<time>2012-03-24T16:28:13.000Z</time>
</trkpt>
<trkpt lat="43.56363" lon="5.38106">
<ele>348.3</ele>
<time>2012-03-24T16:28:14.000Z</time>
</trkpt>
<trkpt lat="43.5637" lon="5.38096">
<ele>348.6</ele>
<time>2012-03-24T16:28:15.000Z</time>
</trkpt>
<trkpt lat="43.56373" lon="5.38086">
<ele>348.3</ele>
<time>2012-03-24T16:28:16.000Z</time>
</trkpt>
<trkpt lat="43.56379" lon="5.38075">
<ele>348.3</ele>
<time>2012-03-24T16:28:17.000Z</time>
</trkpt>
<trkpt lat="43.56385" lon="5.38063">
<ele>348.9</ele>
<time>2012-03-24T16:28:18.000Z</time>
</trkpt>
<trkpt lat="43.56388" lon="5.38054">
<ele>351</ele>
<time>2012-03-24T16:28:19.000Z</time>
</trkpt>
<trkpt lat="43.56391" lon="5.38042">
<ele>350</ele>
<time>2012-03-24T16:28:20.000Z</time>
</trkpt>
<trkpt lat="43.56395" lon="5.38031">
<ele>350.2</ele>
<time>2012-03-24T16:28:21.000Z</time>
</trkpt>
<trkpt lat="43.56398" lon="5.3802">
<ele>350.3</ele>
<time>2012-03-24T16:28:22.000Z</time>
</trkpt>
<trkpt lat="43.56402" lon="5.3801">
<ele>350.3</ele>
<time>2012-03-24T16:28:23.000Z</time>
</trkpt>
<trkpt lat="43.56406" lon="5.37999">
<ele>350.3</ele>
<time>2012-03-24T16:28:24.000Z</time>
</trkpt>
<trkpt lat="43.5641" lon="5.37989">
<ele>350.6</ele>
<time>2012-03-24T16:28:25.000Z</time>
</trkpt>
<trkpt lat="43.56413" lon="5.37978">
<ele>350.8</ele>
<time>2012-03-24T16:28:26.000Z</time>
</trkpt>
<trkpt lat="43.56418" lon="5.37967">
<ele>350.9</ele>
<time>2012-03-24T16:28:27.000Z</time>
</trkpt>
<trkpt lat="43.56422" lon="5.37958">
<ele>351.7</ele>
<time>2012-03-24T16:28:28.000Z</time>
</trkpt>
<trkpt lat="43.56426" lon="5.37947">
<ele>351.1</ele>
<time>2012-03-24T16:28:29.000Z</time>
</trkpt>
<trkpt lat="43.5643" lon="5.37936">
<ele>351.6</ele>
<time>2012-03-24T16:28:30.000Z</time>
</trkpt>
<trkpt lat="43.56436" lon="5.37926">
<ele>351.5</ele>
<time>2012-03-24T16:28:31.000Z</time>
</trkpt>
<trkpt lat="43.56441" lon="5.37916">
<ele>351.2</ele>
<time>2012-03-24T16:28:32.000Z</time>
</trkpt>
<trkpt lat="43.56443" lon="5.37907">
<ele>351.4</ele>
<time>2012-03-24T16:28:33.000Z</time>
</trkpt>
<trkpt lat="43.56447" lon="5.37896">
<ele>351.4</ele>
<time>2012-03-24T16:28:34.000Z</time>
</trkpt>
<trkpt lat="43.56451" lon="5.37886">
<ele>351.1</ele>
<time>2012-03-24T16:28:35.000Z</time>
</trkpt>
<trkpt lat="43.56456" lon="5.37875">
<ele>350.9</ele>
<time>2012-03-24T16:28:36.000Z</time>
</trkpt>
<trkpt lat="43.5646" lon="5.37866">
<ele>350.9</ele>
<time>2012-03-24T16:28:37.000Z</time>
</trkpt>
<trkpt lat="43.56463" lon="5.37855">
<ele>350.8</ele>
<time>2012-03-24T16:28:38.000Z</time>
</trkpt>
<trkpt lat="43.56465" lon="5.37846">
<ele>350.8</ele>
<time>2012-03-24T16:28:39.000Z</time>
</trkpt>
<trkpt lat="43.56467" lon="5.37838">
<ele>350.4</ele>
<time>2012-03-24T16:28:40.000Z</time>
</trkpt>
<trkpt lat="43.5647" lon="5.3783">
<ele>349.9</ele>
<time>2012-03-24T16:28:41.000Z</time>
</trkpt>
<trkpt lat="43.56474" lon="5.37822">
<ele>349.7</ele>
<time>2012-03-24T16:28:42.000Z</time>
</trkpt>
<trkpt lat="43.5648" lon="5.37814">
<ele>349.9</ele>
<time>2012-03-24T16:28:43.000Z</time>
</trkpt>
<trkpt lat="43.56483" lon="5.37807">
<ele>350</ele>
<time>2012-03-24T16:28:44.000Z</time>
</trkpt>
<trkpt lat="43.56487" lon="5.378">
<ele>350</ele>
<time>2012-03-24T16:28:45.000Z</time>
</trkpt>
<trkpt lat="43.5649" lon="5.37792">
<ele>350.2</ele>
<time>2012-03-24T16:28:46.000Z</time>
</trkpt>
<trkpt lat="43.56493" lon="5.37786">
<ele>350.6</ele>
<time>2012-03-24T16:28:47.000Z</time>
</trkpt>
<trkpt lat="43.56496" lon="5.37781">
<ele>350.8</ele>
<time>2012-03-24T16:28:48.000Z</time>
</trkpt>
<trkpt lat="43.56499" lon="5.37776">
<ele>350.8</ele>
<time>2012-03-24T16:28:49.000Z</time>
</trkpt>
<trkpt lat="43.56503" lon="5.37767">
<ele>350.7</ele>
<time>2012-03-24T16:28:51.000Z</time>
</trkpt>
<trkpt lat="43.56504" lon="5.37761">
<ele>350.2</ele>
<time>2012-03-24T16:28:52.000Z</time>
</trkpt>
<trkpt lat="43.56508" lon="5.3775">
<ele>350.6</ele>
<time>2012-03-24T16:28:54.000Z</time>
</trkpt>
<trkpt lat="43.56509" lon="5.37744">
<ele>352.1</ele>
<time>2012-03-24T16:28:55.000Z</time>
</trkpt>
<trkpt lat="43.56511" lon="5.37734">
<ele>352.7</ele>
<time>2012-03-24T16:28:57.000Z</time>
</trkpt>
<trkpt lat="43.56512" lon="5.37724">
<ele>352.9</ele>
<time>2012-03-24T16:28:59.000Z</time>
</trkpt>
<trkpt lat="43.56512" lon="5.37714">
<ele>352.4</ele>
<time>2012-03-24T16:29:01.000Z</time>
</trkpt>
<trkpt lat="43.56507" lon="5.37705">
<ele>351.8</ele>
<time>2012-03-24T16:29:03.000Z</time>
</trkpt>
<trkpt lat="43.56505" lon="5.37696">
<ele>351.8</ele>
<time>2012-03-24T16:29:05.000Z</time>
</trkpt>
<trkpt lat="43.56506" lon="5.37686">
<ele>351.4</ele>
<time>2012-03-24T16:29:07.000Z</time>
</trkpt>
<trkpt lat="43.56512" lon="5.37683">
<ele>351.3</ele>
<time>2012-03-24T16:29:08.000Z</time>
</trkpt>
<trkpt lat="43.56518" lon="5.37677">
<ele>352</ele>
<time>2012-03-24T16:29:10.000Z</time>
</trkpt>
<trkpt lat="43.56524" lon="5.37668">
<ele>352.4</ele>
<time>2012-03-24T16:29:12.000Z</time>
</trkpt>
<trkpt lat="43.56528" lon="5.37664">
<ele>352.3</ele>
<time>2012-03-24T16:29:13.000Z</time>
</trkpt>
<trkpt lat="43.56534" lon="5.37657">
<ele>351.9</ele>
<time>2012-03-24T16:29:15.000Z</time>
</trkpt>
<trkpt lat="43.56541" lon="5.37652">
<ele>351.9</ele>
<time>2012-03-24T16:29:17.000Z</time>
</trkpt>
<trkpt lat="43.56547" lon="5.37645">
<ele>352</ele>
<time>2012-03-24T16:29:19.000Z</time>
</trkpt>
<trkpt lat="43.5655" lon="5.3764">
<ele>352.1</ele>
<time>2012-03-24T16:29:20.000Z</time>
</trkpt>
<trkpt lat="43.56554" lon="5.37635">
<ele>352.3</ele>
<time>2012-03-24T16:29:21.000Z</time>
</trkpt>
<trkpt lat="43.56557" lon="5.3763">
<ele>352.6</ele>
<time>2012-03-24T16:29:22.000Z</time>
</trkpt>
<trkpt lat="43.5656" lon="5.37625">
<ele>352.8</ele>
<time>2012-03-24T16:29:23.000Z</time>
</trkpt>
<trkpt lat="43.56563" lon="5.3762">
<ele>352.6</ele>
<time>2012-03-24T16:29:24.000Z</time>
</trkpt>
<trkpt lat="43.56566" lon="5.37615">
<ele>352.3</ele>
<time>2012-03-24T16:29:25.000Z</time>
</trkpt>
<trkpt lat="43.56568" lon="5.37609">
<ele>352.2</ele>
<time>2012-03-24T16:29:26.000Z</time>
</trkpt>
<trkpt lat="43.56573" lon="5.37598">
<ele>352.1</ele>
<time>2012-03-24T16:29:28.000Z</time>
</trkpt>
<trkpt lat="43.56576" lon="5.37592">
<ele>352.3</ele>
<time>2012-03-24T16:29:29.000Z</time>
</trkpt>
<trkpt lat="43.56581" lon="5.3758">
<ele>352.1</ele>
<time>2012-03-24T16:29:31.000Z</time>
</trkpt>
<trkpt lat="43.56584" lon="5.37573">
<ele>351.8</ele>
<time>2012-03-24T16:29:32.000Z</time>
</trkpt>
<trkpt lat="43.56587" lon="5.37566">
<ele>351.6</ele>
<time>2012-03-24T16:29:33.000Z</time>
</trkpt>
<trkpt lat="43.5659" lon="5.3756">
<ele>351.7</ele>
<time>2012-03-24T16:29:34.000Z</time>
</trkpt>
<trkpt lat="43.56592" lon="5.37552">
<ele>351.5</ele>
<time>2012-03-24T16:29:35.000Z</time>
</trkpt>
<trkpt lat="43.56595" lon="5.37546">
<ele>351.5</ele>
<time>2012-03-24T16:29:36.000Z</time>
</trkpt>
<trkpt lat="43.56598" lon="5.3754">
<ele>351.4</ele>
<time>2012-03-24T16:29:37.000Z</time>
</trkpt>
<trkpt lat="43.566" lon="5.37533">
<ele>351.1</ele>
<time>2012-03-24T16:29:38.000Z</time>
</trkpt>
<trkpt lat="43.56604" lon="5.37525">
<ele>351.3</ele>
<time>2012-03-24T16:29:39.000Z</time>
</trkpt>
<trkpt lat="43.56608" lon="5.37518">
<ele>351.1</ele>
<time>2012-03-24T16:29:40.000Z</time>
</trkpt>
<trkpt lat="43.56612" lon="5.37515">
<ele>351.7</ele>
<time>2012-03-24T16:29:41.000Z</time>
</trkpt>
<trkpt lat="43.56618" lon="5.37514">
<ele>352.5</ele>
<time>2012-03-24T16:29:42.000Z</time>
</trkpt>
<trkpt lat="43.56627" lon="5.37509">
<ele>352.9</ele>
<time>2012-03-24T16:29:43.000Z</time>
</trkpt>
<trkpt lat="43.56631" lon="5.37507">
<ele>354.1</ele>
<time>2012-03-24T16:29:44.000Z</time>
</trkpt>
<trkpt lat="43.56635" lon="5.37499">
<ele>355.1</ele>
<time>2012-03-24T16:29:45.000Z</time>
</trkpt>
<trkpt lat="43.56641" lon="5.37494">
<ele>355.7</ele>
<time>2012-03-24T16:29:46.000Z</time>
</trkpt>
<trkpt lat="43.56645" lon="5.37489">
<ele>356.6</ele>
<time>2012-03-24T16:29:47.000Z</time>
</trkpt>
<trkpt lat="43.56649" lon="5.37479">
<ele>358.4</ele>
<time>2012-03-24T16:29:49.000Z</time>
</trkpt>
<trkpt lat="43.56649" lon="5.37459">
<ele>359.4</ele>
<time>2012-03-24T16:29:53.000Z</time>
</trkpt>
<trkpt lat="43.56655" lon="5.37445">
<ele>359.1</ele>
<time>2012-03-24T16:29:54.000Z</time>
</trkpt>
<trkpt lat="43.56655" lon="5.37436">
<ele>358.9</ele>
<time>2012-03-24T16:29:55.000Z</time>
</trkpt>
<trkpt lat="43.56654" lon="5.37424">
<ele>358.6</ele>
<time>2012-03-24T16:29:56.000Z</time>
</trkpt>
<trkpt lat="43.56658" lon="5.37414">
<ele>358.4</ele>
<time>2012-03-24T16:29:57.000Z</time>
</trkpt>
<trkpt lat="43.5666" lon="5.37406">
<ele>358.4</ele>
<time>2012-03-24T16:29:58.000Z</time>
</trkpt>
<trkpt lat="43.56663" lon="5.37398">
<ele>358.1</ele>
<time>2012-03-24T16:29:59.000Z</time>
</trkpt>
<trkpt lat="43.56664" lon="5.3739">
<ele>358.4</ele>
<time>2012-03-24T16:30:00.000Z</time>
</trkpt>
<trkpt lat="43.56666" lon="5.37381">
<ele>358</ele>
<time>2012-03-24T16:30:01.000Z</time>
</trkpt>
<trkpt lat="43.5667" lon="5.37372">
<ele>357.8</ele>
<time>2012-03-24T16:30:02.000Z</time>
</trkpt>
<trkpt lat="43.56673" lon="5.37364">
<ele>357.3</ele>
<time>2012-03-24T16:30:03.000Z</time>
</trkpt>
<trkpt lat="43.56675" lon="5.37356">
<ele>357.2</ele>
<time>2012-03-24T16:30:04.000Z</time>
</trkpt>
<trkpt lat="43.56678" lon="5.37348">
<ele>357.5</ele>
<time>2012-03-24T16:30:05.000Z</time>
</trkpt>
<trkpt lat="43.56684" lon="5.37339">
<ele>356.9</ele>
<time>2012-03-24T16:30:06.000Z</time>
</trkpt>
<trkpt lat="43.56687" lon="5.37331">
<ele>356.7</ele>
<time>2012-03-24T16:30:07.000Z</time>
</trkpt>
<trkpt lat="43.5669" lon="5.37323">
<ele>356.3</ele>
<time>2012-03-24T16:30:08.000Z</time>
</trkpt>
<trkpt lat="43.56693" lon="5.37315">
<ele>356</ele>
<time>2012-03-24T16:30:09.000Z</time>
</trkpt>
<trkpt lat="43.56696" lon="5.37308">
<ele>356.1</ele>
<time>2012-03-24T16:30:10.000Z</time>
</trkpt>
<trkpt lat="43.567" lon="5.37299">
<ele>355.7</ele>
<time>2012-03-24T16:30:11.000Z</time>
</trkpt>
<trkpt lat="43.56703" lon="5.3729">
<ele>355.7</ele>
<time>2012-03-24T16:30:12.000Z</time>
</trkpt>
<trkpt lat="43.56707" lon="5.37283">
<ele>355.7</ele>
<time>2012-03-24T16:30:13.000Z</time>
</trkpt>
<trkpt lat="43.56709" lon="5.37275">
<ele>355.8</ele>
<time>2012-03-24T16:30:14.000Z</time>
</trkpt>
<trkpt lat="43.56712" lon="5.37266">
<ele>355.4</ele>
<time>2012-03-24T16:30:15.000Z</time>
</trkpt>
<trkpt lat="43.56714" lon="5.37258">
<ele>355.2</ele>
<time>2012-03-24T16:30:16.000Z</time>
</trkpt>
<trkpt lat="43.56718" lon="5.37251">
<ele>355.2</ele>
<time>2012-03-24T16:30:17.000Z</time>
</trkpt>
<trkpt lat="43.56722" lon="5.37242">
<ele>355.1</ele>
<time>2012-03-24T16:30:18.000Z</time>
</trkpt>
<trkpt lat="43.56726" lon="5.37235">
<ele>355.4</ele>
<time>2012-03-24T16:30:19.000Z</time>
</trkpt>
<trkpt lat="43.5673" lon="5.37226">
<ele>355.5</ele>
<time>2012-03-24T16:30:20.000Z</time>
</trkpt>
<trkpt lat="43.56732" lon="5.37218">
<ele>355.3</ele>
<time>2012-03-24T16:30:21.000Z</time>
</trkpt>
<trkpt lat="43.56736" lon="5.3721">
<ele>356</ele>
<time>2012-03-24T16:30:22.000Z</time>
</trkpt>
<trkpt lat="43.5674" lon="5.37202">
<ele>356.1</ele>
<time>2012-03-24T16:30:23.000Z</time>
</trkpt>
<trkpt lat="43.56743" lon="5.37195">
<ele>356.3</ele>
<time>2012-03-24T16:30:24.000Z</time>
</trkpt>
<trkpt lat="43.56747" lon="5.37187">
<ele>356.3</ele>
<time>2012-03-24T16:30:25.000Z</time>
</trkpt>
<trkpt lat="43.5675" lon="5.37179">
<ele>356.2</ele>
<time>2012-03-24T16:30:26.000Z</time>
</trkpt>
<trkpt lat="43.56754" lon="5.37171">
<ele>356.2</ele>
<time>2012-03-24T16:30:27.000Z</time>
</trkpt>
<trkpt lat="43.56758" lon="5.37164">
<ele>356.1</ele>
<time>2012-03-24T16:30:28.000Z</time>
</trkpt>
<trkpt lat="43.56761" lon="5.37157">
<ele>355.8</ele>
<time>2012-03-24T16:30:29.000Z</time>
</trkpt>
<trkpt lat="43.56764" lon="5.37149">
<ele>355.1</ele>
<time>2012-03-24T16:30:30.000Z</time>
</trkpt>
<trkpt lat="43.56767" lon="5.3714">
<ele>355.5</ele>
<time>2012-03-24T16:30:31.000Z</time>
</trkpt>
<trkpt lat="43.56771" lon="5.37132">
<ele>355.7</ele>
<time>2012-03-24T16:30:32.000Z</time>
</trkpt>
<trkpt lat="43.56774" lon="5.37124">
<ele>355.4</ele>
<time>2012-03-24T16:30:33.000Z</time>
</trkpt>
<trkpt lat="43.56778" lon="5.37117">
<ele>355.7</ele>
<time>2012-03-24T16:30:34.000Z</time>
</trkpt>
<trkpt lat="43.5678" lon="5.37109">
<ele>356</ele>
<time>2012-03-24T16:30:35.000Z</time>
</trkpt>
<trkpt lat="43.56784" lon="5.37099">
<ele>355.7</ele>
<time>2012-03-24T16:30:36.000Z</time>
</trkpt>
<trkpt lat="43.56784" lon="5.37089">
<ele>355.6</ele>
<time>2012-03-24T16:30:37.000Z</time>
</trkpt>
<trkpt lat="43.56781" lon="5.37079">
<ele>356</ele>
<time>2012-03-24T16:30:38.000Z</time>
</trkpt>
<trkpt lat="43.56784" lon="5.37063">
<ele>356.8</ele>
<time>2012-03-24T16:30:39.000Z</time>
</trkpt>
<trkpt lat="43.56797" lon="5.37065">
<ele>354.9</ele>
<time>2012-03-24T16:30:40.000Z</time>
</trkpt>
<trkpt lat="43.56799" lon="5.37057">
<ele>355.3</ele>
<time>2012-03-24T16:30:41.000Z</time>
</trkpt>
<trkpt lat="43.56804" lon="5.37048">
<ele>355.4</ele>
<time>2012-03-24T16:30:42.000Z</time>
</trkpt>
<trkpt lat="43.56807" lon="5.37041">
<ele>355.2</ele>
<time>2012-03-24T16:30:43.000Z</time>
</trkpt>
<trkpt lat="43.5681" lon="5.37033">
<ele>355.5</ele>
<time>2012-03-24T16:30:44.000Z</time>
</trkpt>
<trkpt lat="43.56814" lon="5.37025">
<ele>355.4</ele>
<time>2012-03-24T16:30:45.000Z</time>
</trkpt>
<trkpt lat="43.56817" lon="5.37018">
<ele>355.6</ele>
<time>2012-03-24T16:30:46.000Z</time>
</trkpt>
<trkpt lat="43.5682" lon="5.37011">
<ele>355.8</ele>
<time>2012-03-24T16:30:47.000Z</time>
</trkpt>
<trkpt lat="43.56824" lon="5.37002">
<ele>355.8</ele>
<time>2012-03-24T16:30:48.000Z</time>
</trkpt>
<trkpt lat="43.56828" lon="5.36994">
<ele>355.9</ele>
<time>2012-03-24T16:30:49.000Z</time>
</trkpt>
<trkpt lat="43.56832" lon="5.36987">
<ele>355.2</ele>
<time>2012-03-24T16:30:50.000Z</time>
</trkpt>
<trkpt lat="43.56835" lon="5.3698">
<ele>355.6</ele>
<time>2012-03-24T16:30:51.000Z</time>
</trkpt>
<trkpt lat="43.56839" lon="5.36972">
<ele>355.6</ele>
<time>2012-03-24T16:30:52.000Z</time>
</trkpt>
<trkpt lat="43.56842" lon="5.36964">
<ele>355.8</ele>
<time>2012-03-24T16:30:53.000Z</time>
</trkpt>
<trkpt lat="43.56845" lon="5.36958">
<ele>355.3</ele>
<time>2012-03-24T16:30:54.000Z</time>
</trkpt>
<trkpt lat="43.56848" lon="5.36951">
<ele>355.3</ele>
<time>2012-03-24T16:30:55.000Z</time>
</trkpt>
<trkpt lat="43.56852" lon="5.36943">
<ele>355.1</ele>
<time>2012-03-24T16:30:56.000Z</time>
</trkpt>
<trkpt lat="43.56856" lon="5.36936">
<ele>355.1</ele>
<time>2012-03-24T16:30:57.000Z</time>
</trkpt>
<trkpt lat="43.5686" lon="5.36928">
<ele>354.8</ele>
<time>2012-03-24T16:30:58.000Z</time>
</trkpt>
<trkpt lat="43.56863" lon="5.3692">
<ele>354.6</ele>
<time>2012-03-24T16:30:59.000Z</time>
</trkpt>
<trkpt lat="43.56866" lon="5.36912">
<ele>354.7</ele>
<time>2012-03-24T16:31:00.000Z</time>
</trkpt>
<trkpt lat="43.5687" lon="5.36904">
<ele>354.4</ele>
<time>2012-03-24T16:31:01.000Z</time>
</trkpt>
<trkpt lat="43.56875" lon="5.36895">
<ele>354.3</ele>
<time>2012-03-24T16:31:02.000Z</time>
</trkpt>
<trkpt lat="43.56878" lon="5.36887">
<ele>354.6</ele>
<time>2012-03-24T16:31:03.000Z</time>
</trkpt>
<trkpt lat="43.56881" lon="5.36878">
<ele>355.1</ele>
<time>2012-03-24T16:31:04.000Z</time>
</trkpt>
<trkpt lat="43.56885" lon="5.36869">
<ele>355.7</ele>
<time>2012-03-24T16:31:05.000Z</time>
</trkpt>
<trkpt lat="43.56889" lon="5.36861">
<ele>355.4</ele>
<time>2012-03-24T16:31:06.000Z</time>
</trkpt>
<trkpt lat="43.56894" lon="5.36852">
<ele>354.7</ele>
<time>2012-03-24T16:31:07.000Z</time>
</trkpt>
<trkpt lat="43.56898" lon="5.36844">
<ele>354.5</ele>
<time>2012-03-24T16:31:08.000Z</time>
</trkpt>
<trkpt lat="43.56902" lon="5.36835">
<ele>354.4</ele>
<time>2012-03-24T16:31:09.000Z</time>
</trkpt>
<trkpt lat="43.56907" lon="5.36826">
<ele>354.9</ele>
<time>2012-03-24T16:31:10.000Z</time>
</trkpt>
<trkpt lat="43.56909" lon="5.36815">
<ele>355.9</ele>
<time>2012-03-24T16:31:11.000Z</time>
</trkpt>
<trkpt lat="43.5691" lon="5.36806">
<ele>356.5</ele>
<time>2012-03-24T16:31:12.000Z</time>
</trkpt>
<trkpt lat="43.56914" lon="5.36798">
<ele>356.4</ele>
<time>2012-03-24T16:31:13.000Z</time>
</trkpt>
<trkpt lat="43.56917" lon="5.36791">
<ele>356.4</ele>
<time>2012-03-24T16:31:14.000Z</time>
</trkpt>
<trkpt lat="43.5692" lon="5.36782">
<ele>356.5</ele>
<time>2012-03-24T16:31:15.000Z</time>
</trkpt>
<trkpt lat="43.56926" lon="5.36773">
<ele>355.2</ele>
<time>2012-03-24T16:31:16.000Z</time>
</trkpt>
<trkpt lat="43.5693" lon="5.36763">
<ele>355.4</ele>
<time>2012-03-24T16:31:17.000Z</time>
</trkpt>
<trkpt lat="43.56934" lon="5.36754">
<ele>355.6</ele>
<time>2012-03-24T16:31:18.000Z</time>
</trkpt>
<trkpt lat="43.56939" lon="5.36746">
<ele>355.1</ele>
<time>2012-03-24T16:31:19.000Z</time>
</trkpt>
<trkpt lat="43.56943" lon="5.36737">
<ele>354.9</ele>
<time>2012-03-24T16:31:20.000Z</time>
</trkpt>
<trkpt lat="43.56947" lon="5.36729">
<ele>354.6</ele>
<time>2012-03-24T16:31:21.000Z</time>
</trkpt>
<trkpt lat="43.56952" lon="5.36721">
<ele>354.3</ele>
<time>2012-03-24T16:31:22.000Z</time>
</trkpt>
<trkpt lat="43.56957" lon="5.36713">
<ele>353.8</ele>
<time>2012-03-24T16:31:23.000Z</time>
</trkpt>
<trkpt lat="43.56961" lon="5.36703">
<ele>353.3</ele>
<time>2012-03-24T16:31:24.000Z</time>
</trkpt>
<trkpt lat="43.56965" lon="5.36694">
<ele>353.1</ele>
<time>2012-03-24T16:31:25.000Z</time>
</trkpt>
<trkpt lat="43.56969" lon="5.36684">
<ele>352.7</ele>
<time>2012-03-24T16:31:26.000Z</time>
</trkpt>
<trkpt lat="43.56972" lon="5.36674">
<ele>353.3</ele>
<time>2012-03-24T16:31:27.000Z</time>
</trkpt>
<trkpt lat="43.56976" lon="5.36665">
<ele>353.5</ele>
<time>2012-03-24T16:31:28.000Z</time>
</trkpt>
<trkpt lat="43.5698" lon="5.36656">
<ele>353.4</ele>
<time>2012-03-24T16:31:29.000Z</time>
</trkpt>
<trkpt lat="43.56985" lon="5.36646">
<ele>353</ele>
<time>2012-03-24T16:31:30.000Z</time>
</trkpt>
<trkpt lat="43.56989" lon="5.36638">
<ele>352.5</ele>
<time>2012-03-24T16:31:31.000Z</time>
</trkpt>
<trkpt lat="43.56994" lon="5.36628">
<ele>352.5</ele>
<time>2012-03-24T16:31:32.000Z</time>
</trkpt>
<trkpt lat="43.56999" lon="5.36618">
<ele>352.7</ele>
<time>2012-03-24T16:31:33.000Z</time>
</trkpt>
<trkpt lat="43.57004" lon="5.36609">
<ele>352.7</ele>
<time>2012-03-24T16:31:34.000Z</time>
</trkpt>
<trkpt lat="43.57008" lon="5.36599">
<ele>352.7</ele>
<time>2012-03-24T16:31:35.000Z</time>
</trkpt>
<trkpt lat="43.57012" lon="5.3659">
<ele>352.6</ele>
<time>2012-03-24T16:31:36.000Z</time>
</trkpt>
<trkpt lat="43.57017" lon="5.3658">
<ele>352.5</ele>
<time>2012-03-24T16:31:37.000Z</time>
</trkpt>
<trkpt lat="43.57021" lon="5.3657">
<ele>351.9</ele>
<time>2012-03-24T16:31:38.000Z</time>
</trkpt>
<trkpt lat="43.57024" lon="5.3656">
<ele>351.4</ele>
<time>2012-03-24T16:31:39.000Z</time>
</trkpt>
<trkpt lat="43.57028" lon="5.3655">
<ele>351.8</ele>
<time>2012-03-24T16:31:40.000Z</time>
</trkpt>
<trkpt lat="43.57032" lon="5.36541">
<ele>351.8</ele>
<time>2012-03-24T16:31:41.000Z</time>
</trkpt>
<trkpt lat="43.57036" lon="5.36532">
<ele>352.1</ele>
<time>2012-03-24T16:31:42.000Z</time>
</trkpt>
<trkpt lat="43.5704" lon="5.36523">
<ele>352.5</ele>
<time>2012-03-24T16:31:43.000Z</time>
</trkpt>
<trkpt lat="43.57044" lon="5.36514">
<ele>352.9</ele>
<time>2012-03-24T16:31:44.000Z</time>
</trkpt>
<trkpt lat="43.57048" lon="5.36504">
<ele>352.8</ele>
<time>2012-03-24T16:31:45.000Z</time>
</trkpt>
<trkpt lat="43.57052" lon="5.36495">
<ele>353.5</ele>
<time>2012-03-24T16:31:46.000Z</time>
</trkpt>
<trkpt lat="43.57057" lon="5.36486">
<ele>353.4</ele>
<time>2012-03-24T16:31:47.000Z</time>
</trkpt>
<trkpt lat="43.57062" lon="5.36477">
<ele>352.9</ele>
<time>2012-03-24T16:31:48.000Z</time>
</trkpt>
<trkpt lat="43.57067" lon="5.36468">
<ele>353.1</ele>
<time>2012-03-24T16:31:49.000Z</time>
</trkpt>
<trkpt lat="43.5707" lon="5.36458">
<ele>353.4</ele>
<time>2012-03-24T16:31:50.000Z</time>
</trkpt>
<trkpt lat="43.57074" lon="5.36449">
<ele>353.8</ele>
<time>2012-03-24T16:31:51.000Z</time>
</trkpt>
<trkpt lat="43.57078" lon="5.3644">
<ele>353.8</ele>
<time>2012-03-24T16:31:52.000Z</time>
</trkpt>
<trkpt lat="43.57082" lon="5.36431">
<ele>353.8</ele>
<time>2012-03-24T16:31:53.000Z</time>
</trkpt>
<trkpt lat="43.57086" lon="5.36421">
<ele>353.6</ele>
<time>2012-03-24T16:31:54.000Z</time>
</trkpt>
<trkpt lat="43.5709" lon="5.36412">
<ele>353.9</ele>
<time>2012-03-24T16:31:55.000Z</time>
</trkpt>
<trkpt lat="43.57093" lon="5.36404">
<ele>353.9</ele>
<time>2012-03-24T16:31:56.000Z</time>
</trkpt>
<trkpt lat="43.57095" lon="5.36394">
<ele>353.7</ele>
<time>2012-03-24T16:31:57.000Z</time>
</trkpt>
<trkpt lat="43.57096" lon="5.36386">
<ele>353.9</ele>
<time>2012-03-24T16:31:58.000Z</time>
</trkpt>
<trkpt lat="43.57098" lon="5.36376">
<ele>353.6</ele>
<time>2012-03-24T16:31:59.000Z</time>
</trkpt>
<trkpt lat="43.571" lon="5.36366">
<ele>353.9</ele>
<time>2012-03-24T16:32:00.000Z</time>
</trkpt>
<trkpt lat="43.57103" lon="5.36356">
<ele>353.7</ele>
<time>2012-03-24T16:32:01.000Z</time>
</trkpt>
<trkpt lat="43.57107" lon="5.36347">
<ele>353.6</ele>
<time>2012-03-24T16:32:02.000Z</time>
</trkpt>
<trkpt lat="43.5711" lon="5.36338">
<ele>353</ele>
<time>2012-03-24T16:32:03.000Z</time>
</trkpt>
<trkpt lat="43.57112" lon="5.36327">
<ele>353.1</ele>
<time>2012-03-24T16:32:04.000Z</time>
</trkpt>
<trkpt lat="43.57115" lon="5.36318">
<ele>353.3</ele>
<time>2012-03-24T16:32:05.000Z</time>
</trkpt>
<trkpt lat="43.57117" lon="5.36309">
<ele>353.5</ele>
<time>2012-03-24T16:32:06.000Z</time>
</trkpt>
<trkpt lat="43.5712" lon="5.36299">
<ele>353.5</ele>
<time>2012-03-24T16:32:07.000Z</time>
</trkpt>
<trkpt lat="43.57122" lon="5.36288">
<ele>353.2</ele>
<time>2012-03-24T16:32:08.000Z</time>
</trkpt>
<trkpt lat="43.57124" lon="5.36278">
<ele>353.4</ele>
<time>2012-03-24T16:32:09.000Z</time>
</trkpt>
<trkpt lat="43.57126" lon="5.36267">
<ele>353.8</ele>
<time>2012-03-24T16:32:10.000Z</time>
</trkpt>
<trkpt lat="43.57129" lon="5.36258">
<ele>353.5</ele>
<time>2012-03-24T16:32:11.000Z</time>
</trkpt>
<trkpt lat="43.57132" lon="5.36247">
<ele>353.6</ele>
<time>2012-03-24T16:32:12.000Z</time>
</trkpt>
<trkpt lat="43.57134" lon="5.36238">
<ele>353.4</ele>
<time>2012-03-24T16:32:13.000Z</time>
</trkpt>
<trkpt lat="43.57137" lon="5.36228">
<ele>353.5</ele>
<time>2012-03-24T16:32:14.000Z</time>
</trkpt>
<trkpt lat="43.5714" lon="5.36218">
<ele>353.6</ele>
<time>2012-03-24T16:32:15.000Z</time>
</trkpt>
<trkpt lat="43.57142" lon="5.36211">
<ele>353.4</ele>
<time>2012-03-24T16:32:16.000Z</time>
</trkpt>
<trkpt lat="43.57144" lon="5.362">
<ele>352.9</ele>
<time>2012-03-24T16:32:17.000Z</time>
</trkpt>
<trkpt lat="43.57146" lon="5.3619">
<ele>352.6</ele>
<time>2012-03-24T16:32:18.000Z</time>
</trkpt>
<trkpt lat="43.57147" lon="5.3618">
<ele>352.4</ele>
<time>2012-03-24T16:32:19.000Z</time>
</trkpt>
<trkpt lat="43.5715" lon="5.3617">
<ele>352.4</ele>
<time>2012-03-24T16:32:20.000Z</time>
</trkpt>
<trkpt lat="43.57152" lon="5.36161">
<ele>352.1</ele>
<time>2012-03-24T16:32:21.000Z</time>
</trkpt>
<trkpt lat="43.57155" lon="5.36152">
<ele>352.1</ele>
<time>2012-03-24T16:32:22.000Z</time>
</trkpt>
<trkpt lat="43.57158" lon="5.36142">
<ele>351.9</ele>
<time>2012-03-24T16:32:23.000Z</time>
</trkpt>
<trkpt lat="43.57159" lon="5.36133">
<ele>352.5</ele>
<time>2012-03-24T16:32:24.000Z</time>
</trkpt>
<trkpt lat="43.5716" lon="5.36123">
<ele>352.5</ele>
<time>2012-03-24T16:32:25.000Z</time>
</trkpt>
<trkpt lat="43.57162" lon="5.36113">
<ele>353</ele>
<time>2012-03-24T16:32:26.000Z</time>
</trkpt>
<trkpt lat="43.57165" lon="5.36103">
<ele>352.3</ele>
<time>2012-03-24T16:32:27.000Z</time>
</trkpt>
<trkpt lat="43.57167" lon="5.36094">
<ele>352.2</ele>
<time>2012-03-24T16:32:28.000Z</time>
</trkpt>
<trkpt lat="43.57167" lon="5.36085">
<ele>352.5</ele>
<time>2012-03-24T16:32:29.000Z</time>
</trkpt>
<trkpt lat="43.57169" lon="5.36077">
<ele>352.5</ele>
<time>2012-03-24T16:32:30.000Z</time>
</trkpt>
<trkpt lat="43.5717" lon="5.3607">
<ele>352.6</ele>
<time>2012-03-24T16:32:31.000Z</time>
</trkpt>
<trkpt lat="43.57172" lon="5.36063">
<ele>352.3</ele>
<time>2012-03-24T16:32:32.000Z</time>
</trkpt>
<trkpt lat="43.57174" lon="5.36055">
<ele>352.2</ele>
<time>2012-03-24T16:32:33.000Z</time>
</trkpt>
<trkpt lat="43.57174" lon="5.36047">
<ele>351.8</ele>
<time>2012-03-24T16:32:34.000Z</time>
</trkpt>
<trkpt lat="43.57171" lon="5.36039">
<ele>351.5</ele>
<time>2012-03-24T16:32:35.000Z</time>
</trkpt>
<trkpt lat="43.57169" lon="5.36032">
<ele>351.4</ele>
<time>2012-03-24T16:32:36.000Z</time>
</trkpt>
<trkpt lat="43.57164" lon="5.36024">
<ele>351.5</ele>
<time>2012-03-24T16:32:37.000Z</time>
</trkpt>
<trkpt lat="43.5716" lon="5.36014">
<ele>351.6</ele>
<time>2012-03-24T16:32:38.000Z</time>
</trkpt>
<trkpt lat="43.57157" lon="5.36005">
<ele>351.4</ele>
<time>2012-03-24T16:32:39.000Z</time>
</trkpt>
<trkpt lat="43.57154" lon="5.35998">
<ele>350.7</ele>
<time>2012-03-24T16:32:40.000Z</time>
</trkpt>
<trkpt lat="43.57151" lon="5.35988">
<ele>350.5</ele>
<time>2012-03-24T16:32:41.000Z</time>
</trkpt>
<trkpt lat="43.57148" lon="5.3598">
<ele>350.1</ele>
<time>2012-03-24T16:32:42.000Z</time>
</trkpt>
<trkpt lat="43.57145" lon="5.35969">
<ele>349.5</ele>
<time>2012-03-24T16:32:43.000Z</time>
</trkpt>
<trkpt lat="43.57142" lon="5.35958">
<ele>349</ele>
<time>2012-03-24T16:32:44.000Z</time>
</trkpt>
<trkpt lat="43.5714" lon="5.35947">
<ele>348.4</ele>
<time>2012-03-24T16:32:45.000Z</time>
</trkpt>
<trkpt lat="43.57136" lon="5.35937">
<ele>347.3</ele>
<time>2012-03-24T16:32:46.000Z</time>
</trkpt>
<trkpt lat="43.57132" lon="5.35924">
<ele>346.1</ele>
<time>2012-03-24T16:32:47.000Z</time>
</trkpt>
<trkpt lat="43.57128" lon="5.35914">
<ele>346</ele>
<time>2012-03-24T16:32:48.000Z</time>
</trkpt>
<trkpt lat="43.57124" lon="5.35902">
<ele>345.4</ele>
<time>2012-03-24T16:32:49.000Z</time>
</trkpt>
<trkpt lat="43.5712" lon="5.35891">
<ele>343.4</ele>
<time>2012-03-24T16:32:50.000Z</time>
</trkpt>
<trkpt lat="43.57116" lon="5.3588">
<ele>342.4</ele>
<time>2012-03-24T16:32:51.000Z</time>
</trkpt>
<trkpt lat="43.57112" lon="5.35868">
<ele>341.9</ele>
<time>2012-03-24T16:32:52.000Z</time>
</trkpt>
<trkpt lat="43.57107" lon="5.35856">
<ele>341.6</ele>
<time>2012-03-24T16:32:53.000Z</time>
</trkpt>
<trkpt lat="43.57103" lon="5.35844">
<ele>340.9</ele>
<time>2012-03-24T16:32:54.000Z</time>
</trkpt>
<trkpt lat="43.571" lon="5.35832">
<ele>340.5</ele>
<time>2012-03-24T16:32:55.000Z</time>
</trkpt>
<trkpt lat="43.57095" lon="5.3582">
<ele>340</ele>
<time>2012-03-24T16:32:56.000Z</time>
</trkpt>
<trkpt lat="43.57092" lon="5.35811">
<ele>339.8</ele>
<time>2012-03-24T16:32:57.000Z</time>
</trkpt>
<trkpt lat="43.5709" lon="5.35802">
<ele>338.9</ele>
<time>2012-03-24T16:32:58.000Z</time>
</trkpt>
<trkpt lat="43.57087" lon="5.35796">
<ele>338.7</ele>
<time>2012-03-24T16:32:59.000Z</time>
</trkpt>
<trkpt lat="43.57084" lon="5.35788">
<ele>338.7</ele>
<time>2012-03-24T16:33:00.000Z</time>
</trkpt>
<trkpt lat="43.57082" lon="5.35781">
<ele>338.5</ele>
<time>2012-03-24T16:33:01.000Z</time>
</trkpt>
<trkpt lat="43.5708" lon="5.35773">
<ele>338.5</ele>
<time>2012-03-24T16:33:02.000Z</time>
</trkpt>
<trkpt lat="43.57077" lon="5.35765">
<ele>338</ele>
<time>2012-03-24T16:33:03.000Z</time>
</trkpt>
<trkpt lat="43.57075" lon="5.35758">
<ele>337.5</ele>
<time>2012-03-24T16:33:04.000Z</time>
</trkpt>
<trkpt lat="43.57072" lon="5.3575">
<ele>337.3</ele>
<time>2012-03-24T16:33:05.000Z</time>
</trkpt>
<trkpt lat="43.57068" lon="5.35742">
<ele>337</ele>
<time>2012-03-24T16:33:06.000Z</time>
</trkpt>
<trkpt lat="43.57065" lon="5.35734">
<ele>337.1</ele>
<time>2012-03-24T16:33:07.000Z</time>
</trkpt>
<trkpt lat="43.57061" lon="5.35726">
<ele>337.3</ele>
<time>2012-03-24T16:33:08.000Z</time>
</trkpt>
<trkpt lat="43.57059" lon="5.35717">
<ele>337.4</ele>
<time>2012-03-24T16:33:09.000Z</time>
</trkpt>
<trkpt lat="43.57056" lon="5.35708">
<ele>337.2</ele>
<time>2012-03-24T16:33:10.000Z</time>
</trkpt>
<trkpt lat="43.57053" lon="5.35698">
<ele>337.4</ele>
<time>2012-03-24T16:33:11.000Z</time>
</trkpt>
<trkpt lat="43.57051" lon="5.35688">
<ele>337.6</ele>
<time>2012-03-24T16:33:12.000Z</time>
</trkpt>
<trkpt lat="43.5705" lon="5.35679">
<ele>337.7</ele>
<time>2012-03-24T16:33:13.000Z</time>
</trkpt>
<trkpt lat="43.57049" lon="5.35667">
<ele>337.7</ele>
<time>2012-03-24T16:33:14.000Z</time>
</trkpt>
<trkpt lat="43.57047" lon="5.35656">
<ele>337.6</ele>
<time>2012-03-24T16:33:15.000Z</time>
</trkpt>
<trkpt lat="43.57048" lon="5.35644">
<ele>337.5</ele>
<time>2012-03-24T16:33:16.000Z</time>
</trkpt>
<trkpt lat="43.57049" lon="5.35632">
<ele>337.4</ele>
<time>2012-03-24T16:33:17.000Z</time>
</trkpt>
<trkpt lat="43.5705" lon="5.35621">
<ele>337.4</ele>
<time>2012-03-24T16:33:18.000Z</time>
</trkpt>
<trkpt lat="43.57051" lon="5.35609">
<ele>337.5</ele>
<time>2012-03-24T16:33:19.000Z</time>
</trkpt>
<trkpt lat="43.57052" lon="5.35597">
<ele>337.3</ele>
<time>2012-03-24T16:33:20.000Z</time>
</trkpt>
<trkpt lat="43.57054" lon="5.35586">
<ele>337.3</ele>
<time>2012-03-24T16:33:21.000Z</time>
</trkpt>
<trkpt lat="43.57054" lon="5.35574">
<ele>337.3</ele>
<time>2012-03-24T16:33:22.000Z</time>
</trkpt>
<trkpt lat="43.57057" lon="5.35564">
<ele>337.1</ele>
<time>2012-03-24T16:33:23.000Z</time>
</trkpt>
<trkpt lat="43.5706" lon="5.35555">
<ele>337.6</ele>
<time>2012-03-24T16:33:24.000Z</time>
</trkpt>
<trkpt lat="43.57062" lon="5.35543">
<ele>337.9</ele>
<time>2012-03-24T16:33:25.000Z</time>
</trkpt>
<trkpt lat="43.57065" lon="5.35533">
<ele>337.8</ele>
<time>2012-03-24T16:33:26.000Z</time>
</trkpt>
<trkpt lat="43.57068" lon="5.35523">
<ele>337.9</ele>
<time>2012-03-24T16:33:27.000Z</time>
</trkpt>
<trkpt lat="43.57069" lon="5.35514">
<ele>337.9</ele>
<time>2012-03-24T16:33:28.000Z</time>
</trkpt>
<trkpt lat="43.5707" lon="5.35504">
<ele>337.7</ele>
<time>2012-03-24T16:33:29.000Z</time>
</trkpt>
<trkpt lat="43.57071" lon="5.35497">
<ele>337.9</ele>
<time>2012-03-24T16:33:30.000Z</time>
</trkpt>
<trkpt lat="43.57072" lon="5.35489">
<ele>337.8</ele>
<time>2012-03-24T16:33:31.000Z</time>
</trkpt>
<trkpt lat="43.57074" lon="5.35481">
<ele>337.9</ele>
<time>2012-03-24T16:33:32.000Z</time>
</trkpt>
<trkpt lat="43.57077" lon="5.35474">
<ele>337.8</ele>
<time>2012-03-24T16:33:33.000Z</time>
</trkpt>
<trkpt lat="43.57082" lon="5.35467">
<ele>337.8</ele>
<time>2012-03-24T16:33:34.000Z</time>
</trkpt>
<trkpt lat="43.57085" lon="5.35461">
<ele>338</ele>
<time>2012-03-24T16:33:35.000Z</time>
</trkpt>
<trkpt lat="43.57088" lon="5.35454">
<ele>338.2</ele>
<time>2012-03-24T16:33:36.000Z</time>
</trkpt>
<trkpt lat="43.5709" lon="5.35448">
<ele>338.2</ele>
<time>2012-03-24T16:33:37.000Z</time>
</trkpt>
<trkpt lat="43.57092" lon="5.35441">
<ele>338.4</ele>
<time>2012-03-24T16:33:38.000Z</time>
</trkpt>
<trkpt lat="43.57092" lon="5.35433">
<ele>338.5</ele>
<time>2012-03-24T16:33:40.000Z</time>
</trkpt>
<trkpt lat="43.57095" lon="5.35425">
<ele>338</ele>
<time>2012-03-24T16:33:43.000Z</time>
</trkpt>
<trkpt lat="43.57097" lon="5.35414">
<ele>338.1</ele>
<time>2012-03-24T16:33:45.000Z</time>
</trkpt>
<trkpt lat="43.57101" lon="5.35408">
<ele>338.5</ele>
<time>2012-03-24T16:33:46.000Z</time>
</trkpt>
<trkpt lat="43.57104" lon="5.35401">
<ele>338.4</ele>
<time>2012-03-24T16:33:47.000Z</time>
</trkpt>
<trkpt lat="43.57105" lon="5.35393">
<ele>338.2</ele>
<time>2012-03-24T16:33:48.000Z</time>
</trkpt>
<trkpt lat="43.57107" lon="5.35386">
<ele>337.8</ele>
<time>2012-03-24T16:33:49.000Z</time>
</trkpt>
<trkpt lat="43.57108" lon="5.35378">
<ele>337.4</ele>
<time>2012-03-24T16:33:50.000Z</time>
</trkpt>
<trkpt lat="43.57108" lon="5.3537">
<ele>337.6</ele>
<time>2012-03-24T16:33:51.000Z</time>
</trkpt>
<trkpt lat="43.57109" lon="5.35363">
<ele>337.5</ele>
<time>2012-03-24T16:33:52.000Z</time>
</trkpt>
<trkpt lat="43.5711" lon="5.35357">
<ele>337.5</ele>
<time>2012-03-24T16:33:53.000Z</time>
</trkpt>
<trkpt lat="43.57112" lon="5.35348">
<ele>337.1</ele>
<time>2012-03-24T16:33:54.000Z</time>
</trkpt>
<trkpt lat="43.57112" lon="5.35341">
<ele>337.1</ele>
<time>2012-03-24T16:33:55.000Z</time>
</trkpt>
<trkpt lat="43.57114" lon="5.35334">
<ele>337.2</ele>
<time>2012-03-24T16:33:56.000Z</time>
</trkpt>
<trkpt lat="43.57116" lon="5.35326">
<ele>337.1</ele>
<time>2012-03-24T16:33:57.000Z</time>
</trkpt>
<trkpt lat="43.57119" lon="5.35319">
<ele>337.1</ele>
<time>2012-03-24T16:33:58.000Z</time>
</trkpt>
<trkpt lat="43.57122" lon="5.35312">
<ele>337.4</ele>
<time>2012-03-24T16:33:59.000Z</time>
</trkpt>
<trkpt lat="43.57122" lon="5.35304">
<ele>338.3</ele>
<time>2012-03-24T16:34:00.000Z</time>
</trkpt>
<trkpt lat="43.57125" lon="5.35297">
<ele>338.4</ele>
<time>2012-03-24T16:34:01.000Z</time>
</trkpt>
<trkpt lat="43.57128" lon="5.35291">
<ele>338.3</ele>
<time>2012-03-24T16:34:02.000Z</time>
</trkpt>
<trkpt lat="43.57135" lon="5.35284">
<ele>338.1</ele>
<time>2012-03-24T16:34:03.000Z</time>
</trkpt>
<trkpt lat="43.57139" lon="5.35276">
<ele>337.8</ele>
<time>2012-03-24T16:34:04.000Z</time>
</trkpt>
<trkpt lat="43.57143" lon="5.3527">
<ele>337.1</ele>
<time>2012-03-24T16:34:05.000Z</time>
</trkpt>
<trkpt lat="43.57147" lon="5.35263">
<ele>336.9</ele>
<time>2012-03-24T16:34:06.000Z</time>
</trkpt>
<trkpt lat="43.57152" lon="5.35256">
<ele>337</ele>
<time>2012-03-24T16:34:07.000Z</time>
</trkpt>
<trkpt lat="43.57156" lon="5.3525">
<ele>337</ele>
<time>2012-03-24T16:34:08.000Z</time>
</trkpt>
<trkpt lat="43.57161" lon="5.35244">
<ele>336.9</ele>
<time>2012-03-24T16:34:09.000Z</time>
</trkpt>
<trkpt lat="43.57166" lon="5.35236">
<ele>337</ele>
<time>2012-03-24T16:34:10.000Z</time>
</trkpt>
<trkpt lat="43.57172" lon="5.3523">
<ele>337.2</ele>
<time>2012-03-24T16:34:11.000Z</time>
</trkpt>
<trkpt lat="43.57176" lon="5.35222">
<ele>337.1</ele>
<time>2012-03-24T16:34:12.000Z</time>
</trkpt>
<trkpt lat="43.57181" lon="5.35215">
<ele>336.7</ele>
<time>2012-03-24T16:34:13.000Z</time>
</trkpt>
<trkpt lat="43.57185" lon="5.35208">
<ele>336.8</ele>
<time>2012-03-24T16:34:14.000Z</time>
</trkpt>
<trkpt lat="43.5719" lon="5.35199">
<ele>337</ele>
<time>2012-03-24T16:34:15.000Z</time>
</trkpt>
<trkpt lat="43.57194" lon="5.35191">
<ele>337.3</ele>
<time>2012-03-24T16:34:16.000Z</time>
</trkpt>
<trkpt lat="43.57198" lon="5.35184">
<ele>337.6</ele>
<time>2012-03-24T16:34:17.000Z</time>
</trkpt>
<trkpt lat="43.57204" lon="5.35176">
<ele>337.6</ele>
<time>2012-03-24T16:34:18.000Z</time>
</trkpt>
<trkpt lat="43.57209" lon="5.35169">
<ele>337.9</ele>
<time>2012-03-24T16:34:19.000Z</time>
</trkpt>
<trkpt lat="43.57214" lon="5.35162">
<ele>338.1</ele>
<time>2012-03-24T16:34:20.000Z</time>
</trkpt>
<trkpt lat="43.57218" lon="5.35157">
<ele>338.1</ele>
<time>2012-03-24T16:34:21.000Z</time>
</trkpt>
<trkpt lat="43.57223" lon="5.3515">
<ele>337.5</ele>
<time>2012-03-24T16:34:23.000Z</time>
</trkpt>
<trkpt lat="43.57228" lon="5.35144">
<ele>336.8</ele>
<time>2012-03-24T16:34:27.000Z</time>
</trkpt>
<trkpt lat="43.57231" lon="5.35136">
<ele>336.6</ele>
<time>2012-03-24T16:34:30.000Z</time>
</trkpt>
<trkpt lat="43.57236" lon="5.35127">
<ele>336.4</ele>
<time>2012-03-24T16:34:32.000Z</time>
</trkpt>
<trkpt lat="43.5724" lon="5.35122">
<ele>336.4</ele>
<time>2012-03-24T16:34:33.000Z</time>
</trkpt>
<trkpt lat="43.57244" lon="5.35117">
<ele>336</ele>
<time>2012-03-24T16:34:34.000Z</time>
</trkpt>
<trkpt lat="43.57248" lon="5.3511">
<ele>335.9</ele>
<time>2012-03-24T16:34:35.000Z</time>
</trkpt>
<trkpt lat="43.57253" lon="5.35102">
<ele>335.6</ele>
<time>2012-03-24T16:34:36.000Z</time>
</trkpt>
<trkpt lat="43.57258" lon="5.35095">
<ele>335</ele>
<time>2012-03-24T16:34:37.000Z</time>
</trkpt>
<trkpt lat="43.57262" lon="5.35085">
<ele>335</ele>
<time>2012-03-24T16:34:38.000Z</time>
</trkpt>
<trkpt lat="43.57268" lon="5.35074">
<ele>335.1</ele>
<time>2012-03-24T16:34:39.000Z</time>
</trkpt>
<trkpt lat="43.57275" lon="5.35063">
<ele>334.4</ele>
<time>2012-03-24T16:34:40.000Z</time>
</trkpt>
<trkpt lat="43.57279" lon="5.35051">
<ele>333.7</ele>
<time>2012-03-24T16:34:41.000Z</time>
</trkpt>
<trkpt lat="43.57287" lon="5.35038">
<ele>333.3</ele>
<time>2012-03-24T16:34:42.000Z</time>
</trkpt>
<trkpt lat="43.57293" lon="5.35027">
<ele>332.4</ele>
<time>2012-03-24T16:34:43.000Z</time>
</trkpt>
<trkpt lat="43.57299" lon="5.35016">
<ele>332.3</ele>
<time>2012-03-24T16:34:44.000Z</time>
</trkpt>
<trkpt lat="43.57307" lon="5.35005">
<ele>332.4</ele>
<time>2012-03-24T16:34:45.000Z</time>
</trkpt>
<trkpt lat="43.57315" lon="5.34993">
<ele>332</ele>
<time>2012-03-24T16:34:46.000Z</time>
</trkpt>
<trkpt lat="43.57322" lon="5.34979">
<ele>331.8</ele>
<time>2012-03-24T16:34:47.000Z</time>
</trkpt>
<trkpt lat="43.57328" lon="5.34966">
<ele>331.7</ele>
<time>2012-03-24T16:34:48.000Z</time>
</trkpt>
<trkpt lat="43.57334" lon="5.34953">
<ele>331.2</ele>
<time>2012-03-24T16:34:49.000Z</time>
</trkpt>
<trkpt lat="43.57342" lon="5.3494">
<ele>330.9</ele>
<time>2012-03-24T16:34:50.000Z</time>
</trkpt>
<trkpt lat="43.5735" lon="5.34927">
<ele>331</ele>
<time>2012-03-24T16:34:51.000Z</time>
</trkpt>
<trkpt lat="43.57358" lon="5.34914">
<ele>330.8</ele>
<time>2012-03-24T16:34:52.000Z</time>
</trkpt>
<trkpt lat="43.57368" lon="5.34901">
<ele>330.3</ele>
<time>2012-03-24T16:34:53.000Z</time>
</trkpt>
<trkpt lat="43.57375" lon="5.34888">
<ele>329.7</ele>
<time>2012-03-24T16:34:54.000Z</time>
</trkpt>
<trkpt lat="43.57383" lon="5.34874">
<ele>328.7</ele>
<time>2012-03-24T16:34:55.000Z</time>
</trkpt>
<trkpt lat="43.57389" lon="5.34859">
<ele>327.9</ele>
<time>2012-03-24T16:34:56.000Z</time>
</trkpt>
<trkpt lat="43.57398" lon="5.34845">
<ele>326.5</ele>
<time>2012-03-24T16:34:57.000Z</time>
</trkpt>
<trkpt lat="43.57406" lon="5.34834">
<ele>325.8</ele>
<time>2012-03-24T16:34:58.000Z</time>
</trkpt>
<trkpt lat="43.57414" lon="5.34822">
<ele>325.6</ele>
<time>2012-03-24T16:34:59.000Z</time>
</trkpt>
<trkpt lat="43.57422" lon="5.3481">
<ele>324.8</ele>
<time>2012-03-24T16:35:00.000Z</time>
</trkpt>
<trkpt lat="43.57428" lon="5.34799">
<ele>323.4</ele>
<time>2012-03-24T16:35:01.000Z</time>
</trkpt>
<trkpt lat="43.57434" lon="5.34789">
<ele>321.8</ele>
<time>2012-03-24T16:35:02.000Z</time>
</trkpt>
<trkpt lat="43.57441" lon="5.34781">
<ele>321.1</ele>
<time>2012-03-24T16:35:03.000Z</time>
</trkpt>
<trkpt lat="43.57447" lon="5.34773">
<ele>320.5</ele>
<time>2012-03-24T16:35:04.000Z</time>
</trkpt>
<trkpt lat="43.57452" lon="5.34766">
<ele>320.4</ele>
<time>2012-03-24T16:35:05.000Z</time>
</trkpt>
<trkpt lat="43.57457" lon="5.3476">
<ele>319.9</ele>
<time>2012-03-24T16:35:06.000Z</time>
</trkpt>
<trkpt lat="43.5746" lon="5.34753">
<ele>319.6</ele>
<time>2012-03-24T16:35:07.000Z</time>
</trkpt>
<trkpt lat="43.57459" lon="5.3474">
<ele>318.9</ele>
<time>2012-03-24T16:35:09.000Z</time>
</trkpt>
<trkpt lat="43.57458" lon="5.34734">
<ele>317.8</ele>
<time>2012-03-24T16:35:10.000Z</time>
</trkpt>
<trkpt lat="43.57455" lon="5.34721">
<ele>316.6</ele>
<time>2012-03-24T16:35:12.000Z</time>
</trkpt>
<trkpt lat="43.57454" lon="5.34714">
<ele>316.7</ele>
<time>2012-03-24T16:35:13.000Z</time>
</trkpt>
<trkpt lat="43.57452" lon="5.34708">
<ele>316.4</ele>
<time>2012-03-24T16:35:14.000Z</time>
</trkpt>
<trkpt lat="43.57448" lon="5.34703">
<ele>316.1</ele>
<time>2012-03-24T16:35:15.000Z</time>
</trkpt>
<trkpt lat="43.57444" lon="5.34697">
<ele>315.9</ele>
<time>2012-03-24T16:35:16.000Z</time>
</trkpt>
<trkpt lat="43.57439" lon="5.3469">
<ele>316.3</ele>
<time>2012-03-24T16:35:17.000Z</time>
</trkpt>
<trkpt lat="43.57437" lon="5.34682">
<ele>316.2</ele>
<time>2012-03-24T16:35:18.000Z</time>
</trkpt>
<trkpt lat="43.57437" lon="5.34673">
<ele>314.9</ele>
<time>2012-03-24T16:35:19.000Z</time>
</trkpt>
<trkpt lat="43.57435" lon="5.34666">
<ele>314.7</ele>
<time>2012-03-24T16:35:20.000Z</time>
</trkpt>
<trkpt lat="43.57433" lon="5.34658">
<ele>314.3</ele>
<time>2012-03-24T16:35:21.000Z</time>
</trkpt>
<trkpt lat="43.5743" lon="5.34652">
<ele>314</ele>
<time>2012-03-24T16:35:22.000Z</time>
</trkpt>
<trkpt lat="43.57428" lon="5.34644">
<ele>314.1</ele>
<time>2012-03-24T16:35:23.000Z</time>
</trkpt>
<trkpt lat="43.57426" lon="5.34636">
<ele>314.1</ele>
<time>2012-03-24T16:35:24.000Z</time>
</trkpt>
<trkpt lat="43.57423" lon="5.34628">
<ele>314</ele>
<time>2012-03-24T16:35:25.000Z</time>
</trkpt>
<trkpt lat="43.5742" lon="5.3462">
<ele>314.1</ele>
<time>2012-03-24T16:35:26.000Z</time>
</trkpt>
<trkpt lat="43.57415" lon="5.34616">
<ele>315</ele>
<time>2012-03-24T16:35:27.000Z</time>
</trkpt>
<trkpt lat="43.57412" lon="5.34607">
<ele>314.3</ele>
<time>2012-03-24T16:35:28.000Z</time>
</trkpt>
<trkpt lat="43.57408" lon="5.34602">
<ele>313.9</ele>
<time>2012-03-24T16:35:29.000Z</time>
</trkpt>
<trkpt lat="43.57403" lon="5.34594">
<ele>313.7</ele>
<time>2012-03-24T16:35:30.000Z</time>
</trkpt>
<trkpt lat="43.57398" lon="5.34587">
<ele>313.2</ele>
<time>2012-03-24T16:35:31.000Z</time>
</trkpt>
<trkpt lat="43.57393" lon="5.3458">
<ele>313.2</ele>
<time>2012-03-24T16:35:32.000Z</time>
</trkpt>
<trkpt lat="43.57388" lon="5.34574">
<ele>313.1</ele>
<time>2012-03-24T16:35:33.000Z</time>
</trkpt>
<trkpt lat="43.57384" lon="5.34566">
<ele>312.7</ele>
<time>2012-03-24T16:35:34.000Z</time>
</trkpt>
<trkpt lat="43.5738" lon="5.34559">
<ele>311.5</ele>
<time>2012-03-24T16:35:35.000Z</time>
</trkpt>
<trkpt lat="43.57376" lon="5.34553">
<ele>312.2</ele>
<time>2012-03-24T16:35:36.000Z</time>
</trkpt>
<trkpt lat="43.57372" lon="5.34547">
<ele>311.5</ele>
<time>2012-03-24T16:35:37.000Z</time>
</trkpt>
<trkpt lat="43.57368" lon="5.3454">
<ele>311.1</ele>
<time>2012-03-24T16:35:38.000Z</time>
</trkpt>
<trkpt lat="43.57365" lon="5.34534">
<ele>310.8</ele>
<time>2012-03-24T16:35:39.000Z</time>
</trkpt>
<trkpt lat="43.57361" lon="5.34527">
<ele>310.4</ele>
<time>2012-03-24T16:35:40.000Z</time>
</trkpt>
<trkpt lat="43.57357" lon="5.3452">
<ele>310.3</ele>
<time>2012-03-24T16:35:41.000Z</time>
</trkpt>
<trkpt lat="43.57353" lon="5.34514">
<ele>309.8</ele>
<time>2012-03-24T16:35:42.000Z</time>
</trkpt>
<trkpt lat="43.57349" lon="5.34508">
<ele>309.4</ele>
<time>2012-03-24T16:35:43.000Z</time>
</trkpt>
<trkpt lat="43.57344" lon="5.34503">
<ele>308.9</ele>
<time>2012-03-24T16:35:44.000Z</time>
</trkpt>
<trkpt lat="43.57339" lon="5.34498">
<ele>308.4</ele>
<time>2012-03-24T16:35:45.000Z</time>
</trkpt>
<trkpt lat="43.57333" lon="5.34492">
<ele>307.9</ele>
<time>2012-03-24T16:35:46.000Z</time>
</trkpt>
<trkpt lat="43.57328" lon="5.34488">
<ele>308</ele>
<time>2012-03-24T16:35:47.000Z</time>
</trkpt>
<trkpt lat="43.57321" lon="5.34483">
<ele>307.9</ele>
<time>2012-03-24T16:35:48.000Z</time>
</trkpt>
<trkpt lat="43.57316" lon="5.34478">
<ele>307.7</ele>
<time>2012-03-24T16:35:49.000Z</time>
</trkpt>
<trkpt lat="43.57311" lon="5.34473">
<ele>307.6</ele>
<time>2012-03-24T16:35:50.000Z</time>
</trkpt>
<trkpt lat="43.57305" lon="5.34468">
<ele>307.8</ele>
<time>2012-03-24T16:35:51.000Z</time>
</trkpt>
<trkpt lat="43.57301" lon="5.34462">
<ele>307.8</ele>
<time>2012-03-24T16:35:52.000Z</time>
</trkpt>
<trkpt lat="43.57296" lon="5.34456">
<ele>308</ele>
<time>2012-03-24T16:35:53.000Z</time>
</trkpt>
<trkpt lat="43.57292" lon="5.34448">
<ele>308.2</ele>
<time>2012-03-24T16:35:54.000Z</time>
</trkpt>
<trkpt lat="43.57288" lon="5.34441">
<ele>308.2</ele>
<time>2012-03-24T16:35:55.000Z</time>
</trkpt>
<trkpt lat="43.57284" lon="5.34434">
<ele>307.9</ele>
<time>2012-03-24T16:35:56.000Z</time>
</trkpt>
<trkpt lat="43.5728" lon="5.34426">
<ele>307.6</ele>
<time>2012-03-24T16:35:57.000Z</time>
</trkpt>
<trkpt lat="43.57277" lon="5.34418">
<ele>307.3</ele>
<time>2012-03-24T16:35:58.000Z</time>
</trkpt>
<trkpt lat="43.57272" lon="5.3441">
<ele>307.1</ele>
<time>2012-03-24T16:35:59.000Z</time>
</trkpt>
<trkpt lat="43.57269" lon="5.34403">
<ele>307.2</ele>
<time>2012-03-24T16:36:00.000Z</time>
</trkpt>
<trkpt lat="43.57265" lon="5.34397">
<ele>307.3</ele>
<time>2012-03-24T16:36:01.000Z</time>
</trkpt>
<trkpt lat="43.57261" lon="5.34389">
<ele>308</ele>
<time>2012-03-24T16:36:02.000Z</time>
</trkpt>
<trkpt lat="43.57256" lon="5.3438">
<ele>307.7</ele>
<time>2012-03-24T16:36:03.000Z</time>
</trkpt>
<trkpt lat="43.57251" lon="5.34371">
<ele>307.8</ele>
<time>2012-03-24T16:36:04.000Z</time>
</trkpt>
<trkpt lat="43.57246" lon="5.34363">
<ele>307.3</ele>
<time>2012-03-24T16:36:05.000Z</time>
</trkpt>
<trkpt lat="43.57241" lon="5.34356">
<ele>307</ele>
<time>2012-03-24T16:36:06.000Z</time>
</trkpt>
<trkpt lat="43.57237" lon="5.34352">
<ele>306.9</ele>
<time>2012-03-24T16:36:07.000Z</time>
</trkpt>
<trkpt lat="43.57233" lon="5.34346">
<ele>306.3</ele>
<time>2012-03-24T16:36:08.000Z</time>
</trkpt>
<trkpt lat="43.57229" lon="5.3434">
<ele>306.3</ele>
<time>2012-03-24T16:36:09.000Z</time>
</trkpt>
<trkpt lat="43.57225" lon="5.34334">
<ele>305.8</ele>
<time>2012-03-24T16:36:10.000Z</time>
</trkpt>
<trkpt lat="43.5722" lon="5.34328">
<ele>305.2</ele>
<time>2012-03-24T16:36:11.000Z</time>
</trkpt>
<trkpt lat="43.57216" lon="5.34322">
<ele>304.8</ele>
<time>2012-03-24T16:36:12.000Z</time>
</trkpt>
<trkpt lat="43.57209" lon="5.34316">
<ele>304.4</ele>
<time>2012-03-24T16:36:13.000Z</time>
</trkpt>
<trkpt lat="43.57204" lon="5.34309">
<ele>304.3</ele>
<time>2012-03-24T16:36:14.000Z</time>
</trkpt>
<trkpt lat="43.57198" lon="5.34302">
<ele>303.8</ele>
<time>2012-03-24T16:36:15.000Z</time>
</trkpt>
<trkpt lat="43.57191" lon="5.34296">
<ele>303.5</ele>
<time>2012-03-24T16:36:16.000Z</time>
</trkpt>
<trkpt lat="43.57184" lon="5.3429">
<ele>303.1</ele>
<time>2012-03-24T16:36:17.000Z</time>
</trkpt>
<trkpt lat="43.57177" lon="5.34287">
<ele>303</ele>
<time>2012-03-24T16:36:18.000Z</time>
</trkpt>
<trkpt lat="43.57169" lon="5.34284">
<ele>303.1</ele>
<time>2012-03-24T16:36:19.000Z</time>
</trkpt>
<trkpt lat="43.57164" lon="5.34284">
<ele>302.7</ele>
<time>2012-03-24T16:36:20.000Z</time>
</trkpt>
<trkpt lat="43.57158" lon="5.34282">
<ele>302.5</ele>
<time>2012-03-24T16:36:21.000Z</time>
</trkpt>
<trkpt lat="43.57151" lon="5.3428">
<ele>302.3</ele>
<time>2012-03-24T16:36:22.000Z</time>
</trkpt>
<trkpt lat="43.57145" lon="5.34279">
<ele>301.8</ele>
<time>2012-03-24T16:36:23.000Z</time>
</trkpt>
<trkpt lat="43.57137" lon="5.34278">
<ele>301.7</ele>
<time>2012-03-24T16:36:24.000Z</time>
</trkpt>
<trkpt lat="43.57129" lon="5.34278">
<ele>301.4</ele>
<time>2012-03-24T16:36:25.000Z</time>
</trkpt>
<trkpt lat="43.57122" lon="5.34275">
<ele>300.9</ele>
<time>2012-03-24T16:36:26.000Z</time>
</trkpt>
<trkpt lat="43.57113" lon="5.34273">
<ele>300</ele>
<time>2012-03-24T16:36:27.000Z</time>
</trkpt>
<trkpt lat="43.57104" lon="5.34271">
<ele>299.7</ele>
<time>2012-03-24T16:36:28.000Z</time>
</trkpt>
<trkpt lat="43.57096" lon="5.34271">
<ele>299.3</ele>
<time>2012-03-24T16:36:29.000Z</time>
</trkpt>
<trkpt lat="43.57089" lon="5.3427">
<ele>299.2</ele>
<time>2012-03-24T16:36:30.000Z</time>
</trkpt>
<trkpt lat="43.57081" lon="5.3427">
<ele>298.8</ele>
<time>2012-03-24T16:36:31.000Z</time>
</trkpt>
<trkpt lat="43.57074" lon="5.3427">
<ele>298.8</ele>
<time>2012-03-24T16:36:32.000Z</time>
</trkpt>
<trkpt lat="43.57067" lon="5.3427">
<ele>298.9</ele>
<time>2012-03-24T16:36:33.000Z</time>
</trkpt>
<trkpt lat="43.57059" lon="5.34271">
<ele>298.9</ele>
<time>2012-03-24T16:36:34.000Z</time>
</trkpt>
<trkpt lat="43.57051" lon="5.34272">
<ele>298.9</ele>
<time>2012-03-24T16:36:35.000Z</time>
</trkpt>
<trkpt lat="43.57044" lon="5.34273">
<ele>299</ele>
<time>2012-03-24T16:36:36.000Z</time>
</trkpt>
<trkpt lat="43.57037" lon="5.34275">
<ele>299.2</ele>
<time>2012-03-24T16:36:37.000Z</time>
</trkpt>
<trkpt lat="43.5703" lon="5.34275">
<ele>298.9</ele>
<time>2012-03-24T16:36:38.000Z</time>
</trkpt>
<trkpt lat="43.57025" lon="5.3427">
<ele>298.2</ele>
<time>2012-03-24T16:36:39.000Z</time>
</trkpt>
<trkpt lat="43.57017" lon="5.34268">
<ele>297.7</ele>
<time>2012-03-24T16:36:40.000Z</time>
</trkpt>
<trkpt lat="43.5701" lon="5.34265">
<ele>297.1</ele>
<time>2012-03-24T16:36:41.000Z</time>
</trkpt>
<trkpt lat="43.57002" lon="5.3426">
<ele>296.8</ele>
<time>2012-03-24T16:36:42.000Z</time>
</trkpt>
<trkpt lat="43.56996" lon="5.34256">
<ele>296.6</ele>
<time>2012-03-24T16:36:43.000Z</time>
</trkpt>
<trkpt lat="43.56989" lon="5.34255">
<ele>296.3</ele>
<time>2012-03-24T16:36:44.000Z</time>
</trkpt>
<trkpt lat="43.56982" lon="5.34256">
<ele>295.8</ele>
<time>2012-03-24T16:36:45.000Z</time>
</trkpt>
<trkpt lat="43.56975" lon="5.34261">
<ele>295.3</ele>
<time>2012-03-24T16:36:46.000Z</time>
</trkpt>
<trkpt lat="43.56967" lon="5.34268">
<ele>294.5</ele>
<time>2012-03-24T16:36:47.000Z</time>
</trkpt>
<trkpt lat="43.56961" lon="5.34276">
<ele>293.5</ele>
<time>2012-03-24T16:36:48.000Z</time>
</trkpt>
<trkpt lat="43.56952" lon="5.34285">
<ele>292.5</ele>
<time>2012-03-24T16:36:49.000Z</time>
</trkpt>
<trkpt lat="43.56945" lon="5.34294">
<ele>292.1</ele>
<time>2012-03-24T16:36:50.000Z</time>
</trkpt>
<trkpt lat="43.5694" lon="5.34301">
<ele>292.2</ele>
<time>2012-03-24T16:36:51.000Z</time>
</trkpt>
<trkpt lat="43.56933" lon="5.34309">
<ele>292.4</ele>
<time>2012-03-24T16:36:52.000Z</time>
</trkpt>
<trkpt lat="43.56927" lon="5.34317">
<ele>292.6</ele>
<time>2012-03-24T16:36:53.000Z</time>
</trkpt>
<trkpt lat="43.56922" lon="5.34325">
<ele>292</ele>
<time>2012-03-24T16:36:54.000Z</time>
</trkpt>
<trkpt lat="43.56915" lon="5.34333">
<ele>291.5</ele>
<time>2012-03-24T16:36:55.000Z</time>
</trkpt>
<trkpt lat="43.56908" lon="5.34343">
<ele>290.8</ele>
<time>2012-03-24T16:36:56.000Z</time>
</trkpt>
<trkpt lat="43.569" lon="5.34352">
<ele>289.9</ele>
<time>2012-03-24T16:36:57.000Z</time>
</trkpt>
<trkpt lat="43.56894" lon="5.3436">
<ele>288.8</ele>
<time>2012-03-24T16:36:58.000Z</time>
</trkpt>
<trkpt lat="43.56885" lon="5.34366">
<ele>288</ele>
<time>2012-03-24T16:36:59.000Z</time>
</trkpt>
<trkpt lat="43.56874" lon="5.34368">
<ele>284.7</ele>
<time>2012-03-24T16:37:00.000Z</time>
</trkpt>
<trkpt lat="43.56866" lon="5.34372">
<ele>283.2</ele>
<time>2012-03-24T16:37:01.000Z</time>
</trkpt>
<trkpt lat="43.56858" lon="5.34373">
<ele>282.1</ele>
<time>2012-03-24T16:37:02.000Z</time>
</trkpt>
<trkpt lat="43.56851" lon="5.34376">
<ele>281.5</ele>
<time>2012-03-24T16:37:03.000Z</time>
</trkpt>
<trkpt lat="43.56842" lon="5.34378">
<ele>280.9</ele>
<time>2012-03-24T16:37:04.000Z</time>
</trkpt>
<trkpt lat="43.56834" lon="5.34384">
<ele>280.4</ele>
<time>2012-03-24T16:37:05.000Z</time>
</trkpt>
<trkpt lat="43.56825" lon="5.34388">
<ele>279.5</ele>
<time>2012-03-24T16:37:06.000Z</time>
</trkpt>
<trkpt lat="43.56814" lon="5.34392">
<ele>278.5</ele>
<time>2012-03-24T16:37:07.000Z</time>
</trkpt>
<trkpt lat="43.56806" lon="5.34395">
<ele>277.5</ele>
<time>2012-03-24T16:37:08.000Z</time>
</trkpt>
<trkpt lat="43.56797" lon="5.34396">
<ele>276.7</ele>
<time>2012-03-24T16:37:09.000Z</time>
</trkpt>
<trkpt lat="43.56789" lon="5.34399">
<ele>276.9</ele>
<time>2012-03-24T16:37:10.000Z</time>
</trkpt>
<trkpt lat="43.56784" lon="5.34404">
<ele>275.8</ele>
<time>2012-03-24T16:37:11.000Z</time>
</trkpt>
<trkpt lat="43.56777" lon="5.3441">
<ele>275.5</ele>
<time>2012-03-24T16:37:12.000Z</time>
</trkpt>
<trkpt lat="43.56768" lon="5.34415">
<ele>275.2</ele>
<time>2012-03-24T16:37:13.000Z</time>
</trkpt>
<trkpt lat="43.56761" lon="5.34416">
<ele>274.8</ele>
<time>2012-03-24T16:37:14.000Z</time>
</trkpt>
<trkpt lat="43.56752" lon="5.34415">
<ele>274.3</ele>
<time>2012-03-24T16:37:15.000Z</time>
</trkpt>
<trkpt lat="43.56741" lon="5.34415">
<ele>273.8</ele>
<time>2012-03-24T16:37:16.000Z</time>
</trkpt>
<trkpt lat="43.56732" lon="5.34415">
<ele>273.5</ele>
<time>2012-03-24T16:37:17.000Z</time>
</trkpt>
<trkpt lat="43.56722" lon="5.34417">
<ele>272.9</ele>
<time>2012-03-24T16:37:18.000Z</time>
</trkpt>
<trkpt lat="43.56712" lon="5.34422">
<ele>272.3</ele>
<time>2012-03-24T16:37:19.000Z</time>
</trkpt>
<trkpt lat="43.56702" lon="5.34426">
<ele>270.8</ele>
<time>2012-03-24T16:37:20.000Z</time>
</trkpt>
<trkpt lat="43.56695" lon="5.34428">
<ele>270.5</ele>
<time>2012-03-24T16:37:21.000Z</time>
</trkpt>
<trkpt lat="43.56685" lon="5.3443">
<ele>269.5</ele>
<time>2012-03-24T16:37:22.000Z</time>
</trkpt>
<trkpt lat="43.56676" lon="5.34433">
<ele>268.6</ele>
<time>2012-03-24T16:37:23.000Z</time>
</trkpt>
<trkpt lat="43.56665" lon="5.34436">
<ele>267.4</ele>
<time>2012-03-24T16:37:24.000Z</time>
</trkpt>
<trkpt lat="43.56656" lon="5.3444">
<ele>266.9</ele>
<time>2012-03-24T16:37:25.000Z</time>
</trkpt>
<trkpt lat="43.56645" lon="5.34443">
<ele>266</ele>
<time>2012-03-24T16:37:26.000Z</time>
</trkpt>
<trkpt lat="43.56632" lon="5.34445">
<ele>265.8</ele>
<time>2012-03-24T16:37:27.000Z</time>
</trkpt>
<trkpt lat="43.56621" lon="5.34448">
<ele>264.8</ele>
<time>2012-03-24T16:37:28.000Z</time>
</trkpt>
<trkpt lat="43.56606" lon="5.34451">
<ele>264.1</ele>
<time>2012-03-24T16:37:29.000Z</time>
</trkpt>
<trkpt lat="43.56591" lon="5.34454">
<ele>263.3</ele>
<time>2012-03-24T16:37:30.000Z</time>
</trkpt>
<trkpt lat="43.56578" lon="5.34456">
<ele>261.8</ele>
<time>2012-03-24T16:37:31.000Z</time>
</trkpt>
<trkpt lat="43.56564" lon="5.34458">
<ele>260.1</ele>
<time>2012-03-24T16:37:32.000Z</time>
</trkpt>
<trkpt lat="43.56551" lon="5.34459">
<ele>258.1</ele>
<time>2012-03-24T16:37:33.000Z</time>
</trkpt>
<trkpt lat="43.56538" lon="5.34461">
<ele>257</ele>
<time>2012-03-24T16:37:34.000Z</time>
</trkpt>
<trkpt lat="43.56525" lon="5.34461">
<ele>255.3</ele>
<time>2012-03-24T16:37:35.000Z</time>
</trkpt>
<trkpt lat="43.56512" lon="5.34462">
<ele>254.1</ele>
<time>2012-03-24T16:37:36.000Z</time>
</trkpt>
<trkpt lat="43.56499" lon="5.34462">
<ele>252.9</ele>
<time>2012-03-24T16:37:37.000Z</time>
</trkpt>
<trkpt lat="43.56487" lon="5.34462">
<ele>252.7</ele>
<time>2012-03-24T16:37:38.000Z</time>
</trkpt>
<trkpt lat="43.56473" lon="5.34462">
<ele>251.5</ele>
<time>2012-03-24T16:37:39.000Z</time>
</trkpt>
<trkpt lat="43.56461" lon="5.34463">
<ele>250.7</ele>
<time>2012-03-24T16:37:40.000Z</time>
</trkpt>
<trkpt lat="43.56449" lon="5.34463">
<ele>250.8</ele>
<time>2012-03-24T16:37:41.000Z</time>
</trkpt>
<trkpt lat="43.56436" lon="5.34464">
<ele>249.8</ele>
<time>2012-03-24T16:37:42.000Z</time>
</trkpt>
<trkpt lat="43.56422" lon="5.34464">
<ele>249.1</ele>
<time>2012-03-24T16:37:43.000Z</time>
</trkpt>
<trkpt lat="43.5641" lon="5.34464">
<ele>247.5</ele>
<time>2012-03-24T16:37:44.000Z</time>
</trkpt>
<trkpt lat="43.56398" lon="5.34465">
<ele>246.7</ele>
<time>2012-03-24T16:37:45.000Z</time>
</trkpt>
<trkpt lat="43.56386" lon="5.34464">
<ele>246.1</ele>
<time>2012-03-24T16:37:46.000Z</time>
</trkpt>
<trkpt lat="43.56373" lon="5.34464">
<ele>245.5</ele>
<time>2012-03-24T16:37:47.000Z</time>
</trkpt>
<trkpt lat="43.56361" lon="5.34463">
<ele>244.6</ele>
<time>2012-03-24T16:37:48.000Z</time>
</trkpt>
<trkpt lat="43.56349" lon="5.34461">
<ele>243.8</ele>
<time>2012-03-24T16:37:49.000Z</time>
</trkpt>
<trkpt lat="43.56338" lon="5.34459">
<ele>243</ele>
<time>2012-03-24T16:37:50.000Z</time>
</trkpt>
<trkpt lat="43.56327" lon="5.34456">
<ele>242.2</ele>
<time>2012-03-24T16:37:51.000Z</time>
</trkpt>
<trkpt lat="43.56317" lon="5.34452">
<ele>242</ele>
<time>2012-03-24T16:37:52.000Z</time>
</trkpt>
<trkpt lat="43.56305" lon="5.34449">
<ele>241.8</ele>
<time>2012-03-24T16:37:53.000Z</time>
</trkpt>
<trkpt lat="43.56293" lon="5.34446">
<ele>241.6</ele>
<time>2012-03-24T16:37:54.000Z</time>
</trkpt>
<trkpt lat="43.5628" lon="5.34443">
<ele>240.9</ele>
<time>2012-03-24T16:37:55.000Z</time>
</trkpt>
<trkpt lat="43.56269" lon="5.34441">
<ele>240.9</ele>
<time>2012-03-24T16:37:56.000Z</time>
</trkpt>
<trkpt lat="43.56256" lon="5.3444">
<ele>241.2</ele>
<time>2012-03-24T16:37:57.000Z</time>
</trkpt>
<trkpt lat="43.56244" lon="5.3444">
<ele>240.2</ele>
<time>2012-03-24T16:37:58.000Z</time>
</trkpt>
<trkpt lat="43.56233" lon="5.34442">
<ele>239.6</ele>
<time>2012-03-24T16:37:59.000Z</time>
</trkpt>
<trkpt lat="43.56222" lon="5.34445">
<ele>238.7</ele>
<time>2012-03-24T16:38:00.000Z</time>
</trkpt>
<trkpt lat="43.5621" lon="5.34449">
<ele>237.6</ele>
<time>2012-03-24T16:38:01.000Z</time>
</trkpt>
<trkpt lat="43.56199" lon="5.34453">
<ele>236.9</ele>
<time>2012-03-24T16:38:02.000Z</time>
</trkpt>
<trkpt lat="43.56188" lon="5.34459">
<ele>236.7</ele>
<time>2012-03-24T16:38:03.000Z</time>
</trkpt>
<trkpt lat="43.56177" lon="5.34463">
<ele>236.5</ele>
<time>2012-03-24T16:38:04.000Z</time>
</trkpt>
<trkpt lat="43.56165" lon="5.34467">
<ele>235.6</ele>
<time>2012-03-24T16:38:05.000Z</time>
</trkpt>
<trkpt lat="43.56154" lon="5.34472">
<ele>235.8</ele>
<time>2012-03-24T16:38:06.000Z</time>
</trkpt>
<trkpt lat="43.56141" lon="5.34476">
<ele>234.8</ele>
<time>2012-03-24T16:38:07.000Z</time>
</trkpt>
<trkpt lat="43.5613" lon="5.34482">
<ele>234.5</ele>
<time>2012-03-24T16:38:08.000Z</time>
</trkpt>
<trkpt lat="43.56118" lon="5.34487">
<ele>233.3</ele>
<time>2012-03-24T16:38:09.000Z</time>
</trkpt>
<trkpt lat="43.56106" lon="5.34493">
<ele>232.5</ele>
<time>2012-03-24T16:38:10.000Z</time>
</trkpt>
<trkpt lat="43.56093" lon="5.34498">
<ele>231.7</ele>
<time>2012-03-24T16:38:11.000Z</time>
</trkpt>
<trkpt lat="43.56081" lon="5.34501">
<ele>231.7</ele>
<time>2012-03-24T16:38:12.000Z</time>
</trkpt>
<trkpt lat="43.56069" lon="5.34504">
<ele>231.6</ele>
<time>2012-03-24T16:38:13.000Z</time>
</trkpt>
<trkpt lat="43.56057" lon="5.34504">
<ele>231.1</ele>
<time>2012-03-24T16:38:14.000Z</time>
</trkpt>
<trkpt lat="43.56046" lon="5.345">
<ele>230.4</ele>
<time>2012-03-24T16:38:15.000Z</time>
</trkpt>
<trkpt lat="43.56033" lon="5.34498">
<ele>229.6</ele>
<time>2012-03-24T16:38:16.000Z</time>
</trkpt>
<trkpt lat="43.56022" lon="5.34496">
<ele>229.3</ele>
<time>2012-03-24T16:38:17.000Z</time>
</trkpt>
<trkpt lat="43.5601" lon="5.34494">
<ele>228.8</ele>
<time>2012-03-24T16:38:18.000Z</time>
</trkpt>
<trkpt lat="43.55998" lon="5.34491">
<ele>228.3</ele>
<time>2012-03-24T16:38:19.000Z</time>
</trkpt>
<trkpt lat="43.55986" lon="5.34489">
<ele>228.4</ele>
<time>2012-03-24T16:38:20.000Z</time>
</trkpt>
<trkpt lat="43.55975" lon="5.34488">
<ele>228.5</ele>
<time>2012-03-24T16:38:21.000Z</time>
</trkpt>
<trkpt lat="43.55963" lon="5.34485">
<ele>228.2</ele>
<time>2012-03-24T16:38:22.000Z</time>
</trkpt>
<trkpt lat="43.55952" lon="5.34484">
<ele>227.1</ele>
<time>2012-03-24T16:38:23.000Z</time>
</trkpt>
<trkpt lat="43.55942" lon="5.34482">
<ele>226.7</ele>
<time>2012-03-24T16:38:24.000Z</time>
</trkpt>
<trkpt lat="43.55931" lon="5.3448">
<ele>226.3</ele>
<time>2012-03-24T16:38:25.000Z</time>
</trkpt>
<trkpt lat="43.55919" lon="5.3448">
<ele>226</ele>
<time>2012-03-24T16:38:26.000Z</time>
</trkpt>
<trkpt lat="43.55907" lon="5.34479">
<ele>225.6</ele>
<time>2012-03-24T16:38:27.000Z</time>
</trkpt>
<trkpt lat="43.55895" lon="5.34479">
<ele>225.4</ele>
<time>2012-03-24T16:38:28.000Z</time>
</trkpt>
<trkpt lat="43.55884" lon="5.34479">
<ele>224.7</ele>
<time>2012-03-24T16:38:29.000Z</time>
</trkpt>
<trkpt lat="43.55872" lon="5.34481">
<ele>223.3</ele>
<time>2012-03-24T16:38:30.000Z</time>
</trkpt>
<trkpt lat="43.5586" lon="5.34484">
<ele>222.2</ele>
<time>2012-03-24T16:38:31.000Z</time>
</trkpt>
<trkpt lat="43.55848" lon="5.34485">
<ele>221.1</ele>
<time>2012-03-24T16:38:32.000Z</time>
</trkpt>
<trkpt lat="43.55837" lon="5.34486">
<ele>220.5</ele>
<time>2012-03-24T16:38:33.000Z</time>
</trkpt>
<trkpt lat="43.55826" lon="5.34488">
<ele>220.8</ele>
<time>2012-03-24T16:38:34.000Z</time>
</trkpt>
<trkpt lat="43.55816" lon="5.3449">
<ele>220.3</ele>
<time>2012-03-24T16:38:35.000Z</time>
</trkpt>
<trkpt lat="43.55806" lon="5.3449">
<ele>219.1</ele>
<time>2012-03-24T16:38:36.000Z</time>
</trkpt>
<trkpt lat="43.55797" lon="5.34492">
<ele>218.2</ele>
<time>2012-03-24T16:38:37.000Z</time>
</trkpt>
<trkpt lat="43.55789" lon="5.34493">
<ele>217.5</ele>
<time>2012-03-24T16:38:38.000Z</time>
</trkpt>
<trkpt lat="43.55782" lon="5.34493">
<ele>216.5</ele>
<time>2012-03-24T16:38:39.000Z</time>
</trkpt>
<trkpt lat="43.55774" lon="5.34494">
<ele>215.6</ele>
<time>2012-03-24T16:38:40.000Z</time>
</trkpt>
<trkpt lat="43.55768" lon="5.3449">
<ele>215.1</ele>
<time>2012-03-24T16:38:41.000Z</time>
</trkpt>
<trkpt lat="43.55762" lon="5.34486">
<ele>214.3</ele>
<time>2012-03-24T16:38:42.000Z</time>
</trkpt>
<trkpt lat="43.55756" lon="5.34477">
<ele>213.4</ele>
<time>2012-03-24T16:38:43.000Z</time>
</trkpt>
<trkpt lat="43.55752" lon="5.3447">
<ele>212.9</ele>
<time>2012-03-24T16:38:44.000Z</time>
</trkpt>
<trkpt lat="43.55748" lon="5.34462">
<ele>212.6</ele>
<time>2012-03-24T16:38:45.000Z</time>
</trkpt>
<trkpt lat="43.55744" lon="5.34454">
<ele>212.3</ele>
<time>2012-03-24T16:38:46.000Z</time>
</trkpt>
<trkpt lat="43.55739" lon="5.34446">
<ele>212.1</ele>
<time>2012-03-24T16:38:47.000Z</time>
</trkpt>
<trkpt lat="43.55734" lon="5.34436">
<ele>211.6</ele>
<time>2012-03-24T16:38:48.000Z</time>
</trkpt>
<trkpt lat="43.55729" lon="5.34426">
<ele>211.4</ele>
<time>2012-03-24T16:38:49.000Z</time>
</trkpt>
<trkpt lat="43.55725" lon="5.34417">
<ele>211.3</ele>
<time>2012-03-24T16:38:50.000Z</time>
</trkpt>
<trkpt lat="43.5572" lon="5.34408">
<ele>211.2</ele>
<time>2012-03-24T16:38:51.000Z</time>
</trkpt>
<trkpt lat="43.55716" lon="5.344">
<ele>211.2</ele>
<time>2012-03-24T16:38:52.000Z</time>
</trkpt>
<trkpt lat="43.5571" lon="5.34391">
<ele>211</ele>
<time>2012-03-24T16:38:53.000Z</time>
</trkpt>
<trkpt lat="43.55706" lon="5.34382">
<ele>211.4</ele>
<time>2012-03-24T16:38:54.000Z</time>
</trkpt>
<trkpt lat="43.557" lon="5.34374">
<ele>211.3</ele>
<time>2012-03-24T16:38:55.000Z</time>
</trkpt>
<trkpt lat="43.55696" lon="5.34365">
<ele>211.1</ele>
<time>2012-03-24T16:38:56.000Z</time>
</trkpt>
<trkpt lat="43.55691" lon="5.34356">
<ele>211.1</ele>
<time>2012-03-24T16:38:57.000Z</time>
</trkpt>
<trkpt lat="43.55685" lon="5.34346">
<ele>210.7</ele>
<time>2012-03-24T16:38:58.000Z</time>
</trkpt>
<trkpt lat="43.5568" lon="5.34338">
<ele>210.7</ele>
<time>2012-03-24T16:38:59.000Z</time>
</trkpt>
<trkpt lat="43.55676" lon="5.34328">
<ele>210.4</ele>
<time>2012-03-24T16:39:00.000Z</time>
</trkpt>
<trkpt lat="43.55671" lon="5.34318">
<ele>209.9</ele>
<time>2012-03-24T16:39:01.000Z</time>
</trkpt>
<trkpt lat="43.55666" lon="5.34307">
<ele>209.4</ele>
<time>2012-03-24T16:39:02.000Z</time>
</trkpt>
<trkpt lat="43.55663" lon="5.34296">
<ele>209.1</ele>
<time>2012-03-24T16:39:03.000Z</time>
</trkpt>
<trkpt lat="43.55659" lon="5.34288">
<ele>208.9</ele>
<time>2012-03-24T16:39:04.000Z</time>
</trkpt>
<trkpt lat="43.55656" lon="5.34278">
<ele>209.1</ele>
<time>2012-03-24T16:39:05.000Z</time>
</trkpt>
<trkpt lat="43.55651" lon="5.34268">
<ele>209.3</ele>
<time>2012-03-24T16:39:06.000Z</time>
</trkpt>
<trkpt lat="43.55648" lon="5.34258">
<ele>209.3</ele>
<time>2012-03-24T16:39:07.000Z</time>
</trkpt>
<trkpt lat="43.55645" lon="5.34246">
<ele>208.8</ele>
<time>2012-03-24T16:39:08.000Z</time>
</trkpt>
<trkpt lat="43.55641" lon="5.34236">
<ele>209.2</ele>
<time>2012-03-24T16:39:09.000Z</time>
</trkpt>
<trkpt lat="43.55638" lon="5.34226">
<ele>209.1</ele>
<time>2012-03-24T16:39:10.000Z</time>
</trkpt>
<trkpt lat="43.55635" lon="5.34216">
<ele>209.1</ele>
<time>2012-03-24T16:39:11.000Z</time>
</trkpt>
<trkpt lat="43.55632" lon="5.34205">
<ele>209.3</ele>
<time>2012-03-24T16:39:12.000Z</time>
</trkpt>
<trkpt lat="43.55628" lon="5.34196">
<ele>209.1</ele>
<time>2012-03-24T16:39:13.000Z</time>
</trkpt>
<trkpt lat="43.55625" lon="5.34187">
<ele>208.7</ele>
<time>2012-03-24T16:39:14.000Z</time>
</trkpt>
<trkpt lat="43.5562" lon="5.34177">
<ele>209</ele>
<time>2012-03-24T16:39:15.000Z</time>
</trkpt>
<trkpt lat="43.55616" lon="5.34169">
<ele>208.8</ele>
<time>2012-03-24T16:39:16.000Z</time>
</trkpt>
<trkpt lat="43.55611" lon="5.3416">
<ele>208.9</ele>
<time>2012-03-24T16:39:17.000Z</time>
</trkpt>
<trkpt lat="43.55605" lon="5.34153">
<ele>208.3</ele>
<time>2012-03-24T16:39:18.000Z</time>
</trkpt>
<trkpt lat="43.556" lon="5.34146">
<ele>207.6</ele>
<time>2012-03-24T16:39:19.000Z</time>
</trkpt>
<trkpt lat="43.55594" lon="5.3414">
<ele>207.7</ele>
<time>2012-03-24T16:39:20.000Z</time>
</trkpt>
<trkpt lat="43.55588" lon="5.34136">
<ele>207.7</ele>
<time>2012-03-24T16:39:21.000Z</time>
</trkpt>
<trkpt lat="43.5558" lon="5.34132">
<ele>207.7</ele>
<time>2012-03-24T16:39:22.000Z</time>
</trkpt>
<trkpt lat="43.55573" lon="5.34129">
<ele>207.9</ele>
<time>2012-03-24T16:39:23.000Z</time>
</trkpt>
<trkpt lat="43.55565" lon="5.34127">
<ele>208.3</ele>
<time>2012-03-24T16:39:24.000Z</time>
</trkpt>
<trkpt lat="43.55557" lon="5.34126">
<ele>208.1</ele>
<time>2012-03-24T16:39:25.000Z</time>
</trkpt>
<trkpt lat="43.55549" lon="5.34124">
<ele>207.8</ele>
<time>2012-03-24T16:39:26.000Z</time>
</trkpt>
<trkpt lat="43.55541" lon="5.3412">
<ele>207.5</ele>
<time>2012-03-24T16:39:27.000Z</time>
</trkpt>
<trkpt lat="43.55534" lon="5.34117">
<ele>207.4</ele>
<time>2012-03-24T16:39:28.000Z</time>
</trkpt>
<trkpt lat="43.55527" lon="5.34114">
<ele>207.3</ele>
<time>2012-03-24T16:39:29.000Z</time>
</trkpt>
<trkpt lat="43.55518" lon="5.34113">
<ele>206.9</ele>
<time>2012-03-24T16:39:30.000Z</time>
</trkpt>
<trkpt lat="43.5551" lon="5.3411">
<ele>206.8</ele>
<time>2012-03-24T16:39:31.000Z</time>
</trkpt>
<trkpt lat="43.55504" lon="5.34107">
<ele>206.4</ele>
<time>2012-03-24T16:39:32.000Z</time>
</trkpt>
<trkpt lat="43.55495" lon="5.34103">
<ele>206.4</ele>
<time>2012-03-24T16:39:33.000Z</time>
</trkpt>
<trkpt lat="43.55488" lon="5.34098">
<ele>206.1</ele>
<time>2012-03-24T16:39:34.000Z</time>
</trkpt>
<trkpt lat="43.55481" lon="5.3409">
<ele>205.5</ele>
<time>2012-03-24T16:39:35.000Z</time>
</trkpt>
<trkpt lat="43.55474" lon="5.34083">
<ele>205.4</ele>
<time>2012-03-24T16:39:36.000Z</time>
</trkpt>
<trkpt lat="43.55467" lon="5.34075">
<ele>205.2</ele>
<time>2012-03-24T16:39:37.000Z</time>
</trkpt>
<trkpt lat="43.55461" lon="5.34065">
<ele>205</ele>
<time>2012-03-24T16:39:38.000Z</time>
</trkpt>
<trkpt lat="43.55455" lon="5.34057">
<ele>205.3</ele>
<time>2012-03-24T16:39:39.000Z</time>
</trkpt>
<trkpt lat="43.5545" lon="5.34048">
<ele>205</ele>
<time>2012-03-24T16:39:40.000Z</time>
</trkpt>
<trkpt lat="43.55446" lon="5.34038">
<ele>205.2</ele>
<time>2012-03-24T16:39:41.000Z</time>
</trkpt>
<trkpt lat="43.55441" lon="5.34029">
<ele>204.9</ele>
<time>2012-03-24T16:39:42.000Z</time>
</trkpt>
<trkpt lat="43.55436" lon="5.3402">
<ele>205</ele>
<time>2012-03-24T16:39:43.000Z</time>
</trkpt>
<trkpt lat="43.55431" lon="5.34011">
<ele>205.3</ele>
<time>2012-03-24T16:39:44.000Z</time>
</trkpt>
<trkpt lat="43.55426" lon="5.34002">
<ele>205.3</ele>
<time>2012-03-24T16:39:45.000Z</time>
</trkpt>
<trkpt lat="43.55422" lon="5.33993">
<ele>204.9</ele>
<time>2012-03-24T16:39:46.000Z</time>
</trkpt>
<trkpt lat="43.55418" lon="5.33984">
<ele>204.7</ele>
<time>2012-03-24T16:39:47.000Z</time>
</trkpt>
<trkpt lat="43.55413" lon="5.33975">
<ele>203.8</ele>
<time>2012-03-24T16:39:48.000Z</time>
</trkpt>
<trkpt lat="43.55408" lon="5.33965">
<ele>204</ele>
<time>2012-03-24T16:39:49.000Z</time>
</trkpt>
<trkpt lat="43.55403" lon="5.33956">
<ele>203.9</ele>
<time>2012-03-24T16:39:50.000Z</time>
</trkpt>
<trkpt lat="43.55398" lon="5.33947">
<ele>203.8</ele>
<time>2012-03-24T16:39:51.000Z</time>
</trkpt>
<trkpt lat="43.55393" lon="5.33938">
<ele>203.7</ele>
<time>2012-03-24T16:39:52.000Z</time>
</trkpt>
<trkpt lat="43.55388" lon="5.33929">
<ele>203.9</ele>
<time>2012-03-24T16:39:53.000Z</time>
</trkpt>
<trkpt lat="43.55383" lon="5.3392">
<ele>203.5</ele>
<time>2012-03-24T16:39:54.000Z</time>
</trkpt>
<trkpt lat="43.55378" lon="5.3391">
<ele>203.4</ele>
<time>2012-03-24T16:39:55.000Z</time>
</trkpt>
<trkpt lat="43.55373" lon="5.33901">
<ele>203.4</ele>
<time>2012-03-24T16:39:56.000Z</time>
</trkpt>
<trkpt lat="43.55368" lon="5.33891">
<ele>203.1</ele>
<time>2012-03-24T16:39:57.000Z</time>
</trkpt>
<trkpt lat="43.55362" lon="5.33881">
<ele>202.6</ele>
<time>2012-03-24T16:39:58.000Z</time>
</trkpt>
<trkpt lat="43.55358" lon="5.33872">
<ele>203.1</ele>
<time>2012-03-24T16:39:59.000Z</time>
</trkpt>
<trkpt lat="43.55352" lon="5.33863">
<ele>203</ele>
<time>2012-03-24T16:40:00.000Z</time>
</trkpt>
<trkpt lat="43.55348" lon="5.33852">
<ele>203</ele>
<time>2012-03-24T16:40:01.000Z</time>
</trkpt>
<trkpt lat="43.55343" lon="5.33842">
<ele>203.3</ele>
<time>2012-03-24T16:40:02.000Z</time>
</trkpt>
<trkpt lat="43.55338" lon="5.33832">
<ele>203.7</ele>
<time>2012-03-24T16:40:03.000Z</time>
</trkpt>
<trkpt lat="43.55334" lon="5.33822">
<ele>203.4</ele>
<time>2012-03-24T16:40:04.000Z</time>
</trkpt>
<trkpt lat="43.55329" lon="5.33811">
<ele>202.9</ele>
<time>2012-03-24T16:40:05.000Z</time>
</trkpt>
<trkpt lat="43.55325" lon="5.33801">
<ele>202.8</ele>
<time>2012-03-24T16:40:06.000Z</time>
</trkpt>
<trkpt lat="43.5532" lon="5.3379">
<ele>202.2</ele>
<time>2012-03-24T16:40:07.000Z</time>
</trkpt>
<trkpt lat="43.55316" lon="5.33779">
<ele>202.2</ele>
<time>2012-03-24T16:40:08.000Z</time>
</trkpt>
<trkpt lat="43.55311" lon="5.33769">
<ele>201.7</ele>
<time>2012-03-24T16:40:09.000Z</time>
</trkpt>
<trkpt lat="43.55307" lon="5.33758">
<ele>201.7</ele>
<time>2012-03-24T16:40:10.000Z</time>
</trkpt>
<trkpt lat="43.55302" lon="5.33748">
<ele>201.7</ele>
<time>2012-03-24T16:40:11.000Z</time>
</trkpt>
<trkpt lat="43.55298" lon="5.33737">
<ele>201.5</ele>
<time>2012-03-24T16:40:12.000Z</time>
</trkpt>
<trkpt lat="43.55294" lon="5.33727">
<ele>201.7</ele>
<time>2012-03-24T16:40:13.000Z</time>
</trkpt>
<trkpt lat="43.5529" lon="5.33717">
<ele>201.6</ele>
<time>2012-03-24T16:40:14.000Z</time>
</trkpt>
<trkpt lat="43.55285" lon="5.33706">
<ele>201.2</ele>
<time>2012-03-24T16:40:15.000Z</time>
</trkpt>
<trkpt lat="43.55281" lon="5.33696">
<ele>201</ele>
<time>2012-03-24T16:40:16.000Z</time>
</trkpt>
<trkpt lat="43.55276" lon="5.33686">
<ele>200.6</ele>
<time>2012-03-24T16:40:17.000Z</time>
</trkpt>
<trkpt lat="43.55272" lon="5.33676">
<ele>200.6</ele>
<time>2012-03-24T16:40:18.000Z</time>
</trkpt>
<trkpt lat="43.55268" lon="5.33666">
<ele>200.5</ele>
<time>2012-03-24T16:40:19.000Z</time>
</trkpt>
<trkpt lat="43.55264" lon="5.33655">
<ele>199.9</ele>
<time>2012-03-24T16:40:20.000Z</time>
</trkpt>
<trkpt lat="43.5526" lon="5.33645">
<ele>199.5</ele>
<time>2012-03-24T16:40:21.000Z</time>
</trkpt>
<trkpt lat="43.55255" lon="5.33634">
<ele>199.7</ele>
<time>2012-03-24T16:40:22.000Z</time>
</trkpt>
<trkpt lat="43.55251" lon="5.33625">
<ele>200</ele>
<time>2012-03-24T16:40:23.000Z</time>
</trkpt>
<trkpt lat="43.55246" lon="5.33615">
<ele>199.9</ele>
<time>2012-03-24T16:40:24.000Z</time>
</trkpt>
<trkpt lat="43.55243" lon="5.33604">
<ele>199.7</ele>
<time>2012-03-24T16:40:25.000Z</time>
</trkpt>
<trkpt lat="43.55238" lon="5.33594">
<ele>199.5</ele>
<time>2012-03-24T16:40:26.000Z</time>
</trkpt>
<trkpt lat="43.55234" lon="5.33584">
<ele>199</ele>
<time>2012-03-24T16:40:27.000Z</time>
</trkpt>
<trkpt lat="43.5523" lon="5.33573">
<ele>198.7</ele>
<time>2012-03-24T16:40:28.000Z</time>
</trkpt>
<trkpt lat="43.55225" lon="5.33563">
<ele>198.4</ele>
<time>2012-03-24T16:40:29.000Z</time>
</trkpt>
<trkpt lat="43.55221" lon="5.33552">
<ele>197.9</ele>
<time>2012-03-24T16:40:30.000Z</time>
</trkpt>
<trkpt lat="43.55216" lon="5.33541">
<ele>198.2</ele>
<time>2012-03-24T16:40:31.000Z</time>
</trkpt>
<trkpt lat="43.55212" lon="5.33531">
<ele>197.6</ele>
<time>2012-03-24T16:40:32.000Z</time>
</trkpt>
<trkpt lat="43.55208" lon="5.3352">
<ele>197.4</ele>
<time>2012-03-24T16:40:33.000Z</time>
</trkpt>
<trkpt lat="43.55203" lon="5.3351">
<ele>197</ele>
<time>2012-03-24T16:40:34.000Z</time>
</trkpt>
<trkpt lat="43.55199" lon="5.33499">
<ele>196.6</ele>
<time>2012-03-24T16:40:35.000Z</time>
</trkpt>
<trkpt lat="43.55194" lon="5.33488">
<ele>196</ele>
<time>2012-03-24T16:40:36.000Z</time>
</trkpt>
<trkpt lat="43.5519" lon="5.33478">
<ele>195.6</ele>
<time>2012-03-24T16:40:37.000Z</time>
</trkpt>
<trkpt lat="43.55186" lon="5.33467">
<ele>195</ele>
<time>2012-03-24T16:40:38.000Z</time>
</trkpt>
<trkpt lat="43.55182" lon="5.33457">
<ele>195.3</ele>
<time>2012-03-24T16:40:39.000Z</time>
</trkpt>
<trkpt lat="43.55178" lon="5.33446">
<ele>194.9</ele>
<time>2012-03-24T16:40:40.000Z</time>
</trkpt>
<trkpt lat="43.55173" lon="5.33436">
<ele>195.1</ele>
<time>2012-03-24T16:40:41.000Z</time>
</trkpt>
<trkpt lat="43.55169" lon="5.33426">
<ele>195.2</ele>
<time>2012-03-24T16:40:42.000Z</time>
</trkpt>
<trkpt lat="43.55164" lon="5.33415">
<ele>195.4</ele>
<time>2012-03-24T16:40:43.000Z</time>
</trkpt>
<trkpt lat="43.5516" lon="5.33405">
<ele>195.8</ele>
<time>2012-03-24T16:40:44.000Z</time>
</trkpt>
<trkpt lat="43.55155" lon="5.33395">
<ele>195.9</ele>
<time>2012-03-24T16:40:45.000Z</time>
</trkpt>
<trkpt lat="43.55151" lon="5.33385">
<ele>195.7</ele>
<time>2012-03-24T16:40:46.000Z</time>
</trkpt>
<trkpt lat="43.55147" lon="5.33375">
<ele>196</ele>
<time>2012-03-24T16:40:47.000Z</time>
</trkpt>
<trkpt lat="43.55143" lon="5.33365">
<ele>195.8</ele>
<time>2012-03-24T16:40:48.000Z</time>
</trkpt>
<trkpt lat="43.55138" lon="5.33355">
<ele>196.1</ele>
<time>2012-03-24T16:40:49.000Z</time>
</trkpt>
<trkpt lat="43.55134" lon="5.33346">
<ele>196.6</ele>
<time>2012-03-24T16:40:50.000Z</time>
</trkpt>
<trkpt lat="43.5513" lon="5.33336">
<ele>196.6</ele>
<time>2012-03-24T16:40:51.000Z</time>
</trkpt>
<trkpt lat="43.55125" lon="5.33326">
<ele>196.7</ele>
<time>2012-03-24T16:40:52.000Z</time>
</trkpt>
<trkpt lat="43.55121" lon="5.33316">
<ele>196.6</ele>
<time>2012-03-24T16:40:53.000Z</time>
</trkpt>
<trkpt lat="43.55116" lon="5.33306">
<ele>196.7</ele>
<time>2012-03-24T16:40:54.000Z</time>
</trkpt>
<trkpt lat="43.55112" lon="5.33296">
<ele>196.8</ele>
<time>2012-03-24T16:40:55.000Z</time>
</trkpt>
<trkpt lat="43.55108" lon="5.33287">
<ele>196.8</ele>
<time>2012-03-24T16:40:56.000Z</time>
</trkpt>
<trkpt lat="43.55104" lon="5.33277">
<ele>196.5</ele>
<time>2012-03-24T16:40:57.000Z</time>
</trkpt>
<trkpt lat="43.551" lon="5.33267">
<ele>196.5</ele>
<time>2012-03-24T16:40:58.000Z</time>
</trkpt>
<trkpt lat="43.55096" lon="5.33258">
<ele>196.7</ele>
<time>2012-03-24T16:40:59.000Z</time>
</trkpt>
<trkpt lat="43.55092" lon="5.33247">
<ele>196.6</ele>
<time>2012-03-24T16:41:00.000Z</time>
</trkpt>
<trkpt lat="43.55088" lon="5.33238">
<ele>196.9</ele>
<time>2012-03-24T16:41:01.000Z</time>
</trkpt>
<trkpt lat="43.55084" lon="5.33228">
<ele>197.1</ele>
<time>2012-03-24T16:41:02.000Z</time>
</trkpt>
<trkpt lat="43.5508" lon="5.33218">
<ele>196.3</ele>
<time>2012-03-24T16:41:03.000Z</time>
</trkpt>
<trkpt lat="43.55076" lon="5.33209">
<ele>196.2</ele>
<time>2012-03-24T16:41:04.000Z</time>
</trkpt>
<trkpt lat="43.55072" lon="5.332">
<ele>196.2</ele>
<time>2012-03-24T16:41:05.000Z</time>
</trkpt>
<trkpt lat="43.55068" lon="5.33191">
<ele>196.6</ele>
<time>2012-03-24T16:41:06.000Z</time>
</trkpt>
<trkpt lat="43.55064" lon="5.33182">
<ele>196.4</ele>
<time>2012-03-24T16:41:07.000Z</time>
</trkpt>
<trkpt lat="43.5506" lon="5.33173">
<ele>196.1</ele>
<time>2012-03-24T16:41:08.000Z</time>
</trkpt>
<trkpt lat="43.55056" lon="5.33163">
<ele>196</ele>
<time>2012-03-24T16:41:09.000Z</time>
</trkpt>
<trkpt lat="43.55052" lon="5.33154">
<ele>196.1</ele>
<time>2012-03-24T16:41:10.000Z</time>
</trkpt>
<trkpt lat="43.55049" lon="5.33145">
<ele>196.6</ele>
<time>2012-03-24T16:41:11.000Z</time>
</trkpt>
<trkpt lat="43.55045" lon="5.33136">
<ele>196.6</ele>
<time>2012-03-24T16:41:12.000Z</time>
</trkpt>
<trkpt lat="43.55042" lon="5.33128">
<ele>196.6</ele>
<time>2012-03-24T16:41:13.000Z</time>
</trkpt>
<trkpt lat="43.55038" lon="5.33119">
<ele>196.7</ele>
<time>2012-03-24T16:41:14.000Z</time>
</trkpt>
<trkpt lat="43.55035" lon="5.33111">
<ele>196.5</ele>
<time>2012-03-24T16:41:15.000Z</time>
</trkpt>
<trkpt lat="43.55032" lon="5.33103">
<ele>196.5</ele>
<time>2012-03-24T16:41:16.000Z</time>
</trkpt>
<trkpt lat="43.55028" lon="5.33094">
<ele>196.5</ele>
<time>2012-03-24T16:41:17.000Z</time>
</trkpt>
<trkpt lat="43.55024" lon="5.33086">
<ele>196.7</ele>
<time>2012-03-24T16:41:18.000Z</time>
</trkpt>
<trkpt lat="43.55021" lon="5.33078">
<ele>196.8</ele>
<time>2012-03-24T16:41:19.000Z</time>
</trkpt>
<trkpt lat="43.55018" lon="5.3307">
<ele>196.9</ele>
<time>2012-03-24T16:41:20.000Z</time>
</trkpt>
<trkpt lat="43.55015" lon="5.33062">
<ele>197</ele>
<time>2012-03-24T16:41:21.000Z</time>
</trkpt>
<trkpt lat="43.55011" lon="5.33054">
<ele>197.5</ele>
<time>2012-03-24T16:41:22.000Z</time>
</trkpt>
<trkpt lat="43.55008" lon="5.33046">
<ele>197.1</ele>
<time>2012-03-24T16:41:23.000Z</time>
</trkpt>
<trkpt lat="43.55004" lon="5.33038">
<ele>197.4</ele>
<time>2012-03-24T16:41:24.000Z</time>
</trkpt>
<trkpt lat="43.55" lon="5.3303">
<ele>197.6</ele>
<time>2012-03-24T16:41:25.000Z</time>
</trkpt>
<trkpt lat="43.54997" lon="5.33022">
<ele>197.9</ele>
<time>2012-03-24T16:41:26.000Z</time>
</trkpt>
<trkpt lat="43.54993" lon="5.33014">
<ele>198</ele>
<time>2012-03-24T16:41:27.000Z</time>
</trkpt>
<trkpt lat="43.5499" lon="5.33006">
<ele>198.1</ele>
<time>2012-03-24T16:41:28.000Z</time>
</trkpt>
<trkpt lat="43.54986" lon="5.32998">
<ele>198.5</ele>
<time>2012-03-24T16:41:29.000Z</time>
</trkpt>
<trkpt lat="43.54983" lon="5.3299">
<ele>198.6</ele>
<time>2012-03-24T16:41:30.000Z</time>
</trkpt>
<trkpt lat="43.54979" lon="5.32982">
<ele>198.6</ele>
<time>2012-03-24T16:41:31.000Z</time>
</trkpt>
<trkpt lat="43.54976" lon="5.32974">
<ele>199.4</ele>
<time>2012-03-24T16:41:32.000Z</time>
</trkpt>
<trkpt lat="43.54972" lon="5.32966">
<ele>200.3</ele>
<time>2012-03-24T16:41:33.000Z</time>
</trkpt>
<trkpt lat="43.5497" lon="5.32959">
<ele>200.2</ele>
<time>2012-03-24T16:41:34.000Z</time>
</trkpt>
<trkpt lat="43.54967" lon="5.3295">
<ele>200.6</ele>
<time>2012-03-24T16:41:35.000Z</time>
</trkpt>
<trkpt lat="43.54964" lon="5.32942">
<ele>200.7</ele>
<time>2012-03-24T16:41:36.000Z</time>
</trkpt>
<trkpt lat="43.54961" lon="5.32934">
<ele>200.8</ele>
<time>2012-03-24T16:41:37.000Z</time>
</trkpt>
<trkpt lat="43.54958" lon="5.32925">
<ele>200.4</ele>
<time>2012-03-24T16:41:38.000Z</time>
</trkpt>
<trkpt lat="43.54955" lon="5.32916">
<ele>200.1</ele>
<time>2012-03-24T16:41:39.000Z</time>
</trkpt>
<trkpt lat="43.54952" lon="5.32909">
<ele>199.8</ele>
<time>2012-03-24T16:41:40.000Z</time>
</trkpt>
<trkpt lat="43.54948" lon="5.32901">
<ele>199.8</ele>
<time>2012-03-24T16:41:41.000Z</time>
</trkpt>
<trkpt lat="43.54945" lon="5.32893">
<ele>199.8</ele>
<time>2012-03-24T16:41:42.000Z</time>
</trkpt>
<trkpt lat="43.54942" lon="5.32885">
<ele>199.6</ele>
<time>2012-03-24T16:41:43.000Z</time>
</trkpt>
<trkpt lat="43.54937" lon="5.32876">
<ele>200.1</ele>
<time>2012-03-24T16:41:44.000Z</time>
</trkpt>
<trkpt lat="43.54933" lon="5.32867">
<ele>199.9</ele>
<time>2012-03-24T16:41:45.000Z</time>
</trkpt>
<trkpt lat="43.54929" lon="5.32859">
<ele>200.1</ele>
<time>2012-03-24T16:41:46.000Z</time>
</trkpt>
<trkpt lat="43.54926" lon="5.32851">
<ele>199.3</ele>
<time>2012-03-24T16:41:47.000Z</time>
</trkpt>
<trkpt lat="43.54923" lon="5.32843">
<ele>198.3</ele>
<time>2012-03-24T16:41:48.000Z</time>
</trkpt>
<trkpt lat="43.54921" lon="5.32835">
<ele>197.7</ele>
<time>2012-03-24T16:41:49.000Z</time>
</trkpt>
<trkpt lat="43.54916" lon="5.32827">
<ele>198.7</ele>
<time>2012-03-24T16:41:50.000Z</time>
</trkpt>
<trkpt lat="43.54913" lon="5.3282">
<ele>198.9</ele>
<time>2012-03-24T16:41:51.000Z</time>
</trkpt>
<trkpt lat="43.54909" lon="5.32813">
<ele>198.8</ele>
<time>2012-03-24T16:41:52.000Z</time>
</trkpt>
<trkpt lat="43.54906" lon="5.32804">
<ele>198.8</ele>
<time>2012-03-24T16:41:53.000Z</time>
</trkpt>
<trkpt lat="43.54903" lon="5.32796">
<ele>198.9</ele>
<time>2012-03-24T16:41:54.000Z</time>
</trkpt>
<trkpt lat="43.54899" lon="5.32788">
<ele>199.1</ele>
<time>2012-03-24T16:41:55.000Z</time>
</trkpt>
<trkpt lat="43.54896" lon="5.32779">
<ele>199.3</ele>
<time>2012-03-24T16:41:56.000Z</time>
</trkpt>
<trkpt lat="43.54893" lon="5.32771">
<ele>199.1</ele>
<time>2012-03-24T16:41:57.000Z</time>
</trkpt>
<trkpt lat="43.5489" lon="5.32763">
<ele>199.3</ele>
<time>2012-03-24T16:41:58.000Z</time>
</trkpt>
<trkpt lat="43.54887" lon="5.32755">
<ele>199.5</ele>
<time>2012-03-24T16:41:59.000Z</time>
</trkpt>
<trkpt lat="43.54883" lon="5.32748">
<ele>199.5</ele>
<time>2012-03-24T16:42:00.000Z</time>
</trkpt>
<trkpt lat="43.5488" lon="5.3274">
<ele>199.3</ele>
<time>2012-03-24T16:42:01.000Z</time>
</trkpt>
<trkpt lat="43.54877" lon="5.32733">
<ele>199.2</ele>
<time>2012-03-24T16:42:02.000Z</time>
</trkpt>
<trkpt lat="43.54874" lon="5.32726">
<ele>199.4</ele>
<time>2012-03-24T16:42:03.000Z</time>
</trkpt>
<trkpt lat="43.5487" lon="5.3272">
<ele>199.5</ele>
<time>2012-03-24T16:42:04.000Z</time>
</trkpt>
<trkpt lat="43.54865" lon="5.32716">
<ele>199.3</ele>
<time>2012-03-24T16:42:05.000Z</time>
</trkpt>
<trkpt lat="43.5486" lon="5.32713">
<ele>199.5</ele>
<time>2012-03-24T16:42:06.000Z</time>
</trkpt>
<trkpt lat="43.54854" lon="5.32712">
<ele>199.8</ele>
<time>2012-03-24T16:42:07.000Z</time>
</trkpt>
<trkpt lat="43.54849" lon="5.32711">
<ele>199.5</ele>
<time>2012-03-24T16:42:08.000Z</time>
</trkpt>
<trkpt lat="43.54843" lon="5.32712">
<ele>199.8</ele>
<time>2012-03-24T16:42:09.000Z</time>
</trkpt>
<trkpt lat="43.54837" lon="5.32716">
<ele>199.7</ele>
<time>2012-03-24T16:42:10.000Z</time>
</trkpt>
<trkpt lat="43.54832" lon="5.32722">
<ele>199.7</ele>
<time>2012-03-24T16:42:11.000Z</time>
</trkpt>
<trkpt lat="43.54827" lon="5.32728">
<ele>199.8</ele>
<time>2012-03-24T16:42:12.000Z</time>
</trkpt>
<trkpt lat="43.54822" lon="5.32734">
<ele>199.9</ele>
<time>2012-03-24T16:42:13.000Z</time>
</trkpt>
<trkpt lat="43.54819" lon="5.32743">
<ele>200</ele>
<time>2012-03-24T16:42:14.000Z</time>
</trkpt>
<trkpt lat="43.54815" lon="5.32751">
<ele>199.9</ele>
<time>2012-03-24T16:42:15.000Z</time>
</trkpt>
<trkpt lat="43.5481" lon="5.3276">
<ele>200.1</ele>
<time>2012-03-24T16:42:16.000Z</time>
</trkpt>
<trkpt lat="43.54805" lon="5.32768">
<ele>200.1</ele>
<time>2012-03-24T16:42:17.000Z</time>
</trkpt>
<trkpt lat="43.54801" lon="5.32777">
<ele>200.1</ele>
<time>2012-03-24T16:42:18.000Z</time>
</trkpt>
<trkpt lat="43.54795" lon="5.32786">
<ele>200.1</ele>
<time>2012-03-24T16:42:19.000Z</time>
</trkpt>
<trkpt lat="43.54791" lon="5.32794">
<ele>200.1</ele>
<time>2012-03-24T16:42:20.000Z</time>
</trkpt>
<trkpt lat="43.54787" lon="5.32804">
<ele>200.1</ele>
<time>2012-03-24T16:42:21.000Z</time>
</trkpt>
<trkpt lat="43.54782" lon="5.32813">
<ele>200.2</ele>
<time>2012-03-24T16:42:22.000Z</time>
</trkpt>
<trkpt lat="43.54777" lon="5.32821">
<ele>200.2</ele>
<time>2012-03-24T16:42:23.000Z</time>
</trkpt>
<trkpt lat="43.54774" lon="5.3283">
<ele>200.3</ele>
<time>2012-03-24T16:42:24.000Z</time>
</trkpt>
<trkpt lat="43.54769" lon="5.32838">
<ele>200.4</ele>
<time>2012-03-24T16:42:25.000Z</time>
</trkpt>
<trkpt lat="43.54764" lon="5.32845">
<ele>200.6</ele>
<time>2012-03-24T16:42:26.000Z</time>
</trkpt>
<trkpt lat="43.5476" lon="5.32854">
<ele>200.7</ele>
<time>2012-03-24T16:42:27.000Z</time>
</trkpt>
<trkpt lat="43.54754" lon="5.32863">
<ele>200.7</ele>
<time>2012-03-24T16:42:28.000Z</time>
</trkpt>
<trkpt lat="43.54749" lon="5.32874">
<ele>200.7</ele>
<time>2012-03-24T16:42:29.000Z</time>
</trkpt>
<trkpt lat="43.54744" lon="5.32882">
<ele>200.9</ele>
<time>2012-03-24T16:42:30.000Z</time>
</trkpt>
<trkpt lat="43.5474" lon="5.32891">
<ele>200.8</ele>
<time>2012-03-24T16:42:31.000Z</time>
</trkpt>
<trkpt lat="43.54736" lon="5.32901">
<ele>201</ele>
<time>2012-03-24T16:42:32.000Z</time>
</trkpt>
<trkpt lat="43.5473" lon="5.32912">
<ele>200.4</ele>
<time>2012-03-24T16:42:33.000Z</time>
</trkpt>
<trkpt lat="43.54724" lon="5.32923">
<ele>199</ele>
<time>2012-03-24T16:42:34.000Z</time>
</trkpt>
<trkpt lat="43.54718" lon="5.32934">
<ele>198.7</ele>
<time>2012-03-24T16:42:35.000Z</time>
</trkpt>
<trkpt lat="43.54713" lon="5.32944">
<ele>198.3</ele>
<time>2012-03-24T16:42:36.000Z</time>
</trkpt>
<trkpt lat="43.54707" lon="5.32954">
<ele>198.2</ele>
<time>2012-03-24T16:42:37.000Z</time>
</trkpt>
<trkpt lat="43.54702" lon="5.32963">
<ele>197.9</ele>
<time>2012-03-24T16:42:38.000Z</time>
</trkpt>
<trkpt lat="43.54697" lon="5.32971">
<ele>197.6</ele>
<time>2012-03-24T16:42:39.000Z</time>
</trkpt>
<trkpt lat="43.54691" lon="5.32982">
<ele>197.3</ele>
<time>2012-03-24T16:42:40.000Z</time>
</trkpt>
<trkpt lat="43.54682" lon="5.32992">
<ele>197.3</ele>
<time>2012-03-24T16:42:41.000Z</time>
</trkpt>
<trkpt lat="43.54676" lon="5.33002">
<ele>197</ele>
<time>2012-03-24T16:42:42.000Z</time>
</trkpt>
<trkpt lat="43.54669" lon="5.33011">
<ele>197.4</ele>
<time>2012-03-24T16:42:43.000Z</time>
</trkpt>
<trkpt lat="43.54664" lon="5.33021">
<ele>197</ele>
<time>2012-03-24T16:42:44.000Z</time>
</trkpt>
<trkpt lat="43.54658" lon="5.33029">
<ele>196.8</ele>
<time>2012-03-24T16:42:45.000Z</time>
</trkpt>
<trkpt lat="43.54653" lon="5.33037">
<ele>196.5</ele>
<time>2012-03-24T16:42:46.000Z</time>
</trkpt>
<trkpt lat="43.54648" lon="5.33043">
<ele>196.6</ele>
<time>2012-03-24T16:42:47.000Z</time>
</trkpt>
<trkpt lat="43.54642" lon="5.33048">
<ele>197.5</ele>
<time>2012-03-24T16:42:49.000Z</time>
</trkpt>
<trkpt lat="43.54641" lon="5.33039">
<ele>197.9</ele>
<time>2012-03-24T16:42:51.000Z</time>
</trkpt>
<trkpt lat="43.54638" lon="5.3303">
<ele>197.9</ele>
<time>2012-03-24T16:42:53.000Z</time>
</trkpt>
<trkpt lat="43.5463" lon="5.33003">
<ele>196.8</ele>
<time>2012-03-24T16:42:59.000Z</time>
</trkpt>
<trkpt lat="43.54632" lon="5.3299">
<ele>196.7</ele>
<time>2012-03-24T16:43:01.000Z</time>
</trkpt>
<trkpt lat="43.54635" lon="5.3298">
<ele>196.5</ele>
<time>2012-03-24T16:43:02.000Z</time>
</trkpt>
<trkpt lat="43.54641" lon="5.32964">
<ele>196</ele>
<time>2012-03-24T16:43:03.000Z</time>
</trkpt>
<trkpt lat="43.54644" lon="5.32952">
<ele>195.9</ele>
<time>2012-03-24T16:43:04.000Z</time>
</trkpt>
<trkpt lat="43.54644" lon="5.32943">
<ele>196.1</ele>
<time>2012-03-24T16:43:05.000Z</time>
</trkpt>
<trkpt lat="43.54648" lon="5.3293">
<ele>195.3</ele>
<time>2012-03-24T16:43:07.000Z</time>
</trkpt>
<trkpt lat="43.54649" lon="5.32924">
<ele>195.4</ele>
<time>2012-03-24T16:43:08.000Z</time>
</trkpt>
<trkpt lat="43.54653" lon="5.32917">
<ele>195.2</ele>
<time>2012-03-24T16:43:09.000Z</time>
</trkpt>
<trkpt lat="43.54657" lon="5.3291">
<ele>195.2</ele>
<time>2012-03-24T16:43:10.000Z</time>
</trkpt>
<trkpt lat="43.5466" lon="5.32905">
<ele>195.1</ele>
<time>2012-03-24T16:43:11.000Z</time>
</trkpt>
<trkpt lat="43.54663" lon="5.32898">
<ele>194.9</ele>
<time>2012-03-24T16:43:12.000Z</time>
</trkpt>
<trkpt lat="43.54667" lon="5.32892">
<ele>194.7</ele>
<time>2012-03-24T16:43:13.000Z</time>
</trkpt>
<trkpt lat="43.54671" lon="5.32884">
<ele>194.4</ele>
<time>2012-03-24T16:43:14.000Z</time>
</trkpt>
<trkpt lat="43.54674" lon="5.32877">
<ele>194.1</ele>
<time>2012-03-24T16:43:15.000Z</time>
</trkpt>
<trkpt lat="43.54678" lon="5.32871">
<ele>194.1</ele>
<time>2012-03-24T16:43:16.000Z</time>
</trkpt>
<trkpt lat="43.54681" lon="5.32865">
<ele>194.2</ele>
<time>2012-03-24T16:43:17.000Z</time>
</trkpt>
<trkpt lat="43.54685" lon="5.32859">
<ele>194.5</ele>
<time>2012-03-24T16:43:18.000Z</time>
</trkpt>
<trkpt lat="43.54688" lon="5.32854">
<ele>194.7</ele>
<time>2012-03-24T16:43:19.000Z</time>
</trkpt>
<trkpt lat="43.54693" lon="5.32846">
<ele>194.7</ele>
<time>2012-03-24T16:43:21.000Z</time>
</trkpt>
<trkpt lat="43.54697" lon="5.3284">
<ele>194.7</ele>
<time>2012-03-24T16:43:22.000Z</time>
</trkpt>
<trkpt lat="43.54699" lon="5.32835">
<ele>194.7</ele>
<time>2012-03-24T16:43:23.000Z</time>
</trkpt>
<trkpt lat="43.54703" lon="5.32827">
<ele>195.1</ele>
<time>2012-03-24T16:43:24.000Z</time>
</trkpt>
<trkpt lat="43.54709" lon="5.32817">
<ele>195.5</ele>
<time>2012-03-24T16:43:26.000Z</time>
</trkpt>
<trkpt lat="43.54713" lon="5.32812">
<ele>195.6</ele>
<time>2012-03-24T16:43:27.000Z</time>
</trkpt>
<trkpt lat="43.54715" lon="5.32805">
<ele>195.7</ele>
<time>2012-03-24T16:43:28.000Z</time>
</trkpt>
<trkpt lat="43.54718" lon="5.32801">
<ele>195.9</ele>
<time>2012-03-24T16:43:29.000Z</time>
</trkpt>
<trkpt lat="43.54724" lon="5.32791">
<ele>196.2</ele>
<time>2012-03-24T16:43:31.000Z</time>
</trkpt>
<trkpt lat="43.5473" lon="5.32782">
<ele>196.3</ele>
<time>2012-03-24T16:43:33.000Z</time>
</trkpt>
<trkpt lat="43.54736" lon="5.32773">
<ele>196.8</ele>
<time>2012-03-24T16:43:35.000Z</time>
</trkpt>
<trkpt lat="43.54739" lon="5.32767">
<ele>196.6</ele>
<time>2012-03-24T16:43:36.000Z</time>
</trkpt>
<trkpt lat="43.54746" lon="5.32759">
<ele>196.3</ele>
<time>2012-03-24T16:43:38.000Z</time>
</trkpt>
<trkpt lat="43.54749" lon="5.32754">
<ele>196.2</ele>
<time>2012-03-24T16:43:39.000Z</time>
</trkpt>
<trkpt lat="43.54751" lon="5.32748">
<ele>195.8</ele>
<time>2012-03-24T16:43:40.000Z</time>
</trkpt>
<trkpt lat="43.54753" lon="5.32742">
<ele>195.7</ele>
<time>2012-03-24T16:43:41.000Z</time>
</trkpt>
<trkpt lat="43.54756" lon="5.32737">
<ele>196</ele>
<time>2012-03-24T16:43:42.000Z</time>
</trkpt>
<trkpt lat="43.5476" lon="5.3273">
<ele>196.2</ele>
<time>2012-03-24T16:43:43.000Z</time>
</trkpt>
<trkpt lat="43.54766" lon="5.3272">
<ele>196.2</ele>
<time>2012-03-24T16:43:45.000Z</time>
</trkpt>
<trkpt lat="43.54771" lon="5.32711">
<ele>196.6</ele>
<time>2012-03-24T16:43:47.000Z</time>
</trkpt>
<trkpt lat="43.54776" lon="5.32702">
<ele>197.2</ele>
<time>2012-03-24T16:43:49.000Z</time>
</trkpt>
<trkpt lat="43.54781" lon="5.32695">
<ele>197.8</ele>
<time>2012-03-24T16:43:51.000Z</time>
</trkpt>
<trkpt lat="43.54785" lon="5.32684">
<ele>197.7</ele>
<time>2012-03-24T16:43:53.000Z</time>
</trkpt>
<trkpt lat="43.54788" lon="5.32677">
<ele>198.5</ele>
<time>2012-03-24T16:43:55.000Z</time>
</trkpt>
<trkpt lat="43.54791" lon="5.3267">
<ele>198.6</ele>
<time>2012-03-24T16:43:57.000Z</time>
</trkpt>
<trkpt lat="43.54786" lon="5.32664">
<ele>198.2</ele>
<time>2012-03-24T16:43:59.000Z</time>
</trkpt>
<trkpt lat="43.54779" lon="5.32662">
<ele>198.6</ele>
<time>2012-03-24T16:44:01.000Z</time>
</trkpt>
<trkpt lat="43.54774" lon="5.32658">
<ele>198.8</ele>
<time>2012-03-24T16:44:02.000Z</time>
</trkpt>
<trkpt lat="43.54764" lon="5.32658">
<ele>198.1</ele>
<time>2012-03-24T16:44:04.000Z</time>
</trkpt>
<trkpt lat="43.54758" lon="5.32658">
<ele>198.3</ele>
<time>2012-03-24T16:44:05.000Z</time>
</trkpt>
<trkpt lat="43.54753" lon="5.32658">
<ele>198.5</ele>
<time>2012-03-24T16:44:06.000Z</time>
</trkpt>
<trkpt lat="43.54748" lon="5.3266">
<ele>198.2</ele>
<time>2012-03-24T16:44:07.000Z</time>
</trkpt>
<trkpt lat="43.54741" lon="5.32659">
<ele>198.6</ele>
<time>2012-03-24T16:44:08.000Z</time>
</trkpt>
<trkpt lat="43.54735" lon="5.32656">
<ele>199.6</ele>
<time>2012-03-24T16:44:09.000Z</time>
</trkpt>
<trkpt lat="43.54729" lon="5.32655">
<ele>199.9</ele>
<time>2012-03-24T16:44:10.000Z</time>
</trkpt>
<trkpt lat="43.54719" lon="5.32654">
<ele>200.2</ele>
<time>2012-03-24T16:44:12.000Z</time>
</trkpt>
<trkpt lat="43.54713" lon="5.32653">
<ele>200.1</ele>
<time>2012-03-24T16:44:13.000Z</time>
</trkpt>
<trkpt lat="43.54708" lon="5.32652">
<ele>200.3</ele>
<time>2012-03-24T16:44:14.000Z</time>
</trkpt>
<trkpt lat="43.54698" lon="5.3265">
<ele>200.2</ele>
<time>2012-03-24T16:44:16.000Z</time>
</trkpt>
<trkpt lat="43.54692" lon="5.32648">
<ele>200.5</ele>
<time>2012-03-24T16:44:17.000Z</time>
</trkpt>
<trkpt lat="43.54686" lon="5.32648">
<ele>200.2</ele>
<time>2012-03-24T16:44:18.000Z</time>
</trkpt>
<trkpt lat="43.5468" lon="5.32646">
<ele>200</ele>
<time>2012-03-24T16:44:19.000Z</time>
</trkpt>
<trkpt lat="43.54674" lon="5.32645">
<ele>200.2</ele>
<time>2012-03-24T16:44:20.000Z</time>
</trkpt>
<trkpt lat="43.54669" lon="5.32644">
<ele>200.1</ele>
<time>2012-03-24T16:44:21.000Z</time>
</trkpt>
<trkpt lat="43.54662" lon="5.3264">
<ele>200.6</ele>
<time>2012-03-24T16:44:23.000Z</time>
</trkpt>
<trkpt lat="43.5466" lon="5.32632">
<ele>200.6</ele>
<time>2012-03-24T16:44:25.000Z</time>
</trkpt>
<trkpt lat="43.5466" lon="5.32625">
<ele>200.7</ele>
<time>2012-03-24T16:44:26.000Z</time>
</trkpt>
<trkpt lat="43.5466" lon="5.32615">
<ele>200.8</ele>
<time>2012-03-24T16:44:28.000Z</time>
</trkpt>
<trkpt lat="43.54662" lon="5.32602">
<ele>200.6</ele>
<time>2012-03-24T16:44:30.000Z</time>
</trkpt>
<trkpt lat="43.54663" lon="5.32596">
<ele>200.6</ele>
<time>2012-03-24T16:44:31.000Z</time>
</trkpt>
<trkpt lat="43.54664" lon="5.32589">
<ele>200.8</ele>
<time>2012-03-24T16:44:32.000Z</time>
</trkpt>
<trkpt lat="43.54664" lon="5.32582">
<ele>200.7</ele>
<time>2012-03-24T16:44:33.000Z</time>
</trkpt>
<trkpt lat="43.54665" lon="5.32574">
<ele>200.4</ele>
<time>2012-03-24T16:44:34.000Z</time>
</trkpt>
<trkpt lat="43.54666" lon="5.32566">
<ele>200.3</ele>
<time>2012-03-24T16:44:35.000Z</time>
</trkpt>
<trkpt lat="43.54665" lon="5.3256">
<ele>200.1</ele>
<time>2012-03-24T16:44:36.000Z</time>
</trkpt>
<trkpt lat="43.54666" lon="5.32553">
<ele>200.2</ele>
<time>2012-03-24T16:44:37.000Z</time>
</trkpt>
<trkpt lat="43.54665" lon="5.32544">
<ele>199.8</ele>
<time>2012-03-24T16:44:38.000Z</time>
</trkpt>
<trkpt lat="43.54664" lon="5.32535">
<ele>199.4</ele>
<time>2012-03-24T16:44:39.000Z</time>
</trkpt>
<trkpt lat="43.54666" lon="5.32526">
<ele>199.7</ele>
<time>2012-03-24T16:44:40.000Z</time>
</trkpt>
<trkpt lat="43.54666" lon="5.32517">
<ele>199.4</ele>
<time>2012-03-24T16:44:41.000Z</time>
</trkpt>
<trkpt lat="43.54668" lon="5.32509">
<ele>200</ele>
<time>2012-03-24T16:44:42.000Z</time>
</trkpt>
<trkpt lat="43.54668" lon="5.325">
<ele>200.3</ele>
<time>2012-03-24T16:44:43.000Z</time>
</trkpt>
<trkpt lat="43.5467" lon="5.32494">
<ele>200.3</ele>
<time>2012-03-24T16:44:44.000Z</time>
</trkpt>
<trkpt lat="43.54671" lon="5.32486">
<ele>200</ele>
<time>2012-03-24T16:44:45.000Z</time>
</trkpt>
<trkpt lat="43.54672" lon="5.32478">
<ele>200</ele>
<time>2012-03-24T16:44:46.000Z</time>
</trkpt>
<trkpt lat="43.54673" lon="5.3247">
<ele>199.8</ele>
<time>2012-03-24T16:44:47.000Z</time>
</trkpt>
<trkpt lat="43.54674" lon="5.32462">
<ele>199.8</ele>
<time>2012-03-24T16:44:48.000Z</time>
</trkpt>
<trkpt lat="43.54674" lon="5.32455">
<ele>199.6</ele>
<time>2012-03-24T16:44:49.000Z</time>
</trkpt>
<trkpt lat="43.54676" lon="5.32448">
<ele>199.5</ele>
<time>2012-03-24T16:44:50.000Z</time>
</trkpt>
<trkpt lat="43.54678" lon="5.32441">
<ele>199.5</ele>
<time>2012-03-24T16:44:51.000Z</time>
</trkpt>
<trkpt lat="43.54678" lon="5.32434">
<ele>199.9</ele>
<time>2012-03-24T16:44:52.000Z</time>
</trkpt>
<trkpt lat="43.54678" lon="5.32427">
<ele>200.1</ele>
<time>2012-03-24T16:44:53.000Z</time>
</trkpt>
<trkpt lat="43.54679" lon="5.3242">
<ele>200</ele>
<time>2012-03-24T16:44:54.000Z</time>
</trkpt>
<trkpt lat="43.54679" lon="5.32414">
<ele>200.2</ele>
<time>2012-03-24T16:44:55.000Z</time>
</trkpt>
<trkpt lat="43.54679" lon="5.32406">
<ele>200.4</ele>
<time>2012-03-24T16:44:56.000Z</time>
</trkpt>
<trkpt lat="43.54678" lon="5.32398">
<ele>200.7</ele>
<time>2012-03-24T16:44:57.000Z</time>
</trkpt>
<trkpt lat="43.54678" lon="5.32389">
<ele>200.2</ele>
<time>2012-03-24T16:44:58.000Z</time>
</trkpt>
<trkpt lat="43.54679" lon="5.32382">
<ele>200.6</ele>
<time>2012-03-24T16:44:59.000Z</time>
</trkpt>
<trkpt lat="43.5468" lon="5.32375">
<ele>200.7</ele>
<time>2012-03-24T16:45:00.000Z</time>
</trkpt>
<trkpt lat="43.5468" lon="5.32366">
<ele>200.7</ele>
<time>2012-03-24T16:45:01.000Z</time>
</trkpt>
<trkpt lat="43.5468" lon="5.32359">
<ele>200.9</ele>
<time>2012-03-24T16:45:02.000Z</time>
</trkpt>
<trkpt lat="43.54682" lon="5.32346">
<ele>201.2</ele>
<time>2012-03-24T16:45:04.000Z</time>
</trkpt>
<trkpt lat="43.54683" lon="5.32339">
<ele>201.3</ele>
<time>2012-03-24T16:45:05.000Z</time>
</trkpt>
<trkpt lat="43.54683" lon="5.32331">
<ele>201.8</ele>
<time>2012-03-24T16:45:06.000Z</time>
</trkpt>
<trkpt lat="43.54685" lon="5.32323">
<ele>202</ele>
<time>2012-03-24T16:45:07.000Z</time>
</trkpt>
<trkpt lat="43.54687" lon="5.3231">
<ele>202.6</ele>
<time>2012-03-24T16:45:09.000Z</time>
</trkpt>
<trkpt lat="43.54687" lon="5.32303">
<ele>202.4</ele>
<time>2012-03-24T16:45:10.000Z</time>
</trkpt>
<trkpt lat="43.54687" lon="5.32294">
<ele>201.4</ele>
<time>2012-03-24T16:45:11.000Z</time>
</trkpt>
<trkpt lat="43.54687" lon="5.32286">
<ele>201</ele>
<time>2012-03-24T16:45:12.000Z</time>
</trkpt>
<trkpt lat="43.54687" lon="5.32279">
<ele>201</ele>
<time>2012-03-24T16:45:13.000Z</time>
</trkpt>
<trkpt lat="43.54688" lon="5.32271">
<ele>201.5</ele>
<time>2012-03-24T16:45:14.000Z</time>
</trkpt>
<trkpt lat="43.54689" lon="5.32265">
<ele>201.2</ele>
<time>2012-03-24T16:45:15.000Z</time>
</trkpt>
<trkpt lat="43.54689" lon="5.32256">
<ele>201.8</ele>
<time>2012-03-24T16:45:16.000Z</time>
</trkpt>
<trkpt lat="43.5469" lon="5.32249">
<ele>201.7</ele>
<time>2012-03-24T16:45:17.000Z</time>
</trkpt>
<trkpt lat="43.54691" lon="5.32241">
<ele>201.6</ele>
<time>2012-03-24T16:45:18.000Z</time>
</trkpt>
<trkpt lat="43.54691" lon="5.32234">
<ele>201.1</ele>
<time>2012-03-24T16:45:19.000Z</time>
</trkpt>
<trkpt lat="43.5469" lon="5.32228">
<ele>201.4</ele>
<time>2012-03-24T16:45:20.000Z</time>
</trkpt>
<trkpt lat="43.5469" lon="5.32221">
<ele>201.8</ele>
<time>2012-03-24T16:45:21.000Z</time>
</trkpt>
<trkpt lat="43.54692" lon="5.32213">
<ele>201.9</ele>
<time>2012-03-24T16:45:22.000Z</time>
</trkpt>
<trkpt lat="43.54692" lon="5.32206">
<ele>202.4</ele>
<time>2012-03-24T16:45:23.000Z</time>
</trkpt>
<trkpt lat="43.54691" lon="5.322">
<ele>202.4</ele>
<time>2012-03-24T16:45:24.000Z</time>
</trkpt>
<trkpt lat="43.54692" lon="5.32193">
<ele>202.8</ele>
<time>2012-03-24T16:45:25.000Z</time>
</trkpt>
<trkpt lat="43.54693" lon="5.32184">
<ele>203.4</ele>
<time>2012-03-24T16:45:26.000Z</time>
</trkpt>
<trkpt lat="43.54692" lon="5.32177">
<ele>204.3</ele>
<time>2012-03-24T16:45:27.000Z</time>
</trkpt>
<trkpt lat="43.54691" lon="5.32171">
<ele>204.9</ele>
<time>2012-03-24T16:45:28.000Z</time>
</trkpt>
<trkpt lat="43.54689" lon="5.32162">
<ele>205.3</ele>
<time>2012-03-24T16:45:29.000Z</time>
</trkpt>
<trkpt lat="43.54689" lon="5.32154">
<ele>206.2</ele>
<time>2012-03-24T16:45:30.000Z</time>
</trkpt>
<trkpt lat="43.54688" lon="5.32146">
<ele>205.8</ele>
<time>2012-03-24T16:45:31.000Z</time>
</trkpt>
<trkpt lat="43.54688" lon="5.32138">
<ele>206</ele>
<time>2012-03-24T16:45:32.000Z</time>
</trkpt>
<trkpt lat="43.54688" lon="5.32128">
<ele>205.7</ele>
<time>2012-03-24T16:45:33.000Z</time>
</trkpt>
<trkpt lat="43.54688" lon="5.3212">
<ele>205.3</ele>
<time>2012-03-24T16:45:34.000Z</time>
</trkpt>
<trkpt lat="43.54687" lon="5.32111">
<ele>204.7</ele>
<time>2012-03-24T16:45:35.000Z</time>
</trkpt>
<trkpt lat="43.54687" lon="5.32102">
<ele>204.8</ele>
<time>2012-03-24T16:45:36.000Z</time>
</trkpt>
<trkpt lat="43.54687" lon="5.32093">
<ele>204.4</ele>
<time>2012-03-24T16:45:37.000Z</time>
</trkpt>
<trkpt lat="43.54687" lon="5.32084">
<ele>203.4</ele>
<time>2012-03-24T16:45:38.000Z</time>
</trkpt>
<trkpt lat="43.54685" lon="5.32076">
<ele>204.3</ele>
<time>2012-03-24T16:45:39.000Z</time>
</trkpt>
<trkpt lat="43.54682" lon="5.3207">
<ele>204.7</ele>
<time>2012-03-24T16:45:40.000Z</time>
</trkpt>
<trkpt lat="43.54677" lon="5.32065">
<ele>205.1</ele>
<time>2012-03-24T16:45:41.000Z</time>
</trkpt>
<trkpt lat="43.54676" lon="5.32058">
<ele>205.4</ele>
<time>2012-03-24T16:45:42.000Z</time>
</trkpt>
<trkpt lat="43.54678" lon="5.32046">
<ele>206</ele>
<time>2012-03-24T16:45:43.000Z</time>
</trkpt>
<trkpt lat="43.54678" lon="5.32038">
<ele>206.3</ele>
<time>2012-03-24T16:45:44.000Z</time>
</trkpt>
<trkpt lat="43.54678" lon="5.32028">
<ele>206.3</ele>
<time>2012-03-24T16:45:45.000Z</time>
</trkpt>
<trkpt lat="43.54678" lon="5.32017">
<ele>206.5</ele>
<time>2012-03-24T16:45:46.000Z</time>
</trkpt>
<trkpt lat="43.54677" lon="5.32008">
<ele>206.9</ele>
<time>2012-03-24T16:45:47.000Z</time>
</trkpt>
<trkpt lat="43.54676" lon="5.31999">
<ele>207.5</ele>
<time>2012-03-24T16:45:48.000Z</time>
</trkpt>
<trkpt lat="43.54677" lon="5.31988">
<ele>207.2</ele>
<time>2012-03-24T16:45:49.000Z</time>
</trkpt>
<trkpt lat="43.54679" lon="5.31977">
<ele>207.6</ele>
<time>2012-03-24T16:45:50.000Z</time>
</trkpt>
<trkpt lat="43.54679" lon="5.31967">
<ele>207.4</ele>
<time>2012-03-24T16:45:51.000Z</time>
</trkpt>
<trkpt lat="43.54679" lon="5.31958">
<ele>207.2</ele>
<time>2012-03-24T16:45:52.000Z</time>
</trkpt>
<trkpt lat="43.54679" lon="5.3195">
<ele>207.8</ele>
<time>2012-03-24T16:45:53.000Z</time>
</trkpt>
<trkpt lat="43.54679" lon="5.31941">
<ele>207.9</ele>
<time>2012-03-24T16:45:54.000Z</time>
</trkpt>
<trkpt lat="43.54679" lon="5.31931">
<ele>207.6</ele>
<time>2012-03-24T16:45:55.000Z</time>
</trkpt>
<trkpt lat="43.54679" lon="5.31922">
<ele>207.3</ele>
<time>2012-03-24T16:45:56.000Z</time>
</trkpt>
<trkpt lat="43.54679" lon="5.31912">
<ele>207.2</ele>
<time>2012-03-24T16:45:57.000Z</time>
</trkpt>
<trkpt lat="43.54679" lon="5.31903">
<ele>207</ele>
<time>2012-03-24T16:45:58.000Z</time>
</trkpt>
<trkpt lat="43.54678" lon="5.31894">
<ele>207.1</ele>
<time>2012-03-24T16:45:59.000Z</time>
</trkpt>
<trkpt lat="43.54677" lon="5.31885">
<ele>207.3</ele>
<time>2012-03-24T16:46:00.000Z</time>
</trkpt>
<trkpt lat="43.54677" lon="5.31875">
<ele>207.4</ele>
<time>2012-03-24T16:46:01.000Z</time>
</trkpt>
<trkpt lat="43.54677" lon="5.31864">
<ele>207.5</ele>
<time>2012-03-24T16:46:02.000Z</time>
</trkpt>
<trkpt lat="43.54676" lon="5.31854">
<ele>207.1</ele>
<time>2012-03-24T16:46:03.000Z</time>
</trkpt>
<trkpt lat="43.54674" lon="5.31844">
<ele>207.7</ele>
<time>2012-03-24T16:46:04.000Z</time>
</trkpt>
<trkpt lat="43.54673" lon="5.31832">
<ele>207.6</ele>
<time>2012-03-24T16:46:05.000Z</time>
</trkpt>
<trkpt lat="43.54673" lon="5.31821">
<ele>207.4</ele>
<time>2012-03-24T16:46:06.000Z</time>
</trkpt>
<trkpt lat="43.54672" lon="5.3181">
<ele>207.4</ele>
<time>2012-03-24T16:46:07.000Z</time>
</trkpt>
<trkpt lat="43.54672" lon="5.31798">
<ele>207.4</ele>
<time>2012-03-24T16:46:08.000Z</time>
</trkpt>
<trkpt lat="43.54672" lon="5.31786">
<ele>207.4</ele>
<time>2012-03-24T16:46:09.000Z</time>
</trkpt>
<trkpt lat="43.54674" lon="5.31773">
<ele>207.1</ele>
<time>2012-03-24T16:46:10.000Z</time>
</trkpt>
<trkpt lat="43.54677" lon="5.3176">
<ele>207</ele>
<time>2012-03-24T16:46:11.000Z</time>
</trkpt>
<trkpt lat="43.54677" lon="5.31748">
<ele>206.6</ele>
<time>2012-03-24T16:46:12.000Z</time>
</trkpt>
<trkpt lat="43.54678" lon="5.31734">
<ele>205.7</ele>
<time>2012-03-24T16:46:13.000Z</time>
</trkpt>
<trkpt lat="43.54679" lon="5.3172">
<ele>205.5</ele>
<time>2012-03-24T16:46:14.000Z</time>
</trkpt>
<trkpt lat="43.54679" lon="5.31705">
<ele>205.5</ele>
<time>2012-03-24T16:46:15.000Z</time>
</trkpt>
<trkpt lat="43.54679" lon="5.31692">
<ele>205</ele>
<time>2012-03-24T16:46:16.000Z</time>
</trkpt>
<trkpt lat="43.54681" lon="5.31681">
<ele>204.9</ele>
<time>2012-03-24T16:46:17.000Z</time>
</trkpt>
<trkpt lat="43.54684" lon="5.31671">
<ele>204</ele>
<time>2012-03-24T16:46:18.000Z</time>
</trkpt>
<trkpt lat="43.54686" lon="5.3166">
<ele>203.9</ele>
<time>2012-03-24T16:46:19.000Z</time>
</trkpt>
<trkpt lat="43.54687" lon="5.31648">
<ele>204.3</ele>
<time>2012-03-24T16:46:20.000Z</time>
</trkpt>
<trkpt lat="43.54688" lon="5.31636">
<ele>204.3</ele>
<time>2012-03-24T16:46:21.000Z</time>
</trkpt>
<trkpt lat="43.5469" lon="5.31624">
<ele>204.7</ele>
<time>2012-03-24T16:46:22.000Z</time>
</trkpt>
<trkpt lat="43.54692" lon="5.31613">
<ele>204.8</ele>
<time>2012-03-24T16:46:23.000Z</time>
</trkpt>
<trkpt lat="43.54694" lon="5.31601">
<ele>205.2</ele>
<time>2012-03-24T16:46:24.000Z</time>
</trkpt>
<trkpt lat="43.54697" lon="5.3159">
<ele>205.4</ele>
<time>2012-03-24T16:46:25.000Z</time>
</trkpt>
<trkpt lat="43.54699" lon="5.31578">
<ele>205.6</ele>
<time>2012-03-24T16:46:26.000Z</time>
</trkpt>
<trkpt lat="43.54701" lon="5.31568">
<ele>206.6</ele>
<time>2012-03-24T16:46:27.000Z</time>
</trkpt>
<trkpt lat="43.54704" lon="5.31556">
<ele>206.2</ele>
<time>2012-03-24T16:46:28.000Z</time>
</trkpt>
<trkpt lat="43.54708" lon="5.31544">
<ele>206.2</ele>
<time>2012-03-24T16:46:29.000Z</time>
</trkpt>
<trkpt lat="43.54712" lon="5.31532">
<ele>205.7</ele>
<time>2012-03-24T16:46:30.000Z</time>
</trkpt>
<trkpt lat="43.54713" lon="5.31518">
<ele>206.1</ele>
<time>2012-03-24T16:46:31.000Z</time>
</trkpt>
<trkpt lat="43.54715" lon="5.31505">
<ele>205.7</ele>
<time>2012-03-24T16:46:32.000Z</time>
</trkpt>
<trkpt lat="43.54715" lon="5.31492">
<ele>205.5</ele>
<time>2012-03-24T16:46:33.000Z</time>
</trkpt>
<trkpt lat="43.54717" lon="5.3148">
<ele>206.1</ele>
<time>2012-03-24T16:46:34.000Z</time>
</trkpt>
<trkpt lat="43.54718" lon="5.31468">
<ele>206.2</ele>
<time>2012-03-24T16:46:35.000Z</time>
</trkpt>
<trkpt lat="43.54717" lon="5.31455">
<ele>205.5</ele>
<time>2012-03-24T16:46:36.000Z</time>
</trkpt>
<trkpt lat="43.54719" lon="5.31442">
<ele>205.4</ele>
<time>2012-03-24T16:46:37.000Z</time>
</trkpt>
<trkpt lat="43.54721" lon="5.31429">
<ele>205.9</ele>
<time>2012-03-24T16:46:38.000Z</time>
</trkpt>
<trkpt lat="43.54722" lon="5.31416">
<ele>205.7</ele>
<time>2012-03-24T16:46:39.000Z</time>
</trkpt>
<trkpt lat="43.54722" lon="5.31405">
<ele>204.9</ele>
<time>2012-03-24T16:46:40.000Z</time>
</trkpt>
<trkpt lat="43.54722" lon="5.31392">
<ele>204.9</ele>
<time>2012-03-24T16:46:41.000Z</time>
</trkpt>
<trkpt lat="43.54723" lon="5.3138">
<ele>204.5</ele>
<time>2012-03-24T16:46:42.000Z</time>
</trkpt>
<trkpt lat="43.54724" lon="5.31367">
<ele>204.4</ele>
<time>2012-03-24T16:46:43.000Z</time>
</trkpt>
<trkpt lat="43.54724" lon="5.31354">
<ele>203.8</ele>
<time>2012-03-24T16:46:44.000Z</time>
</trkpt>
<trkpt lat="43.54724" lon="5.31341">
<ele>202.9</ele>
<time>2012-03-24T16:46:45.000Z</time>
</trkpt>
<trkpt lat="43.54724" lon="5.31327">
<ele>202.6</ele>
<time>2012-03-24T16:46:46.000Z</time>
</trkpt>
<trkpt lat="43.54722" lon="5.31313">
<ele>202.4</ele>
<time>2012-03-24T16:46:47.000Z</time>
</trkpt>
<trkpt lat="43.54722" lon="5.313">
<ele>201.9</ele>
<time>2012-03-24T16:46:48.000Z</time>
</trkpt>
<trkpt lat="43.54722" lon="5.31286">
<ele>201.1</ele>
<time>2012-03-24T16:46:49.000Z</time>
</trkpt>
<trkpt lat="43.54723" lon="5.31273">
<ele>200.2</ele>
<time>2012-03-24T16:46:50.000Z</time>
</trkpt>
<trkpt lat="43.54723" lon="5.31259">
<ele>199.3</ele>
<time>2012-03-24T16:46:51.000Z</time>
</trkpt>
<trkpt lat="43.54722" lon="5.31246">
<ele>199</ele>
<time>2012-03-24T16:46:52.000Z</time>
</trkpt>
<trkpt lat="43.54722" lon="5.31232">
<ele>198.3</ele>
<time>2012-03-24T16:46:53.000Z</time>
</trkpt>
<trkpt lat="43.54722" lon="5.31218">
<ele>198.3</ele>
<time>2012-03-24T16:46:54.000Z</time>
</trkpt>
<trkpt lat="43.54722" lon="5.31204">
<ele>197.6</ele>
<time>2012-03-24T16:46:55.000Z</time>
</trkpt>
<trkpt lat="43.54723" lon="5.3119">
<ele>197.8</ele>
<time>2012-03-24T16:46:56.000Z</time>
</trkpt>
<trkpt lat="43.54724" lon="5.31177">
<ele>197</ele>
<time>2012-03-24T16:46:57.000Z</time>
</trkpt>
<trkpt lat="43.54726" lon="5.31164">
<ele>196.4</ele>
<time>2012-03-24T16:46:58.000Z</time>
</trkpt>
<trkpt lat="43.54727" lon="5.31151">
<ele>196.7</ele>
<time>2012-03-24T16:46:59.000Z</time>
</trkpt>
<trkpt lat="43.54729" lon="5.31138">
<ele>196.1</ele>
<time>2012-03-24T16:47:00.000Z</time>
</trkpt>
<trkpt lat="43.5473" lon="5.31126">
<ele>195.9</ele>
<time>2012-03-24T16:47:01.000Z</time>
</trkpt>
<trkpt lat="43.54732" lon="5.31114">
<ele>196.2</ele>
<time>2012-03-24T16:47:02.000Z</time>
</trkpt>
<trkpt lat="43.54735" lon="5.31102">
<ele>195.9</ele>
<time>2012-03-24T16:47:03.000Z</time>
</trkpt>
<trkpt lat="43.54738" lon="5.31091">
<ele>195.9</ele>
<time>2012-03-24T16:47:04.000Z</time>
</trkpt>
<trkpt lat="43.54742" lon="5.31079">
<ele>195.5</ele>
<time>2012-03-24T16:47:05.000Z</time>
</trkpt>
<trkpt lat="43.54747" lon="5.3107">
<ele>195.8</ele>
<time>2012-03-24T16:47:06.000Z</time>
</trkpt>
<trkpt lat="43.54751" lon="5.31059">
<ele>195.8</ele>
<time>2012-03-24T16:47:07.000Z</time>
</trkpt>
<trkpt lat="43.54755" lon="5.31048">
<ele>195.8</ele>
<time>2012-03-24T16:47:08.000Z</time>
</trkpt>
<trkpt lat="43.54756" lon="5.31035">
<ele>194.8</ele>
<time>2012-03-24T16:47:09.000Z</time>
</trkpt>
<trkpt lat="43.54758" lon="5.31024">
<ele>194.8</ele>
<time>2012-03-24T16:47:10.000Z</time>
</trkpt>
<trkpt lat="43.54762" lon="5.31013">
<ele>194.7</ele>
<time>2012-03-24T16:47:11.000Z</time>
</trkpt>
<trkpt lat="43.54765" lon="5.31002">
<ele>194.6</ele>
<time>2012-03-24T16:47:12.000Z</time>
</trkpt>
<trkpt lat="43.54769" lon="5.30991">
<ele>194.4</ele>
<time>2012-03-24T16:47:13.000Z</time>
</trkpt>
<trkpt lat="43.54773" lon="5.3098">
<ele>194.3</ele>
<time>2012-03-24T16:47:14.000Z</time>
</trkpt>
<trkpt lat="43.54776" lon="5.30969">
<ele>194.7</ele>
<time>2012-03-24T16:47:15.000Z</time>
</trkpt>
<trkpt lat="43.5478" lon="5.30957">
<ele>194.5</ele>
<time>2012-03-24T16:47:16.000Z</time>
</trkpt>
<trkpt lat="43.54783" lon="5.30946">
<ele>194</ele>
<time>2012-03-24T16:47:17.000Z</time>
</trkpt>
<trkpt lat="43.54788" lon="5.30934">
<ele>193.5</ele>
<time>2012-03-24T16:47:18.000Z</time>
</trkpt>
<trkpt lat="43.54792" lon="5.30922">
<ele>193.4</ele>
<time>2012-03-24T16:47:19.000Z</time>
</trkpt>
<trkpt lat="43.54796" lon="5.30909">
<ele>193.2</ele>
<time>2012-03-24T16:47:20.000Z</time>
</trkpt>
<trkpt lat="43.54798" lon="5.30896">
<ele>193</ele>
<time>2012-03-24T16:47:21.000Z</time>
</trkpt>
<trkpt lat="43.54802" lon="5.30884">
<ele>192.6</ele>
<time>2012-03-24T16:47:22.000Z</time>
</trkpt>
<trkpt lat="43.54806" lon="5.30874">
<ele>192.7</ele>
<time>2012-03-24T16:47:23.000Z</time>
</trkpt>
<trkpt lat="43.54811" lon="5.30863">
<ele>192.3</ele>
<time>2012-03-24T16:47:24.000Z</time>
</trkpt>
<trkpt lat="43.54815" lon="5.30851">
<ele>192.1</ele>
<time>2012-03-24T16:47:25.000Z</time>
</trkpt>
<trkpt lat="43.54818" lon="5.3084">
<ele>192.3</ele>
<time>2012-03-24T16:47:26.000Z</time>
</trkpt>
<trkpt lat="43.54821" lon="5.30829">
<ele>192.5</ele>
<time>2012-03-24T16:47:27.000Z</time>
</trkpt>
<trkpt lat="43.54824" lon="5.30818">
<ele>192.9</ele>
<time>2012-03-24T16:47:28.000Z</time>
</trkpt>
<trkpt lat="43.54827" lon="5.30805">
<ele>192.7</ele>
<time>2012-03-24T16:47:29.000Z</time>
</trkpt>
<trkpt lat="43.54831" lon="5.30793">
<ele>192.2</ele>
<time>2012-03-24T16:47:30.000Z</time>
</trkpt>
<trkpt lat="43.54834" lon="5.30782">
<ele>192.1</ele>
<time>2012-03-24T16:47:31.000Z</time>
</trkpt>
<trkpt lat="43.54837" lon="5.30767">
<ele>191.9</ele>
<time>2012-03-24T16:47:32.000Z</time>
</trkpt>
<trkpt lat="43.5484" lon="5.30756">
<ele>192</ele>
<time>2012-03-24T16:47:33.000Z</time>
</trkpt>
<trkpt lat="43.54844" lon="5.30746">
<ele>191.9</ele>
<time>2012-03-24T16:47:34.000Z</time>
</trkpt>
<trkpt lat="43.54847" lon="5.30732">
<ele>191.7</ele>
<time>2012-03-24T16:47:35.000Z</time>
</trkpt>
<trkpt lat="43.54851" lon="5.30721">
<ele>191.6</ele>
<time>2012-03-24T16:47:36.000Z</time>
</trkpt>
<trkpt lat="43.54854" lon="5.30709">
<ele>191.6</ele>
<time>2012-03-24T16:47:37.000Z</time>
</trkpt>
<trkpt lat="43.54858" lon="5.30697">
<ele>191.3</ele>
<time>2012-03-24T16:47:38.000Z</time>
</trkpt>
<trkpt lat="43.54861" lon="5.30688">
<ele>191.1</ele>
<time>2012-03-24T16:47:39.000Z</time>
</trkpt>
<trkpt lat="43.54862" lon="5.30676">
<ele>190.7</ele>
<time>2012-03-24T16:47:40.000Z</time>
</trkpt>
<trkpt lat="43.54865" lon="5.30665">
<ele>190.9</ele>
<time>2012-03-24T16:47:41.000Z</time>
</trkpt>
<trkpt lat="43.54866" lon="5.30654">
<ele>190.9</ele>
<time>2012-03-24T16:47:42.000Z</time>
</trkpt>
<trkpt lat="43.5487" lon="5.30642">
<ele>190.1</ele>
<time>2012-03-24T16:47:43.000Z</time>
</trkpt>
<trkpt lat="43.54872" lon="5.30629">
<ele>189.6</ele>
<time>2012-03-24T16:47:44.000Z</time>
</trkpt>
<trkpt lat="43.54874" lon="5.30615">
<ele>189.7</ele>
<time>2012-03-24T16:47:45.000Z</time>
</trkpt>
<trkpt lat="43.54876" lon="5.30602">
<ele>190</ele>
<time>2012-03-24T16:47:46.000Z</time>
</trkpt>
<trkpt lat="43.54879" lon="5.3059">
<ele>189.5</ele>
<time>2012-03-24T16:47:47.000Z</time>
</trkpt>
<trkpt lat="43.5488" lon="5.30579">
<ele>189.5</ele>
<time>2012-03-24T16:47:48.000Z</time>
</trkpt>
<trkpt lat="43.54882" lon="5.30567">
<ele>189.4</ele>
<time>2012-03-24T16:47:49.000Z</time>
</trkpt>
<trkpt lat="43.54884" lon="5.30556">
<ele>189.6</ele>
<time>2012-03-24T16:47:50.000Z</time>
</trkpt>
<trkpt lat="43.54886" lon="5.30546">
<ele>190.1</ele>
<time>2012-03-24T16:47:51.000Z</time>
</trkpt>
<trkpt lat="43.54888" lon="5.30535">
<ele>190.5</ele>
<time>2012-03-24T16:47:52.000Z</time>
</trkpt>
<trkpt lat="43.54891" lon="5.30522">
<ele>190.6</ele>
<time>2012-03-24T16:47:53.000Z</time>
</trkpt>
<trkpt lat="43.54894" lon="5.3051">
<ele>189.8</ele>
<time>2012-03-24T16:47:54.000Z</time>
</trkpt>
<trkpt lat="43.54897" lon="5.30498">
<ele>189.8</ele>
<time>2012-03-24T16:47:55.000Z</time>
</trkpt>
<trkpt lat="43.54898" lon="5.30486">
<ele>189.6</ele>
<time>2012-03-24T16:47:56.000Z</time>
</trkpt>
<trkpt lat="43.54901" lon="5.30476">
<ele>188.9</ele>
<time>2012-03-24T16:47:57.000Z</time>
</trkpt>
<trkpt lat="43.54902" lon="5.30462">
<ele>188.3</ele>
<time>2012-03-24T16:47:58.000Z</time>
</trkpt>
<trkpt lat="43.54903" lon="5.30449">
<ele>188.3</ele>
<time>2012-03-24T16:47:59.000Z</time>
</trkpt>
<trkpt lat="43.54906" lon="5.30438">
<ele>187.8</ele>
<time>2012-03-24T16:48:00.000Z</time>
</trkpt>
<trkpt lat="43.54909" lon="5.30426">
<ele>188</ele>
<time>2012-03-24T16:48:01.000Z</time>
</trkpt>
<trkpt lat="43.5491" lon="5.30414">
<ele>187.8</ele>
<time>2012-03-24T16:48:02.000Z</time>
</trkpt>
<trkpt lat="43.54912" lon="5.30402">
<ele>187.7</ele>
<time>2012-03-24T16:48:03.000Z</time>
</trkpt>
<trkpt lat="43.54914" lon="5.30388">
<ele>188</ele>
<time>2012-03-24T16:48:04.000Z</time>
</trkpt>
<trkpt lat="43.54915" lon="5.30376">
<ele>187.4</ele>
<time>2012-03-24T16:48:05.000Z</time>
</trkpt>
<trkpt lat="43.54918" lon="5.30363">
<ele>187.1</ele>
<time>2012-03-24T16:48:06.000Z</time>
</trkpt>
<trkpt lat="43.54919" lon="5.30351">
<ele>186.8</ele>
<time>2012-03-24T16:48:07.000Z</time>
</trkpt>
<trkpt lat="43.54921" lon="5.3034">
<ele>186.5</ele>
<time>2012-03-24T16:48:08.000Z</time>
</trkpt>
<trkpt lat="43.54921" lon="5.30327">
<ele>185.8</ele>
<time>2012-03-24T16:48:09.000Z</time>
</trkpt>
<trkpt lat="43.54922" lon="5.30314">
<ele>185.4</ele>
<time>2012-03-24T16:48:10.000Z</time>
</trkpt>
<trkpt lat="43.54923" lon="5.30302">
<ele>185.1</ele>
<time>2012-03-24T16:48:11.000Z</time>
</trkpt>
<trkpt lat="43.54923" lon="5.30291">
<ele>184.7</ele>
<time>2012-03-24T16:48:12.000Z</time>
</trkpt>
<trkpt lat="43.54924" lon="5.30277">
<ele>184.6</ele>
<time>2012-03-24T16:48:13.000Z</time>
</trkpt>
<trkpt lat="43.54925" lon="5.30266">
<ele>184</ele>
<time>2012-03-24T16:48:14.000Z</time>
</trkpt>
<trkpt lat="43.54925" lon="5.30254">
<ele>183.5</ele>
<time>2012-03-24T16:48:15.000Z</time>
</trkpt>
<trkpt lat="43.54925" lon="5.3024">
<ele>183.2</ele>
<time>2012-03-24T16:48:16.000Z</time>
</trkpt>
<trkpt lat="43.54926" lon="5.30227">
<ele>182.4</ele>
<time>2012-03-24T16:48:17.000Z</time>
</trkpt>
<trkpt lat="43.54927" lon="5.30214">
<ele>181</ele>
<time>2012-03-24T16:48:18.000Z</time>
</trkpt>
<trkpt lat="43.54926" lon="5.30203">
<ele>180.7</ele>
<time>2012-03-24T16:48:19.000Z</time>
</trkpt>
<trkpt lat="43.54926" lon="5.3019">
<ele>179.8</ele>
<time>2012-03-24T16:48:20.000Z</time>
</trkpt>
<trkpt lat="43.54926" lon="5.30177">
<ele>178.1</ele>
<time>2012-03-24T16:48:21.000Z</time>
</trkpt>
<trkpt lat="43.54925" lon="5.30165">
<ele>177.8</ele>
<time>2012-03-24T16:48:22.000Z</time>
</trkpt>
<trkpt lat="43.54925" lon="5.30153">
<ele>177.1</ele>
<time>2012-03-24T16:48:23.000Z</time>
</trkpt>
<trkpt lat="43.54924" lon="5.30142">
<ele>176.7</ele>
<time>2012-03-24T16:48:24.000Z</time>
</trkpt>
<trkpt lat="43.54923" lon="5.30131">
<ele>176.3</ele>
<time>2012-03-24T16:48:25.000Z</time>
</trkpt>
<trkpt lat="43.54922" lon="5.30122">
<ele>175.9</ele>
<time>2012-03-24T16:48:26.000Z</time>
</trkpt>
<trkpt lat="43.54923" lon="5.3011">
<ele>175.2</ele>
<time>2012-03-24T16:48:27.000Z</time>
</trkpt>
<trkpt lat="43.54926" lon="5.301">
<ele>175.7</ele>
<time>2012-03-24T16:48:28.000Z</time>
</trkpt>
<trkpt lat="43.5493" lon="5.30091">
<ele>176.2</ele>
<time>2012-03-24T16:48:29.000Z</time>
</trkpt>
<trkpt lat="43.54934" lon="5.30081">
<ele>175.7</ele>
<time>2012-03-24T16:48:30.000Z</time>
</trkpt>
<trkpt lat="43.54938" lon="5.30071">
<ele>175.9</ele>
<time>2012-03-24T16:48:31.000Z</time>
</trkpt>
<trkpt lat="43.54941" lon="5.30061">
<ele>175.6</ele>
<time>2012-03-24T16:48:32.000Z</time>
</trkpt>
<trkpt lat="43.54942" lon="5.3005">
<ele>175.9</ele>
<time>2012-03-24T16:48:33.000Z</time>
</trkpt>
<trkpt lat="43.54944" lon="5.30039">
<ele>175.9</ele>
<time>2012-03-24T16:48:34.000Z</time>
</trkpt>
<trkpt lat="43.54947" lon="5.30029">
<ele>176</ele>
<time>2012-03-24T16:48:35.000Z</time>
</trkpt>
<trkpt lat="43.54949" lon="5.30018">
<ele>176</ele>
<time>2012-03-24T16:48:36.000Z</time>
</trkpt>
<trkpt lat="43.54952" lon="5.30007">
<ele>176.1</ele>
<time>2012-03-24T16:48:37.000Z</time>
</trkpt>
<trkpt lat="43.54957" lon="5.29997">
<ele>175.9</ele>
<time>2012-03-24T16:48:38.000Z</time>
</trkpt>
<trkpt lat="43.54962" lon="5.29989">
<ele>176.2</ele>
<time>2012-03-24T16:48:39.000Z</time>
</trkpt>
<trkpt lat="43.54965" lon="5.29975">
<ele>176.9</ele>
<time>2012-03-24T16:48:40.000Z</time>
</trkpt>
<trkpt lat="43.54963" lon="5.29962">
<ele>177.2</ele>
<time>2012-03-24T16:48:41.000Z</time>
</trkpt>
<trkpt lat="43.5496" lon="5.29948">
<ele>176.7</ele>
<time>2012-03-24T16:48:42.000Z</time>
</trkpt>
<trkpt lat="43.54956" lon="5.29935">
<ele>176.4</ele>
<time>2012-03-24T16:48:43.000Z</time>
</trkpt>
<trkpt lat="43.54957" lon="5.29922">
<ele>176</ele>
<time>2012-03-24T16:48:44.000Z</time>
</trkpt>
<trkpt lat="43.5496" lon="5.2991">
<ele>175.6</ele>
<time>2012-03-24T16:48:45.000Z</time>
</trkpt>
<trkpt lat="43.5496" lon="5.29898">
<ele>176</ele>
<time>2012-03-24T16:48:46.000Z</time>
</trkpt>
<trkpt lat="43.54961" lon="5.29888">
<ele>175.7</ele>
<time>2012-03-24T16:48:47.000Z</time>
</trkpt>
<trkpt lat="43.54961" lon="5.29878">
<ele>175.6</ele>
<time>2012-03-24T16:48:48.000Z</time>
</trkpt>
<trkpt lat="43.54961" lon="5.29868">
<ele>175.8</ele>
<time>2012-03-24T16:48:49.000Z</time>
</trkpt>
<trkpt lat="43.54962" lon="5.29856">
<ele>176</ele>
<time>2012-03-24T16:48:50.000Z</time>
</trkpt>
<trkpt lat="43.54964" lon="5.29845">
<ele>175.9</ele>
<time>2012-03-24T16:48:51.000Z</time>
</trkpt>
<trkpt lat="43.54965" lon="5.29834">
<ele>176.1</ele>
<time>2012-03-24T16:48:52.000Z</time>
</trkpt>
<trkpt lat="43.54968" lon="5.29824">
<ele>176.1</ele>
<time>2012-03-24T16:48:53.000Z</time>
</trkpt>
<trkpt lat="43.5497" lon="5.29814">
<ele>176</ele>
<time>2012-03-24T16:48:54.000Z</time>
</trkpt>
<trkpt lat="43.54972" lon="5.29803">
<ele>176</ele>
<time>2012-03-24T16:48:55.000Z</time>
</trkpt>
<trkpt lat="43.54975" lon="5.29793">
<ele>175.9</ele>
<time>2012-03-24T16:48:56.000Z</time>
</trkpt>
<trkpt lat="43.54978" lon="5.29784">
<ele>175.7</ele>
<time>2012-03-24T16:48:57.000Z</time>
</trkpt>
<trkpt lat="43.54981" lon="5.29774">
<ele>175.7</ele>
<time>2012-03-24T16:48:58.000Z</time>
</trkpt>
<trkpt lat="43.54984" lon="5.29766">
<ele>175.6</ele>
<time>2012-03-24T16:48:59.000Z</time>
</trkpt>
<trkpt lat="43.54988" lon="5.29757">
<ele>175.3</ele>
<time>2012-03-24T16:49:00.000Z</time>
</trkpt>
<trkpt lat="43.54991" lon="5.29747">
<ele>175.3</ele>
<time>2012-03-24T16:49:01.000Z</time>
</trkpt>
<trkpt lat="43.54998" lon="5.2974">
<ele>175.4</ele>
<time>2012-03-24T16:49:02.000Z</time>
</trkpt>
<trkpt lat="43.55" lon="5.29731">
<ele>175.4</ele>
<time>2012-03-24T16:49:03.000Z</time>
</trkpt>
<trkpt lat="43.55002" lon="5.29721">
<ele>175.2</ele>
<time>2012-03-24T16:49:04.000Z</time>
</trkpt>
<trkpt lat="43.55006" lon="5.29713">
<ele>175.6</ele>
<time>2012-03-24T16:49:05.000Z</time>
</trkpt>
<trkpt lat="43.5501" lon="5.29704">
<ele>174.9</ele>
<time>2012-03-24T16:49:06.000Z</time>
</trkpt>
<trkpt lat="43.55016" lon="5.29696">
<ele>175.2</ele>
<time>2012-03-24T16:49:07.000Z</time>
</trkpt>
<trkpt lat="43.5502" lon="5.29686">
<ele>175</ele>
<time>2012-03-24T16:49:08.000Z</time>
</trkpt>
<trkpt lat="43.55025" lon="5.29677">
<ele>175.1</ele>
<time>2012-03-24T16:49:09.000Z</time>
</trkpt>
<trkpt lat="43.5503" lon="5.29667">
<ele>175.3</ele>
<time>2012-03-24T16:49:10.000Z</time>
</trkpt>
<trkpt lat="43.55033" lon="5.29658">
<ele>175.8</ele>
<time>2012-03-24T16:49:11.000Z</time>
</trkpt>
<trkpt lat="43.55038" lon="5.29649">
<ele>175.9</ele>
<time>2012-03-24T16:49:12.000Z</time>
</trkpt>
<trkpt lat="43.55042" lon="5.2964">
<ele>176.8</ele>
<time>2012-03-24T16:49:13.000Z</time>
</trkpt>
<trkpt lat="43.55046" lon="5.29631">
<ele>177</ele>
<time>2012-03-24T16:49:14.000Z</time>
</trkpt>
<trkpt lat="43.55049" lon="5.29621">
<ele>176.8</ele>
<time>2012-03-24T16:49:15.000Z</time>
</trkpt>
<trkpt lat="43.55053" lon="5.29612">
<ele>177.3</ele>
<time>2012-03-24T16:49:16.000Z</time>
</trkpt>
<trkpt lat="43.55058" lon="5.29602">
<ele>177.5</ele>
<time>2012-03-24T16:49:17.000Z</time>
</trkpt>
<trkpt lat="43.55062" lon="5.29593">
<ele>177.1</ele>
<time>2012-03-24T16:49:18.000Z</time>
</trkpt>
<trkpt lat="43.55065" lon="5.29583">
<ele>177.6</ele>
<time>2012-03-24T16:49:19.000Z</time>
</trkpt>
<trkpt lat="43.55068" lon="5.29573">
<ele>177.7</ele>
<time>2012-03-24T16:49:20.000Z</time>
</trkpt>
<trkpt lat="43.55071" lon="5.29564">
<ele>178</ele>
<time>2012-03-24T16:49:21.000Z</time>
</trkpt>
<trkpt lat="43.55075" lon="5.29556">
<ele>177.9</ele>
<time>2012-03-24T16:49:22.000Z</time>
</trkpt>
<trkpt lat="43.55079" lon="5.29545">
<ele>178</ele>
<time>2012-03-24T16:49:23.000Z</time>
</trkpt>
<trkpt lat="43.5508" lon="5.29535">
<ele>178.2</ele>
<time>2012-03-24T16:49:24.000Z</time>
</trkpt>
<trkpt lat="43.55083" lon="5.29525">
<ele>178.3</ele>
<time>2012-03-24T16:49:25.000Z</time>
</trkpt>
<trkpt lat="43.55086" lon="5.29516">
<ele>179.1</ele>
<time>2012-03-24T16:49:26.000Z</time>
</trkpt>
<trkpt lat="43.55089" lon="5.29506">
<ele>179.3</ele>
<time>2012-03-24T16:49:27.000Z</time>
</trkpt>
<trkpt lat="43.55091" lon="5.29495">
<ele>179.3</ele>
<time>2012-03-24T16:49:28.000Z</time>
</trkpt>
<trkpt lat="43.55093" lon="5.29485">
<ele>179.3</ele>
<time>2012-03-24T16:49:29.000Z</time>
</trkpt>
<trkpt lat="43.55094" lon="5.29475">
<ele>179.4</ele>
<time>2012-03-24T16:49:30.000Z</time>
</trkpt>
<trkpt lat="43.55097" lon="5.29464">
<ele>179.5</ele>
<time>2012-03-24T16:49:31.000Z</time>
</trkpt>
<trkpt lat="43.55099" lon="5.29454">
<ele>179.1</ele>
<time>2012-03-24T16:49:32.000Z</time>
</trkpt>
<trkpt lat="43.55101" lon="5.29444">
<ele>178.7</ele>
<time>2012-03-24T16:49:33.000Z</time>
</trkpt>
<trkpt lat="43.55103" lon="5.29434">
<ele>179.5</ele>
<time>2012-03-24T16:49:34.000Z</time>
</trkpt>
<trkpt lat="43.55105" lon="5.29426">
<ele>179.3</ele>
<time>2012-03-24T16:49:35.000Z</time>
</trkpt>
<trkpt lat="43.55106" lon="5.29416">
<ele>179.2</ele>
<time>2012-03-24T16:49:36.000Z</time>
</trkpt>
<trkpt lat="43.55108" lon="5.29407">
<ele>179.2</ele>
<time>2012-03-24T16:49:37.000Z</time>
</trkpt>
<trkpt lat="43.5511" lon="5.29398">
<ele>179</ele>
<time>2012-03-24T16:49:38.000Z</time>
</trkpt>
<trkpt lat="43.55112" lon="5.29388">
<ele>179.1</ele>
<time>2012-03-24T16:49:39.000Z</time>
</trkpt>
<trkpt lat="43.55114" lon="5.29377">
<ele>178.7</ele>
<time>2012-03-24T16:49:40.000Z</time>
</trkpt>
<trkpt lat="43.55115" lon="5.29367">
<ele>178.6</ele>
<time>2012-03-24T16:49:41.000Z</time>
</trkpt>
<trkpt lat="43.55117" lon="5.29357">
<ele>178.3</ele>
<time>2012-03-24T16:49:42.000Z</time>
</trkpt>
<trkpt lat="43.5512" lon="5.29345">
<ele>177.8</ele>
<time>2012-03-24T16:49:43.000Z</time>
</trkpt>
<trkpt lat="43.55122" lon="5.29336">
<ele>177.6</ele>
<time>2012-03-24T16:49:44.000Z</time>
</trkpt>
<trkpt lat="43.55124" lon="5.29326">
<ele>177.4</ele>
<time>2012-03-24T16:49:45.000Z</time>
</trkpt>
<trkpt lat="43.55127" lon="5.29317">
<ele>177.4</ele>
<time>2012-03-24T16:49:46.000Z</time>
</trkpt>
<trkpt lat="43.5513" lon="5.29308">
<ele>177.2</ele>
<time>2012-03-24T16:49:47.000Z</time>
</trkpt>
<trkpt lat="43.55134" lon="5.29297">
<ele>176.7</ele>
<time>2012-03-24T16:49:48.000Z</time>
</trkpt>
<trkpt lat="43.55136" lon="5.29287">
<ele>176.5</ele>
<time>2012-03-24T16:49:49.000Z</time>
</trkpt>
<trkpt lat="43.55139" lon="5.29277">
<ele>176.5</ele>
<time>2012-03-24T16:49:50.000Z</time>
</trkpt>
<trkpt lat="43.55141" lon="5.29269">
<ele>176.7</ele>
<time>2012-03-24T16:49:51.000Z</time>
</trkpt>
<trkpt lat="43.55144" lon="5.29259">
<ele>177.2</ele>
<time>2012-03-24T16:49:52.000Z</time>
</trkpt>
<trkpt lat="43.55148" lon="5.29251">
<ele>176.8</ele>
<time>2012-03-24T16:49:53.000Z</time>
</trkpt>
<trkpt lat="43.55153" lon="5.29242">
<ele>176.7</ele>
<time>2012-03-24T16:49:54.000Z</time>
</trkpt>
<trkpt lat="43.55156" lon="5.29234">
<ele>177.3</ele>
<time>2012-03-24T16:49:55.000Z</time>
</trkpt>
<trkpt lat="43.55161" lon="5.29225">
<ele>177</ele>
<time>2012-03-24T16:49:56.000Z</time>
</trkpt>
<trkpt lat="43.55164" lon="5.29217">
<ele>177.3</ele>
<time>2012-03-24T16:49:57.000Z</time>
</trkpt>
<trkpt lat="43.55168" lon="5.29208">
<ele>177.1</ele>
<time>2012-03-24T16:49:58.000Z</time>
</trkpt>
<trkpt lat="43.55172" lon="5.29199">
<ele>177.3</ele>
<time>2012-03-24T16:49:59.000Z</time>
</trkpt>
<trkpt lat="43.55178" lon="5.2919">
<ele>177.7</ele>
<time>2012-03-24T16:50:00.000Z</time>
</trkpt>
<trkpt lat="43.55181" lon="5.29181">
<ele>177.5</ele>
<time>2012-03-24T16:50:01.000Z</time>
</trkpt>
<trkpt lat="43.55185" lon="5.29172">
<ele>177.5</ele>
<time>2012-03-24T16:50:02.000Z</time>
</trkpt>
<trkpt lat="43.55188" lon="5.29164">
<ele>177.3</ele>
<time>2012-03-24T16:50:03.000Z</time>
</trkpt>
<trkpt lat="43.55192" lon="5.29155">
<ele>177.5</ele>
<time>2012-03-24T16:50:04.000Z</time>
</trkpt>
<trkpt lat="43.55196" lon="5.29145">
<ele>177.7</ele>
<time>2012-03-24T16:50:05.000Z</time>
</trkpt>
<trkpt lat="43.55199" lon="5.29137">
<ele>178</ele>
<time>2012-03-24T16:50:06.000Z</time>
</trkpt>
<trkpt lat="43.55204" lon="5.29128">
<ele>177.5</ele>
<time>2012-03-24T16:50:07.000Z</time>
</trkpt>
<trkpt lat="43.55208" lon="5.2912">
<ele>177.5</ele>
<time>2012-03-24T16:50:08.000Z</time>
</trkpt>
<trkpt lat="43.55212" lon="5.29111">
<ele>177.2</ele>
<time>2012-03-24T16:50:09.000Z</time>
</trkpt>
<trkpt lat="43.55216" lon="5.29103">
<ele>177.2</ele>
<time>2012-03-24T16:50:10.000Z</time>
</trkpt>
<trkpt lat="43.5522" lon="5.29094">
<ele>177.1</ele>
<time>2012-03-24T16:50:11.000Z</time>
</trkpt>
<trkpt lat="43.55224" lon="5.29085">
<ele>177.2</ele>
<time>2012-03-24T16:50:12.000Z</time>
</trkpt>
<trkpt lat="43.55226" lon="5.29076">
<ele>176.9</ele>
<time>2012-03-24T16:50:13.000Z</time>
</trkpt>
<trkpt lat="43.5523" lon="5.29068">
<ele>177.3</ele>
<time>2012-03-24T16:50:14.000Z</time>
</trkpt>
<trkpt lat="43.55234" lon="5.2906">
<ele>177.5</ele>
<time>2012-03-24T16:50:15.000Z</time>
</trkpt>
<trkpt lat="43.55238" lon="5.29052">
<ele>177.3</ele>
<time>2012-03-24T16:50:16.000Z</time>
</trkpt>
<trkpt lat="43.55241" lon="5.29042">
<ele>178.3</ele>
<time>2012-03-24T16:50:17.000Z</time>
</trkpt>
<trkpt lat="43.55242" lon="5.29034">
<ele>178</ele>
<time>2012-03-24T16:50:18.000Z</time>
</trkpt>
<trkpt lat="43.55246" lon="5.29025">
<ele>177.7</ele>
<time>2012-03-24T16:50:19.000Z</time>
</trkpt>
<trkpt lat="43.55249" lon="5.29018">
<ele>177.5</ele>
<time>2012-03-24T16:50:20.000Z</time>
</trkpt>
<trkpt lat="43.55251" lon="5.29011">
<ele>177.8</ele>
<time>2012-03-24T16:50:21.000Z</time>
</trkpt>
<trkpt lat="43.55255" lon="5.29004">
<ele>178.2</ele>
<time>2012-03-24T16:50:22.000Z</time>
</trkpt>
<trkpt lat="43.55258" lon="5.28997">
<ele>178.6</ele>
<time>2012-03-24T16:50:23.000Z</time>
</trkpt>
<trkpt lat="43.55261" lon="5.2899">
<ele>178.9</ele>
<time>2012-03-24T16:50:24.000Z</time>
</trkpt>
<trkpt lat="43.55262" lon="5.28982">
<ele>178.8</ele>
<time>2012-03-24T16:50:25.000Z</time>
</trkpt>
<trkpt lat="43.55265" lon="5.28974">
<ele>179.4</ele>
<time>2012-03-24T16:50:26.000Z</time>
</trkpt>
<trkpt lat="43.55267" lon="5.28965">
<ele>179.8</ele>
<time>2012-03-24T16:50:27.000Z</time>
</trkpt>
<trkpt lat="43.55269" lon="5.28956">
<ele>180.2</ele>
<time>2012-03-24T16:50:28.000Z</time>
</trkpt>
<trkpt lat="43.55271" lon="5.28949">
<ele>180</ele>
<time>2012-03-24T16:50:29.000Z</time>
</trkpt>
<trkpt lat="43.55272" lon="5.28942">
<ele>180.4</ele>
<time>2012-03-24T16:50:30.000Z</time>
</trkpt>
<trkpt lat="43.55275" lon="5.28934">
<ele>180.3</ele>
<time>2012-03-24T16:50:31.000Z</time>
</trkpt>
<trkpt lat="43.55277" lon="5.28926">
<ele>180.4</ele>
<time>2012-03-24T16:50:32.000Z</time>
</trkpt>
<trkpt lat="43.55281" lon="5.28918">
<ele>180</ele>
<time>2012-03-24T16:50:33.000Z</time>
</trkpt>
<trkpt lat="43.55284" lon="5.28912">
<ele>180.1</ele>
<time>2012-03-24T16:50:34.000Z</time>
</trkpt>
<trkpt lat="43.55286" lon="5.28905">
<ele>180.3</ele>
<time>2012-03-24T16:50:35.000Z</time>
</trkpt>
<trkpt lat="43.55289" lon="5.28898">
<ele>180.1</ele>
<time>2012-03-24T16:50:36.000Z</time>
</trkpt>
<trkpt lat="43.55292" lon="5.28891">
<ele>180.5</ele>
<time>2012-03-24T16:50:37.000Z</time>
</trkpt>
<trkpt lat="43.55294" lon="5.28884">
<ele>180.3</ele>
<time>2012-03-24T16:50:38.000Z</time>
</trkpt>
<trkpt lat="43.55297" lon="5.28878">
<ele>180.3</ele>
<time>2012-03-24T16:50:39.000Z</time>
</trkpt>
<trkpt lat="43.553" lon="5.28871">
<ele>180.2</ele>
<time>2012-03-24T16:50:40.000Z</time>
</trkpt>
<trkpt lat="43.55302" lon="5.28863">
<ele>180.3</ele>
<time>2012-03-24T16:50:41.000Z</time>
</trkpt>
<trkpt lat="43.55306" lon="5.28855">
<ele>180.4</ele>
<time>2012-03-24T16:50:42.000Z</time>
</trkpt>
<trkpt lat="43.55308" lon="5.28849">
<ele>180.6</ele>
<time>2012-03-24T16:50:43.000Z</time>
</trkpt>
<trkpt lat="43.55311" lon="5.28842">
<ele>180.8</ele>
<time>2012-03-24T16:50:44.000Z</time>
</trkpt>
<trkpt lat="43.55313" lon="5.28834">
<ele>180.5</ele>
<time>2012-03-24T16:50:45.000Z</time>
</trkpt>
<trkpt lat="43.55315" lon="5.28828">
<ele>180.4</ele>
<time>2012-03-24T16:50:46.000Z</time>
</trkpt>
<trkpt lat="43.55315" lon="5.28821">
<ele>180.3</ele>
<time>2012-03-24T16:50:47.000Z</time>
</trkpt>
<trkpt lat="43.55317" lon="5.28812">
<ele>180.4</ele>
<time>2012-03-24T16:50:48.000Z</time>
</trkpt>
<trkpt lat="43.55319" lon="5.28805">
<ele>180.3</ele>
<time>2012-03-24T16:50:49.000Z</time>
</trkpt>
<trkpt lat="43.5532" lon="5.28796">
<ele>180.3</ele>
<time>2012-03-24T16:50:50.000Z</time>
</trkpt>
<trkpt lat="43.55321" lon="5.28789">
<ele>180.1</ele>
<time>2012-03-24T16:50:51.000Z</time>
</trkpt>
<trkpt lat="43.55324" lon="5.28776">
<ele>180.3</ele>
<time>2012-03-24T16:50:53.000Z</time>
</trkpt>
<trkpt lat="43.55326" lon="5.28768">
<ele>180.5</ele>
<time>2012-03-24T16:50:54.000Z</time>
</trkpt>
<trkpt lat="43.55329" lon="5.2876">
<ele>180.4</ele>
<time>2012-03-24T16:50:55.000Z</time>
</trkpt>
<trkpt lat="43.55331" lon="5.28752">
<ele>180.3</ele>
<time>2012-03-24T16:50:56.000Z</time>
</trkpt>
<trkpt lat="43.55334" lon="5.28746">
<ele>180.2</ele>
<time>2012-03-24T16:50:57.000Z</time>
</trkpt>
<trkpt lat="43.55337" lon="5.28739">
<ele>180.2</ele>
<time>2012-03-24T16:50:58.000Z</time>
</trkpt>
<trkpt lat="43.5534" lon="5.28731">
<ele>180.4</ele>
<time>2012-03-24T16:50:59.000Z</time>
</trkpt>
<trkpt lat="43.55342" lon="5.28726">
<ele>181</ele>
<time>2012-03-24T16:51:00.000Z</time>
</trkpt>
<trkpt lat="43.55344" lon="5.28718">
<ele>180.9</ele>
<time>2012-03-24T16:51:01.000Z</time>
</trkpt>
<trkpt lat="43.55345" lon="5.28711">
<ele>181.4</ele>
<time>2012-03-24T16:51:02.000Z</time>
</trkpt>
<trkpt lat="43.55347" lon="5.28704">
<ele>181.6</ele>
<time>2012-03-24T16:51:03.000Z</time>
</trkpt>
<trkpt lat="43.55347" lon="5.28696">
<ele>182</ele>
<time>2012-03-24T16:51:04.000Z</time>
</trkpt>
<trkpt lat="43.55347" lon="5.28688">
<ele>182.2</ele>
<time>2012-03-24T16:51:05.000Z</time>
</trkpt>
<trkpt lat="43.55348" lon="5.2868">
<ele>182.2</ele>
<time>2012-03-24T16:51:06.000Z</time>
</trkpt>
<trkpt lat="43.55351" lon="5.28672">
<ele>182.1</ele>
<time>2012-03-24T16:51:07.000Z</time>
</trkpt>
<trkpt lat="43.55353" lon="5.28664">
<ele>181.6</ele>
<time>2012-03-24T16:51:08.000Z</time>
</trkpt>
<trkpt lat="43.55355" lon="5.28656">
<ele>181.3</ele>
<time>2012-03-24T16:51:09.000Z</time>
</trkpt>
<trkpt lat="43.55357" lon="5.28648">
<ele>181.6</ele>
<time>2012-03-24T16:51:10.000Z</time>
</trkpt>
<trkpt lat="43.55357" lon="5.28641">
<ele>181.8</ele>
<time>2012-03-24T16:51:11.000Z</time>
</trkpt>
<trkpt lat="43.55358" lon="5.28634">
<ele>182.3</ele>
<time>2012-03-24T16:51:12.000Z</time>
</trkpt>
<trkpt lat="43.55361" lon="5.28627">
<ele>182.2</ele>
<time>2012-03-24T16:51:13.000Z</time>
</trkpt>
<trkpt lat="43.55363" lon="5.2862">
<ele>181.9</ele>
<time>2012-03-24T16:51:14.000Z</time>
</trkpt>
<trkpt lat="43.55365" lon="5.28611">
<ele>181.9</ele>
<time>2012-03-24T16:51:15.000Z</time>
</trkpt>
<trkpt lat="43.55366" lon="5.28602">
<ele>181.8</ele>
<time>2012-03-24T16:51:16.000Z</time>
</trkpt>
<trkpt lat="43.55368" lon="5.28594">
<ele>181.6</ele>
<time>2012-03-24T16:51:17.000Z</time>
</trkpt>
<trkpt lat="43.55368" lon="5.28586">
<ele>182.3</ele>
<time>2012-03-24T16:51:18.000Z</time>
</trkpt>
<trkpt lat="43.55372" lon="5.2858">
<ele>182.9</ele>
<time>2012-03-24T16:51:19.000Z</time>
</trkpt>
<trkpt lat="43.55376" lon="5.28573">
<ele>183.2</ele>
<time>2012-03-24T16:51:20.000Z</time>
</trkpt>
<trkpt lat="43.55378" lon="5.28565">
<ele>183.6</ele>
<time>2012-03-24T16:51:21.000Z</time>
</trkpt>
<trkpt lat="43.5538" lon="5.28557">
<ele>184</ele>
<time>2012-03-24T16:51:22.000Z</time>
</trkpt>
<trkpt lat="43.55382" lon="5.28549">
<ele>184</ele>
<time>2012-03-24T16:51:23.000Z</time>
</trkpt>
<trkpt lat="43.55384" lon="5.28542">
<ele>184.3</ele>
<time>2012-03-24T16:51:24.000Z</time>
</trkpt>
<trkpt lat="43.55388" lon="5.28534">
<ele>184.2</ele>
<time>2012-03-24T16:51:25.000Z</time>
</trkpt>
<trkpt lat="43.55392" lon="5.28528">
<ele>184.3</ele>
<time>2012-03-24T16:51:26.000Z</time>
</trkpt>
<trkpt lat="43.55396" lon="5.28522">
<ele>184</ele>
<time>2012-03-24T16:51:27.000Z</time>
</trkpt>
<trkpt lat="43.554" lon="5.28514">
<ele>183.8</ele>
<time>2012-03-24T16:51:28.000Z</time>
</trkpt>
<trkpt lat="43.55404" lon="5.28507">
<ele>184.1</ele>
<time>2012-03-24T16:51:29.000Z</time>
</trkpt>
<trkpt lat="43.55408" lon="5.285">
<ele>184.1</ele>
<time>2012-03-24T16:51:30.000Z</time>
</trkpt>
<trkpt lat="43.55412" lon="5.28494">
<ele>184.2</ele>
<time>2012-03-24T16:51:31.000Z</time>
</trkpt>
<trkpt lat="43.55416" lon="5.28488">
<ele>184.4</ele>
<time>2012-03-24T16:51:32.000Z</time>
</trkpt>
<trkpt lat="43.5542" lon="5.28482">
<ele>184.3</ele>
<time>2012-03-24T16:51:33.000Z</time>
</trkpt>
<trkpt lat="43.55425" lon="5.28477">
<ele>184.1</ele>
<time>2012-03-24T16:51:34.000Z</time>
</trkpt>
<trkpt lat="43.55432" lon="5.28472">
<ele>184.1</ele>
<time>2012-03-24T16:51:35.000Z</time>
</trkpt>
<trkpt lat="43.55436" lon="5.28466">
<ele>184.4</ele>
<time>2012-03-24T16:51:36.000Z</time>
</trkpt>
<trkpt lat="43.55443" lon="5.2846">
<ele>184.8</ele>
<time>2012-03-24T16:51:37.000Z</time>
</trkpt>
<trkpt lat="43.55448" lon="5.28454">
<ele>184.8</ele>
<time>2012-03-24T16:51:38.000Z</time>
</trkpt>
<trkpt lat="43.55452" lon="5.28449">
<ele>184.4</ele>
<time>2012-03-24T16:51:39.000Z</time>
</trkpt>
<trkpt lat="43.55456" lon="5.28444">
<ele>184.2</ele>
<time>2012-03-24T16:51:40.000Z</time>
</trkpt>
<trkpt lat="43.5546" lon="5.28438">
<ele>184.1</ele>
<time>2012-03-24T16:51:41.000Z</time>
</trkpt>
<trkpt lat="43.55465" lon="5.28433">
<ele>184</ele>
<time>2012-03-24T16:51:42.000Z</time>
</trkpt>
<trkpt lat="43.55469" lon="5.28429">
<ele>183.7</ele>
<time>2012-03-24T16:51:43.000Z</time>
</trkpt>
<trkpt lat="43.55474" lon="5.28424">
<ele>184</ele>
<time>2012-03-24T16:51:44.000Z</time>
</trkpt>
<trkpt lat="43.55478" lon="5.2842">
<ele>183.6</ele>
<time>2012-03-24T16:51:45.000Z</time>
</trkpt>
<trkpt lat="43.55483" lon="5.28415">
<ele>183.7</ele>
<time>2012-03-24T16:51:46.000Z</time>
</trkpt>
<trkpt lat="43.55488" lon="5.28411">
<ele>183.7</ele>
<time>2012-03-24T16:51:47.000Z</time>
</trkpt>
<trkpt lat="43.55494" lon="5.28406">
<ele>183.8</ele>
<time>2012-03-24T16:51:48.000Z</time>
</trkpt>
<trkpt lat="43.55522" lon="5.28378">
<ele>183.9</ele>
<time>2012-03-24T16:51:54.000Z</time>
</trkpt>
<trkpt lat="43.55526" lon="5.28374">
<ele>184</ele>
<time>2012-03-24T16:51:55.000Z</time>
</trkpt>
<trkpt lat="43.5553" lon="5.2837">
<ele>184.5</ele>
<time>2012-03-24T16:51:56.000Z</time>
</trkpt>
<trkpt lat="43.55536" lon="5.28365">
<ele>185.3</ele>
<time>2012-03-24T16:51:57.000Z</time>
</trkpt>
<trkpt lat="43.55541" lon="5.2836">
<ele>185.3</ele>
<time>2012-03-24T16:51:58.000Z</time>
</trkpt>
<trkpt lat="43.55546" lon="5.28356">
<ele>185.4</ele>
<time>2012-03-24T16:51:59.000Z</time>
</trkpt>
<trkpt lat="43.55552" lon="5.2835">
<ele>185.3</ele>
<time>2012-03-24T16:52:00.000Z</time>
</trkpt>
<trkpt lat="43.55556" lon="5.28345">
<ele>184.9</ele>
<time>2012-03-24T16:52:01.000Z</time>
</trkpt>
<trkpt lat="43.5556" lon="5.28338">
<ele>184.9</ele>
<time>2012-03-24T16:52:02.000Z</time>
</trkpt>
<trkpt lat="43.55566" lon="5.28332">
<ele>185.3</ele>
<time>2012-03-24T16:52:03.000Z</time>
</trkpt>
<trkpt lat="43.55569" lon="5.28325">
<ele>185.7</ele>
<time>2012-03-24T16:52:04.000Z</time>
</trkpt>
<trkpt lat="43.55572" lon="5.28318">
<ele>186</ele>
<time>2012-03-24T16:52:05.000Z</time>
</trkpt>
<trkpt lat="43.55575" lon="5.28312">
<ele>186.3</ele>
<time>2012-03-24T16:52:06.000Z</time>
</trkpt>
<trkpt lat="43.55578" lon="5.28307">
<ele>186.1</ele>
<time>2012-03-24T16:52:07.000Z</time>
</trkpt>
<trkpt lat="43.55582" lon="5.28299">
<ele>186.8</ele>
<time>2012-03-24T16:52:08.000Z</time>
</trkpt>
<trkpt lat="43.55585" lon="5.28292">
<ele>186.8</ele>
<time>2012-03-24T16:52:09.000Z</time>
</trkpt>
<trkpt lat="43.55589" lon="5.28284">
<ele>186.6</ele>
<time>2012-03-24T16:52:10.000Z</time>
</trkpt>
<trkpt lat="43.55592" lon="5.28276">
<ele>186.6</ele>
<time>2012-03-24T16:52:11.000Z</time>
</trkpt>
<trkpt lat="43.55594" lon="5.28269">
<ele>187</ele>
<time>2012-03-24T16:52:12.000Z</time>
</trkpt>
<trkpt lat="43.55595" lon="5.28259">
<ele>186.4</ele>
<time>2012-03-24T16:52:13.000Z</time>
</trkpt>
<trkpt lat="43.55596" lon="5.28251">
<ele>185.9</ele>
<time>2012-03-24T16:52:14.000Z</time>
</trkpt>
<trkpt lat="43.55596" lon="5.28242">
<ele>186.5</ele>
<time>2012-03-24T16:52:15.000Z</time>
</trkpt>
<trkpt lat="43.55598" lon="5.28234">
<ele>185.7</ele>
<time>2012-03-24T16:52:16.000Z</time>
</trkpt>
<trkpt lat="43.55599" lon="5.28226">
<ele>185.7</ele>
<time>2012-03-24T16:52:17.000Z</time>
</trkpt>
<trkpt lat="43.556" lon="5.28217">
<ele>185.6</ele>
<time>2012-03-24T16:52:18.000Z</time>
</trkpt>
<trkpt lat="43.55601" lon="5.28209">
<ele>185.5</ele>
<time>2012-03-24T16:52:19.000Z</time>
</trkpt>
<trkpt lat="43.55601" lon="5.282">
<ele>184.8</ele>
<time>2012-03-24T16:52:20.000Z</time>
</trkpt>
<trkpt lat="43.55598" lon="5.28193">
<ele>184.8</ele>
<time>2012-03-24T16:52:21.000Z</time>
</trkpt>
<trkpt lat="43.55598" lon="5.28185">
<ele>184.7</ele>
<time>2012-03-24T16:52:22.000Z</time>
</trkpt>
<trkpt lat="43.55598" lon="5.28176">
<ele>184.3</ele>
<time>2012-03-24T16:52:23.000Z</time>
</trkpt>
<trkpt lat="43.55595" lon="5.28168">
<ele>184.4</ele>
<time>2012-03-24T16:52:24.000Z</time>
</trkpt>
<trkpt lat="43.55594" lon="5.2816">
<ele>184.1</ele>
<time>2012-03-24T16:52:25.000Z</time>
</trkpt>
<trkpt lat="43.55592" lon="5.28154">
<ele>184.5</ele>
<time>2012-03-24T16:52:26.000Z</time>
</trkpt>
<trkpt lat="43.55591" lon="5.28144">
<ele>184.4</ele>
<time>2012-03-24T16:52:27.000Z</time>
</trkpt>
<trkpt lat="43.55587" lon="5.28135">
<ele>183.4</ele>
<time>2012-03-24T16:52:28.000Z</time>
</trkpt>
<trkpt lat="43.55585" lon="5.28127">
<ele>183.5</ele>
<time>2012-03-24T16:52:29.000Z</time>
</trkpt>
<trkpt lat="43.55584" lon="5.28119">
<ele>182.7</ele>
<time>2012-03-24T16:52:30.000Z</time>
</trkpt>
<trkpt lat="43.55582" lon="5.2811">
<ele>183.4</ele>
<time>2012-03-24T16:52:31.000Z</time>
</trkpt>
<trkpt lat="43.55579" lon="5.28102">
<ele>183.6</ele>
<time>2012-03-24T16:52:32.000Z</time>
</trkpt>
<trkpt lat="43.55576" lon="5.28093">
<ele>183.9</ele>
<time>2012-03-24T16:52:33.000Z</time>
</trkpt>
<trkpt lat="43.55574" lon="5.28085">
<ele>183.8</ele>
<time>2012-03-24T16:52:34.000Z</time>
</trkpt>
<trkpt lat="43.55571" lon="5.28077">
<ele>184.5</ele>
<time>2012-03-24T16:52:35.000Z</time>
</trkpt>
<trkpt lat="43.55569" lon="5.28069">
<ele>184.2</ele>
<time>2012-03-24T16:52:36.000Z</time>
</trkpt>
<trkpt lat="43.55566" lon="5.28062">
<ele>184.6</ele>
<time>2012-03-24T16:52:37.000Z</time>
</trkpt>
<trkpt lat="43.55563" lon="5.28052">
<ele>183.9</ele>
<time>2012-03-24T16:52:38.000Z</time>
</trkpt>
<trkpt lat="43.5556" lon="5.28043">
<ele>183.5</ele>
<time>2012-03-24T16:52:39.000Z</time>
</trkpt>
<trkpt lat="43.55558" lon="5.28035">
<ele>183.8</ele>
<time>2012-03-24T16:52:40.000Z</time>
</trkpt>
<trkpt lat="43.55555" lon="5.28025">
<ele>184.5</ele>
<time>2012-03-24T16:52:41.000Z</time>
</trkpt>
<trkpt lat="43.55552" lon="5.28013">
<ele>186.4</ele>
<time>2012-03-24T16:52:42.000Z</time>
</trkpt>
<trkpt lat="43.55546" lon="5.28003">
<ele>186.7</ele>
<time>2012-03-24T16:52:43.000Z</time>
</trkpt>
<trkpt lat="43.55544" lon="5.27994">
<ele>187</ele>
<time>2012-03-24T16:52:44.000Z</time>
</trkpt>
<trkpt lat="43.55549" lon="5.2798">
<ele>185.4</ele>
<time>2012-03-24T16:52:45.000Z</time>
</trkpt>
<trkpt lat="43.55547" lon="5.2797">
<ele>185.7</ele>
<time>2012-03-24T16:52:46.000Z</time>
</trkpt>
<trkpt lat="43.55546" lon="5.2796">
<ele>185.6</ele>
<time>2012-03-24T16:52:47.000Z</time>
</trkpt>
<trkpt lat="43.55544" lon="5.27951">
<ele>184.8</ele>
<time>2012-03-24T16:52:48.000Z</time>
</trkpt>
<trkpt lat="43.55543" lon="5.2794">
<ele>184.5</ele>
<time>2012-03-24T16:52:49.000Z</time>
</trkpt>
<trkpt lat="43.55543" lon="5.27928">
<ele>183.8</ele>
<time>2012-03-24T16:52:50.000Z</time>
</trkpt>
<trkpt lat="43.55542" lon="5.27918">
<ele>183.4</ele>
<time>2012-03-24T16:52:51.000Z</time>
</trkpt>
<trkpt lat="43.55542" lon="5.27908">
<ele>183</ele>
<time>2012-03-24T16:52:52.000Z</time>
</trkpt>
<trkpt lat="43.55542" lon="5.27898">
<ele>182.3</ele>
<time>2012-03-24T16:52:53.000Z</time>
</trkpt>
<trkpt lat="43.55542" lon="5.27888">
<ele>181.8</ele>
<time>2012-03-24T16:52:54.000Z</time>
</trkpt>
<trkpt lat="43.55541" lon="5.27876">
<ele>181.4</ele>
<time>2012-03-24T16:52:55.000Z</time>
</trkpt>
<trkpt lat="43.5554" lon="5.27865">
<ele>181</ele>
<time>2012-03-24T16:52:56.000Z</time>
</trkpt>
<trkpt lat="43.55541" lon="5.27854">
<ele>180.5</ele>
<time>2012-03-24T16:52:57.000Z</time>
</trkpt>
<trkpt lat="43.55539" lon="5.27842">
<ele>180.4</ele>
<time>2012-03-24T16:52:58.000Z</time>
</trkpt>
<trkpt lat="43.55539" lon="5.2783">
<ele>180.3</ele>
<time>2012-03-24T16:52:59.000Z</time>
</trkpt>
<trkpt lat="43.55538" lon="5.27818">
<ele>180.3</ele>
<time>2012-03-24T16:53:00.000Z</time>
</trkpt>
<trkpt lat="43.55538" lon="5.27806">
<ele>179.7</ele>
<time>2012-03-24T16:53:01.000Z</time>
</trkpt>
<trkpt lat="43.55538" lon="5.27793">
<ele>180.1</ele>
<time>2012-03-24T16:53:02.000Z</time>
</trkpt>
<trkpt lat="43.55537" lon="5.27781">
<ele>179.8</ele>
<time>2012-03-24T16:53:03.000Z</time>
</trkpt>
<trkpt lat="43.55537" lon="5.2777">
<ele>178.9</ele>
<time>2012-03-24T16:53:04.000Z</time>
</trkpt>
<trkpt lat="43.55536" lon="5.27756">
<ele>178.3</ele>
<time>2012-03-24T16:53:05.000Z</time>
</trkpt>
<trkpt lat="43.55536" lon="5.27743">
<ele>178.1</ele>
<time>2012-03-24T16:53:06.000Z</time>
</trkpt>
<trkpt lat="43.55535" lon="5.27728">
<ele>178</ele>
<time>2012-03-24T16:53:07.000Z</time>
</trkpt>
<trkpt lat="43.55536" lon="5.27713">
<ele>178.1</ele>
<time>2012-03-24T16:53:08.000Z</time>
</trkpt>
<trkpt lat="43.55536" lon="5.27698">
<ele>178.4</ele>
<time>2012-03-24T16:53:09.000Z</time>
</trkpt>
<trkpt lat="43.55534" lon="5.27685">
<ele>178.6</ele>
<time>2012-03-24T16:53:10.000Z</time>
</trkpt>
<trkpt lat="43.55534" lon="5.27672">
<ele>178.3</ele>
<time>2012-03-24T16:53:11.000Z</time>
</trkpt>
<trkpt lat="43.55533" lon="5.27657">
<ele>177.6</ele>
<time>2012-03-24T16:53:12.000Z</time>
</trkpt>
<trkpt lat="43.55532" lon="5.27641">
<ele>176.7</ele>
<time>2012-03-24T16:53:13.000Z</time>
</trkpt>
<trkpt lat="43.55531" lon="5.27627">
<ele>175.9</ele>
<time>2012-03-24T16:53:14.000Z</time>
</trkpt>
<trkpt lat="43.5553" lon="5.27612">
<ele>175.8</ele>
<time>2012-03-24T16:53:15.000Z</time>
</trkpt>
<trkpt lat="43.5553" lon="5.27598">
<ele>175.4</ele>
<time>2012-03-24T16:53:16.000Z</time>
</trkpt>
<trkpt lat="43.5553" lon="5.27583">
<ele>174.7</ele>
<time>2012-03-24T16:53:17.000Z</time>
</trkpt>
<trkpt lat="43.55529" lon="5.27567">
<ele>174.4</ele>
<time>2012-03-24T16:53:18.000Z</time>
</trkpt>
<trkpt lat="43.55529" lon="5.27551">
<ele>174</ele>
<time>2012-03-24T16:53:19.000Z</time>
</trkpt>
<trkpt lat="43.55528" lon="5.27536">
<ele>174.4</ele>
<time>2012-03-24T16:53:20.000Z</time>
</trkpt>
<trkpt lat="43.55527" lon="5.27521">
<ele>173.8</ele>
<time>2012-03-24T16:53:21.000Z</time>
</trkpt>
<trkpt lat="43.55526" lon="5.27506">
<ele>173.7</ele>
<time>2012-03-24T16:53:22.000Z</time>
</trkpt>
<trkpt lat="43.55525" lon="5.2749">
<ele>173.7</ele>
<time>2012-03-24T16:53:23.000Z</time>
</trkpt>
<trkpt lat="43.55524" lon="5.27474">
<ele>174.3</ele>
<time>2012-03-24T16:53:24.000Z</time>
</trkpt>
<trkpt lat="43.55524" lon="5.27459">
<ele>174.2</ele>
<time>2012-03-24T16:53:25.000Z</time>
</trkpt>
<trkpt lat="43.55523" lon="5.27442">
<ele>173.8</ele>
<time>2012-03-24T16:53:26.000Z</time>
</trkpt>
<trkpt lat="43.55523" lon="5.27425">
<ele>173.5</ele>
<time>2012-03-24T16:53:27.000Z</time>
</trkpt>
<trkpt lat="43.55523" lon="5.27407">
<ele>173.2</ele>
<time>2012-03-24T16:53:28.000Z</time>
</trkpt>
<trkpt lat="43.55523" lon="5.2739">
<ele>173</ele>
<time>2012-03-24T16:53:29.000Z</time>
</trkpt>
<trkpt lat="43.55522" lon="5.27373">
<ele>172.7</ele>
<time>2012-03-24T16:53:30.000Z</time>
</trkpt>
<trkpt lat="43.55522" lon="5.27357">
<ele>172.7</ele>
<time>2012-03-24T16:53:31.000Z</time>
</trkpt>
<trkpt lat="43.55522" lon="5.2734">
<ele>172.8</ele>
<time>2012-03-24T16:53:32.000Z</time>
</trkpt>
<trkpt lat="43.55522" lon="5.27326">
<ele>172.9</ele>
<time>2012-03-24T16:53:33.000Z</time>
</trkpt>
<trkpt lat="43.55521" lon="5.27309">
<ele>173.1</ele>
<time>2012-03-24T16:53:34.000Z</time>
</trkpt>
<trkpt lat="43.55522" lon="5.27294">
<ele>172.3</ele>
<time>2012-03-24T16:53:35.000Z</time>
</trkpt>
<trkpt lat="43.55522" lon="5.27279">
<ele>172</ele>
<time>2012-03-24T16:53:36.000Z</time>
</trkpt>
<trkpt lat="43.55522" lon="5.27262">
<ele>172.1</ele>
<time>2012-03-24T16:53:37.000Z</time>
</trkpt>
<trkpt lat="43.55524" lon="5.27247">
<ele>170.2</ele>
<time>2012-03-24T16:53:38.000Z</time>
</trkpt>
<trkpt lat="43.55524" lon="5.27231">
<ele>169.8</ele>
<time>2012-03-24T16:53:39.000Z</time>
</trkpt>
<trkpt lat="43.55525" lon="5.27215">
<ele>169.7</ele>
<time>2012-03-24T16:53:40.000Z</time>
</trkpt>
<trkpt lat="43.55526" lon="5.27202">
<ele>169.3</ele>
<time>2012-03-24T16:53:41.000Z</time>
</trkpt>
<trkpt lat="43.55526" lon="5.27187">
<ele>168.7</ele>
<time>2012-03-24T16:53:42.000Z</time>
</trkpt>
<trkpt lat="43.55526" lon="5.27174">
<ele>168.6</ele>
<time>2012-03-24T16:53:43.000Z</time>
</trkpt>
<trkpt lat="43.55526" lon="5.27161">
<ele>168</ele>
<time>2012-03-24T16:53:44.000Z</time>
</trkpt>
<trkpt lat="43.55527" lon="5.27147">
<ele>167.2</ele>
<time>2012-03-24T16:53:45.000Z</time>
</trkpt>
<trkpt lat="43.55527" lon="5.27136">
<ele>166.8</ele>
<time>2012-03-24T16:53:46.000Z</time>
</trkpt>
<trkpt lat="43.55528" lon="5.27124">
<ele>166.6</ele>
<time>2012-03-24T16:53:47.000Z</time>
</trkpt>
<trkpt lat="43.5553" lon="5.27113">
<ele>166</ele>
<time>2012-03-24T16:53:48.000Z</time>
</trkpt>
<trkpt lat="43.55531" lon="5.27102">
<ele>165.9</ele>
<time>2012-03-24T16:53:49.000Z</time>
</trkpt>
<trkpt lat="43.55532" lon="5.27091">
<ele>166.1</ele>
<time>2012-03-24T16:53:50.000Z</time>
</trkpt>
<trkpt lat="43.55534" lon="5.27081">
<ele>166</ele>
<time>2012-03-24T16:53:51.000Z</time>
</trkpt>
<trkpt lat="43.55536" lon="5.27071">
<ele>166</ele>
<time>2012-03-24T16:53:52.000Z</time>
</trkpt>
<trkpt lat="43.55539" lon="5.2706">
<ele>166.3</ele>
<time>2012-03-24T16:53:53.000Z</time>
</trkpt>
<trkpt lat="43.55541" lon="5.2705">
<ele>165.6</ele>
<time>2012-03-24T16:53:54.000Z</time>
</trkpt>
<trkpt lat="43.55543" lon="5.27039">
<ele>165</ele>
<time>2012-03-24T16:53:55.000Z</time>
</trkpt>
<trkpt lat="43.55546" lon="5.27029">
<ele>164.1</ele>
<time>2012-03-24T16:53:56.000Z</time>
</trkpt>
<trkpt lat="43.55549" lon="5.2702">
<ele>161.6</ele>
<time>2012-03-24T16:53:57.000Z</time>
</trkpt>
<trkpt lat="43.55552" lon="5.2701">
<ele>160.7</ele>
<time>2012-03-24T16:53:58.000Z</time>
</trkpt>
<trkpt lat="43.55555" lon="5.27001">
<ele>159</ele>
<time>2012-03-24T16:53:59.000Z</time>
</trkpt>
<trkpt lat="43.55557" lon="5.26992">
<ele>157.8</ele>
<time>2012-03-24T16:54:00.000Z</time>
</trkpt>
<trkpt lat="43.5556" lon="5.26982">
<ele>158</ele>
<time>2012-03-24T16:54:01.000Z</time>
</trkpt>
<trkpt lat="43.55564" lon="5.26973">
<ele>157.8</ele>
<time>2012-03-24T16:54:02.000Z</time>
</trkpt>
<trkpt lat="43.55567" lon="5.26964">
<ele>158.3</ele>
<time>2012-03-24T16:54:03.000Z</time>
</trkpt>
<trkpt lat="43.5557" lon="5.26956">
<ele>158.4</ele>
<time>2012-03-24T16:54:04.000Z</time>
</trkpt>
<trkpt lat="43.55572" lon="5.26947">
<ele>157.9</ele>
<time>2012-03-24T16:54:05.000Z</time>
</trkpt>
<trkpt lat="43.55575" lon="5.26938">
<ele>158.2</ele>
<time>2012-03-24T16:54:06.000Z</time>
</trkpt>
<trkpt lat="43.55579" lon="5.26931">
<ele>158</ele>
<time>2012-03-24T16:54:07.000Z</time>
</trkpt>
<trkpt lat="43.55582" lon="5.26923">
<ele>158.2</ele>
<time>2012-03-24T16:54:08.000Z</time>
</trkpt>
<trkpt lat="43.55585" lon="5.26915">
<ele>158.4</ele>
<time>2012-03-24T16:54:09.000Z</time>
</trkpt>
<trkpt lat="43.55588" lon="5.26906">
<ele>158.4</ele>
<time>2012-03-24T16:54:10.000Z</time>
</trkpt>
<trkpt lat="43.5559" lon="5.26898">
<ele>158.5</ele>
<time>2012-03-24T16:54:11.000Z</time>
</trkpt>
<trkpt lat="43.55593" lon="5.26889">
<ele>158.5</ele>
<time>2012-03-24T16:54:12.000Z</time>
</trkpt>
<trkpt lat="43.55596" lon="5.26881">
<ele>158.4</ele>
<time>2012-03-24T16:54:13.000Z</time>
</trkpt>
<trkpt lat="43.55598" lon="5.26874">
<ele>158.5</ele>
<time>2012-03-24T16:54:14.000Z</time>
</trkpt>
<trkpt lat="43.55602" lon="5.26865">
<ele>158.5</ele>
<time>2012-03-24T16:54:15.000Z</time>
</trkpt>
<trkpt lat="43.55604" lon="5.26857">
<ele>158.4</ele>
<time>2012-03-24T16:54:16.000Z</time>
</trkpt>
<trkpt lat="43.55608" lon="5.26847">
<ele>158.4</ele>
<time>2012-03-24T16:54:17.000Z</time>
</trkpt>
<trkpt lat="43.55611" lon="5.26838">
<ele>158.3</ele>
<time>2012-03-24T16:54:18.000Z</time>
</trkpt>
<trkpt lat="43.55614" lon="5.26829">
<ele>157.6</ele>
<time>2012-03-24T16:54:19.000Z</time>
</trkpt>
<trkpt lat="43.55618" lon="5.26822">
<ele>157.7</ele>
<time>2012-03-24T16:54:20.000Z</time>
</trkpt>
<trkpt lat="43.55621" lon="5.26814">
<ele>158.1</ele>
<time>2012-03-24T16:54:21.000Z</time>
</trkpt>
<trkpt lat="43.55624" lon="5.26807">
<ele>158.1</ele>
<time>2012-03-24T16:54:22.000Z</time>
</trkpt>
<trkpt lat="43.55628" lon="5.26799">
<ele>158.1</ele>
<time>2012-03-24T16:54:23.000Z</time>
</trkpt>
<trkpt lat="43.55631" lon="5.26792">
<ele>157.7</ele>
<time>2012-03-24T16:54:24.000Z</time>
</trkpt>
<trkpt lat="43.55636" lon="5.26786">
<ele>157.7</ele>
<time>2012-03-24T16:54:25.000Z</time>
</trkpt>
<trkpt lat="43.5564" lon="5.26778">
<ele>157.4</ele>
<time>2012-03-24T16:54:26.000Z</time>
</trkpt>
<trkpt lat="43.55644" lon="5.26772">
<ele>157.6</ele>
<time>2012-03-24T16:54:27.000Z</time>
</trkpt>
<trkpt lat="43.55647" lon="5.26765">
<ele>157.8</ele>
<time>2012-03-24T16:54:28.000Z</time>
</trkpt>
<trkpt lat="43.55651" lon="5.26759">
<ele>157.6</ele>
<time>2012-03-24T16:54:29.000Z</time>
</trkpt>
<trkpt lat="43.55655" lon="5.26753">
<ele>157.9</ele>
<time>2012-03-24T16:54:30.000Z</time>
</trkpt>
<trkpt lat="43.55659" lon="5.26746">
<ele>158.3</ele>
<time>2012-03-24T16:54:31.000Z</time>
</trkpt>
<trkpt lat="43.55662" lon="5.2674">
<ele>158.9</ele>
<time>2012-03-24T16:54:32.000Z</time>
</trkpt>
<trkpt lat="43.55665" lon="5.26734">
<ele>159.6</ele>
<time>2012-03-24T16:54:33.000Z</time>
</trkpt>
<trkpt lat="43.55668" lon="5.26728">
<ele>159.7</ele>
<time>2012-03-24T16:54:34.000Z</time>
</trkpt>
<trkpt lat="43.55671" lon="5.2672">
<ele>159.7</ele>
<time>2012-03-24T16:54:35.000Z</time>
</trkpt>
<trkpt lat="43.55674" lon="5.26713">
<ele>160.2</ele>
<time>2012-03-24T16:54:36.000Z</time>
</trkpt>
<trkpt lat="43.55677" lon="5.26705">
<ele>160.4</ele>
<time>2012-03-24T16:54:37.000Z</time>
</trkpt>
<trkpt lat="43.5568" lon="5.26696">
<ele>160.4</ele>
<time>2012-03-24T16:54:38.000Z</time>
</trkpt>
<trkpt lat="43.55681" lon="5.26688">
<ele>160.3</ele>
<time>2012-03-24T16:54:39.000Z</time>
</trkpt>
<trkpt lat="43.55683" lon="5.2668">
<ele>160.6</ele>
<time>2012-03-24T16:54:40.000Z</time>
</trkpt>
<trkpt lat="43.55686" lon="5.26671">
<ele>160.4</ele>
<time>2012-03-24T16:54:41.000Z</time>
</trkpt>
<trkpt lat="43.55688" lon="5.26662">
<ele>160.3</ele>
<time>2012-03-24T16:54:42.000Z</time>
</trkpt>
<trkpt lat="43.55691" lon="5.26653">
<ele>160.5</ele>
<time>2012-03-24T16:54:43.000Z</time>
</trkpt>
<trkpt lat="43.55694" lon="5.26645">
<ele>160.5</ele>
<time>2012-03-24T16:54:44.000Z</time>
</trkpt>
<trkpt lat="43.55696" lon="5.26636">
<ele>160.6</ele>
<time>2012-03-24T16:54:45.000Z</time>
</trkpt>
<trkpt lat="43.55699" lon="5.26626">
<ele>160.7</ele>
<time>2012-03-24T16:54:46.000Z</time>
</trkpt>
<trkpt lat="43.55702" lon="5.26618">
<ele>160.9</ele>
<time>2012-03-24T16:54:47.000Z</time>
</trkpt>
<trkpt lat="43.55704" lon="5.2661">
<ele>161.4</ele>
<time>2012-03-24T16:54:48.000Z</time>
</trkpt>
<trkpt lat="43.55707" lon="5.26602">
<ele>161.3</ele>
<time>2012-03-24T16:54:49.000Z</time>
</trkpt>
<trkpt lat="43.5571" lon="5.26593">
<ele>160.9</ele>
<time>2012-03-24T16:54:50.000Z</time>
</trkpt>
<trkpt lat="43.55713" lon="5.26587">
<ele>160.9</ele>
<time>2012-03-24T16:54:51.000Z</time>
</trkpt>
<trkpt lat="43.55717" lon="5.2658">
<ele>160.8</ele>
<time>2012-03-24T16:54:52.000Z</time>
</trkpt>
<trkpt lat="43.55721" lon="5.26573">
<ele>160.4</ele>
<time>2012-03-24T16:54:53.000Z</time>
</trkpt>
<trkpt lat="43.55725" lon="5.26565">
<ele>160.4</ele>
<time>2012-03-24T16:54:54.000Z</time>
</trkpt>
<trkpt lat="43.55727" lon="5.26558">
<ele>160.3</ele>
<time>2012-03-24T16:54:55.000Z</time>
</trkpt>
<trkpt lat="43.5573" lon="5.2655">
<ele>160.4</ele>
<time>2012-03-24T16:54:56.000Z</time>
</trkpt>
<trkpt lat="43.55733" lon="5.26542">
<ele>160.6</ele>
<time>2012-03-24T16:54:57.000Z</time>
</trkpt>
<trkpt lat="43.55736" lon="5.26535">
<ele>160.8</ele>
<time>2012-03-24T16:54:58.000Z</time>
</trkpt>
<trkpt lat="43.55739" lon="5.26528">
<ele>160.8</ele>
<time>2012-03-24T16:54:59.000Z</time>
</trkpt>
<trkpt lat="43.55742" lon="5.2652">
<ele>160.4</ele>
<time>2012-03-24T16:55:00.000Z</time>
</trkpt>
<trkpt lat="43.55744" lon="5.26513">
<ele>160.5</ele>
<time>2012-03-24T16:55:01.000Z</time>
</trkpt>
<trkpt lat="43.55747" lon="5.26507">
<ele>160.8</ele>
<time>2012-03-24T16:55:02.000Z</time>
</trkpt>
<trkpt lat="43.5575" lon="5.26501">
<ele>160.6</ele>
<time>2012-03-24T16:55:03.000Z</time>
</trkpt>
<trkpt lat="43.55753" lon="5.26493">
<ele>160.8</ele>
<time>2012-03-24T16:55:04.000Z</time>
</trkpt>
<trkpt lat="43.55756" lon="5.26486">
<ele>160</ele>
<time>2012-03-24T16:55:05.000Z</time>
</trkpt>
<trkpt lat="43.55758" lon="5.26479">
<ele>160.3</ele>
<time>2012-03-24T16:55:06.000Z</time>
</trkpt>
<trkpt lat="43.55761" lon="5.26473">
<ele>160.1</ele>
<time>2012-03-24T16:55:07.000Z</time>
</trkpt>
<trkpt lat="43.55764" lon="5.26465">
<ele>160.1</ele>
<time>2012-03-24T16:55:08.000Z</time>
</trkpt>
<trkpt lat="43.55766" lon="5.26459">
<ele>160</ele>
<time>2012-03-24T16:55:09.000Z</time>
</trkpt>
<trkpt lat="43.55768" lon="5.26452">
<ele>159.6</ele>
<time>2012-03-24T16:55:10.000Z</time>
</trkpt>
<trkpt lat="43.5577" lon="5.26445">
<ele>159.7</ele>
<time>2012-03-24T16:55:11.000Z</time>
</trkpt>
<trkpt lat="43.55773" lon="5.26438">
<ele>159.9</ele>
<time>2012-03-24T16:55:12.000Z</time>
</trkpt>
<trkpt lat="43.55775" lon="5.26432">
<ele>160.1</ele>
<time>2012-03-24T16:55:13.000Z</time>
</trkpt>
<trkpt lat="43.55778" lon="5.26424">
<ele>160.8</ele>
<time>2012-03-24T16:55:14.000Z</time>
</trkpt>
<trkpt lat="43.5578" lon="5.26419">
<ele>161.2</ele>
<time>2012-03-24T16:55:15.000Z</time>
</trkpt>
<trkpt lat="43.55782" lon="5.26412">
<ele>160.9</ele>
<time>2012-03-24T16:55:16.000Z</time>
</trkpt>
<trkpt lat="43.55784" lon="5.26406">
<ele>161.5</ele>
<time>2012-03-24T16:55:17.000Z</time>
</trkpt>
<trkpt lat="43.55786" lon="5.264">
<ele>161.8</ele>
<time>2012-03-24T16:55:18.000Z</time>
</trkpt>
<trkpt lat="43.55788" lon="5.26393">
<ele>161.8</ele>
<time>2012-03-24T16:55:19.000Z</time>
</trkpt>
<trkpt lat="43.5579" lon="5.26386">
<ele>162</ele>
<time>2012-03-24T16:55:20.000Z</time>
</trkpt>
<trkpt lat="43.55793" lon="5.2638">
<ele>162.2</ele>
<time>2012-03-24T16:55:21.000Z</time>
</trkpt>
<trkpt lat="43.55795" lon="5.26372">
<ele>162.4</ele>
<time>2012-03-24T16:55:22.000Z</time>
</trkpt>
<trkpt lat="43.55797" lon="5.26365">
<ele>162.2</ele>
<time>2012-03-24T16:55:23.000Z</time>
</trkpt>
<trkpt lat="43.55799" lon="5.26358">
<ele>161.9</ele>
<time>2012-03-24T16:55:24.000Z</time>
</trkpt>
<trkpt lat="43.55801" lon="5.2635">
<ele>162.1</ele>
<time>2012-03-24T16:55:25.000Z</time>
</trkpt>
<trkpt lat="43.55803" lon="5.26343">
<ele>162</ele>
<time>2012-03-24T16:55:26.000Z</time>
</trkpt>
<trkpt lat="43.55805" lon="5.26335">
<ele>161.9</ele>
<time>2012-03-24T16:55:27.000Z</time>
</trkpt>
<trkpt lat="43.55806" lon="5.26327">
<ele>161.7</ele>
<time>2012-03-24T16:55:28.000Z</time>
</trkpt>
<trkpt lat="43.55808" lon="5.26319">
<ele>161.5</ele>
<time>2012-03-24T16:55:29.000Z</time>
</trkpt>
<trkpt lat="43.5581" lon="5.2631">
<ele>161.4</ele>
<time>2012-03-24T16:55:30.000Z</time>
</trkpt>
<trkpt lat="43.55812" lon="5.26301">
<ele>161</ele>
<time>2012-03-24T16:55:31.000Z</time>
</trkpt>
<trkpt lat="43.55813" lon="5.26292">
<ele>161</ele>
<time>2012-03-24T16:55:32.000Z</time>
</trkpt>
<trkpt lat="43.55814" lon="5.26284">
<ele>160.6</ele>
<time>2012-03-24T16:55:33.000Z</time>
</trkpt>
<trkpt lat="43.55816" lon="5.26276">
<ele>160.7</ele>
<time>2012-03-24T16:55:34.000Z</time>
</trkpt>
<trkpt lat="43.55817" lon="5.26268">
<ele>160.6</ele>
<time>2012-03-24T16:55:35.000Z</time>
</trkpt>
<trkpt lat="43.55818" lon="5.26259">
<ele>160.3</ele>
<time>2012-03-24T16:55:36.000Z</time>
</trkpt>
<trkpt lat="43.55818" lon="5.26251">
<ele>160.6</ele>
<time>2012-03-24T16:55:37.000Z</time>
</trkpt>
<trkpt lat="43.55819" lon="5.26242">
<ele>160.3</ele>
<time>2012-03-24T16:55:38.000Z</time>
</trkpt>
<trkpt lat="43.5582" lon="5.26234">
<ele>160.1</ele>
<time>2012-03-24T16:55:39.000Z</time>
</trkpt>
<trkpt lat="43.5582" lon="5.26225">
<ele>160.2</ele>
<time>2012-03-24T16:55:40.000Z</time>
</trkpt>
<trkpt lat="43.55821" lon="5.26216">
<ele>160.1</ele>
<time>2012-03-24T16:55:41.000Z</time>
</trkpt>
<trkpt lat="43.55821" lon="5.26207">
<ele>160.1</ele>
<time>2012-03-24T16:55:42.000Z</time>
</trkpt>
<trkpt lat="43.55822" lon="5.26198">
<ele>160.2</ele>
<time>2012-03-24T16:55:43.000Z</time>
</trkpt>
<trkpt lat="43.55822" lon="5.26189">
<ele>160</ele>
<time>2012-03-24T16:55:44.000Z</time>
</trkpt>
<trkpt lat="43.55824" lon="5.26179">
<ele>159.6</ele>
<time>2012-03-24T16:55:45.000Z</time>
</trkpt>
<trkpt lat="43.55826" lon="5.26169">
<ele>158.9</ele>
<time>2012-03-24T16:55:46.000Z</time>
</trkpt>
<trkpt lat="43.55826" lon="5.2616">
<ele>158.6</ele>
<time>2012-03-24T16:55:47.000Z</time>
</trkpt>
<trkpt lat="43.55827" lon="5.26151">
<ele>158.2</ele>
<time>2012-03-24T16:55:48.000Z</time>
</trkpt>
<trkpt lat="43.55828" lon="5.26141">
<ele>157.8</ele>
<time>2012-03-24T16:55:49.000Z</time>
</trkpt>
<trkpt lat="43.55829" lon="5.26132">
<ele>157.7</ele>
<time>2012-03-24T16:55:50.000Z</time>
</trkpt>
<trkpt lat="43.5583" lon="5.26121">
<ele>157.8</ele>
<time>2012-03-24T16:55:51.000Z</time>
</trkpt>
<trkpt lat="43.55832" lon="5.26111">
<ele>157.3</ele>
<time>2012-03-24T16:55:52.000Z</time>
</trkpt>
<trkpt lat="43.55833" lon="5.26102">
<ele>157.1</ele>
<time>2012-03-24T16:55:53.000Z</time>
</trkpt>
<trkpt lat="43.55834" lon="5.26092">
<ele>156.8</ele>
<time>2012-03-24T16:55:54.000Z</time>
</trkpt>
<trkpt lat="43.55835" lon="5.26082">
<ele>156.4</ele>
<time>2012-03-24T16:55:55.000Z</time>
</trkpt>
<trkpt lat="43.55836" lon="5.26075">
<ele>155.7</ele>
<time>2012-03-24T16:55:56.000Z</time>
</trkpt>
<trkpt lat="43.55837" lon="5.26066">
<ele>155.8</ele>
<time>2012-03-24T16:55:57.000Z</time>
</trkpt>
<trkpt lat="43.55838" lon="5.26057">
<ele>156</ele>
<time>2012-03-24T16:55:58.000Z</time>
</trkpt>
<trkpt lat="43.5584" lon="5.26048">
<ele>156.1</ele>
<time>2012-03-24T16:55:59.000Z</time>
</trkpt>
<trkpt lat="43.55841" lon="5.26039">
<ele>155.6</ele>
<time>2012-03-24T16:56:00.000Z</time>
</trkpt>
<trkpt lat="43.55841" lon="5.26031">
<ele>156.2</ele>
<time>2012-03-24T16:56:01.000Z</time>
</trkpt>
<trkpt lat="43.55842" lon="5.26022">
<ele>156.1</ele>
<time>2012-03-24T16:56:02.000Z</time>
</trkpt>
<trkpt lat="43.55843" lon="5.26013">
<ele>155.9</ele>
<time>2012-03-24T16:56:03.000Z</time>
</trkpt>
<trkpt lat="43.55844" lon="5.26004">
<ele>155.8</ele>
<time>2012-03-24T16:56:04.000Z</time>
</trkpt>
<trkpt lat="43.55844" lon="5.25996">
<ele>155.8</ele>
<time>2012-03-24T16:56:05.000Z</time>
</trkpt>
<trkpt lat="43.55844" lon="5.25988">
<ele>155.8</ele>
<time>2012-03-24T16:56:06.000Z</time>
</trkpt>
<trkpt lat="43.55846" lon="5.25979">
<ele>155.7</ele>
<time>2012-03-24T16:56:07.000Z</time>
</trkpt>
<trkpt lat="43.55847" lon="5.2597">
<ele>155.7</ele>
<time>2012-03-24T16:56:08.000Z</time>
</trkpt>
<trkpt lat="43.55849" lon="5.25962">
<ele>155.5</ele>
<time>2012-03-24T16:56:09.000Z</time>
</trkpt>
<trkpt lat="43.55848" lon="5.25952">
<ele>156.3</ele>
<time>2012-03-24T16:56:10.000Z</time>
</trkpt>
<trkpt lat="43.55849" lon="5.25943">
<ele>156.2</ele>
<time>2012-03-24T16:56:11.000Z</time>
</trkpt>
<trkpt lat="43.5585" lon="5.25935">
<ele>156.4</ele>
<time>2012-03-24T16:56:12.000Z</time>
</trkpt>
<trkpt lat="43.5585" lon="5.25927">
<ele>156.4</ele>
<time>2012-03-24T16:56:13.000Z</time>
</trkpt>
<trkpt lat="43.55851" lon="5.25919">
<ele>156.1</ele>
<time>2012-03-24T16:56:14.000Z</time>
</trkpt>
<trkpt lat="43.55851" lon="5.25911">
<ele>156.2</ele>
<time>2012-03-24T16:56:15.000Z</time>
</trkpt>
<trkpt lat="43.55853" lon="5.25903">
<ele>156.2</ele>
<time>2012-03-24T16:56:16.000Z</time>
</trkpt>
<trkpt lat="43.55853" lon="5.25893">
<ele>156.2</ele>
<time>2012-03-24T16:56:17.000Z</time>
</trkpt>
<trkpt lat="43.55855" lon="5.25884">
<ele>156.3</ele>
<time>2012-03-24T16:56:18.000Z</time>
</trkpt>
<trkpt lat="43.55855" lon="5.25876">
<ele>155.6</ele>
<time>2012-03-24T16:56:19.000Z</time>
</trkpt>
<trkpt lat="43.55855" lon="5.25867">
<ele>156.1</ele>
<time>2012-03-24T16:56:20.000Z</time>
</trkpt>
<trkpt lat="43.55854" lon="5.2586">
<ele>156.1</ele>
<time>2012-03-24T16:56:21.000Z</time>
</trkpt>
<trkpt lat="43.55854" lon="5.25852">
<ele>156</ele>
<time>2012-03-24T16:56:22.000Z</time>
</trkpt>
<trkpt lat="43.55853" lon="5.25844">
<ele>155.8</ele>
<time>2012-03-24T16:56:23.000Z</time>
</trkpt>
<trkpt lat="43.55852" lon="5.25835">
<ele>156</ele>
<time>2012-03-24T16:56:24.000Z</time>
</trkpt>
<trkpt lat="43.5585" lon="5.25826">
<ele>155.9</ele>
<time>2012-03-24T16:56:25.000Z</time>
</trkpt>
<trkpt lat="43.55849" lon="5.25817">
<ele>156.2</ele>
<time>2012-03-24T16:56:26.000Z</time>
</trkpt>
<trkpt lat="43.55847" lon="5.25807">
<ele>156.4</ele>
<time>2012-03-24T16:56:27.000Z</time>
</trkpt>
<trkpt lat="43.55845" lon="5.25799">
<ele>156.5</ele>
<time>2012-03-24T16:56:28.000Z</time>
</trkpt>
<trkpt lat="43.55843" lon="5.2579">
<ele>157.6</ele>
<time>2012-03-24T16:56:29.000Z</time>
</trkpt>
<trkpt lat="43.55841" lon="5.25782">
<ele>156.9</ele>
<time>2012-03-24T16:56:30.000Z</time>
</trkpt>
<trkpt lat="43.55839" lon="5.25774">
<ele>156.6</ele>
<time>2012-03-24T16:56:31.000Z</time>
</trkpt>
<trkpt lat="43.55836" lon="5.25765">
<ele>155.8</ele>
<time>2012-03-24T16:56:32.000Z</time>
</trkpt>
<trkpt lat="43.55834" lon="5.25757">
<ele>155.2</ele>
<time>2012-03-24T16:56:33.000Z</time>
</trkpt>
<trkpt lat="43.55832" lon="5.25747">
<ele>154.8</ele>
<time>2012-03-24T16:56:34.000Z</time>
</trkpt>
<trkpt lat="43.5583" lon="5.25738">
<ele>154.3</ele>
<time>2012-03-24T16:56:35.000Z</time>
</trkpt>
<trkpt lat="43.55828" lon="5.25728">
<ele>153.9</ele>
<time>2012-03-24T16:56:36.000Z</time>
</trkpt>
<trkpt lat="43.55825" lon="5.25718">
<ele>153.3</ele>
<time>2012-03-24T16:56:37.000Z</time>
</trkpt>
<trkpt lat="43.55822" lon="5.25708">
<ele>153.2</ele>
<time>2012-03-24T16:56:38.000Z</time>
</trkpt>
<trkpt lat="43.5582" lon="5.25698">
<ele>152.8</ele>
<time>2012-03-24T16:56:39.000Z</time>
</trkpt>
<trkpt lat="43.55817" lon="5.25688">
<ele>152.5</ele>
<time>2012-03-24T16:56:40.000Z</time>
</trkpt>
<trkpt lat="43.55815" lon="5.25677">
<ele>151.7</ele>
<time>2012-03-24T16:56:41.000Z</time>
</trkpt>
<trkpt lat="43.55813" lon="5.25667">
<ele>151.7</ele>
<time>2012-03-24T16:56:42.000Z</time>
</trkpt>
<trkpt lat="43.55811" lon="5.25657">
<ele>151.5</ele>
<time>2012-03-24T16:56:43.000Z</time>
</trkpt>
<trkpt lat="43.55808" lon="5.25646">
<ele>151.5</ele>
<time>2012-03-24T16:56:44.000Z</time>
</trkpt>
<trkpt lat="43.55806" lon="5.25636">
<ele>151.7</ele>
<time>2012-03-24T16:56:45.000Z</time>
</trkpt>
<trkpt lat="43.55805" lon="5.25625">
<ele>151.6</ele>
<time>2012-03-24T16:56:46.000Z</time>
</trkpt>
<trkpt lat="43.55804" lon="5.25614">
<ele>152</ele>
<time>2012-03-24T16:56:47.000Z</time>
</trkpt>
<trkpt lat="43.55804" lon="5.25604">
<ele>152.2</ele>
<time>2012-03-24T16:56:48.000Z</time>
</trkpt>
<trkpt lat="43.55804" lon="5.25594">
<ele>152</ele>
<time>2012-03-24T16:56:49.000Z</time>
</trkpt>
<trkpt lat="43.55806" lon="5.25587">
<ele>151.8</ele>
<time>2012-03-24T16:56:50.000Z</time>
</trkpt>
<trkpt lat="43.5581" lon="5.25579">
<ele>151.8</ele>
<time>2012-03-24T16:56:51.000Z</time>
</trkpt>
<trkpt lat="43.55813" lon="5.25574">
<ele>152</ele>
<time>2012-03-24T16:56:52.000Z</time>
</trkpt>
<trkpt lat="43.55816" lon="5.25566">
<ele>151.8</ele>
<time>2012-03-24T16:56:53.000Z</time>
</trkpt>
<trkpt lat="43.5582" lon="5.2556">
<ele>152</ele>
<time>2012-03-24T16:56:54.000Z</time>
</trkpt>
<trkpt lat="43.55826" lon="5.2555">
<ele>151.9</ele>
<time>2012-03-24T16:56:56.000Z</time>
</trkpt>
<trkpt lat="43.55828" lon="5.25545">
<ele>152</ele>
<time>2012-03-24T16:56:57.000Z</time>
</trkpt>
<trkpt lat="43.55833" lon="5.25538">
<ele>151.8</ele>
<time>2012-03-24T16:56:58.000Z</time>
</trkpt>
<trkpt lat="43.55836" lon="5.25529">
<ele>151.7</ele>
<time>2012-03-24T16:56:59.000Z</time>
</trkpt>
<trkpt lat="43.5584" lon="5.25524">
<ele>151.8</ele>
<time>2012-03-24T16:57:00.000Z</time>
</trkpt>
<trkpt lat="43.55843" lon="5.25517">
<ele>151.8</ele>
<time>2012-03-24T16:57:01.000Z</time>
</trkpt>
<trkpt lat="43.55846" lon="5.25511">
<ele>151.8</ele>
<time>2012-03-24T16:57:02.000Z</time>
</trkpt>
<trkpt lat="43.55851" lon="5.25502">
<ele>152.3</ele>
<time>2012-03-24T16:57:04.000Z</time>
</trkpt>
<trkpt lat="43.55852" lon="5.25495">
<ele>152.6</ele>
<time>2012-03-24T16:57:06.000Z</time>
</trkpt>
<trkpt lat="43.55854" lon="5.25489">
<ele>152.8</ele>
<time>2012-03-24T16:57:07.000Z</time>
</trkpt>
<trkpt lat="43.55857" lon="5.25482">
<ele>153.4</ele>
<time>2012-03-24T16:57:08.000Z</time>
</trkpt>
<trkpt lat="43.55859" lon="5.25473">
<ele>153.9</ele>
<time>2012-03-24T16:57:10.000Z</time>
</trkpt>
<trkpt lat="43.55854" lon="5.25465">
<ele>153.4</ele>
<time>2012-03-24T16:57:11.000Z</time>
</trkpt>
<trkpt lat="43.55858" lon="5.25454">
<ele>154.5</ele>
<time>2012-03-24T16:57:13.000Z</time>
</trkpt>
<trkpt lat="43.55859" lon="5.25441">
<ele>155.2</ele>
<time>2012-03-24T16:57:15.000Z</time>
</trkpt>
<trkpt lat="43.5586" lon="5.25434">
<ele>155.2</ele>
<time>2012-03-24T16:57:16.000Z</time>
</trkpt>
<trkpt lat="43.55861" lon="5.25426">
<ele>155.2</ele>
<time>2012-03-24T16:57:17.000Z</time>
</trkpt>
<trkpt lat="43.55857" lon="5.25417">
<ele>154.5</ele>
<time>2012-03-24T16:57:18.000Z</time>
</trkpt>
<trkpt lat="43.55857" lon="5.25409">
<ele>154.9</ele>
<time>2012-03-24T16:57:19.000Z</time>
</trkpt>
<trkpt lat="43.55858" lon="5.25402">
<ele>155.3</ele>
<time>2012-03-24T16:57:20.000Z</time>
</trkpt>
<trkpt lat="43.55856" lon="5.25394">
<ele>155</ele>
<time>2012-03-24T16:57:21.000Z</time>
</trkpt>
<trkpt lat="43.55855" lon="5.25386">
<ele>154.9</ele>
<time>2012-03-24T16:57:22.000Z</time>
</trkpt>
<trkpt lat="43.55852" lon="5.25377">
<ele>154.7</ele>
<time>2012-03-24T16:57:23.000Z</time>
</trkpt>
<trkpt lat="43.55851" lon="5.25369">
<ele>154.9</ele>
<time>2012-03-24T16:57:24.000Z</time>
</trkpt>
<trkpt lat="43.55852" lon="5.25362">
<ele>154.9</ele>
<time>2012-03-24T16:57:25.000Z</time>
</trkpt>
<trkpt lat="43.55852" lon="5.25356">
<ele>155.2</ele>
<time>2012-03-24T16:57:26.000Z</time>
</trkpt>
<trkpt lat="43.55853" lon="5.25348">
<ele>155.1</ele>
<time>2012-03-24T16:57:27.000Z</time>
</trkpt>
<trkpt lat="43.55852" lon="5.2534">
<ele>154.7</ele>
<time>2012-03-24T16:57:28.000Z</time>
</trkpt>
<trkpt lat="43.55853" lon="5.25331">
<ele>154.5</ele>
<time>2012-03-24T16:57:29.000Z</time>
</trkpt>
<trkpt lat="43.55853" lon="5.25324">
<ele>154.2</ele>
<time>2012-03-24T16:57:30.000Z</time>
</trkpt>
<trkpt lat="43.55853" lon="5.25317">
<ele>154.2</ele>
<time>2012-03-24T16:57:31.000Z</time>
</trkpt>
<trkpt lat="43.55853" lon="5.25311">
<ele>154.5</ele>
<time>2012-03-24T16:57:32.000Z</time>
</trkpt>
<trkpt lat="43.55853" lon="5.25303">
<ele>154.3</ele>
<time>2012-03-24T16:57:33.000Z</time>
</trkpt>
<trkpt lat="43.55853" lon="5.25295">
<ele>154.5</ele>
<time>2012-03-24T16:57:34.000Z</time>
</trkpt>
<trkpt lat="43.55853" lon="5.25288">
<ele>154.6</ele>
<time>2012-03-24T16:57:35.000Z</time>
</trkpt>
<trkpt lat="43.55852" lon="5.25279">
<ele>154.7</ele>
<time>2012-03-24T16:57:36.000Z</time>
</trkpt>
<trkpt lat="43.55852" lon="5.25271">
<ele>154.8</ele>
<time>2012-03-24T16:57:37.000Z</time>
</trkpt>
<trkpt lat="43.55853" lon="5.25264">
<ele>154.8</ele>
<time>2012-03-24T16:57:38.000Z</time>
</trkpt>
<trkpt lat="43.55853" lon="5.25255">
<ele>154.8</ele>
<time>2012-03-24T16:57:39.000Z</time>
</trkpt>
<trkpt lat="43.55855" lon="5.25248">
<ele>154.2</ele>
<time>2012-03-24T16:57:40.000Z</time>
</trkpt>
<trkpt lat="43.55856" lon="5.25238">
<ele>154.1</ele>
<time>2012-03-24T16:57:41.000Z</time>
</trkpt>
<trkpt lat="43.55855" lon="5.2523">
<ele>154.9</ele>
<time>2012-03-24T16:57:42.000Z</time>
</trkpt>
<trkpt lat="43.55854" lon="5.25222">
<ele>154.6</ele>
<time>2012-03-24T16:57:43.000Z</time>
</trkpt>
<trkpt lat="43.55854" lon="5.25214">
<ele>154.1</ele>
<time>2012-03-24T16:57:44.000Z</time>
</trkpt>
<trkpt lat="43.55854" lon="5.25206">
<ele>153.5</ele>
<time>2012-03-24T16:57:45.000Z</time>
</trkpt>
<trkpt lat="43.55854" lon="5.25198">
<ele>154.4</ele>
<time>2012-03-24T16:57:46.000Z</time>
</trkpt>
<trkpt lat="43.55853" lon="5.25192">
<ele>154.6</ele>
<time>2012-03-24T16:57:47.000Z</time>
</trkpt>
<trkpt lat="43.55852" lon="5.25182">
<ele>155.6</ele>
<time>2012-03-24T16:57:49.000Z</time>
</trkpt>
<trkpt lat="43.55854" lon="5.25175">
<ele>155.7</ele>
<time>2012-03-24T16:57:50.000Z</time>
</trkpt>
<trkpt lat="43.55853" lon="5.25163">
<ele>156.2</ele>
<time>2012-03-24T16:57:52.000Z</time>
</trkpt>
<trkpt lat="43.55852" lon="5.25152">
<ele>156.4</ele>
<time>2012-03-24T16:57:54.000Z</time>
</trkpt>
<trkpt lat="43.55852" lon="5.25142">
<ele>156</ele>
<time>2012-03-24T16:57:56.000Z</time>
</trkpt>
<trkpt lat="43.55849" lon="5.25132">
<ele>156.2</ele>
<time>2012-03-24T16:57:58.000Z</time>
</trkpt>
<trkpt lat="43.55844" lon="5.25127">
<ele>156.5</ele>
<time>2012-03-24T16:58:00.000Z</time>
</trkpt>
<trkpt lat="43.55842" lon="5.25117">
<ele>154.7</ele>
<time>2012-03-24T16:58:01.000Z</time>
</trkpt>
<trkpt lat="43.5584" lon="5.25111">
<ele>154.5</ele>
<time>2012-03-24T16:58:04.000Z</time>
</trkpt>
</trkseg>
</trk>
</gpx>
